<?xml version="1.0" encoding="UTF-8" standalone="no" ?>
<gpx xmlns="http://www.topografix.com/GPX/1/1" xmlns:xsi="http://www.w3.org/2001/XMLSchema-instance" xsi:schemaLocation="http://www.topografix.com/GPX/1/1 http://www.topografix.com/GPX/1/1/gpx.xsd" version="1.1" creator="VisuGPX - https://www.visugpx.com">
  <metadata>
    <name>vallée du Scorff et Vallée de l'Ellé</name>
    <desc><![CDATA[3j de rando nature le long du Scorff et de l'Ellé]]></desc>
  </metadata>
  <trk>
    <name><![CDATA[Locunolé - Querrien 31 km]]></name>
    <trkseg>
      <trkpt lat="47.93666" lon="-3.47457">
        <ele>94.54</ele>
        <time>2018-06-01T07:57:34Z</time>
      </trkpt>
      <trkpt lat="47.93666" lon="-3.47457">
        <ele>94.54</ele>
        <time>2018-06-01T07:57:35Z</time>
      </trkpt>
      <trkpt lat="47.93665" lon="-3.47458">
        <ele>94.58</ele>
        <time>2018-06-01T07:58:07Z</time>
      </trkpt>
      <trkpt lat="47.93667" lon="-3.47459">
        <ele>94.98</ele>
        <time>2018-06-01T07:58:35Z</time>
      </trkpt>
      <trkpt lat="47.93664" lon="-3.47459">
        <ele>94.86</ele>
        <time>2018-06-01T07:58:52Z</time>
      </trkpt>
      <trkpt lat="47.93656" lon="-3.47454">
        <ele>94.33</ele>
        <time>2018-06-01T07:59:08Z</time>
      </trkpt>
      <trkpt lat="47.93657" lon="-3.47453">
        <ele>94.58</ele>
        <time>2018-06-01T07:59:24Z</time>
      </trkpt>
      <trkpt lat="47.93655" lon="-3.47458">
        <ele>94.51</ele>
        <time>2018-06-01T07:59:38Z</time>
      </trkpt>
      <trkpt lat="47.93657" lon="-3.47454">
        <ele>94.63</ele>
        <time>2018-06-01T07:59:56Z</time>
      </trkpt>
      <trkpt lat="47.93656" lon="-3.47453">
        <ele>94.65</ele>
        <time>2018-06-01T08:00:23Z</time>
      </trkpt>
      <trkpt lat="47.93655" lon="-3.47452">
        <ele>94.53</ele>
        <time>2018-06-01T08:00:50Z</time>
      </trkpt>
      <trkpt lat="47.93659" lon="-3.47455">
        <ele>94.61</ele>
        <time>2018-06-01T08:01:08Z</time>
      </trkpt>
      <trkpt lat="47.9366" lon="-3.47458">
        <ele>94.44</ele>
        <time>2018-06-01T08:01:25Z</time>
      </trkpt>
      <trkpt lat="47.9366" lon="-3.47455">
        <ele>94.65</ele>
        <time>2018-06-01T08:01:43Z</time>
      </trkpt>
      <trkpt lat="47.9366" lon="-3.47455">
        <ele>94.38</ele>
        <time>2018-06-01T08:02:00Z</time>
      </trkpt>
      <trkpt lat="47.93657" lon="-3.47454">
        <ele>94.43</ele>
        <time>2018-06-01T08:02:12Z</time>
      </trkpt>
      <trkpt lat="47.93656" lon="-3.47453">
        <ele>94.1</ele>
        <time>2018-06-01T08:02:28Z</time>
      </trkpt>
      <trkpt lat="47.93656" lon="-3.47453">
        <ele>94.01</ele>
        <time>2018-06-01T08:02:55Z</time>
      </trkpt>
      <trkpt lat="47.93656" lon="-3.47455">
        <ele>94.06</ele>
        <time>2018-06-01T08:03:08Z</time>
      </trkpt>
      <trkpt lat="47.93656" lon="-3.47456">
        <ele>93.77</ele>
        <time>2018-06-01T08:03:31Z</time>
      </trkpt>
      <trkpt lat="47.93657" lon="-3.47456">
        <ele>93.94</ele>
        <time>2018-06-01T08:03:55Z</time>
      </trkpt>
      <trkpt lat="47.93656" lon="-3.47456">
        <ele>93.81</ele>
        <time>2018-06-01T08:04:25Z</time>
      </trkpt>
      <trkpt lat="47.93655" lon="-3.47457">
        <ele>93.85</ele>
        <time>2018-06-01T08:04:46Z</time>
      </trkpt>
      <trkpt lat="47.93655" lon="-3.47455">
        <ele>94.26</ele>
        <time>2018-06-01T08:05:14Z</time>
      </trkpt>
      <trkpt lat="47.93655" lon="-3.47453">
        <ele>94.22</ele>
        <time>2018-06-01T08:05:42Z</time>
      </trkpt>
      <trkpt lat="47.93654" lon="-3.47452">
        <ele>94.28</ele>
        <time>2018-06-01T08:06:07Z</time>
      </trkpt>
      <trkpt lat="47.93656" lon="-3.47448">
        <ele>94.05</ele>
        <time>2018-06-01T08:06:21Z</time>
      </trkpt>
      <trkpt lat="47.93669" lon="-3.47422">
        <ele>94.39</ele>
        <time>2018-06-01T08:06:40Z</time>
      </trkpt>
      <trkpt lat="47.93684" lon="-3.47394">
        <ele>94.31</ele>
        <time>2018-06-01T08:07:00Z</time>
      </trkpt>
      <trkpt lat="47.93703" lon="-3.47361">
        <ele>93.47</ele>
        <time>2018-06-01T08:07:21Z</time>
      </trkpt>
      <trkpt lat="47.93724" lon="-3.47326">
        <ele>92.09</ele>
        <time>2018-06-01T08:07:43Z</time>
      </trkpt>
      <trkpt lat="47.93752" lon="-3.47285">
        <ele>89.99</ele>
        <time>2018-06-01T08:08:09Z</time>
      </trkpt>
      <trkpt lat="47.93773" lon="-3.47247">
        <ele>87.5</ele>
        <time>2018-06-01T08:08:33Z</time>
      </trkpt>
      <trkpt lat="47.93797" lon="-3.47211">
        <ele>84.82</ele>
        <time>2018-06-01T08:08:56Z</time>
      </trkpt>
      <trkpt lat="47.9382" lon="-3.47193">
        <ele>82.1</ele>
        <time>2018-06-01T08:09:14Z</time>
      </trkpt>
      <trkpt lat="47.93837" lon="-3.47189">
        <ele>82.34</ele>
        <time>2018-06-01T08:09:28Z</time>
      </trkpt>
      <trkpt lat="47.93839" lon="-3.47185">
        <ele>82.33</ele>
        <time>2018-06-01T08:09:32Z</time>
      </trkpt>
      <trkpt lat="47.93842" lon="-3.47181">
        <ele>81.52</ele>
        <time>2018-06-01T08:09:37Z</time>
      </trkpt>
      <trkpt lat="47.9385" lon="-3.47178">
        <ele>79.8</ele>
        <time>2018-06-01T08:09:52Z</time>
      </trkpt>
      <trkpt lat="47.93855" lon="-3.47173">
        <ele>79.84</ele>
        <time>2018-06-01T08:10:15Z</time>
      </trkpt>
      <trkpt lat="47.93854" lon="-3.47175">
        <ele>79.26</ele>
        <time>2018-06-01T08:10:39Z</time>
      </trkpt>
      <trkpt lat="47.93853" lon="-3.47178">
        <ele>79.59</ele>
        <time>2018-06-01T08:11:06Z</time>
      </trkpt>
      <trkpt lat="47.93853" lon="-3.47177">
        <ele>79.44</ele>
        <time>2018-06-01T08:11:34Z</time>
      </trkpt>
      <trkpt lat="47.93863" lon="-3.47172">
        <ele>79.7</ele>
        <time>2018-06-01T08:11:57Z</time>
      </trkpt>
      <trkpt lat="47.93878" lon="-3.47167">
        <ele>76.54</ele>
        <time>2018-06-01T08:12:13Z</time>
      </trkpt>
      <trkpt lat="47.93892" lon="-3.47164">
        <ele>73.46</ele>
        <time>2018-06-01T08:12:25Z</time>
      </trkpt>
      <trkpt lat="47.93919" lon="-3.47156">
        <ele>70.32</ele>
        <time>2018-06-01T08:12:43Z</time>
      </trkpt>
      <trkpt lat="47.93938" lon="-3.47139">
        <ele>67.06</ele>
        <time>2018-06-01T08:12:55Z</time>
      </trkpt>
      <trkpt lat="47.93952" lon="-3.47128">
        <ele>63.89</ele>
        <time>2018-06-01T08:13:06Z</time>
      </trkpt>
      <trkpt lat="47.93968" lon="-3.47118">
        <ele>60.82</ele>
        <time>2018-06-01T08:13:17Z</time>
      </trkpt>
      <trkpt lat="47.93977" lon="-3.47109">
        <ele>57.43</ele>
        <time>2018-06-01T08:13:25Z</time>
      </trkpt>
      <trkpt lat="47.93992" lon="-3.47101">
        <ele>54.27</ele>
        <time>2018-06-01T08:13:37Z</time>
      </trkpt>
      <trkpt lat="47.94007" lon="-3.47102">
        <ele>51.17</ele>
        <time>2018-06-01T08:13:49Z</time>
      </trkpt>
      <trkpt lat="47.94015" lon="-3.47101">
        <ele>48.37</ele>
        <time>2018-06-01T08:14:00Z</time>
      </trkpt>
      <trkpt lat="47.9402" lon="-3.47102">
        <ele>47.29</ele>
        <time>2018-06-01T08:14:04Z</time>
      </trkpt>
      <trkpt lat="47.94041" lon="-3.47109">
        <ele>43.98</ele>
        <time>2018-06-01T08:14:22Z</time>
      </trkpt>
      <trkpt lat="47.94065" lon="-3.47124">
        <ele>41.65</ele>
        <time>2018-06-01T08:14:40Z</time>
      </trkpt>
      <trkpt lat="47.9407" lon="-3.47132">
        <ele>40.45</ele>
        <time>2018-06-01T08:14:47Z</time>
      </trkpt>
      <trkpt lat="47.94073" lon="-3.47137">
        <ele>39.99</ele>
        <time>2018-06-01T08:14:50Z</time>
      </trkpt>
      <trkpt lat="47.94076" lon="-3.47144">
        <ele>39.45</ele>
        <time>2018-06-01T08:14:53Z</time>
      </trkpt>
      <trkpt lat="47.94082" lon="-3.47155">
        <ele>37.96</ele>
        <time>2018-06-01T08:15:03Z</time>
      </trkpt>
      <trkpt lat="47.94087" lon="-3.4716">
        <ele>37.38</ele>
        <time>2018-06-01T08:15:09Z</time>
      </trkpt>
      <trkpt lat="47.94091" lon="-3.47165">
        <ele>37.42</ele>
        <time>2018-06-01T08:15:25Z</time>
      </trkpt>
      <trkpt lat="47.94104" lon="-3.4716">
        <ele>34.63</ele>
        <time>2018-06-01T08:15:42Z</time>
      </trkpt>
      <trkpt lat="47.94105" lon="-3.47159">
        <ele>34.21</ele>
        <time>2018-06-01T08:15:44Z</time>
      </trkpt>
      <trkpt lat="47.94114" lon="-3.47154">
        <ele>31.79</ele>
        <time>2018-06-01T08:16:03Z</time>
      </trkpt>
      <trkpt lat="47.94121" lon="-3.47152">
        <ele>29.15</ele>
        <time>2018-06-01T08:16:19Z</time>
      </trkpt>
      <trkpt lat="47.94124" lon="-3.47155">
        <ele>28.69</ele>
        <time>2018-06-01T08:16:47Z</time>
      </trkpt>
      <trkpt lat="47.94123" lon="-3.4715">
        <ele>28.23</ele>
        <time>2018-06-01T08:17:18Z</time>
      </trkpt>
      <trkpt lat="47.94127" lon="-3.47138">
        <ele>27.88</ele>
        <time>2018-06-01T08:17:26Z</time>
      </trkpt>
      <trkpt lat="47.9413" lon="-3.47136">
        <ele>26.68</ele>
        <time>2018-06-01T08:17:34Z</time>
      </trkpt>
      <trkpt lat="47.94131" lon="-3.47147">
        <ele>24.9</ele>
        <time>2018-06-01T08:17:42Z</time>
      </trkpt>
      <trkpt lat="47.94136" lon="-3.47143">
        <ele>23.14</ele>
        <time>2018-06-01T08:17:55Z</time>
      </trkpt>
      <trkpt lat="47.94136" lon="-3.4714">
        <ele>23.12</ele>
        <time>2018-06-01T08:17:57Z</time>
      </trkpt>
      <trkpt lat="47.94138" lon="-3.47122">
        <ele>22.32</ele>
        <time>2018-06-01T08:18:10Z</time>
      </trkpt>
      <trkpt lat="47.94144" lon="-3.47113">
        <ele>21.15</ele>
        <time>2018-06-01T08:18:25Z</time>
      </trkpt>
      <trkpt lat="47.94148" lon="-3.47107">
        <ele>21.41</ele>
        <time>2018-06-01T08:18:44Z</time>
      </trkpt>
      <trkpt lat="47.94144" lon="-3.47113">
        <ele>21.69</ele>
        <time>2018-06-01T08:19:05Z</time>
      </trkpt>
      <trkpt lat="47.94142" lon="-3.47117">
        <ele>21.53</ele>
        <time>2018-06-01T08:19:24Z</time>
      </trkpt>
      <trkpt lat="47.94138" lon="-3.47122">
        <ele>21.84</ele>
        <time>2018-06-01T08:19:40Z</time>
      </trkpt>
      <trkpt lat="47.94138" lon="-3.47122">
        <ele>22.05</ele>
        <time>2018-06-01T08:19:52Z</time>
      </trkpt>
      <trkpt lat="47.94135" lon="-3.47142">
        <ele>22.71</ele>
        <time>2018-06-01T08:20:02Z</time>
      </trkpt>
      <trkpt lat="47.94135" lon="-3.47155">
        <ele>23.08</ele>
        <time>2018-06-01T08:20:09Z</time>
      </trkpt>
      <trkpt lat="47.94137" lon="-3.47157">
        <ele>23.1</ele>
        <time>2018-06-01T08:20:11Z</time>
      </trkpt>
      <trkpt lat="47.94142" lon="-3.47159">
        <ele>23.14</ele>
        <time>2018-06-01T08:20:17Z</time>
      </trkpt>
      <trkpt lat="47.94145" lon="-3.47172">
        <ele>23.89</ele>
        <time>2018-06-01T08:20:23Z</time>
      </trkpt>
      <trkpt lat="47.94154" lon="-3.47203">
        <ele>26.13</ele>
        <time>2018-06-01T08:20:38Z</time>
      </trkpt>
      <trkpt lat="47.94169" lon="-3.47257">
        <ele>27.8</ele>
        <time>2018-06-01T08:21:00Z</time>
      </trkpt>
      <trkpt lat="47.94178" lon="-3.47293">
        <ele>30.05</ele>
        <time>2018-06-01T08:21:13Z</time>
      </trkpt>
      <trkpt lat="47.94174" lon="-3.47333">
        <ele>31.31</ele>
        <time>2018-06-01T08:21:34Z</time>
      </trkpt>
      <trkpt lat="47.94169" lon="-3.4735">
        <ele>31.51</ele>
        <time>2018-06-01T08:21:42Z</time>
      </trkpt>
      <trkpt lat="47.94163" lon="-3.47388">
        <ele>32.21</ele>
        <time>2018-06-01T08:21:58Z</time>
      </trkpt>
      <trkpt lat="47.94153" lon="-3.4744">
        <ele>32.98</ele>
        <time>2018-06-01T08:22:19Z</time>
      </trkpt>
      <trkpt lat="47.94151" lon="-3.47464">
        <ele>33.24</ele>
        <time>2018-06-01T08:22:30Z</time>
      </trkpt>
      <trkpt lat="47.94144" lon="-3.47477">
        <ele>33.59</ele>
        <time>2018-06-01T08:22:39Z</time>
      </trkpt>
      <trkpt lat="47.94157" lon="-3.47491">
        <ele>34.18</ele>
        <time>2018-06-01T08:22:52Z</time>
      </trkpt>
      <trkpt lat="47.94169" lon="-3.47504">
        <ele>34.79</ele>
        <time>2018-06-01T08:23:04Z</time>
      </trkpt>
      <trkpt lat="47.9418" lon="-3.47532">
        <ele>34.91</ele>
        <time>2018-06-01T08:23:17Z</time>
      </trkpt>
      <trkpt lat="47.94194" lon="-3.47567">
        <ele>35.21</ele>
        <time>2018-06-01T08:23:29Z</time>
      </trkpt>
      <trkpt lat="47.94197" lon="-3.47572">
        <ele>35.32</ele>
        <time>2018-06-01T08:23:31Z</time>
      </trkpt>
      <trkpt lat="47.942" lon="-3.47585">
        <ele>35.46</ele>
        <time>2018-06-01T08:23:36Z</time>
      </trkpt>
      <trkpt lat="47.94206" lon="-3.47615">
        <ele>35.66</ele>
        <time>2018-06-01T08:23:51Z</time>
      </trkpt>
      <trkpt lat="47.94211" lon="-3.47628">
        <ele>36.28</ele>
        <time>2018-06-01T08:23:57Z</time>
      </trkpt>
      <trkpt lat="47.94212" lon="-3.47633">
        <ele>36.51</ele>
        <time>2018-06-01T08:23:59Z</time>
      </trkpt>
      <trkpt lat="47.94225" lon="-3.47649">
        <ele>37.13</ele>
        <time>2018-06-01T08:24:08Z</time>
      </trkpt>
      <trkpt lat="47.94236" lon="-3.47662">
        <ele>37.56</ele>
        <time>2018-06-01T08:24:13Z</time>
      </trkpt>
      <trkpt lat="47.94251" lon="-3.47717">
        <ele>39.38</ele>
        <time>2018-06-01T08:24:24Z</time>
      </trkpt>
      <trkpt lat="47.9426" lon="-3.47765">
        <ele>40.28</ele>
        <time>2018-06-01T08:24:33Z</time>
      </trkpt>
      <trkpt lat="47.94266" lon="-3.47779">
        <ele>42.5</ele>
        <time>2018-06-01T08:24:42Z</time>
      </trkpt>
      <trkpt lat="47.94269" lon="-3.4777">
        <ele>44.39</ele>
        <time>2018-06-01T08:24:53Z</time>
      </trkpt>
      <trkpt lat="47.9427" lon="-3.47742">
        <ele>46.42</ele>
        <time>2018-06-01T08:25:09Z</time>
      </trkpt>
      <trkpt lat="47.9427" lon="-3.47737">
        <ele>46.66</ele>
        <time>2018-06-01T08:25:12Z</time>
      </trkpt>
      <trkpt lat="47.94274" lon="-3.4771">
        <ele>47.88</ele>
        <time>2018-06-01T08:25:28Z</time>
      </trkpt>
      <trkpt lat="47.94275" lon="-3.47681">
        <ele>49.14</ele>
        <time>2018-06-01T08:25:44Z</time>
      </trkpt>
      <trkpt lat="47.94277" lon="-3.47648">
        <ele>50.99</ele>
        <time>2018-06-01T08:26:03Z</time>
      </trkpt>
      <trkpt lat="47.94277" lon="-3.47619">
        <ele>54.09</ele>
        <time>2018-06-01T08:26:21Z</time>
      </trkpt>
      <trkpt lat="47.94273" lon="-3.47587">
        <ele>57.1</ele>
        <time>2018-06-01T08:26:36Z</time>
      </trkpt>
      <trkpt lat="47.94278" lon="-3.47545">
        <ele>59.98</ele>
        <time>2018-06-01T08:26:56Z</time>
      </trkpt>
      <trkpt lat="47.94278" lon="-3.47543">
        <ele>60.1</ele>
        <time>2018-06-01T08:26:57Z</time>
      </trkpt>
      <trkpt lat="47.94278" lon="-3.47533">
        <ele>60.64</ele>
        <time>2018-06-01T08:27:00Z</time>
      </trkpt>
      <trkpt lat="47.94283" lon="-3.47515">
        <ele>63.28</ele>
        <time>2018-06-01T08:27:12Z</time>
      </trkpt>
      <trkpt lat="47.94303" lon="-3.47513">
        <ele>65.78</ele>
        <time>2018-06-01T08:27:26Z</time>
      </trkpt>
      <trkpt lat="47.94317" lon="-3.47504">
        <ele>68.78</ele>
        <time>2018-06-01T08:27:41Z</time>
      </trkpt>
      <trkpt lat="47.94318" lon="-3.47501">
        <ele>69.11</ele>
        <time>2018-06-01T08:27:43Z</time>
      </trkpt>
      <trkpt lat="47.94326" lon="-3.47474">
        <ele>70.81</ele>
        <time>2018-06-01T08:28:00Z</time>
      </trkpt>
      <trkpt lat="47.94334" lon="-3.47432">
        <ele>72.45</ele>
        <time>2018-06-01T08:28:22Z</time>
      </trkpt>
      <trkpt lat="47.94336" lon="-3.47429">
        <ele>72.5</ele>
        <time>2018-06-01T08:28:24Z</time>
      </trkpt>
      <trkpt lat="47.94343" lon="-3.47394">
        <ele>73.54</ele>
        <time>2018-06-01T08:28:38Z</time>
      </trkpt>
      <trkpt lat="47.9435" lon="-3.4736">
        <ele>75.16</ele>
        <time>2018-06-01T08:28:55Z</time>
      </trkpt>
      <trkpt lat="47.94364" lon="-3.47329">
        <ele>78</ele>
        <time>2018-06-01T08:29:13Z</time>
      </trkpt>
      <trkpt lat="47.94386" lon="-3.47307">
        <ele>80.5</ele>
        <time>2018-06-01T08:29:35Z</time>
      </trkpt>
      <trkpt lat="47.94412" lon="-3.47299">
        <ele>82.92</ele>
        <time>2018-06-01T08:29:53Z</time>
      </trkpt>
      <trkpt lat="47.94417" lon="-3.47291">
        <ele>83.11</ele>
        <time>2018-06-01T08:29:57Z</time>
      </trkpt>
      <trkpt lat="47.94422" lon="-3.47274">
        <ele>82.7</ele>
        <time>2018-06-01T08:30:04Z</time>
      </trkpt>
      <trkpt lat="47.94428" lon="-3.4726">
        <ele>81.93</ele>
        <time>2018-06-01T08:30:10Z</time>
      </trkpt>
      <trkpt lat="47.94434" lon="-3.47234">
        <ele>80.31</ele>
        <time>2018-06-01T08:30:22Z</time>
      </trkpt>
      <trkpt lat="47.94445" lon="-3.47204">
        <ele>78.44</ele>
        <time>2018-06-01T08:30:37Z</time>
      </trkpt>
      <trkpt lat="47.94447" lon="-3.47198">
        <ele>78.29</ele>
        <time>2018-06-01T08:30:39Z</time>
      </trkpt>
      <trkpt lat="47.94461" lon="-3.47178">
        <ele>77.8</ele>
        <time>2018-06-01T08:30:53Z</time>
      </trkpt>
      <trkpt lat="47.94467" lon="-3.47166">
        <ele>77.7</ele>
        <time>2018-06-01T08:31:01Z</time>
      </trkpt>
      <trkpt lat="47.94478" lon="-3.47154">
        <ele>77.13</ele>
        <time>2018-06-01T08:31:12Z</time>
      </trkpt>
      <trkpt lat="47.94477" lon="-3.4715">
        <ele>76.76</ele>
        <time>2018-06-01T08:31:15Z</time>
      </trkpt>
      <trkpt lat="47.94486" lon="-3.47138">
        <ele>73.6</ele>
        <time>2018-06-01T08:31:28Z</time>
      </trkpt>
      <trkpt lat="47.94503" lon="-3.47127">
        <ele>70.65</ele>
        <time>2018-06-01T08:31:47Z</time>
      </trkpt>
      <trkpt lat="47.94513" lon="-3.47112">
        <ele>67.46</ele>
        <time>2018-06-01T08:32:02Z</time>
      </trkpt>
      <trkpt lat="47.94534" lon="-3.47097">
        <ele>65.44</ele>
        <time>2018-06-01T08:32:21Z</time>
      </trkpt>
      <trkpt lat="47.94533" lon="-3.47078">
        <ele>62.57</ele>
        <time>2018-06-01T08:32:38Z</time>
      </trkpt>
      <trkpt lat="47.94528" lon="-3.47074">
        <ele>59.95</ele>
        <time>2018-06-01T08:32:49Z</time>
      </trkpt>
      <trkpt lat="47.94527" lon="-3.47075">
        <ele>58.93</ele>
        <time>2018-06-01T08:33:06Z</time>
      </trkpt>
      <trkpt lat="47.94523" lon="-3.47068">
        <ele>59.24</ele>
        <time>2018-06-01T08:33:30Z</time>
      </trkpt>
      <trkpt lat="47.9452" lon="-3.47053">
        <ele>57.92</ele>
        <time>2018-06-01T08:33:50Z</time>
      </trkpt>
      <trkpt lat="47.94515" lon="-3.47046">
        <ele>54.78</ele>
        <time>2018-06-01T08:34:03Z</time>
      </trkpt>
      <trkpt lat="47.94516" lon="-3.47041">
        <ele>54.1</ele>
        <time>2018-06-01T08:34:25Z</time>
      </trkpt>
      <trkpt lat="47.94521" lon="-3.47039">
        <ele>54.69</ele>
        <time>2018-06-01T08:34:34Z</time>
      </trkpt>
      <trkpt lat="47.94527" lon="-3.47031">
        <ele>53.57</ele>
        <time>2018-06-01T08:34:42Z</time>
      </trkpt>
      <trkpt lat="47.94532" lon="-3.47019">
        <ele>51.82</ele>
        <time>2018-06-01T08:34:50Z</time>
      </trkpt>
      <trkpt lat="47.94536" lon="-3.47004">
        <ele>48.55</ele>
        <time>2018-06-01T08:35:03Z</time>
      </trkpt>
      <trkpt lat="47.94535" lon="-3.46999">
        <ele>47.66</ele>
        <time>2018-06-01T08:35:06Z</time>
      </trkpt>
      <trkpt lat="47.94529" lon="-3.46972">
        <ele>44.3</ele>
        <time>2018-06-01T08:35:19Z</time>
      </trkpt>
      <trkpt lat="47.94527" lon="-3.46963">
        <ele>42.99</ele>
        <time>2018-06-01T08:35:30Z</time>
      </trkpt>
      <trkpt lat="47.94522" lon="-3.46957">
        <ele>42.25</ele>
        <time>2018-06-01T08:35:51Z</time>
      </trkpt>
      <trkpt lat="47.94523" lon="-3.46957">
        <ele>42.92</ele>
        <time>2018-06-01T08:36:11Z</time>
      </trkpt>
      <trkpt lat="47.94523" lon="-3.46954">
        <ele>42.89</ele>
        <time>2018-06-01T08:36:31Z</time>
      </trkpt>
      <trkpt lat="47.94525" lon="-3.46957">
        <ele>42.73</ele>
        <time>2018-06-01T08:36:47Z</time>
      </trkpt>
      <trkpt lat="47.94526" lon="-3.4696">
        <ele>42.66</ele>
        <time>2018-06-01T08:37:01Z</time>
      </trkpt>
      <trkpt lat="47.94523" lon="-3.46955">
        <ele>42.42</ele>
        <time>2018-06-01T08:37:20Z</time>
      </trkpt>
      <trkpt lat="47.94527" lon="-3.46954">
        <ele>42.17</ele>
        <time>2018-06-01T08:37:52Z</time>
      </trkpt>
      <trkpt lat="47.94526" lon="-3.46952">
        <ele>42.18</ele>
        <time>2018-06-01T08:38:12Z</time>
      </trkpt>
      <trkpt lat="47.94526" lon="-3.46958">
        <ele>42.59</ele>
        <time>2018-06-01T08:38:43Z</time>
      </trkpt>
      <trkpt lat="47.94529" lon="-3.46975">
        <ele>44.17</ele>
        <time>2018-06-01T08:39:00Z</time>
      </trkpt>
      <trkpt lat="47.94536" lon="-3.46994">
        <ele>47.18</ele>
        <time>2018-06-01T08:39:13Z</time>
      </trkpt>
      <trkpt lat="47.94539" lon="-3.47014">
        <ele>50.19</ele>
        <time>2018-06-01T08:39:27Z</time>
      </trkpt>
      <trkpt lat="47.94527" lon="-3.47042">
        <ele>53.34</ele>
        <time>2018-06-01T08:39:43Z</time>
      </trkpt>
      <trkpt lat="47.94526" lon="-3.47055">
        <ele>56.58</ele>
        <time>2018-06-01T08:39:56Z</time>
      </trkpt>
      <trkpt lat="47.94528" lon="-3.47057">
        <ele>58.8</ele>
        <time>2018-06-01T08:40:06Z</time>
      </trkpt>
      <trkpt lat="47.94525" lon="-3.47061">
        <ele>59.47</ele>
        <time>2018-06-01T08:40:13Z</time>
      </trkpt>
      <trkpt lat="47.94522" lon="-3.47068">
        <ele>59.44</ele>
        <time>2018-06-01T08:40:39Z</time>
      </trkpt>
      <trkpt lat="47.94524" lon="-3.47066">
        <ele>60.59</ele>
        <time>2018-06-01T08:41:02Z</time>
      </trkpt>
      <trkpt lat="47.94525" lon="-3.47071">
        <ele>63.81</ele>
        <time>2018-06-01T08:41:23Z</time>
      </trkpt>
      <trkpt lat="47.94521" lon="-3.47084">
        <ele>67.07</ele>
        <time>2018-06-01T08:41:40Z</time>
      </trkpt>
      <trkpt lat="47.94514" lon="-3.47097">
        <ele>70.23</ele>
        <time>2018-06-01T08:41:50Z</time>
      </trkpt>
      <trkpt lat="47.94499" lon="-3.47119">
        <ele>73.35</ele>
        <time>2018-06-01T08:42:07Z</time>
      </trkpt>
      <trkpt lat="47.94485" lon="-3.4714">
        <ele>76.38</ele>
        <time>2018-06-01T08:42:23Z</time>
      </trkpt>
      <trkpt lat="47.94483" lon="-3.47142">
        <ele>76.79</ele>
        <time>2018-06-01T08:42:27Z</time>
      </trkpt>
      <trkpt lat="47.94473" lon="-3.47154">
        <ele>76.97</ele>
        <time>2018-06-01T08:42:50Z</time>
      </trkpt>
      <trkpt lat="47.94466" lon="-3.47168">
        <ele>76.92</ele>
        <time>2018-06-01T08:42:59Z</time>
      </trkpt>
      <trkpt lat="47.9446" lon="-3.47185">
        <ele>77.12</ele>
        <time>2018-06-01T08:43:06Z</time>
      </trkpt>
      <trkpt lat="47.94453" lon="-3.47199">
        <ele>77.65</ele>
        <time>2018-06-01T08:43:14Z</time>
      </trkpt>
      <trkpt lat="47.9445" lon="-3.47204">
        <ele>77.92</ele>
        <time>2018-06-01T08:43:17Z</time>
      </trkpt>
      <trkpt lat="47.94445" lon="-3.4722">
        <ele>78.68</ele>
        <time>2018-06-01T08:43:25Z</time>
      </trkpt>
      <trkpt lat="47.9444" lon="-3.4723">
        <ele>79.14</ele>
        <time>2018-06-01T08:43:30Z</time>
      </trkpt>
      <trkpt lat="47.94437" lon="-3.47234">
        <ele>79.39</ele>
        <time>2018-06-01T08:43:33Z</time>
      </trkpt>
      <trkpt lat="47.94435" lon="-3.47257">
        <ele>80.54</ele>
        <time>2018-06-01T08:43:43Z</time>
      </trkpt>
      <trkpt lat="47.94435" lon="-3.47273">
        <ele>81.2</ele>
        <time>2018-06-01T08:43:49Z</time>
      </trkpt>
      <trkpt lat="47.94416" lon="-3.47289">
        <ele>81.58</ele>
        <time>2018-06-01T08:44:02Z</time>
      </trkpt>
      <trkpt lat="47.944" lon="-3.47297">
        <ele>80.71</ele>
        <time>2018-06-01T08:44:14Z</time>
      </trkpt>
      <trkpt lat="47.94389" lon="-3.47314">
        <ele>79.53</ele>
        <time>2018-06-01T08:44:24Z</time>
      </trkpt>
      <trkpt lat="47.94388" lon="-3.47319">
        <ele>79.44</ele>
        <time>2018-06-01T08:44:26Z</time>
      </trkpt>
      <trkpt lat="47.94389" lon="-3.47369">
        <ele>79.82</ele>
        <time>2018-06-01T08:44:42Z</time>
      </trkpt>
      <trkpt lat="47.94386" lon="-3.47406">
        <ele>80.31</ele>
        <time>2018-06-01T08:44:55Z</time>
      </trkpt>
      <trkpt lat="47.94383" lon="-3.4743">
        <ele>80.86</ele>
        <time>2018-06-01T08:45:07Z</time>
      </trkpt>
      <trkpt lat="47.94387" lon="-3.47438">
        <ele>80.36</ele>
        <time>2018-06-01T08:45:23Z</time>
      </trkpt>
      <trkpt lat="47.94387" lon="-3.47443">
        <ele>80.49</ele>
        <time>2018-06-01T08:45:41Z</time>
      </trkpt>
      <trkpt lat="47.94387" lon="-3.47444">
        <ele>80.81</ele>
        <time>2018-06-01T08:45:46Z</time>
      </trkpt>
      <trkpt lat="47.94381" lon="-3.47459">
        <ele>81.2</ele>
        <time>2018-06-01T08:45:54Z</time>
      </trkpt>
      <trkpt lat="47.94375" lon="-3.47487">
        <ele>81.35</ele>
        <time>2018-06-01T08:46:09Z</time>
      </trkpt>
      <trkpt lat="47.94385" lon="-3.47503">
        <ele>83.19</ele>
        <time>2018-06-01T08:46:19Z</time>
      </trkpt>
      <trkpt lat="47.94389" lon="-3.47508">
        <ele>84.06</ele>
        <time>2018-06-01T08:46:25Z</time>
      </trkpt>
      <trkpt lat="47.94389" lon="-3.47515">
        <ele>84.25</ele>
        <time>2018-06-01T08:46:29Z</time>
      </trkpt>
      <trkpt lat="47.94385" lon="-3.4753">
        <ele>83.82</ele>
        <time>2018-06-01T08:46:36Z</time>
      </trkpt>
      <trkpt lat="47.94382" lon="-3.47563">
        <ele>81.67</ele>
        <time>2018-06-01T08:46:50Z</time>
      </trkpt>
      <trkpt lat="47.94381" lon="-3.47569">
        <ele>81.2</ele>
        <time>2018-06-01T08:46:53Z</time>
      </trkpt>
      <trkpt lat="47.94381" lon="-3.47579">
        <ele>80.34</ele>
        <time>2018-06-01T08:46:58Z</time>
      </trkpt>
      <trkpt lat="47.94383" lon="-3.47614">
        <ele>78.55</ele>
        <time>2018-06-01T08:47:11Z</time>
      </trkpt>
      <trkpt lat="47.94387" lon="-3.47641">
        <ele>76.93</ele>
        <time>2018-06-01T08:47:22Z</time>
      </trkpt>
      <trkpt lat="47.94386" lon="-3.47662">
        <ele>75.85</ele>
        <time>2018-06-01T08:47:30Z</time>
      </trkpt>
      <trkpt lat="47.94384" lon="-3.47685">
        <ele>74.12</ele>
        <time>2018-06-01T08:47:38Z</time>
      </trkpt>
      <trkpt lat="47.94382" lon="-3.47714">
        <ele>71.12</ele>
        <time>2018-06-01T08:47:51Z</time>
      </trkpt>
      <trkpt lat="47.94382" lon="-3.47719">
        <ele>70.67</ele>
        <time>2018-06-01T08:47:53Z</time>
      </trkpt>
      <trkpt lat="47.94385" lon="-3.47726">
        <ele>70.09</ele>
        <time>2018-06-01T08:47:56Z</time>
      </trkpt>
      <trkpt lat="47.9438" lon="-3.47752">
        <ele>68.29</ele>
        <time>2018-06-01T08:48:08Z</time>
      </trkpt>
      <trkpt lat="47.94377" lon="-3.47788">
        <ele>67.08</ele>
        <time>2018-06-01T08:48:21Z</time>
      </trkpt>
      <trkpt lat="47.94374" lon="-3.4782">
        <ele>65.78</ele>
        <time>2018-06-01T08:48:34Z</time>
      </trkpt>
      <trkpt lat="47.94372" lon="-3.47833">
        <ele>65</ele>
        <time>2018-06-01T08:48:40Z</time>
      </trkpt>
      <trkpt lat="47.94373" lon="-3.47845">
        <ele>64.77</ele>
        <time>2018-06-01T08:48:44Z</time>
      </trkpt>
      <trkpt lat="47.94375" lon="-3.47863">
        <ele>64.3</ele>
        <time>2018-06-01T08:48:52Z</time>
      </trkpt>
      <trkpt lat="47.94376" lon="-3.47871">
        <ele>64.15</ele>
        <time>2018-06-01T08:48:56Z</time>
      </trkpt>
      <trkpt lat="47.94368" lon="-3.47913">
        <ele>61.6</ele>
        <time>2018-06-01T08:49:13Z</time>
      </trkpt>
      <trkpt lat="47.94354" lon="-3.47939">
        <ele>58.98</ele>
        <time>2018-06-01T08:49:26Z</time>
      </trkpt>
      <trkpt lat="47.94352" lon="-3.4794">
        <ele>58.8</ele>
        <time>2018-06-01T08:49:27Z</time>
      </trkpt>
      <trkpt lat="47.94346" lon="-3.47949">
        <ele>57.93</ele>
        <time>2018-06-01T08:49:32Z</time>
      </trkpt>
      <trkpt lat="47.94331" lon="-3.47977">
        <ele>55.84</ele>
        <time>2018-06-01T08:49:46Z</time>
      </trkpt>
      <trkpt lat="47.94329" lon="-3.47981">
        <ele>55.64</ele>
        <time>2018-06-01T08:49:48Z</time>
      </trkpt>
      <trkpt lat="47.94328" lon="-3.47986">
        <ele>55.3</ele>
        <time>2018-06-01T08:49:50Z</time>
      </trkpt>
      <trkpt lat="47.94329" lon="-3.47989">
        <ele>55.09</ele>
        <time>2018-06-01T08:49:51Z</time>
      </trkpt>
      <trkpt lat="47.94327" lon="-3.48012">
        <ele>54.83</ele>
        <time>2018-06-01T08:50:01Z</time>
      </trkpt>
      <trkpt lat="47.94326" lon="-3.48014">
        <ele>54.93</ele>
        <time>2018-06-01T08:50:02Z</time>
      </trkpt>
      <trkpt lat="47.94325" lon="-3.48016">
        <ele>55.04</ele>
        <time>2018-06-01T08:50:03Z</time>
      </trkpt>
      <trkpt lat="47.94324" lon="-3.48022">
        <ele>55.49</ele>
        <time>2018-06-01T08:50:06Z</time>
      </trkpt>
      <trkpt lat="47.94326" lon="-3.4803">
        <ele>56.47</ele>
        <time>2018-06-01T08:50:12Z</time>
      </trkpt>
      <trkpt lat="47.94326" lon="-3.48032">
        <ele>56.64</ele>
        <time>2018-06-01T08:50:13Z</time>
      </trkpt>
      <trkpt lat="47.94328" lon="-3.48045">
        <ele>57.82</ele>
        <time>2018-06-01T08:50:21Z</time>
      </trkpt>
      <trkpt lat="47.94328" lon="-3.48051">
        <ele>58.27</ele>
        <time>2018-06-01T08:50:24Z</time>
      </trkpt>
      <trkpt lat="47.94327" lon="-3.48057">
        <ele>58.69</ele>
        <time>2018-06-01T08:50:27Z</time>
      </trkpt>
      <trkpt lat="47.9433" lon="-3.48068">
        <ele>59.65</ele>
        <time>2018-06-01T08:50:31Z</time>
      </trkpt>
      <trkpt lat="47.94329" lon="-3.48077">
        <ele>60.38</ele>
        <time>2018-06-01T08:50:34Z</time>
      </trkpt>
      <trkpt lat="47.94336" lon="-3.48098">
        <ele>63.77</ele>
        <time>2018-06-01T08:50:45Z</time>
      </trkpt>
      <trkpt lat="47.94346" lon="-3.48119">
        <ele>66.81</ele>
        <time>2018-06-01T08:50:58Z</time>
      </trkpt>
      <trkpt lat="47.94358" lon="-3.4814">
        <ele>69.84</ele>
        <time>2018-06-01T08:51:14Z</time>
      </trkpt>
      <trkpt lat="47.9437" lon="-3.48156">
        <ele>73</ele>
        <time>2018-06-01T08:51:32Z</time>
      </trkpt>
      <trkpt lat="47.94374" lon="-3.48165">
        <ele>74.4</ele>
        <time>2018-06-01T08:51:39Z</time>
      </trkpt>
      <trkpt lat="47.94381" lon="-3.48176">
        <ele>75.79</ele>
        <time>2018-06-01T08:51:46Z</time>
      </trkpt>
      <trkpt lat="47.94387" lon="-3.48198">
        <ele>77.14</ele>
        <time>2018-06-01T08:51:55Z</time>
      </trkpt>
      <trkpt lat="47.94399" lon="-3.4823">
        <ele>79.87</ele>
        <time>2018-06-01T08:52:15Z</time>
      </trkpt>
      <trkpt lat="47.94407" lon="-3.48259">
        <ele>83.01</ele>
        <time>2018-06-01T08:52:32Z</time>
      </trkpt>
      <trkpt lat="47.94413" lon="-3.48288">
        <ele>86.13</ele>
        <time>2018-06-01T08:52:48Z</time>
      </trkpt>
      <trkpt lat="47.94422" lon="-3.48314">
        <ele>88.68</ele>
        <time>2018-06-01T08:53:01Z</time>
      </trkpt>
      <trkpt lat="47.94424" lon="-3.48318">
        <ele>88.97</ele>
        <time>2018-06-01T08:53:03Z</time>
      </trkpt>
      <trkpt lat="47.94437" lon="-3.4834">
        <ele>90.82</ele>
        <time>2018-06-01T08:53:15Z</time>
      </trkpt>
      <trkpt lat="47.94438" lon="-3.48342">
        <ele>91.13</ele>
        <time>2018-06-01T08:53:17Z</time>
      </trkpt>
      <trkpt lat="47.94443" lon="-3.48349">
        <ele>91.82</ele>
        <time>2018-06-01T08:53:22Z</time>
      </trkpt>
      <trkpt lat="47.9445" lon="-3.48359">
        <ele>92.79</ele>
        <time>2018-06-01T08:53:28Z</time>
      </trkpt>
      <trkpt lat="47.94457" lon="-3.48366">
        <ele>93.63</ele>
        <time>2018-06-01T08:53:34Z</time>
      </trkpt>
      <trkpt lat="47.9446" lon="-3.48371">
        <ele>93.97</ele>
        <time>2018-06-01T08:53:37Z</time>
      </trkpt>
      <trkpt lat="47.9447" lon="-3.48391">
        <ele>95.5</ele>
        <time>2018-06-01T08:53:50Z</time>
      </trkpt>
      <trkpt lat="47.9448" lon="-3.4841">
        <ele>96.77</ele>
        <time>2018-06-01T08:54:01Z</time>
      </trkpt>
      <trkpt lat="47.94492" lon="-3.48433">
        <ele>97.83</ele>
        <time>2018-06-01T08:54:15Z</time>
      </trkpt>
      <trkpt lat="47.94493" lon="-3.48438">
        <ele>98.04</ele>
        <time>2018-06-01T08:54:18Z</time>
      </trkpt>
      <trkpt lat="47.94503" lon="-3.48456">
        <ele>99.45</ele>
        <time>2018-06-01T08:54:32Z</time>
      </trkpt>
      <trkpt lat="47.94508" lon="-3.48464">
        <ele>100.65</ele>
        <time>2018-06-01T08:54:39Z</time>
      </trkpt>
      <trkpt lat="47.94524" lon="-3.48482">
        <ele>102.67</ele>
        <time>2018-06-01T08:54:55Z</time>
      </trkpt>
      <trkpt lat="47.94537" lon="-3.48493">
        <ele>103.65</ele>
        <time>2018-06-01T08:55:06Z</time>
      </trkpt>
      <trkpt lat="47.94545" lon="-3.485">
        <ele>104</ele>
        <time>2018-06-01T08:55:12Z</time>
      </trkpt>
      <trkpt lat="47.94567" lon="-3.48519">
        <ele>105.24</ele>
        <time>2018-06-01T08:55:28Z</time>
      </trkpt>
      <trkpt lat="47.94571" lon="-3.48526">
        <ele>105.43</ele>
        <time>2018-06-01T08:55:32Z</time>
      </trkpt>
      <trkpt lat="47.94574" lon="-3.48532">
        <ele>105.62</ele>
        <time>2018-06-01T08:55:36Z</time>
      </trkpt>
      <trkpt lat="47.94577" lon="-3.48535">
        <ele>105.73</ele>
        <time>2018-06-01T08:55:39Z</time>
      </trkpt>
      <trkpt lat="47.94608" lon="-3.48525">
        <ele>106.63</ele>
        <time>2018-06-01T08:55:53Z</time>
      </trkpt>
      <trkpt lat="47.94635" lon="-3.48512">
        <ele>107.03</ele>
        <time>2018-06-01T08:56:03Z</time>
      </trkpt>
      <trkpt lat="47.9467" lon="-3.48499">
        <ele>107.1</ele>
        <time>2018-06-01T08:56:15Z</time>
      </trkpt>
      <trkpt lat="47.94701" lon="-3.48486">
        <ele>107.42</ele>
        <time>2018-06-01T08:56:26Z</time>
      </trkpt>
      <trkpt lat="47.94734" lon="-3.48469">
        <ele>107.32</ele>
        <time>2018-06-01T08:56:36Z</time>
      </trkpt>
      <trkpt lat="47.94772" lon="-3.48462">
        <ele>107.27</ele>
        <time>2018-06-01T08:56:46Z</time>
      </trkpt>
      <trkpt lat="47.94813" lon="-3.48457">
        <ele>108.41</ele>
        <time>2018-06-01T08:56:57Z</time>
      </trkpt>
      <trkpt lat="47.94865" lon="-3.48465">
        <ele>110.33</ele>
        <time>2018-06-01T08:57:10Z</time>
      </trkpt>
      <trkpt lat="47.94903" lon="-3.48475">
        <ele>111.44</ele>
        <time>2018-06-01T08:57:22Z</time>
      </trkpt>
      <trkpt lat="47.94935" lon="-3.48489">
        <ele>112.16</ele>
        <time>2018-06-01T08:57:37Z</time>
      </trkpt>
      <trkpt lat="47.94959" lon="-3.48517">
        <ele>112.6</ele>
        <time>2018-06-01T08:57:55Z</time>
      </trkpt>
      <trkpt lat="47.94982" lon="-3.48541">
        <ele>112.65</ele>
        <time>2018-06-01T08:58:13Z</time>
      </trkpt>
      <trkpt lat="47.95001" lon="-3.48563">
        <ele>112.67</ele>
        <time>2018-06-01T08:58:29Z</time>
      </trkpt>
      <trkpt lat="47.95026" lon="-3.48591">
        <ele>112.88</ele>
        <time>2018-06-01T08:58:47Z</time>
      </trkpt>
      <trkpt lat="47.95056" lon="-3.48615">
        <ele>112.89</ele>
        <time>2018-06-01T08:59:08Z</time>
      </trkpt>
      <trkpt lat="47.95085" lon="-3.48637">
        <ele>112.81</ele>
        <time>2018-06-01T08:59:27Z</time>
      </trkpt>
      <trkpt lat="47.95113" lon="-3.48663">
        <ele>111.86</ele>
        <time>2018-06-01T08:59:45Z</time>
      </trkpt>
      <trkpt lat="47.95138" lon="-3.48685">
        <ele>110.39</ele>
        <time>2018-06-01T09:00:02Z</time>
      </trkpt>
      <trkpt lat="47.95161" lon="-3.48704">
        <ele>109.02</ele>
        <time>2018-06-01T09:00:18Z</time>
      </trkpt>
      <trkpt lat="47.95182" lon="-3.48738">
        <ele>108.43</ele>
        <time>2018-06-01T09:00:36Z</time>
      </trkpt>
      <trkpt lat="47.95188" lon="-3.48775">
        <ele>108.83</ele>
        <time>2018-06-01T09:00:52Z</time>
      </trkpt>
      <trkpt lat="47.95196" lon="-3.48809">
        <ele>109.64</ele>
        <time>2018-06-01T09:01:02Z</time>
      </trkpt>
      <trkpt lat="47.95214" lon="-3.48853">
        <ele>110.96</ele>
        <time>2018-06-01T09:01:13Z</time>
      </trkpt>
      <trkpt lat="47.95237" lon="-3.48881">
        <ele>112.16</ele>
        <time>2018-06-01T09:01:23Z</time>
      </trkpt>
      <trkpt lat="47.95246" lon="-3.4889">
        <ele>112.88</ele>
        <time>2018-06-01T09:01:27Z</time>
      </trkpt>
      <trkpt lat="47.95247" lon="-3.48892">
        <ele>113.03</ele>
        <time>2018-06-01T09:01:28Z</time>
      </trkpt>
      <trkpt lat="47.95258" lon="-3.489">
        <ele>113.73</ele>
        <time>2018-06-01T09:01:32Z</time>
      </trkpt>
      <trkpt lat="47.9526" lon="-3.48903">
        <ele>113.92</ele>
        <time>2018-06-01T09:01:33Z</time>
      </trkpt>
      <trkpt lat="47.95263" lon="-3.48906">
        <ele>114.17</ele>
        <time>2018-06-01T09:01:34Z</time>
      </trkpt>
      <trkpt lat="47.95294" lon="-3.48926">
        <ele>116.63</ele>
        <time>2018-06-01T09:01:45Z</time>
      </trkpt>
      <trkpt lat="47.95318" lon="-3.48956">
        <ele>118.07</ele>
        <time>2018-06-01T09:01:54Z</time>
      </trkpt>
      <trkpt lat="47.95346" lon="-3.48979">
        <ele>119.67</ele>
        <time>2018-06-01T09:02:04Z</time>
      </trkpt>
      <trkpt lat="47.95369" lon="-3.49011">
        <ele>121.01</ele>
        <time>2018-06-01T09:02:13Z</time>
      </trkpt>
      <trkpt lat="47.95386" lon="-3.49051">
        <ele>121.43</ele>
        <time>2018-06-01T09:02:23Z</time>
      </trkpt>
      <trkpt lat="47.95401" lon="-3.49098">
        <ele>120.85</ele>
        <time>2018-06-01T09:02:34Z</time>
      </trkpt>
      <trkpt lat="47.95407" lon="-3.49136">
        <ele>119.47</ele>
        <time>2018-06-01T09:02:44Z</time>
      </trkpt>
      <trkpt lat="47.95399" lon="-3.49187">
        <ele>118.04</ele>
        <time>2018-06-01T09:02:56Z</time>
      </trkpt>
      <trkpt lat="47.95392" lon="-3.49222">
        <ele>118.15</ele>
        <time>2018-06-01T09:03:03Z</time>
      </trkpt>
      <trkpt lat="47.95389" lon="-3.49239">
        <ele>118.3</ele>
        <time>2018-06-01T09:03:07Z</time>
      </trkpt>
      <trkpt lat="47.95376" lon="-3.49292">
        <ele>119.55</ele>
        <time>2018-06-01T09:03:20Z</time>
      </trkpt>
      <trkpt lat="47.95381" lon="-3.49311">
        <ele>120.31</ele>
        <time>2018-06-01T09:03:25Z</time>
      </trkpt>
      <trkpt lat="47.95367" lon="-3.49349">
        <ele>121.75</ele>
        <time>2018-06-01T09:03:35Z</time>
      </trkpt>
      <trkpt lat="47.95365" lon="-3.49353">
        <ele>122.12</ele>
        <time>2018-06-01T09:03:37Z</time>
      </trkpt>
      <trkpt lat="47.95349" lon="-3.49394">
        <ele>124.19</ele>
        <time>2018-06-01T09:03:47Z</time>
      </trkpt>
      <trkpt lat="47.95338" lon="-3.49437">
        <ele>124.86</ele>
        <time>2018-06-01T09:03:57Z</time>
      </trkpt>
      <trkpt lat="47.95326" lon="-3.49497">
        <ele>124.36</ele>
        <time>2018-06-01T09:04:10Z</time>
      </trkpt>
      <trkpt lat="47.95311" lon="-3.49547">
        <ele>123.29</ele>
        <time>2018-06-01T09:04:21Z</time>
      </trkpt>
      <trkpt lat="47.953" lon="-3.49594">
        <ele>122.97</ele>
        <time>2018-06-01T09:04:33Z</time>
      </trkpt>
      <trkpt lat="47.953" lon="-3.49597">
        <ele>122.99</ele>
        <time>2018-06-01T09:04:34Z</time>
      </trkpt>
      <trkpt lat="47.95311" lon="-3.49612">
        <ele>122.78</ele>
        <time>2018-06-01T09:04:46Z</time>
      </trkpt>
      <trkpt lat="47.95316" lon="-3.49612">
        <ele>122.36</ele>
        <time>2018-06-01T09:04:52Z</time>
      </trkpt>
      <trkpt lat="47.95321" lon="-3.49613">
        <ele>122</ele>
        <time>2018-06-01T09:04:56Z</time>
      </trkpt>
      <trkpt lat="47.95327" lon="-3.49613">
        <ele>121.68</ele>
        <time>2018-06-01T09:05:03Z</time>
      </trkpt>
      <trkpt lat="47.9533" lon="-3.49611">
        <ele>121.66</ele>
        <time>2018-06-01T09:05:05Z</time>
      </trkpt>
      <trkpt lat="47.95346" lon="-3.49604">
        <ele>121.01</ele>
        <time>2018-06-01T09:05:18Z</time>
      </trkpt>
      <trkpt lat="47.95366" lon="-3.49593">
        <ele>120.68</ele>
        <time>2018-06-01T09:05:31Z</time>
      </trkpt>
      <trkpt lat="47.95375" lon="-3.49592">
        <ele>120.55</ele>
        <time>2018-06-01T09:05:36Z</time>
      </trkpt>
      <trkpt lat="47.95387" lon="-3.49592">
        <ele>120.2</ele>
        <time>2018-06-01T09:05:47Z</time>
      </trkpt>
      <trkpt lat="47.95401" lon="-3.49591">
        <ele>120</ele>
        <time>2018-06-01T09:05:58Z</time>
      </trkpt>
      <trkpt lat="47.95423" lon="-3.49589">
        <ele>119.51</ele>
        <time>2018-06-01T09:06:12Z</time>
      </trkpt>
      <trkpt lat="47.95446" lon="-3.49598">
        <ele>118.99</ele>
        <time>2018-06-01T09:06:25Z</time>
      </trkpt>
      <trkpt lat="47.95454" lon="-3.49599">
        <ele>118.74</ele>
        <time>2018-06-01T09:06:30Z</time>
      </trkpt>
      <trkpt lat="47.95465" lon="-3.49597">
        <ele>118.45</ele>
        <time>2018-06-01T09:06:40Z</time>
      </trkpt>
      <trkpt lat="47.95483" lon="-3.49592">
        <ele>118</ele>
        <time>2018-06-01T09:06:51Z</time>
      </trkpt>
      <trkpt lat="47.95507" lon="-3.49586">
        <ele>117.79</ele>
        <time>2018-06-01T09:07:07Z</time>
      </trkpt>
      <trkpt lat="47.95526" lon="-3.49581">
        <ele>117.52</ele>
        <time>2018-06-01T09:07:20Z</time>
      </trkpt>
      <trkpt lat="47.95545" lon="-3.49571">
        <ele>117.58</ele>
        <time>2018-06-01T09:07:32Z</time>
      </trkpt>
      <trkpt lat="47.95553" lon="-3.4957">
        <ele>117.68</ele>
        <time>2018-06-01T09:07:36Z</time>
      </trkpt>
      <trkpt lat="47.95572" lon="-3.49565">
        <ele>118.33</ele>
        <time>2018-06-01T09:07:48Z</time>
      </trkpt>
      <trkpt lat="47.95577" lon="-3.49563">
        <ele>118.5</ele>
        <time>2018-06-01T09:07:51Z</time>
      </trkpt>
      <trkpt lat="47.95591" lon="-3.49564">
        <ele>118.99</ele>
        <time>2018-06-01T09:07:59Z</time>
      </trkpt>
      <trkpt lat="47.95611" lon="-3.49572">
        <ele>119.74</ele>
        <time>2018-06-01T09:08:12Z</time>
      </trkpt>
      <trkpt lat="47.95637" lon="-3.49579">
        <ele>120.13</ele>
        <time>2018-06-01T09:08:24Z</time>
      </trkpt>
      <trkpt lat="47.95668" lon="-3.49587">
        <ele>120.29</ele>
        <time>2018-06-01T09:08:35Z</time>
      </trkpt>
      <trkpt lat="47.95694" lon="-3.49594">
        <ele>120.1</ele>
        <time>2018-06-01T09:08:44Z</time>
      </trkpt>
      <trkpt lat="47.95731" lon="-3.49608">
        <ele>119.93</ele>
        <time>2018-06-01T09:08:55Z</time>
      </trkpt>
      <trkpt lat="47.95774" lon="-3.49625">
        <ele>119.47</ele>
        <time>2018-06-01T09:09:08Z</time>
      </trkpt>
      <trkpt lat="47.95813" lon="-3.49637">
        <ele>119.03</ele>
        <time>2018-06-01T09:09:19Z</time>
      </trkpt>
      <trkpt lat="47.95819" lon="-3.4964">
        <ele>118.94</ele>
        <time>2018-06-01T09:09:21Z</time>
      </trkpt>
      <trkpt lat="47.95859" lon="-3.4965">
        <ele>118.63</ele>
        <time>2018-06-01T09:09:32Z</time>
      </trkpt>
      <trkpt lat="47.95902" lon="-3.49661">
        <ele>118.49</ele>
        <time>2018-06-01T09:09:42Z</time>
      </trkpt>
      <trkpt lat="47.9593" lon="-3.4967">
        <ele>118.16</ele>
        <time>2018-06-01T09:09:52Z</time>
      </trkpt>
      <trkpt lat="47.95937" lon="-3.49672">
        <ele>118.47</ele>
        <time>2018-06-01T09:10:00Z</time>
      </trkpt>
      <trkpt lat="47.95938" lon="-3.49672">
        <ele>118.48</ele>
        <time>2018-06-01T09:10:01Z</time>
      </trkpt>
      <trkpt lat="47.9594" lon="-3.49673">
        <ele>118.49</ele>
        <time>2018-06-01T09:10:02Z</time>
      </trkpt>
      <trkpt lat="47.95941" lon="-3.49673">
        <ele>118.48</ele>
        <time>2018-06-01T09:10:03Z</time>
      </trkpt>
      <trkpt lat="47.95942" lon="-3.49672">
        <ele>118.44</ele>
        <time>2018-06-01T09:10:04Z</time>
      </trkpt>
      <trkpt lat="47.95945" lon="-3.49672">
        <ele>118.34</ele>
        <time>2018-06-01T09:10:06Z</time>
      </trkpt>
      <trkpt lat="47.95948" lon="-3.49666">
        <ele>118.03</ele>
        <time>2018-06-01T09:10:19Z</time>
      </trkpt>
      <trkpt lat="47.9595" lon="-3.49668">
        <ele>118.02</ele>
        <time>2018-06-01T09:10:27Z</time>
      </trkpt>
      <trkpt lat="47.95951" lon="-3.49669">
        <ele>118.02</ele>
        <time>2018-06-01T09:10:28Z</time>
      </trkpt>
      <trkpt lat="47.95952" lon="-3.49671">
        <ele>117.99</ele>
        <time>2018-06-01T09:10:29Z</time>
      </trkpt>
      <trkpt lat="47.95953" lon="-3.49672">
        <ele>117.94</ele>
        <time>2018-06-01T09:10:30Z</time>
      </trkpt>
      <trkpt lat="47.95955" lon="-3.49673">
        <ele>117.87</ele>
        <time>2018-06-01T09:10:31Z</time>
      </trkpt>
      <trkpt lat="47.95974" lon="-3.49691">
        <ele>116.06</ele>
        <time>2018-06-01T09:10:46Z</time>
      </trkpt>
      <trkpt lat="47.95996" lon="-3.49702">
        <ele>112.91</ele>
        <time>2018-06-01T09:11:01Z</time>
      </trkpt>
      <trkpt lat="47.96014" lon="-3.49708">
        <ele>111</ele>
        <time>2018-06-01T09:11:14Z</time>
      </trkpt>
      <trkpt lat="47.96043" lon="-3.49731">
        <ele>109.71</ele>
        <time>2018-06-01T09:11:34Z</time>
      </trkpt>
      <trkpt lat="47.96071" lon="-3.49753">
        <ele>109.4</ele>
        <time>2018-06-01T09:11:53Z</time>
      </trkpt>
      <trkpt lat="47.96097" lon="-3.49771">
        <ele>109.41</ele>
        <time>2018-06-01T09:12:12Z</time>
      </trkpt>
      <trkpt lat="47.96129" lon="-3.49781">
        <ele>109.37</ele>
        <time>2018-06-01T09:12:33Z</time>
      </trkpt>
      <trkpt lat="47.96159" lon="-3.49787">
        <ele>110.22</ele>
        <time>2018-06-01T09:12:53Z</time>
      </trkpt>
      <trkpt lat="47.96185" lon="-3.49791">
        <ele>112.28</ele>
        <time>2018-06-01T09:13:11Z</time>
      </trkpt>
      <trkpt lat="47.96202" lon="-3.49794">
        <ele>113.79</ele>
        <time>2018-06-01T09:13:25Z</time>
      </trkpt>
      <trkpt lat="47.96205" lon="-3.49794">
        <ele>113.92</ele>
        <time>2018-06-01T09:13:27Z</time>
      </trkpt>
      <trkpt lat="47.96206" lon="-3.49794">
        <ele>114</ele>
        <time>2018-06-01T09:13:28Z</time>
      </trkpt>
      <trkpt lat="47.96208" lon="-3.49795">
        <ele>114.08</ele>
        <time>2018-06-01T09:13:29Z</time>
      </trkpt>
      <trkpt lat="47.96209" lon="-3.49795">
        <ele>114.17</ele>
        <time>2018-06-01T09:13:30Z</time>
      </trkpt>
      <trkpt lat="47.96211" lon="-3.49794">
        <ele>114.27</ele>
        <time>2018-06-01T09:13:31Z</time>
      </trkpt>
      <trkpt lat="47.96232" lon="-3.49799">
        <ele>115.62</ele>
        <time>2018-06-01T09:13:47Z</time>
      </trkpt>
      <trkpt lat="47.9626" lon="-3.49808">
        <ele>116.23</ele>
        <time>2018-06-01T09:14:04Z</time>
      </trkpt>
      <trkpt lat="47.96289" lon="-3.49816">
        <ele>117.1</ele>
        <time>2018-06-01T09:14:24Z</time>
      </trkpt>
      <trkpt lat="47.96314" lon="-3.49818">
        <ele>118.07</ele>
        <time>2018-06-01T09:14:41Z</time>
      </trkpt>
      <trkpt lat="47.96337" lon="-3.49821">
        <ele>119.05</ele>
        <time>2018-06-01T09:14:57Z</time>
      </trkpt>
      <trkpt lat="47.96362" lon="-3.49828">
        <ele>119.48</ele>
        <time>2018-06-01T09:15:15Z</time>
      </trkpt>
      <trkpt lat="47.96386" lon="-3.49836">
        <ele>120.28</ele>
        <time>2018-06-01T09:15:33Z</time>
      </trkpt>
      <trkpt lat="47.96402" lon="-3.49855">
        <ele>120.67</ele>
        <time>2018-06-01T09:15:49Z</time>
      </trkpt>
      <trkpt lat="47.96413" lon="-3.49875">
        <ele>121.53</ele>
        <time>2018-06-01T09:16:03Z</time>
      </trkpt>
      <trkpt lat="47.96432" lon="-3.49909">
        <ele>121.8</ele>
        <time>2018-06-01T09:16:20Z</time>
      </trkpt>
      <trkpt lat="47.9645" lon="-3.49939">
        <ele>121.75</ele>
        <time>2018-06-01T09:16:38Z</time>
      </trkpt>
      <trkpt lat="47.96462" lon="-3.49958">
        <ele>121.84</ele>
        <time>2018-06-01T09:16:52Z</time>
      </trkpt>
      <trkpt lat="47.96476" lon="-3.49979">
        <ele>121.8</ele>
        <time>2018-06-01T09:17:07Z</time>
      </trkpt>
      <trkpt lat="47.96483" lon="-3.49991">
        <ele>121.58</ele>
        <time>2018-06-01T09:17:14Z</time>
      </trkpt>
      <trkpt lat="47.96484" lon="-3.49993">
        <ele>121.55</ele>
        <time>2018-06-01T09:17:15Z</time>
      </trkpt>
      <trkpt lat="47.96496" lon="-3.50022">
        <ele>121.24</ele>
        <time>2018-06-01T09:17:31Z</time>
      </trkpt>
      <trkpt lat="47.96501" lon="-3.50046">
        <ele>121.6</ele>
        <time>2018-06-01T09:17:45Z</time>
      </trkpt>
      <trkpt lat="47.96504" lon="-3.50053">
        <ele>121.84</ele>
        <time>2018-06-01T09:17:59Z</time>
      </trkpt>
      <trkpt lat="47.96506" lon="-3.50057">
        <ele>121.78</ele>
        <time>2018-06-01T09:18:01Z</time>
      </trkpt>
      <trkpt lat="47.96507" lon="-3.50058">
        <ele>121.73</ele>
        <time>2018-06-01T09:18:02Z</time>
      </trkpt>
      <trkpt lat="47.96508" lon="-3.5006">
        <ele>121.69</ele>
        <time>2018-06-01T09:18:03Z</time>
      </trkpt>
      <trkpt lat="47.9651" lon="-3.50064">
        <ele>121.62</ele>
        <time>2018-06-01T09:18:05Z</time>
      </trkpt>
      <trkpt lat="47.96512" lon="-3.50072">
        <ele>121.98</ele>
        <time>2018-06-01T09:18:09Z</time>
      </trkpt>
      <trkpt lat="47.96513" lon="-3.50073">
        <ele>122.1</ele>
        <time>2018-06-01T09:18:10Z</time>
      </trkpt>
      <trkpt lat="47.96515" lon="-3.50076">
        <ele>122.26</ele>
        <time>2018-06-01T09:18:12Z</time>
      </trkpt>
      <trkpt lat="47.96525" lon="-3.50115">
        <ele>123.45</ele>
        <time>2018-06-01T09:18:26Z</time>
      </trkpt>
      <trkpt lat="47.96542" lon="-3.50151">
        <ele>124.6</ele>
        <time>2018-06-01T09:18:45Z</time>
      </trkpt>
      <trkpt lat="47.96561" lon="-3.50179">
        <ele>125.91</ele>
        <time>2018-06-01T09:19:02Z</time>
      </trkpt>
      <trkpt lat="47.96581" lon="-3.50205">
        <ele>126.46</ele>
        <time>2018-06-01T09:19:19Z</time>
      </trkpt>
      <trkpt lat="47.96598" lon="-3.50227">
        <ele>127.69</ele>
        <time>2018-06-01T09:19:36Z</time>
      </trkpt>
      <trkpt lat="47.96601" lon="-3.50228">
        <ele>128.38</ele>
        <time>2018-06-01T09:20:02Z</time>
      </trkpt>
      <trkpt lat="47.96604" lon="-3.50229">
        <ele>128.39</ele>
        <time>2018-06-01T09:20:04Z</time>
      </trkpt>
      <trkpt lat="47.96605" lon="-3.5023">
        <ele>128.41</ele>
        <time>2018-06-01T09:20:05Z</time>
      </trkpt>
      <trkpt lat="47.96607" lon="-3.50229">
        <ele>128.42</ele>
        <time>2018-06-01T09:20:06Z</time>
      </trkpt>
      <trkpt lat="47.96609" lon="-3.50229">
        <ele>128.42</ele>
        <time>2018-06-01T09:20:07Z</time>
      </trkpt>
      <trkpt lat="47.96611" lon="-3.5023">
        <ele>128.4</ele>
        <time>2018-06-01T09:20:08Z</time>
      </trkpt>
      <trkpt lat="47.96612" lon="-3.5023">
        <ele>128.39</ele>
        <time>2018-06-01T09:20:09Z</time>
      </trkpt>
      <trkpt lat="47.96638" lon="-3.50249">
        <ele>128.03</ele>
        <time>2018-06-01T09:20:27Z</time>
      </trkpt>
      <trkpt lat="47.96655" lon="-3.50273">
        <ele>128.1</ele>
        <time>2018-06-01T09:20:42Z</time>
      </trkpt>
      <trkpt lat="47.96658" lon="-3.50283">
        <ele>127.8</ele>
        <time>2018-06-01T09:20:47Z</time>
      </trkpt>
      <trkpt lat="47.96659" lon="-3.50285">
        <ele>127.79</ele>
        <time>2018-06-01T09:20:48Z</time>
      </trkpt>
      <trkpt lat="47.96664" lon="-3.50293">
        <ele>127.73</ele>
        <time>2018-06-01T09:20:54Z</time>
      </trkpt>
      <trkpt lat="47.96669" lon="-3.50299">
        <ele>127.69</ele>
        <time>2018-06-01T09:20:59Z</time>
      </trkpt>
      <trkpt lat="47.96671" lon="-3.50301">
        <ele>127.66</ele>
        <time>2018-06-01T09:21:01Z</time>
      </trkpt>
      <trkpt lat="47.96673" lon="-3.50303">
        <ele>127.61</ele>
        <time>2018-06-01T09:21:02Z</time>
      </trkpt>
      <trkpt lat="47.96697" lon="-3.50322">
        <ele>126.68</ele>
        <time>2018-06-01T09:21:17Z</time>
      </trkpt>
      <trkpt lat="47.96719" lon="-3.50335">
        <ele>125.78</ele>
        <time>2018-06-01T09:21:31Z</time>
      </trkpt>
      <trkpt lat="47.96725" lon="-3.5034">
        <ele>125.44</ele>
        <time>2018-06-01T09:21:35Z</time>
      </trkpt>
      <trkpt lat="47.96727" lon="-3.50341">
        <ele>125.41</ele>
        <time>2018-06-01T09:21:36Z</time>
      </trkpt>
      <trkpt lat="47.96728" lon="-3.50341">
        <ele>125.39</ele>
        <time>2018-06-01T09:21:37Z</time>
      </trkpt>
      <trkpt lat="47.96748" lon="-3.50349">
        <ele>124.97</ele>
        <time>2018-06-01T09:21:51Z</time>
      </trkpt>
      <trkpt lat="47.96769" lon="-3.50358">
        <ele>124.67</ele>
        <time>2018-06-01T09:22:02Z</time>
      </trkpt>
      <trkpt lat="47.96773" lon="-3.50359">
        <ele>124.72</ele>
        <time>2018-06-01T09:22:05Z</time>
      </trkpt>
      <trkpt lat="47.96782" lon="-3.50357">
        <ele>124.98</ele>
        <time>2018-06-01T09:22:13Z</time>
      </trkpt>
      <trkpt lat="47.96787" lon="-3.50355">
        <ele>124.45</ele>
        <time>2018-06-01T09:22:17Z</time>
      </trkpt>
      <trkpt lat="47.96803" lon="-3.5035">
        <ele>121.87</ele>
        <time>2018-06-01T09:22:30Z</time>
      </trkpt>
      <trkpt lat="47.96817" lon="-3.50358">
        <ele>118.57</ele>
        <time>2018-06-01T09:22:46Z</time>
      </trkpt>
      <trkpt lat="47.9682" lon="-3.50362">
        <ele>118.06</ele>
        <time>2018-06-01T09:22:48Z</time>
      </trkpt>
      <trkpt lat="47.96822" lon="-3.50363">
        <ele>117.84</ele>
        <time>2018-06-01T09:22:49Z</time>
      </trkpt>
      <trkpt lat="47.96842" lon="-3.50374">
        <ele>114.7</ele>
        <time>2018-06-01T09:23:03Z</time>
      </trkpt>
      <trkpt lat="47.9687" lon="-3.50378">
        <ele>111.6</ele>
        <time>2018-06-01T09:23:19Z</time>
      </trkpt>
      <trkpt lat="47.96891" lon="-3.50375">
        <ele>109.48</ele>
        <time>2018-06-01T09:23:33Z</time>
      </trkpt>
      <trkpt lat="47.96915" lon="-3.50379">
        <ele>107.76</ele>
        <time>2018-06-01T09:23:46Z</time>
      </trkpt>
      <trkpt lat="47.96943" lon="-3.50382">
        <ele>105.56</ele>
        <time>2018-06-01T09:24:02Z</time>
      </trkpt>
      <trkpt lat="47.96949" lon="-3.50393">
        <ele>106.36</ele>
        <time>2018-06-01T09:24:17Z</time>
      </trkpt>
      <trkpt lat="47.96953" lon="-3.50398">
        <ele>106.57</ele>
        <time>2018-06-01T09:24:22Z</time>
      </trkpt>
      <trkpt lat="47.96958" lon="-3.50403">
        <ele>106.6</ele>
        <time>2018-06-01T09:24:25Z</time>
      </trkpt>
      <trkpt lat="47.96964" lon="-3.50417">
        <ele>106.43</ele>
        <time>2018-06-01T09:24:36Z</time>
      </trkpt>
      <trkpt lat="47.96981" lon="-3.50445">
        <ele>104.82</ele>
        <time>2018-06-01T09:24:50Z</time>
      </trkpt>
      <trkpt lat="47.96991" lon="-3.50448">
        <ele>104.48</ele>
        <time>2018-06-01T09:24:53Z</time>
      </trkpt>
      <trkpt lat="47.96997" lon="-3.50442">
        <ele>102.74</ele>
        <time>2018-06-01T09:25:02Z</time>
      </trkpt>
      <trkpt lat="47.97002" lon="-3.50433">
        <ele>101.47</ele>
        <time>2018-06-01T09:25:09Z</time>
      </trkpt>
      <trkpt lat="47.97003" lon="-3.50432">
        <ele>101.03</ele>
        <time>2018-06-01T09:25:11Z</time>
      </trkpt>
      <trkpt lat="47.97005" lon="-3.5043">
        <ele>100.69</ele>
        <time>2018-06-01T09:25:13Z</time>
      </trkpt>
      <trkpt lat="47.97017" lon="-3.50426">
        <ele>99.01</ele>
        <time>2018-06-01T09:25:23Z</time>
      </trkpt>
      <trkpt lat="47.97025" lon="-3.50421">
        <ele>97.48</ele>
        <time>2018-06-01T09:25:30Z</time>
      </trkpt>
      <trkpt lat="47.97029" lon="-3.50417">
        <ele>96.84</ele>
        <time>2018-06-01T09:25:33Z</time>
      </trkpt>
      <trkpt lat="47.97035" lon="-3.50408">
        <ele>95.95</ele>
        <time>2018-06-01T09:25:37Z</time>
      </trkpt>
      <trkpt lat="47.97037" lon="-3.50405">
        <ele>95.4</ele>
        <time>2018-06-01T09:25:39Z</time>
      </trkpt>
      <trkpt lat="47.97046" lon="-3.50401">
        <ele>94.05</ele>
        <time>2018-06-01T09:25:44Z</time>
      </trkpt>
      <trkpt lat="47.97063" lon="-3.50392">
        <ele>90.36</ele>
        <time>2018-06-01T09:25:57Z</time>
      </trkpt>
      <trkpt lat="47.97079" lon="-3.50386">
        <ele>87.09</ele>
        <time>2018-06-01T09:26:07Z</time>
      </trkpt>
      <trkpt lat="47.97091" lon="-3.50379">
        <ele>84.18</ele>
        <time>2018-06-01T09:26:15Z</time>
      </trkpt>
      <trkpt lat="47.9711" lon="-3.5036">
        <ele>80.85</ele>
        <time>2018-06-01T09:26:28Z</time>
      </trkpt>
      <trkpt lat="47.97137" lon="-3.50348">
        <ele>78.23</ele>
        <time>2018-06-01T09:26:43Z</time>
      </trkpt>
      <trkpt lat="47.97149" lon="-3.5035">
        <ele>77.03</ele>
        <time>2018-06-01T09:26:50Z</time>
      </trkpt>
      <trkpt lat="47.97164" lon="-3.50366">
        <ele>74.77</ele>
        <time>2018-06-01T09:27:04Z</time>
      </trkpt>
      <trkpt lat="47.97174" lon="-3.50369">
        <ele>73.59</ele>
        <time>2018-06-01T09:27:12Z</time>
      </trkpt>
      <trkpt lat="47.9721" lon="-3.50376">
        <ele>71.62</ele>
        <time>2018-06-01T09:27:28Z</time>
      </trkpt>
      <trkpt lat="47.97233" lon="-3.50398">
        <ele>69.91</ele>
        <time>2018-06-01T09:27:39Z</time>
      </trkpt>
      <trkpt lat="47.9724" lon="-3.50413">
        <ele>69.34</ele>
        <time>2018-06-01T09:27:48Z</time>
      </trkpt>
      <trkpt lat="47.9724" lon="-3.50419">
        <ele>69.24</ele>
        <time>2018-06-01T09:27:50Z</time>
      </trkpt>
      <trkpt lat="47.97244" lon="-3.5043">
        <ele>69.01</ele>
        <time>2018-06-01T09:27:55Z</time>
      </trkpt>
      <trkpt lat="47.97248" lon="-3.50436">
        <ele>69</ele>
        <time>2018-06-01T09:27:58Z</time>
      </trkpt>
      <trkpt lat="47.97274" lon="-3.50454">
        <ele>68.58</ele>
        <time>2018-06-01T09:28:13Z</time>
      </trkpt>
      <trkpt lat="47.97288" lon="-3.50461">
        <ele>68.41</ele>
        <time>2018-06-01T09:28:21Z</time>
      </trkpt>
      <trkpt lat="47.97297" lon="-3.50464">
        <ele>68.66</ele>
        <time>2018-06-01T09:28:26Z</time>
      </trkpt>
      <trkpt lat="47.9732" lon="-3.50464">
        <ele>68.4</ele>
        <time>2018-06-01T09:28:40Z</time>
      </trkpt>
      <trkpt lat="47.97337" lon="-3.50465">
        <ele>66.37</ele>
        <time>2018-06-01T09:28:51Z</time>
      </trkpt>
      <trkpt lat="47.97345" lon="-3.50471">
        <ele>64.58</ele>
        <time>2018-06-01T09:28:58Z</time>
      </trkpt>
      <trkpt lat="47.97364" lon="-3.50474">
        <ele>62.08</ele>
        <time>2018-06-01T09:29:10Z</time>
      </trkpt>
      <trkpt lat="47.97378" lon="-3.50474">
        <ele>59.51</ele>
        <time>2018-06-01T09:29:23Z</time>
      </trkpt>
      <trkpt lat="47.97392" lon="-3.50463">
        <ele>56.47</ele>
        <time>2018-06-01T09:29:36Z</time>
      </trkpt>
      <trkpt lat="47.97417" lon="-3.50445">
        <ele>53.26</ele>
        <time>2018-06-01T09:29:55Z</time>
      </trkpt>
      <trkpt lat="47.97443" lon="-3.50423">
        <ele>50.64</ele>
        <time>2018-06-01T09:30:10Z</time>
      </trkpt>
      <trkpt lat="47.97454" lon="-3.50418">
        <ele>49.39</ele>
        <time>2018-06-01T09:30:17Z</time>
      </trkpt>
      <trkpt lat="47.97464" lon="-3.50408">
        <ele>48.06</ele>
        <time>2018-06-01T09:30:25Z</time>
      </trkpt>
      <trkpt lat="47.97472" lon="-3.50398">
        <ele>47.48</ele>
        <time>2018-06-01T09:30:29Z</time>
      </trkpt>
      <trkpt lat="47.97487" lon="-3.5039">
        <ele>46.24</ele>
        <time>2018-06-01T09:30:38Z</time>
      </trkpt>
      <trkpt lat="47.9749" lon="-3.5039">
        <ele>46.06</ele>
        <time>2018-06-01T09:30:40Z</time>
      </trkpt>
      <trkpt lat="47.97512" lon="-3.50398">
        <ele>44.89</ele>
        <time>2018-06-01T09:30:55Z</time>
      </trkpt>
      <trkpt lat="47.97518" lon="-3.50404">
        <ele>44.49</ele>
        <time>2018-06-01T09:31:00Z</time>
      </trkpt>
      <trkpt lat="47.9752" lon="-3.50406">
        <ele>44.39</ele>
        <time>2018-06-01T09:31:01Z</time>
      </trkpt>
      <trkpt lat="47.97521" lon="-3.50408">
        <ele>44.29</ele>
        <time>2018-06-01T09:31:02Z</time>
      </trkpt>
      <trkpt lat="47.97522" lon="-3.50409">
        <ele>44.17</ele>
        <time>2018-06-01T09:31:03Z</time>
      </trkpt>
      <trkpt lat="47.97524" lon="-3.50412">
        <ele>44.05</ele>
        <time>2018-06-01T09:31:04Z</time>
      </trkpt>
      <trkpt lat="47.97525" lon="-3.50414">
        <ele>43.95</ele>
        <time>2018-06-01T09:31:05Z</time>
      </trkpt>
      <trkpt lat="47.97526" lon="-3.50416">
        <ele>43.88</ele>
        <time>2018-06-01T09:31:06Z</time>
      </trkpt>
      <trkpt lat="47.97527" lon="-3.50418">
        <ele>43.75</ele>
        <time>2018-06-01T09:31:07Z</time>
      </trkpt>
      <trkpt lat="47.9753" lon="-3.50427">
        <ele>43.53</ele>
        <time>2018-06-01T09:31:12Z</time>
      </trkpt>
      <trkpt lat="47.9753" lon="-3.5043">
        <ele>43.47</ele>
        <time>2018-06-01T09:31:13Z</time>
      </trkpt>
      <trkpt lat="47.97529" lon="-3.50438">
        <ele>42.99</ele>
        <time>2018-06-01T09:31:18Z</time>
      </trkpt>
      <trkpt lat="47.97529" lon="-3.5044">
        <ele>42.9</ele>
        <time>2018-06-01T09:31:19Z</time>
      </trkpt>
      <trkpt lat="47.97528" lon="-3.50441">
        <ele>42.8</ele>
        <time>2018-06-01T09:31:20Z</time>
      </trkpt>
      <trkpt lat="47.97526" lon="-3.50457">
        <ele>41.91</ele>
        <time>2018-06-01T09:31:32Z</time>
      </trkpt>
      <trkpt lat="47.97524" lon="-3.50462">
        <ele>42.38</ele>
        <time>2018-06-01T09:31:52Z</time>
      </trkpt>
      <trkpt lat="47.97523" lon="-3.50476">
        <ele>43.09</ele>
        <time>2018-06-01T09:32:02Z</time>
      </trkpt>
      <trkpt lat="47.97523" lon="-3.50478">
        <ele>43.08</ele>
        <time>2018-06-01T09:32:03Z</time>
      </trkpt>
      <trkpt lat="47.97523" lon="-3.50481">
        <ele>43.05</ele>
        <time>2018-06-01T09:32:04Z</time>
      </trkpt>
      <trkpt lat="47.97522" lon="-3.50484">
        <ele>43</ele>
        <time>2018-06-01T09:32:05Z</time>
      </trkpt>
      <trkpt lat="47.97522" lon="-3.50486">
        <ele>42.96</ele>
        <time>2018-06-01T09:32:06Z</time>
      </trkpt>
      <trkpt lat="47.97523" lon="-3.5049">
        <ele>42.89</ele>
        <time>2018-06-01T09:32:08Z</time>
      </trkpt>
      <trkpt lat="47.97524" lon="-3.50493">
        <ele>42.84</ele>
        <time>2018-06-01T09:32:09Z</time>
      </trkpt>
      <trkpt lat="47.97524" lon="-3.50495">
        <ele>42.82</ele>
        <time>2018-06-01T09:32:10Z</time>
      </trkpt>
      <trkpt lat="47.97525" lon="-3.50514">
        <ele>42.55</ele>
        <time>2018-06-01T09:32:21Z</time>
      </trkpt>
      <trkpt lat="47.97525" lon="-3.50533">
        <ele>42.65</ele>
        <time>2018-06-01T09:32:31Z</time>
      </trkpt>
      <trkpt lat="47.97532" lon="-3.50549">
        <ele>41.86</ele>
        <time>2018-06-01T09:32:44Z</time>
      </trkpt>
      <trkpt lat="47.97533" lon="-3.5055">
        <ele>41.76</ele>
        <time>2018-06-01T09:32:45Z</time>
      </trkpt>
      <trkpt lat="47.97541" lon="-3.50556">
        <ele>41.18</ele>
        <time>2018-06-01T09:33:05Z</time>
      </trkpt>
      <trkpt lat="47.97546" lon="-3.50565">
        <ele>41.23</ele>
        <time>2018-06-01T09:33:26Z</time>
      </trkpt>
      <trkpt lat="47.97551" lon="-3.50564">
        <ele>41.03</ele>
        <time>2018-06-01T09:33:51Z</time>
      </trkpt>
      <trkpt lat="47.97554" lon="-3.50559">
        <ele>41.14</ele>
        <time>2018-06-01T09:34:14Z</time>
      </trkpt>
      <trkpt lat="47.97549" lon="-3.50552">
        <ele>41.06</ele>
        <time>2018-06-01T09:34:23Z</time>
      </trkpt>
      <trkpt lat="47.97544" lon="-3.50553">
        <ele>41.4</ele>
        <time>2018-06-01T09:34:29Z</time>
      </trkpt>
      <trkpt lat="47.97541" lon="-3.50565">
        <ele>41.84</ele>
        <time>2018-06-01T09:34:32Z</time>
      </trkpt>
      <trkpt lat="47.9754" lon="-3.50569">
        <ele>42.01</ele>
        <time>2018-06-01T09:34:33Z</time>
      </trkpt>
      <trkpt lat="47.97539" lon="-3.50574">
        <ele>42.19</ele>
        <time>2018-06-01T09:34:34Z</time>
      </trkpt>
      <trkpt lat="47.97538" lon="-3.50578">
        <ele>42.38</ele>
        <time>2018-06-01T09:34:35Z</time>
      </trkpt>
      <trkpt lat="47.97537" lon="-3.50581">
        <ele>42.62</ele>
        <time>2018-06-01T09:34:36Z</time>
      </trkpt>
      <trkpt lat="47.97537" lon="-3.50583">
        <ele>42.9</ele>
        <time>2018-06-01T09:34:37Z</time>
      </trkpt>
      <trkpt lat="47.97528" lon="-3.506">
        <ele>45.9</ele>
        <time>2018-06-01T09:34:48Z</time>
      </trkpt>
      <trkpt lat="47.97522" lon="-3.50622">
        <ele>48.11</ele>
        <time>2018-06-01T09:34:59Z</time>
      </trkpt>
      <trkpt lat="47.97521" lon="-3.50625">
        <ele>48.32</ele>
        <time>2018-06-01T09:35:00Z</time>
      </trkpt>
      <trkpt lat="47.97517" lon="-3.50636">
        <ele>49.35</ele>
        <time>2018-06-01T09:35:05Z</time>
      </trkpt>
      <trkpt lat="47.97508" lon="-3.50665">
        <ele>52.67</ele>
        <time>2018-06-01T09:35:19Z</time>
      </trkpt>
      <trkpt lat="47.97507" lon="-3.50684">
        <ele>55.47</ele>
        <time>2018-06-01T09:35:31Z</time>
      </trkpt>
      <trkpt lat="47.97511" lon="-3.50702">
        <ele>58.58</ele>
        <time>2018-06-01T09:35:42Z</time>
      </trkpt>
      <trkpt lat="47.97511" lon="-3.50706">
        <ele>59</ele>
        <time>2018-06-01T09:35:44Z</time>
      </trkpt>
      <trkpt lat="47.97514" lon="-3.5072">
        <ele>61.16</ele>
        <time>2018-06-01T09:35:53Z</time>
      </trkpt>
      <trkpt lat="47.97518" lon="-3.50744">
        <ele>64.18</ele>
        <time>2018-06-01T09:36:06Z</time>
      </trkpt>
      <trkpt lat="47.97522" lon="-3.50776">
        <ele>66.97</ele>
        <time>2018-06-01T09:36:23Z</time>
      </trkpt>
      <trkpt lat="47.97521" lon="-3.50781">
        <ele>67.62</ele>
        <time>2018-06-01T09:36:26Z</time>
      </trkpt>
      <trkpt lat="47.97516" lon="-3.508">
        <ele>69.65</ele>
        <time>2018-06-01T09:36:36Z</time>
      </trkpt>
      <trkpt lat="47.97512" lon="-3.508">
        <ele>70.48</ele>
        <time>2018-06-01T09:36:41Z</time>
      </trkpt>
      <trkpt lat="47.97506" lon="-3.50791">
        <ele>71.44</ele>
        <time>2018-06-01T09:36:48Z</time>
      </trkpt>
      <trkpt lat="47.97502" lon="-3.50787">
        <ele>72.05</ele>
        <time>2018-06-01T09:36:52Z</time>
      </trkpt>
      <trkpt lat="47.9748" lon="-3.50795">
        <ele>74.65</ele>
        <time>2018-06-01T09:37:08Z</time>
      </trkpt>
      <trkpt lat="47.97471" lon="-3.50813">
        <ele>76.18</ele>
        <time>2018-06-01T09:37:18Z</time>
      </trkpt>
      <trkpt lat="47.97477" lon="-3.50847">
        <ele>76.48</ele>
        <time>2018-06-01T09:37:33Z</time>
      </trkpt>
      <trkpt lat="47.9747" lon="-3.50882">
        <ele>73.89</ele>
        <time>2018-06-01T09:37:46Z</time>
      </trkpt>
      <trkpt lat="47.97452" lon="-3.50912">
        <ele>72.45</ele>
        <time>2018-06-01T09:37:57Z</time>
      </trkpt>
      <trkpt lat="47.97436" lon="-3.50956">
        <ele>70.81</ele>
        <time>2018-06-01T09:38:07Z</time>
      </trkpt>
      <trkpt lat="47.97434" lon="-3.50986">
        <ele>70.87</ele>
        <time>2018-06-01T09:38:13Z</time>
      </trkpt>
      <trkpt lat="47.97433" lon="-3.5099">
        <ele>70.79</ele>
        <time>2018-06-01T09:38:14Z</time>
      </trkpt>
      <trkpt lat="47.97432" lon="-3.50993">
        <ele>70.53</ele>
        <time>2018-06-01T09:38:15Z</time>
      </trkpt>
      <trkpt lat="47.9743" lon="-3.50996">
        <ele>70.36</ele>
        <time>2018-06-01T09:38:16Z</time>
      </trkpt>
      <trkpt lat="47.9743" lon="-3.50999">
        <ele>70.17</ele>
        <time>2018-06-01T09:38:17Z</time>
      </trkpt>
      <trkpt lat="47.97429" lon="-3.51004">
        <ele>69.97</ele>
        <time>2018-06-01T09:38:18Z</time>
      </trkpt>
      <trkpt lat="47.97429" lon="-3.51009">
        <ele>69.76</ele>
        <time>2018-06-01T09:38:19Z</time>
      </trkpt>
      <trkpt lat="47.9743" lon="-3.51073">
        <ele>68.16</ele>
        <time>2018-06-01T09:38:29Z</time>
      </trkpt>
      <trkpt lat="47.97429" lon="-3.51097">
        <ele>68.58</ele>
        <time>2018-06-01T09:38:34Z</time>
      </trkpt>
      <trkpt lat="47.97426" lon="-3.51118">
        <ele>68.38</ele>
        <time>2018-06-01T09:38:48Z</time>
      </trkpt>
      <trkpt lat="47.97419" lon="-3.51138">
        <ele>66.96</ele>
        <time>2018-06-01T09:38:57Z</time>
      </trkpt>
      <trkpt lat="47.97414" lon="-3.51152">
        <ele>66.01</ele>
        <time>2018-06-01T09:39:03Z</time>
      </trkpt>
      <trkpt lat="47.97412" lon="-3.5116">
        <ele>65.56</ele>
        <time>2018-06-01T09:39:06Z</time>
      </trkpt>
      <trkpt lat="47.97408" lon="-3.51191">
        <ele>62.79</ele>
        <time>2018-06-01T09:39:19Z</time>
      </trkpt>
      <trkpt lat="47.97403" lon="-3.51215">
        <ele>60.31</ele>
        <time>2018-06-01T09:39:31Z</time>
      </trkpt>
      <trkpt lat="47.97409" lon="-3.51238">
        <ele>59.06</ele>
        <time>2018-06-01T09:39:39Z</time>
      </trkpt>
      <trkpt lat="47.97411" lon="-3.51241">
        <ele>58.66</ele>
        <time>2018-06-01T09:39:41Z</time>
      </trkpt>
      <trkpt lat="47.97422" lon="-3.51274">
        <ele>55.69</ele>
        <time>2018-06-01T09:39:53Z</time>
      </trkpt>
      <trkpt lat="47.97427" lon="-3.51293">
        <ele>53.46</ele>
        <time>2018-06-01T09:40:02Z</time>
      </trkpt>
      <trkpt lat="47.97436" lon="-3.51322">
        <ele>54.32</ele>
        <time>2018-06-01T09:40:14Z</time>
      </trkpt>
      <trkpt lat="47.97437" lon="-3.51324">
        <ele>54.39</ele>
        <time>2018-06-01T09:40:15Z</time>
      </trkpt>
      <trkpt lat="47.97443" lon="-3.51342">
        <ele>54.58</ele>
        <time>2018-06-01T09:40:24Z</time>
      </trkpt>
      <trkpt lat="47.97444" lon="-3.51347">
        <ele>54.59</ele>
        <time>2018-06-01T09:40:26Z</time>
      </trkpt>
      <trkpt lat="47.9745" lon="-3.51359">
        <ele>54.36</ele>
        <time>2018-06-01T09:40:32Z</time>
      </trkpt>
      <trkpt lat="47.97449" lon="-3.51375">
        <ele>53.98</ele>
        <time>2018-06-01T09:40:38Z</time>
      </trkpt>
      <trkpt lat="47.97448" lon="-3.514">
        <ele>53.59</ele>
        <time>2018-06-01T09:40:52Z</time>
      </trkpt>
      <trkpt lat="47.97448" lon="-3.51431">
        <ele>53.47</ele>
        <time>2018-06-01T09:41:08Z</time>
      </trkpt>
      <trkpt lat="47.97441" lon="-3.5146">
        <ele>51.71</ele>
        <time>2018-06-01T09:41:23Z</time>
      </trkpt>
      <trkpt lat="47.97434" lon="-3.51474">
        <ele>52.02</ele>
        <time>2018-06-01T09:41:35Z</time>
      </trkpt>
      <trkpt lat="47.97416" lon="-3.51491">
        <ele>52.06</ele>
        <time>2018-06-01T09:41:56Z</time>
      </trkpt>
      <trkpt lat="47.97417" lon="-3.51498">
        <ele>51.52</ele>
        <time>2018-06-01T09:42:04Z</time>
      </trkpt>
      <trkpt lat="47.9742" lon="-3.515">
        <ele>51.47</ele>
        <time>2018-06-01T09:42:06Z</time>
      </trkpt>
      <trkpt lat="47.97425" lon="-3.51505">
        <ele>51.49</ele>
        <time>2018-06-01T09:42:08Z</time>
      </trkpt>
      <trkpt lat="47.97438" lon="-3.51526">
        <ele>51.02</ele>
        <time>2018-06-01T09:42:21Z</time>
      </trkpt>
      <trkpt lat="47.97454" lon="-3.51549">
        <ele>50.68</ele>
        <time>2018-06-01T09:42:33Z</time>
      </trkpt>
      <trkpt lat="47.97469" lon="-3.51578">
        <ele>50.24</ele>
        <time>2018-06-01T09:42:44Z</time>
      </trkpt>
      <trkpt lat="47.97493" lon="-3.51618">
        <ele>50.37</ele>
        <time>2018-06-01T09:42:54Z</time>
      </trkpt>
      <trkpt lat="47.97505" lon="-3.5164">
        <ele>50.54</ele>
        <time>2018-06-01T09:42:58Z</time>
      </trkpt>
      <trkpt lat="47.97519" lon="-3.5167">
        <ele>51.03</ele>
        <time>2018-06-01T09:43:02Z</time>
      </trkpt>
      <trkpt lat="47.97538" lon="-3.51703">
        <ele>51.32</ele>
        <time>2018-06-01T09:43:07Z</time>
      </trkpt>
      <trkpt lat="47.97553" lon="-3.51725">
        <ele>51.22</ele>
        <time>2018-06-01T09:43:11Z</time>
      </trkpt>
      <trkpt lat="47.97555" lon="-3.5173">
        <ele>51.2</ele>
        <time>2018-06-01T09:43:12Z</time>
      </trkpt>
      <trkpt lat="47.97569" lon="-3.51765">
        <ele>53.76</ele>
        <time>2018-06-01T09:43:21Z</time>
      </trkpt>
      <trkpt lat="47.97573" lon="-3.51775">
        <ele>53.92</ele>
        <time>2018-06-01T09:43:23Z</time>
      </trkpt>
      <trkpt lat="47.97577" lon="-3.51779">
        <ele>53.96</ele>
        <time>2018-06-01T09:43:24Z</time>
      </trkpt>
      <trkpt lat="47.97579" lon="-3.51783">
        <ele>54</ele>
        <time>2018-06-01T09:43:25Z</time>
      </trkpt>
      <trkpt lat="47.97582" lon="-3.51789">
        <ele>54.06</ele>
        <time>2018-06-01T09:43:26Z</time>
      </trkpt>
      <trkpt lat="47.97592" lon="-3.51814">
        <ele>54.3</ele>
        <time>2018-06-01T09:43:31Z</time>
      </trkpt>
      <trkpt lat="47.97603" lon="-3.51838">
        <ele>54.32</ele>
        <time>2018-06-01T09:43:36Z</time>
      </trkpt>
      <trkpt lat="47.97617" lon="-3.51879">
        <ele>53.87</ele>
        <time>2018-06-01T09:43:43Z</time>
      </trkpt>
      <trkpt lat="47.97625" lon="-3.51924">
        <ele>53.32</ele>
        <time>2018-06-01T09:43:49Z</time>
      </trkpt>
      <trkpt lat="47.97628" lon="-3.51952">
        <ele>53.27</ele>
        <time>2018-06-01T09:43:53Z</time>
      </trkpt>
      <trkpt lat="47.9764" lon="-3.51991">
        <ele>53.53</ele>
        <time>2018-06-01T09:43:59Z</time>
      </trkpt>
      <trkpt lat="47.9765" lon="-3.52022">
        <ele>53.79</ele>
        <time>2018-06-01T09:44:05Z</time>
      </trkpt>
      <trkpt lat="47.97653" lon="-3.5205">
        <ele>53.94</ele>
        <time>2018-06-01T09:44:10Z</time>
      </trkpt>
      <trkpt lat="47.97656" lon="-3.52059">
        <ele>53.93</ele>
        <time>2018-06-01T09:44:13Z</time>
      </trkpt>
      <trkpt lat="47.97657" lon="-3.52074">
        <ele>53.55</ele>
        <time>2018-06-01T09:44:18Z</time>
      </trkpt>
      <trkpt lat="47.9766" lon="-3.5208">
        <ele>53.38</ele>
        <time>2018-06-01T09:44:20Z</time>
      </trkpt>
      <trkpt lat="47.97665" lon="-3.52103">
        <ele>52.97</ele>
        <time>2018-06-01T09:44:28Z</time>
      </trkpt>
      <trkpt lat="47.97666" lon="-3.5211">
        <ele>53.11</ele>
        <time>2018-06-01T09:44:31Z</time>
      </trkpt>
      <trkpt lat="47.97668" lon="-3.52117">
        <ele>53.35</ele>
        <time>2018-06-01T09:44:35Z</time>
      </trkpt>
      <trkpt lat="47.97675" lon="-3.52127">
        <ele>53.53</ele>
        <time>2018-06-01T09:44:45Z</time>
      </trkpt>
      <trkpt lat="47.97687" lon="-3.5215">
        <ele>52.79</ele>
        <time>2018-06-01T09:50:57Z</time>
      </trkpt>
      <trkpt lat="47.97671" lon="-3.52158">
        <ele>56.03</ele>
        <time>2018-06-01T09:51:15Z</time>
      </trkpt>
      <trkpt lat="47.97669" lon="-3.5216">
        <ele>57.16</ele>
        <time>2018-06-01T09:51:18Z</time>
      </trkpt>
      <trkpt lat="47.97665" lon="-3.52166">
        <ele>60.67</ele>
        <time>2018-06-01T09:51:28Z</time>
      </trkpt>
      <trkpt lat="47.97656" lon="-3.52177">
        <ele>63.99</ele>
        <time>2018-06-01T09:51:36Z</time>
      </trkpt>
      <trkpt lat="47.97649" lon="-3.52192">
        <ele>67.16</ele>
        <time>2018-06-01T09:51:47Z</time>
      </trkpt>
      <trkpt lat="47.97649" lon="-3.522">
        <ele>68.59</ele>
        <time>2018-06-01T09:51:51Z</time>
      </trkpt>
      <trkpt lat="47.97652" lon="-3.52204">
        <ele>69.15</ele>
        <time>2018-06-01T09:51:53Z</time>
      </trkpt>
      <trkpt lat="47.97663" lon="-3.52229">
        <ele>70.98</ele>
        <time>2018-06-01T09:52:11Z</time>
      </trkpt>
      <trkpt lat="47.9767" lon="-3.52249">
        <ele>71.88</ele>
        <time>2018-06-01T09:52:22Z</time>
      </trkpt>
      <trkpt lat="47.9769" lon="-3.52269">
        <ele>72.41</ele>
        <time>2018-06-01T09:52:27Z</time>
      </trkpt>
      <trkpt lat="47.97714" lon="-3.52292">
        <ele>73.22</ele>
        <time>2018-06-01T09:52:36Z</time>
      </trkpt>
      <trkpt lat="47.97728" lon="-3.52307">
        <ele>73.27</ele>
        <time>2018-06-01T09:52:42Z</time>
      </trkpt>
      <trkpt lat="47.97745" lon="-3.52323">
        <ele>73.51</ele>
        <time>2018-06-01T09:52:52Z</time>
      </trkpt>
      <trkpt lat="47.9776" lon="-3.52346">
        <ele>73.87</ele>
        <time>2018-06-01T09:53:05Z</time>
      </trkpt>
      <trkpt lat="47.9777" lon="-3.52359">
        <ele>74.45</ele>
        <time>2018-06-01T09:53:14Z</time>
      </trkpt>
      <trkpt lat="47.97777" lon="-3.52365">
        <ele>74.75</ele>
        <time>2018-06-01T09:53:18Z</time>
      </trkpt>
      <trkpt lat="47.97791" lon="-3.52388">
        <ele>75.88</ele>
        <time>2018-06-01T09:53:33Z</time>
      </trkpt>
      <trkpt lat="47.97804" lon="-3.52417">
        <ele>76.22</ele>
        <time>2018-06-01T09:53:47Z</time>
      </trkpt>
      <trkpt lat="47.9781" lon="-3.52423">
        <ele>76.17</ele>
        <time>2018-06-01T09:53:51Z</time>
      </trkpt>
      <trkpt lat="47.97821" lon="-3.5244">
        <ele>76.23</ele>
        <time>2018-06-01T09:53:59Z</time>
      </trkpt>
      <trkpt lat="47.97826" lon="-3.52456">
        <ele>75.83</ele>
        <time>2018-06-01T09:54:06Z</time>
      </trkpt>
      <trkpt lat="47.97835" lon="-3.52466">
        <ele>74.58</ele>
        <time>2018-06-01T09:54:13Z</time>
      </trkpt>
      <trkpt lat="47.97845" lon="-3.52488">
        <ele>73.04</ele>
        <time>2018-06-01T09:54:25Z</time>
      </trkpt>
      <trkpt lat="47.97846" lon="-3.52493">
        <ele>72.91</ele>
        <time>2018-06-01T09:54:27Z</time>
      </trkpt>
      <trkpt lat="47.97867" lon="-3.52521">
        <ele>71.64</ele>
        <time>2018-06-01T09:54:42Z</time>
      </trkpt>
      <trkpt lat="47.97882" lon="-3.52543">
        <ele>70.85</ele>
        <time>2018-06-01T09:54:54Z</time>
      </trkpt>
      <trkpt lat="47.97888" lon="-3.52554">
        <ele>71.15</ele>
        <time>2018-06-01T09:55:01Z</time>
      </trkpt>
      <trkpt lat="47.97894" lon="-3.52563">
        <ele>71.93</ele>
        <time>2018-06-01T09:55:06Z</time>
      </trkpt>
      <trkpt lat="47.97897" lon="-3.52571">
        <ele>72.46</ele>
        <time>2018-06-01T09:55:11Z</time>
      </trkpt>
      <trkpt lat="47.97905" lon="-3.52579">
        <ele>72.73</ele>
        <time>2018-06-01T09:55:16Z</time>
      </trkpt>
      <trkpt lat="47.97908" lon="-3.52583">
        <ele>72.84</ele>
        <time>2018-06-01T09:55:18Z</time>
      </trkpt>
      <trkpt lat="47.9791" lon="-3.52586">
        <ele>72.94</ele>
        <time>2018-06-01T09:55:20Z</time>
      </trkpt>
      <trkpt lat="47.97915" lon="-3.52597">
        <ele>73.39</ele>
        <time>2018-06-01T09:55:26Z</time>
      </trkpt>
      <trkpt lat="47.97919" lon="-3.52608">
        <ele>73.82</ele>
        <time>2018-06-01T09:55:31Z</time>
      </trkpt>
      <trkpt lat="47.97938" lon="-3.52632">
        <ele>75.32</ele>
        <time>2018-06-01T09:55:46Z</time>
      </trkpt>
      <trkpt lat="47.97951" lon="-3.52649">
        <ele>76.54</ele>
        <time>2018-06-01T09:55:58Z</time>
      </trkpt>
      <trkpt lat="47.97951" lon="-3.52653">
        <ele>76.76</ele>
        <time>2018-06-01T09:56:00Z</time>
      </trkpt>
      <trkpt lat="47.97958" lon="-3.52672">
        <ele>77.8</ele>
        <time>2018-06-01T09:56:09Z</time>
      </trkpt>
      <trkpt lat="47.9796" lon="-3.52677">
        <ele>78.19</ele>
        <time>2018-06-01T09:56:12Z</time>
      </trkpt>
      <trkpt lat="47.97962" lon="-3.52705">
        <ele>80.43</ele>
        <time>2018-06-01T09:56:27Z</time>
      </trkpt>
      <trkpt lat="47.97963" lon="-3.52732">
        <ele>82.97</ele>
        <time>2018-06-01T09:56:39Z</time>
      </trkpt>
      <trkpt lat="47.97965" lon="-3.52754">
        <ele>84.8</ele>
        <time>2018-06-01T09:56:49Z</time>
      </trkpt>
      <trkpt lat="47.97964" lon="-3.52773">
        <ele>86.99</ele>
        <time>2018-06-01T09:57:01Z</time>
      </trkpt>
      <trkpt lat="47.97958" lon="-3.52808">
        <ele>90.02</ele>
        <time>2018-06-01T09:57:18Z</time>
      </trkpt>
      <trkpt lat="47.97957" lon="-3.5281">
        <ele>90.19</ele>
        <time>2018-06-01T09:57:19Z</time>
      </trkpt>
      <trkpt lat="47.97949" lon="-3.52838">
        <ele>93.27</ele>
        <time>2018-06-01T09:57:34Z</time>
      </trkpt>
      <trkpt lat="47.97948" lon="-3.52845">
        <ele>93.92</ele>
        <time>2018-06-01T09:57:38Z</time>
      </trkpt>
      <trkpt lat="47.97942" lon="-3.5286">
        <ele>96.56</ele>
        <time>2018-06-01T09:57:55Z</time>
      </trkpt>
      <trkpt lat="47.97927" lon="-3.52854">
        <ele>98.81</ele>
        <time>2018-06-01T09:58:14Z</time>
      </trkpt>
      <trkpt lat="47.9791" lon="-3.52846">
        <ele>101.1</ele>
        <time>2018-06-01T09:58:30Z</time>
      </trkpt>
      <trkpt lat="47.97892" lon="-3.5284">
        <ele>103.2</ele>
        <time>2018-06-01T09:58:45Z</time>
      </trkpt>
      <trkpt lat="47.97861" lon="-3.52848">
        <ele>105.02</ele>
        <time>2018-06-01T09:59:04Z</time>
      </trkpt>
      <trkpt lat="47.97847" lon="-3.52855">
        <ele>106.42</ele>
        <time>2018-06-01T09:59:16Z</time>
      </trkpt>
      <trkpt lat="47.97855" lon="-3.52862">
        <ele>105.75</ele>
        <time>2018-06-01T09:59:32Z</time>
      </trkpt>
      <trkpt lat="47.97861" lon="-3.52867">
        <ele>102.71</ele>
        <time>2018-06-01T09:59:45Z</time>
      </trkpt>
      <trkpt lat="47.97875" lon="-3.52878">
        <ele>99.57</ele>
        <time>2018-06-01T10:00:00Z</time>
      </trkpt>
      <trkpt lat="47.97886" lon="-3.52894">
        <ele>97.14</ele>
        <time>2018-06-01T10:00:13Z</time>
      </trkpt>
      <trkpt lat="47.97905" lon="-3.52911">
        <ele>95.43</ele>
        <time>2018-06-01T10:00:22Z</time>
      </trkpt>
      <trkpt lat="47.97908" lon="-3.52915">
        <ele>94.93</ele>
        <time>2018-06-01T10:00:25Z</time>
      </trkpt>
      <trkpt lat="47.97909" lon="-3.52915">
        <ele>94.37</ele>
        <time>2018-06-01T10:00:28Z</time>
      </trkpt>
      <trkpt lat="47.97918" lon="-3.52927">
        <ele>91.42</ele>
        <time>2018-06-01T10:00:42Z</time>
      </trkpt>
      <trkpt lat="47.9792" lon="-3.5293">
        <ele>90.97</ele>
        <time>2018-06-01T10:00:44Z</time>
      </trkpt>
      <trkpt lat="47.97922" lon="-3.52935">
        <ele>90.61</ele>
        <time>2018-06-01T10:00:46Z</time>
      </trkpt>
      <trkpt lat="47.97929" lon="-3.5296">
        <ele>88.24</ele>
        <time>2018-06-01T10:00:59Z</time>
      </trkpt>
      <trkpt lat="47.97929" lon="-3.5297">
        <ele>87.82</ele>
        <time>2018-06-01T10:01:03Z</time>
      </trkpt>
      <trkpt lat="47.97931" lon="-3.52984">
        <ele>87.26</ele>
        <time>2018-06-01T10:01:09Z</time>
      </trkpt>
      <trkpt lat="47.9793" lon="-3.52998">
        <ele>86.72</ele>
        <time>2018-06-01T10:01:15Z</time>
      </trkpt>
      <trkpt lat="47.9793" lon="-3.53002">
        <ele>86.56</ele>
        <time>2018-06-01T10:01:17Z</time>
      </trkpt>
      <trkpt lat="47.97935" lon="-3.53033">
        <ele>85.79</ele>
        <time>2018-06-01T10:01:27Z</time>
      </trkpt>
      <trkpt lat="47.97933" lon="-3.53048">
        <ele>85.09</ele>
        <time>2018-06-01T10:01:33Z</time>
      </trkpt>
      <trkpt lat="47.97935" lon="-3.53054">
        <ele>84.57</ele>
        <time>2018-06-01T10:01:37Z</time>
      </trkpt>
      <trkpt lat="47.97935" lon="-3.53064">
        <ele>83.83</ele>
        <time>2018-06-01T10:01:42Z</time>
      </trkpt>
      <trkpt lat="47.97933" lon="-3.53075">
        <ele>82.35</ele>
        <time>2018-06-01T10:01:50Z</time>
      </trkpt>
      <trkpt lat="47.97933" lon="-3.5308">
        <ele>82.05</ele>
        <time>2018-06-01T10:01:52Z</time>
      </trkpt>
      <trkpt lat="47.9792" lon="-3.53109">
        <ele>80.29</ele>
        <time>2018-06-01T10:02:11Z</time>
      </trkpt>
      <trkpt lat="47.97914" lon="-3.53137">
        <ele>80.35</ele>
        <time>2018-06-01T10:02:27Z</time>
      </trkpt>
      <trkpt lat="47.97913" lon="-3.53139">
        <ele>80.35</ele>
        <time>2018-06-01T10:02:28Z</time>
      </trkpt>
      <trkpt lat="47.97905" lon="-3.53167">
        <ele>80.3</ele>
        <time>2018-06-01T10:02:42Z</time>
      </trkpt>
      <trkpt lat="47.97891" lon="-3.53178">
        <ele>80.25</ele>
        <time>2018-06-01T10:02:52Z</time>
      </trkpt>
      <trkpt lat="47.97881" lon="-3.53218">
        <ele>80.37</ele>
        <time>2018-06-01T10:03:11Z</time>
      </trkpt>
      <trkpt lat="47.97877" lon="-3.53222">
        <ele>80.53</ele>
        <time>2018-06-01T10:03:14Z</time>
      </trkpt>
      <trkpt lat="47.9785" lon="-3.53241">
        <ele>80.59</ele>
        <time>2018-06-01T10:03:27Z</time>
      </trkpt>
      <trkpt lat="47.97836" lon="-3.53262">
        <ele>80.75</ele>
        <time>2018-06-01T10:03:39Z</time>
      </trkpt>
      <trkpt lat="47.97829" lon="-3.53267">
        <ele>80.77</ele>
        <time>2018-06-01T10:03:41Z</time>
      </trkpt>
      <trkpt lat="47.97819" lon="-3.53277">
        <ele>80.85</ele>
        <time>2018-06-01T10:03:45Z</time>
      </trkpt>
      <trkpt lat="47.97812" lon="-3.53299">
        <ele>80.66</ele>
        <time>2018-06-01T10:03:55Z</time>
      </trkpt>
      <trkpt lat="47.97801" lon="-3.53303">
        <ele>80.81</ele>
        <time>2018-06-01T10:04:06Z</time>
      </trkpt>
      <trkpt lat="47.97792" lon="-3.53301">
        <ele>80.85</ele>
        <time>2018-06-01T10:04:11Z</time>
      </trkpt>
      <trkpt lat="47.97786" lon="-3.533">
        <ele>80.86</ele>
        <time>2018-06-01T10:04:15Z</time>
      </trkpt>
      <trkpt lat="47.97775" lon="-3.53296">
        <ele>81.13</ele>
        <time>2018-06-01T10:04:24Z</time>
      </trkpt>
      <trkpt lat="47.97752" lon="-3.53301">
        <ele>79.61</ele>
        <time>2018-06-01T10:04:39Z</time>
      </trkpt>
      <trkpt lat="47.97752" lon="-3.53309">
        <ele>79.07</ele>
        <time>2018-06-01T10:04:50Z</time>
      </trkpt>
      <trkpt lat="47.9775" lon="-3.53321">
        <ele>79.43</ele>
        <time>2018-06-01T10:05:19Z</time>
      </trkpt>
      <trkpt lat="47.97748" lon="-3.53324">
        <ele>79.85</ele>
        <time>2018-06-01T10:05:26Z</time>
      </trkpt>
      <trkpt lat="47.9775" lon="-3.53331">
        <ele>79.96</ele>
        <time>2018-06-01T10:05:30Z</time>
      </trkpt>
      <trkpt lat="47.97768" lon="-3.53355">
        <ele>80.48</ele>
        <time>2018-06-01T10:05:45Z</time>
      </trkpt>
      <trkpt lat="47.9777" lon="-3.53358">
        <ele>80.47</ele>
        <time>2018-06-01T10:05:47Z</time>
      </trkpt>
      <trkpt lat="47.97775" lon="-3.5337">
        <ele>80.47</ele>
        <time>2018-06-01T10:05:52Z</time>
      </trkpt>
      <trkpt lat="47.97779" lon="-3.5338">
        <ele>80.77</ele>
        <time>2018-06-01T10:05:57Z</time>
      </trkpt>
      <trkpt lat="47.97789" lon="-3.53401">
        <ele>81.96</ele>
        <time>2018-06-01T10:06:08Z</time>
      </trkpt>
      <trkpt lat="47.9779" lon="-3.53429">
        <ele>84.96</ele>
        <time>2018-06-01T10:06:21Z</time>
      </trkpt>
      <trkpt lat="47.97783" lon="-3.53422">
        <ele>88.32</ele>
        <time>2018-06-01T10:06:35Z</time>
      </trkpt>
      <trkpt lat="47.97777" lon="-3.53416">
        <ele>89.03</ele>
        <time>2018-06-01T10:06:42Z</time>
      </trkpt>
      <trkpt lat="47.97762" lon="-3.53408">
        <ele>90.46</ele>
        <time>2018-06-01T10:06:54Z</time>
      </trkpt>
      <trkpt lat="47.97749" lon="-3.53405">
        <ele>93.2</ele>
        <time>2018-06-01T10:07:13Z</time>
      </trkpt>
      <trkpt lat="47.9773" lon="-3.5342">
        <ele>95.79</ele>
        <time>2018-06-01T10:07:30Z</time>
      </trkpt>
      <trkpt lat="47.97716" lon="-3.53445">
        <ele>98.08</ele>
        <time>2018-06-01T10:07:45Z</time>
      </trkpt>
      <trkpt lat="47.97689" lon="-3.53474">
        <ele>100.87</ele>
        <time>2018-06-01T10:07:59Z</time>
      </trkpt>
      <trkpt lat="47.97688" lon="-3.53488">
        <ele>102.64</ele>
        <time>2018-06-01T10:08:07Z</time>
      </trkpt>
      <trkpt lat="47.97697" lon="-3.53504">
        <ele>105.83</ele>
        <time>2018-06-01T10:08:20Z</time>
      </trkpt>
      <trkpt lat="47.977" lon="-3.53507">
        <ele>107.34</ele>
        <time>2018-06-01T10:08:27Z</time>
      </trkpt>
      <trkpt lat="47.9771" lon="-3.53517">
        <ele>108</ele>
        <time>2018-06-01T10:08:34Z</time>
      </trkpt>
      <trkpt lat="47.97721" lon="-3.53529">
        <ele>109.26</ele>
        <time>2018-06-01T10:08:43Z</time>
      </trkpt>
      <trkpt lat="47.97739" lon="-3.53555">
        <ele>110.08</ele>
        <time>2018-06-01T10:08:53Z</time>
      </trkpt>
      <trkpt lat="47.97741" lon="-3.5358">
        <ele>111.03</ele>
        <time>2018-06-01T10:08:59Z</time>
      </trkpt>
      <trkpt lat="47.97729" lon="-3.53611">
        <ele>111.4</ele>
        <time>2018-06-01T10:09:08Z</time>
      </trkpt>
      <trkpt lat="47.97725" lon="-3.53636">
        <ele>111.53</ele>
        <time>2018-06-01T10:09:13Z</time>
      </trkpt>
      <trkpt lat="47.97718" lon="-3.5368">
        <ele>112.19</ele>
        <time>2018-06-01T10:09:22Z</time>
      </trkpt>
      <trkpt lat="47.97708" lon="-3.53717">
        <ele>114.37</ele>
        <time>2018-06-01T10:09:32Z</time>
      </trkpt>
      <trkpt lat="47.97709" lon="-3.53731">
        <ele>114.83</ele>
        <time>2018-06-01T10:09:34Z</time>
      </trkpt>
      <trkpt lat="47.97708" lon="-3.53741">
        <ele>115.24</ele>
        <time>2018-06-01T10:09:36Z</time>
      </trkpt>
      <trkpt lat="47.97706" lon="-3.53765">
        <ele>116.12</ele>
        <time>2018-06-01T10:09:40Z</time>
      </trkpt>
      <trkpt lat="47.97683" lon="-3.5382">
        <ele>117.86</ele>
        <time>2018-06-01T10:09:52Z</time>
      </trkpt>
      <trkpt lat="47.97665" lon="-3.53849">
        <ele>118.42</ele>
        <time>2018-06-01T10:09:58Z</time>
      </trkpt>
      <trkpt lat="47.97662" lon="-3.53854">
        <ele>118.53</ele>
        <time>2018-06-01T10:09:59Z</time>
      </trkpt>
      <trkpt lat="47.97659" lon="-3.5386">
        <ele>118.64</ele>
        <time>2018-06-01T10:10:00Z</time>
      </trkpt>
      <trkpt lat="47.97657" lon="-3.53866">
        <ele>118.74</ele>
        <time>2018-06-01T10:10:01Z</time>
      </trkpt>
      <trkpt lat="47.97652" lon="-3.53871">
        <ele>118.81</ele>
        <time>2018-06-01T10:10:02Z</time>
      </trkpt>
      <trkpt lat="47.9764" lon="-3.53892">
        <ele>119.11</ele>
        <time>2018-06-01T10:10:05Z</time>
      </trkpt>
      <trkpt lat="47.97637" lon="-3.539">
        <ele>119.22</ele>
        <time>2018-06-01T10:10:06Z</time>
      </trkpt>
      <trkpt lat="47.97618" lon="-3.53939">
        <ele>120.17</ele>
        <time>2018-06-01T10:10:11Z</time>
      </trkpt>
      <trkpt lat="47.97616" lon="-3.53946">
        <ele>120.49</ele>
        <time>2018-06-01T10:10:12Z</time>
      </trkpt>
      <trkpt lat="47.97612" lon="-3.53975">
        <ele>122.34</ele>
        <time>2018-06-01T10:10:16Z</time>
      </trkpt>
      <trkpt lat="47.9761" lon="-3.5398">
        <ele>122.94</ele>
        <time>2018-06-01T10:10:17Z</time>
      </trkpt>
      <trkpt lat="47.97608" lon="-3.53982">
        <ele>124.2</ele>
        <time>2018-06-01T10:10:18Z</time>
      </trkpt>
      <trkpt lat="47.97607" lon="-3.53984">
        <ele>124.89</ele>
        <time>2018-06-01T10:10:19Z</time>
      </trkpt>
      <trkpt lat="47.97605" lon="-3.53985">
        <ele>125.65</ele>
        <time>2018-06-01T10:10:20Z</time>
      </trkpt>
      <trkpt lat="47.97589" lon="-3.53984">
        <ele>129.05</ele>
        <time>2018-06-01T10:10:25Z</time>
      </trkpt>
      <trkpt lat="47.97568" lon="-3.5399">
        <ele>132.18</ele>
        <time>2018-06-01T10:10:36Z</time>
      </trkpt>
      <trkpt lat="47.97567" lon="-3.53991">
        <ele>132.32</ele>
        <time>2018-06-01T10:10:37Z</time>
      </trkpt>
      <trkpt lat="47.97566" lon="-3.53992">
        <ele>132.43</ele>
        <time>2018-06-01T10:10:38Z</time>
      </trkpt>
      <trkpt lat="47.97564" lon="-3.53993">
        <ele>132.55</ele>
        <time>2018-06-01T10:10:39Z</time>
      </trkpt>
      <trkpt lat="47.97564" lon="-3.53995">
        <ele>132.63</ele>
        <time>2018-06-01T10:10:40Z</time>
      </trkpt>
      <trkpt lat="47.97563" lon="-3.53997">
        <ele>132.7</ele>
        <time>2018-06-01T10:10:41Z</time>
      </trkpt>
      <trkpt lat="47.9756" lon="-3.54005">
        <ele>133.03</ele>
        <time>2018-06-01T10:10:45Z</time>
      </trkpt>
      <trkpt lat="47.97559" lon="-3.54008">
        <ele>133.06</ele>
        <time>2018-06-01T10:10:46Z</time>
      </trkpt>
      <trkpt lat="47.97559" lon="-3.5401">
        <ele>133.09</ele>
        <time>2018-06-01T10:10:47Z</time>
      </trkpt>
      <trkpt lat="47.97559" lon="-3.54012">
        <ele>133.12</ele>
        <time>2018-06-01T10:10:48Z</time>
      </trkpt>
      <trkpt lat="47.97558" lon="-3.54014">
        <ele>133.13</ele>
        <time>2018-06-01T10:10:49Z</time>
      </trkpt>
      <trkpt lat="47.97549" lon="-3.54049">
        <ele>133.83</ele>
        <time>2018-06-01T10:11:03Z</time>
      </trkpt>
      <trkpt lat="47.97547" lon="-3.54055">
        <ele>133.91</ele>
        <time>2018-06-01T10:11:06Z</time>
      </trkpt>
      <trkpt lat="47.97543" lon="-3.54072">
        <ele>134.07</ele>
        <time>2018-06-01T10:11:14Z</time>
      </trkpt>
      <trkpt lat="47.97538" lon="-3.54103">
        <ele>133.93</ele>
        <time>2018-06-01T10:11:26Z</time>
      </trkpt>
      <trkpt lat="47.97535" lon="-3.54114">
        <ele>133.92</ele>
        <time>2018-06-01T10:11:31Z</time>
      </trkpt>
      <trkpt lat="47.97534" lon="-3.54117">
        <ele>133.92</ele>
        <time>2018-06-01T10:11:32Z</time>
      </trkpt>
      <trkpt lat="47.97533" lon="-3.5412">
        <ele>133.92</ele>
        <time>2018-06-01T10:11:33Z</time>
      </trkpt>
      <trkpt lat="47.97523" lon="-3.54149">
        <ele>133.72</ele>
        <time>2018-06-01T10:11:46Z</time>
      </trkpt>
      <trkpt lat="47.97522" lon="-3.54151">
        <ele>133.66</ele>
        <time>2018-06-01T10:11:47Z</time>
      </trkpt>
      <trkpt lat="47.97521" lon="-3.54153">
        <ele>133.6</ele>
        <time>2018-06-01T10:11:48Z</time>
      </trkpt>
      <trkpt lat="47.97507" lon="-3.54201">
        <ele>133.77</ele>
        <time>2018-06-01T10:12:09Z</time>
      </trkpt>
      <trkpt lat="47.97498" lon="-3.54246">
        <ele>133.79</ele>
        <time>2018-06-01T10:12:28Z</time>
      </trkpt>
      <trkpt lat="47.97482" lon="-3.54275">
        <ele>133.56</ele>
        <time>2018-06-01T10:12:44Z</time>
      </trkpt>
      <trkpt lat="47.97456" lon="-3.54286">
        <ele>133.17</ele>
        <time>2018-06-01T10:12:55Z</time>
      </trkpt>
      <trkpt lat="47.97437" lon="-3.54301">
        <ele>132.68</ele>
        <time>2018-06-01T10:13:10Z</time>
      </trkpt>
      <trkpt lat="47.97431" lon="-3.54306">
        <ele>132.93</ele>
        <time>2018-06-01T10:13:17Z</time>
      </trkpt>
      <trkpt lat="47.97429" lon="-3.54306">
        <ele>133.09</ele>
        <time>2018-06-01T10:13:18Z</time>
      </trkpt>
      <trkpt lat="47.97429" lon="-3.54307">
        <ele>133.21</ele>
        <time>2018-06-01T10:13:19Z</time>
      </trkpt>
      <trkpt lat="47.97416" lon="-3.54326">
        <ele>133.79</ele>
        <time>2018-06-01T10:13:35Z</time>
      </trkpt>
      <trkpt lat="47.97401" lon="-3.54348">
        <ele>133.83</ele>
        <time>2018-06-01T10:13:47Z</time>
      </trkpt>
      <trkpt lat="47.97378" lon="-3.54369">
        <ele>134.14</ele>
        <time>2018-06-01T10:14:00Z</time>
      </trkpt>
      <trkpt lat="47.97351" lon="-3.54381">
        <ele>134.63</ele>
        <time>2018-06-01T10:14:14Z</time>
      </trkpt>
      <trkpt lat="47.97329" lon="-3.54391">
        <ele>135.4</ele>
        <time>2018-06-01T10:14:29Z</time>
      </trkpt>
      <trkpt lat="47.97311" lon="-3.54399">
        <ele>136.24</ele>
        <time>2018-06-01T10:14:42Z</time>
      </trkpt>
      <trkpt lat="47.97307" lon="-3.54399">
        <ele>136.43</ele>
        <time>2018-06-01T10:14:45Z</time>
      </trkpt>
      <trkpt lat="47.97291" lon="-3.54405">
        <ele>137.82</ele>
        <time>2018-06-01T10:14:59Z</time>
      </trkpt>
      <trkpt lat="47.97268" lon="-3.54414">
        <ele>138.93</ele>
        <time>2018-06-01T10:15:13Z</time>
      </trkpt>
      <trkpt lat="47.97242" lon="-3.54422">
        <ele>140.77</ele>
        <time>2018-06-01T10:15:28Z</time>
      </trkpt>
      <trkpt lat="47.97234" lon="-3.54425">
        <ele>141.2</ele>
        <time>2018-06-01T10:15:32Z</time>
      </trkpt>
      <trkpt lat="47.97232" lon="-3.54425">
        <ele>141.31</ele>
        <time>2018-06-01T10:15:33Z</time>
      </trkpt>
      <trkpt lat="47.9723" lon="-3.54426">
        <ele>141.4</ele>
        <time>2018-06-01T10:15:34Z</time>
      </trkpt>
      <trkpt lat="47.97197" lon="-3.54432">
        <ele>142.9</ele>
        <time>2018-06-01T10:15:51Z</time>
      </trkpt>
      <trkpt lat="47.9717" lon="-3.54432">
        <ele>143.81</ele>
        <time>2018-06-01T10:16:08Z</time>
      </trkpt>
      <trkpt lat="47.97149" lon="-3.54431">
        <ele>144.3</ele>
        <time>2018-06-01T10:16:21Z</time>
      </trkpt>
      <trkpt lat="47.9713" lon="-3.54431">
        <ele>144.4</ele>
        <time>2018-06-01T10:16:34Z</time>
      </trkpt>
      <trkpt lat="47.97106" lon="-3.5444">
        <ele>143.56</ele>
        <time>2018-06-01T10:16:49Z</time>
      </trkpt>
      <trkpt lat="47.97093" lon="-3.54446">
        <ele>143.09</ele>
        <time>2018-06-01T10:16:58Z</time>
      </trkpt>
      <trkpt lat="47.97091" lon="-3.54446">
        <ele>143.06</ele>
        <time>2018-06-01T10:16:59Z</time>
      </trkpt>
      <trkpt lat="47.97089" lon="-3.54446">
        <ele>143.04</ele>
        <time>2018-06-01T10:17:00Z</time>
      </trkpt>
      <trkpt lat="47.97088" lon="-3.54447">
        <ele>143.02</ele>
        <time>2018-06-01T10:17:01Z</time>
      </trkpt>
      <trkpt lat="47.97086" lon="-3.54446">
        <ele>142.99</ele>
        <time>2018-06-01T10:17:02Z</time>
      </trkpt>
      <trkpt lat="47.97073" lon="-3.5445">
        <ele>142.52</ele>
        <time>2018-06-01T10:17:14Z</time>
      </trkpt>
      <trkpt lat="47.97053" lon="-3.5446">
        <ele>142.33</ele>
        <time>2018-06-01T10:17:26Z</time>
      </trkpt>
      <trkpt lat="47.97036" lon="-3.54469">
        <ele>142.18</ele>
        <time>2018-06-01T10:17:38Z</time>
      </trkpt>
      <trkpt lat="47.97033" lon="-3.5447">
        <ele>142.05</ele>
        <time>2018-06-01T10:17:40Z</time>
      </trkpt>
      <trkpt lat="47.97023" lon="-3.54467">
        <ele>141.52</ele>
        <time>2018-06-01T10:17:48Z</time>
      </trkpt>
      <trkpt lat="47.97022" lon="-3.54467">
        <ele>141.44</ele>
        <time>2018-06-01T10:17:49Z</time>
      </trkpt>
      <trkpt lat="47.9702" lon="-3.54466">
        <ele>141.36</ele>
        <time>2018-06-01T10:17:50Z</time>
      </trkpt>
      <trkpt lat="47.96997" lon="-3.54465">
        <ele>140.51</ele>
        <time>2018-06-01T10:18:04Z</time>
      </trkpt>
      <trkpt lat="47.9698" lon="-3.54468">
        <ele>139.75</ele>
        <time>2018-06-01T10:18:16Z</time>
      </trkpt>
      <trkpt lat="47.96967" lon="-3.54479">
        <ele>140</ele>
        <time>2018-06-01T10:18:28Z</time>
      </trkpt>
      <trkpt lat="47.96953" lon="-3.54505">
        <ele>141.56</ele>
        <time>2018-06-01T10:18:41Z</time>
      </trkpt>
      <trkpt lat="47.96939" lon="-3.54523">
        <ele>141.67</ele>
        <time>2018-06-01T10:18:51Z</time>
      </trkpt>
      <trkpt lat="47.96938" lon="-3.54523">
        <ele>141.67</ele>
        <time>2018-06-01T10:18:52Z</time>
      </trkpt>
      <trkpt lat="47.96936" lon="-3.54524">
        <ele>141.67</ele>
        <time>2018-06-01T10:18:53Z</time>
      </trkpt>
      <trkpt lat="47.96914" lon="-3.54547">
        <ele>140.65</ele>
        <time>2018-06-01T10:19:08Z</time>
      </trkpt>
      <trkpt lat="47.96905" lon="-3.54556">
        <ele>140.13</ele>
        <time>2018-06-01T10:19:14Z</time>
      </trkpt>
      <trkpt lat="47.96885" lon="-3.54564">
        <ele>139.32</ele>
        <time>2018-06-01T10:19:28Z</time>
      </trkpt>
      <trkpt lat="47.96884" lon="-3.54565">
        <ele>139.3</ele>
        <time>2018-06-01T10:19:29Z</time>
      </trkpt>
      <trkpt lat="47.96883" lon="-3.54565">
        <ele>139.28</ele>
        <time>2018-06-01T10:19:30Z</time>
      </trkpt>
      <trkpt lat="47.96881" lon="-3.54566">
        <ele>139.28</ele>
        <time>2018-06-01T10:19:31Z</time>
      </trkpt>
      <trkpt lat="47.9688" lon="-3.54567">
        <ele>139.3</ele>
        <time>2018-06-01T10:19:32Z</time>
      </trkpt>
      <trkpt lat="47.96878" lon="-3.54569">
        <ele>139.32</ele>
        <time>2018-06-01T10:19:33Z</time>
      </trkpt>
      <trkpt lat="47.96856" lon="-3.54589">
        <ele>139.36</ele>
        <time>2018-06-01T10:19:47Z</time>
      </trkpt>
      <trkpt lat="47.96837" lon="-3.54614">
        <ele>139.71</ele>
        <time>2018-06-01T10:20:02Z</time>
      </trkpt>
      <trkpt lat="47.96815" lon="-3.54639">
        <ele>139.95</ele>
        <time>2018-06-01T10:20:18Z</time>
      </trkpt>
      <trkpt lat="47.96795" lon="-3.54661">
        <ele>140.7</ele>
        <time>2018-06-01T10:20:33Z</time>
      </trkpt>
      <trkpt lat="47.96778" lon="-3.5468">
        <ele>141.21</ele>
        <time>2018-06-01T10:20:46Z</time>
      </trkpt>
      <trkpt lat="47.96762" lon="-3.54699">
        <ele>142.05</ele>
        <time>2018-06-01T10:20:59Z</time>
      </trkpt>
      <trkpt lat="47.96742" lon="-3.54722">
        <ele>143.04</ele>
        <time>2018-06-01T10:21:14Z</time>
      </trkpt>
      <trkpt lat="47.96734" lon="-3.54732">
        <ele>143.64</ele>
        <time>2018-06-01T10:21:21Z</time>
      </trkpt>
      <trkpt lat="47.96733" lon="-3.54733">
        <ele>143.72</ele>
        <time>2018-06-01T10:21:22Z</time>
      </trkpt>
      <trkpt lat="47.96733" lon="-3.54735">
        <ele>143.78</ele>
        <time>2018-06-01T10:21:23Z</time>
      </trkpt>
      <trkpt lat="47.96732" lon="-3.54736">
        <ele>143.86</ele>
        <time>2018-06-01T10:21:24Z</time>
      </trkpt>
      <trkpt lat="47.96731" lon="-3.54738">
        <ele>143.93</ele>
        <time>2018-06-01T10:21:25Z</time>
      </trkpt>
      <trkpt lat="47.9673" lon="-3.54739">
        <ele>144.01</ele>
        <time>2018-06-01T10:21:26Z</time>
      </trkpt>
      <trkpt lat="47.9673" lon="-3.54741">
        <ele>144.13</ele>
        <time>2018-06-01T10:21:27Z</time>
      </trkpt>
      <trkpt lat="47.96729" lon="-3.54743">
        <ele>144.28</ele>
        <time>2018-06-01T10:21:28Z</time>
      </trkpt>
      <trkpt lat="47.96729" lon="-3.54745">
        <ele>144.43</ele>
        <time>2018-06-01T10:21:29Z</time>
      </trkpt>
      <trkpt lat="47.96729" lon="-3.54747">
        <ele>144.58</ele>
        <time>2018-06-01T10:21:30Z</time>
      </trkpt>
      <trkpt lat="47.96728" lon="-3.54753">
        <ele>145.04</ele>
        <time>2018-06-01T10:21:34Z</time>
      </trkpt>
      <trkpt lat="47.96723" lon="-3.54789">
        <ele>145.54</ele>
        <time>2018-06-01T10:21:50Z</time>
      </trkpt>
      <trkpt lat="47.96712" lon="-3.54824">
        <ele>144.57</ele>
        <time>2018-06-01T10:22:06Z</time>
      </trkpt>
      <trkpt lat="47.96693" lon="-3.54865">
        <ele>143.51</ele>
        <time>2018-06-01T10:22:25Z</time>
      </trkpt>
      <trkpt lat="47.96675" lon="-3.54905">
        <ele>143.03</ele>
        <time>2018-06-01T10:22:44Z</time>
      </trkpt>
      <trkpt lat="47.96664" lon="-3.54938">
        <ele>142.49</ele>
        <time>2018-06-01T10:23:00Z</time>
      </trkpt>
      <trkpt lat="47.96649" lon="-3.54979">
        <ele>143.39</ele>
        <time>2018-06-01T10:23:20Z</time>
      </trkpt>
      <trkpt lat="47.9664" lon="-3.55004">
        <ele>143.82</ele>
        <time>2018-06-01T10:23:33Z</time>
      </trkpt>
      <trkpt lat="47.96628" lon="-3.55027">
        <ele>143.88</ele>
        <time>2018-06-01T10:23:46Z</time>
      </trkpt>
      <trkpt lat="47.9661" lon="-3.55049">
        <ele>143.51</ele>
        <time>2018-06-01T10:24:00Z</time>
      </trkpt>
      <trkpt lat="47.96599" lon="-3.55067">
        <ele>143.13</ele>
        <time>2018-06-01T10:24:11Z</time>
      </trkpt>
      <trkpt lat="47.96581" lon="-3.5509">
        <ele>143.43</ele>
        <time>2018-06-01T10:24:25Z</time>
      </trkpt>
      <trkpt lat="47.96563" lon="-3.55115">
        <ele>143.59</ele>
        <time>2018-06-01T10:24:40Z</time>
      </trkpt>
      <trkpt lat="47.96548" lon="-3.55137">
        <ele>144.28</ele>
        <time>2018-06-01T10:24:55Z</time>
      </trkpt>
      <trkpt lat="47.9653" lon="-3.55145">
        <ele>144.32</ele>
        <time>2018-06-01T10:25:09Z</time>
      </trkpt>
      <trkpt lat="47.96518" lon="-3.55106">
        <ele>143.62</ele>
        <time>2018-06-01T10:25:29Z</time>
      </trkpt>
      <trkpt lat="47.96512" lon="-3.55059">
        <ele>142.33</ele>
        <time>2018-06-01T10:25:49Z</time>
      </trkpt>
      <trkpt lat="47.96512" lon="-3.55017">
        <ele>141.08</ele>
        <time>2018-06-01T10:26:06Z</time>
      </trkpt>
      <trkpt lat="47.96507" lon="-3.55009">
        <ele>140.86</ele>
        <time>2018-06-01T10:26:12Z</time>
      </trkpt>
      <trkpt lat="47.96506" lon="-3.55009">
        <ele>140.83</ele>
        <time>2018-06-01T10:26:13Z</time>
      </trkpt>
      <trkpt lat="47.9648" lon="-3.55022">
        <ele>142.43</ele>
        <time>2018-06-01T10:26:30Z</time>
      </trkpt>
      <trkpt lat="47.96444" lon="-3.55042">
        <ele>143.01</ele>
        <time>2018-06-01T10:26:52Z</time>
      </trkpt>
      <trkpt lat="47.96415" lon="-3.5506">
        <ele>142.43</ele>
        <time>2018-06-01T10:27:10Z</time>
      </trkpt>
      <trkpt lat="47.96391" lon="-3.5509">
        <ele>141.98</ele>
        <time>2018-06-01T10:27:29Z</time>
      </trkpt>
      <trkpt lat="47.9637" lon="-3.55115">
        <ele>142.68</ele>
        <time>2018-06-01T10:27:46Z</time>
      </trkpt>
      <trkpt lat="47.96347" lon="-3.55142">
        <ele>143.43</ele>
        <time>2018-06-01T10:28:05Z</time>
      </trkpt>
      <trkpt lat="47.96327" lon="-3.55163">
        <ele>144.34</ele>
        <time>2018-06-01T10:28:21Z</time>
      </trkpt>
      <trkpt lat="47.96305" lon="-3.55174">
        <ele>144.34</ele>
        <time>2018-06-01T10:28:36Z</time>
      </trkpt>
      <trkpt lat="47.9628" lon="-3.55185">
        <ele>143.49</ele>
        <time>2018-06-01T10:28:54Z</time>
      </trkpt>
      <trkpt lat="47.96269" lon="-3.55198">
        <ele>142.12</ele>
        <time>2018-06-01T10:29:05Z</time>
      </trkpt>
      <trkpt lat="47.96268" lon="-3.552">
        <ele>142.04</ele>
        <time>2018-06-01T10:29:06Z</time>
      </trkpt>
      <trkpt lat="47.96268" lon="-3.55203">
        <ele>141.96</ele>
        <time>2018-06-01T10:29:07Z</time>
      </trkpt>
      <trkpt lat="47.96265" lon="-3.55209">
        <ele>141.76</ele>
        <time>2018-06-01T10:29:11Z</time>
      </trkpt>
      <trkpt lat="47.96264" lon="-3.55211">
        <ele>141.72</ele>
        <time>2018-06-01T10:29:12Z</time>
      </trkpt>
      <trkpt lat="47.96264" lon="-3.55213">
        <ele>141.68</ele>
        <time>2018-06-01T10:29:13Z</time>
      </trkpt>
      <trkpt lat="47.96263" lon="-3.55215">
        <ele>141.65</ele>
        <time>2018-06-01T10:29:14Z</time>
      </trkpt>
      <trkpt lat="47.96262" lon="-3.55217">
        <ele>141.63</ele>
        <time>2018-06-01T10:29:15Z</time>
      </trkpt>
      <trkpt lat="47.96261" lon="-3.55218">
        <ele>141.62</ele>
        <time>2018-06-01T10:29:16Z</time>
      </trkpt>
      <trkpt lat="47.9626" lon="-3.5522">
        <ele>141.61</ele>
        <time>2018-06-01T10:29:17Z</time>
      </trkpt>
      <trkpt lat="47.9626" lon="-3.55221">
        <ele>141.59</ele>
        <time>2018-06-01T10:29:18Z</time>
      </trkpt>
      <trkpt lat="47.96249" lon="-3.55236">
        <ele>139.57</ele>
        <time>2018-06-01T10:29:32Z</time>
      </trkpt>
      <trkpt lat="47.96244" lon="-3.55239">
        <ele>138.71</ele>
        <time>2018-06-01T10:29:37Z</time>
      </trkpt>
      <trkpt lat="47.9624" lon="-3.55243">
        <ele>137.93</ele>
        <time>2018-06-01T10:29:41Z</time>
      </trkpt>
      <trkpt lat="47.96239" lon="-3.55245">
        <ele>137.74</ele>
        <time>2018-06-01T10:29:42Z</time>
      </trkpt>
      <trkpt lat="47.96229" lon="-3.55256">
        <ele>136.09</ele>
        <time>2018-06-01T10:29:51Z</time>
      </trkpt>
      <trkpt lat="47.96228" lon="-3.55257">
        <ele>135.97</ele>
        <time>2018-06-01T10:29:52Z</time>
      </trkpt>
      <trkpt lat="47.96226" lon="-3.55258">
        <ele>135.86</ele>
        <time>2018-06-01T10:29:53Z</time>
      </trkpt>
      <trkpt lat="47.96224" lon="-3.55259">
        <ele>135.7</ele>
        <time>2018-06-01T10:29:54Z</time>
      </trkpt>
      <trkpt lat="47.96223" lon="-3.55261">
        <ele>135.64</ele>
        <time>2018-06-01T10:29:55Z</time>
      </trkpt>
      <trkpt lat="47.96203" lon="-3.55285">
        <ele>135.22</ele>
        <time>2018-06-01T10:30:08Z</time>
      </trkpt>
      <trkpt lat="47.96187" lon="-3.55301">
        <ele>134.49</ele>
        <time>2018-06-01T10:30:20Z</time>
      </trkpt>
      <trkpt lat="47.96184" lon="-3.55303">
        <ele>134.37</ele>
        <time>2018-06-01T10:30:22Z</time>
      </trkpt>
      <trkpt lat="47.96182" lon="-3.55306">
        <ele>134.31</ele>
        <time>2018-06-01T10:30:23Z</time>
      </trkpt>
      <trkpt lat="47.9618" lon="-3.55308">
        <ele>134.28</ele>
        <time>2018-06-01T10:30:24Z</time>
      </trkpt>
      <trkpt lat="47.96179" lon="-3.5531">
        <ele>134.26</ele>
        <time>2018-06-01T10:30:25Z</time>
      </trkpt>
      <trkpt lat="47.96178" lon="-3.55311">
        <ele>134.25</ele>
        <time>2018-06-01T10:30:26Z</time>
      </trkpt>
      <trkpt lat="47.96176" lon="-3.55312">
        <ele>134.24</ele>
        <time>2018-06-01T10:30:27Z</time>
      </trkpt>
      <trkpt lat="47.96174" lon="-3.55313">
        <ele>134.21</ele>
        <time>2018-06-01T10:30:28Z</time>
      </trkpt>
      <trkpt lat="47.96173" lon="-3.55314">
        <ele>134.15</ele>
        <time>2018-06-01T10:30:29Z</time>
      </trkpt>
      <trkpt lat="47.96171" lon="-3.55315">
        <ele>134.07</ele>
        <time>2018-06-01T10:30:30Z</time>
      </trkpt>
      <trkpt lat="47.96164" lon="-3.55319">
        <ele>133.63</ele>
        <time>2018-06-01T10:30:34Z</time>
      </trkpt>
      <trkpt lat="47.96163" lon="-3.5532">
        <ele>133.58</ele>
        <time>2018-06-01T10:30:35Z</time>
      </trkpt>
      <trkpt lat="47.96142" lon="-3.55337">
        <ele>133.4</ele>
        <time>2018-06-01T10:30:47Z</time>
      </trkpt>
      <trkpt lat="47.96115" lon="-3.5535">
        <ele>132.85</ele>
        <time>2018-06-01T10:30:56Z</time>
      </trkpt>
      <trkpt lat="47.96075" lon="-3.55374">
        <ele>132.26</ele>
        <time>2018-06-01T10:31:07Z</time>
      </trkpt>
      <trkpt lat="47.9605" lon="-3.5539">
        <ele>132.6</ele>
        <time>2018-06-01T10:31:20Z</time>
      </trkpt>
      <trkpt lat="47.96033" lon="-3.55397">
        <ele>132.62</ele>
        <time>2018-06-01T10:31:32Z</time>
      </trkpt>
      <trkpt lat="47.96031" lon="-3.55398">
        <ele>132.62</ele>
        <time>2018-06-01T10:31:33Z</time>
      </trkpt>
      <trkpt lat="47.9603" lon="-3.554">
        <ele>132.65</ele>
        <time>2018-06-01T10:31:34Z</time>
      </trkpt>
      <trkpt lat="47.96029" lon="-3.55401">
        <ele>132.68</ele>
        <time>2018-06-01T10:31:35Z</time>
      </trkpt>
      <trkpt lat="47.96028" lon="-3.55403">
        <ele>132.71</ele>
        <time>2018-06-01T10:31:36Z</time>
      </trkpt>
      <trkpt lat="47.96027" lon="-3.55404">
        <ele>132.72</ele>
        <time>2018-06-01T10:31:37Z</time>
      </trkpt>
      <trkpt lat="47.96019" lon="-3.5541">
        <ele>132.48</ele>
        <time>2018-06-01T10:31:43Z</time>
      </trkpt>
      <trkpt lat="47.96018" lon="-3.5541">
        <ele>132.41</ele>
        <time>2018-06-01T10:31:44Z</time>
      </trkpt>
      <trkpt lat="47.95999" lon="-3.55425">
        <ele>131.74</ele>
        <time>2018-06-01T10:31:58Z</time>
      </trkpt>
      <trkpt lat="47.95994" lon="-3.55429">
        <ele>131.57</ele>
        <time>2018-06-01T10:32:02Z</time>
      </trkpt>
      <trkpt lat="47.95992" lon="-3.5543">
        <ele>131.5</ele>
        <time>2018-06-01T10:32:03Z</time>
      </trkpt>
      <trkpt lat="47.95975" lon="-3.55439">
        <ele>130.83</ele>
        <time>2018-06-01T10:32:15Z</time>
      </trkpt>
      <trkpt lat="47.95954" lon="-3.5545">
        <ele>130.16</ele>
        <time>2018-06-01T10:32:30Z</time>
      </trkpt>
      <trkpt lat="47.95932" lon="-3.55455">
        <ele>129.86</ele>
        <time>2018-06-01T10:32:44Z</time>
      </trkpt>
      <trkpt lat="47.95914" lon="-3.55458">
        <ele>129.65</ele>
        <time>2018-06-01T10:32:55Z</time>
      </trkpt>
      <trkpt lat="47.95909" lon="-3.55458">
        <ele>129.71</ele>
        <time>2018-06-01T10:32:58Z</time>
      </trkpt>
      <trkpt lat="47.95908" lon="-3.55459">
        <ele>129.74</ele>
        <time>2018-06-01T10:32:59Z</time>
      </trkpt>
      <trkpt lat="47.95892" lon="-3.55461">
        <ele>129.94</ele>
        <time>2018-06-01T10:33:10Z</time>
      </trkpt>
      <trkpt lat="47.95868" lon="-3.55462">
        <ele>131.19</ele>
        <time>2018-06-01T10:33:28Z</time>
      </trkpt>
      <trkpt lat="47.95866" lon="-3.55462">
        <ele>131.31</ele>
        <time>2018-06-01T10:33:29Z</time>
      </trkpt>
      <trkpt lat="47.95851" lon="-3.55467">
        <ele>132.2</ele>
        <time>2018-06-01T10:33:37Z</time>
      </trkpt>
      <trkpt lat="47.95849" lon="-3.55467">
        <ele>132.29</ele>
        <time>2018-06-01T10:33:38Z</time>
      </trkpt>
      <trkpt lat="47.95847" lon="-3.55468">
        <ele>132.36</ele>
        <time>2018-06-01T10:33:39Z</time>
      </trkpt>
      <trkpt lat="47.95846" lon="-3.55468">
        <ele>132.42</ele>
        <time>2018-06-01T10:33:40Z</time>
      </trkpt>
      <trkpt lat="47.95844" lon="-3.55468">
        <ele>132.48</ele>
        <time>2018-06-01T10:33:41Z</time>
      </trkpt>
      <trkpt lat="47.95842" lon="-3.55467">
        <ele>132.55</ele>
        <time>2018-06-01T10:33:42Z</time>
      </trkpt>
      <trkpt lat="47.95839" lon="-3.55468">
        <ele>132.63</ele>
        <time>2018-06-01T10:33:43Z</time>
      </trkpt>
      <trkpt lat="47.95836" lon="-3.55468">
        <ele>132.71</ele>
        <time>2018-06-01T10:33:44Z</time>
      </trkpt>
      <trkpt lat="47.95824" lon="-3.55464">
        <ele>133.19</ele>
        <time>2018-06-01T10:33:52Z</time>
      </trkpt>
      <trkpt lat="47.95823" lon="-3.55463">
        <ele>133.22</ele>
        <time>2018-06-01T10:33:53Z</time>
      </trkpt>
      <trkpt lat="47.95822" lon="-3.55462">
        <ele>133.24</ele>
        <time>2018-06-01T10:33:54Z</time>
      </trkpt>
      <trkpt lat="47.9582" lon="-3.55462">
        <ele>133.24</ele>
        <time>2018-06-01T10:33:55Z</time>
      </trkpt>
      <trkpt lat="47.95819" lon="-3.55461">
        <ele>133.23</ele>
        <time>2018-06-01T10:33:56Z</time>
      </trkpt>
      <trkpt lat="47.95818" lon="-3.55459">
        <ele>133.22</ele>
        <time>2018-06-01T10:33:57Z</time>
      </trkpt>
      <trkpt lat="47.95816" lon="-3.55458">
        <ele>133.22</ele>
        <time>2018-06-01T10:33:58Z</time>
      </trkpt>
      <trkpt lat="47.95815" lon="-3.55457">
        <ele>133.21</ele>
        <time>2018-06-01T10:33:59Z</time>
      </trkpt>
      <trkpt lat="47.95814" lon="-3.55456">
        <ele>133.19</ele>
        <time>2018-06-01T10:34:00Z</time>
      </trkpt>
      <trkpt lat="47.95813" lon="-3.55454">
        <ele>133.15</ele>
        <time>2018-06-01T10:34:01Z</time>
      </trkpt>
      <trkpt lat="47.95812" lon="-3.55454">
        <ele>133.13</ele>
        <time>2018-06-01T10:34:02Z</time>
      </trkpt>
      <trkpt lat="47.9581" lon="-3.55453">
        <ele>133.1</ele>
        <time>2018-06-01T10:34:03Z</time>
      </trkpt>
      <trkpt lat="47.95809" lon="-3.55452">
        <ele>133.07</ele>
        <time>2018-06-01T10:34:04Z</time>
      </trkpt>
      <trkpt lat="47.95808" lon="-3.55451">
        <ele>133.03</ele>
        <time>2018-06-01T10:34:05Z</time>
      </trkpt>
      <trkpt lat="47.95806" lon="-3.5545">
        <ele>132.99</ele>
        <time>2018-06-01T10:34:06Z</time>
      </trkpt>
      <trkpt lat="47.95789" lon="-3.55438">
        <ele>132.62</ele>
        <time>2018-06-01T10:34:18Z</time>
      </trkpt>
      <trkpt lat="47.95765" lon="-3.55417">
        <ele>131.65</ele>
        <time>2018-06-01T10:34:35Z</time>
      </trkpt>
      <trkpt lat="47.95737" lon="-3.55383">
        <ele>130.33</ele>
        <time>2018-06-01T10:34:56Z</time>
      </trkpt>
      <trkpt lat="47.95732" lon="-3.55378">
        <ele>130.1</ele>
        <time>2018-06-01T10:35:07Z</time>
      </trkpt>
      <trkpt lat="47.95731" lon="-3.55377">
        <ele>130.07</ele>
        <time>2018-06-01T10:35:08Z</time>
      </trkpt>
      <trkpt lat="47.9573" lon="-3.55376">
        <ele>130.02</ele>
        <time>2018-06-01T10:35:09Z</time>
      </trkpt>
      <trkpt lat="47.95729" lon="-3.55375">
        <ele>129.96</ele>
        <time>2018-06-01T10:35:10Z</time>
      </trkpt>
      <trkpt lat="47.95728" lon="-3.55374">
        <ele>129.9</ele>
        <time>2018-06-01T10:35:11Z</time>
      </trkpt>
      <trkpt lat="47.95702" lon="-3.55353">
        <ele>129.18</ele>
        <time>2018-06-01T10:35:30Z</time>
      </trkpt>
      <trkpt lat="47.95694" lon="-3.55348">
        <ele>128.86</ele>
        <time>2018-06-01T10:35:43Z</time>
      </trkpt>
      <trkpt lat="47.9569" lon="-3.55338">
        <ele>128.6</ele>
        <time>2018-06-01T10:35:56Z</time>
      </trkpt>
      <trkpt lat="47.95688" lon="-3.55338">
        <ele>128.3</ele>
        <time>2018-06-01T10:36:07Z</time>
      </trkpt>
      <trkpt lat="47.95684" lon="-3.55337">
        <ele>128.27</ele>
        <time>2018-06-01T10:36:10Z</time>
      </trkpt>
      <trkpt lat="47.95683" lon="-3.55336">
        <ele>128.26</ele>
        <time>2018-06-01T10:36:11Z</time>
      </trkpt>
      <trkpt lat="47.95682" lon="-3.55335">
        <ele>128.27</ele>
        <time>2018-06-01T10:36:12Z</time>
      </trkpt>
      <trkpt lat="47.9568" lon="-3.55334">
        <ele>128.26</ele>
        <time>2018-06-01T10:36:13Z</time>
      </trkpt>
      <trkpt lat="47.95679" lon="-3.55333">
        <ele>128.27</ele>
        <time>2018-06-01T10:36:14Z</time>
      </trkpt>
      <trkpt lat="47.95657" lon="-3.55325">
        <ele>128.29</ele>
        <time>2018-06-01T10:36:30Z</time>
      </trkpt>
      <trkpt lat="47.95636" lon="-3.55316">
        <ele>127.76</ele>
        <time>2018-06-01T10:36:44Z</time>
      </trkpt>
      <trkpt lat="47.95607" lon="-3.55303">
        <ele>126.53</ele>
        <time>2018-06-01T10:37:01Z</time>
      </trkpt>
      <trkpt lat="47.95573" lon="-3.55286">
        <ele>125.04</ele>
        <time>2018-06-01T10:37:22Z</time>
      </trkpt>
      <trkpt lat="47.95547" lon="-3.55272">
        <ele>123.22</ele>
        <time>2018-06-01T10:37:39Z</time>
      </trkpt>
      <trkpt lat="47.95519" lon="-3.55257">
        <ele>120.15</ele>
        <time>2018-06-01T10:37:57Z</time>
      </trkpt>
      <trkpt lat="47.95492" lon="-3.55244">
        <ele>118.24</ele>
        <time>2018-06-01T10:38:15Z</time>
      </trkpt>
      <trkpt lat="47.9547" lon="-3.55234">
        <ele>116.34</ele>
        <time>2018-06-01T10:38:31Z</time>
      </trkpt>
      <trkpt lat="47.95461" lon="-3.5523">
        <ele>115.33</ele>
        <time>2018-06-01T10:38:38Z</time>
      </trkpt>
      <trkpt lat="47.95446" lon="-3.55236">
        <ele>114.21</ele>
        <time>2018-06-01T10:38:49Z</time>
      </trkpt>
      <trkpt lat="47.95424" lon="-3.55259">
        <ele>112.98</ele>
        <time>2018-06-01T10:39:05Z</time>
      </trkpt>
      <trkpt lat="47.95412" lon="-3.55293">
        <ele>112.55</ele>
        <time>2018-06-01T10:39:21Z</time>
      </trkpt>
      <trkpt lat="47.95406" lon="-3.55335">
        <ele>112.36</ele>
        <time>2018-06-01T10:39:39Z</time>
      </trkpt>
      <trkpt lat="47.95392" lon="-3.55358">
        <ele>112.78</ele>
        <time>2018-06-01T10:39:55Z</time>
      </trkpt>
      <trkpt lat="47.95371" lon="-3.5536">
        <ele>112.92</ele>
        <time>2018-06-01T10:40:09Z</time>
      </trkpt>
      <trkpt lat="47.95352" lon="-3.55334">
        <ele>112.42</ele>
        <time>2018-06-01T10:40:27Z</time>
      </trkpt>
      <trkpt lat="47.9534" lon="-3.55301">
        <ele>111.14</ele>
        <time>2018-06-01T10:40:44Z</time>
      </trkpt>
      <trkpt lat="47.95331" lon="-3.55275">
        <ele>109.25</ele>
        <time>2018-06-01T10:40:57Z</time>
      </trkpt>
      <trkpt lat="47.9533" lon="-3.55272">
        <ele>109.15</ele>
        <time>2018-06-01T10:40:58Z</time>
      </trkpt>
      <trkpt lat="47.9533" lon="-3.5527">
        <ele>109.07</ele>
        <time>2018-06-01T10:40:59Z</time>
      </trkpt>
      <trkpt lat="47.95322" lon="-3.55245">
        <ele>107.76</ele>
        <time>2018-06-01T10:41:11Z</time>
      </trkpt>
      <trkpt lat="47.95315" lon="-3.55223">
        <ele>106.26</ele>
        <time>2018-06-01T10:41:24Z</time>
      </trkpt>
      <trkpt lat="47.95308" lon="-3.55206">
        <ele>105.62</ele>
        <time>2018-06-01T10:41:33Z</time>
      </trkpt>
      <trkpt lat="47.953" lon="-3.55202">
        <ele>105.5</ele>
        <time>2018-06-01T10:41:38Z</time>
      </trkpt>
      <trkpt lat="47.95284" lon="-3.55193">
        <ele>106.05</ele>
        <time>2018-06-01T10:41:49Z</time>
      </trkpt>
      <trkpt lat="47.9527" lon="-3.55181">
        <ele>105.73</ele>
        <time>2018-06-01T10:42:04Z</time>
      </trkpt>
      <trkpt lat="47.95274" lon="-3.55183">
        <ele>105.78</ele>
        <time>2018-06-01T10:42:37Z</time>
      </trkpt>
      <trkpt lat="47.95274" lon="-3.55182">
        <ele>105.67</ele>
        <time>2018-06-01T10:43:04Z</time>
      </trkpt>
      <trkpt lat="47.95273" lon="-3.5518">
        <ele>105.74</ele>
        <time>2018-06-01T10:43:24Z</time>
      </trkpt>
      <trkpt lat="47.95268" lon="-3.55174">
        <ele>106.14</ele>
        <time>2018-06-01T10:43:46Z</time>
      </trkpt>
      <trkpt lat="47.95258" lon="-3.55165">
        <ele>105.18</ele>
        <time>2018-06-01T10:44:00Z</time>
      </trkpt>
      <trkpt lat="47.95256" lon="-3.5516">
        <ele>104.3</ele>
        <time>2018-06-01T10:44:18Z</time>
      </trkpt>
      <trkpt lat="47.95256" lon="-3.5516">
        <ele>104.06</ele>
        <time>2018-06-01T10:44:43Z</time>
      </trkpt>
      <trkpt lat="47.95252" lon="-3.55158">
        <ele>103.98</ele>
        <time>2018-06-01T10:45:11Z</time>
      </trkpt>
      <trkpt lat="47.95247" lon="-3.55159">
        <ele>104.65</ele>
        <time>2018-06-01T10:45:31Z</time>
      </trkpt>
      <trkpt lat="47.95239" lon="-3.5516">
        <ele>104.02</ele>
        <time>2018-06-01T10:45:40Z</time>
      </trkpt>
      <trkpt lat="47.95237" lon="-3.55161">
        <ele>103.85</ele>
        <time>2018-06-01T10:45:41Z</time>
      </trkpt>
      <trkpt lat="47.95228" lon="-3.55168">
        <ele>102.29</ele>
        <time>2018-06-01T10:45:51Z</time>
      </trkpt>
      <trkpt lat="47.95225" lon="-3.55171">
        <ele>101.48</ele>
        <time>2018-06-01T10:45:55Z</time>
      </trkpt>
      <trkpt lat="47.95217" lon="-3.55182">
        <ele>100.61</ele>
        <time>2018-06-01T10:46:01Z</time>
      </trkpt>
      <trkpt lat="47.95215" lon="-3.55184">
        <ele>100.29</ele>
        <time>2018-06-01T10:46:03Z</time>
      </trkpt>
      <trkpt lat="47.95199" lon="-3.55198">
        <ele>99.45</ele>
        <time>2018-06-01T10:46:17Z</time>
      </trkpt>
      <trkpt lat="47.95194" lon="-3.55204">
        <ele>98.92</ele>
        <time>2018-06-01T10:46:21Z</time>
      </trkpt>
      <trkpt lat="47.95178" lon="-3.55217">
        <ele>97.78</ele>
        <time>2018-06-01T10:46:33Z</time>
      </trkpt>
      <trkpt lat="47.95157" lon="-3.55223">
        <ele>96.27</ele>
        <time>2018-06-01T10:46:47Z</time>
      </trkpt>
      <trkpt lat="47.95153" lon="-3.55221">
        <ele>95.87</ele>
        <time>2018-06-01T10:46:50Z</time>
      </trkpt>
      <trkpt lat="47.95147" lon="-3.55216">
        <ele>95.19</ele>
        <time>2018-06-01T10:46:56Z</time>
      </trkpt>
      <trkpt lat="47.95132" lon="-3.55213">
        <ele>93.79</ele>
        <time>2018-06-01T10:47:09Z</time>
      </trkpt>
      <trkpt lat="47.95121" lon="-3.55209">
        <ele>92.97</ele>
        <time>2018-06-01T10:47:20Z</time>
      </trkpt>
      <trkpt lat="47.95109" lon="-3.55208">
        <ele>92.2</ele>
        <time>2018-06-01T10:47:29Z</time>
      </trkpt>
      <trkpt lat="47.95092" lon="-3.55212">
        <ele>90.89</ele>
        <time>2018-06-01T10:47:43Z</time>
      </trkpt>
      <trkpt lat="47.9508" lon="-3.55213">
        <ele>90.43</ele>
        <time>2018-06-01T10:47:57Z</time>
      </trkpt>
      <trkpt lat="47.95063" lon="-3.55213">
        <ele>89.1</ele>
        <time>2018-06-01T10:48:14Z</time>
      </trkpt>
      <trkpt lat="47.95048" lon="-3.55232">
        <ele>88.59</ele>
        <time>2018-06-01T10:48:22Z</time>
      </trkpt>
      <trkpt lat="47.95035" lon="-3.55231">
        <ele>87.97</ele>
        <time>2018-06-01T10:48:36Z</time>
      </trkpt>
      <trkpt lat="47.95025" lon="-3.55221">
        <ele>87.24</ele>
        <time>2018-06-01T10:48:47Z</time>
      </trkpt>
      <trkpt lat="47.95006" lon="-3.55212">
        <ele>86.54</ele>
        <time>2018-06-01T10:49:04Z</time>
      </trkpt>
      <trkpt lat="47.95001" lon="-3.55213">
        <ele>86.31</ele>
        <time>2018-06-01T10:49:07Z</time>
      </trkpt>
      <trkpt lat="47.94972" lon="-3.55235">
        <ele>85.88</ele>
        <time>2018-06-01T10:49:23Z</time>
      </trkpt>
      <trkpt lat="47.94956" lon="-3.55234">
        <ele>84.71</ele>
        <time>2018-06-01T10:49:35Z</time>
      </trkpt>
      <trkpt lat="47.94946" lon="-3.55228">
        <ele>83.96</ele>
        <time>2018-06-01T10:49:41Z</time>
      </trkpt>
      <trkpt lat="47.94939" lon="-3.55225">
        <ele>83.46</ele>
        <time>2018-06-01T10:49:45Z</time>
      </trkpt>
      <trkpt lat="47.94911" lon="-3.55195">
        <ele>82.51</ele>
        <time>2018-06-01T10:50:00Z</time>
      </trkpt>
      <trkpt lat="47.9489" lon="-3.55141">
        <ele>81.29</ele>
        <time>2018-06-01T10:50:12Z</time>
      </trkpt>
      <trkpt lat="47.94881" lon="-3.55073">
        <ele>81.01</ele>
        <time>2018-06-01T10:50:24Z</time>
      </trkpt>
      <trkpt lat="47.9488" lon="-3.5505">
        <ele>81.1</ele>
        <time>2018-06-01T10:50:27Z</time>
      </trkpt>
      <trkpt lat="47.9488" lon="-3.55042">
        <ele>81.13</ele>
        <time>2018-06-01T10:50:28Z</time>
      </trkpt>
      <trkpt lat="47.94874" lon="-3.54946">
        <ele>82.83</ele>
        <time>2018-06-01T10:50:40Z</time>
      </trkpt>
      <trkpt lat="47.94872" lon="-3.54897">
        <ele>85.5</ele>
        <time>2018-06-01T10:50:49Z</time>
      </trkpt>
      <trkpt lat="47.94861" lon="-3.54838">
        <ele>87.78</ele>
        <time>2018-06-01T10:51:01Z</time>
      </trkpt>
      <trkpt lat="47.94849" lon="-3.54772">
        <ele>87.33</ele>
        <time>2018-06-01T10:51:13Z</time>
      </trkpt>
      <trkpt lat="47.94845" lon="-3.54725">
        <ele>86.51</ele>
        <time>2018-06-01T10:51:24Z</time>
      </trkpt>
      <trkpt lat="47.94846" lon="-3.54718">
        <ele>86.05</ele>
        <time>2018-06-01T10:51:28Z</time>
      </trkpt>
      <trkpt lat="47.94846" lon="-3.54716">
        <ele>85.9</ele>
        <time>2018-06-01T10:51:29Z</time>
      </trkpt>
      <trkpt lat="47.94846" lon="-3.54714">
        <ele>85.76</ele>
        <time>2018-06-01T10:51:30Z</time>
      </trkpt>
      <trkpt lat="47.94847" lon="-3.54712">
        <ele>85.52</ele>
        <time>2018-06-01T10:51:31Z</time>
      </trkpt>
      <trkpt lat="47.94847" lon="-3.54711">
        <ele>85.41</ele>
        <time>2018-06-01T10:51:32Z</time>
      </trkpt>
      <trkpt lat="47.94861" lon="-3.54696">
        <ele>86.19</ele>
        <time>2018-06-01T10:51:48Z</time>
      </trkpt>
      <trkpt lat="47.94872" lon="-3.54693">
        <ele>88.01</ele>
        <time>2018-06-01T10:52:01Z</time>
      </trkpt>
      <trkpt lat="47.94888" lon="-3.54695">
        <ele>91.11</ele>
        <time>2018-06-01T10:52:20Z</time>
      </trkpt>
      <trkpt lat="47.94896" lon="-3.54695">
        <ele>92.62</ele>
        <time>2018-06-01T10:52:27Z</time>
      </trkpt>
      <trkpt lat="47.94898" lon="-3.54695">
        <ele>92.89</ele>
        <time>2018-06-01T10:52:29Z</time>
      </trkpt>
      <trkpt lat="47.94918" lon="-3.54698">
        <ele>96.05</ele>
        <time>2018-06-01T10:52:45Z</time>
      </trkpt>
      <trkpt lat="47.94936" lon="-3.54705">
        <ele>98.42</ele>
        <time>2018-06-01T10:53:02Z</time>
      </trkpt>
      <trkpt lat="47.94953" lon="-3.5471">
        <ele>101.05</ele>
        <time>2018-06-01T10:53:17Z</time>
      </trkpt>
      <trkpt lat="47.94969" lon="-3.54717">
        <ele>103.09</ele>
        <time>2018-06-01T10:53:31Z</time>
      </trkpt>
      <trkpt lat="47.94993" lon="-3.54722">
        <ele>105.44</ele>
        <time>2018-06-01T10:53:50Z</time>
      </trkpt>
      <trkpt lat="47.95001" lon="-3.54722">
        <ele>105.77</ele>
        <time>2018-06-01T10:53:56Z</time>
      </trkpt>
      <trkpt lat="47.95016" lon="-3.54722">
        <ele>106.67</ele>
        <time>2018-06-01T10:54:10Z</time>
      </trkpt>
      <trkpt lat="47.95045" lon="-3.54721">
        <ele>107.52</ele>
        <time>2018-06-01T10:54:31Z</time>
      </trkpt>
      <trkpt lat="47.95049" lon="-3.54722">
        <ele>107.6</ele>
        <time>2018-06-01T10:54:34Z</time>
      </trkpt>
      <trkpt lat="47.95066" lon="-3.54724">
        <ele>108.35</ele>
        <time>2018-06-01T10:54:48Z</time>
      </trkpt>
      <trkpt lat="47.95107" lon="-3.54717">
        <ele>109.59</ele>
        <time>2018-06-01T10:55:01Z</time>
      </trkpt>
      <trkpt lat="47.95131" lon="-3.54716">
        <ele>111.76</ele>
        <time>2018-06-01T10:55:12Z</time>
      </trkpt>
      <trkpt lat="47.95136" lon="-3.54716">
        <ele>112.32</ele>
        <time>2018-06-01T10:55:14Z</time>
      </trkpt>
      <trkpt lat="47.95143" lon="-3.54715">
        <ele>113.23</ele>
        <time>2018-06-01T10:55:25Z</time>
      </trkpt>
      <trkpt lat="47.95158" lon="-3.54717">
        <ele>114.27</ele>
        <time>2018-06-01T10:55:38Z</time>
      </trkpt>
      <trkpt lat="47.95176" lon="-3.54717">
        <ele>115.42</ele>
        <time>2018-06-01T10:55:51Z</time>
      </trkpt>
      <trkpt lat="47.95196" lon="-3.54713">
        <ele>116.18</ele>
        <time>2018-06-01T10:56:04Z</time>
      </trkpt>
      <trkpt lat="47.95204" lon="-3.54705">
        <ele>116.73</ele>
        <time>2018-06-01T10:56:10Z</time>
      </trkpt>
      <trkpt lat="47.95209" lon="-3.54697">
        <ele>116.94</ele>
        <time>2018-06-01T10:56:15Z</time>
      </trkpt>
      <trkpt lat="47.95227" lon="-3.5467">
        <ele>116.75</ele>
        <time>2018-06-01T10:56:30Z</time>
      </trkpt>
      <trkpt lat="47.95238" lon="-3.54639">
        <ele>116.58</ele>
        <time>2018-06-01T10:56:46Z</time>
      </trkpt>
      <trkpt lat="47.9524" lon="-3.5461">
        <ele>116.41</ele>
        <time>2018-06-01T10:56:58Z</time>
      </trkpt>
      <trkpt lat="47.95242" lon="-3.54582">
        <ele>116.24</ele>
        <time>2018-06-01T10:57:13Z</time>
      </trkpt>
      <trkpt lat="47.95242" lon="-3.54576">
        <ele>116.29</ele>
        <time>2018-06-01T10:57:15Z</time>
      </trkpt>
      <trkpt lat="47.95239" lon="-3.54559">
        <ele>116.4</ele>
        <time>2018-06-01T10:57:22Z</time>
      </trkpt>
      <trkpt lat="47.95252" lon="-3.54536">
        <ele>116.54</ele>
        <time>2018-06-01T10:57:36Z</time>
      </trkpt>
      <trkpt lat="47.95277" lon="-3.54505">
        <ele>116.36</ele>
        <time>2018-06-01T10:57:55Z</time>
      </trkpt>
      <trkpt lat="47.95285" lon="-3.5447">
        <ele>116.77</ele>
        <time>2018-06-01T10:58:05Z</time>
      </trkpt>
      <trkpt lat="47.95272" lon="-3.54415">
        <ele>117.79</ele>
        <time>2018-06-01T10:58:16Z</time>
      </trkpt>
      <trkpt lat="47.95247" lon="-3.54385">
        <ele>117.42</ele>
        <time>2018-06-01T10:58:27Z</time>
      </trkpt>
      <trkpt lat="47.9522" lon="-3.54367">
        <ele>115.33</ele>
        <time>2018-06-01T10:58:41Z</time>
      </trkpt>
      <trkpt lat="47.95198" lon="-3.54352">
        <ele>112.2</ele>
        <time>2018-06-01T10:58:57Z</time>
      </trkpt>
      <trkpt lat="47.95196" lon="-3.54349">
        <ele>111.81</ele>
        <time>2018-06-01T10:58:59Z</time>
      </trkpt>
      <trkpt lat="47.95206" lon="-3.54319">
        <ele>109.36</ele>
        <time>2018-06-01T10:59:09Z</time>
      </trkpt>
      <trkpt lat="47.95209" lon="-3.54311">
        <ele>108.85</ele>
        <time>2018-06-01T10:59:12Z</time>
      </trkpt>
      <trkpt lat="47.95212" lon="-3.54291">
        <ele>108.69</ele>
        <time>2018-06-01T10:59:19Z</time>
      </trkpt>
      <trkpt lat="47.95223" lon="-3.54255">
        <ele>107.88</ele>
        <time>2018-06-01T10:59:28Z</time>
      </trkpt>
      <trkpt lat="47.95244" lon="-3.54212">
        <ele>107.89</ele>
        <time>2018-06-01T10:59:39Z</time>
      </trkpt>
      <trkpt lat="47.95252" lon="-3.54194">
        <ele>107.76</ele>
        <time>2018-06-01T10:59:44Z</time>
      </trkpt>
      <trkpt lat="47.95255" lon="-3.54189">
        <ele>107.76</ele>
        <time>2018-06-01T10:59:46Z</time>
      </trkpt>
      <trkpt lat="47.95255" lon="-3.54137">
        <ele>107.93</ele>
        <time>2018-06-01T10:59:56Z</time>
      </trkpt>
      <trkpt lat="47.95255" lon="-3.54132">
        <ele>108.03</ele>
        <time>2018-06-01T10:59:57Z</time>
      </trkpt>
      <trkpt lat="47.95255" lon="-3.54119">
        <ele>108.25</ele>
        <time>2018-06-01T10:59:59Z</time>
      </trkpt>
      <trkpt lat="47.95255" lon="-3.54113">
        <ele>108.42</ele>
        <time>2018-06-01T11:00:00Z</time>
      </trkpt>
      <trkpt lat="47.95255" lon="-3.54108">
        <ele>108.96</ele>
        <time>2018-06-01T11:00:01Z</time>
      </trkpt>
      <trkpt lat="47.95254" lon="-3.54103">
        <ele>109.35</ele>
        <time>2018-06-01T11:00:02Z</time>
      </trkpt>
      <trkpt lat="47.95254" lon="-3.54097">
        <ele>109.8</ele>
        <time>2018-06-01T11:00:03Z</time>
      </trkpt>
      <trkpt lat="47.95254" lon="-3.54077">
        <ele>113.08</ele>
        <time>2018-06-01T11:00:10Z</time>
      </trkpt>
      <trkpt lat="47.9526" lon="-3.54009">
        <ele>115.42</ele>
        <time>2018-06-01T11:00:20Z</time>
      </trkpt>
      <trkpt lat="47.95254" lon="-3.53974">
        <ele>117.78</ele>
        <time>2018-06-01T11:00:32Z</time>
      </trkpt>
      <trkpt lat="47.95254" lon="-3.53967">
        <ele>117.91</ele>
        <time>2018-06-01T11:00:33Z</time>
      </trkpt>
      <trkpt lat="47.95251" lon="-3.53963">
        <ele>118.14</ele>
        <time>2018-06-01T11:00:35Z</time>
      </trkpt>
      <trkpt lat="47.95249" lon="-3.5396">
        <ele>118.22</ele>
        <time>2018-06-01T11:00:36Z</time>
      </trkpt>
      <trkpt lat="47.95249" lon="-3.53958">
        <ele>118.31</ele>
        <time>2018-06-01T11:00:37Z</time>
      </trkpt>
      <trkpt lat="47.95248" lon="-3.53956">
        <ele>118.38</ele>
        <time>2018-06-01T11:00:38Z</time>
      </trkpt>
      <trkpt lat="47.95248" lon="-3.53948">
        <ele>118.47</ele>
        <time>2018-06-01T11:00:39Z</time>
      </trkpt>
      <trkpt lat="47.95247" lon="-3.53943">
        <ele>118.55</ele>
        <time>2018-06-01T11:00:40Z</time>
      </trkpt>
      <trkpt lat="47.95246" lon="-3.5394">
        <ele>118.63</ele>
        <time>2018-06-01T11:00:41Z</time>
      </trkpt>
      <trkpt lat="47.95246" lon="-3.53936">
        <ele>118.72</ele>
        <time>2018-06-01T11:00:42Z</time>
      </trkpt>
      <trkpt lat="47.95245" lon="-3.53933">
        <ele>118.79</ele>
        <time>2018-06-01T11:00:43Z</time>
      </trkpt>
      <trkpt lat="47.95245" lon="-3.53928">
        <ele>118.87</ele>
        <time>2018-06-01T11:00:44Z</time>
      </trkpt>
      <trkpt lat="47.95244" lon="-3.53926">
        <ele>118.92</ele>
        <time>2018-06-01T11:00:45Z</time>
      </trkpt>
      <trkpt lat="47.95241" lon="-3.53912">
        <ele>119.21</ele>
        <time>2018-06-01T11:00:50Z</time>
      </trkpt>
      <trkpt lat="47.95242" lon="-3.53908">
        <ele>119.27</ele>
        <time>2018-06-01T11:00:51Z</time>
      </trkpt>
      <trkpt lat="47.95242" lon="-3.53906">
        <ele>119.36</ele>
        <time>2018-06-01T11:00:52Z</time>
      </trkpt>
      <trkpt lat="47.95241" lon="-3.53904">
        <ele>119.4</ele>
        <time>2018-06-01T11:00:53Z</time>
      </trkpt>
      <trkpt lat="47.95234" lon="-3.53873">
        <ele>119.26</ele>
        <time>2018-06-01T11:01:05Z</time>
      </trkpt>
      <trkpt lat="47.95235" lon="-3.53871">
        <ele>119.24</ele>
        <time>2018-06-01T11:01:06Z</time>
      </trkpt>
      <trkpt lat="47.95236" lon="-3.53869">
        <ele>119.23</ele>
        <time>2018-06-01T11:01:07Z</time>
      </trkpt>
      <trkpt lat="47.95237" lon="-3.53868">
        <ele>119.2</ele>
        <time>2018-06-01T11:01:08Z</time>
      </trkpt>
      <trkpt lat="47.95238" lon="-3.53866">
        <ele>119.19</ele>
        <time>2018-06-01T11:01:09Z</time>
      </trkpt>
      <trkpt lat="47.95239" lon="-3.53864">
        <ele>119.17</ele>
        <time>2018-06-01T11:01:10Z</time>
      </trkpt>
      <trkpt lat="47.9524" lon="-3.53863">
        <ele>119.18</ele>
        <time>2018-06-01T11:01:11Z</time>
      </trkpt>
      <trkpt lat="47.95242" lon="-3.53861">
        <ele>119.25</ele>
        <time>2018-06-01T11:01:12Z</time>
      </trkpt>
      <trkpt lat="47.95243" lon="-3.5386">
        <ele>119.47</ele>
        <time>2018-06-01T11:01:13Z</time>
      </trkpt>
      <trkpt lat="47.95244" lon="-3.53858">
        <ele>119.57</ele>
        <time>2018-06-01T11:01:14Z</time>
      </trkpt>
      <trkpt lat="47.95246" lon="-3.53857">
        <ele>119.67</ele>
        <time>2018-06-01T11:01:15Z</time>
      </trkpt>
      <trkpt lat="47.9526" lon="-3.53838">
        <ele>120.51</ele>
        <time>2018-06-01T11:01:26Z</time>
      </trkpt>
      <trkpt lat="47.95273" lon="-3.53818">
        <ele>121.51</ele>
        <time>2018-06-01T11:01:38Z</time>
      </trkpt>
      <trkpt lat="47.95279" lon="-3.53814">
        <ele>121.97</ele>
        <time>2018-06-01T11:01:43Z</time>
      </trkpt>
      <trkpt lat="47.95281" lon="-3.53813">
        <ele>122.03</ele>
        <time>2018-06-01T11:01:44Z</time>
      </trkpt>
      <trkpt lat="47.95282" lon="-3.53811">
        <ele>122.12</ele>
        <time>2018-06-01T11:01:45Z</time>
      </trkpt>
      <trkpt lat="47.95283" lon="-3.53808">
        <ele>122.19</ele>
        <time>2018-06-01T11:01:46Z</time>
      </trkpt>
      <trkpt lat="47.95285" lon="-3.53806">
        <ele>122.25</ele>
        <time>2018-06-01T11:01:47Z</time>
      </trkpt>
      <trkpt lat="47.95285" lon="-3.53804">
        <ele>122.3</ele>
        <time>2018-06-01T11:01:48Z</time>
      </trkpt>
      <trkpt lat="47.95286" lon="-3.53802">
        <ele>122.35</ele>
        <time>2018-06-01T11:01:49Z</time>
      </trkpt>
      <trkpt lat="47.95288" lon="-3.538">
        <ele>122.4</ele>
        <time>2018-06-01T11:01:50Z</time>
      </trkpt>
      <trkpt lat="47.95289" lon="-3.538">
        <ele>122.45</ele>
        <time>2018-06-01T11:01:51Z</time>
      </trkpt>
      <trkpt lat="47.95294" lon="-3.53798">
        <ele>122.67</ele>
        <time>2018-06-01T11:01:55Z</time>
      </trkpt>
      <trkpt lat="47.95299" lon="-3.53797">
        <ele>122.8</ele>
        <time>2018-06-01T11:01:58Z</time>
      </trkpt>
      <trkpt lat="47.953" lon="-3.53797">
        <ele>122.82</ele>
        <time>2018-06-01T11:01:59Z</time>
      </trkpt>
      <trkpt lat="47.9532" lon="-3.53787">
        <ele>123.59</ele>
        <time>2018-06-01T11:02:12Z</time>
      </trkpt>
      <trkpt lat="47.95338" lon="-3.5378">
        <ele>123.71</ele>
        <time>2018-06-01T11:02:25Z</time>
      </trkpt>
      <trkpt lat="47.95345" lon="-3.53761">
        <ele>124.37</ele>
        <time>2018-06-01T11:02:37Z</time>
      </trkpt>
      <trkpt lat="47.95356" lon="-3.53731">
        <ele>124.78</ele>
        <time>2018-06-01T11:02:49Z</time>
      </trkpt>
      <trkpt lat="47.95357" lon="-3.53723">
        <ele>125.01</ele>
        <time>2018-06-01T11:02:51Z</time>
      </trkpt>
      <trkpt lat="47.95361" lon="-3.53714">
        <ele>125.26</ele>
        <time>2018-06-01T11:02:54Z</time>
      </trkpt>
      <trkpt lat="47.95366" lon="-3.5367">
        <ele>126.38</ele>
        <time>2018-06-01T11:03:04Z</time>
      </trkpt>
      <trkpt lat="47.95374" lon="-3.53629">
        <ele>128.5</ele>
        <time>2018-06-01T11:03:16Z</time>
      </trkpt>
      <trkpt lat="47.95369" lon="-3.53599">
        <ele>128.95</ele>
        <time>2018-06-01T11:03:31Z</time>
      </trkpt>
      <trkpt lat="47.95393" lon="-3.53589">
        <ele>129.16</ele>
        <time>2018-06-01T11:03:40Z</time>
      </trkpt>
      <trkpt lat="47.95413" lon="-3.53588">
        <ele>129.51</ele>
        <time>2018-06-01T11:03:45Z</time>
      </trkpt>
      <trkpt lat="47.95451" lon="-3.5358">
        <ele>131.27</ele>
        <time>2018-06-01T11:03:56Z</time>
      </trkpt>
      <trkpt lat="47.95454" lon="-3.5358">
        <ele>131.66</ele>
        <time>2018-06-01T11:03:58Z</time>
      </trkpt>
      <trkpt lat="47.95468" lon="-3.53567">
        <ele>132.99</ele>
        <time>2018-06-01T11:04:05Z</time>
      </trkpt>
      <trkpt lat="47.95475" lon="-3.53552">
        <ele>134.12</ele>
        <time>2018-06-01T11:04:10Z</time>
      </trkpt>
      <trkpt lat="47.95505" lon="-3.53535">
        <ele>136.08</ele>
        <time>2018-06-01T11:04:21Z</time>
      </trkpt>
      <trkpt lat="47.95521" lon="-3.5352">
        <ele>136.89</ele>
        <time>2018-06-01T11:04:28Z</time>
      </trkpt>
      <trkpt lat="47.9553" lon="-3.53513">
        <ele>137.16</ele>
        <time>2018-06-01T11:04:31Z</time>
      </trkpt>
      <trkpt lat="47.95536" lon="-3.53502">
        <ele>137.48</ele>
        <time>2018-06-01T11:04:34Z</time>
      </trkpt>
      <trkpt lat="47.95542" lon="-3.53494">
        <ele>137.95</ele>
        <time>2018-06-01T11:04:38Z</time>
      </trkpt>
      <trkpt lat="47.95554" lon="-3.53487">
        <ele>138.29</ele>
        <time>2018-06-01T11:04:42Z</time>
      </trkpt>
      <trkpt lat="47.95606" lon="-3.53486">
        <ele>138.6</ele>
        <time>2018-06-01T11:04:55Z</time>
      </trkpt>
      <trkpt lat="47.95639" lon="-3.53495">
        <ele>138.29</ele>
        <time>2018-06-01T11:05:05Z</time>
      </trkpt>
      <trkpt lat="47.95671" lon="-3.53515">
        <ele>138.09</ele>
        <time>2018-06-01T11:05:15Z</time>
      </trkpt>
      <trkpt lat="47.95688" lon="-3.53531">
        <ele>138.01</ele>
        <time>2018-06-01T11:05:21Z</time>
      </trkpt>
      <trkpt lat="47.95691" lon="-3.53533">
        <ele>138</ele>
        <time>2018-06-01T11:05:22Z</time>
      </trkpt>
      <trkpt lat="47.95695" lon="-3.53536">
        <ele>138</ele>
        <time>2018-06-01T11:05:23Z</time>
      </trkpt>
      <trkpt lat="47.95699" lon="-3.53539">
        <ele>138.01</ele>
        <time>2018-06-01T11:05:24Z</time>
      </trkpt>
      <trkpt lat="47.95702" lon="-3.53541">
        <ele>138.01</ele>
        <time>2018-06-01T11:05:25Z</time>
      </trkpt>
      <trkpt lat="47.95728" lon="-3.53566">
        <ele>138.03</ele>
        <time>2018-06-01T11:05:36Z</time>
      </trkpt>
      <trkpt lat="47.95755" lon="-3.53588">
        <ele>138.63</ele>
        <time>2018-06-01T11:05:52Z</time>
      </trkpt>
      <trkpt lat="47.9578" lon="-3.53612">
        <ele>139.1</ele>
        <time>2018-06-01T11:06:08Z</time>
      </trkpt>
      <trkpt lat="47.95802" lon="-3.53642">
        <ele>140.03</ele>
        <time>2018-06-01T11:06:27Z</time>
      </trkpt>
      <trkpt lat="47.95819" lon="-3.5367">
        <ele>140.43</ele>
        <time>2018-06-01T11:06:43Z</time>
      </trkpt>
      <trkpt lat="47.95841" lon="-3.53695">
        <ele>140.62</ele>
        <time>2018-06-01T11:07:01Z</time>
      </trkpt>
      <trkpt lat="47.95862" lon="-3.53715">
        <ele>141.09</ele>
        <time>2018-06-01T11:07:17Z</time>
      </trkpt>
      <trkpt lat="47.95882" lon="-3.53737">
        <ele>140.81</ele>
        <time>2018-06-01T11:07:34Z</time>
      </trkpt>
      <trkpt lat="47.9589" lon="-3.53744">
        <ele>140.8</ele>
        <time>2018-06-01T11:07:42Z</time>
      </trkpt>
      <trkpt lat="47.95895" lon="-3.53754">
        <ele>140.45</ele>
        <time>2018-06-01T11:07:52Z</time>
      </trkpt>
      <trkpt lat="47.95895" lon="-3.53755">
        <ele>140.42</ele>
        <time>2018-06-01T11:07:53Z</time>
      </trkpt>
      <trkpt lat="47.95891" lon="-3.53759">
        <ele>140.31</ele>
        <time>2018-06-01T11:08:10Z</time>
      </trkpt>
      <trkpt lat="47.95891" lon="-3.53754">
        <ele>140.24</ele>
        <time>2018-06-01T11:08:16Z</time>
      </trkpt>
      <trkpt lat="47.95893" lon="-3.53752">
        <ele>140.22</ele>
        <time>2018-06-01T11:08:18Z</time>
      </trkpt>
      <trkpt lat="47.95898" lon="-3.53744">
        <ele>140.42</ele>
        <time>2018-06-01T11:08:34Z</time>
      </trkpt>
      <trkpt lat="47.959" lon="-3.53742">
        <ele>140.32</ele>
        <time>2018-06-01T11:08:53Z</time>
      </trkpt>
      <trkpt lat="47.95902" lon="-3.53738">
        <ele>140.42</ele>
        <time>2018-06-01T11:08:56Z</time>
      </trkpt>
      <trkpt lat="47.95903" lon="-3.53737">
        <ele>140.44</ele>
        <time>2018-06-01T11:08:57Z</time>
      </trkpt>
      <trkpt lat="47.95904" lon="-3.53736">
        <ele>140.46</ele>
        <time>2018-06-01T11:08:58Z</time>
      </trkpt>
      <trkpt lat="47.9592" lon="-3.53712">
        <ele>140.83</ele>
        <time>2018-06-01T11:09:16Z</time>
      </trkpt>
      <trkpt lat="47.95923" lon="-3.53711">
        <ele>140.89</ele>
        <time>2018-06-01T11:09:18Z</time>
      </trkpt>
      <trkpt lat="47.95924" lon="-3.53711">
        <ele>140.92</ele>
        <time>2018-06-01T11:09:19Z</time>
      </trkpt>
      <trkpt lat="47.95941" lon="-3.53707">
        <ele>141.23</ele>
        <time>2018-06-01T11:09:37Z</time>
      </trkpt>
      <trkpt lat="47.95944" lon="-3.537">
        <ele>141.22</ele>
        <time>2018-06-01T11:09:45Z</time>
      </trkpt>
      <trkpt lat="47.95945" lon="-3.53698">
        <ele>141.19</ele>
        <time>2018-06-01T11:09:46Z</time>
      </trkpt>
      <trkpt lat="47.95954" lon="-3.53678">
        <ele>141.05</ele>
        <time>2018-06-01T11:10:01Z</time>
      </trkpt>
      <trkpt lat="47.95954" lon="-3.53677">
        <ele>140.86</ele>
        <time>2018-06-01T11:10:19Z</time>
      </trkpt>
      <trkpt lat="47.95954" lon="-3.53677">
        <ele>140.72</ele>
        <time>2018-06-01T11:10:27Z</time>
      </trkpt>
      <trkpt lat="47.95955" lon="-3.53676">
        <ele>140.76</ele>
        <time>2018-06-01T11:10:29Z</time>
      </trkpt>
      <trkpt lat="47.95957" lon="-3.53673">
        <ele>140.79</ele>
        <time>2018-06-01T11:10:32Z</time>
      </trkpt>
      <trkpt lat="47.95956" lon="-3.53659">
        <ele>140.66</ele>
        <time>2018-06-01T11:10:42Z</time>
      </trkpt>
      <trkpt lat="47.95955" lon="-3.53658">
        <ele>140.62</ele>
        <time>2018-06-01T11:10:43Z</time>
      </trkpt>
      <trkpt lat="47.95953" lon="-3.53653">
        <ele>140.5</ele>
        <time>2018-06-01T11:10:46Z</time>
      </trkpt>
      <trkpt lat="47.95956" lon="-3.53648">
        <ele>140.22</ele>
        <time>2018-06-01T11:10:58Z</time>
      </trkpt>
      <trkpt lat="47.95952" lon="-3.53644">
        <ele>140.21</ele>
        <time>2018-06-01T11:11:10Z</time>
      </trkpt>
      <trkpt lat="47.95951" lon="-3.53643">
        <ele>140.18</ele>
        <time>2018-06-01T11:11:11Z</time>
      </trkpt>
      <trkpt lat="47.9595" lon="-3.53642">
        <ele>140.19</ele>
        <time>2018-06-01T11:11:12Z</time>
      </trkpt>
      <trkpt lat="47.9595" lon="-3.5364">
        <ele>140.2</ele>
        <time>2018-06-01T11:11:13Z</time>
      </trkpt>
      <trkpt lat="47.95957" lon="-3.53622">
        <ele>139.82</ele>
        <time>2018-06-01T11:14:37Z</time>
      </trkpt>
      <trkpt lat="47.95958" lon="-3.53623">
        <ele>139.8</ele>
        <time>2018-06-01T11:14:38Z</time>
      </trkpt>
      <trkpt lat="47.9596" lon="-3.53624">
        <ele>139.82</ele>
        <time>2018-06-01T11:14:39Z</time>
      </trkpt>
      <trkpt lat="47.95969" lon="-3.53627">
        <ele>140.17</ele>
        <time>2018-06-01T11:14:51Z</time>
      </trkpt>
      <trkpt lat="47.95969" lon="-3.53625">
        <ele>140.19</ele>
        <time>2018-06-01T11:14:52Z</time>
      </trkpt>
      <trkpt lat="47.95969" lon="-3.53624">
        <ele>140.21</ele>
        <time>2018-06-01T11:14:53Z</time>
      </trkpt>
      <trkpt lat="47.9597" lon="-3.53622">
        <ele>140.27</ele>
        <time>2018-06-01T11:14:54Z</time>
      </trkpt>
      <trkpt lat="47.9597" lon="-3.53621">
        <ele>140.36</ele>
        <time>2018-06-01T11:14:55Z</time>
      </trkpt>
      <trkpt lat="47.95971" lon="-3.53619">
        <ele>140.45</ele>
        <time>2018-06-01T11:14:56Z</time>
      </trkpt>
      <trkpt lat="47.95975" lon="-3.53595">
        <ele>141.05</ele>
        <time>2018-06-01T11:15:09Z</time>
      </trkpt>
      <trkpt lat="47.95975" lon="-3.53583">
        <ele>140.97</ele>
        <time>2018-06-01T11:15:15Z</time>
      </trkpt>
      <trkpt lat="47.95975" lon="-3.53581">
        <ele>140.96</ele>
        <time>2018-06-01T11:15:16Z</time>
      </trkpt>
      <trkpt lat="47.95978" lon="-3.53542">
        <ele>140.87</ele>
        <time>2018-06-01T11:15:34Z</time>
      </trkpt>
      <trkpt lat="47.95981" lon="-3.535">
        <ele>140.35</ele>
        <time>2018-06-01T11:15:52Z</time>
      </trkpt>
      <trkpt lat="47.95982" lon="-3.53494">
        <ele>140.14</ele>
        <time>2018-06-01T11:15:56Z</time>
      </trkpt>
      <trkpt lat="47.95982" lon="-3.53492">
        <ele>140.09</ele>
        <time>2018-06-01T11:15:57Z</time>
      </trkpt>
      <trkpt lat="47.95983" lon="-3.5349">
        <ele>140.05</ele>
        <time>2018-06-01T11:15:58Z</time>
      </trkpt>
      <trkpt lat="47.95988" lon="-3.53469">
        <ele>140.14</ele>
        <time>2018-06-01T11:16:10Z</time>
      </trkpt>
      <trkpt lat="47.95988" lon="-3.53466">
        <ele>140.14</ele>
        <time>2018-06-01T11:16:11Z</time>
      </trkpt>
      <trkpt lat="47.95989" lon="-3.53463">
        <ele>140.12</ele>
        <time>2018-06-01T11:16:12Z</time>
      </trkpt>
      <trkpt lat="47.9599" lon="-3.53461">
        <ele>140.11</ele>
        <time>2018-06-01T11:16:13Z</time>
      </trkpt>
      <trkpt lat="47.95991" lon="-3.53459">
        <ele>140.11</ele>
        <time>2018-06-01T11:16:14Z</time>
      </trkpt>
      <trkpt lat="47.95992" lon="-3.53457">
        <ele>140.1</ele>
        <time>2018-06-01T11:16:15Z</time>
      </trkpt>
      <trkpt lat="47.95993" lon="-3.53455">
        <ele>140.09</ele>
        <time>2018-06-01T11:16:16Z</time>
      </trkpt>
      <trkpt lat="47.95995" lon="-3.53453">
        <ele>140.09</ele>
        <time>2018-06-01T11:16:17Z</time>
      </trkpt>
      <trkpt lat="47.95996" lon="-3.53451">
        <ele>140.09</ele>
        <time>2018-06-01T11:16:18Z</time>
      </trkpt>
      <trkpt lat="47.96011" lon="-3.53419">
        <ele>140.16</ele>
        <time>2018-06-01T11:16:34Z</time>
      </trkpt>
      <trkpt lat="47.96022" lon="-3.53384">
        <ele>140.1</ele>
        <time>2018-06-01T11:16:50Z</time>
      </trkpt>
      <trkpt lat="47.96023" lon="-3.5338">
        <ele>140.13</ele>
        <time>2018-06-01T11:16:52Z</time>
      </trkpt>
      <trkpt lat="47.96023" lon="-3.53378">
        <ele>140.15</ele>
        <time>2018-06-01T11:16:53Z</time>
      </trkpt>
      <trkpt lat="47.96024" lon="-3.53376">
        <ele>140.18</ele>
        <time>2018-06-01T11:16:54Z</time>
      </trkpt>
      <trkpt lat="47.96024" lon="-3.53373">
        <ele>140.23</ele>
        <time>2018-06-01T11:16:55Z</time>
      </trkpt>
      <trkpt lat="47.96025" lon="-3.53371">
        <ele>140.27</ele>
        <time>2018-06-01T11:16:56Z</time>
      </trkpt>
      <trkpt lat="47.96025" lon="-3.53368">
        <ele>140.31</ele>
        <time>2018-06-01T11:16:57Z</time>
      </trkpt>
      <trkpt lat="47.96025" lon="-3.53366">
        <ele>140.35</ele>
        <time>2018-06-01T11:16:58Z</time>
      </trkpt>
      <trkpt lat="47.96026" lon="-3.53364">
        <ele>140.38</ele>
        <time>2018-06-01T11:16:59Z</time>
      </trkpt>
      <trkpt lat="47.96029" lon="-3.53331">
        <ele>140.82</ele>
        <time>2018-06-01T11:17:13Z</time>
      </trkpt>
      <trkpt lat="47.96029" lon="-3.53295">
        <ele>141.46</ele>
        <time>2018-06-01T11:17:28Z</time>
      </trkpt>
      <trkpt lat="47.96025" lon="-3.53261">
        <ele>141.78</ele>
        <time>2018-06-01T11:17:42Z</time>
      </trkpt>
      <trkpt lat="47.96015" lon="-3.5322">
        <ele>141.36</ele>
        <time>2018-06-01T11:18:00Z</time>
      </trkpt>
      <trkpt lat="47.9601" lon="-3.53203">
        <ele>140.65</ele>
        <time>2018-06-01T11:18:12Z</time>
      </trkpt>
      <trkpt lat="47.96008" lon="-3.53203">
        <ele>140.61</ele>
        <time>2018-06-01T11:18:13Z</time>
      </trkpt>
      <trkpt lat="47.96008" lon="-3.53204">
        <ele>140.57</ele>
        <time>2018-06-01T11:18:14Z</time>
      </trkpt>
      <trkpt lat="47.96004" lon="-3.53206">
        <ele>140.51</ele>
        <time>2018-06-01T11:18:17Z</time>
      </trkpt>
      <trkpt lat="47.96003" lon="-3.53206">
        <ele>140.49</ele>
        <time>2018-06-01T11:18:18Z</time>
      </trkpt>
      <trkpt lat="47.95984" lon="-3.53208">
        <ele>140.33</ele>
        <time>2018-06-01T11:18:32Z</time>
      </trkpt>
      <trkpt lat="47.95966" lon="-3.53203">
        <ele>140.93</ele>
        <time>2018-06-01T11:18:45Z</time>
      </trkpt>
      <trkpt lat="47.95958" lon="-3.53198">
        <ele>140.49</ele>
        <time>2018-06-01T11:18:59Z</time>
      </trkpt>
      <trkpt lat="47.95958" lon="-3.53197">
        <ele>140.45</ele>
        <time>2018-06-01T11:19:00Z</time>
      </trkpt>
      <trkpt lat="47.95958" lon="-3.53194">
        <ele>140.38</ele>
        <time>2018-06-01T11:19:02Z</time>
      </trkpt>
      <trkpt lat="47.95958" lon="-3.53192">
        <ele>140.36</ele>
        <time>2018-06-01T11:19:03Z</time>
      </trkpt>
      <trkpt lat="47.95957" lon="-3.5319">
        <ele>140.33</ele>
        <time>2018-06-01T11:19:04Z</time>
      </trkpt>
      <trkpt lat="47.95962" lon="-3.53177">
        <ele>139.5</ele>
        <time>2018-06-01T11:19:11Z</time>
      </trkpt>
      <trkpt lat="47.95985" lon="-3.5317">
        <ele>138.35</ele>
        <time>2018-06-01T11:19:26Z</time>
      </trkpt>
      <trkpt lat="47.96004" lon="-3.53181">
        <ele>138.03</ele>
        <time>2018-06-01T11:19:41Z</time>
      </trkpt>
      <trkpt lat="47.96003" lon="-3.5318">
        <ele>138.15</ele>
        <time>2018-06-01T11:21:29Z</time>
      </trkpt>
      <trkpt lat="47.96004" lon="-3.53181">
        <ele>138.44</ele>
        <time>2018-06-01T11:21:43Z</time>
      </trkpt>
      <trkpt lat="47.96004" lon="-3.53182">
        <ele>169.4</ele>
        <time>2018-06-01T12:16:45Z</time>
      </trkpt>
      <trkpt lat="47.96008" lon="-3.53184">
        <ele>169.59</ele>
        <time>2018-06-01T12:17:21Z</time>
      </trkpt>
      <trkpt lat="47.96008" lon="-3.53184">
        <ele>169.7</ele>
        <time>2018-06-01T12:17:38Z</time>
      </trkpt>
      <trkpt lat="47.96008" lon="-3.53184">
        <ele>169.83</ele>
        <time>2018-06-01T12:17:57Z</time>
      </trkpt>
      <trkpt lat="47.96005" lon="-3.53178">
        <ele>169.33</ele>
        <time>2018-06-01T12:18:13Z</time>
      </trkpt>
      <trkpt lat="47.96005" lon="-3.53177">
        <ele>168.96</ele>
        <time>2018-06-01T12:18:30Z</time>
      </trkpt>
      <trkpt lat="47.96003" lon="-3.5317">
        <ele>169.5</ele>
        <time>2018-06-01T12:18:48Z</time>
      </trkpt>
      <trkpt lat="47.96003" lon="-3.53166">
        <ele>169.17</ele>
        <time>2018-06-01T12:19:06Z</time>
      </trkpt>
      <trkpt lat="47.95999" lon="-3.53162">
        <ele>169.08</ele>
        <time>2018-06-01T12:19:24Z</time>
      </trkpt>
      <trkpt lat="47.95996" lon="-3.5316">
        <ele>168.96</ele>
        <time>2018-06-01T12:19:54Z</time>
      </trkpt>
      <trkpt lat="47.95994" lon="-3.53156">
        <ele>169.06</ele>
        <time>2018-06-01T12:20:00Z</time>
      </trkpt>
      <trkpt lat="47.95999" lon="-3.53136">
        <ele>169.36</ele>
        <time>2018-06-01T12:20:15Z</time>
      </trkpt>
      <trkpt lat="47.96" lon="-3.53126">
        <ele>169.69</ele>
        <time>2018-06-01T12:20:27Z</time>
      </trkpt>
      <trkpt lat="47.96001" lon="-3.53122">
        <ele>169.5</ele>
        <time>2018-06-01T12:20:57Z</time>
      </trkpt>
      <trkpt lat="47.96006" lon="-3.53119">
        <ele>169.66</ele>
        <time>2018-06-01T12:21:07Z</time>
      </trkpt>
      <trkpt lat="47.96007" lon="-3.53111">
        <ele>169.67</ele>
        <time>2018-06-01T12:21:11Z</time>
      </trkpt>
      <trkpt lat="47.96011" lon="-3.53075">
        <ele>170.31</ele>
        <time>2018-06-01T12:21:30Z</time>
      </trkpt>
      <trkpt lat="47.96018" lon="-3.53038">
        <ele>171.1</ele>
        <time>2018-06-01T12:21:49Z</time>
      </trkpt>
      <trkpt lat="47.96025" lon="-3.52999">
        <ele>172.02</ele>
        <time>2018-06-01T12:22:06Z</time>
      </trkpt>
      <trkpt lat="47.96029" lon="-3.52994">
        <ele>172.6</ele>
        <time>2018-06-01T12:22:20Z</time>
      </trkpt>
      <trkpt lat="47.96042" lon="-3.52958">
        <ele>173.97</ele>
        <time>2018-06-01T12:27:47Z</time>
      </trkpt>
      <trkpt lat="47.96058" lon="-3.52925">
        <ele>174.71</ele>
        <time>2018-06-01T12:28:04Z</time>
      </trkpt>
      <trkpt lat="47.96068" lon="-3.52894">
        <ele>175.86</ele>
        <time>2018-06-01T12:28:19Z</time>
      </trkpt>
      <trkpt lat="47.96075" lon="-3.52862">
        <ele>176.52</ele>
        <time>2018-06-01T12:28:34Z</time>
      </trkpt>
      <trkpt lat="47.9608" lon="-3.52822">
        <ele>176.76</ele>
        <time>2018-06-01T12:28:54Z</time>
      </trkpt>
      <trkpt lat="47.96085" lon="-3.52781">
        <ele>177.11</ele>
        <time>2018-06-01T12:29:12Z</time>
      </trkpt>
      <trkpt lat="47.9609" lon="-3.52753">
        <ele>176.92</ele>
        <time>2018-06-01T12:29:25Z</time>
      </trkpt>
      <trkpt lat="47.96097" lon="-3.52712">
        <ele>176.45</ele>
        <time>2018-06-01T12:29:44Z</time>
      </trkpt>
      <trkpt lat="47.96099" lon="-3.52706">
        <ele>176.07</ele>
        <time>2018-06-01T12:29:47Z</time>
      </trkpt>
      <trkpt lat="47.96104" lon="-3.52677">
        <ele>174.85</ele>
        <time>2018-06-01T12:30:02Z</time>
      </trkpt>
      <trkpt lat="47.9611" lon="-3.52641">
        <ele>173.5</ele>
        <time>2018-06-01T12:30:18Z</time>
      </trkpt>
      <trkpt lat="47.96122" lon="-3.52599">
        <ele>172.83</ele>
        <time>2018-06-01T12:30:35Z</time>
      </trkpt>
      <trkpt lat="47.96133" lon="-3.52567">
        <ele>173.09</ele>
        <time>2018-06-01T12:30:49Z</time>
      </trkpt>
      <trkpt lat="47.96142" lon="-3.52538">
        <ele>173.75</ele>
        <time>2018-06-01T12:31:03Z</time>
      </trkpt>
      <trkpt lat="47.96153" lon="-3.5251">
        <ele>175.24</ele>
        <time>2018-06-01T12:31:18Z</time>
      </trkpt>
      <trkpt lat="47.96162" lon="-3.5248">
        <ele>176.97</ele>
        <time>2018-06-01T12:31:32Z</time>
      </trkpt>
      <trkpt lat="47.96172" lon="-3.52449">
        <ele>178.66</ele>
        <time>2018-06-01T12:31:46Z</time>
      </trkpt>
      <trkpt lat="47.9618" lon="-3.52417">
        <ele>180.65</ele>
        <time>2018-06-01T12:32:01Z</time>
      </trkpt>
      <trkpt lat="47.9618" lon="-3.52414">
        <ele>180.82</ele>
        <time>2018-06-01T12:32:02Z</time>
      </trkpt>
      <trkpt lat="47.96181" lon="-3.52409">
        <ele>181.23</ele>
        <time>2018-06-01T12:32:05Z</time>
      </trkpt>
      <trkpt lat="47.96178" lon="-3.52402">
        <ele>181.97</ele>
        <time>2018-06-01T12:32:11Z</time>
      </trkpt>
      <trkpt lat="47.96164" lon="-3.524">
        <ele>184.14</ele>
        <time>2018-06-01T12:32:25Z</time>
      </trkpt>
      <trkpt lat="47.96149" lon="-3.524">
        <ele>185.92</ele>
        <time>2018-06-01T12:32:38Z</time>
      </trkpt>
      <trkpt lat="47.96133" lon="-3.524">
        <ele>186.09</ele>
        <time>2018-06-01T12:32:50Z</time>
      </trkpt>
      <trkpt lat="47.96119" lon="-3.52392">
        <ele>186.23</ele>
        <time>2018-06-01T12:32:58Z</time>
      </trkpt>
      <trkpt lat="47.96108" lon="-3.5237">
        <ele>187.03</ele>
        <time>2018-06-01T12:33:14Z</time>
      </trkpt>
      <trkpt lat="47.96104" lon="-3.52363">
        <ele>187.21</ele>
        <time>2018-06-01T12:33:19Z</time>
      </trkpt>
      <trkpt lat="47.96101" lon="-3.52356">
        <ele>187.24</ele>
        <time>2018-06-01T12:33:23Z</time>
      </trkpt>
      <trkpt lat="47.96089" lon="-3.52312">
        <ele>187.5</ele>
        <time>2018-06-01T12:33:42Z</time>
      </trkpt>
      <trkpt lat="47.96083" lon="-3.523">
        <ele>187.52</ele>
        <time>2018-06-01T12:33:46Z</time>
      </trkpt>
      <trkpt lat="47.9606" lon="-3.5229">
        <ele>187.24</ele>
        <time>2018-06-01T12:34:00Z</time>
      </trkpt>
      <trkpt lat="47.96036" lon="-3.52283">
        <ele>185.99</ele>
        <time>2018-06-01T12:34:11Z</time>
      </trkpt>
      <trkpt lat="47.96017" lon="-3.52276">
        <ele>185.05</ele>
        <time>2018-06-01T12:34:20Z</time>
      </trkpt>
      <trkpt lat="47.96006" lon="-3.52276">
        <ele>184.49</ele>
        <time>2018-06-01T12:34:24Z</time>
      </trkpt>
      <trkpt lat="47.96002" lon="-3.52278">
        <ele>184.29</ele>
        <time>2018-06-01T12:34:25Z</time>
      </trkpt>
      <trkpt lat="47.95999" lon="-3.52278">
        <ele>184.05</ele>
        <time>2018-06-01T12:34:26Z</time>
      </trkpt>
      <trkpt lat="47.95997" lon="-3.52278">
        <ele>183.84</ele>
        <time>2018-06-01T12:34:27Z</time>
      </trkpt>
      <trkpt lat="47.95995" lon="-3.52278">
        <ele>183.66</ele>
        <time>2018-06-01T12:34:28Z</time>
      </trkpt>
      <trkpt lat="47.95975" lon="-3.5227">
        <ele>182.59</ele>
        <time>2018-06-01T12:34:38Z</time>
      </trkpt>
      <trkpt lat="47.95952" lon="-3.52248">
        <ele>179.61</ele>
        <time>2018-06-01T12:34:49Z</time>
      </trkpt>
      <trkpt lat="47.95948" lon="-3.52245">
        <ele>179.18</ele>
        <time>2018-06-01T12:34:51Z</time>
      </trkpt>
      <trkpt lat="47.95937" lon="-3.52237">
        <ele>178.44</ele>
        <time>2018-06-01T12:34:55Z</time>
      </trkpt>
      <trkpt lat="47.95903" lon="-3.52208">
        <ele>176.69</ele>
        <time>2018-06-01T12:35:07Z</time>
      </trkpt>
      <trkpt lat="47.95871" lon="-3.52179">
        <ele>175.4</ele>
        <time>2018-06-01T12:35:18Z</time>
      </trkpt>
      <trkpt lat="47.95832" lon="-3.52148">
        <ele>174.01</ele>
        <time>2018-06-01T12:35:28Z</time>
      </trkpt>
      <trkpt lat="47.95787" lon="-3.52118">
        <ele>173.14</ele>
        <time>2018-06-01T12:35:41Z</time>
      </trkpt>
      <trkpt lat="47.95748" lon="-3.52102">
        <ele>172.63</ele>
        <time>2018-06-01T12:35:52Z</time>
      </trkpt>
      <trkpt lat="47.95727" lon="-3.52101">
        <ele>172.3</ele>
        <time>2018-06-01T12:36:00Z</time>
      </trkpt>
      <trkpt lat="47.95715" lon="-3.52103">
        <ele>171.95</ele>
        <time>2018-06-01T12:36:04Z</time>
      </trkpt>
      <trkpt lat="47.95693" lon="-3.52109">
        <ele>171.53</ele>
        <time>2018-06-01T12:36:12Z</time>
      </trkpt>
      <trkpt lat="47.95667" lon="-3.52102">
        <ele>170.84</ele>
        <time>2018-06-01T12:36:22Z</time>
      </trkpt>
      <trkpt lat="47.95661" lon="-3.52099">
        <ele>170.53</ele>
        <time>2018-06-01T12:36:24Z</time>
      </trkpt>
      <trkpt lat="47.95617" lon="-3.52087">
        <ele>169.2</ele>
        <time>2018-06-01T12:36:37Z</time>
      </trkpt>
      <trkpt lat="47.9559" lon="-3.52075">
        <ele>168.63</ele>
        <time>2018-06-01T12:36:46Z</time>
      </trkpt>
      <trkpt lat="47.95544" lon="-3.52054">
        <ele>168.18</ele>
        <time>2018-06-01T12:36:58Z</time>
      </trkpt>
      <trkpt lat="47.9551" lon="-3.52045">
        <ele>167.73</ele>
        <time>2018-06-01T12:37:08Z</time>
      </trkpt>
      <trkpt lat="47.95475" lon="-3.52034">
        <ele>166.85</ele>
        <time>2018-06-01T12:37:18Z</time>
      </trkpt>
      <trkpt lat="47.95434" lon="-3.52013">
        <ele>165.82</ele>
        <time>2018-06-01T12:37:29Z</time>
      </trkpt>
      <trkpt lat="47.95412" lon="-3.52001">
        <ele>165.48</ele>
        <time>2018-06-01T12:37:38Z</time>
      </trkpt>
      <trkpt lat="47.95407" lon="-3.52">
        <ele>165.43</ele>
        <time>2018-06-01T12:37:43Z</time>
      </trkpt>
      <trkpt lat="47.95403" lon="-3.51997">
        <ele>165.33</ele>
        <time>2018-06-01T12:37:46Z</time>
      </trkpt>
      <trkpt lat="47.9538" lon="-3.51983">
        <ele>165.53</ele>
        <time>2018-06-01T12:38:05Z</time>
      </trkpt>
      <trkpt lat="47.95365" lon="-3.51977">
        <ele>164.94</ele>
        <time>2018-06-01T12:38:25Z</time>
      </trkpt>
      <trkpt lat="47.95364" lon="-3.51978">
        <ele>164.9</ele>
        <time>2018-06-01T12:38:44Z</time>
      </trkpt>
      <trkpt lat="47.95363" lon="-3.51976">
        <ele>164.55</ele>
        <time>2018-06-01T12:39:17Z</time>
      </trkpt>
      <trkpt lat="47.95352" lon="-3.51971">
        <ele>164.49</ele>
        <time>2018-06-01T12:39:36Z</time>
      </trkpt>
      <trkpt lat="47.95345" lon="-3.5197">
        <ele>164.3</ele>
        <time>2018-06-01T12:39:43Z</time>
      </trkpt>
      <trkpt lat="47.95319" lon="-3.51968">
        <ele>163.74</ele>
        <time>2018-06-01T12:39:59Z</time>
      </trkpt>
      <trkpt lat="47.95316" lon="-3.51968">
        <ele>163.71</ele>
        <time>2018-06-01T12:40:01Z</time>
      </trkpt>
      <trkpt lat="47.95307" lon="-3.51965">
        <ele>163.69</ele>
        <time>2018-06-01T12:40:05Z</time>
      </trkpt>
      <trkpt lat="47.95298" lon="-3.51963">
        <ele>163.57</ele>
        <time>2018-06-01T12:40:09Z</time>
      </trkpt>
      <trkpt lat="47.95287" lon="-3.51955">
        <ele>162.82</ele>
        <time>2018-06-01T12:40:21Z</time>
      </trkpt>
      <trkpt lat="47.95285" lon="-3.51945">
        <ele>162.64</ele>
        <time>2018-06-01T12:40:26Z</time>
      </trkpt>
      <trkpt lat="47.95282" lon="-3.51925">
        <ele>163.17</ele>
        <time>2018-06-01T12:40:38Z</time>
      </trkpt>
      <trkpt lat="47.95282" lon="-3.51919">
        <ele>163.2</ele>
        <time>2018-06-01T12:40:41Z</time>
      </trkpt>
      <trkpt lat="47.95288" lon="-3.51915">
        <ele>163.28</ele>
        <time>2018-06-01T12:40:47Z</time>
      </trkpt>
      <trkpt lat="47.95306" lon="-3.5191">
        <ele>163.7</ele>
        <time>2018-06-01T12:41:00Z</time>
      </trkpt>
      <trkpt lat="47.95326" lon="-3.51908">
        <ele>163.98</ele>
        <time>2018-06-01T12:41:15Z</time>
      </trkpt>
      <trkpt lat="47.95346" lon="-3.51909">
        <ele>164.66</ele>
        <time>2018-06-01T12:41:28Z</time>
      </trkpt>
      <trkpt lat="47.95365" lon="-3.5191">
        <ele>164.82</ele>
        <time>2018-06-01T12:41:42Z</time>
      </trkpt>
      <trkpt lat="47.95378" lon="-3.5191">
        <ele>165.09</ele>
        <time>2018-06-01T12:41:50Z</time>
      </trkpt>
      <trkpt lat="47.95385" lon="-3.51905">
        <ele>165.02</ele>
        <time>2018-06-01T12:41:55Z</time>
      </trkpt>
      <trkpt lat="47.95394" lon="-3.519">
        <ele>164.74</ele>
        <time>2018-06-01T12:42:02Z</time>
      </trkpt>
      <trkpt lat="47.95412" lon="-3.5189">
        <ele>163.96</ele>
        <time>2018-06-01T12:42:14Z</time>
      </trkpt>
      <trkpt lat="47.95414" lon="-3.51889">
        <ele>163.91</ele>
        <time>2018-06-01T12:42:15Z</time>
      </trkpt>
      <trkpt lat="47.95429" lon="-3.51872">
        <ele>163.73</ele>
        <time>2018-06-01T12:42:28Z</time>
      </trkpt>
      <trkpt lat="47.95431" lon="-3.51869">
        <ele>163.79</ele>
        <time>2018-06-01T12:42:30Z</time>
      </trkpt>
      <trkpt lat="47.95433" lon="-3.51867">
        <ele>163.81</ele>
        <time>2018-06-01T12:42:32Z</time>
      </trkpt>
      <trkpt lat="47.95448" lon="-3.51848">
        <ele>163.76</ele>
        <time>2018-06-01T12:42:46Z</time>
      </trkpt>
      <trkpt lat="47.95458" lon="-3.51836">
        <ele>163.92</ele>
        <time>2018-06-01T12:42:55Z</time>
      </trkpt>
      <trkpt lat="47.9547" lon="-3.5182">
        <ele>164.91</ele>
        <time>2018-06-01T12:43:08Z</time>
      </trkpt>
      <trkpt lat="47.95479" lon="-3.51808">
        <ele>165.45</ele>
        <time>2018-06-01T12:43:16Z</time>
      </trkpt>
      <trkpt lat="47.95487" lon="-3.51794">
        <ele>166.03</ele>
        <time>2018-06-01T12:43:25Z</time>
      </trkpt>
      <trkpt lat="47.95492" lon="-3.51786">
        <ele>166.2</ele>
        <time>2018-06-01T12:43:29Z</time>
      </trkpt>
      <trkpt lat="47.95507" lon="-3.5176">
        <ele>166.79</ele>
        <time>2018-06-01T12:43:45Z</time>
      </trkpt>
      <trkpt lat="47.95524" lon="-3.51735">
        <ele>167.09</ele>
        <time>2018-06-01T12:44:01Z</time>
      </trkpt>
      <trkpt lat="47.95539" lon="-3.51709">
        <ele>167.31</ele>
        <time>2018-06-01T12:44:17Z</time>
      </trkpt>
      <trkpt lat="47.95547" lon="-3.51688">
        <ele>167.43</ele>
        <time>2018-06-01T12:44:29Z</time>
      </trkpt>
      <trkpt lat="47.95548" lon="-3.51684">
        <ele>167.29</ele>
        <time>2018-06-01T12:44:31Z</time>
      </trkpt>
      <trkpt lat="47.95555" lon="-3.51656">
        <ele>166.44</ele>
        <time>2018-06-01T12:44:45Z</time>
      </trkpt>
      <trkpt lat="47.95558" lon="-3.51647">
        <ele>166.25</ele>
        <time>2018-06-01T12:44:49Z</time>
      </trkpt>
      <trkpt lat="47.95565" lon="-3.5163">
        <ele>165.55</ele>
        <time>2018-06-01T12:44:58Z</time>
      </trkpt>
      <trkpt lat="47.95571" lon="-3.51622">
        <ele>164.87</ele>
        <time>2018-06-01T12:45:05Z</time>
      </trkpt>
      <trkpt lat="47.95574" lon="-3.51614">
        <ele>164.62</ele>
        <time>2018-06-01T12:45:09Z</time>
      </trkpt>
      <trkpt lat="47.9558" lon="-3.51599">
        <ele>164.46</ele>
        <time>2018-06-01T12:45:18Z</time>
      </trkpt>
      <trkpt lat="47.95581" lon="-3.51584">
        <ele>164.44</ele>
        <time>2018-06-01T12:45:24Z</time>
      </trkpt>
      <trkpt lat="47.95576" lon="-3.5156">
        <ele>165.83</ele>
        <time>2018-06-01T12:45:37Z</time>
      </trkpt>
      <trkpt lat="47.9556" lon="-3.51534">
        <ele>167.28</ele>
        <time>2018-06-01T12:45:57Z</time>
      </trkpt>
      <trkpt lat="47.95555" lon="-3.51505">
        <ele>168.46</ele>
        <time>2018-06-01T12:46:10Z</time>
      </trkpt>
      <trkpt lat="47.95561" lon="-3.51489">
        <ele>168.75</ele>
        <time>2018-06-01T12:46:16Z</time>
      </trkpt>
      <trkpt lat="47.95573" lon="-3.51451">
        <ele>168.97</ele>
        <time>2018-06-01T12:46:33Z</time>
      </trkpt>
      <trkpt lat="47.95584" lon="-3.51411">
        <ele>168.59</ele>
        <time>2018-06-01T12:46:51Z</time>
      </trkpt>
      <trkpt lat="47.95595" lon="-3.51366">
        <ele>168.66</ele>
        <time>2018-06-01T12:47:11Z</time>
      </trkpt>
      <trkpt lat="47.95602" lon="-3.51351">
        <ele>168.42</ele>
        <time>2018-06-01T12:47:20Z</time>
      </trkpt>
      <trkpt lat="47.95612" lon="-3.51328">
        <ele>168.82</ele>
        <time>2018-06-01T12:47:33Z</time>
      </trkpt>
      <trkpt lat="47.95617" lon="-3.51314">
        <ele>168.79</ele>
        <time>2018-06-01T12:47:40Z</time>
      </trkpt>
      <trkpt lat="47.95632" lon="-3.51267">
        <ele>167.87</ele>
        <time>2018-06-01T12:48:00Z</time>
      </trkpt>
      <trkpt lat="47.95644" lon="-3.51232">
        <ele>167.3</ele>
        <time>2018-06-01T12:48:15Z</time>
      </trkpt>
      <trkpt lat="47.95659" lon="-3.51188">
        <ele>166.88</ele>
        <time>2018-06-01T12:48:34Z</time>
      </trkpt>
      <trkpt lat="47.95671" lon="-3.51146">
        <ele>166.65</ele>
        <time>2018-06-01T12:48:53Z</time>
      </trkpt>
      <trkpt lat="47.95686" lon="-3.5109">
        <ele>167.34</ele>
        <time>2018-06-01T12:49:17Z</time>
      </trkpt>
      <trkpt lat="47.95692" lon="-3.51051">
        <ele>167.8</ele>
        <time>2018-06-01T12:49:34Z</time>
      </trkpt>
      <trkpt lat="47.95702" lon="-3.51003">
        <ele>168.16</ele>
        <time>2018-06-01T12:49:54Z</time>
      </trkpt>
      <trkpt lat="47.95706" lon="-3.5096">
        <ele>168.22</ele>
        <time>2018-06-01T12:50:11Z</time>
      </trkpt>
      <trkpt lat="47.95711" lon="-3.5092">
        <ele>168.53</ele>
        <time>2018-06-01T12:50:27Z</time>
      </trkpt>
      <trkpt lat="47.95716" lon="-3.50892">
        <ele>168.98</ele>
        <time>2018-06-01T12:50:40Z</time>
      </trkpt>
      <trkpt lat="47.95718" lon="-3.50885">
        <ele>169.07</ele>
        <time>2018-06-01T12:50:43Z</time>
      </trkpt>
      <trkpt lat="47.95727" lon="-3.50853">
        <ele>169.46</ele>
        <time>2018-06-01T12:50:58Z</time>
      </trkpt>
      <trkpt lat="47.95733" lon="-3.50837">
        <ele>169.73</ele>
        <time>2018-06-01T12:51:05Z</time>
      </trkpt>
      <trkpt lat="47.95741" lon="-3.50806">
        <ele>169.79</ele>
        <time>2018-06-01T12:51:20Z</time>
      </trkpt>
      <trkpt lat="47.9575" lon="-3.50782">
        <ele>169.18</ele>
        <time>2018-06-01T12:51:30Z</time>
      </trkpt>
      <trkpt lat="47.95763" lon="-3.50738">
        <ele>168.03</ele>
        <time>2018-06-01T12:51:48Z</time>
      </trkpt>
      <trkpt lat="47.95769" lon="-3.50693">
        <ele>166.44</ele>
        <time>2018-06-01T12:52:06Z</time>
      </trkpt>
      <trkpt lat="47.95773" lon="-3.50644">
        <ele>165.05</ele>
        <time>2018-06-01T12:52:23Z</time>
      </trkpt>
      <trkpt lat="47.95775" lon="-3.50608">
        <ele>163.98</ele>
        <time>2018-06-01T12:52:35Z</time>
      </trkpt>
      <trkpt lat="47.95768" lon="-3.50565">
        <ele>162.76</ele>
        <time>2018-06-01T12:52:53Z</time>
      </trkpt>
      <trkpt lat="47.95756" lon="-3.50543">
        <ele>161.61</ele>
        <time>2018-06-01T12:53:04Z</time>
      </trkpt>
      <trkpt lat="47.95736" lon="-3.5052">
        <ele>159.94</ele>
        <time>2018-06-01T12:53:19Z</time>
      </trkpt>
      <trkpt lat="47.95729" lon="-3.50511">
        <ele>159.3</ele>
        <time>2018-06-01T12:53:24Z</time>
      </trkpt>
      <trkpt lat="47.95727" lon="-3.5051">
        <ele>159.11</ele>
        <time>2018-06-01T12:53:25Z</time>
      </trkpt>
      <trkpt lat="47.95725" lon="-3.50509">
        <ele>158.92</ele>
        <time>2018-06-01T12:53:26Z</time>
      </trkpt>
      <trkpt lat="47.95691" lon="-3.50507">
        <ele>156.41</ele>
        <time>2018-06-01T12:53:43Z</time>
      </trkpt>
      <trkpt lat="47.95659" lon="-3.50513">
        <ele>154.55</ele>
        <time>2018-06-01T12:54:00Z</time>
      </trkpt>
      <trkpt lat="47.95622" lon="-3.50521">
        <ele>152.2</ele>
        <time>2018-06-01T12:54:20Z</time>
      </trkpt>
      <trkpt lat="47.95584" lon="-3.50523">
        <ele>150.59</ele>
        <time>2018-06-01T12:54:41Z</time>
      </trkpt>
      <trkpt lat="47.95559" lon="-3.50523">
        <ele>148.87</ele>
        <time>2018-06-01T12:54:58Z</time>
      </trkpt>
      <trkpt lat="47.95559" lon="-3.50521">
        <ele>148.76</ele>
        <time>2018-06-01T12:54:59Z</time>
      </trkpt>
      <trkpt lat="47.95564" lon="-3.50506">
        <ele>147.86</ele>
        <time>2018-06-01T12:55:07Z</time>
      </trkpt>
      <trkpt lat="47.95569" lon="-3.50502">
        <ele>147.63</ele>
        <time>2018-06-01T12:55:10Z</time>
      </trkpt>
      <trkpt lat="47.9557" lon="-3.5048">
        <ele>147.08</ele>
        <time>2018-06-01T12:55:19Z</time>
      </trkpt>
      <trkpt lat="47.95576" lon="-3.50437">
        <ele>147.74</ele>
        <time>2018-06-01T12:55:38Z</time>
      </trkpt>
      <trkpt lat="47.95592" lon="-3.504">
        <ele>148.33</ele>
        <time>2018-06-01T12:55:53Z</time>
      </trkpt>
      <trkpt lat="47.95598" lon="-3.50373">
        <ele>149.86</ele>
        <time>2018-06-01T12:55:59Z</time>
      </trkpt>
      <trkpt lat="47.95598" lon="-3.50341">
        <ele>151.37</ele>
        <time>2018-06-01T12:56:04Z</time>
      </trkpt>
      <trkpt lat="47.95597" lon="-3.50335">
        <ele>151.83</ele>
        <time>2018-06-01T12:56:05Z</time>
      </trkpt>
      <trkpt lat="47.95589" lon="-3.503">
        <ele>154.86</ele>
        <time>2018-06-01T12:56:11Z</time>
      </trkpt>
      <trkpt lat="47.95559" lon="-3.50267">
        <ele>158.1</ele>
        <time>2018-06-01T12:56:20Z</time>
      </trkpt>
      <trkpt lat="47.9553" lon="-3.50239">
        <ele>159.9</ele>
        <time>2018-06-01T12:56:29Z</time>
      </trkpt>
      <trkpt lat="47.95529" lon="-3.50234">
        <ele>159.98</ele>
        <time>2018-06-01T12:56:30Z</time>
      </trkpt>
      <trkpt lat="47.95528" lon="-3.50229">
        <ele>160.03</ele>
        <time>2018-06-01T12:56:31Z</time>
      </trkpt>
      <trkpt lat="47.95517" lon="-3.50159">
        <ele>157.54</ele>
        <time>2018-06-01T12:56:44Z</time>
      </trkpt>
      <trkpt lat="47.95513" lon="-3.50124">
        <ele>155.86</ele>
        <time>2018-06-01T12:56:50Z</time>
      </trkpt>
      <trkpt lat="47.95511" lon="-3.5011">
        <ele>155.48</ele>
        <time>2018-06-01T12:56:52Z</time>
      </trkpt>
      <trkpt lat="47.95509" lon="-3.50103">
        <ele>155.26</ele>
        <time>2018-06-01T12:56:53Z</time>
      </trkpt>
      <trkpt lat="47.95505" lon="-3.50096">
        <ele>155.02</ele>
        <time>2018-06-01T12:56:54Z</time>
      </trkpt>
      <trkpt lat="47.95502" lon="-3.50089">
        <ele>154.78</ele>
        <time>2018-06-01T12:56:55Z</time>
      </trkpt>
      <trkpt lat="47.95498" lon="-3.50084">
        <ele>154.54</ele>
        <time>2018-06-01T12:56:56Z</time>
      </trkpt>
      <trkpt lat="47.95494" lon="-3.5008">
        <ele>154.35</ele>
        <time>2018-06-01T12:56:57Z</time>
      </trkpt>
      <trkpt lat="47.95489" lon="-3.50076">
        <ele>154.19</ele>
        <time>2018-06-01T12:56:58Z</time>
      </trkpt>
      <trkpt lat="47.95485" lon="-3.50072">
        <ele>154.07</ele>
        <time>2018-06-01T12:56:59Z</time>
      </trkpt>
      <trkpt lat="47.95482" lon="-3.50067">
        <ele>154.04</ele>
        <time>2018-06-01T12:57:00Z</time>
      </trkpt>
      <trkpt lat="47.95479" lon="-3.50061">
        <ele>154.09</ele>
        <time>2018-06-01T12:57:01Z</time>
      </trkpt>
      <trkpt lat="47.95477" lon="-3.50054">
        <ele>154.18</ele>
        <time>2018-06-01T12:57:02Z</time>
      </trkpt>
      <trkpt lat="47.95476" lon="-3.5004">
        <ele>154.32</ele>
        <time>2018-06-01T12:57:04Z</time>
      </trkpt>
      <trkpt lat="47.95476" lon="-3.50032">
        <ele>154.35</ele>
        <time>2018-06-01T12:57:05Z</time>
      </trkpt>
      <trkpt lat="47.95475" lon="-3.50024">
        <ele>154.35</ele>
        <time>2018-06-01T12:57:06Z</time>
      </trkpt>
      <trkpt lat="47.95474" lon="-3.50016">
        <ele>154.23</ele>
        <time>2018-06-01T12:57:07Z</time>
      </trkpt>
      <trkpt lat="47.95474" lon="-3.50008">
        <ele>154.23</ele>
        <time>2018-06-01T12:57:08Z</time>
      </trkpt>
      <trkpt lat="47.95472" lon="-3.5">
        <ele>153.9</ele>
        <time>2018-06-01T12:57:09Z</time>
      </trkpt>
      <trkpt lat="47.95471" lon="-3.49986">
        <ele>153.62</ele>
        <time>2018-06-01T12:57:11Z</time>
      </trkpt>
      <trkpt lat="47.95471" lon="-3.49978">
        <ele>153.52</ele>
        <time>2018-06-01T12:57:12Z</time>
      </trkpt>
      <trkpt lat="47.95471" lon="-3.49969">
        <ele>153.44</ele>
        <time>2018-06-01T12:57:13Z</time>
      </trkpt>
      <trkpt lat="47.95471" lon="-3.49945">
        <ele>153.29</ele>
        <time>2018-06-01T12:57:16Z</time>
      </trkpt>
      <trkpt lat="47.95474" lon="-3.49869">
        <ele>153.79</ele>
        <time>2018-06-01T12:57:27Z</time>
      </trkpt>
      <trkpt lat="47.95462" lon="-3.49796">
        <ele>153.2</ele>
        <time>2018-06-01T12:57:39Z</time>
      </trkpt>
      <trkpt lat="47.95456" lon="-3.49727">
        <ele>153.01</ele>
        <time>2018-06-01T12:57:50Z</time>
      </trkpt>
      <trkpt lat="47.95451" lon="-3.49652">
        <ele>152.12</ele>
        <time>2018-06-01T12:58:03Z</time>
      </trkpt>
      <trkpt lat="47.95441" lon="-3.49616">
        <ele>150.93</ele>
        <time>2018-06-01T12:58:11Z</time>
      </trkpt>
      <trkpt lat="47.95437" lon="-3.49615">
        <ele>150.73</ele>
        <time>2018-06-01T12:58:12Z</time>
      </trkpt>
      <trkpt lat="47.95433" lon="-3.49613">
        <ele>150.56</ele>
        <time>2018-06-01T12:58:13Z</time>
      </trkpt>
      <trkpt lat="47.95429" lon="-3.49613">
        <ele>150.4</ele>
        <time>2018-06-01T12:58:14Z</time>
      </trkpt>
      <trkpt lat="47.95425" lon="-3.49612">
        <ele>150.27</ele>
        <time>2018-06-01T12:58:15Z</time>
      </trkpt>
      <trkpt lat="47.9542" lon="-3.49612">
        <ele>150.16</ele>
        <time>2018-06-01T12:58:16Z</time>
      </trkpt>
      <trkpt lat="47.95416" lon="-3.49611">
        <ele>150.07</ele>
        <time>2018-06-01T12:58:17Z</time>
      </trkpt>
      <trkpt lat="47.95412" lon="-3.49611">
        <ele>150</ele>
        <time>2018-06-01T12:58:18Z</time>
      </trkpt>
      <trkpt lat="47.95407" lon="-3.49611">
        <ele>149.95</ele>
        <time>2018-06-01T12:58:19Z</time>
      </trkpt>
      <trkpt lat="47.95403" lon="-3.49612">
        <ele>149.91</ele>
        <time>2018-06-01T12:58:20Z</time>
      </trkpt>
      <trkpt lat="47.95399" lon="-3.49614">
        <ele>149.93</ele>
        <time>2018-06-01T12:58:21Z</time>
      </trkpt>
      <trkpt lat="47.95394" lon="-3.49614">
        <ele>149.97</ele>
        <time>2018-06-01T12:58:22Z</time>
      </trkpt>
      <trkpt lat="47.9539" lon="-3.49615">
        <ele>150.01</ele>
        <time>2018-06-01T12:58:23Z</time>
      </trkpt>
      <trkpt lat="47.95385" lon="-3.49616">
        <ele>150.1</ele>
        <time>2018-06-01T12:58:24Z</time>
      </trkpt>
      <trkpt lat="47.9536" lon="-3.49624">
        <ele>150.39</ele>
        <time>2018-06-01T12:58:29Z</time>
      </trkpt>
      <trkpt lat="47.95342" lon="-3.49632">
        <ele>150.84</ele>
        <time>2018-06-01T12:58:33Z</time>
      </trkpt>
      <trkpt lat="47.95323" lon="-3.49637">
        <ele>151.65</ele>
        <time>2018-06-01T12:58:37Z</time>
      </trkpt>
      <trkpt lat="47.95267" lon="-3.49635">
        <ele>153.74</ele>
        <time>2018-06-01T12:58:49Z</time>
      </trkpt>
      <trkpt lat="47.95214" lon="-3.49638">
        <ele>153.46</ele>
        <time>2018-06-01T12:59:01Z</time>
      </trkpt>
      <trkpt lat="47.95173" lon="-3.49644">
        <ele>153.43</ele>
        <time>2018-06-01T12:59:11Z</time>
      </trkpt>
      <trkpt lat="47.95133" lon="-3.49644">
        <ele>154.02</ele>
        <time>2018-06-01T12:59:21Z</time>
      </trkpt>
      <trkpt lat="47.95087" lon="-3.4965">
        <ele>153.69</ele>
        <time>2018-06-01T12:59:32Z</time>
      </trkpt>
      <trkpt lat="47.9505" lon="-3.49665">
        <ele>153.32</ele>
        <time>2018-06-01T12:59:42Z</time>
      </trkpt>
      <trkpt lat="47.95003" lon="-3.49677">
        <ele>153.33</ele>
        <time>2018-06-01T12:59:54Z</time>
      </trkpt>
      <trkpt lat="47.94956" lon="-3.49682">
        <ele>152.79</ele>
        <time>2018-06-01T13:00:08Z</time>
      </trkpt>
      <trkpt lat="47.94925" lon="-3.49672">
        <ele>152.23</ele>
        <time>2018-06-01T13:00:17Z</time>
      </trkpt>
      <trkpt lat="47.94879" lon="-3.4965">
        <ele>151.39</ele>
        <time>2018-06-01T13:00:30Z</time>
      </trkpt>
      <trkpt lat="47.94863" lon="-3.49649">
        <ele>151.25</ele>
        <time>2018-06-01T13:00:34Z</time>
      </trkpt>
      <trkpt lat="47.94812" lon="-3.49647">
        <ele>149.37</ele>
        <time>2018-06-01T13:00:48Z</time>
      </trkpt>
      <trkpt lat="47.94803" lon="-3.49636">
        <ele>148.7</ele>
        <time>2018-06-01T13:00:52Z</time>
      </trkpt>
      <trkpt lat="47.94805" lon="-3.49605">
        <ele>146.05</ele>
        <time>2018-06-01T13:01:03Z</time>
      </trkpt>
      <trkpt lat="47.94808" lon="-3.49583">
        <ele>145.1</ele>
        <time>2018-06-01T13:01:17Z</time>
      </trkpt>
      <trkpt lat="47.94808" lon="-3.49569">
        <ele>144.57</ele>
        <time>2018-06-01T13:01:22Z</time>
      </trkpt>
      <trkpt lat="47.94805" lon="-3.4956">
        <ele>144.1</ele>
        <time>2018-06-01T13:01:26Z</time>
      </trkpt>
      <trkpt lat="47.94793" lon="-3.49529">
        <ele>142.47</ele>
        <time>2018-06-01T13:01:40Z</time>
      </trkpt>
      <trkpt lat="47.94782" lon="-3.49497">
        <ele>141.2</ele>
        <time>2018-06-01T13:01:55Z</time>
      </trkpt>
      <trkpt lat="47.94765" lon="-3.49465">
        <ele>140.21</ele>
        <time>2018-06-01T13:02:12Z</time>
      </trkpt>
      <trkpt lat="47.94739" lon="-3.49452">
        <ele>138.23</ele>
        <time>2018-06-01T13:02:31Z</time>
      </trkpt>
      <trkpt lat="47.94736" lon="-3.49451">
        <ele>137.79</ele>
        <time>2018-06-01T13:02:36Z</time>
      </trkpt>
      <trkpt lat="47.9473" lon="-3.49448">
        <ele>137.17</ele>
        <time>2018-06-01T13:02:41Z</time>
      </trkpt>
      <trkpt lat="47.9471" lon="-3.49424">
        <ele>135.99</ele>
        <time>2018-06-01T13:02:58Z</time>
      </trkpt>
      <trkpt lat="47.94684" lon="-3.49404">
        <ele>134.06</ele>
        <time>2018-06-01T13:03:17Z</time>
      </trkpt>
      <trkpt lat="47.9466" lon="-3.49383">
        <ele>132.44</ele>
        <time>2018-06-01T13:03:35Z</time>
      </trkpt>
      <trkpt lat="47.94645" lon="-3.49365">
        <ele>130.67</ele>
        <time>2018-06-01T13:03:48Z</time>
      </trkpt>
      <trkpt lat="47.94632" lon="-3.49346">
        <ele>129.08</ele>
        <time>2018-06-01T13:04:03Z</time>
      </trkpt>
      <trkpt lat="47.94626" lon="-3.49336">
        <ele>127.97</ele>
        <time>2018-06-01T13:04:10Z</time>
      </trkpt>
      <trkpt lat="47.9461" lon="-3.49318">
        <ele>125.29</ele>
        <time>2018-06-01T13:04:22Z</time>
      </trkpt>
      <trkpt lat="47.94599" lon="-3.49296">
        <ele>122.55</ele>
        <time>2018-06-01T13:04:35Z</time>
      </trkpt>
      <trkpt lat="47.94597" lon="-3.49289">
        <ele>120.89</ele>
        <time>2018-06-01T13:04:40Z</time>
      </trkpt>
      <trkpt lat="47.94583" lon="-3.49263">
        <ele>117.44</ele>
        <time>2018-06-01T13:04:55Z</time>
      </trkpt>
      <trkpt lat="47.9457" lon="-3.49247">
        <ele>114.37</ele>
        <time>2018-06-01T13:05:05Z</time>
      </trkpt>
      <trkpt lat="47.94564" lon="-3.4924">
        <ele>112.52</ele>
        <time>2018-06-01T13:05:11Z</time>
      </trkpt>
      <trkpt lat="47.94553" lon="-3.49221">
        <ele>109.01</ele>
        <time>2018-06-01T13:05:21Z</time>
      </trkpt>
      <trkpt lat="47.94553" lon="-3.49213">
        <ele>107.64</ele>
        <time>2018-06-01T13:05:26Z</time>
      </trkpt>
      <trkpt lat="47.94561" lon="-3.4919">
        <ele>108.03</ele>
        <time>2018-06-01T13:05:41Z</time>
      </trkpt>
      <trkpt lat="47.94565" lon="-3.49187">
        <ele>108.59</ele>
        <time>2018-06-01T13:05:45Z</time>
      </trkpt>
      <trkpt lat="47.94585" lon="-3.49174">
        <ele>111.1</ele>
        <time>2018-06-01T13:06:06Z</time>
      </trkpt>
      <trkpt lat="47.94607" lon="-3.49158">
        <ele>112.01</ele>
        <time>2018-06-01T13:06:22Z</time>
      </trkpt>
      <trkpt lat="47.94633" lon="-3.49133">
        <ele>113.34</ele>
        <time>2018-06-01T13:06:42Z</time>
      </trkpt>
      <trkpt lat="47.94647" lon="-3.4912">
        <ele>114.68</ele>
        <time>2018-06-01T13:06:53Z</time>
      </trkpt>
      <trkpt lat="47.9465" lon="-3.49114">
        <ele>114.91</ele>
        <time>2018-06-01T13:06:56Z</time>
      </trkpt>
      <trkpt lat="47.94671" lon="-3.49081">
        <ele>117.62</ele>
        <time>2018-06-01T13:07:16Z</time>
      </trkpt>
      <trkpt lat="47.94675" lon="-3.49071">
        <ele>117.96</ele>
        <time>2018-06-01T13:07:21Z</time>
      </trkpt>
      <trkpt lat="47.94675" lon="-3.49061">
        <ele>118.17</ele>
        <time>2018-06-01T13:07:25Z</time>
      </trkpt>
      <trkpt lat="47.94679" lon="-3.4905">
        <ele>118.26</ele>
        <time>2018-06-01T13:07:29Z</time>
      </trkpt>
      <trkpt lat="47.94684" lon="-3.4904">
        <ele>118.51</ele>
        <time>2018-06-01T13:07:36Z</time>
      </trkpt>
      <trkpt lat="47.94687" lon="-3.4903">
        <ele>118.79</ele>
        <time>2018-06-01T13:07:41Z</time>
      </trkpt>
      <trkpt lat="47.94694" lon="-3.48996">
        <ele>119.51</ele>
        <time>2018-06-01T13:07:57Z</time>
      </trkpt>
      <trkpt lat="47.94696" lon="-3.48988">
        <ele>119.68</ele>
        <time>2018-06-01T13:08:02Z</time>
      </trkpt>
      <trkpt lat="47.94717" lon="-3.4897">
        <ele>120.4</ele>
        <time>2018-06-01T13:08:19Z</time>
      </trkpt>
      <trkpt lat="47.94722" lon="-3.48967">
        <ele>120.57</ele>
        <time>2018-06-01T13:08:24Z</time>
      </trkpt>
      <trkpt lat="47.94749" lon="-3.48952">
        <ele>121.14</ele>
        <time>2018-06-01T13:08:45Z</time>
      </trkpt>
      <trkpt lat="47.94763" lon="-3.48945">
        <ele>121.69</ele>
        <time>2018-06-01T13:09:00Z</time>
      </trkpt>
      <trkpt lat="47.94794" lon="-3.48926">
        <ele>122.2</ele>
        <time>2018-06-01T13:09:18Z</time>
      </trkpt>
      <trkpt lat="47.94816" lon="-3.48907">
        <ele>123.82</ele>
        <time>2018-06-01T13:09:33Z</time>
      </trkpt>
      <trkpt lat="47.94831" lon="-3.4888">
        <ele>124.98</ele>
        <time>2018-06-01T13:09:52Z</time>
      </trkpt>
      <trkpt lat="47.9484" lon="-3.48864">
        <ele>125.7</ele>
        <time>2018-06-01T13:10:02Z</time>
      </trkpt>
      <trkpt lat="47.94848" lon="-3.48845">
        <ele>126.13</ele>
        <time>2018-06-01T13:10:11Z</time>
      </trkpt>
      <trkpt lat="47.94854" lon="-3.48835">
        <ele>126.08</ele>
        <time>2018-06-01T13:10:17Z</time>
      </trkpt>
      <trkpt lat="47.94866" lon="-3.48813">
        <ele>126.47</ele>
        <time>2018-06-01T13:10:30Z</time>
      </trkpt>
      <trkpt lat="47.94875" lon="-3.48793">
        <ele>126.93</ele>
        <time>2018-06-01T13:10:43Z</time>
      </trkpt>
      <trkpt lat="47.94876" lon="-3.48791">
        <ele>127</ele>
        <time>2018-06-01T13:10:44Z</time>
      </trkpt>
      <trkpt lat="47.94878" lon="-3.48778">
        <ele>127.87</ele>
        <time>2018-06-01T13:10:50Z</time>
      </trkpt>
      <trkpt lat="47.94883" lon="-3.48753">
        <ele>130.44</ele>
        <time>2018-06-01T13:11:06Z</time>
      </trkpt>
      <trkpt lat="47.94887" lon="-3.48725">
        <ele>132.78</ele>
        <time>2018-06-01T13:11:18Z</time>
      </trkpt>
      <trkpt lat="47.94887" lon="-3.48708">
        <ele>134.67</ele>
        <time>2018-06-01T13:11:29Z</time>
      </trkpt>
      <trkpt lat="47.9488" lon="-3.48666">
        <ele>135.3</ele>
        <time>2018-06-01T13:11:45Z</time>
      </trkpt>
      <trkpt lat="47.94866" lon="-3.4862">
        <ele>135.36</ele>
        <time>2018-06-01T13:12:02Z</time>
      </trkpt>
      <trkpt lat="47.94857" lon="-3.48588">
        <ele>136.11</ele>
        <time>2018-06-01T13:12:16Z</time>
      </trkpt>
      <trkpt lat="47.94849" lon="-3.48566">
        <ele>137.64</ele>
        <time>2018-06-01T13:12:28Z</time>
      </trkpt>
      <trkpt lat="47.94845" lon="-3.48544">
        <ele>139.34</ele>
        <time>2018-06-01T13:12:39Z</time>
      </trkpt>
      <trkpt lat="47.94827" lon="-3.48536">
        <ele>140.05</ele>
        <time>2018-06-01T13:12:52Z</time>
      </trkpt>
      <trkpt lat="47.94798" lon="-3.48541">
        <ele>139.62</ele>
        <time>2018-06-01T13:13:10Z</time>
      </trkpt>
      <trkpt lat="47.94768" lon="-3.48553">
        <ele>139.09</ele>
        <time>2018-06-01T13:13:28Z</time>
      </trkpt>
      <trkpt lat="47.94731" lon="-3.48566">
        <ele>139.41</ele>
        <time>2018-06-01T13:13:50Z</time>
      </trkpt>
      <trkpt lat="47.94715" lon="-3.48573">
        <ele>139.92</ele>
        <time>2018-06-01T13:14:05Z</time>
      </trkpt>
      <trkpt lat="47.94708" lon="-3.48576">
        <ele>139.76</ele>
        <time>2018-06-01T13:14:10Z</time>
      </trkpt>
      <trkpt lat="47.94674" lon="-3.48594">
        <ele>140.41</ele>
        <time>2018-06-01T13:14:31Z</time>
      </trkpt>
      <trkpt lat="47.9465" lon="-3.48607">
        <ele>140.36</ele>
        <time>2018-06-01T13:14:49Z</time>
      </trkpt>
      <trkpt lat="47.94649" lon="-3.48608">
        <ele>140.36</ele>
        <time>2018-06-01T13:14:51Z</time>
      </trkpt>
      <trkpt lat="47.94645" lon="-3.4861">
        <ele>140.37</ele>
        <time>2018-06-01T13:14:54Z</time>
      </trkpt>
      <trkpt lat="47.94628" lon="-3.48615">
        <ele>139.97</ele>
        <time>2018-06-01T13:15:10Z</time>
      </trkpt>
      <trkpt lat="47.94624" lon="-3.48618">
        <ele>140.38</ele>
        <time>2018-06-01T13:15:27Z</time>
      </trkpt>
      <trkpt lat="47.94622" lon="-3.48623">
        <ele>140.53</ele>
        <time>2018-06-01T13:15:51Z</time>
      </trkpt>
      <trkpt lat="47.94621" lon="-3.48624">
        <ele>140.58</ele>
        <time>2018-06-01T13:15:58Z</time>
      </trkpt>
      <trkpt lat="47.94608" lon="-3.4863">
        <ele>140.39</ele>
        <time>2018-06-01T13:16:08Z</time>
      </trkpt>
      <trkpt lat="47.9458" lon="-3.4866">
        <ele>140.38</ele>
        <time>2018-06-01T13:16:29Z</time>
      </trkpt>
      <trkpt lat="47.9456" lon="-3.48678">
        <ele>140.1</ele>
        <time>2018-06-01T13:16:44Z</time>
      </trkpt>
      <trkpt lat="47.94539" lon="-3.48703">
        <ele>139.2</ele>
        <time>2018-06-01T13:17:00Z</time>
      </trkpt>
      <trkpt lat="47.94509" lon="-3.48721">
        <ele>137.14</ele>
        <time>2018-06-01T13:17:17Z</time>
      </trkpt>
      <trkpt lat="47.94485" lon="-3.48729">
        <ele>134.38</ele>
        <time>2018-06-01T13:17:33Z</time>
      </trkpt>
      <trkpt lat="47.94467" lon="-3.48728">
        <ele>132.12</ele>
        <time>2018-06-01T13:17:45Z</time>
      </trkpt>
      <trkpt lat="47.94442" lon="-3.48717">
        <ele>129.24</ele>
        <time>2018-06-01T13:18:00Z</time>
      </trkpt>
      <trkpt lat="47.94428" lon="-3.4871">
        <ele>126.21</ele>
        <time>2018-06-01T13:18:09Z</time>
      </trkpt>
      <trkpt lat="47.94413" lon="-3.48704">
        <ele>123.19</ele>
        <time>2018-06-01T13:18:17Z</time>
      </trkpt>
      <trkpt lat="47.94398" lon="-3.487">
        <ele>119.92</ele>
        <time>2018-06-01T13:18:25Z</time>
      </trkpt>
      <trkpt lat="47.94379" lon="-3.48694">
        <ele>116.77</ele>
        <time>2018-06-01T13:18:36Z</time>
      </trkpt>
      <trkpt lat="47.94357" lon="-3.4869">
        <ele>113.73</ele>
        <time>2018-06-01T13:18:49Z</time>
      </trkpt>
      <trkpt lat="47.94337" lon="-3.48684">
        <ele>110.55</ele>
        <time>2018-06-01T13:19:02Z</time>
      </trkpt>
      <trkpt lat="47.94315" lon="-3.4868">
        <ele>107.43</ele>
        <time>2018-06-01T13:19:16Z</time>
      </trkpt>
      <trkpt lat="47.94298" lon="-3.48678">
        <ele>104.32</ele>
        <time>2018-06-01T13:19:29Z</time>
      </trkpt>
      <trkpt lat="47.94292" lon="-3.48643">
        <ele>102.2</ele>
        <time>2018-06-01T13:19:44Z</time>
      </trkpt>
      <trkpt lat="47.94292" lon="-3.48641">
        <ele>102.17</ele>
        <time>2018-06-01T13:19:45Z</time>
      </trkpt>
      <trkpt lat="47.94292" lon="-3.48639">
        <ele>102.14</ele>
        <time>2018-06-01T13:19:46Z</time>
      </trkpt>
      <trkpt lat="47.94292" lon="-3.48637">
        <ele>102.11</ele>
        <time>2018-06-01T13:19:47Z</time>
      </trkpt>
      <trkpt lat="47.94291" lon="-3.48634">
        <ele>102.06</ele>
        <time>2018-06-01T13:19:48Z</time>
      </trkpt>
      <trkpt lat="47.94291" lon="-3.48632">
        <ele>101.97</ele>
        <time>2018-06-01T13:19:49Z</time>
      </trkpt>
      <trkpt lat="47.94291" lon="-3.48629">
        <ele>101.93</ele>
        <time>2018-06-01T13:19:50Z</time>
      </trkpt>
      <trkpt lat="47.94293" lon="-3.48601">
        <ele>101.23</ele>
        <time>2018-06-01T13:20:02Z</time>
      </trkpt>
      <trkpt lat="47.94292" lon="-3.486">
        <ele>101.13</ele>
        <time>2018-06-01T13:20:03Z</time>
      </trkpt>
      <trkpt lat="47.94281" lon="-3.4859">
        <ele>97.88</ele>
        <time>2018-06-01T13:20:16Z</time>
      </trkpt>
      <trkpt lat="47.94276" lon="-3.48591">
        <ele>96.13</ele>
        <time>2018-06-01T13:20:21Z</time>
      </trkpt>
      <trkpt lat="47.94263" lon="-3.48589">
        <ele>92.83</ele>
        <time>2018-06-01T13:20:30Z</time>
      </trkpt>
      <trkpt lat="47.9425" lon="-3.48584">
        <ele>90.19</ele>
        <time>2018-06-01T13:20:38Z</time>
      </trkpt>
      <trkpt lat="47.94249" lon="-3.48583">
        <ele>89.64</ele>
        <time>2018-06-01T13:20:39Z</time>
      </trkpt>
      <trkpt lat="47.94246" lon="-3.48582">
        <ele>89.37</ele>
        <time>2018-06-01T13:20:40Z</time>
      </trkpt>
      <trkpt lat="47.94244" lon="-3.48581">
        <ele>89.1</ele>
        <time>2018-06-01T13:20:41Z</time>
      </trkpt>
      <trkpt lat="47.94242" lon="-3.48581">
        <ele>88.85</ele>
        <time>2018-06-01T13:20:42Z</time>
      </trkpt>
      <trkpt lat="47.9424" lon="-3.4858">
        <ele>88.63</ele>
        <time>2018-06-01T13:20:43Z</time>
      </trkpt>
      <trkpt lat="47.94238" lon="-3.4858">
        <ele>88.41</ele>
        <time>2018-06-01T13:20:44Z</time>
      </trkpt>
      <trkpt lat="47.94236" lon="-3.48579">
        <ele>88.18</ele>
        <time>2018-06-01T13:20:45Z</time>
      </trkpt>
      <trkpt lat="47.94235" lon="-3.48579">
        <ele>87.96</ele>
        <time>2018-06-01T13:20:46Z</time>
      </trkpt>
      <trkpt lat="47.9423" lon="-3.48582">
        <ele>87.6</ele>
        <time>2018-06-01T13:20:48Z</time>
      </trkpt>
      <trkpt lat="47.94216" lon="-3.48587">
        <ele>86.5</ele>
        <time>2018-06-01T13:20:57Z</time>
      </trkpt>
      <trkpt lat="47.94214" lon="-3.48587">
        <ele>86.44</ele>
        <time>2018-06-01T13:20:58Z</time>
      </trkpt>
      <trkpt lat="47.94213" lon="-3.48586">
        <ele>86.42</ele>
        <time>2018-06-01T13:20:59Z</time>
      </trkpt>
      <trkpt lat="47.94211" lon="-3.48586">
        <ele>86.47</ele>
        <time>2018-06-01T13:21:00Z</time>
      </trkpt>
      <trkpt lat="47.94209" lon="-3.48586">
        <ele>86.51</ele>
        <time>2018-06-01T13:21:01Z</time>
      </trkpt>
      <trkpt lat="47.94183" lon="-3.48604">
        <ele>88.75</ele>
        <time>2018-06-01T13:21:11Z</time>
      </trkpt>
      <trkpt lat="47.94169" lon="-3.48618">
        <ele>92.1</ele>
        <time>2018-06-01T13:21:17Z</time>
      </trkpt>
      <trkpt lat="47.94166" lon="-3.48623">
        <ele>92.73</ele>
        <time>2018-06-01T13:21:18Z</time>
      </trkpt>
      <trkpt lat="47.94154" lon="-3.48641">
        <ele>94.65</ele>
        <time>2018-06-01T13:21:21Z</time>
      </trkpt>
      <trkpt lat="47.94136" lon="-3.48668">
        <ele>98.31</ele>
        <time>2018-06-01T13:21:26Z</time>
      </trkpt>
      <trkpt lat="47.94129" lon="-3.48679">
        <ele>101.34</ele>
        <time>2018-06-01T13:21:29Z</time>
      </trkpt>
      <trkpt lat="47.94123" lon="-3.48689">
        <ele>104.58</ele>
        <time>2018-06-01T13:21:35Z</time>
      </trkpt>
      <trkpt lat="47.94117" lon="-3.48698">
        <ele>107.65</ele>
        <time>2018-06-01T13:21:47Z</time>
      </trkpt>
      <trkpt lat="47.94111" lon="-3.48714">
        <ele>108.82</ele>
        <time>2018-06-01T13:22:08Z</time>
      </trkpt>
      <trkpt lat="47.94107" lon="-3.48716">
        <ele>109.33</ele>
        <time>2018-06-01T13:22:38Z</time>
      </trkpt>
      <trkpt lat="47.94105" lon="-3.48715">
        <ele>109.49</ele>
        <time>2018-06-01T13:23:03Z</time>
      </trkpt>
      <trkpt lat="47.94109" lon="-3.48697">
        <ele>107.77</ele>
        <time>2018-06-01T13:23:19Z</time>
      </trkpt>
      <trkpt lat="47.94112" lon="-3.48675">
        <ele>106.23</ele>
        <time>2018-06-01T13:23:32Z</time>
      </trkpt>
      <trkpt lat="47.94113" lon="-3.48672">
        <ele>106.08</ele>
        <time>2018-06-01T13:23:33Z</time>
      </trkpt>
      <trkpt lat="47.94116" lon="-3.48659">
        <ele>105.19</ele>
        <time>2018-06-01T13:23:40Z</time>
      </trkpt>
      <trkpt lat="47.94126" lon="-3.48627">
        <ele>104.1</ele>
        <time>2018-06-01T13:23:53Z</time>
      </trkpt>
      <trkpt lat="47.94133" lon="-3.486">
        <ele>102.43</ele>
        <time>2018-06-01T13:24:05Z</time>
      </trkpt>
      <trkpt lat="47.94138" lon="-3.48588">
        <ele>101.72</ele>
        <time>2018-06-01T13:24:10Z</time>
      </trkpt>
      <trkpt lat="47.94141" lon="-3.48576">
        <ele>100.99</ele>
        <time>2018-06-01T13:24:16Z</time>
      </trkpt>
      <trkpt lat="47.94149" lon="-3.48544">
        <ele>99.19</ele>
        <time>2018-06-01T13:24:33Z</time>
      </trkpt>
      <trkpt lat="47.94151" lon="-3.4854">
        <ele>99.14</ele>
        <time>2018-06-01T13:24:35Z</time>
      </trkpt>
      <trkpt lat="47.94154" lon="-3.48525">
        <ele>98.87</ele>
        <time>2018-06-01T13:24:41Z</time>
      </trkpt>
      <trkpt lat="47.94154" lon="-3.48521">
        <ele>98.71</ele>
        <time>2018-06-01T13:24:43Z</time>
      </trkpt>
      <trkpt lat="47.94156" lon="-3.48515">
        <ele>98.6</ele>
        <time>2018-06-01T13:24:46Z</time>
      </trkpt>
      <trkpt lat="47.94159" lon="-3.48507">
        <ele>98.29</ele>
        <time>2018-06-01T13:24:51Z</time>
      </trkpt>
      <trkpt lat="47.94161" lon="-3.48474">
        <ele>97.37</ele>
        <time>2018-06-01T13:25:05Z</time>
      </trkpt>
      <trkpt lat="47.94156" lon="-3.48446">
        <ele>96.7</ele>
        <time>2018-06-01T13:25:17Z</time>
      </trkpt>
      <trkpt lat="47.9416" lon="-3.48404">
        <ele>95.63</ele>
        <time>2018-06-01T13:25:37Z</time>
      </trkpt>
      <trkpt lat="47.9416" lon="-3.4836">
        <ele>95.05</ele>
        <time>2018-06-01T13:25:55Z</time>
      </trkpt>
      <trkpt lat="47.9416" lon="-3.48316">
        <ele>94.89</ele>
        <time>2018-06-01T13:26:10Z</time>
      </trkpt>
      <trkpt lat="47.94164" lon="-3.483">
        <ele>94.18</ele>
        <time>2018-06-01T13:26:16Z</time>
      </trkpt>
      <trkpt lat="47.94172" lon="-3.48275">
        <ele>92.9</ele>
        <time>2018-06-01T13:26:27Z</time>
      </trkpt>
      <trkpt lat="47.94172" lon="-3.4823">
        <ele>91.48</ele>
        <time>2018-06-01T13:26:45Z</time>
      </trkpt>
      <trkpt lat="47.94172" lon="-3.48224">
        <ele>91.44</ele>
        <time>2018-06-01T13:26:47Z</time>
      </trkpt>
      <trkpt lat="47.94176" lon="-3.4818">
        <ele>90.69</ele>
        <time>2018-06-01T13:27:07Z</time>
      </trkpt>
      <trkpt lat="47.9417" lon="-3.48139">
        <ele>90.49</ele>
        <time>2018-06-01T13:27:25Z</time>
      </trkpt>
      <trkpt lat="47.94169" lon="-3.48106">
        <ele>92.01</ele>
        <time>2018-06-01T13:27:47Z</time>
      </trkpt>
      <trkpt lat="47.94164" lon="-3.48055">
        <ele>91.52</ele>
        <time>2018-06-01T13:28:10Z</time>
      </trkpt>
      <trkpt lat="47.94161" lon="-3.48019">
        <ele>90.44</ele>
        <time>2018-06-01T13:28:30Z</time>
      </trkpt>
      <trkpt lat="47.94146" lon="-3.47979">
        <ele>88.25</ele>
        <time>2018-06-01T13:28:49Z</time>
      </trkpt>
      <trkpt lat="47.94133" lon="-3.47956">
        <ele>88.68</ele>
        <time>2018-06-01T13:29:07Z</time>
      </trkpt>
      <trkpt lat="47.94127" lon="-3.47957">
        <ele>89.29</ele>
        <time>2018-06-01T13:29:11Z</time>
      </trkpt>
      <trkpt lat="47.94112" lon="-3.47961">
        <ele>91.4</ele>
        <time>2018-06-01T13:29:26Z</time>
      </trkpt>
      <trkpt lat="47.94089" lon="-3.47958">
        <ele>94.12</ele>
        <time>2018-06-01T13:29:44Z</time>
      </trkpt>
      <trkpt lat="47.94083" lon="-3.47957">
        <ele>94.83</ele>
        <time>2018-06-01T13:29:48Z</time>
      </trkpt>
      <trkpt lat="47.94075" lon="-3.47956">
        <ele>95.68</ele>
        <time>2018-06-01T13:29:53Z</time>
      </trkpt>
      <trkpt lat="47.94057" lon="-3.4796">
        <ele>97.47</ele>
        <time>2018-06-01T13:30:07Z</time>
      </trkpt>
      <trkpt lat="47.94029" lon="-3.47962">
        <ele>99.39</ele>
        <time>2018-06-01T13:30:23Z</time>
      </trkpt>
      <trkpt lat="47.93994" lon="-3.47965">
        <ele>102.34</ele>
        <time>2018-06-01T13:30:33Z</time>
      </trkpt>
      <trkpt lat="47.93968" lon="-3.47963">
        <ele>105.47</ele>
        <time>2018-06-01T13:30:41Z</time>
      </trkpt>
      <trkpt lat="47.93945" lon="-3.47965">
        <ele>108.72</ele>
        <time>2018-06-01T13:30:48Z</time>
      </trkpt>
      <trkpt lat="47.93929" lon="-3.47971">
        <ele>112.49</ele>
        <time>2018-06-01T13:30:55Z</time>
      </trkpt>
      <trkpt lat="47.93915" lon="-3.4797">
        <ele>115.58</ele>
        <time>2018-06-01T13:31:04Z</time>
      </trkpt>
      <trkpt lat="47.93895" lon="-3.47968">
        <ele>118.06</ele>
        <time>2018-06-01T13:31:14Z</time>
      </trkpt>
      <trkpt lat="47.93873" lon="-3.47963">
        <ele>120.33</ele>
        <time>2018-06-01T13:31:27Z</time>
      </trkpt>
      <trkpt lat="47.93871" lon="-3.47963">
        <ele>120.42</ele>
        <time>2018-06-01T13:31:28Z</time>
      </trkpt>
      <trkpt lat="47.9387" lon="-3.47963">
        <ele>120.48</ele>
        <time>2018-06-01T13:31:29Z</time>
      </trkpt>
      <trkpt lat="47.93869" lon="-3.47962">
        <ele>120.55</ele>
        <time>2018-06-01T13:31:30Z</time>
      </trkpt>
      <trkpt lat="47.93868" lon="-3.47962">
        <ele>120.6</ele>
        <time>2018-06-01T13:31:31Z</time>
      </trkpt>
      <trkpt lat="47.93855" lon="-3.47953">
        <ele>122.53</ele>
        <time>2018-06-01T13:31:45Z</time>
      </trkpt>
      <trkpt lat="47.93849" lon="-3.47948">
        <ele>123.08</ele>
        <time>2018-06-01T13:31:52Z</time>
      </trkpt>
      <trkpt lat="47.93847" lon="-3.47947">
        <ele>123.09</ele>
        <time>2018-06-01T13:31:53Z</time>
      </trkpt>
      <trkpt lat="47.93845" lon="-3.47946">
        <ele>123.09</ele>
        <time>2018-06-01T13:31:54Z</time>
      </trkpt>
      <trkpt lat="47.93844" lon="-3.47945">
        <ele>123.08</ele>
        <time>2018-06-01T13:31:55Z</time>
      </trkpt>
      <trkpt lat="47.93842" lon="-3.47945">
        <ele>123.07</ele>
        <time>2018-06-01T13:31:56Z</time>
      </trkpt>
      <trkpt lat="47.9384" lon="-3.47944">
        <ele>123.05</ele>
        <time>2018-06-01T13:31:57Z</time>
      </trkpt>
      <trkpt lat="47.93811" lon="-3.47932">
        <ele>123.29</ele>
        <time>2018-06-01T13:32:15Z</time>
      </trkpt>
      <trkpt lat="47.93784" lon="-3.47923">
        <ele>123.74</ele>
        <time>2018-06-01T13:32:33Z</time>
      </trkpt>
      <trkpt lat="47.93756" lon="-3.47921">
        <ele>123.94</ele>
        <time>2018-06-01T13:32:52Z</time>
      </trkpt>
      <trkpt lat="47.93747" lon="-3.47925">
        <ele>123.79</ele>
        <time>2018-06-01T13:33:03Z</time>
      </trkpt>
      <trkpt lat="47.93745" lon="-3.47924">
        <ele>123.64</ele>
        <time>2018-06-01T13:33:06Z</time>
      </trkpt>
      <trkpt lat="47.93744" lon="-3.47924">
        <ele>123.6</ele>
        <time>2018-06-01T13:33:07Z</time>
      </trkpt>
      <trkpt lat="47.93731" lon="-3.47901">
        <ele>124.25</ele>
        <time>2018-06-01T13:33:22Z</time>
      </trkpt>
      <trkpt lat="47.93729" lon="-3.47896">
        <ele>124.23</ele>
        <time>2018-06-01T13:33:25Z</time>
      </trkpt>
      <trkpt lat="47.93729" lon="-3.47894">
        <ele>124.24</ele>
        <time>2018-06-01T13:33:26Z</time>
      </trkpt>
      <trkpt lat="47.93723" lon="-3.47884">
        <ele>124.4</ele>
        <time>2018-06-01T13:33:32Z</time>
      </trkpt>
      <trkpt lat="47.93722" lon="-3.47883">
        <ele>124.4</ele>
        <time>2018-06-01T13:33:33Z</time>
      </trkpt>
      <trkpt lat="47.93721" lon="-3.47882">
        <ele>124.38</ele>
        <time>2018-06-01T13:33:34Z</time>
      </trkpt>
      <trkpt lat="47.93719" lon="-3.47881">
        <ele>124.35</ele>
        <time>2018-06-01T13:33:35Z</time>
      </trkpt>
      <trkpt lat="47.93718" lon="-3.4788">
        <ele>124.31</ele>
        <time>2018-06-01T13:33:36Z</time>
      </trkpt>
      <trkpt lat="47.93717" lon="-3.47877">
        <ele>124.28</ele>
        <time>2018-06-01T13:33:37Z</time>
      </trkpt>
      <trkpt lat="47.93716" lon="-3.47875">
        <ele>124.25</ele>
        <time>2018-06-01T13:33:38Z</time>
      </trkpt>
      <trkpt lat="47.93715" lon="-3.47873">
        <ele>124.21</ele>
        <time>2018-06-01T13:33:39Z</time>
      </trkpt>
      <trkpt lat="47.93713" lon="-3.47871">
        <ele>124.18</ele>
        <time>2018-06-01T13:33:40Z</time>
      </trkpt>
      <trkpt lat="47.93712" lon="-3.4787">
        <ele>124.15</ele>
        <time>2018-06-01T13:33:41Z</time>
      </trkpt>
      <trkpt lat="47.9371" lon="-3.47869">
        <ele>124.1</ele>
        <time>2018-06-01T13:33:42Z</time>
      </trkpt>
      <trkpt lat="47.93708" lon="-3.47867">
        <ele>124.03</ele>
        <time>2018-06-01T13:33:43Z</time>
      </trkpt>
      <trkpt lat="47.9369" lon="-3.47847">
        <ele>123.78</ele>
        <time>2018-06-01T13:33:58Z</time>
      </trkpt>
      <trkpt lat="47.93683" lon="-3.47844">
        <ele>123.62</ele>
        <time>2018-06-01T13:34:07Z</time>
      </trkpt>
      <trkpt lat="47.93682" lon="-3.47844">
        <ele>123.6</ele>
        <time>2018-06-01T13:34:08Z</time>
      </trkpt>
      <trkpt lat="47.93681" lon="-3.47844">
        <ele>123.55</ele>
        <time>2018-06-01T13:34:09Z</time>
      </trkpt>
      <trkpt lat="47.9368" lon="-3.47844">
        <ele>123.48</ele>
        <time>2018-06-01T13:34:10Z</time>
      </trkpt>
      <trkpt lat="47.93679" lon="-3.47844">
        <ele>123.39</ele>
        <time>2018-06-01T13:34:11Z</time>
      </trkpt>
      <trkpt lat="47.93677" lon="-3.47845">
        <ele>123.32</ele>
        <time>2018-06-01T13:34:12Z</time>
      </trkpt>
      <trkpt lat="47.93676" lon="-3.47846">
        <ele>123.24</ele>
        <time>2018-06-01T13:34:13Z</time>
      </trkpt>
      <trkpt lat="47.93674" lon="-3.47846">
        <ele>123.19</ele>
        <time>2018-06-01T13:34:14Z</time>
      </trkpt>
      <trkpt lat="47.93673" lon="-3.47847">
        <ele>123.15</ele>
        <time>2018-06-01T13:34:15Z</time>
      </trkpt>
      <trkpt lat="47.93647" lon="-3.47863">
        <ele>121.32</ele>
        <time>2018-06-01T13:34:33Z</time>
      </trkpt>
      <trkpt lat="47.93625" lon="-3.47868">
        <ele>119.97</ele>
        <time>2018-06-01T13:34:48Z</time>
      </trkpt>
      <trkpt lat="47.93618" lon="-3.47867">
        <ele>119.54</ele>
        <time>2018-06-01T13:35:06Z</time>
      </trkpt>
      <trkpt lat="47.93594" lon="-3.47876">
        <ele>118.19</ele>
        <time>2018-06-01T13:35:23Z</time>
      </trkpt>
      <trkpt lat="47.93591" lon="-3.47877">
        <ele>118.09</ele>
        <time>2018-06-01T13:35:25Z</time>
      </trkpt>
      <trkpt lat="47.9359" lon="-3.47877">
        <ele>118.06</ele>
        <time>2018-06-01T13:35:26Z</time>
      </trkpt>
      <trkpt lat="47.93589" lon="-3.47878">
        <ele>118.01</ele>
        <time>2018-06-01T13:35:27Z</time>
      </trkpt>
      <trkpt lat="47.9357" lon="-3.47886">
        <ele>116.76</ele>
        <time>2018-06-01T13:35:41Z</time>
      </trkpt>
      <trkpt lat="47.93562" lon="-3.47893">
        <ele>115.78</ele>
        <time>2018-06-01T13:35:48Z</time>
      </trkpt>
      <trkpt lat="47.93537" lon="-3.47905">
        <ele>114.31</ele>
        <time>2018-06-01T13:36:04Z</time>
      </trkpt>
      <trkpt lat="47.9351" lon="-3.47918">
        <ele>114.12</ele>
        <time>2018-06-01T13:36:22Z</time>
      </trkpt>
      <trkpt lat="47.93489" lon="-3.47928">
        <ele>114.65</ele>
        <time>2018-06-01T13:36:38Z</time>
      </trkpt>
      <trkpt lat="47.93465" lon="-3.47937">
        <ele>115.3</ele>
        <time>2018-06-01T13:36:54Z</time>
      </trkpt>
      <trkpt lat="47.93436" lon="-3.47947">
        <ele>115.24</ele>
        <time>2018-06-01T13:37:13Z</time>
      </trkpt>
      <trkpt lat="47.93413" lon="-3.47952">
        <ele>114.92</ele>
        <time>2018-06-01T13:37:29Z</time>
      </trkpt>
      <trkpt lat="47.93406" lon="-3.47955">
        <ele>114.66</ele>
        <time>2018-06-01T13:37:35Z</time>
      </trkpt>
      <trkpt lat="47.93401" lon="-3.47963">
        <ele>114.54</ele>
        <time>2018-06-01T13:37:40Z</time>
      </trkpt>
      <trkpt lat="47.93401" lon="-3.47965">
        <ele>114.53</ele>
        <time>2018-06-01T13:37:41Z</time>
      </trkpt>
      <trkpt lat="47.934" lon="-3.47967">
        <ele>114.51</ele>
        <time>2018-06-01T13:37:42Z</time>
      </trkpt>
      <trkpt lat="47.934" lon="-3.47969">
        <ele>114.51</ele>
        <time>2018-06-01T13:37:43Z</time>
      </trkpt>
      <trkpt lat="47.93401" lon="-3.47971">
        <ele>114.5</ele>
        <time>2018-06-01T13:37:44Z</time>
      </trkpt>
      <trkpt lat="47.93401" lon="-3.4799">
        <ele>115.15</ele>
        <time>2018-06-01T13:38:00Z</time>
      </trkpt>
      <trkpt lat="47.93402" lon="-3.47993">
        <ele>115.17</ele>
        <time>2018-06-01T13:38:03Z</time>
      </trkpt>
      <trkpt lat="47.93402" lon="-3.47995">
        <ele>115.12</ele>
        <time>2018-06-01T13:38:04Z</time>
      </trkpt>
      <trkpt lat="47.93402" lon="-3.47997">
        <ele>115.08</ele>
        <time>2018-06-01T13:38:05Z</time>
      </trkpt>
      <trkpt lat="47.93402" lon="-3.47999">
        <ele>115.05</ele>
        <time>2018-06-01T13:38:06Z</time>
      </trkpt>
      <trkpt lat="47.93402" lon="-3.48001">
        <ele>115.06</ele>
        <time>2018-06-01T13:38:07Z</time>
      </trkpt>
      <trkpt lat="47.93402" lon="-3.48003">
        <ele>115.16</ele>
        <time>2018-06-01T13:38:08Z</time>
      </trkpt>
      <trkpt lat="47.93403" lon="-3.48005">
        <ele>115.29</ele>
        <time>2018-06-01T13:38:09Z</time>
      </trkpt>
      <trkpt lat="47.93403" lon="-3.48008">
        <ele>115.38</ele>
        <time>2018-06-01T13:38:10Z</time>
      </trkpt>
      <trkpt lat="47.93403" lon="-3.4801">
        <ele>115.45</ele>
        <time>2018-06-01T13:38:11Z</time>
      </trkpt>
      <trkpt lat="47.93406" lon="-3.48047">
        <ele>116.13</ele>
        <time>2018-06-01T13:38:28Z</time>
      </trkpt>
      <trkpt lat="47.93395" lon="-3.4808">
        <ele>116.39</ele>
        <time>2018-06-01T13:38:46Z</time>
      </trkpt>
      <trkpt lat="47.93374" lon="-3.48116">
        <ele>115.83</ele>
        <time>2018-06-01T13:39:06Z</time>
      </trkpt>
      <trkpt lat="47.93347" lon="-3.48155">
        <ele>114.95</ele>
        <time>2018-06-01T13:39:29Z</time>
      </trkpt>
      <trkpt lat="47.93321" lon="-3.48181">
        <ele>114.76</ele>
        <time>2018-06-01T13:39:49Z</time>
      </trkpt>
      <trkpt lat="47.933" lon="-3.48205">
        <ele>115.07</ele>
        <time>2018-06-01T13:40:08Z</time>
      </trkpt>
      <trkpt lat="47.93292" lon="-3.48216">
        <ele>115.07</ele>
        <time>2018-06-01T13:40:16Z</time>
      </trkpt>
      <trkpt lat="47.93291" lon="-3.48218">
        <ele>115.08</ele>
        <time>2018-06-01T13:40:17Z</time>
      </trkpt>
      <trkpt lat="47.93275" lon="-3.48237">
        <ele>115.38</ele>
        <time>2018-06-01T13:40:30Z</time>
      </trkpt>
      <trkpt lat="47.93258" lon="-3.48257">
        <ele>115.51</ele>
        <time>2018-06-01T13:40:44Z</time>
      </trkpt>
      <trkpt lat="47.93235" lon="-3.48271">
        <ele>115.65</ele>
        <time>2018-06-01T13:41:00Z</time>
      </trkpt>
      <trkpt lat="47.9322" lon="-3.4828">
        <ele>115.58</ele>
        <time>2018-06-01T13:41:10Z</time>
      </trkpt>
      <trkpt lat="47.93217" lon="-3.48281">
        <ele>115.56</ele>
        <time>2018-06-01T13:41:12Z</time>
      </trkpt>
      <trkpt lat="47.93216" lon="-3.48282">
        <ele>115.47</ele>
        <time>2018-06-01T13:41:13Z</time>
      </trkpt>
      <trkpt lat="47.93214" lon="-3.48283">
        <ele>115.42</ele>
        <time>2018-06-01T13:41:14Z</time>
      </trkpt>
      <trkpt lat="47.93212" lon="-3.48284">
        <ele>115.38</ele>
        <time>2018-06-01T13:41:15Z</time>
      </trkpt>
      <trkpt lat="47.93204" lon="-3.48288">
        <ele>115</ele>
        <time>2018-06-01T13:41:21Z</time>
      </trkpt>
      <trkpt lat="47.93203" lon="-3.48288">
        <ele>114.91</ele>
        <time>2018-06-01T13:41:22Z</time>
      </trkpt>
      <trkpt lat="47.93202" lon="-3.48289">
        <ele>114.82</ele>
        <time>2018-06-01T13:41:23Z</time>
      </trkpt>
      <trkpt lat="47.932" lon="-3.4829">
        <ele>114.7</ele>
        <time>2018-06-01T13:41:24Z</time>
      </trkpt>
      <trkpt lat="47.93181" lon="-3.48302">
        <ele>113.16</ele>
        <time>2018-06-01T13:41:37Z</time>
      </trkpt>
      <trkpt lat="47.93152" lon="-3.48311">
        <ele>111.04</ele>
        <time>2018-06-01T13:41:52Z</time>
      </trkpt>
      <trkpt lat="47.93122" lon="-3.4831">
        <ele>107.9</ele>
        <time>2018-06-01T13:42:10Z</time>
      </trkpt>
      <trkpt lat="47.93093" lon="-3.48303">
        <ele>104.78</ele>
        <time>2018-06-01T13:42:29Z</time>
      </trkpt>
      <trkpt lat="47.93066" lon="-3.48294">
        <ele>101.87</ele>
        <time>2018-06-01T13:42:47Z</time>
      </trkpt>
      <trkpt lat="47.93046" lon="-3.48289">
        <ele>98.68</ele>
        <time>2018-06-01T13:43:01Z</time>
      </trkpt>
      <trkpt lat="47.93028" lon="-3.48283">
        <ele>95.98</ele>
        <time>2018-06-01T13:43:14Z</time>
      </trkpt>
      <trkpt lat="47.93013" lon="-3.48284">
        <ele>94.06</ele>
        <time>2018-06-01T13:43:26Z</time>
      </trkpt>
      <trkpt lat="47.92993" lon="-3.4828">
        <ele>92.67</ele>
        <time>2018-06-01T13:43:38Z</time>
      </trkpt>
      <trkpt lat="47.92972" lon="-3.48268">
        <ele>91.77</ele>
        <time>2018-06-01T13:43:54Z</time>
      </trkpt>
      <trkpt lat="47.92965" lon="-3.48242">
        <ele>91.92</ele>
        <time>2018-06-01T13:44:09Z</time>
      </trkpt>
      <trkpt lat="47.92968" lon="-3.48211">
        <ele>92.58</ele>
        <time>2018-06-01T13:44:25Z</time>
      </trkpt>
      <trkpt lat="47.92974" lon="-3.48174">
        <ele>92.86</ele>
        <time>2018-06-01T13:44:42Z</time>
      </trkpt>
      <trkpt lat="47.92979" lon="-3.48146">
        <ele>93.1</ele>
        <time>2018-06-01T13:44:57Z</time>
      </trkpt>
      <trkpt lat="47.92986" lon="-3.48102">
        <ele>92.98</ele>
        <time>2018-06-01T13:45:16Z</time>
      </trkpt>
      <trkpt lat="47.92991" lon="-3.48048">
        <ele>93.52</ele>
        <time>2018-06-01T13:45:39Z</time>
      </trkpt>
      <trkpt lat="47.92997" lon="-3.48009">
        <ele>94.37</ele>
        <time>2018-06-01T13:45:58Z</time>
      </trkpt>
      <trkpt lat="47.93007" lon="-3.47972">
        <ele>95.41</ele>
        <time>2018-06-01T13:46:16Z</time>
      </trkpt>
      <trkpt lat="47.93014" lon="-3.4794">
        <ele>96.26</ele>
        <time>2018-06-01T13:46:32Z</time>
      </trkpt>
      <trkpt lat="47.93015" lon="-3.47913">
        <ele>95.93</ele>
        <time>2018-06-01T13:46:45Z</time>
      </trkpt>
      <trkpt lat="47.93029" lon="-3.47869">
        <ele>94.26</ele>
        <time>2018-06-01T13:47:05Z</time>
      </trkpt>
      <trkpt lat="47.93045" lon="-3.47826">
        <ele>92.58</ele>
        <time>2018-06-01T13:47:25Z</time>
      </trkpt>
      <trkpt lat="47.93054" lon="-3.47794">
        <ele>91.28</ele>
        <time>2018-06-01T13:47:41Z</time>
      </trkpt>
      <trkpt lat="47.93057" lon="-3.47781">
        <ele>89.56</ele>
        <time>2018-06-01T13:47:58Z</time>
      </trkpt>
      <trkpt lat="47.93059" lon="-3.47775">
        <ele>89.53</ele>
        <time>2018-06-01T13:48:32Z</time>
      </trkpt>
      <trkpt lat="47.93064" lon="-3.47767">
        <ele>89.26</ele>
        <time>2018-06-01T13:48:39Z</time>
      </trkpt>
      <trkpt lat="47.93064" lon="-3.47766">
        <ele>89.19</ele>
        <time>2018-06-01T13:48:40Z</time>
      </trkpt>
      <trkpt lat="47.93077" lon="-3.47746">
        <ele>88.73</ele>
        <time>2018-06-01T13:48:56Z</time>
      </trkpt>
      <trkpt lat="47.9309" lon="-3.47729">
        <ele>88.27</ele>
        <time>2018-06-01T13:49:10Z</time>
      </trkpt>
      <trkpt lat="47.93092" lon="-3.47727">
        <ele>88.21</ele>
        <time>2018-06-01T13:49:12Z</time>
      </trkpt>
      <trkpt lat="47.93117" lon="-3.47715">
        <ele>88.44</ele>
        <time>2018-06-01T13:49:29Z</time>
      </trkpt>
      <trkpt lat="47.93129" lon="-3.47708">
        <ele>88.53</ele>
        <time>2018-06-01T13:49:39Z</time>
      </trkpt>
      <trkpt lat="47.9313" lon="-3.47707">
        <ele>88.54</ele>
        <time>2018-06-01T13:49:40Z</time>
      </trkpt>
      <trkpt lat="47.93134" lon="-3.47702">
        <ele>88.78</ele>
        <time>2018-06-01T13:52:01Z</time>
      </trkpt>
      <trkpt lat="47.93133" lon="-3.47704">
        <ele>88.97</ele>
        <time>2018-06-01T13:52:31Z</time>
      </trkpt>
      <trkpt lat="47.9313" lon="-3.47702">
        <ele>88.73</ele>
        <time>2018-06-01T13:53:10Z</time>
      </trkpt>
      <trkpt lat="47.9313" lon="-3.477">
        <ele>88.49</ele>
        <time>2018-06-01T13:53:48Z</time>
      </trkpt>
      <trkpt lat="47.93129" lon="-3.47696">
        <ele>88.53</ele>
        <time>2018-06-01T13:53:59Z</time>
      </trkpt>
      <trkpt lat="47.93127" lon="-3.47688">
        <ele>88.44</ele>
        <time>2018-06-01T13:54:04Z</time>
      </trkpt>
      <trkpt lat="47.93124" lon="-3.47659">
        <ele>87.51</ele>
        <time>2018-06-01T13:54:18Z</time>
      </trkpt>
      <trkpt lat="47.9312" lon="-3.47639">
        <ele>87.96</ele>
        <time>2018-06-01T13:54:32Z</time>
      </trkpt>
      <trkpt lat="47.93118" lon="-3.4763">
        <ele>88.1</ele>
        <time>2018-06-01T13:54:36Z</time>
      </trkpt>
      <trkpt lat="47.93107" lon="-3.47599">
        <ele>88.97</ele>
        <time>2018-06-01T13:54:52Z</time>
      </trkpt>
      <trkpt lat="47.93095" lon="-3.4757">
        <ele>90.19</ele>
        <time>2018-06-01T13:55:07Z</time>
      </trkpt>
      <trkpt lat="47.93085" lon="-3.47547">
        <ele>90.89</ele>
        <time>2018-06-01T13:55:17Z</time>
      </trkpt>
      <trkpt lat="47.93075" lon="-3.47511">
        <ele>92.14</ele>
        <time>2018-06-01T13:55:32Z</time>
      </trkpt>
      <trkpt lat="47.9308" lon="-3.47471">
        <ele>92.82</ele>
        <time>2018-06-01T13:55:49Z</time>
      </trkpt>
      <trkpt lat="47.93081" lon="-3.47431">
        <ele>93.54</ele>
        <time>2018-06-01T13:56:06Z</time>
      </trkpt>
      <trkpt lat="47.93088" lon="-3.4739">
        <ele>93.83</ele>
        <time>2018-06-01T13:56:22Z</time>
      </trkpt>
      <trkpt lat="47.93096" lon="-3.47351">
        <ele>95.76</ele>
        <time>2018-06-01T13:56:39Z</time>
      </trkpt>
      <trkpt lat="47.93106" lon="-3.47304">
        <ele>95.88</ele>
        <time>2018-06-01T13:56:59Z</time>
      </trkpt>
      <trkpt lat="47.93117" lon="-3.47257">
        <ele>95.88</ele>
        <time>2018-06-01T13:57:19Z</time>
      </trkpt>
      <trkpt lat="47.93127" lon="-3.4721">
        <ele>95.6</ele>
        <time>2018-06-01T13:57:38Z</time>
      </trkpt>
      <trkpt lat="47.93131" lon="-3.47162">
        <ele>94.74</ele>
        <time>2018-06-01T13:57:58Z</time>
      </trkpt>
      <trkpt lat="47.93133" lon="-3.4712">
        <ele>93.51</ele>
        <time>2018-06-01T13:58:14Z</time>
      </trkpt>
      <trkpt lat="47.93135" lon="-3.47077">
        <ele>91.41</ele>
        <time>2018-06-01T13:58:32Z</time>
      </trkpt>
      <trkpt lat="47.93134" lon="-3.47031">
        <ele>89.23</ele>
        <time>2018-06-01T13:58:52Z</time>
      </trkpt>
      <trkpt lat="47.93134" lon="-3.4699">
        <ele>87.36</ele>
        <time>2018-06-01T13:59:07Z</time>
      </trkpt>
      <trkpt lat="47.93134" lon="-3.46958">
        <ele>85.19</ele>
        <time>2018-06-01T13:59:19Z</time>
      </trkpt>
      <trkpt lat="47.93135" lon="-3.46922">
        <ele>82.78</ele>
        <time>2018-06-01T13:59:35Z</time>
      </trkpt>
      <trkpt lat="47.93135" lon="-3.46911">
        <ele>81.82</ele>
        <time>2018-06-01T13:59:40Z</time>
      </trkpt>
      <trkpt lat="47.93134" lon="-3.46909">
        <ele>81.64</ele>
        <time>2018-06-01T13:59:41Z</time>
      </trkpt>
      <trkpt lat="47.93134" lon="-3.46907">
        <ele>81.47</ele>
        <time>2018-06-01T13:59:42Z</time>
      </trkpt>
      <trkpt lat="47.93132" lon="-3.46869">
        <ele>79.14</ele>
        <time>2018-06-01T13:59:57Z</time>
      </trkpt>
      <trkpt lat="47.93125" lon="-3.46831">
        <ele>76.65</ele>
        <time>2018-06-01T14:00:12Z</time>
      </trkpt>
      <trkpt lat="47.93113" lon="-3.46782">
        <ele>73.73</ele>
        <time>2018-06-01T14:00:31Z</time>
      </trkpt>
      <trkpt lat="47.93121" lon="-3.46746">
        <ele>71.68</ele>
        <time>2018-06-01T14:00:47Z</time>
      </trkpt>
      <trkpt lat="47.93133" lon="-3.46711">
        <ele>71.23</ele>
        <time>2018-06-01T14:01:04Z</time>
      </trkpt>
      <trkpt lat="47.93139" lon="-3.4667">
        <ele>71.27</ele>
        <time>2018-06-01T14:01:22Z</time>
      </trkpt>
      <trkpt lat="47.93145" lon="-3.46632">
        <ele>71.02</ele>
        <time>2018-06-01T14:01:40Z</time>
      </trkpt>
      <trkpt lat="47.93151" lon="-3.46591">
        <ele>70.67</ele>
        <time>2018-06-01T14:01:58Z</time>
      </trkpt>
      <trkpt lat="47.9316" lon="-3.46553">
        <ele>70.44</ele>
        <time>2018-06-01T14:02:14Z</time>
      </trkpt>
      <trkpt lat="47.93171" lon="-3.46513">
        <ele>70.41</ele>
        <time>2018-06-01T14:02:31Z</time>
      </trkpt>
      <trkpt lat="47.93184" lon="-3.46471">
        <ele>70.04</ele>
        <time>2018-06-01T14:02:50Z</time>
      </trkpt>
      <trkpt lat="47.9319" lon="-3.46432">
        <ele>69.72</ele>
        <time>2018-06-01T14:03:07Z</time>
      </trkpt>
      <trkpt lat="47.93197" lon="-3.46392">
        <ele>68.99</ele>
        <time>2018-06-01T14:03:24Z</time>
      </trkpt>
      <trkpt lat="47.93211" lon="-3.46363">
        <ele>67.5</ele>
        <time>2018-06-01T14:03:40Z</time>
      </trkpt>
      <trkpt lat="47.93226" lon="-3.46338">
        <ele>65.36</ele>
        <time>2018-06-01T14:03:56Z</time>
      </trkpt>
      <trkpt lat="47.93222" lon="-3.46317">
        <ele>64.84</ele>
        <time>2018-06-01T14:04:08Z</time>
      </trkpt>
      <trkpt lat="47.93217" lon="-3.46303">
        <ele>65.19</ele>
        <time>2018-06-01T14:04:20Z</time>
      </trkpt>
      <trkpt lat="47.93216" lon="-3.46301">
        <ele>65.25</ele>
        <time>2018-06-01T14:04:21Z</time>
      </trkpt>
      <trkpt lat="47.93216" lon="-3.46299">
        <ele>65.33</ele>
        <time>2018-06-01T14:04:22Z</time>
      </trkpt>
      <trkpt lat="47.93216" lon="-3.46298">
        <ele>65.4</ele>
        <time>2018-06-01T14:04:23Z</time>
      </trkpt>
      <trkpt lat="47.93215" lon="-3.46291">
        <ele>66.25</ele>
        <time>2018-06-01T14:04:40Z</time>
      </trkpt>
      <trkpt lat="47.93216" lon="-3.46287">
        <ele>66.56</ele>
        <time>2018-06-01T14:04:43Z</time>
      </trkpt>
      <trkpt lat="47.93218" lon="-3.46281">
        <ele>66.84</ele>
        <time>2018-06-01T14:04:46Z</time>
      </trkpt>
      <trkpt lat="47.93219" lon="-3.4628">
        <ele>66.98</ele>
        <time>2018-06-01T14:04:47Z</time>
      </trkpt>
      <trkpt lat="47.93228" lon="-3.46255">
        <ele>68.21</ele>
        <time>2018-06-01T14:04:59Z</time>
      </trkpt>
      <trkpt lat="47.93243" lon="-3.46228">
        <ele>69.14</ele>
        <time>2018-06-01T14:05:08Z</time>
      </trkpt>
      <trkpt lat="47.93262" lon="-3.46207">
        <ele>70.81</ele>
        <time>2018-06-01T14:05:24Z</time>
      </trkpt>
      <trkpt lat="47.93287" lon="-3.46189">
        <ele>71.96</ele>
        <time>2018-06-01T14:05:41Z</time>
      </trkpt>
      <trkpt lat="47.9331" lon="-3.46174">
        <ele>72.63</ele>
        <time>2018-06-01T14:05:56Z</time>
      </trkpt>
      <trkpt lat="47.93337" lon="-3.46161">
        <ele>73.1</ele>
        <time>2018-06-01T14:06:13Z</time>
      </trkpt>
      <trkpt lat="47.93356" lon="-3.46163">
        <ele>74.79</ele>
        <time>2018-06-01T14:06:27Z</time>
      </trkpt>
      <trkpt lat="47.93364" lon="-3.46165">
        <ele>75.7</ele>
        <time>2018-06-01T14:06:32Z</time>
      </trkpt>
      <trkpt lat="47.93379" lon="-3.46163">
        <ele>78.2</ele>
        <time>2018-06-01T14:06:45Z</time>
      </trkpt>
      <trkpt lat="47.93388" lon="-3.46158">
        <ele>79.71</ele>
        <time>2018-06-01T14:07:03Z</time>
      </trkpt>
      <trkpt lat="47.93393" lon="-3.4616">
        <ele>80.84</ele>
        <time>2018-06-01T14:07:20Z</time>
      </trkpt>
      <trkpt lat="47.93398" lon="-3.46159">
        <ele>80.57</ele>
        <time>2018-06-01T14:07:35Z</time>
      </trkpt>
      <trkpt lat="47.93403" lon="-3.4616">
        <ele>81.13</ele>
        <time>2018-06-01T14:07:51Z</time>
      </trkpt>
      <trkpt lat="47.93404" lon="-3.4616">
        <ele>81.13</ele>
        <time>2018-06-01T14:07:52Z</time>
      </trkpt>
      <trkpt lat="47.9341" lon="-3.4616">
        <ele>81.79</ele>
        <time>2018-06-01T14:07:57Z</time>
      </trkpt>
      <trkpt lat="47.93416" lon="-3.4616">
        <ele>82.67</ele>
        <time>2018-06-01T14:08:02Z</time>
      </trkpt>
      <trkpt lat="47.93432" lon="-3.46161">
        <ele>85.34</ele>
        <time>2018-06-01T14:08:16Z</time>
      </trkpt>
      <trkpt lat="47.93447" lon="-3.46165">
        <ele>87.71</ele>
        <time>2018-06-01T14:08:31Z</time>
      </trkpt>
      <trkpt lat="47.93449" lon="-3.46166">
        <ele>87.95</ele>
        <time>2018-06-01T14:08:33Z</time>
      </trkpt>
      <trkpt lat="47.93452" lon="-3.46166">
        <ele>88.16</ele>
        <time>2018-06-01T14:08:35Z</time>
      </trkpt>
      <trkpt lat="47.9347" lon="-3.46163">
        <ele>89.31</ele>
        <time>2018-06-01T14:08:52Z</time>
      </trkpt>
      <trkpt lat="47.93488" lon="-3.46165">
        <ele>88.18</ele>
        <time>2018-06-01T14:09:05Z</time>
      </trkpt>
      <trkpt lat="47.93492" lon="-3.46166">
        <ele>87.89</ele>
        <time>2018-06-01T14:09:09Z</time>
      </trkpt>
      <trkpt lat="47.93501" lon="-3.46167">
        <ele>87.61</ele>
        <time>2018-06-01T14:09:15Z</time>
      </trkpt>
      <trkpt lat="47.93509" lon="-3.46175">
        <ele>87.54</ele>
        <time>2018-06-01T14:09:24Z</time>
      </trkpt>
      <trkpt lat="47.93512" lon="-3.46188">
        <ele>88.02</ele>
        <time>2018-06-01T14:09:28Z</time>
      </trkpt>
      <trkpt lat="47.93518" lon="-3.46213">
        <ele>91.38</ele>
        <time>2018-06-01T14:09:34Z</time>
      </trkpt>
      <trkpt lat="47.93522" lon="-3.46221">
        <ele>94.15</ele>
        <time>2018-06-01T14:09:37Z</time>
      </trkpt>
      <trkpt lat="47.93526" lon="-3.46235">
        <ele>98.04</ele>
        <time>2018-06-01T14:09:44Z</time>
      </trkpt>
      <trkpt lat="47.93541" lon="-3.46259">
        <ele>97.06</ele>
        <time>2018-06-01T14:10:03Z</time>
      </trkpt>
      <trkpt lat="47.93564" lon="-3.46279">
        <ele>94.83</ele>
        <time>2018-06-01T14:10:24Z</time>
      </trkpt>
      <trkpt lat="47.93582" lon="-3.46277">
        <ele>95.53</ele>
        <time>2018-06-01T14:10:30Z</time>
      </trkpt>
      <trkpt lat="47.93583" lon="-3.46268">
        <ele>93.33</ele>
        <time>2018-06-01T14:10:51Z</time>
      </trkpt>
      <trkpt lat="47.93608" lon="-3.46262">
        <ele>90.24</ele>
        <time>2018-06-01T14:11:12Z</time>
      </trkpt>
      <trkpt lat="47.9363" lon="-3.46257">
        <ele>88.01</ele>
        <time>2018-06-01T14:11:26Z</time>
      </trkpt>
      <trkpt lat="47.93653" lon="-3.46253">
        <ele>86.01</ele>
        <time>2018-06-01T14:11:38Z</time>
      </trkpt>
      <trkpt lat="47.93678" lon="-3.46249">
        <ele>83.9</ele>
        <time>2018-06-01T14:11:51Z</time>
      </trkpt>
      <trkpt lat="47.93695" lon="-3.46246">
        <ele>81.6</ele>
        <time>2018-06-01T14:12:05Z</time>
      </trkpt>
      <trkpt lat="47.93711" lon="-3.46256">
        <ele>80.32</ele>
        <time>2018-06-01T14:12:21Z</time>
      </trkpt>
      <trkpt lat="47.93732" lon="-3.46272">
        <ele>80.02</ele>
        <time>2018-06-01T14:12:38Z</time>
      </trkpt>
      <trkpt lat="47.93756" lon="-3.46287">
        <ele>78.29</ele>
        <time>2018-06-01T14:13:00Z</time>
      </trkpt>
      <trkpt lat="47.93773" lon="-3.46311">
        <ele>78.09</ele>
        <time>2018-06-01T14:13:16Z</time>
      </trkpt>
      <trkpt lat="47.93791" lon="-3.4634">
        <ele>81.41</ele>
        <time>2018-06-01T14:13:33Z</time>
      </trkpt>
      <trkpt lat="47.93809" lon="-3.46353">
        <ele>83.27</ele>
        <time>2018-06-01T14:13:52Z</time>
      </trkpt>
      <trkpt lat="47.93815" lon="-3.46354">
        <ele>82.99</ele>
        <time>2018-06-01T14:14:10Z</time>
      </trkpt>
      <trkpt lat="47.93818" lon="-3.46354">
        <ele>82.8</ele>
        <time>2018-06-01T14:14:20Z</time>
      </trkpt>
      <trkpt lat="47.93828" lon="-3.46358">
        <ele>82.66</ele>
        <time>2018-06-01T14:14:35Z</time>
      </trkpt>
      <trkpt lat="47.93835" lon="-3.46358">
        <ele>83.2</ele>
        <time>2018-06-01T14:14:57Z</time>
      </trkpt>
      <trkpt lat="47.93836" lon="-3.46355">
        <ele>83.14</ele>
        <time>2018-06-01T14:15:18Z</time>
      </trkpt>
      <trkpt lat="47.93848" lon="-3.46372">
        <ele>83.13</ele>
        <time>2018-06-01T14:15:38Z</time>
      </trkpt>
      <trkpt lat="47.9386" lon="-3.46405">
        <ele>86.23</ele>
        <time>2018-06-01T14:15:57Z</time>
      </trkpt>
      <trkpt lat="47.93869" lon="-3.46433">
        <ele>88.46</ele>
        <time>2018-06-01T14:16:16Z</time>
      </trkpt>
      <trkpt lat="47.93893" lon="-3.46459">
        <ele>89.72</ele>
        <time>2018-06-01T14:16:36Z</time>
      </trkpt>
      <trkpt lat="47.93906" lon="-3.46495">
        <ele>88.94</ele>
        <time>2018-06-01T14:16:57Z</time>
      </trkpt>
      <trkpt lat="47.93918" lon="-3.46529">
        <ele>90.04</ele>
        <time>2018-06-01T14:17:17Z</time>
      </trkpt>
      <trkpt lat="47.93922" lon="-3.46559">
        <ele>91.6</ele>
        <time>2018-06-01T14:17:31Z</time>
      </trkpt>
      <trkpt lat="47.93927" lon="-3.46586">
        <ele>94.63</ele>
        <time>2018-06-01T14:17:49Z</time>
      </trkpt>
      <trkpt lat="47.93931" lon="-3.46614">
        <ele>97.46</ele>
        <time>2018-06-01T14:18:10Z</time>
      </trkpt>
      <trkpt lat="47.9393" lon="-3.46637">
        <ele>97.14</ele>
        <time>2018-06-01T14:18:23Z</time>
      </trkpt>
      <trkpt lat="47.93928" lon="-3.46651">
        <ele>97.49</ele>
        <time>2018-06-01T14:18:31Z</time>
      </trkpt>
      <trkpt lat="47.9393" lon="-3.46656">
        <ele>97.34</ele>
        <time>2018-06-01T14:18:55Z</time>
      </trkpt>
      <trkpt lat="47.93927" lon="-3.46663">
        <ele>97.4</ele>
        <time>2018-06-01T14:19:18Z</time>
      </trkpt>
      <trkpt lat="47.93926" lon="-3.46676">
        <ele>97.51</ele>
        <time>2018-06-01T14:19:34Z</time>
      </trkpt>
      <trkpt lat="47.93929" lon="-3.46689">
        <ele>98.14</ele>
        <time>2018-06-01T14:19:47Z</time>
      </trkpt>
      <trkpt lat="47.93934" lon="-3.46706">
        <ele>98.19</ele>
        <time>2018-06-01T14:20:05Z</time>
      </trkpt>
      <trkpt lat="47.93934" lon="-3.46729">
        <ele>98.55</ele>
        <time>2018-06-01T14:20:20Z</time>
      </trkpt>
      <trkpt lat="47.93934" lon="-3.46731">
        <ele>98.6</ele>
        <time>2018-06-01T14:20:21Z</time>
      </trkpt>
      <trkpt lat="47.93934" lon="-3.46737">
        <ele>98.77</ele>
        <time>2018-06-01T14:20:24Z</time>
      </trkpt>
      <trkpt lat="47.93936" lon="-3.46751">
        <ele>98.93</ele>
        <time>2018-06-01T14:20:30Z</time>
      </trkpt>
      <trkpt lat="47.93935" lon="-3.46774">
        <ele>99.09</ele>
        <time>2018-06-01T14:20:39Z</time>
      </trkpt>
      <trkpt lat="47.93933" lon="-3.468">
        <ele>99.31</ele>
        <time>2018-06-01T14:20:52Z</time>
      </trkpt>
      <trkpt lat="47.93934" lon="-3.46822">
        <ele>99.96</ele>
        <time>2018-06-01T14:21:02Z</time>
      </trkpt>
      <trkpt lat="47.93932" lon="-3.46837">
        <ele>100.37</ele>
        <time>2018-06-01T14:21:09Z</time>
      </trkpt>
      <trkpt lat="47.93931" lon="-3.46845">
        <ele>100.76</ele>
        <time>2018-06-01T14:21:13Z</time>
      </trkpt>
      <trkpt lat="47.9394" lon="-3.46868">
        <ele>102.62</ele>
        <time>2018-06-01T14:21:25Z</time>
      </trkpt>
      <trkpt lat="47.9394" lon="-3.46876">
        <ele>103.08</ele>
        <time>2018-06-01T14:21:28Z</time>
      </trkpt>
      <trkpt lat="47.93937" lon="-3.46886">
        <ele>103.67</ele>
        <time>2018-06-01T14:21:33Z</time>
      </trkpt>
      <trkpt lat="47.93934" lon="-3.46907">
        <ele>105.62</ele>
        <time>2018-06-01T14:21:48Z</time>
      </trkpt>
      <trkpt lat="47.9394" lon="-3.46948">
        <ele>107.06</ele>
        <time>2018-06-01T14:22:12Z</time>
      </trkpt>
      <trkpt lat="47.93936" lon="-3.46973">
        <ele>110.12</ele>
        <time>2018-06-01T14:22:35Z</time>
      </trkpt>
      <trkpt lat="47.93925" lon="-3.46992">
        <ele>112.14</ele>
        <time>2018-06-01T14:22:54Z</time>
      </trkpt>
      <trkpt lat="47.93915" lon="-3.47035">
        <ele>110.34</ele>
        <time>2018-06-01T14:23:14Z</time>
      </trkpt>
      <trkpt lat="47.93909" lon="-3.4706">
        <ele>108.49</ele>
        <time>2018-06-01T14:23:25Z</time>
      </trkpt>
      <trkpt lat="47.93902" lon="-3.47088">
        <ele>106.67</ele>
        <time>2018-06-01T14:23:37Z</time>
      </trkpt>
      <trkpt lat="47.93891" lon="-3.47117">
        <ele>105.58</ele>
        <time>2018-06-01T14:23:54Z</time>
      </trkpt>
      <trkpt lat="47.93881" lon="-3.47128">
        <ele>106.08</ele>
        <time>2018-06-01T14:24:02Z</time>
      </trkpt>
      <trkpt lat="47.9387" lon="-3.47135">
        <ele>106.54</ele>
        <time>2018-06-01T14:24:09Z</time>
      </trkpt>
      <trkpt lat="47.93858" lon="-3.47143">
        <ele>107.62</ele>
        <time>2018-06-01T14:24:18Z</time>
      </trkpt>
      <trkpt lat="47.93856" lon="-3.47147">
        <ele>107.99</ele>
        <time>2018-06-01T14:24:20Z</time>
      </trkpt>
      <trkpt lat="47.93835" lon="-3.47168">
        <ele>110.42</ele>
        <time>2018-06-01T14:24:35Z</time>
      </trkpt>
      <trkpt lat="47.93799" lon="-3.4722">
        <ele>113.54</ele>
        <time>2018-06-01T14:24:55Z</time>
      </trkpt>
      <trkpt lat="47.93774" lon="-3.47256">
        <ele>116.63</ele>
        <time>2018-06-01T14:25:14Z</time>
      </trkpt>
      <trkpt lat="47.93756" lon="-3.47285">
        <ele>118.77</ele>
        <time>2018-06-01T14:25:31Z</time>
      </trkpt>
      <trkpt lat="47.93734" lon="-3.47317">
        <ele>120.24</ele>
        <time>2018-06-01T14:25:49Z</time>
      </trkpt>
      <trkpt lat="47.9372" lon="-3.47338">
        <ele>121.94</ele>
        <time>2018-06-01T14:26:04Z</time>
      </trkpt>
      <trkpt lat="47.93718" lon="-3.47341">
        <ele>122.14</ele>
        <time>2018-06-01T14:26:07Z</time>
      </trkpt>
      <trkpt lat="47.93702" lon="-3.47365">
        <ele>122.97</ele>
        <time>2018-06-01T14:26:23Z</time>
      </trkpt>
      <trkpt lat="47.9369" lon="-3.47386">
        <ele>123.61</ele>
        <time>2018-06-01T14:26:37Z</time>
      </trkpt>
      <trkpt lat="47.93675" lon="-3.47414">
        <ele>124.63</ele>
        <time>2018-06-01T14:26:55Z</time>
      </trkpt>
      <trkpt lat="47.93661" lon="-3.47439">
        <ele>124.32</ele>
        <time>2018-06-01T14:27:11Z</time>
      </trkpt>
      <trkpt lat="47.93661" lon="-3.47453">
        <ele>123.93</ele>
        <time>2018-06-01T14:27:27Z</time>
      </trkpt>
      <trkpt lat="47.9366" lon="-3.47455">
        <ele>123.5</ele>
        <time>2018-06-01T14:27:53Z</time>
      </trkpt>
      <trkpt lat="47.93661" lon="-3.47457">
        <ele>123.37</ele>
        <time>2018-06-01T14:28:12Z</time>
      </trkpt>
      <trkpt lat="47.93664" lon="-3.47462">
        <ele>123.43</ele>
        <time>2018-06-01T14:28:31Z</time>
      </trkpt>
      <trkpt lat="47.93664" lon="-3.4746">
        <ele>123.55</ele>
        <time>2018-06-01T14:28:51Z</time>
      </trkpt>
      <trkpt lat="47.93664" lon="-3.47458">
        <ele>123.42</ele>
        <time>2018-06-01T14:29:12Z</time>
      </trkpt>
      <trkpt lat="47.93667" lon="-3.47461">
        <ele>123.31</ele>
        <time>2018-06-01T14:29:29Z</time>
      </trkpt>
    </trkseg>
  </trk>
  <trk>
    <name><![CDATA[Pont-Scorff - Queven - Gestel 27 km]]></name>
    <trkseg>
      <trkpt lat="47.83426" lon="-3.39105">
        <ele>-5.96</ele>
        <time>2018-05-31T07:09:31Z</time>
      </trkpt>
      <trkpt lat="47.83426" lon="-3.39105">
        <ele>-5.96</ele>
        <time>2018-05-31T07:09:32Z</time>
      </trkpt>
      <trkpt lat="47.83442" lon="-3.39106">
        <ele>-5.8</ele>
        <time>2018-05-31T07:09:53Z</time>
      </trkpt>
      <trkpt lat="47.8344" lon="-3.39098">
        <ele>-5.97</ele>
        <time>2018-05-31T07:10:06Z</time>
      </trkpt>
      <trkpt lat="47.83441" lon="-3.39102">
        <ele>-6.19</ele>
        <time>2018-05-31T07:10:22Z</time>
      </trkpt>
      <trkpt lat="47.83441" lon="-3.39112">
        <ele>-6.31</ele>
        <time>2018-05-31T07:10:36Z</time>
      </trkpt>
      <trkpt lat="47.83441" lon="-3.39112">
        <ele>-5.9</ele>
        <time>2018-05-31T07:10:49Z</time>
      </trkpt>
      <trkpt lat="47.83437" lon="-3.39113">
        <ele>-5.94</ele>
        <time>2018-05-31T07:11:15Z</time>
      </trkpt>
      <trkpt lat="47.83436" lon="-3.39115">
        <ele>-5.79</ele>
        <time>2018-05-31T07:11:39Z</time>
      </trkpt>
      <trkpt lat="47.83438" lon="-3.39119">
        <ele>-5.9</ele>
        <time>2018-05-31T07:12:02Z</time>
      </trkpt>
      <trkpt lat="47.8344" lon="-3.39121">
        <ele>-6.36</ele>
        <time>2018-05-31T07:12:21Z</time>
      </trkpt>
      <trkpt lat="47.83441" lon="-3.39122">
        <ele>-6.15</ele>
        <time>2018-05-31T07:12:40Z</time>
      </trkpt>
      <trkpt lat="47.83441" lon="-3.39121">
        <ele>-6.03</ele>
        <time>2018-05-31T07:13:10Z</time>
      </trkpt>
      <trkpt lat="47.83441" lon="-3.39123">
        <ele>-5.99</ele>
        <time>2018-05-31T07:13:40Z</time>
      </trkpt>
      <trkpt lat="47.83442" lon="-3.39125">
        <ele>-6.08</ele>
        <time>2018-05-31T07:13:49Z</time>
      </trkpt>
      <trkpt lat="47.83446" lon="-3.39128">
        <ele>-6.07</ele>
        <time>2018-05-31T07:13:53Z</time>
      </trkpt>
      <trkpt lat="47.83468" lon="-3.39129">
        <ele>-5.51</ele>
        <time>2018-05-31T07:14:11Z</time>
      </trkpt>
      <trkpt lat="47.83476" lon="-3.39152">
        <ele>-4.87</ele>
        <time>2018-05-31T07:14:26Z</time>
      </trkpt>
      <trkpt lat="47.8348" lon="-3.3917">
        <ele>-4.5</ele>
        <time>2018-05-31T07:14:36Z</time>
      </trkpt>
      <trkpt lat="47.83488" lon="-3.39202">
        <ele>-4.5</ele>
        <time>2018-05-31T07:14:53Z</time>
      </trkpt>
      <trkpt lat="47.83495" lon="-3.39233">
        <ele>-4.4</ele>
        <time>2018-05-31T07:15:10Z</time>
      </trkpt>
      <trkpt lat="47.83506" lon="-3.39256">
        <ele>-4.18</ele>
        <time>2018-05-31T07:15:25Z</time>
      </trkpt>
      <trkpt lat="47.83523" lon="-3.39289">
        <ele>-4.12</ele>
        <time>2018-05-31T07:15:46Z</time>
      </trkpt>
      <trkpt lat="47.83548" lon="-3.3932">
        <ele>-4.61</ele>
        <time>2018-05-31T07:16:10Z</time>
      </trkpt>
      <trkpt lat="47.83556" lon="-3.39346">
        <ele>-5.61</ele>
        <time>2018-05-31T07:16:27Z</time>
      </trkpt>
      <trkpt lat="47.83555" lon="-3.39358">
        <ele>-6.08</ele>
        <time>2018-05-31T07:16:34Z</time>
      </trkpt>
      <trkpt lat="47.83551" lon="-3.39385">
        <ele>-6.75</ele>
        <time>2018-05-31T07:16:48Z</time>
      </trkpt>
      <trkpt lat="47.83542" lon="-3.39432">
        <ele>-6.83</ele>
        <time>2018-05-31T07:17:11Z</time>
      </trkpt>
      <trkpt lat="47.83541" lon="-3.39435">
        <ele>-7.23</ele>
        <time>2018-05-31T07:17:23Z</time>
      </trkpt>
      <trkpt lat="47.8354" lon="-3.39435">
        <ele>-6.79</ele>
        <time>2018-05-31T07:17:43Z</time>
      </trkpt>
      <trkpt lat="47.83539" lon="-3.39439">
        <ele>-6.77</ele>
        <time>2018-05-31T07:17:47Z</time>
      </trkpt>
      <trkpt lat="47.83532" lon="-3.39471">
        <ele>-6.34</ele>
        <time>2018-05-31T07:18:05Z</time>
      </trkpt>
      <trkpt lat="47.83528" lon="-3.39475">
        <ele>-6.09</ele>
        <time>2018-05-31T07:18:12Z</time>
      </trkpt>
      <trkpt lat="47.83526" lon="-3.39474">
        <ele>-6.04</ele>
        <time>2018-05-31T07:18:14Z</time>
      </trkpt>
      <trkpt lat="47.8351" lon="-3.39477">
        <ele>-6.37</ele>
        <time>2018-05-31T07:18:29Z</time>
      </trkpt>
      <trkpt lat="47.83485" lon="-3.39467">
        <ele>-6.58</ele>
        <time>2018-05-31T07:18:47Z</time>
      </trkpt>
      <trkpt lat="47.83469" lon="-3.39453">
        <ele>-7.22</ele>
        <time>2018-05-31T07:19:02Z</time>
      </trkpt>
      <trkpt lat="47.83454" lon="-3.39441">
        <ele>-7.45</ele>
        <time>2018-05-31T07:19:17Z</time>
      </trkpt>
      <trkpt lat="47.83439" lon="-3.39422">
        <ele>-6.95</ele>
        <time>2018-05-31T07:19:31Z</time>
      </trkpt>
      <trkpt lat="47.8343" lon="-3.39399">
        <ele>-6.52</ele>
        <time>2018-05-31T07:19:43Z</time>
      </trkpt>
      <trkpt lat="47.83428" lon="-3.39374">
        <ele>-7.78</ele>
        <time>2018-05-31T07:19:59Z</time>
      </trkpt>
      <trkpt lat="47.83427" lon="-3.39345">
        <ele>-8.28</ele>
        <time>2018-05-31T07:20:17Z</time>
      </trkpt>
      <trkpt lat="47.83435" lon="-3.39331">
        <ele>-8.91</ele>
        <time>2018-05-31T07:20:33Z</time>
      </trkpt>
      <trkpt lat="47.83436" lon="-3.39329">
        <ele>-9.1</ele>
        <time>2018-05-31T07:20:35Z</time>
      </trkpt>
      <trkpt lat="47.83436" lon="-3.39323">
        <ele>-9.26</ele>
        <time>2018-05-31T07:20:39Z</time>
      </trkpt>
      <trkpt lat="47.83433" lon="-3.39318">
        <ele>-8.9</ele>
        <time>2018-05-31T07:20:45Z</time>
      </trkpt>
      <trkpt lat="47.83433" lon="-3.39312">
        <ele>-8.73</ele>
        <time>2018-05-31T07:20:49Z</time>
      </trkpt>
      <trkpt lat="47.83429" lon="-3.39282">
        <ele>-8.46</ele>
        <time>2018-05-31T07:21:06Z</time>
      </trkpt>
      <trkpt lat="47.83419" lon="-3.39254">
        <ele>-9.14</ele>
        <time>2018-05-31T07:21:23Z</time>
      </trkpt>
      <trkpt lat="47.83414" lon="-3.39247">
        <ele>-9.2</ele>
        <time>2018-05-31T07:21:28Z</time>
      </trkpt>
      <trkpt lat="47.83402" lon="-3.39227">
        <ele>-9.07</ele>
        <time>2018-05-31T07:21:43Z</time>
      </trkpt>
      <trkpt lat="47.83391" lon="-3.39204">
        <ele>-8.64</ele>
        <time>2018-05-31T07:21:57Z</time>
      </trkpt>
      <trkpt lat="47.83386" lon="-3.3919">
        <ele>-8.5</ele>
        <time>2018-05-31T07:22:10Z</time>
      </trkpt>
      <trkpt lat="47.83376" lon="-3.39171">
        <ele>-8.44</ele>
        <time>2018-05-31T07:22:25Z</time>
      </trkpt>
      <trkpt lat="47.83375" lon="-3.39165">
        <ele>-8.29</ele>
        <time>2018-05-31T07:22:30Z</time>
      </trkpt>
      <trkpt lat="47.83374" lon="-3.39155">
        <ele>-8.72</ele>
        <time>2018-05-31T07:22:35Z</time>
      </trkpt>
      <trkpt lat="47.83366" lon="-3.39135">
        <ele>-9.2</ele>
        <time>2018-05-31T07:22:49Z</time>
      </trkpt>
      <trkpt lat="47.83353" lon="-3.39122">
        <ele>-7.91</ele>
        <time>2018-05-31T07:23:05Z</time>
      </trkpt>
      <trkpt lat="47.83347" lon="-3.39104">
        <ele>-6.59</ele>
        <time>2018-05-31T07:23:23Z</time>
      </trkpt>
      <trkpt lat="47.83343" lon="-3.391">
        <ele>-6.11</ele>
        <time>2018-05-31T07:23:46Z</time>
      </trkpt>
      <trkpt lat="47.83344" lon="-3.39093">
        <ele>-6</ele>
        <time>2018-05-31T07:24:15Z</time>
      </trkpt>
      <trkpt lat="47.83338" lon="-3.39077">
        <ele>-5.64</ele>
        <time>2018-05-31T07:24:33Z</time>
      </trkpt>
      <trkpt lat="47.83333" lon="-3.39062">
        <ele>-6.7</ele>
        <time>2018-05-31T07:24:45Z</time>
      </trkpt>
      <trkpt lat="47.83325" lon="-3.39034">
        <ele>-8.14</ele>
        <time>2018-05-31T07:24:59Z</time>
      </trkpt>
      <trkpt lat="47.83317" lon="-3.38995">
        <ele>-8.52</ele>
        <time>2018-05-31T07:25:15Z</time>
      </trkpt>
      <trkpt lat="47.83307" lon="-3.38975">
        <ele>-8.2</ele>
        <time>2018-05-31T07:25:25Z</time>
      </trkpt>
      <trkpt lat="47.83298" lon="-3.38961">
        <ele>-6.31</ele>
        <time>2018-05-31T07:25:40Z</time>
      </trkpt>
      <trkpt lat="47.83295" lon="-3.38956">
        <ele>-6.03</ele>
        <time>2018-05-31T07:25:46Z</time>
      </trkpt>
      <trkpt lat="47.83292" lon="-3.38948">
        <ele>-5.92</ele>
        <time>2018-05-31T07:25:51Z</time>
      </trkpt>
      <trkpt lat="47.8328" lon="-3.38922">
        <ele>-7.64</ele>
        <time>2018-05-31T07:26:04Z</time>
      </trkpt>
      <trkpt lat="47.83273" lon="-3.3891">
        <ele>-8.17</ele>
        <time>2018-05-31T07:26:11Z</time>
      </trkpt>
      <trkpt lat="47.83268" lon="-3.38901">
        <ele>-8.36</ele>
        <time>2018-05-31T07:26:15Z</time>
      </trkpt>
      <trkpt lat="47.83253" lon="-3.3888">
        <ele>-8.17</ele>
        <time>2018-05-31T07:26:28Z</time>
      </trkpt>
      <trkpt lat="47.83239" lon="-3.38858">
        <ele>-7.16</ele>
        <time>2018-05-31T07:26:42Z</time>
      </trkpt>
      <trkpt lat="47.83228" lon="-3.38835">
        <ele>-7.29</ele>
        <time>2018-05-31T07:26:56Z</time>
      </trkpt>
      <trkpt lat="47.83214" lon="-3.3881">
        <ele>-7.45</ele>
        <time>2018-05-31T07:27:10Z</time>
      </trkpt>
      <trkpt lat="47.83201" lon="-3.38788">
        <ele>-7.85</ele>
        <time>2018-05-31T07:27:23Z</time>
      </trkpt>
      <trkpt lat="47.83177" lon="-3.38772">
        <ele>-8.08</ele>
        <time>2018-05-31T07:27:41Z</time>
      </trkpt>
      <trkpt lat="47.83166" lon="-3.3877">
        <ele>-8.21</ele>
        <time>2018-05-31T07:27:51Z</time>
      </trkpt>
      <trkpt lat="47.83141" lon="-3.38777">
        <ele>-8.3</ele>
        <time>2018-05-31T07:28:09Z</time>
      </trkpt>
      <trkpt lat="47.83136" lon="-3.3878">
        <ele>-8.26</ele>
        <time>2018-05-31T07:28:13Z</time>
      </trkpt>
      <trkpt lat="47.83132" lon="-3.38783">
        <ele>-8.29</ele>
        <time>2018-05-31T07:28:15Z</time>
      </trkpt>
      <trkpt lat="47.83117" lon="-3.38803">
        <ele>-8.15</ele>
        <time>2018-05-31T07:28:29Z</time>
      </trkpt>
      <trkpt lat="47.83105" lon="-3.38826">
        <ele>-7.74</ele>
        <time>2018-05-31T07:28:45Z</time>
      </trkpt>
      <trkpt lat="47.831" lon="-3.38837">
        <ele>-7.84</ele>
        <time>2018-05-31T07:28:49Z</time>
      </trkpt>
      <trkpt lat="47.83089" lon="-3.38877">
        <ele>-8.48</ele>
        <time>2018-05-31T07:29:05Z</time>
      </trkpt>
      <trkpt lat="47.83084" lon="-3.38883">
        <ele>-8.44</ele>
        <time>2018-05-31T07:29:09Z</time>
      </trkpt>
      <trkpt lat="47.83079" lon="-3.38903">
        <ele>-6.54</ele>
        <time>2018-05-31T07:29:16Z</time>
      </trkpt>
      <trkpt lat="47.83074" lon="-3.38911">
        <ele>-5.3</ele>
        <time>2018-05-31T07:29:19Z</time>
      </trkpt>
      <trkpt lat="47.83073" lon="-3.38916">
        <ele>-4.1</ele>
        <time>2018-05-31T07:29:21Z</time>
      </trkpt>
      <trkpt lat="47.83065" lon="-3.38923">
        <ele>-0.34</ele>
        <time>2018-05-31T07:29:26Z</time>
      </trkpt>
      <trkpt lat="47.83043" lon="-3.38938">
        <ele>2.79</ele>
        <time>2018-05-31T07:29:38Z</time>
      </trkpt>
      <trkpt lat="47.83038" lon="-3.38938">
        <ele>3.09</ele>
        <time>2018-05-31T07:29:41Z</time>
      </trkpt>
      <trkpt lat="47.83028" lon="-3.38945">
        <ele>3.46</ele>
        <time>2018-05-31T07:29:46Z</time>
      </trkpt>
      <trkpt lat="47.83006" lon="-3.38952">
        <ele>4.57</ele>
        <time>2018-05-31T07:29:59Z</time>
      </trkpt>
      <trkpt lat="47.82985" lon="-3.38959">
        <ele>4.86</ele>
        <time>2018-05-31T07:30:14Z</time>
      </trkpt>
      <trkpt lat="47.82959" lon="-3.38956">
        <ele>2.28</ele>
        <time>2018-05-31T07:30:31Z</time>
      </trkpt>
      <trkpt lat="47.82951" lon="-3.3896">
        <ele>1.81</ele>
        <time>2018-05-31T07:30:36Z</time>
      </trkpt>
      <trkpt lat="47.82941" lon="-3.38962">
        <ele>1.54</ele>
        <time>2018-05-31T07:30:59Z</time>
      </trkpt>
      <trkpt lat="47.82933" lon="-3.38957">
        <ele>1.43</ele>
        <time>2018-05-31T07:31:10Z</time>
      </trkpt>
      <trkpt lat="47.82929" lon="-3.38954">
        <ele>1.4</ele>
        <time>2018-05-31T07:31:13Z</time>
      </trkpt>
      <trkpt lat="47.82927" lon="-3.38953">
        <ele>1.39</ele>
        <time>2018-05-31T07:31:15Z</time>
      </trkpt>
      <trkpt lat="47.82924" lon="-3.38953">
        <ele>1.2</ele>
        <time>2018-05-31T07:31:41Z</time>
      </trkpt>
      <trkpt lat="47.82918" lon="-3.38955">
        <ele>1.24</ele>
        <time>2018-05-31T07:31:48Z</time>
      </trkpt>
      <trkpt lat="47.82907" lon="-3.38956">
        <ele>1.69</ele>
        <time>2018-05-31T07:32:03Z</time>
      </trkpt>
      <trkpt lat="47.82898" lon="-3.38962">
        <ele>1.42</ele>
        <time>2018-05-31T07:32:22Z</time>
      </trkpt>
      <trkpt lat="47.82879" lon="-3.3897">
        <ele>-0.08</ele>
        <time>2018-05-31T07:32:38Z</time>
      </trkpt>
      <trkpt lat="47.82863" lon="-3.3897">
        <ele>-3.42</ele>
        <time>2018-05-31T07:32:50Z</time>
      </trkpt>
      <trkpt lat="47.82856" lon="-3.3897">
        <ele>-5.31</ele>
        <time>2018-05-31T07:32:55Z</time>
      </trkpt>
      <trkpt lat="47.82846" lon="-3.38971">
        <ele>-7.26</ele>
        <time>2018-05-31T07:33:03Z</time>
      </trkpt>
      <trkpt lat="47.82818" lon="-3.38982">
        <ele>-9.07</ele>
        <time>2018-05-31T07:33:16Z</time>
      </trkpt>
      <trkpt lat="47.8279" lon="-3.38993">
        <ele>-9.21</ele>
        <time>2018-05-31T07:33:31Z</time>
      </trkpt>
      <trkpt lat="47.82765" lon="-3.38998">
        <ele>-8.9</ele>
        <time>2018-05-31T07:33:45Z</time>
      </trkpt>
      <trkpt lat="47.8275" lon="-3.3901">
        <ele>-8.66</ele>
        <time>2018-05-31T07:33:57Z</time>
      </trkpt>
      <trkpt lat="47.82743" lon="-3.39016">
        <ele>-8.38</ele>
        <time>2018-05-31T07:34:05Z</time>
      </trkpt>
      <trkpt lat="47.82738" lon="-3.39023">
        <ele>-8.32</ele>
        <time>2018-05-31T07:34:13Z</time>
      </trkpt>
      <trkpt lat="47.82734" lon="-3.39026">
        <ele>-8.12</ele>
        <time>2018-05-31T07:34:17Z</time>
      </trkpt>
      <trkpt lat="47.82718" lon="-3.39033">
        <ele>-6.23</ele>
        <time>2018-05-31T07:34:33Z</time>
      </trkpt>
      <trkpt lat="47.82692" lon="-3.39051">
        <ele>-5.5</ele>
        <time>2018-05-31T07:34:50Z</time>
      </trkpt>
      <trkpt lat="47.82672" lon="-3.39058">
        <ele>-6.36</ele>
        <time>2018-05-31T07:35:04Z</time>
      </trkpt>
      <trkpt lat="47.82655" lon="-3.39073">
        <ele>-6.14</ele>
        <time>2018-05-31T07:35:19Z</time>
      </trkpt>
      <trkpt lat="47.82639" lon="-3.39118">
        <ele>-3.72</ele>
        <time>2018-05-31T07:35:38Z</time>
      </trkpt>
      <trkpt lat="47.82638" lon="-3.39121">
        <ele>-3.53</ele>
        <time>2018-05-31T07:35:39Z</time>
      </trkpt>
      <trkpt lat="47.82634" lon="-3.39132">
        <ele>-2.92</ele>
        <time>2018-05-31T07:35:44Z</time>
      </trkpt>
      <trkpt lat="47.82627" lon="-3.39147">
        <ele>-2.5</ele>
        <time>2018-05-31T07:35:58Z</time>
      </trkpt>
      <trkpt lat="47.82627" lon="-3.39151">
        <ele>-2.63</ele>
        <time>2018-05-31T07:36:04Z</time>
      </trkpt>
      <trkpt lat="47.8262" lon="-3.39171">
        <ele>-3.06</ele>
        <time>2018-05-31T07:36:35Z</time>
      </trkpt>
      <trkpt lat="47.82619" lon="-3.39171">
        <ele>-3.08</ele>
        <time>2018-05-31T07:36:36Z</time>
      </trkpt>
      <trkpt lat="47.82616" lon="-3.39171">
        <ele>-3.17</ele>
        <time>2018-05-31T07:36:39Z</time>
      </trkpt>
      <trkpt lat="47.82602" lon="-3.39166">
        <ele>-3.76</ele>
        <time>2018-05-31T07:36:52Z</time>
      </trkpt>
      <trkpt lat="47.82597" lon="-3.39167">
        <ele>-3.96</ele>
        <time>2018-05-31T07:36:55Z</time>
      </trkpt>
      <trkpt lat="47.82594" lon="-3.39168">
        <ele>-4.17</ele>
        <time>2018-05-31T07:36:57Z</time>
      </trkpt>
      <trkpt lat="47.82574" lon="-3.39147">
        <ele>-6.11</ele>
        <time>2018-05-31T07:37:13Z</time>
      </trkpt>
      <trkpt lat="47.82573" lon="-3.3912">
        <ele>-6.97</ele>
        <time>2018-05-31T07:37:28Z</time>
      </trkpt>
      <trkpt lat="47.82569" lon="-3.39095">
        <ele>-7.8</ele>
        <time>2018-05-31T07:37:42Z</time>
      </trkpt>
      <trkpt lat="47.82568" lon="-3.39089">
        <ele>-7.82</ele>
        <time>2018-05-31T07:37:46Z</time>
      </trkpt>
      <trkpt lat="47.82554" lon="-3.39067">
        <ele>-8.65</ele>
        <time>2018-05-31T07:38:01Z</time>
      </trkpt>
      <trkpt lat="47.82539" lon="-3.39078">
        <ele>-8.55</ele>
        <time>2018-05-31T07:38:11Z</time>
      </trkpt>
      <trkpt lat="47.82533" lon="-3.3908">
        <ele>-8.47</ele>
        <time>2018-05-31T07:38:15Z</time>
      </trkpt>
      <trkpt lat="47.82521" lon="-3.39074">
        <ele>-8.62</ele>
        <time>2018-05-31T07:38:25Z</time>
      </trkpt>
      <trkpt lat="47.82517" lon="-3.39073">
        <ele>-8.71</ele>
        <time>2018-05-31T07:38:36Z</time>
      </trkpt>
      <trkpt lat="47.82517" lon="-3.39068">
        <ele>-8.73</ele>
        <time>2018-05-31T07:38:48Z</time>
      </trkpt>
      <trkpt lat="47.82516" lon="-3.3907">
        <ele>-8.72</ele>
        <time>2018-05-31T07:38:51Z</time>
      </trkpt>
      <trkpt lat="47.82495" lon="-3.39098">
        <ele>-8.71</ele>
        <time>2018-05-31T07:39:11Z</time>
      </trkpt>
      <trkpt lat="47.8248" lon="-3.39113">
        <ele>-8.82</ele>
        <time>2018-05-31T07:39:23Z</time>
      </trkpt>
      <trkpt lat="47.8248" lon="-3.39145">
        <ele>-8.51</ele>
        <time>2018-05-31T07:39:39Z</time>
      </trkpt>
      <trkpt lat="47.82483" lon="-3.3916">
        <ele>-7.65</ele>
        <time>2018-05-31T07:39:47Z</time>
      </trkpt>
      <trkpt lat="47.82484" lon="-3.39167">
        <ele>-7.22</ele>
        <time>2018-05-31T07:39:51Z</time>
      </trkpt>
      <trkpt lat="47.82466" lon="-3.39176">
        <ele>-6.99</ele>
        <time>2018-05-31T07:40:07Z</time>
      </trkpt>
      <trkpt lat="47.82431" lon="-3.39189">
        <ele>-7.24</ele>
        <time>2018-05-31T07:40:26Z</time>
      </trkpt>
      <trkpt lat="47.82404" lon="-3.39194">
        <ele>-7.61</ele>
        <time>2018-05-31T07:40:43Z</time>
      </trkpt>
      <trkpt lat="47.82389" lon="-3.39195">
        <ele>-8.29</ele>
        <time>2018-05-31T07:40:53Z</time>
      </trkpt>
      <trkpt lat="47.82374" lon="-3.39193">
        <ele>-8.66</ele>
        <time>2018-05-31T07:41:03Z</time>
      </trkpt>
      <trkpt lat="47.82352" lon="-3.39195">
        <ele>-8.99</ele>
        <time>2018-05-31T07:41:17Z</time>
      </trkpt>
      <trkpt lat="47.82328" lon="-3.39199">
        <ele>-9.34</ele>
        <time>2018-05-31T07:41:31Z</time>
      </trkpt>
      <trkpt lat="47.82311" lon="-3.392">
        <ele>-9.47</ele>
        <time>2018-05-31T07:41:45Z</time>
      </trkpt>
      <trkpt lat="47.82306" lon="-3.39198">
        <ele>-9.62</ele>
        <time>2018-05-31T07:41:59Z</time>
      </trkpt>
      <trkpt lat="47.82304" lon="-3.39196">
        <ele>-9.69</ele>
        <time>2018-05-31T07:42:31Z</time>
      </trkpt>
      <trkpt lat="47.82302" lon="-3.39196">
        <ele>-9.38</ele>
        <time>2018-05-31T07:43:01Z</time>
      </trkpt>
      <trkpt lat="47.82289" lon="-3.39196">
        <ele>-9.54</ele>
        <time>2018-05-31T07:43:23Z</time>
      </trkpt>
      <trkpt lat="47.82276" lon="-3.39197">
        <ele>-9.75</ele>
        <time>2018-05-31T07:43:40Z</time>
      </trkpt>
      <trkpt lat="47.82258" lon="-3.39207">
        <ele>-9.75</ele>
        <time>2018-05-31T07:43:59Z</time>
      </trkpt>
      <trkpt lat="47.82252" lon="-3.39213">
        <ele>-9.87</ele>
        <time>2018-05-31T07:44:06Z</time>
      </trkpt>
      <trkpt lat="47.82244" lon="-3.39228">
        <ele>-9.79</ele>
        <time>2018-05-31T07:44:19Z</time>
      </trkpt>
      <trkpt lat="47.82241" lon="-3.39236">
        <ele>-9.41</ele>
        <time>2018-05-31T07:44:40Z</time>
      </trkpt>
      <trkpt lat="47.82239" lon="-3.39238">
        <ele>-8.83</ele>
        <time>2018-05-31T07:45:07Z</time>
      </trkpt>
      <trkpt lat="47.82235" lon="-3.39244">
        <ele>-8.97</ele>
        <time>2018-05-31T07:45:33Z</time>
      </trkpt>
      <trkpt lat="47.82231" lon="-3.39264">
        <ele>-8.8</ele>
        <time>2018-05-31T07:45:51Z</time>
      </trkpt>
      <trkpt lat="47.8223" lon="-3.39269">
        <ele>-8.78</ele>
        <time>2018-05-31T07:45:54Z</time>
      </trkpt>
      <trkpt lat="47.82233" lon="-3.39295">
        <ele>-8.38</ele>
        <time>2018-05-31T07:46:07Z</time>
      </trkpt>
      <trkpt lat="47.82232" lon="-3.39321">
        <ele>-7.75</ele>
        <time>2018-05-31T07:46:19Z</time>
      </trkpt>
      <trkpt lat="47.82231" lon="-3.39335">
        <ele>-7.45</ele>
        <time>2018-05-31T07:46:29Z</time>
      </trkpt>
      <trkpt lat="47.82232" lon="-3.3936">
        <ele>4.3125</ele>
      </trkpt>
      <trkpt lat="47.82212" lon="-3.39355">
        <ele>5.30078125</ele>
      </trkpt>
      <trkpt lat="47.82175" lon="-3.39351">
        <ele>8.1328125</ele>
      </trkpt>
      <trkpt lat="47.82163" lon="-3.39346">
        <ele>-0.93</ele>
        <time>2018-05-31T07:47:14Z</time>
      </trkpt>
      <trkpt lat="47.82137" lon="-3.39347">
        <ele>0.97</ele>
        <time>2018-05-31T07:47:31Z</time>
      </trkpt>
      <trkpt lat="47.82106" lon="-3.39351">
        <ele>4.07</ele>
        <time>2018-05-31T07:47:50Z</time>
      </trkpt>
      <trkpt lat="47.82083" lon="-3.39353">
        <ele>6.9</ele>
        <time>2018-05-31T07:48:05Z</time>
      </trkpt>
      <trkpt lat="47.82054" lon="-3.39356">
        <ele>9.99</ele>
        <time>2018-05-31T07:48:24Z</time>
      </trkpt>
      <trkpt lat="47.8203" lon="-3.39359">
        <ele>12.72</ele>
        <time>2018-05-31T07:48:40Z</time>
      </trkpt>
      <trkpt lat="47.82011" lon="-3.39364">
        <ele>14.66</ele>
        <time>2018-05-31T07:48:53Z</time>
      </trkpt>
      <trkpt lat="47.82008" lon="-3.39363">
        <ele>15.13</ele>
        <time>2018-05-31T07:48:56Z</time>
      </trkpt>
      <trkpt lat="47.82007" lon="-3.39358">
        <ele>15.91</ele>
        <time>2018-05-31T07:49:00Z</time>
      </trkpt>
      <trkpt lat="47.82006" lon="-3.39355">
        <ele>16.26</ele>
        <time>2018-05-31T07:49:03Z</time>
      </trkpt>
      <trkpt lat="47.82016" lon="-3.39327">
        <ele>16.74</ele>
        <time>2018-05-31T07:49:21Z</time>
      </trkpt>
      <trkpt lat="47.82017" lon="-3.39312">
        <ele>16.13</ele>
        <time>2018-05-31T07:49:28Z</time>
      </trkpt>
      <trkpt lat="47.82021" lon="-3.39288">
        <ele>15.57</ele>
        <time>2018-05-31T07:49:42Z</time>
      </trkpt>
      <trkpt lat="47.82026" lon="-3.39255">
        <ele>12.96</ele>
        <time>2018-05-31T07:50:00Z</time>
      </trkpt>
      <trkpt lat="47.82012" lon="-3.39222">
        <ele>14.79</ele>
        <time>2018-05-31T07:50:13Z</time>
      </trkpt>
      <trkpt lat="47.82008" lon="-3.39217">
        <ele>15.93</ele>
        <time>2018-05-31T07:50:18Z</time>
      </trkpt>
      <trkpt lat="47.81996" lon="-3.39208">
        <ele>19.2</ele>
        <time>2018-05-31T07:50:30Z</time>
      </trkpt>
      <trkpt lat="47.81988" lon="-3.39203">
        <ele>22.34</ele>
        <time>2018-05-31T07:50:38Z</time>
      </trkpt>
      <trkpt lat="47.81983" lon="-3.39205">
        <ele>25.35</ele>
        <time>2018-05-31T07:50:46Z</time>
      </trkpt>
      <trkpt lat="47.81972" lon="-3.39201">
        <ele>28.73</ele>
        <time>2018-05-31T07:50:57Z</time>
      </trkpt>
      <trkpt lat="47.81957" lon="-3.39212">
        <ele>30.8</ele>
        <time>2018-05-31T07:51:13Z</time>
      </trkpt>
      <trkpt lat="47.81943" lon="-3.39214">
        <ele>31.32</ele>
        <time>2018-05-31T07:51:26Z</time>
      </trkpt>
      <trkpt lat="47.81935" lon="-3.39222">
        <ele>31.81</ele>
        <time>2018-05-31T07:51:43Z</time>
      </trkpt>
      <trkpt lat="47.81932" lon="-3.39228">
        <ele>31.25</ele>
        <time>2018-05-31T07:52:01Z</time>
      </trkpt>
      <trkpt lat="47.81933" lon="-3.39233">
        <ele>31.08</ele>
        <time>2018-05-31T07:52:14Z</time>
      </trkpt>
      <trkpt lat="47.8193" lon="-3.39246">
        <ele>31.26</ele>
        <time>2018-05-31T07:52:31Z</time>
      </trkpt>
      <trkpt lat="47.81925" lon="-3.39245">
        <ele>31.5</ele>
        <time>2018-05-31T07:52:45Z</time>
      </trkpt>
      <trkpt lat="47.81926" lon="-3.39238">
        <ele>31.38</ele>
        <time>2018-05-31T07:53:01Z</time>
      </trkpt>
      <trkpt lat="47.81932" lon="-3.39244">
        <ele>32.05</ele>
        <time>2018-05-31T07:53:20Z</time>
      </trkpt>
      <trkpt lat="47.81923" lon="-3.39256">
        <ele>32.23</ele>
        <time>2018-05-31T07:53:38Z</time>
      </trkpt>
      <trkpt lat="47.81915" lon="-3.39255">
        <ele>32.08</ele>
        <time>2018-05-31T07:53:47Z</time>
      </trkpt>
      <trkpt lat="47.81913" lon="-3.3925">
        <ele>32.04</ele>
        <time>2018-05-31T07:53:49Z</time>
      </trkpt>
      <trkpt lat="47.81904" lon="-3.39216">
        <ele>31.1</ele>
        <time>2018-05-31T07:54:07Z</time>
      </trkpt>
      <trkpt lat="47.81884" lon="-3.39191">
        <ele>29.42</ele>
        <time>2018-05-31T07:54:23Z</time>
      </trkpt>
      <trkpt lat="47.8186" lon="-3.39173">
        <ele>27.82</ele>
        <time>2018-05-31T07:54:39Z</time>
      </trkpt>
      <trkpt lat="47.81828" lon="-3.39153">
        <ele>25.79</ele>
        <time>2018-05-31T07:55:01Z</time>
      </trkpt>
      <trkpt lat="47.81803" lon="-3.39157">
        <ele>24.52</ele>
        <time>2018-05-31T07:55:18Z</time>
      </trkpt>
      <trkpt lat="47.81787" lon="-3.39185">
        <ele>25.7</ele>
        <time>2018-05-31T07:55:35Z</time>
      </trkpt>
      <trkpt lat="47.8178" lon="-3.39221">
        <ele>26.75</ele>
        <time>2018-05-31T07:55:50Z</time>
      </trkpt>
      <trkpt lat="47.81772" lon="-3.39257">
        <ele>28.19</ele>
        <time>2018-05-31T07:56:06Z</time>
      </trkpt>
      <trkpt lat="47.8176" lon="-3.39301">
        <ele>29.9</ele>
        <time>2018-05-31T07:56:25Z</time>
      </trkpt>
      <trkpt lat="47.8174" lon="-3.39375">
        <ele>31.61</ele>
        <time>2018-05-31T07:56:40Z</time>
      </trkpt>
      <trkpt lat="47.81715" lon="-3.39472">
        <ele>33.11</ele>
        <time>2018-05-31T07:56:59Z</time>
      </trkpt>
      <trkpt lat="47.81697" lon="-3.39556">
        <ele>33.37</ele>
        <time>2018-05-31T07:57:15Z</time>
      </trkpt>
      <trkpt lat="47.81693" lon="-3.39617">
        <ele>32.23</ele>
        <time>2018-05-31T07:57:28Z</time>
      </trkpt>
      <trkpt lat="47.81688" lon="-3.39638">
        <ele>31.52</ele>
        <time>2018-05-31T07:57:32Z</time>
      </trkpt>
      <trkpt lat="47.81686" lon="-3.39643">
        <ele>31.29</ele>
        <time>2018-05-31T07:57:33Z</time>
      </trkpt>
      <trkpt lat="47.81682" lon="-3.39648">
        <ele>31.06</ele>
        <time>2018-05-31T07:57:34Z</time>
      </trkpt>
      <trkpt lat="47.81678" lon="-3.39651">
        <ele>30.85</ele>
        <time>2018-05-31T07:57:35Z</time>
      </trkpt>
      <trkpt lat="47.81674" lon="-3.39654">
        <ele>30.68</ele>
        <time>2018-05-31T07:57:36Z</time>
      </trkpt>
      <trkpt lat="47.81668" lon="-3.39655">
        <ele>30.53</ele>
        <time>2018-05-31T07:57:37Z</time>
      </trkpt>
      <trkpt lat="47.81663" lon="-3.39656">
        <ele>30.39</ele>
        <time>2018-05-31T07:57:38Z</time>
      </trkpt>
      <trkpt lat="47.81635" lon="-3.39658">
        <ele>29.98</ele>
        <time>2018-05-31T07:57:44Z</time>
      </trkpt>
      <trkpt lat="47.8163" lon="-3.39657">
        <ele>30.01</ele>
        <time>2018-05-31T07:57:45Z</time>
      </trkpt>
      <trkpt lat="47.81616" lon="-3.39652">
        <ele>30.11</ele>
        <time>2018-05-31T07:57:48Z</time>
      </trkpt>
      <trkpt lat="47.81611" lon="-3.39649">
        <ele>30.13</ele>
        <time>2018-05-31T07:57:49Z</time>
      </trkpt>
      <trkpt lat="47.81585" lon="-3.39634">
        <ele>30.12</ele>
        <time>2018-05-31T07:57:54Z</time>
      </trkpt>
      <trkpt lat="47.81505" lon="-3.39593">
        <ele>31.79</ele>
        <time>2018-05-31T07:58:09Z</time>
      </trkpt>
      <trkpt lat="47.815" lon="-3.3959">
        <ele>31.92</ele>
        <time>2018-05-31T07:58:10Z</time>
      </trkpt>
      <trkpt lat="47.81448" lon="-3.39565">
        <ele>34.01</ele>
        <time>2018-05-31T07:58:23Z</time>
      </trkpt>
      <trkpt lat="47.81426" lon="-3.39569">
        <ele>36.12</ele>
        <time>2018-05-31T07:58:34Z</time>
      </trkpt>
      <trkpt lat="47.81413" lon="-3.39608">
        <ele>36.19</ele>
        <time>2018-05-31T07:58:51Z</time>
      </trkpt>
      <trkpt lat="47.81401" lon="-3.39648">
        <ele>35.11</ele>
        <time>2018-05-31T07:59:07Z</time>
      </trkpt>
      <trkpt lat="47.81389" lon="-3.3969">
        <ele>33.69</ele>
        <time>2018-05-31T07:59:25Z</time>
      </trkpt>
      <trkpt lat="47.81374" lon="-3.39738">
        <ele>32.54</ele>
        <time>2018-05-31T07:59:45Z</time>
      </trkpt>
      <trkpt lat="47.81361" lon="-3.39787">
        <ele>31.66</ele>
        <time>2018-05-31T08:00:07Z</time>
      </trkpt>
      <trkpt lat="47.81352" lon="-3.39837">
        <ele>30.89</ele>
        <time>2018-05-31T08:00:27Z</time>
      </trkpt>
      <trkpt lat="47.81343" lon="-3.39881">
        <ele>29.72</ele>
        <time>2018-05-31T08:00:46Z</time>
      </trkpt>
      <trkpt lat="47.81334" lon="-3.39919">
        <ele>29.84</ele>
        <time>2018-05-31T08:01:04Z</time>
      </trkpt>
      <trkpt lat="47.81329" lon="-3.39958">
        <ele>30.88</ele>
        <time>2018-05-31T08:01:22Z</time>
      </trkpt>
      <trkpt lat="47.81321" lon="-3.40002">
        <ele>32</ele>
        <time>2018-05-31T08:01:41Z</time>
      </trkpt>
      <trkpt lat="47.81314" lon="-3.40047">
        <ele>32.73</ele>
        <time>2018-05-31T08:02:00Z</time>
      </trkpt>
      <trkpt lat="47.81308" lon="-3.40089">
        <ele>33.47</ele>
        <time>2018-05-31T08:02:18Z</time>
      </trkpt>
      <trkpt lat="47.81304" lon="-3.40132">
        <ele>32.88</ele>
        <time>2018-05-31T08:02:36Z</time>
      </trkpt>
      <trkpt lat="47.81301" lon="-3.40174">
        <ele>31.88</ele>
        <time>2018-05-31T08:02:53Z</time>
      </trkpt>
      <trkpt lat="47.81295" lon="-3.40191">
        <ele>31.36</ele>
        <time>2018-05-31T08:03:03Z</time>
      </trkpt>
      <trkpt lat="47.81293" lon="-3.40191">
        <ele>31.31</ele>
        <time>2018-05-31T08:03:04Z</time>
      </trkpt>
      <trkpt lat="47.81275" lon="-3.40188">
        <ele>29.44</ele>
        <time>2018-05-31T08:03:20Z</time>
      </trkpt>
      <trkpt lat="47.81264" lon="-3.40186">
        <ele>28.04</ele>
        <time>2018-05-31T08:03:30Z</time>
      </trkpt>
      <trkpt lat="47.81262" lon="-3.40185">
        <ele>27.89</ele>
        <time>2018-05-31T08:03:31Z</time>
      </trkpt>
      <trkpt lat="47.81259" lon="-3.40183">
        <ele>27.55</ele>
        <time>2018-05-31T08:03:33Z</time>
      </trkpt>
      <trkpt lat="47.81252" lon="-3.4018">
        <ele>26.64</ele>
        <time>2018-05-31T08:03:38Z</time>
      </trkpt>
      <trkpt lat="47.81251" lon="-3.40179">
        <ele>26.47</ele>
        <time>2018-05-31T08:03:39Z</time>
      </trkpt>
      <trkpt lat="47.81232" lon="-3.40172">
        <ele>23.44</ele>
        <time>2018-05-31T08:03:53Z</time>
      </trkpt>
      <trkpt lat="47.81221" lon="-3.40168">
        <ele>20.56</ele>
        <time>2018-05-31T08:04:01Z</time>
      </trkpt>
      <trkpt lat="47.81202" lon="-3.40164">
        <ele>17.35</ele>
        <time>2018-05-31T08:04:12Z</time>
      </trkpt>
      <trkpt lat="47.81189" lon="-3.40169">
        <ele>13.83</ele>
        <time>2018-05-31T08:04:22Z</time>
      </trkpt>
      <trkpt lat="47.81175" lon="-3.40176">
        <ele>10.54</ele>
        <time>2018-05-31T08:04:32Z</time>
      </trkpt>
      <trkpt lat="47.81157" lon="-3.40175">
        <ele>7.19</ele>
        <time>2018-05-31T08:04:42Z</time>
      </trkpt>
      <trkpt lat="47.81152" lon="-3.40175">
        <ele>6.13</ele>
        <time>2018-05-31T08:04:45Z</time>
      </trkpt>
      <trkpt lat="47.81135" lon="-3.40177">
        <ele>2.92</ele>
        <time>2018-05-31T08:04:55Z</time>
      </trkpt>
      <trkpt lat="47.81122" lon="-3.40187">
        <ele>-0.11</ele>
        <time>2018-05-31T08:05:06Z</time>
      </trkpt>
      <trkpt lat="47.8112" lon="-3.40191">
        <ele>-0.55</ele>
        <time>2018-05-31T08:05:08Z</time>
      </trkpt>
      <trkpt lat="47.81118" lon="-3.40193">
        <ele>-0.8</ele>
        <time>2018-05-31T08:05:09Z</time>
      </trkpt>
      <trkpt lat="47.81112" lon="-3.40198">
        <ele>-1.67</ele>
        <time>2018-05-31T08:05:13Z</time>
      </trkpt>
      <trkpt lat="47.81091" lon="-3.40221">
        <ele>-4.39</ele>
        <time>2018-05-31T08:05:31Z</time>
      </trkpt>
      <trkpt lat="47.81066" lon="-3.40248">
        <ele>-5.73</ele>
        <time>2018-05-31T08:05:46Z</time>
      </trkpt>
      <trkpt lat="47.8106" lon="-3.40258">
        <ele>-5.98</ele>
        <time>2018-05-31T08:05:50Z</time>
      </trkpt>
      <trkpt lat="47.8106" lon="-3.40261">
        <ele>-6.05</ele>
        <time>2018-05-31T08:05:51Z</time>
      </trkpt>
      <trkpt lat="47.8106" lon="-3.40264">
        <ele>-6.13</ele>
        <time>2018-05-31T08:05:52Z</time>
      </trkpt>
      <trkpt lat="47.8106" lon="-3.40267">
        <ele>-6.22</ele>
        <time>2018-05-31T08:05:53Z</time>
      </trkpt>
      <trkpt lat="47.81059" lon="-3.40269">
        <ele>-6.29</ele>
        <time>2018-05-31T08:05:54Z</time>
      </trkpt>
      <trkpt lat="47.81059" lon="-3.40271">
        <ele>-6.36</ele>
        <time>2018-05-31T08:05:55Z</time>
      </trkpt>
      <trkpt lat="47.81058" lon="-3.40273">
        <ele>-6.41</ele>
        <time>2018-05-31T08:05:56Z</time>
      </trkpt>
      <trkpt lat="47.81057" lon="-3.40275">
        <ele>-6.44</ele>
        <time>2018-05-31T08:05:57Z</time>
      </trkpt>
      <trkpt lat="47.81051" lon="-3.40293">
        <ele>-6.17</ele>
        <time>2018-05-31T08:06:08Z</time>
      </trkpt>
      <trkpt lat="47.81043" lon="-3.40306">
        <ele>-5.62</ele>
        <time>2018-05-31T08:06:16Z</time>
      </trkpt>
      <trkpt lat="47.81034" lon="-3.4032">
        <ele>-5.48</ele>
        <time>2018-05-31T08:06:24Z</time>
      </trkpt>
      <trkpt lat="47.81019" lon="-3.40332">
        <ele>-5.23</ele>
        <time>2018-05-31T08:06:36Z</time>
      </trkpt>
      <trkpt lat="47.81011" lon="-3.40336">
        <ele>-4.97</ele>
        <time>2018-05-31T08:06:42Z</time>
      </trkpt>
      <trkpt lat="47.80988" lon="-3.40345">
        <ele>-5.05</ele>
        <time>2018-05-31T08:06:56Z</time>
      </trkpt>
      <trkpt lat="47.80968" lon="-3.40366">
        <ele>-3.74</ele>
        <time>2018-05-31T08:07:11Z</time>
      </trkpt>
      <trkpt lat="47.80954" lon="-3.40384">
        <ele>-3.68</ele>
        <time>2018-05-31T08:07:21Z</time>
      </trkpt>
      <trkpt lat="47.80936" lon="-3.4042">
        <ele>-3.48</ele>
        <time>2018-05-31T08:07:37Z</time>
      </trkpt>
      <trkpt lat="47.80918" lon="-3.40445">
        <ele>-4.13</ele>
        <time>2018-05-31T08:07:52Z</time>
      </trkpt>
      <trkpt lat="47.80916" lon="-3.40449">
        <ele>-4.29</ele>
        <time>2018-05-31T08:07:54Z</time>
      </trkpt>
      <trkpt lat="47.80895" lon="-3.40462">
        <ele>-5.76</ele>
        <time>2018-05-31T08:08:09Z</time>
      </trkpt>
      <trkpt lat="47.80891" lon="-3.40458">
        <ele>-6</ele>
        <time>2018-05-31T08:08:12Z</time>
      </trkpt>
      <trkpt lat="47.80864" lon="-3.40456">
        <ele>-6.74</ele>
        <time>2018-05-31T08:08:28Z</time>
      </trkpt>
      <trkpt lat="47.80839" lon="-3.40457">
        <ele>-6.83</ele>
        <time>2018-05-31T08:08:43Z</time>
      </trkpt>
      <trkpt lat="47.80817" lon="-3.40454">
        <ele>-6.69</ele>
        <time>2018-05-31T08:08:57Z</time>
      </trkpt>
      <trkpt lat="47.80816" lon="-3.40453">
        <ele>-6.58</ele>
        <time>2018-05-31T08:08:59Z</time>
      </trkpt>
      <trkpt lat="47.80821" lon="-3.40428">
        <ele>-6.89</ele>
        <time>2018-05-31T08:09:13Z</time>
      </trkpt>
      <trkpt lat="47.80824" lon="-3.40407">
        <ele>-7.44</ele>
        <time>2018-05-31T08:09:26Z</time>
      </trkpt>
      <trkpt lat="47.80823" lon="-3.404">
        <ele>-7.55</ele>
        <time>2018-05-31T08:09:28Z</time>
      </trkpt>
      <trkpt lat="47.80825" lon="-3.40369">
        <ele>-8.12</ele>
        <time>2018-05-31T08:09:40Z</time>
      </trkpt>
      <trkpt lat="47.8083" lon="-3.40355">
        <ele>-8.67</ele>
        <time>2018-05-31T08:09:50Z</time>
      </trkpt>
      <trkpt lat="47.80833" lon="-3.40324">
        <ele>-9.02</ele>
        <time>2018-05-31T08:10:04Z</time>
      </trkpt>
      <trkpt lat="47.80832" lon="-3.40297">
        <ele>-9.2</ele>
        <time>2018-05-31T08:10:14Z</time>
      </trkpt>
      <trkpt lat="47.80835" lon="-3.40293">
        <ele>-9.19</ele>
        <time>2018-05-31T08:10:16Z</time>
      </trkpt>
      <trkpt lat="47.80837" lon="-3.40284">
        <ele>-9.19</ele>
        <time>2018-05-31T08:10:20Z</time>
      </trkpt>
      <trkpt lat="47.8084" lon="-3.40269">
        <ele>-9.12</ele>
        <time>2018-05-31T08:10:25Z</time>
      </trkpt>
      <trkpt lat="47.80844" lon="-3.40244">
        <ele>-9.08</ele>
        <time>2018-05-31T08:10:33Z</time>
      </trkpt>
      <trkpt lat="47.80847" lon="-3.40235">
        <ele>-9.12</ele>
        <time>2018-05-31T08:10:37Z</time>
      </trkpt>
      <trkpt lat="47.80848" lon="-3.40194">
        <ele>-9.26</ele>
        <time>2018-05-31T08:10:54Z</time>
      </trkpt>
      <trkpt lat="47.80853" lon="-3.40182">
        <ele>-9.35</ele>
        <time>2018-05-31T08:10:59Z</time>
      </trkpt>
      <trkpt lat="47.80857" lon="-3.40177">
        <ele>-9.34</ele>
        <time>2018-05-31T08:11:01Z</time>
      </trkpt>
      <trkpt lat="47.80868" lon="-3.40151">
        <ele>-9.2</ele>
        <time>2018-05-31T08:11:11Z</time>
      </trkpt>
      <trkpt lat="47.80871" lon="-3.4014">
        <ele>-9.22</ele>
        <time>2018-05-31T08:11:15Z</time>
      </trkpt>
      <trkpt lat="47.80876" lon="-3.40123">
        <ele>-9.23</ele>
        <time>2018-05-31T08:11:22Z</time>
      </trkpt>
      <trkpt lat="47.8088" lon="-3.40107">
        <ele>-9.15</ele>
        <time>2018-05-31T08:11:29Z</time>
      </trkpt>
      <trkpt lat="47.80884" lon="-3.401">
        <ele>-8.97</ele>
        <time>2018-05-31T08:11:33Z</time>
      </trkpt>
      <trkpt lat="47.80886" lon="-3.40091">
        <ele>-8.85</ele>
        <time>2018-05-31T08:11:38Z</time>
      </trkpt>
      <trkpt lat="47.80887" lon="-3.40067">
        <ele>-8.21</ele>
        <time>2018-05-31T08:11:49Z</time>
      </trkpt>
      <trkpt lat="47.80887" lon="-3.40053">
        <ele>-7.84</ele>
        <time>2018-05-31T08:11:55Z</time>
      </trkpt>
      <trkpt lat="47.80887" lon="-3.40044">
        <ele>-7.71</ele>
        <time>2018-05-31T08:11:59Z</time>
      </trkpt>
      <trkpt lat="47.80885" lon="-3.40022">
        <ele>-7.03</ele>
        <time>2018-05-31T08:12:12Z</time>
      </trkpt>
      <trkpt lat="47.80886" lon="-3.40012">
        <ele>-4.96</ele>
        <time>2018-05-31T08:12:19Z</time>
      </trkpt>
      <trkpt lat="47.8088" lon="-3.39993">
        <ele>-2.05</ele>
        <time>2018-05-31T08:12:37Z</time>
      </trkpt>
      <trkpt lat="47.8087" lon="-3.39986">
        <ele>0.06</ele>
        <time>2018-05-31T08:12:53Z</time>
      </trkpt>
      <trkpt lat="47.80863" lon="-3.39983">
        <ele>0.25</ele>
        <time>2018-05-31T08:12:59Z</time>
      </trkpt>
      <trkpt lat="47.80853" lon="-3.39979">
        <ele>0.12</ele>
        <time>2018-05-31T08:13:07Z</time>
      </trkpt>
      <trkpt lat="47.80836" lon="-3.39972">
        <ele>0.31</ele>
        <time>2018-05-31T08:13:20Z</time>
      </trkpt>
      <trkpt lat="47.80832" lon="-3.3997">
        <ele>0.27</ele>
        <time>2018-05-31T08:13:23Z</time>
      </trkpt>
      <trkpt lat="47.80813" lon="-3.39948">
        <ele>-1.51</ele>
        <time>2018-05-31T08:13:37Z</time>
      </trkpt>
      <trkpt lat="47.80797" lon="-3.39941">
        <ele>-2.05</ele>
        <time>2018-05-31T08:13:48Z</time>
      </trkpt>
      <trkpt lat="47.80787" lon="-3.39936">
        <ele>-2.45</ele>
        <time>2018-05-31T08:13:57Z</time>
      </trkpt>
      <trkpt lat="47.80774" lon="-3.39928">
        <ele>-2.78</ele>
        <time>2018-05-31T08:14:03Z</time>
      </trkpt>
      <trkpt lat="47.80759" lon="-3.39917">
        <ele>-2.8</ele>
        <time>2018-05-31T08:14:15Z</time>
      </trkpt>
      <trkpt lat="47.80749" lon="-3.39901">
        <ele>-2.92</ele>
        <time>2018-05-31T08:14:40Z</time>
      </trkpt>
      <trkpt lat="47.80744" lon="-3.39892">
        <ele>-2.84</ele>
        <time>2018-05-31T08:14:49Z</time>
      </trkpt>
      <trkpt lat="47.80739" lon="-3.39878">
        <ele>-3.2</ele>
        <time>2018-05-31T08:15:14Z</time>
      </trkpt>
      <trkpt lat="47.80735" lon="-3.39871">
        <ele>-3.18</ele>
        <time>2018-05-31T08:15:36Z</time>
      </trkpt>
      <trkpt lat="47.80731" lon="-3.39867">
        <ele>-3.47</ele>
        <time>2018-05-31T08:15:59Z</time>
      </trkpt>
      <trkpt lat="47.8073" lon="-3.39866">
        <ele>-3.5</ele>
        <time>2018-05-31T08:16:01Z</time>
      </trkpt>
      <trkpt lat="47.80727" lon="-3.39864">
        <ele>-3.5</ele>
        <time>2018-05-31T08:16:25Z</time>
      </trkpt>
      <trkpt lat="47.80726" lon="-3.39868">
        <ele>-3.35</ele>
        <time>2018-05-31T08:16:49Z</time>
      </trkpt>
      <trkpt lat="47.80726" lon="-3.39868">
        <ele>-3.54</ele>
        <time>2018-05-31T08:17:05Z</time>
      </trkpt>
      <trkpt lat="47.80721" lon="-3.39863">
        <ele>-3.3</ele>
        <time>2018-05-31T08:17:32Z</time>
      </trkpt>
      <trkpt lat="47.80726" lon="-3.3987">
        <ele>-3.04</ele>
        <time>2018-05-31T08:17:56Z</time>
      </trkpt>
      <trkpt lat="47.80729" lon="-3.39875">
        <ele>-2.98</ele>
        <time>2018-05-31T08:18:20Z</time>
      </trkpt>
      <trkpt lat="47.8073" lon="-3.39874">
        <ele>-2.65</ele>
        <time>2018-05-31T08:18:46Z</time>
      </trkpt>
      <trkpt lat="47.8073" lon="-3.39869">
        <ele>-2.82</ele>
        <time>2018-05-31T08:19:04Z</time>
      </trkpt>
      <trkpt lat="47.8073" lon="-3.39866">
        <ele>-3.13</ele>
        <time>2018-05-31T08:19:33Z</time>
      </trkpt>
      <trkpt lat="47.80727" lon="-3.39868">
        <ele>-3.2</ele>
        <time>2018-05-31T08:20:01Z</time>
      </trkpt>
      <trkpt lat="47.80727" lon="-3.39867">
        <ele>-3.06</ele>
        <time>2018-05-31T08:20:22Z</time>
      </trkpt>
      <trkpt lat="47.8073" lon="-3.39868">
        <ele>-3.33</ele>
        <time>2018-05-31T08:20:51Z</time>
      </trkpt>
      <trkpt lat="47.80726" lon="-3.3987">
        <ele>-3.47</ele>
        <time>2018-05-31T08:21:21Z</time>
      </trkpt>
      <trkpt lat="47.80727" lon="-3.39869">
        <ele>-3.4</ele>
        <time>2018-05-31T08:21:49Z</time>
      </trkpt>
      <trkpt lat="47.80728" lon="-3.39869">
        <ele>-3.75</ele>
        <time>2018-05-31T08:22:14Z</time>
      </trkpt>
      <trkpt lat="47.8073" lon="-3.39871">
        <ele>-3.76</ele>
        <time>2018-05-31T08:22:42Z</time>
      </trkpt>
      <trkpt lat="47.80735" lon="-3.39873">
        <ele>-3.73</ele>
        <time>2018-05-31T08:23:00Z</time>
      </trkpt>
      <trkpt lat="47.80734" lon="-3.39872">
        <ele>-3.48</ele>
        <time>2018-05-31T08:23:10Z</time>
      </trkpt>
      <trkpt lat="47.80731" lon="-3.39869">
        <ele>-3.43</ele>
        <time>2018-05-31T08:23:39Z</time>
      </trkpt>
      <trkpt lat="47.80726" lon="-3.39869">
        <ele>-3.34</ele>
        <time>2018-05-31T08:24:09Z</time>
      </trkpt>
      <trkpt lat="47.80726" lon="-3.39868">
        <ele>-3.63</ele>
        <time>2018-05-31T08:24:17Z</time>
      </trkpt>
      <trkpt lat="47.80724" lon="-3.39864">
        <ele>-3.6</ele>
        <time>2018-05-31T08:24:20Z</time>
      </trkpt>
      <trkpt lat="47.80721" lon="-3.39845">
        <ele>-2.98</ele>
        <time>2018-05-31T08:24:42Z</time>
      </trkpt>
      <trkpt lat="47.80716" lon="-3.39826">
        <ele>-2.36</ele>
        <time>2018-05-31T08:25:00Z</time>
      </trkpt>
      <trkpt lat="47.80716" lon="-3.39825">
        <ele>-2.35</ele>
        <time>2018-05-31T08:25:01Z</time>
      </trkpt>
      <trkpt lat="47.80712" lon="-3.39815">
        <ele>-0.6</ele>
        <time>2018-05-31T08:25:28Z</time>
      </trkpt>
      <trkpt lat="47.80712" lon="-3.39799">
        <ele>0.04</ele>
        <time>2018-05-31T08:25:55Z</time>
      </trkpt>
      <trkpt lat="47.80692" lon="-3.39791">
        <ele>1.54</ele>
        <time>2018-05-31T08:26:16Z</time>
      </trkpt>
      <trkpt lat="47.80688" lon="-3.3979">
        <ele>1.78</ele>
        <time>2018-05-31T08:26:19Z</time>
      </trkpt>
      <trkpt lat="47.80663" lon="-3.39768">
        <ele>1.13</ele>
        <time>2018-05-31T08:26:34Z</time>
      </trkpt>
      <trkpt lat="47.80647" lon="-3.39736">
        <ele>3.78</ele>
        <time>2018-05-31T08:26:50Z</time>
      </trkpt>
      <trkpt lat="47.80644" lon="-3.39717">
        <ele>6.13</ele>
        <time>2018-05-31T08:27:04Z</time>
      </trkpt>
      <trkpt lat="47.80646" lon="-3.39709">
        <ele>6.36</ele>
        <time>2018-05-31T08:27:09Z</time>
      </trkpt>
      <trkpt lat="47.8065" lon="-3.39686">
        <ele>5.9</ele>
        <time>2018-05-31T08:27:24Z</time>
      </trkpt>
      <trkpt lat="47.80653" lon="-3.39672">
        <ele>5.81</ele>
        <time>2018-05-31T08:27:43Z</time>
      </trkpt>
      <trkpt lat="47.80653" lon="-3.39663">
        <ele>5.71</ele>
        <time>2018-05-31T08:27:47Z</time>
      </trkpt>
      <trkpt lat="47.80658" lon="-3.39645">
        <ele>5.59</ele>
        <time>2018-05-31T08:27:58Z</time>
      </trkpt>
      <trkpt lat="47.80659" lon="-3.39641">
        <ele>5.66</ele>
        <time>2018-05-31T08:28:00Z</time>
      </trkpt>
      <trkpt lat="47.80658" lon="-3.39623">
        <ele>6.06</ele>
        <time>2018-05-31T08:28:07Z</time>
      </trkpt>
      <trkpt lat="47.80661" lon="-3.39605">
        <ele>6.45</ele>
        <time>2018-05-31T08:28:15Z</time>
      </trkpt>
      <trkpt lat="47.80658" lon="-3.39582">
        <ele>6.47</ele>
        <time>2018-05-31T08:28:28Z</time>
      </trkpt>
      <trkpt lat="47.80657" lon="-3.39572">
        <ele>6.17</ele>
        <time>2018-05-31T08:28:34Z</time>
      </trkpt>
      <trkpt lat="47.80651" lon="-3.39545">
        <ele>6.47</ele>
        <time>2018-05-31T08:28:50Z</time>
      </trkpt>
      <trkpt lat="47.80637" lon="-3.39544">
        <ele>6.13</ele>
        <time>2018-05-31T08:29:09Z</time>
      </trkpt>
      <trkpt lat="47.8062" lon="-3.39547">
        <ele>6.5</ele>
        <time>2018-05-31T08:29:30Z</time>
      </trkpt>
      <trkpt lat="47.80598" lon="-3.39537">
        <ele>6.2</ele>
        <time>2018-05-31T08:29:50Z</time>
      </trkpt>
      <trkpt lat="47.8059" lon="-3.39533">
        <ele>5.96</ele>
        <time>2018-05-31T08:29:55Z</time>
      </trkpt>
      <trkpt lat="47.80584" lon="-3.39527">
        <ele>5.83</ele>
        <time>2018-05-31T08:29:59Z</time>
      </trkpt>
      <trkpt lat="47.80572" lon="-3.39521">
        <ele>5.77</ele>
        <time>2018-05-31T08:30:06Z</time>
      </trkpt>
      <trkpt lat="47.80569" lon="-3.3952">
        <ele>5.88</ele>
        <time>2018-05-31T08:30:08Z</time>
      </trkpt>
      <trkpt lat="47.80563" lon="-3.39515">
        <ele>6.07</ele>
        <time>2018-05-31T08:30:12Z</time>
      </trkpt>
      <trkpt lat="47.80552" lon="-3.39514">
        <ele>6.25</ele>
        <time>2018-05-31T08:30:17Z</time>
      </trkpt>
      <trkpt lat="47.80536" lon="-3.39515">
        <ele>5.96</ele>
        <time>2018-05-31T08:30:28Z</time>
      </trkpt>
      <trkpt lat="47.80529" lon="-3.39515">
        <ele>5.67</ele>
        <time>2018-05-31T08:30:34Z</time>
      </trkpt>
      <trkpt lat="47.80517" lon="-3.39515">
        <ele>5.65</ele>
        <time>2018-05-31T08:30:40Z</time>
      </trkpt>
      <trkpt lat="47.80512" lon="-3.39515">
        <ele>5.68</ele>
        <time>2018-05-31T08:30:42Z</time>
      </trkpt>
      <trkpt lat="47.80489" lon="-3.395">
        <ele>6.75</ele>
        <time>2018-05-31T08:31:02Z</time>
      </trkpt>
      <trkpt lat="47.80472" lon="-3.39485">
        <ele>5.79</ele>
        <time>2018-05-31T08:31:20Z</time>
      </trkpt>
      <trkpt lat="47.80456" lon="-3.39467">
        <ele>5.61</ele>
        <time>2018-05-31T08:31:31Z</time>
      </trkpt>
      <trkpt lat="47.80452" lon="-3.39463">
        <ele>5.44</ele>
        <time>2018-05-31T08:31:34Z</time>
      </trkpt>
      <trkpt lat="47.8044" lon="-3.39455">
        <ele>5.37</ele>
        <time>2018-05-31T08:31:43Z</time>
      </trkpt>
      <trkpt lat="47.80416" lon="-3.39432">
        <ele>5.85</ele>
        <time>2018-05-31T08:32:04Z</time>
      </trkpt>
      <trkpt lat="47.8039" lon="-3.39397">
        <ele>5.98</ele>
        <time>2018-05-31T08:32:22Z</time>
      </trkpt>
      <trkpt lat="47.80386" lon="-3.3939">
        <ele>5.89</ele>
        <time>2018-05-31T08:32:24Z</time>
      </trkpt>
      <trkpt lat="47.80358" lon="-3.39353">
        <ele>5.95</ele>
        <time>2018-05-31T08:32:43Z</time>
      </trkpt>
      <trkpt lat="47.8035" lon="-3.39313">
        <ele>5.91</ele>
        <time>2018-05-31T08:33:00Z</time>
      </trkpt>
      <trkpt lat="47.80334" lon="-3.39241">
        <ele>4.48</ele>
        <time>2018-05-31T08:33:16Z</time>
      </trkpt>
      <trkpt lat="47.80341" lon="-3.39205">
        <ele>5.58</ele>
        <time>2018-05-31T08:33:33Z</time>
      </trkpt>
      <trkpt lat="47.80353" lon="-3.3918">
        <ele>6.39</ele>
        <time>2018-05-31T08:33:50Z</time>
      </trkpt>
      <trkpt lat="47.8035" lon="-3.39141">
        <ele>6.82</ele>
        <time>2018-05-31T08:34:09Z</time>
      </trkpt>
      <trkpt lat="47.80357" lon="-3.3912">
        <ele>8.28</ele>
        <time>2018-05-31T08:34:26Z</time>
      </trkpt>
      <trkpt lat="47.80363" lon="-3.39095">
        <ele>9.66</ele>
        <time>2018-05-31T08:34:47Z</time>
      </trkpt>
      <trkpt lat="47.80367" lon="-3.39052">
        <ele>10.3</ele>
        <time>2018-05-31T08:35:07Z</time>
      </trkpt>
      <trkpt lat="47.8038" lon="-3.39025">
        <ele>9.61</ele>
        <time>2018-05-31T08:35:25Z</time>
      </trkpt>
      <trkpt lat="47.80384" lon="-3.39003">
        <ele>6.45</ele>
        <time>2018-05-31T08:35:39Z</time>
      </trkpt>
      <trkpt lat="47.80387" lon="-3.38985">
        <ele>3.39</ele>
        <time>2018-05-31T08:35:51Z</time>
      </trkpt>
      <trkpt lat="47.80388" lon="-3.38968">
        <ele>0.12</ele>
        <time>2018-05-31T08:36:02Z</time>
      </trkpt>
      <trkpt lat="47.80373" lon="-3.38935">
        <ele>-2.5</ele>
        <time>2018-05-31T08:36:21Z</time>
      </trkpt>
      <trkpt lat="47.80367" lon="-3.3892">
        <ele>-1.51</ele>
        <time>2018-05-31T08:36:40Z</time>
      </trkpt>
      <trkpt lat="47.80364" lon="-3.38911">
        <ele>-1.58</ele>
        <time>2018-05-31T08:36:52Z</time>
      </trkpt>
      <trkpt lat="47.80365" lon="-3.38898">
        <ele>-1.75</ele>
        <time>2018-05-31T08:37:20Z</time>
      </trkpt>
      <trkpt lat="47.80362" lon="-3.38902">
        <ele>-2.82</ele>
        <time>2018-05-31T08:37:43Z</time>
      </trkpt>
      <trkpt lat="47.80353" lon="-3.38906">
        <ele>-2.68</ele>
        <time>2018-05-31T08:38:29Z</time>
      </trkpt>
      <trkpt lat="47.80355" lon="-3.38909">
        <ele>-1.87</ele>
        <time>2018-05-31T08:38:57Z</time>
      </trkpt>
      <trkpt lat="47.80356" lon="-3.38908">
        <ele>-1.59</ele>
        <time>2018-05-31T08:39:23Z</time>
      </trkpt>
      <trkpt lat="47.80354" lon="-3.38906">
        <ele>-1.19</ele>
        <time>2018-05-31T08:39:48Z</time>
      </trkpt>
      <trkpt lat="47.80353" lon="-3.38901">
        <ele>-1.39</ele>
        <time>2018-05-31T08:40:12Z</time>
      </trkpt>
      <trkpt lat="47.8035" lon="-3.38898">
        <ele>-1.97</ele>
        <time>2018-05-31T08:40:31Z</time>
      </trkpt>
      <trkpt lat="47.80336" lon="-3.38903">
        <ele>0.43</ele>
        <time>2018-05-31T08:40:51Z</time>
      </trkpt>
      <trkpt lat="47.80325" lon="-3.38888">
        <ele>-0.68</ele>
        <time>2018-05-31T08:41:08Z</time>
      </trkpt>
      <trkpt lat="47.80318" lon="-3.38879">
        <ele>-2.7</ele>
        <time>2018-05-31T08:41:19Z</time>
      </trkpt>
      <trkpt lat="47.80303" lon="-3.38866">
        <ele>-2.36</ele>
        <time>2018-05-31T08:41:34Z</time>
      </trkpt>
      <trkpt lat="47.80297" lon="-3.38859">
        <ele>-2.46</ele>
        <time>2018-05-31T08:41:38Z</time>
      </trkpt>
      <trkpt lat="47.8029" lon="-3.38847">
        <ele>-3.49</ele>
        <time>2018-05-31T08:41:48Z</time>
      </trkpt>
      <trkpt lat="47.80277" lon="-3.38835">
        <ele>-5.29</ele>
        <time>2018-05-31T08:42:03Z</time>
      </trkpt>
      <trkpt lat="47.80248" lon="-3.38821">
        <ele>-5.59</ele>
        <time>2018-05-31T08:42:23Z</time>
      </trkpt>
      <trkpt lat="47.80218" lon="-3.38838">
        <ele>-6.68</ele>
        <time>2018-05-31T08:42:48Z</time>
      </trkpt>
      <trkpt lat="47.80198" lon="-3.38858">
        <ele>-8.98</ele>
        <time>2018-05-31T08:43:06Z</time>
      </trkpt>
      <trkpt lat="47.80176" lon="-3.38897">
        <ele>-10.35</ele>
        <time>2018-05-31T08:43:21Z</time>
      </trkpt>
      <trkpt lat="47.80157" lon="-3.38924">
        <ele>-9.57</ele>
        <time>2018-05-31T08:43:36Z</time>
      </trkpt>
      <trkpt lat="47.80154" lon="-3.38937">
        <ele>-8.89</ele>
        <time>2018-05-31T08:43:43Z</time>
      </trkpt>
      <trkpt lat="47.80146" lon="-3.38945">
        <ele>-8.47</ele>
        <time>2018-05-31T08:43:48Z</time>
      </trkpt>
      <trkpt lat="47.8012" lon="-3.38957">
        <ele>-7.61</ele>
        <time>2018-05-31T08:44:05Z</time>
      </trkpt>
      <trkpt lat="47.80089" lon="-3.38971">
        <ele>-8.32</ele>
        <time>2018-05-31T08:44:25Z</time>
      </trkpt>
      <trkpt lat="47.80068" lon="-3.38971">
        <ele>-9.38</ele>
        <time>2018-05-31T08:44:41Z</time>
      </trkpt>
      <trkpt lat="47.80056" lon="-3.38954">
        <ele>-10.42</ele>
        <time>2018-05-31T08:44:55Z</time>
      </trkpt>
      <trkpt lat="47.80046" lon="-3.38937">
        <ele>-10.13</ele>
        <time>2018-05-31T08:45:05Z</time>
      </trkpt>
      <trkpt lat="47.80034" lon="-3.3894">
        <ele>-8.95</ele>
        <time>2018-05-31T08:45:13Z</time>
      </trkpt>
      <trkpt lat="47.80029" lon="-3.38941">
        <ele>-8.34</ele>
        <time>2018-05-31T08:45:16Z</time>
      </trkpt>
      <trkpt lat="47.80018" lon="-3.38952">
        <ele>-4.81</ele>
        <time>2018-05-31T08:45:29Z</time>
      </trkpt>
      <trkpt lat="47.80013" lon="-3.38956">
        <ele>-3.45</ele>
        <time>2018-05-31T08:45:34Z</time>
      </trkpt>
      <trkpt lat="47.79993" lon="-3.38975">
        <ele>-0.93</ele>
        <time>2018-05-31T08:45:48Z</time>
      </trkpt>
      <trkpt lat="47.79988" lon="-3.38978">
        <ele>-0.56</ele>
        <time>2018-05-31T08:45:51Z</time>
      </trkpt>
      <trkpt lat="47.79983" lon="-3.38983">
        <ele>0.52</ele>
        <time>2018-05-31T08:45:56Z</time>
      </trkpt>
      <trkpt lat="47.7998" lon="-3.38984">
        <ele>0.93</ele>
        <time>2018-05-31T08:45:58Z</time>
      </trkpt>
      <trkpt lat="47.79977" lon="-3.38989">
        <ele>1.44</ele>
        <time>2018-05-31T08:46:01Z</time>
      </trkpt>
      <trkpt lat="47.79969" lon="-3.38994">
        <ele>2.77</ele>
        <time>2018-05-31T08:46:08Z</time>
      </trkpt>
      <trkpt lat="47.79952" lon="-3.38999">
        <ele>4.98</ele>
        <time>2018-05-31T08:46:23Z</time>
      </trkpt>
      <trkpt lat="47.79937" lon="-3.39011">
        <ele>6.02</ele>
        <time>2018-05-31T08:46:35Z</time>
      </trkpt>
      <trkpt lat="47.79919" lon="-3.39025">
        <ele>6.66</ele>
        <time>2018-05-31T08:46:48Z</time>
      </trkpt>
      <trkpt lat="47.79901" lon="-3.3902">
        <ele>5.55</ele>
        <time>2018-05-31T08:47:04Z</time>
      </trkpt>
      <trkpt lat="47.79895" lon="-3.39014">
        <ele>5.28</ele>
        <time>2018-05-31T08:47:09Z</time>
      </trkpt>
      <trkpt lat="47.79862" lon="-3.38994">
        <ele>5.09</ele>
        <time>2018-05-31T08:47:31Z</time>
      </trkpt>
      <trkpt lat="47.7986" lon="-3.38993">
        <ele>5.05</ele>
        <time>2018-05-31T08:47:32Z</time>
      </trkpt>
      <trkpt lat="47.79842" lon="-3.38989">
        <ele>4.04</ele>
        <time>2018-05-31T08:47:44Z</time>
      </trkpt>
      <trkpt lat="47.7983" lon="-3.38986">
        <ele>3.89</ele>
        <time>2018-05-31T08:47:54Z</time>
      </trkpt>
      <trkpt lat="47.7982" lon="-3.38983">
        <ele>4.13</ele>
        <time>2018-05-31T08:48:00Z</time>
      </trkpt>
      <trkpt lat="47.79801" lon="-3.38959">
        <ele>4.98</ele>
        <time>2018-05-31T08:48:14Z</time>
      </trkpt>
      <trkpt lat="47.79781" lon="-3.38945">
        <ele>5.03</ele>
        <time>2018-05-31T08:48:29Z</time>
      </trkpt>
      <trkpt lat="47.7978" lon="-3.38944">
        <ele>5.16</ele>
        <time>2018-05-31T08:48:30Z</time>
      </trkpt>
      <trkpt lat="47.79769" lon="-3.3894">
        <ele>5.64</ele>
        <time>2018-05-31T08:48:34Z</time>
      </trkpt>
      <trkpt lat="47.79754" lon="-3.38928">
        <ele>6.62</ele>
        <time>2018-05-31T08:48:44Z</time>
      </trkpt>
      <trkpt lat="47.79735" lon="-3.38917">
        <ele>5.06</ele>
        <time>2018-05-31T08:49:01Z</time>
      </trkpt>
      <trkpt lat="47.7973" lon="-3.38915">
        <ele>5.02</ele>
        <time>2018-05-31T08:49:04Z</time>
      </trkpt>
      <trkpt lat="47.79709" lon="-3.38895">
        <ele>5.16</ele>
        <time>2018-05-31T08:49:18Z</time>
      </trkpt>
      <trkpt lat="47.79695" lon="-3.38865">
        <ele>5.4</ele>
        <time>2018-05-31T08:49:33Z</time>
      </trkpt>
      <trkpt lat="47.79685" lon="-3.3884">
        <ele>5.59</ele>
        <time>2018-05-31T08:49:43Z</time>
      </trkpt>
      <trkpt lat="47.79681" lon="-3.38831">
        <ele>5.52</ele>
        <time>2018-05-31T08:49:46Z</time>
      </trkpt>
      <trkpt lat="47.79669" lon="-3.38809">
        <ele>5.43</ele>
        <time>2018-05-31T08:49:56Z</time>
      </trkpt>
      <trkpt lat="47.79655" lon="-3.38787">
        <ele>5</ele>
        <time>2018-05-31T08:50:09Z</time>
      </trkpt>
      <trkpt lat="47.79639" lon="-3.38753">
        <ele>4.63</ele>
        <time>2018-05-31T08:50:24Z</time>
      </trkpt>
      <trkpt lat="47.79635" lon="-3.38745">
        <ele>4.65</ele>
        <time>2018-05-31T08:50:27Z</time>
      </trkpt>
      <trkpt lat="47.79624" lon="-3.38715">
        <ele>5.37</ele>
        <time>2018-05-31T08:50:40Z</time>
      </trkpt>
      <trkpt lat="47.79621" lon="-3.38705">
        <ele>5.38</ele>
        <time>2018-05-31T08:50:45Z</time>
      </trkpt>
      <trkpt lat="47.79619" lon="-3.38699">
        <ele>5.3</ele>
        <time>2018-05-31T08:50:48Z</time>
      </trkpt>
      <trkpt lat="47.79617" lon="-3.38691">
        <ele>5.16</ele>
        <time>2018-05-31T08:50:52Z</time>
      </trkpt>
      <trkpt lat="47.79614" lon="-3.38686">
        <ele>5.09</ele>
        <time>2018-05-31T08:50:55Z</time>
      </trkpt>
      <trkpt lat="47.79596" lon="-3.38665">
        <ele>4.69</ele>
        <time>2018-05-31T08:51:09Z</time>
      </trkpt>
      <trkpt lat="47.79585" lon="-3.38636">
        <ele>4.65</ele>
        <time>2018-05-31T08:51:23Z</time>
      </trkpt>
      <trkpt lat="47.79578" lon="-3.38611">
        <ele>5.06</ele>
        <time>2018-05-31T08:51:36Z</time>
      </trkpt>
      <trkpt lat="47.79577" lon="-3.38608">
        <ele>5.23</ele>
        <time>2018-05-31T08:51:38Z</time>
      </trkpt>
      <trkpt lat="47.79563" lon="-3.38585">
        <ele>5.26</ele>
        <time>2018-05-31T08:51:51Z</time>
      </trkpt>
      <trkpt lat="47.79556" lon="-3.38576">
        <ele>4.73</ele>
        <time>2018-05-31T08:51:59Z</time>
      </trkpt>
      <trkpt lat="47.79547" lon="-3.38565">
        <ele>4.71</ele>
        <time>2018-05-31T08:52:07Z</time>
      </trkpt>
      <trkpt lat="47.79531" lon="-3.38549">
        <ele>5.18</ele>
        <time>2018-05-31T08:52:24Z</time>
      </trkpt>
      <trkpt lat="47.79521" lon="-3.38537">
        <ele>4.88</ele>
        <time>2018-05-31T08:52:32Z</time>
      </trkpt>
      <trkpt lat="47.79498" lon="-3.38498">
        <ele>4.73</ele>
        <time>2018-05-31T08:52:51Z</time>
      </trkpt>
      <trkpt lat="47.79474" lon="-3.38472">
        <ele>5.3</ele>
        <time>2018-05-31T08:53:08Z</time>
      </trkpt>
      <trkpt lat="47.79467" lon="-3.38461">
        <ele>5.43</ele>
        <time>2018-05-31T08:53:15Z</time>
      </trkpt>
      <trkpt lat="47.79453" lon="-3.38435">
        <ele>5.37</ele>
        <time>2018-05-31T08:53:29Z</time>
      </trkpt>
      <trkpt lat="47.7944" lon="-3.38414">
        <ele>4.94</ele>
        <time>2018-05-31T08:53:43Z</time>
      </trkpt>
      <trkpt lat="47.79432" lon="-3.38401">
        <ele>4.87</ele>
        <time>2018-05-31T08:53:51Z</time>
      </trkpt>
      <trkpt lat="47.79429" lon="-3.38397">
        <ele>4.87</ele>
        <time>2018-05-31T08:53:54Z</time>
      </trkpt>
      <trkpt lat="47.79414" lon="-3.38368">
        <ele>4.63</ele>
        <time>2018-05-31T08:54:07Z</time>
      </trkpt>
      <trkpt lat="47.7941" lon="-3.38363">
        <ele>4.74</ele>
        <time>2018-05-31T08:54:11Z</time>
      </trkpt>
      <trkpt lat="47.79395" lon="-3.38344">
        <ele>5.21</ele>
        <time>2018-05-31T08:54:24Z</time>
      </trkpt>
      <trkpt lat="47.79381" lon="-3.38333">
        <ele>4.98</ele>
        <time>2018-05-31T08:54:40Z</time>
      </trkpt>
      <trkpt lat="47.79362" lon="-3.3832">
        <ele>2.78</ele>
        <time>2018-05-31T08:54:55Z</time>
      </trkpt>
      <trkpt lat="47.79348" lon="-3.3832">
        <ele>0.27</ele>
        <time>2018-05-31T08:55:11Z</time>
      </trkpt>
      <trkpt lat="47.79308" lon="-3.38323">
        <ele>0.55</ele>
        <time>2018-05-31T08:55:32Z</time>
      </trkpt>
      <trkpt lat="47.79283" lon="-3.38333">
        <ele>2.65</ele>
        <time>2018-05-31T08:55:52Z</time>
      </trkpt>
      <trkpt lat="47.79258" lon="-3.3833">
        <ele>5.71</ele>
        <time>2018-05-31T08:56:11Z</time>
      </trkpt>
      <trkpt lat="47.7925" lon="-3.3833">
        <ele>6.9</ele>
        <time>2018-05-31T08:56:17Z</time>
      </trkpt>
      <trkpt lat="47.79232" lon="-3.38322">
        <ele>10.35</ele>
        <time>2018-05-31T08:56:31Z</time>
      </trkpt>
      <trkpt lat="47.79221" lon="-3.38326">
        <ele>13.56</ele>
        <time>2018-05-31T08:56:44Z</time>
      </trkpt>
      <trkpt lat="47.79213" lon="-3.38351">
        <ele>16.72</ele>
        <time>2018-05-31T08:56:58Z</time>
      </trkpt>
      <trkpt lat="47.79211" lon="-3.38379">
        <ele>18.43</ele>
        <time>2018-05-31T08:57:12Z</time>
      </trkpt>
      <trkpt lat="47.79213" lon="-3.38388">
        <ele>18.63</ele>
        <time>2018-05-31T08:57:17Z</time>
      </trkpt>
      <trkpt lat="47.79213" lon="-3.38403">
        <ele>18.3</ele>
        <time>2018-05-31T08:57:24Z</time>
      </trkpt>
      <trkpt lat="47.79216" lon="-3.38415">
        <ele>18.05</ele>
        <time>2018-05-31T08:57:29Z</time>
      </trkpt>
      <trkpt lat="47.79203" lon="-3.38432">
        <ele>17.79</ele>
        <time>2018-05-31T08:57:39Z</time>
      </trkpt>
      <trkpt lat="47.79193" lon="-3.38433">
        <ele>18.5</ele>
        <time>2018-05-31T08:57:47Z</time>
      </trkpt>
      <trkpt lat="47.79179" lon="-3.38441">
        <ele>19.75</ele>
        <time>2018-05-31T08:57:57Z</time>
      </trkpt>
      <trkpt lat="47.79151" lon="-3.38454">
        <ele>22.25</ele>
        <time>2018-05-31T08:58:14Z</time>
      </trkpt>
      <trkpt lat="47.7912" lon="-3.38465">
        <ele>22.74</ele>
        <time>2018-05-31T08:58:33Z</time>
      </trkpt>
      <trkpt lat="47.79108" lon="-3.38465">
        <ele>22.34</ele>
        <time>2018-05-31T08:58:51Z</time>
      </trkpt>
      <trkpt lat="47.79107" lon="-3.38465">
        <ele>22.38</ele>
        <time>2018-05-31T08:59:19Z</time>
      </trkpt>
      <trkpt lat="47.79093" lon="-3.38462">
        <ele>22.12</ele>
        <time>2018-05-31T08:59:30Z</time>
      </trkpt>
      <trkpt lat="47.79064" lon="-3.38458">
        <ele>21.27</ele>
        <time>2018-05-31T08:59:48Z</time>
      </trkpt>
      <trkpt lat="47.79037" lon="-3.38455">
        <ele>19.7</ele>
        <time>2018-05-31T09:00:06Z</time>
      </trkpt>
      <trkpt lat="47.7901" lon="-3.38467">
        <ele>17.6</ele>
        <time>2018-05-31T09:00:24Z</time>
      </trkpt>
      <trkpt lat="47.78987" lon="-3.38466">
        <ele>16.28</ele>
        <time>2018-05-31T09:00:39Z</time>
      </trkpt>
      <trkpt lat="47.78963" lon="-3.38448">
        <ele>14.84</ele>
        <time>2018-05-31T09:00:55Z</time>
      </trkpt>
      <trkpt lat="47.78939" lon="-3.38428">
        <ele>12.56</ele>
        <time>2018-05-31T09:01:13Z</time>
      </trkpt>
      <trkpt lat="47.78917" lon="-3.3841">
        <ele>10.08</ele>
        <time>2018-05-31T09:01:28Z</time>
      </trkpt>
      <trkpt lat="47.78902" lon="-3.38387">
        <ele>8.16</ele>
        <time>2018-05-31T09:01:42Z</time>
      </trkpt>
      <trkpt lat="47.78897" lon="-3.38379">
        <ele>7.52</ele>
        <time>2018-05-31T09:01:47Z</time>
      </trkpt>
      <trkpt lat="47.78889" lon="-3.38382">
        <ele>7.24</ele>
        <time>2018-05-31T09:01:53Z</time>
      </trkpt>
      <trkpt lat="47.78869" lon="-3.38412">
        <ele>5.64</ele>
        <time>2018-05-31T09:02:11Z</time>
      </trkpt>
      <trkpt lat="47.78852" lon="-3.38442">
        <ele>4.41</ele>
        <time>2018-05-31T09:02:27Z</time>
      </trkpt>
      <trkpt lat="47.78825" lon="-3.38483">
        <ele>2.39</ele>
        <time>2018-05-31T09:02:51Z</time>
      </trkpt>
      <trkpt lat="47.78798" lon="-3.38509">
        <ele>0.66</ele>
        <time>2018-05-31T09:03:12Z</time>
      </trkpt>
      <trkpt lat="47.78791" lon="-3.38533">
        <ele>-0.7</ele>
        <time>2018-05-31T09:03:23Z</time>
      </trkpt>
      <trkpt lat="47.78792" lon="-3.38561">
        <ele>-2.8</ele>
        <time>2018-05-31T09:03:39Z</time>
      </trkpt>
      <trkpt lat="47.78784" lon="-3.38595">
        <ele>-4.18</ele>
        <time>2018-05-31T09:03:52Z</time>
      </trkpt>
      <trkpt lat="47.78772" lon="-3.38629">
        <ele>-3.67</ele>
        <time>2018-05-31T09:04:04Z</time>
      </trkpt>
      <trkpt lat="47.78759" lon="-3.38667">
        <ele>-1.36</ele>
        <time>2018-05-31T09:04:15Z</time>
      </trkpt>
      <trkpt lat="47.78738" lon="-3.38672">
        <ele>1.36</ele>
        <time>2018-05-31T09:04:25Z</time>
      </trkpt>
      <trkpt lat="47.78717" lon="-3.3867">
        <ele>4.17</ele>
        <time>2018-05-31T09:04:37Z</time>
      </trkpt>
      <trkpt lat="47.78706" lon="-3.38701">
        <ele>6.89</ele>
        <time>2018-05-31T09:04:53Z</time>
      </trkpt>
      <trkpt lat="47.78703" lon="-3.38735">
        <ele>9.91</ele>
        <time>2018-05-31T09:05:08Z</time>
      </trkpt>
      <trkpt lat="47.78701" lon="-3.38752">
        <ele>11.56</ele>
        <time>2018-05-31T09:05:17Z</time>
      </trkpt>
      <trkpt lat="47.78701" lon="-3.38754">
        <ele>11.89</ele>
        <time>2018-05-31T09:05:18Z</time>
      </trkpt>
      <trkpt lat="47.78699" lon="-3.38766">
        <ele>12.86</ele>
        <time>2018-05-31T09:05:25Z</time>
      </trkpt>
      <trkpt lat="47.78698" lon="-3.38768">
        <ele>12.97</ele>
        <time>2018-05-31T09:05:26Z</time>
      </trkpt>
      <trkpt lat="47.78698" lon="-3.3877">
        <ele>13.08</ele>
        <time>2018-05-31T09:05:27Z</time>
      </trkpt>
      <trkpt lat="47.78697" lon="-3.38771">
        <ele>13.17</ele>
        <time>2018-05-31T09:05:28Z</time>
      </trkpt>
      <trkpt lat="47.78681" lon="-3.38775">
        <ele>14.6</ele>
        <time>2018-05-31T09:05:43Z</time>
      </trkpt>
      <trkpt lat="47.7867" lon="-3.38772">
        <ele>15.75</ele>
        <time>2018-05-31T09:05:58Z</time>
      </trkpt>
      <trkpt lat="47.78664" lon="-3.38766">
        <ele>16.1</ele>
        <time>2018-05-31T09:06:09Z</time>
      </trkpt>
      <trkpt lat="47.78655" lon="-3.38761">
        <ele>16.28</ele>
        <time>2018-05-31T09:06:21Z</time>
      </trkpt>
      <trkpt lat="47.78631" lon="-3.38755">
        <ele>16.17</ele>
        <time>2018-05-31T09:06:31Z</time>
      </trkpt>
      <trkpt lat="47.78628" lon="-3.38753">
        <ele>16.12</ele>
        <time>2018-05-31T09:06:32Z</time>
      </trkpt>
      <trkpt lat="47.78626" lon="-3.38752">
        <ele>15.97</ele>
        <time>2018-05-31T09:06:33Z</time>
      </trkpt>
      <trkpt lat="47.78602" lon="-3.38731">
        <ele>15.22</ele>
        <time>2018-05-31T09:06:47Z</time>
      </trkpt>
      <trkpt lat="47.78579" lon="-3.3871">
        <ele>14.33</ele>
        <time>2018-05-31T09:07:01Z</time>
      </trkpt>
      <trkpt lat="47.78578" lon="-3.38709">
        <ele>14.29</ele>
        <time>2018-05-31T09:07:02Z</time>
      </trkpt>
      <trkpt lat="47.78562" lon="-3.38685">
        <ele>13.12</ele>
        <time>2018-05-31T09:07:16Z</time>
      </trkpt>
      <trkpt lat="47.78545" lon="-3.38663">
        <ele>11.13</ele>
        <time>2018-05-31T09:07:33Z</time>
      </trkpt>
      <trkpt lat="47.78533" lon="-3.3865">
        <ele>9.57</ele>
        <time>2018-05-31T09:07:45Z</time>
      </trkpt>
      <trkpt lat="47.78503" lon="-3.38638">
        <ele>9.03</ele>
        <time>2018-05-31T09:08:01Z</time>
      </trkpt>
      <trkpt lat="47.78475" lon="-3.38627">
        <ele>6.86</ele>
        <time>2018-05-31T09:08:21Z</time>
      </trkpt>
      <trkpt lat="47.78469" lon="-3.38625">
        <ele>6.54</ele>
        <time>2018-05-31T09:08:25Z</time>
      </trkpt>
      <trkpt lat="47.78468" lon="-3.38625">
        <ele>6.47</ele>
        <time>2018-05-31T09:08:26Z</time>
      </trkpt>
      <trkpt lat="47.78463" lon="-3.38625">
        <ele>6.26</ele>
        <time>2018-05-31T09:08:29Z</time>
      </trkpt>
      <trkpt lat="47.78442" lon="-3.3862">
        <ele>4.44</ele>
        <time>2018-05-31T09:08:44Z</time>
      </trkpt>
      <trkpt lat="47.78425" lon="-3.38627">
        <ele>2.86</ele>
        <time>2018-05-31T09:08:54Z</time>
      </trkpt>
      <trkpt lat="47.78424" lon="-3.38629">
        <ele>2.81</ele>
        <time>2018-05-31T09:08:55Z</time>
      </trkpt>
      <trkpt lat="47.78415" lon="-3.38635">
        <ele>2.87</ele>
        <time>2018-05-31T09:09:02Z</time>
      </trkpt>
      <trkpt lat="47.78399" lon="-3.38654">
        <ele>4.44</ele>
        <time>2018-05-31T09:09:20Z</time>
      </trkpt>
      <trkpt lat="47.78395" lon="-3.3866">
        <ele>4.98</ele>
        <time>2018-05-31T09:09:24Z</time>
      </trkpt>
      <trkpt lat="47.7838" lon="-3.38682">
        <ele>5.96</ele>
        <time>2018-05-31T09:09:38Z</time>
      </trkpt>
      <trkpt lat="47.78379" lon="-3.38685">
        <ele>6.01</ele>
        <time>2018-05-31T09:09:39Z</time>
      </trkpt>
      <trkpt lat="47.78374" lon="-3.38699">
        <ele>6.41</ele>
        <time>2018-05-31T09:09:45Z</time>
      </trkpt>
      <trkpt lat="47.78373" lon="-3.38701">
        <ele>6.48</ele>
        <time>2018-05-31T09:09:46Z</time>
      </trkpt>
      <trkpt lat="47.78373" lon="-3.38704">
        <ele>6.56</ele>
        <time>2018-05-31T09:09:47Z</time>
      </trkpt>
      <trkpt lat="47.78372" lon="-3.38705">
        <ele>6.65</ele>
        <time>2018-05-31T09:09:48Z</time>
      </trkpt>
      <trkpt lat="47.78372" lon="-3.38707">
        <ele>6.71</ele>
        <time>2018-05-31T09:09:49Z</time>
      </trkpt>
      <trkpt lat="47.78371" lon="-3.38709">
        <ele>6.77</ele>
        <time>2018-05-31T09:09:50Z</time>
      </trkpt>
      <trkpt lat="47.78371" lon="-3.38711">
        <ele>6.83</ele>
        <time>2018-05-31T09:09:51Z</time>
      </trkpt>
      <trkpt lat="47.7837" lon="-3.38713">
        <ele>6.87</ele>
        <time>2018-05-31T09:09:52Z</time>
      </trkpt>
      <trkpt lat="47.7837" lon="-3.38715">
        <ele>6.91</ele>
        <time>2018-05-31T09:09:53Z</time>
      </trkpt>
      <trkpt lat="47.78363" lon="-3.38733">
        <ele>7.3</ele>
        <time>2018-05-31T09:10:04Z</time>
      </trkpt>
      <trkpt lat="47.78357" lon="-3.38756">
        <ele>7.08</ele>
        <time>2018-05-31T09:10:14Z</time>
      </trkpt>
      <trkpt lat="47.78354" lon="-3.38759">
        <ele>7.04</ele>
        <time>2018-05-31T09:10:15Z</time>
      </trkpt>
      <trkpt lat="47.78348" lon="-3.38777">
        <ele>6.82</ele>
        <time>2018-05-31T09:10:22Z</time>
      </trkpt>
      <trkpt lat="47.78347" lon="-3.38782">
        <ele>6.72</ele>
        <time>2018-05-31T09:10:24Z</time>
      </trkpt>
      <trkpt lat="47.78347" lon="-3.38785">
        <ele>6.51</ele>
        <time>2018-05-31T09:10:25Z</time>
      </trkpt>
      <trkpt lat="47.78345" lon="-3.38797">
        <ele>5.68</ele>
        <time>2018-05-31T09:10:31Z</time>
      </trkpt>
      <trkpt lat="47.78344" lon="-3.388">
        <ele>5.52</ele>
        <time>2018-05-31T09:10:32Z</time>
      </trkpt>
      <trkpt lat="47.78343" lon="-3.38813">
        <ele>4.84</ele>
        <time>2018-05-31T09:10:38Z</time>
      </trkpt>
      <trkpt lat="47.78343" lon="-3.38816">
        <ele>4.74</ele>
        <time>2018-05-31T09:10:39Z</time>
      </trkpt>
      <trkpt lat="47.78342" lon="-3.38822">
        <ele>4.5</ele>
        <time>2018-05-31T09:10:42Z</time>
      </trkpt>
      <trkpt lat="47.78343" lon="-3.3884">
        <ele>4.05</ele>
        <time>2018-05-31T09:10:54Z</time>
      </trkpt>
      <trkpt lat="47.78339" lon="-3.38862">
        <ele>3.96</ele>
        <time>2018-05-31T09:11:03Z</time>
      </trkpt>
      <trkpt lat="47.78333" lon="-3.38881">
        <ele>4.23</ele>
        <time>2018-05-31T09:11:11Z</time>
      </trkpt>
      <trkpt lat="47.78333" lon="-3.38897">
        <ele>4.71</ele>
        <time>2018-05-31T09:11:19Z</time>
      </trkpt>
      <trkpt lat="47.78339" lon="-3.38929">
        <ele>4.64</ele>
        <time>2018-05-31T09:11:35Z</time>
      </trkpt>
      <trkpt lat="47.7834" lon="-3.38931">
        <ele>4.58</ele>
        <time>2018-05-31T09:11:36Z</time>
      </trkpt>
      <trkpt lat="47.78344" lon="-3.38934">
        <ele>4.3</ele>
        <time>2018-05-31T09:11:40Z</time>
      </trkpt>
      <trkpt lat="47.7836" lon="-3.38942">
        <ele>1.67</ele>
        <time>2018-05-31T09:11:56Z</time>
      </trkpt>
      <trkpt lat="47.78374" lon="-3.38947">
        <ele>2.15</ele>
        <time>2018-05-31T09:12:09Z</time>
      </trkpt>
      <trkpt lat="47.78376" lon="-3.38947">
        <ele>2.23</ele>
        <time>2018-05-31T09:12:10Z</time>
      </trkpt>
      <trkpt lat="47.78402" lon="-3.38943">
        <ele>4.46</ele>
        <time>2018-05-31T09:12:22Z</time>
      </trkpt>
      <trkpt lat="47.78412" lon="-3.38947">
        <ele>5.45</ele>
        <time>2018-05-31T09:12:26Z</time>
      </trkpt>
      <trkpt lat="47.78418" lon="-3.38955">
        <ele>6.83</ele>
        <time>2018-05-31T09:12:30Z</time>
      </trkpt>
      <trkpt lat="47.78417" lon="-3.38963">
        <ele>7.69</ele>
        <time>2018-05-31T09:12:32Z</time>
      </trkpt>
      <trkpt lat="47.78417" lon="-3.38982">
        <ele>10.87</ele>
        <time>2018-05-31T09:12:37Z</time>
      </trkpt>
      <trkpt lat="47.78414" lon="-3.39008">
        <ele>13.3</ele>
        <time>2018-05-31T09:12:46Z</time>
      </trkpt>
      <trkpt lat="47.78413" lon="-3.3901">
        <ele>13.47</ele>
        <time>2018-05-31T09:12:47Z</time>
      </trkpt>
      <trkpt lat="47.78413" lon="-3.3903">
        <ele>13.44</ele>
        <time>2018-05-31T09:12:54Z</time>
      </trkpt>
      <trkpt lat="47.78412" lon="-3.39032">
        <ele>13.34</ele>
        <time>2018-05-31T09:12:55Z</time>
      </trkpt>
      <trkpt lat="47.78411" lon="-3.39048">
        <ele>12.14</ele>
        <time>2018-05-31T09:13:02Z</time>
      </trkpt>
      <trkpt lat="47.78414" lon="-3.391">
        <ele>10.56</ele>
        <time>2018-05-31T09:13:14Z</time>
      </trkpt>
      <trkpt lat="47.78423" lon="-3.39155">
        <ele>11.32</ele>
        <time>2018-05-31T09:13:24Z</time>
      </trkpt>
      <trkpt lat="47.78434" lon="-3.39204">
        <ele>12.84</ele>
        <time>2018-05-31T09:13:33Z</time>
      </trkpt>
      <trkpt lat="47.78435" lon="-3.39207">
        <ele>13</ele>
        <time>2018-05-31T09:13:34Z</time>
      </trkpt>
      <trkpt lat="47.78452" lon="-3.39234">
        <ele>11.77</ele>
        <time>2018-05-31T09:13:45Z</time>
      </trkpt>
      <trkpt lat="47.78457" lon="-3.39242">
        <ele>10.97</ele>
        <time>2018-05-31T09:13:48Z</time>
      </trkpt>
      <trkpt lat="47.78459" lon="-3.39246">
        <ele>10.72</ele>
        <time>2018-05-31T09:13:49Z</time>
      </trkpt>
      <trkpt lat="47.7846" lon="-3.39249">
        <ele>10.43</ele>
        <time>2018-05-31T09:13:50Z</time>
      </trkpt>
      <trkpt lat="47.78461" lon="-3.39252">
        <ele>10.08</ele>
        <time>2018-05-31T09:13:51Z</time>
      </trkpt>
      <trkpt lat="47.78462" lon="-3.39256">
        <ele>9.74</ele>
        <time>2018-05-31T09:13:52Z</time>
      </trkpt>
      <trkpt lat="47.78464" lon="-3.3926">
        <ele>9.44</ele>
        <time>2018-05-31T09:13:53Z</time>
      </trkpt>
      <trkpt lat="47.78467" lon="-3.39264">
        <ele>9.2</ele>
        <time>2018-05-31T09:13:54Z</time>
      </trkpt>
      <trkpt lat="47.7847" lon="-3.39269">
        <ele>9.01</ele>
        <time>2018-05-31T09:13:55Z</time>
      </trkpt>
      <trkpt lat="47.78473" lon="-3.39275">
        <ele>8.78</ele>
        <time>2018-05-31T09:13:56Z</time>
      </trkpt>
      <trkpt lat="47.78494" lon="-3.39328">
        <ele>11.01</ele>
        <time>2018-05-31T09:14:05Z</time>
      </trkpt>
      <trkpt lat="47.78521" lon="-3.39385">
        <ele>12.68</ele>
        <time>2018-05-31T09:14:16Z</time>
      </trkpt>
      <trkpt lat="47.78536" lon="-3.39443">
        <ele>12.9</ele>
        <time>2018-05-31T09:14:25Z</time>
      </trkpt>
      <trkpt lat="47.78558" lon="-3.39473">
        <ele>13.71</ele>
        <time>2018-05-31T09:14:36Z</time>
      </trkpt>
      <trkpt lat="47.78587" lon="-3.39487">
        <ele>12.36</ele>
        <time>2018-05-31T09:14:50Z</time>
      </trkpt>
      <trkpt lat="47.78591" lon="-3.39484">
        <ele>12.5</ele>
        <time>2018-05-31T09:14:51Z</time>
      </trkpt>
      <trkpt lat="47.78599" lon="-3.39479">
        <ele>12.86</ele>
        <time>2018-05-31T09:14:53Z</time>
      </trkpt>
      <trkpt lat="47.78603" lon="-3.39475">
        <ele>13.09</ele>
        <time>2018-05-31T09:14:54Z</time>
      </trkpt>
      <trkpt lat="47.78634" lon="-3.39445">
        <ele>16.32</ele>
        <time>2018-05-31T09:15:02Z</time>
      </trkpt>
      <trkpt lat="47.78637" lon="-3.39443">
        <ele>16.7</ele>
        <time>2018-05-31T09:15:03Z</time>
      </trkpt>
      <trkpt lat="47.78677" lon="-3.39433">
        <ele>19.37</ele>
        <time>2018-05-31T09:15:16Z</time>
      </trkpt>
      <trkpt lat="47.78727" lon="-3.39424">
        <ele>22.42</ele>
        <time>2018-05-31T09:15:30Z</time>
      </trkpt>
      <trkpt lat="47.78744" lon="-3.39446">
        <ele>24.86</ele>
        <time>2018-05-31T09:15:41Z</time>
      </trkpt>
      <trkpt lat="47.78773" lon="-3.3947">
        <ele>25.75</ele>
        <time>2018-05-31T09:15:50Z</time>
      </trkpt>
      <trkpt lat="47.78812" lon="-3.3949">
        <ele>28.56</ele>
        <time>2018-05-31T09:16:02Z</time>
      </trkpt>
      <trkpt lat="47.78827" lon="-3.39492">
        <ele>29.91</ele>
        <time>2018-05-31T09:16:11Z</time>
      </trkpt>
      <trkpt lat="47.78828" lon="-3.39491">
        <ele>29.93</ele>
        <time>2018-05-31T09:16:12Z</time>
      </trkpt>
      <trkpt lat="47.78829" lon="-3.3949">
        <ele>29.94</ele>
        <time>2018-05-31T09:16:13Z</time>
      </trkpt>
      <trkpt lat="47.7883" lon="-3.39489">
        <ele>29.93</ele>
        <time>2018-05-31T09:16:14Z</time>
      </trkpt>
      <trkpt lat="47.78832" lon="-3.39488">
        <ele>29.92</ele>
        <time>2018-05-31T09:16:15Z</time>
      </trkpt>
      <trkpt lat="47.78833" lon="-3.39487">
        <ele>29.92</ele>
        <time>2018-05-31T09:16:16Z</time>
      </trkpt>
      <trkpt lat="47.78837" lon="-3.39486">
        <ele>29.73</ele>
        <time>2018-05-31T09:16:21Z</time>
      </trkpt>
      <trkpt lat="47.78838" lon="-3.39485">
        <ele>29.69</ele>
        <time>2018-05-31T09:16:22Z</time>
      </trkpt>
      <trkpt lat="47.7884" lon="-3.39484">
        <ele>29.66</ele>
        <time>2018-05-31T09:16:23Z</time>
      </trkpt>
      <trkpt lat="47.78853" lon="-3.39479">
        <ele>29.1</ele>
        <time>2018-05-31T09:16:33Z</time>
      </trkpt>
      <trkpt lat="47.78855" lon="-3.39478">
        <ele>29.03</ele>
        <time>2018-05-31T09:16:34Z</time>
      </trkpt>
      <trkpt lat="47.78857" lon="-3.39477">
        <ele>28.98</ele>
        <time>2018-05-31T09:16:35Z</time>
      </trkpt>
      <trkpt lat="47.78858" lon="-3.39477">
        <ele>28.9</ele>
        <time>2018-05-31T09:16:36Z</time>
      </trkpt>
      <trkpt lat="47.7886" lon="-3.39477">
        <ele>28.83</ele>
        <time>2018-05-31T09:16:37Z</time>
      </trkpt>
      <trkpt lat="47.78862" lon="-3.39477">
        <ele>28.75</ele>
        <time>2018-05-31T09:16:38Z</time>
      </trkpt>
      <trkpt lat="47.78881" lon="-3.3948">
        <ele>27.74</ele>
        <time>2018-05-31T09:16:50Z</time>
      </trkpt>
      <trkpt lat="47.78891" lon="-3.3948">
        <ele>26.71</ele>
        <time>2018-05-31T09:16:57Z</time>
      </trkpt>
      <trkpt lat="47.78892" lon="-3.3948">
        <ele>26.56</ele>
        <time>2018-05-31T09:16:58Z</time>
      </trkpt>
      <trkpt lat="47.78893" lon="-3.39481">
        <ele>26.4</ele>
        <time>2018-05-31T09:16:59Z</time>
      </trkpt>
      <trkpt lat="47.78895" lon="-3.39485">
        <ele>26.11</ele>
        <time>2018-05-31T09:17:01Z</time>
      </trkpt>
      <trkpt lat="47.78895" lon="-3.39488">
        <ele>25.97</ele>
        <time>2018-05-31T09:17:02Z</time>
      </trkpt>
      <trkpt lat="47.78899" lon="-3.39524">
        <ele>24.22</ele>
        <time>2018-05-31T09:17:17Z</time>
      </trkpt>
      <trkpt lat="47.789" lon="-3.39552">
        <ele>23.94</ele>
        <time>2018-05-31T09:17:31Z</time>
      </trkpt>
      <trkpt lat="47.78902" lon="-3.39558">
        <ele>23.75</ele>
        <time>2018-05-31T09:17:35Z</time>
      </trkpt>
      <trkpt lat="47.78912" lon="-3.39581">
        <ele>20.46</ele>
        <time>2018-05-31T09:17:49Z</time>
      </trkpt>
      <trkpt lat="47.78912" lon="-3.39584">
        <ele>20.23</ele>
        <time>2018-05-31T09:17:50Z</time>
      </trkpt>
      <trkpt lat="47.78907" lon="-3.39601">
        <ele>19.31</ele>
        <time>2018-05-31T09:17:58Z</time>
      </trkpt>
      <trkpt lat="47.78905" lon="-3.39609">
        <ele>19.36</ele>
        <time>2018-05-31T09:18:02Z</time>
      </trkpt>
      <trkpt lat="47.78903" lon="-3.39615">
        <ele>19.72</ele>
        <time>2018-05-31T09:18:05Z</time>
      </trkpt>
      <trkpt lat="47.78903" lon="-3.39626">
        <ele>20.66</ele>
        <time>2018-05-31T09:18:09Z</time>
      </trkpt>
      <trkpt lat="47.78928" lon="-3.39642">
        <ele>23.91</ele>
        <time>2018-05-31T09:18:22Z</time>
      </trkpt>
      <trkpt lat="47.78951" lon="-3.39657">
        <ele>25.25</ele>
        <time>2018-05-31T09:18:39Z</time>
      </trkpt>
      <trkpt lat="47.78956" lon="-3.39668">
        <ele>25.95</ele>
        <time>2018-05-31T09:18:46Z</time>
      </trkpt>
      <trkpt lat="47.78965" lon="-3.39672">
        <ele>26.24</ele>
        <time>2018-05-31T09:18:50Z</time>
      </trkpt>
      <trkpt lat="47.78994" lon="-3.39681">
        <ele>25.42</ele>
        <time>2018-05-31T09:19:02Z</time>
      </trkpt>
      <trkpt lat="47.79027" lon="-3.39687">
        <ele>24.82</ele>
        <time>2018-05-31T09:19:19Z</time>
      </trkpt>
      <trkpt lat="47.79048" lon="-3.39698">
        <ele>25.25</ele>
        <time>2018-05-31T09:19:29Z</time>
      </trkpt>
      <trkpt lat="47.7907" lon="-3.39706">
        <ele>27.71</ele>
        <time>2018-05-31T09:19:41Z</time>
      </trkpt>
      <trkpt lat="47.7908" lon="-3.39707">
        <ele>28.04</ele>
        <time>2018-05-31T09:19:47Z</time>
      </trkpt>
      <trkpt lat="47.79094" lon="-3.39731">
        <ele>27.76</ele>
        <time>2018-05-31T09:20:01Z</time>
      </trkpt>
      <trkpt lat="47.79108" lon="-3.39746">
        <ele>27.07</ele>
        <time>2018-05-31T09:20:13Z</time>
      </trkpt>
      <trkpt lat="47.79114" lon="-3.39748">
        <ele>26.63</ele>
        <time>2018-05-31T09:20:17Z</time>
      </trkpt>
      <trkpt lat="47.79119" lon="-3.39748">
        <ele>26.14</ele>
        <time>2018-05-31T09:20:20Z</time>
      </trkpt>
      <trkpt lat="47.79142" lon="-3.39756">
        <ele>24.95</ele>
        <time>2018-05-31T09:20:33Z</time>
      </trkpt>
      <trkpt lat="47.79156" lon="-3.3978">
        <ele>24.09</ele>
        <time>2018-05-31T09:20:51Z</time>
      </trkpt>
      <trkpt lat="47.7916" lon="-3.39784">
        <ele>24.05</ele>
        <time>2018-05-31T09:20:54Z</time>
      </trkpt>
      <trkpt lat="47.79165" lon="-3.39792">
        <ele>24.04</ele>
        <time>2018-05-31T09:20:58Z</time>
      </trkpt>
      <trkpt lat="47.7918" lon="-3.39814">
        <ele>23.37</ele>
        <time>2018-05-31T09:21:13Z</time>
      </trkpt>
      <trkpt lat="47.79187" lon="-3.3983">
        <ele>22.26</ele>
        <time>2018-05-31T09:21:21Z</time>
      </trkpt>
      <trkpt lat="47.79195" lon="-3.39856">
        <ele>21.75</ele>
        <time>2018-05-31T09:21:35Z</time>
      </trkpt>
      <trkpt lat="47.79208" lon="-3.39877">
        <ele>23.08</ele>
        <time>2018-05-31T09:21:48Z</time>
      </trkpt>
      <trkpt lat="47.79211" lon="-3.39882">
        <ele>23.32</ele>
        <time>2018-05-31T09:21:50Z</time>
      </trkpt>
      <trkpt lat="47.79212" lon="-3.39889">
        <ele>23.72</ele>
        <time>2018-05-31T09:21:53Z</time>
      </trkpt>
      <trkpt lat="47.79228" lon="-3.39908">
        <ele>26.04</ele>
        <time>2018-05-31T09:22:09Z</time>
      </trkpt>
      <trkpt lat="47.79242" lon="-3.39937">
        <ele>27.36</ele>
        <time>2018-05-31T09:22:29Z</time>
      </trkpt>
      <trkpt lat="47.79246" lon="-3.39957">
        <ele>27.28</ele>
        <time>2018-05-31T09:22:39Z</time>
      </trkpt>
      <trkpt lat="47.79246" lon="-3.39962">
        <ele>27.26</ele>
        <time>2018-05-31T09:22:41Z</time>
      </trkpt>
      <trkpt lat="47.79245" lon="-3.39972">
        <ele>27.18</ele>
        <time>2018-05-31T09:22:46Z</time>
      </trkpt>
      <trkpt lat="47.79244" lon="-3.39981">
        <ele>27.15</ele>
        <time>2018-05-31T09:22:50Z</time>
      </trkpt>
      <trkpt lat="47.79241" lon="-3.40006">
        <ele>26.67</ele>
        <time>2018-05-31T09:23:06Z</time>
      </trkpt>
      <trkpt lat="47.79236" lon="-3.40038">
        <ele>25.79</ele>
        <time>2018-05-31T09:23:27Z</time>
      </trkpt>
      <trkpt lat="47.79238" lon="-3.40074">
        <ele>26.21</ele>
        <time>2018-05-31T09:23:46Z</time>
      </trkpt>
      <trkpt lat="47.79237" lon="-3.40109">
        <ele>27.31</ele>
        <time>2018-05-31T09:24:03Z</time>
      </trkpt>
      <trkpt lat="47.79232" lon="-3.40127">
        <ele>27.83</ele>
        <time>2018-05-31T09:24:10Z</time>
      </trkpt>
      <trkpt lat="47.79227" lon="-3.40154">
        <ele>29.14</ele>
        <time>2018-05-31T09:24:23Z</time>
      </trkpt>
      <trkpt lat="47.79243" lon="-3.40174">
        <ele>29.41</ele>
        <time>2018-05-31T09:24:40Z</time>
      </trkpt>
      <trkpt lat="47.7925" lon="-3.4018">
        <ele>29.34</ele>
        <time>2018-05-31T09:24:46Z</time>
      </trkpt>
      <trkpt lat="47.79269" lon="-3.40187">
        <ele>28.67</ele>
        <time>2018-05-31T09:25:01Z</time>
      </trkpt>
      <trkpt lat="47.79285" lon="-3.40201">
        <ele>26</ele>
        <time>2018-05-31T09:25:20Z</time>
      </trkpt>
      <trkpt lat="47.79292" lon="-3.40208">
        <ele>25.36</ele>
        <time>2018-05-31T09:25:29Z</time>
      </trkpt>
      <trkpt lat="47.79294" lon="-3.40217">
        <ele>25.12</ele>
        <time>2018-05-31T09:25:34Z</time>
      </trkpt>
      <trkpt lat="47.793" lon="-3.40238">
        <ele>24.95</ele>
        <time>2018-05-31T09:25:46Z</time>
      </trkpt>
      <trkpt lat="47.79299" lon="-3.40247">
        <ele>24.78</ele>
        <time>2018-05-31T09:25:50Z</time>
      </trkpt>
      <trkpt lat="47.79288" lon="-3.40277">
        <ele>24.44</ele>
        <time>2018-05-31T09:26:03Z</time>
      </trkpt>
      <trkpt lat="47.79276" lon="-3.40298">
        <ele>24.08</ele>
        <time>2018-05-31T09:26:13Z</time>
      </trkpt>
      <trkpt lat="47.79276" lon="-3.403">
        <ele>24.04</ele>
        <time>2018-05-31T09:26:14Z</time>
      </trkpt>
      <trkpt lat="47.7927" lon="-3.40314">
        <ele>23.55</ele>
        <time>2018-05-31T09:26:24Z</time>
      </trkpt>
      <trkpt lat="47.79266" lon="-3.40321">
        <ele>23.56</ele>
        <time>2018-05-31T09:26:27Z</time>
      </trkpt>
      <trkpt lat="47.79265" lon="-3.40324">
        <ele>23.57</ele>
        <time>2018-05-31T09:26:28Z</time>
      </trkpt>
      <trkpt lat="47.79264" lon="-3.40327">
        <ele>23.58</ele>
        <time>2018-05-31T09:26:29Z</time>
      </trkpt>
      <trkpt lat="47.79263" lon="-3.4033">
        <ele>23.57</ele>
        <time>2018-05-31T09:26:30Z</time>
      </trkpt>
      <trkpt lat="47.79262" lon="-3.40332">
        <ele>23.56</ele>
        <time>2018-05-31T09:26:31Z</time>
      </trkpt>
      <trkpt lat="47.79262" lon="-3.40335">
        <ele>23.55</ele>
        <time>2018-05-31T09:26:32Z</time>
      </trkpt>
      <trkpt lat="47.79261" lon="-3.40337">
        <ele>23.52</ele>
        <time>2018-05-31T09:26:33Z</time>
      </trkpt>
      <trkpt lat="47.7926" lon="-3.40339">
        <ele>23.49</ele>
        <time>2018-05-31T09:26:34Z</time>
      </trkpt>
      <trkpt lat="47.79254" lon="-3.4036">
        <ele>23.16</ele>
        <time>2018-05-31T09:26:44Z</time>
      </trkpt>
      <trkpt lat="47.79254" lon="-3.40362">
        <ele>23.16</ele>
        <time>2018-05-31T09:26:45Z</time>
      </trkpt>
      <trkpt lat="47.79253" lon="-3.40366">
        <ele>23.16</ele>
        <time>2018-05-31T09:26:46Z</time>
      </trkpt>
      <trkpt lat="47.7925" lon="-3.40383">
        <ele>23.1</ele>
        <time>2018-05-31T09:26:53Z</time>
      </trkpt>
      <trkpt lat="47.79249" lon="-3.40386">
        <ele>23.1</ele>
        <time>2018-05-31T09:26:54Z</time>
      </trkpt>
      <trkpt lat="47.79248" lon="-3.40389">
        <ele>23.1</ele>
        <time>2018-05-31T09:26:55Z</time>
      </trkpt>
      <trkpt lat="47.79248" lon="-3.40392">
        <ele>23.08</ele>
        <time>2018-05-31T09:26:56Z</time>
      </trkpt>
      <trkpt lat="47.79247" lon="-3.40395">
        <ele>23.07</ele>
        <time>2018-05-31T09:26:57Z</time>
      </trkpt>
      <trkpt lat="47.79247" lon="-3.40398">
        <ele>23.06</ele>
        <time>2018-05-31T09:26:58Z</time>
      </trkpt>
      <trkpt lat="47.79241" lon="-3.40421">
        <ele>22.63</ele>
        <time>2018-05-31T09:27:08Z</time>
      </trkpt>
      <trkpt lat="47.79241" lon="-3.40423">
        <ele>22.58</ele>
        <time>2018-05-31T09:27:09Z</time>
      </trkpt>
      <trkpt lat="47.79234" lon="-3.40457">
        <ele>21.88</ele>
        <time>2018-05-31T09:27:23Z</time>
      </trkpt>
      <trkpt lat="47.79226" lon="-3.40483">
        <ele>21.33</ele>
        <time>2018-05-31T09:27:33Z</time>
      </trkpt>
      <trkpt lat="47.79225" lon="-3.40486">
        <ele>21.31</ele>
        <time>2018-05-31T09:27:34Z</time>
      </trkpt>
      <trkpt lat="47.79224" lon="-3.4049">
        <ele>21.29</ele>
        <time>2018-05-31T09:27:35Z</time>
      </trkpt>
      <trkpt lat="47.79224" lon="-3.40493">
        <ele>21.25</ele>
        <time>2018-05-31T09:27:36Z</time>
      </trkpt>
      <trkpt lat="47.79223" lon="-3.40495">
        <ele>21.19</ele>
        <time>2018-05-31T09:27:37Z</time>
      </trkpt>
      <trkpt lat="47.79223" lon="-3.40498">
        <ele>21.15</ele>
        <time>2018-05-31T09:27:38Z</time>
      </trkpt>
      <trkpt lat="47.79222" lon="-3.40501">
        <ele>21.1</ele>
        <time>2018-05-31T09:27:39Z</time>
      </trkpt>
      <trkpt lat="47.79215" lon="-3.40553">
        <ele>20.56</ele>
        <time>2018-05-31T09:27:58Z</time>
      </trkpt>
      <trkpt lat="47.79211" lon="-3.40599">
        <ele>20.95</ele>
        <time>2018-05-31T09:28:16Z</time>
      </trkpt>
      <trkpt lat="47.79211" lon="-3.40601">
        <ele>20.94</ele>
        <time>2018-05-31T09:28:17Z</time>
      </trkpt>
      <trkpt lat="47.79211" lon="-3.40604">
        <ele>20.95</ele>
        <time>2018-05-31T09:28:18Z</time>
      </trkpt>
      <trkpt lat="47.79208" lon="-3.40647">
        <ele>21.56</ele>
        <time>2018-05-31T09:28:35Z</time>
      </trkpt>
      <trkpt lat="47.79203" lon="-3.40687">
        <ele>22.03</ele>
        <time>2018-05-31T09:28:53Z</time>
      </trkpt>
      <trkpt lat="47.79202" lon="-3.40724">
        <ele>22.86</ele>
        <time>2018-05-31T09:29:09Z</time>
      </trkpt>
      <trkpt lat="47.79205" lon="-3.40758">
        <ele>23.5</ele>
        <time>2018-05-31T09:29:23Z</time>
      </trkpt>
      <trkpt lat="47.79208" lon="-3.40797">
        <ele>23.86</ele>
        <time>2018-05-31T09:29:39Z</time>
      </trkpt>
      <trkpt lat="47.79214" lon="-3.40841">
        <ele>25.3</ele>
        <time>2018-05-31T09:29:57Z</time>
      </trkpt>
      <trkpt lat="47.79221" lon="-3.40879">
        <ele>26.78</ele>
        <time>2018-05-31T09:30:13Z</time>
      </trkpt>
      <trkpt lat="47.79227" lon="-3.40914">
        <ele>27.95</ele>
        <time>2018-05-31T09:30:29Z</time>
      </trkpt>
      <trkpt lat="47.79214" lon="-3.40946">
        <ele>28.61</ele>
        <time>2018-05-31T09:30:44Z</time>
      </trkpt>
      <trkpt lat="47.79198" lon="-3.40976">
        <ele>28.99</ele>
        <time>2018-05-31T09:31:00Z</time>
      </trkpt>
      <trkpt lat="47.79178" lon="-3.41014">
        <ele>30.21</ele>
        <time>2018-05-31T09:31:20Z</time>
      </trkpt>
      <trkpt lat="47.79179" lon="-3.41024">
        <ele>30.64</ele>
        <time>2018-05-31T09:31:25Z</time>
      </trkpt>
      <trkpt lat="47.79205" lon="-3.41033">
        <ele>32.14</ele>
        <time>2018-05-31T09:31:42Z</time>
      </trkpt>
      <trkpt lat="47.79229" lon="-3.41042">
        <ele>32.57</ele>
        <time>2018-05-31T09:31:58Z</time>
      </trkpt>
      <trkpt lat="47.79248" lon="-3.41051">
        <ele>33.02</ele>
        <time>2018-05-31T09:32:12Z</time>
      </trkpt>
      <trkpt lat="47.7927" lon="-3.41059">
        <ele>33.4</ele>
        <time>2018-05-31T09:32:26Z</time>
      </trkpt>
      <trkpt lat="47.79298" lon="-3.4107">
        <ele>33.29</ele>
        <time>2018-05-31T09:32:45Z</time>
      </trkpt>
      <trkpt lat="47.79319" lon="-3.41084">
        <ele>32.34</ele>
        <time>2018-05-31T09:33:00Z</time>
      </trkpt>
      <trkpt lat="47.79349" lon="-3.41096">
        <ele>29.83</ele>
        <time>2018-05-31T09:33:19Z</time>
      </trkpt>
      <trkpt lat="47.79377" lon="-3.41105">
        <ele>27.89</ele>
        <time>2018-05-31T09:33:38Z</time>
      </trkpt>
      <trkpt lat="47.79402" lon="-3.41112">
        <ele>26.9</ele>
        <time>2018-05-31T09:33:54Z</time>
      </trkpt>
      <trkpt lat="47.79427" lon="-3.41127">
        <ele>26.3</ele>
        <time>2018-05-31T09:34:11Z</time>
      </trkpt>
      <trkpt lat="47.79438" lon="-3.41148">
        <ele>25.55</ele>
        <time>2018-05-31T09:34:23Z</time>
      </trkpt>
      <trkpt lat="47.79441" lon="-3.41178">
        <ele>24.49</ele>
        <time>2018-05-31T09:34:37Z</time>
      </trkpt>
      <trkpt lat="47.79442" lon="-3.41213">
        <ele>23.09</ele>
        <time>2018-05-31T09:34:52Z</time>
      </trkpt>
      <trkpt lat="47.79441" lon="-3.41245">
        <ele>23.02</ele>
        <time>2018-05-31T09:35:04Z</time>
      </trkpt>
      <trkpt lat="47.79441" lon="-3.41289">
        <ele>24.28</ele>
        <time>2018-05-31T09:35:23Z</time>
      </trkpt>
      <trkpt lat="47.7944" lon="-3.41313">
        <ele>25.08</ele>
        <time>2018-05-31T09:35:35Z</time>
      </trkpt>
      <trkpt lat="47.79441" lon="-3.41316">
        <ele>25.2</ele>
        <time>2018-05-31T09:35:37Z</time>
      </trkpt>
      <trkpt lat="47.79465" lon="-3.41309">
        <ele>25.92</ele>
        <time>2018-05-31T09:35:55Z</time>
      </trkpt>
      <trkpt lat="47.79489" lon="-3.41294">
        <ele>25.73</ele>
        <time>2018-05-31T09:36:10Z</time>
      </trkpt>
      <trkpt lat="47.79508" lon="-3.41284">
        <ele>25.39</ele>
        <time>2018-05-31T09:36:23Z</time>
      </trkpt>
      <trkpt lat="47.79521" lon="-3.41276">
        <ele>25.24</ele>
        <time>2018-05-31T09:36:35Z</time>
      </trkpt>
      <trkpt lat="47.79524" lon="-3.41273">
        <ele>25.16</ele>
        <time>2018-05-31T09:36:38Z</time>
      </trkpt>
      <trkpt lat="47.79528" lon="-3.41271">
        <ele>25.09</ele>
        <time>2018-05-31T09:36:41Z</time>
      </trkpt>
      <trkpt lat="47.79553" lon="-3.41256">
        <ele>24.62</ele>
        <time>2018-05-31T09:36:55Z</time>
      </trkpt>
      <trkpt lat="47.79576" lon="-3.41244">
        <ele>24.23</ele>
        <time>2018-05-31T09:37:08Z</time>
      </trkpt>
      <trkpt lat="47.79601" lon="-3.41233">
        <ele>24.23</ele>
        <time>2018-05-31T09:37:23Z</time>
      </trkpt>
      <trkpt lat="47.7962" lon="-3.41223">
        <ele>24.21</ele>
        <time>2018-05-31T09:37:34Z</time>
      </trkpt>
      <trkpt lat="47.79643" lon="-3.41212">
        <ele>23.92</ele>
        <time>2018-05-31T09:37:48Z</time>
      </trkpt>
      <trkpt lat="47.7968" lon="-3.41192">
        <ele>23.88</ele>
        <time>2018-05-31T09:38:09Z</time>
      </trkpt>
      <trkpt lat="47.79706" lon="-3.41184">
        <ele>24.66</ele>
        <time>2018-05-31T09:38:27Z</time>
      </trkpt>
      <trkpt lat="47.79736" lon="-3.41181">
        <ele>25.65</ele>
        <time>2018-05-31T09:38:47Z</time>
      </trkpt>
      <trkpt lat="47.79765" lon="-3.41182">
        <ele>25.99</ele>
        <time>2018-05-31T09:39:05Z</time>
      </trkpt>
      <trkpt lat="47.79797" lon="-3.41184">
        <ele>25.42</ele>
        <time>2018-05-31T09:39:25Z</time>
      </trkpt>
      <trkpt lat="47.79821" lon="-3.41185">
        <ele>24.7</ele>
        <time>2018-05-31T09:39:42Z</time>
      </trkpt>
      <trkpt lat="47.79841" lon="-3.41187">
        <ele>24</ele>
        <time>2018-05-31T09:39:56Z</time>
      </trkpt>
      <trkpt lat="47.79874" lon="-3.41187">
        <ele>23.18</ele>
        <time>2018-05-31T09:40:13Z</time>
      </trkpt>
      <trkpt lat="47.799" lon="-3.41187">
        <ele>21.73</ele>
        <time>2018-05-31T09:40:30Z</time>
      </trkpt>
      <trkpt lat="47.7991" lon="-3.41188">
        <ele>21.52</ele>
        <time>2018-05-31T09:40:36Z</time>
      </trkpt>
      <trkpt lat="47.79931" lon="-3.41187">
        <ele>20.84</ele>
        <time>2018-05-31T09:40:49Z</time>
      </trkpt>
      <trkpt lat="47.79957" lon="-3.41187">
        <ele>20.77</ele>
        <time>2018-05-31T09:41:03Z</time>
      </trkpt>
      <trkpt lat="47.79964" lon="-3.41192">
        <ele>20.77</ele>
        <time>2018-05-31T09:41:09Z</time>
      </trkpt>
      <trkpt lat="47.79966" lon="-3.41203">
        <ele>20.88</ele>
        <time>2018-05-31T09:41:14Z</time>
      </trkpt>
      <trkpt lat="47.79959" lon="-3.41248">
        <ele>20.94</ele>
        <time>2018-05-31T09:41:34Z</time>
      </trkpt>
      <trkpt lat="47.7996" lon="-3.4129">
        <ele>21.36</ele>
        <time>2018-05-31T09:41:52Z</time>
      </trkpt>
      <trkpt lat="47.79956" lon="-3.41327">
        <ele>21.41</ele>
        <time>2018-05-31T09:42:09Z</time>
      </trkpt>
      <trkpt lat="47.79945" lon="-3.41372">
        <ele>20.59</ele>
        <time>2018-05-31T09:42:28Z</time>
      </trkpt>
      <trkpt lat="47.7994" lon="-3.41405">
        <ele>20.87</ele>
        <time>2018-05-31T09:42:41Z</time>
      </trkpt>
      <trkpt lat="47.79935" lon="-3.41441">
        <ele>22.43</ele>
        <time>2018-05-31T09:42:58Z</time>
      </trkpt>
      <trkpt lat="47.79934" lon="-3.41444">
        <ele>22.88</ele>
        <time>2018-05-31T09:43:04Z</time>
      </trkpt>
      <trkpt lat="47.79933" lon="-3.41456">
        <ele>23.05</ele>
        <time>2018-05-31T09:43:13Z</time>
      </trkpt>
      <trkpt lat="47.79933" lon="-3.41458">
        <ele>23.05</ele>
        <time>2018-05-31T09:43:14Z</time>
      </trkpt>
      <trkpt lat="47.79918" lon="-3.41488">
        <ele>22.88</ele>
        <time>2018-05-31T09:43:32Z</time>
      </trkpt>
      <trkpt lat="47.79899" lon="-3.41508">
        <ele>21.05</ele>
        <time>2018-05-31T09:43:46Z</time>
      </trkpt>
      <trkpt lat="47.79875" lon="-3.41526">
        <ele>21.45</ele>
        <time>2018-05-31T09:44:02Z</time>
      </trkpt>
      <trkpt lat="47.79849" lon="-3.41548">
        <ele>21.76</ele>
        <time>2018-05-31T09:44:19Z</time>
      </trkpt>
      <trkpt lat="47.7982" lon="-3.41573">
        <ele>22.27</ele>
        <time>2018-05-31T09:44:39Z</time>
      </trkpt>
      <trkpt lat="47.79802" lon="-3.41587">
        <ele>22.32</ele>
        <time>2018-05-31T09:44:52Z</time>
      </trkpt>
      <trkpt lat="47.798" lon="-3.41594">
        <ele>22.32</ele>
        <time>2018-05-31T09:44:56Z</time>
      </trkpt>
      <trkpt lat="47.79783" lon="-3.41624">
        <ele>22.6</ele>
        <time>2018-05-31T09:45:15Z</time>
      </trkpt>
      <trkpt lat="47.79766" lon="-3.41653">
        <ele>23.83</ele>
        <time>2018-05-31T09:45:34Z</time>
      </trkpt>
      <trkpt lat="47.79758" lon="-3.41687">
        <ele>25.58</ele>
        <time>2018-05-31T09:45:52Z</time>
      </trkpt>
      <trkpt lat="47.79756" lon="-3.41725">
        <ele>28.14</ele>
        <time>2018-05-31T09:46:10Z</time>
      </trkpt>
      <trkpt lat="47.79755" lon="-3.41745">
        <ele>29.1</ele>
        <time>2018-05-31T09:46:22Z</time>
      </trkpt>
      <trkpt lat="47.79754" lon="-3.4176">
        <ele>29.81</ele>
        <time>2018-05-31T09:46:34Z</time>
      </trkpt>
      <trkpt lat="47.79754" lon="-3.41761">
        <ele>29.97</ele>
        <time>2018-05-31T09:46:39Z</time>
      </trkpt>
      <trkpt lat="47.79753" lon="-3.41771">
        <ele>30.16</ele>
        <time>2018-05-31T09:46:43Z</time>
      </trkpt>
      <trkpt lat="47.79755" lon="-3.41814">
        <ele>31.65</ele>
        <time>2018-05-31T09:46:59Z</time>
      </trkpt>
      <trkpt lat="47.7976" lon="-3.41835">
        <ele>32.37</ele>
        <time>2018-05-31T09:47:13Z</time>
      </trkpt>
      <trkpt lat="47.7975" lon="-3.4187">
        <ele>34.14</ele>
        <time>2018-05-31T09:47:27Z</time>
      </trkpt>
      <trkpt lat="47.79747" lon="-3.41897">
        <ele>35.14</ele>
        <time>2018-05-31T09:47:37Z</time>
      </trkpt>
      <trkpt lat="47.79745" lon="-3.41903">
        <ele>35.34</ele>
        <time>2018-05-31T09:47:40Z</time>
      </trkpt>
      <trkpt lat="47.79742" lon="-3.41936">
        <ele>34.96</ele>
        <time>2018-05-31T09:47:53Z</time>
      </trkpt>
      <trkpt lat="47.79741" lon="-3.41942">
        <ele>34.64</ele>
        <time>2018-05-31T09:47:57Z</time>
      </trkpt>
      <trkpt lat="47.79739" lon="-3.41966">
        <ele>33.2</ele>
        <time>2018-05-31T09:48:10Z</time>
      </trkpt>
      <trkpt lat="47.79744" lon="-3.4199">
        <ele>29.96</ele>
        <time>2018-05-31T09:48:23Z</time>
      </trkpt>
      <trkpt lat="47.79745" lon="-3.42014">
        <ele>26.76</ele>
        <time>2018-05-31T09:48:33Z</time>
      </trkpt>
      <trkpt lat="47.79746" lon="-3.42027">
        <ele>23.89</ele>
        <time>2018-05-31T09:48:40Z</time>
      </trkpt>
      <trkpt lat="47.79746" lon="-3.42038">
        <ele>22.03</ele>
        <time>2018-05-31T09:48:44Z</time>
      </trkpt>
      <trkpt lat="47.79747" lon="-3.42043">
        <ele>21.29</ele>
        <time>2018-05-31T09:48:46Z</time>
      </trkpt>
      <trkpt lat="47.79746" lon="-3.42066">
        <ele>19.93</ele>
        <time>2018-05-31T09:48:51Z</time>
      </trkpt>
      <trkpt lat="47.79751" lon="-3.42096">
        <ele>18.24</ele>
        <time>2018-05-31T09:49:02Z</time>
      </trkpt>
      <trkpt lat="47.79754" lon="-3.42132">
        <ele>17.48</ele>
        <time>2018-05-31T09:49:16Z</time>
      </trkpt>
      <trkpt lat="47.79757" lon="-3.4217">
        <ele>17.52</ele>
        <time>2018-05-31T09:49:30Z</time>
      </trkpt>
      <trkpt lat="47.79759" lon="-3.42204">
        <ele>17.85</ele>
        <time>2018-05-31T09:49:43Z</time>
      </trkpt>
      <trkpt lat="47.79757" lon="-3.42235">
        <ele>17.85</ele>
        <time>2018-05-31T09:49:55Z</time>
      </trkpt>
      <trkpt lat="47.79758" lon="-3.42257">
        <ele>18.05</ele>
        <time>2018-05-31T09:50:03Z</time>
      </trkpt>
      <trkpt lat="47.79768" lon="-3.42299">
        <ele>19.45</ele>
        <time>2018-05-31T09:50:21Z</time>
      </trkpt>
      <trkpt lat="47.79792" lon="-3.42305">
        <ele>20.37</ele>
        <time>2018-05-31T09:50:35Z</time>
      </trkpt>
      <trkpt lat="47.7982" lon="-3.42309">
        <ele>21.15</ele>
        <time>2018-05-31T09:50:51Z</time>
      </trkpt>
      <trkpt lat="47.79844" lon="-3.42311">
        <ele>21.75</ele>
        <time>2018-05-31T09:51:06Z</time>
      </trkpt>
      <trkpt lat="47.79875" lon="-3.42313">
        <ele>22.94</ele>
        <time>2018-05-31T09:51:25Z</time>
      </trkpt>
      <trkpt lat="47.79908" lon="-3.42317">
        <ele>24.03</ele>
        <time>2018-05-31T09:51:45Z</time>
      </trkpt>
      <trkpt lat="47.79932" lon="-3.4232">
        <ele>23.97</ele>
        <time>2018-05-31T09:52:00Z</time>
      </trkpt>
      <trkpt lat="47.79951" lon="-3.42335">
        <ele>23.68</ele>
        <time>2018-05-31T09:52:14Z</time>
      </trkpt>
      <trkpt lat="47.79963" lon="-3.42366">
        <ele>24.72</ele>
        <time>2018-05-31T09:52:27Z</time>
      </trkpt>
      <trkpt lat="47.79978" lon="-3.42402">
        <ele>25.73</ele>
        <time>2018-05-31T09:52:43Z</time>
      </trkpt>
      <trkpt lat="47.79983" lon="-3.42413">
        <ele>26.37</ele>
        <time>2018-05-31T09:52:49Z</time>
      </trkpt>
      <trkpt lat="47.79984" lon="-3.42415">
        <ele>26.55</ele>
        <time>2018-05-31T09:52:51Z</time>
      </trkpt>
      <trkpt lat="47.79986" lon="-3.42419">
        <ele>26.91</ele>
        <time>2018-05-31T09:52:55Z</time>
      </trkpt>
      <trkpt lat="47.79989" lon="-3.42427">
        <ele>27.14</ele>
        <time>2018-05-31T09:53:01Z</time>
      </trkpt>
      <trkpt lat="47.79989" lon="-3.42433">
        <ele>27.32</ele>
        <time>2018-05-31T09:53:04Z</time>
      </trkpt>
      <trkpt lat="47.79996" lon="-3.42458">
        <ele>28.11</ele>
        <time>2018-05-31T09:53:18Z</time>
      </trkpt>
      <trkpt lat="47.79996" lon="-3.4246">
        <ele>28.2</ele>
        <time>2018-05-31T09:53:19Z</time>
      </trkpt>
      <trkpt lat="47.80007" lon="-3.42482">
        <ele>29.38</ele>
        <time>2018-05-31T09:53:35Z</time>
      </trkpt>
      <trkpt lat="47.80011" lon="-3.42481">
        <ele>29.39</ele>
        <time>2018-05-31T09:53:38Z</time>
      </trkpt>
      <trkpt lat="47.80013" lon="-3.4248">
        <ele>29.28</ele>
        <time>2018-05-31T09:53:40Z</time>
      </trkpt>
      <trkpt lat="47.80024" lon="-3.42457">
        <ele>27.35</ele>
        <time>2018-05-31T09:53:54Z</time>
      </trkpt>
      <trkpt lat="47.80024" lon="-3.42454">
        <ele>27.1</ele>
        <time>2018-05-31T09:53:56Z</time>
      </trkpt>
      <trkpt lat="47.8004" lon="-3.42449">
        <ele>24.15</ele>
        <time>2018-05-31T09:54:11Z</time>
      </trkpt>
      <trkpt lat="47.8006" lon="-3.42465">
        <ele>21.07</ele>
        <time>2018-05-31T09:54:27Z</time>
      </trkpt>
      <trkpt lat="47.8008" lon="-3.42479">
        <ele>18.66</ele>
        <time>2018-05-31T09:54:39Z</time>
      </trkpt>
      <trkpt lat="47.80104" lon="-3.42504">
        <ele>16.93</ele>
        <time>2018-05-31T09:54:54Z</time>
      </trkpt>
      <trkpt lat="47.80112" lon="-3.42516">
        <ele>17.66</ele>
        <time>2018-05-31T09:55:05Z</time>
      </trkpt>
      <trkpt lat="47.8015" lon="-3.42552">
        <ele>21.19</ele>
        <time>2018-05-31T09:55:20Z</time>
      </trkpt>
      <trkpt lat="47.80159" lon="-3.42559">
        <ele>22.22</ele>
        <time>2018-05-31T09:55:23Z</time>
      </trkpt>
      <trkpt lat="47.80189" lon="-3.42579">
        <ele>25.79</ele>
        <time>2018-05-31T09:55:34Z</time>
      </trkpt>
      <trkpt lat="47.80203" lon="-3.42587">
        <ele>27.17</ele>
        <time>2018-05-31T09:55:38Z</time>
      </trkpt>
      <trkpt lat="47.80241" lon="-3.42634">
        <ele>30.53</ele>
        <time>2018-05-31T09:55:49Z</time>
      </trkpt>
      <trkpt lat="47.80281" lon="-3.42641">
        <ele>31.81</ele>
        <time>2018-05-31T09:56:03Z</time>
      </trkpt>
      <trkpt lat="47.80311" lon="-3.42637">
        <ele>31.35</ele>
        <time>2018-05-31T09:56:18Z</time>
      </trkpt>
      <trkpt lat="47.80338" lon="-3.42649">
        <ele>30.66</ele>
        <time>2018-05-31T09:56:34Z</time>
      </trkpt>
      <trkpt lat="47.80347" lon="-3.42677">
        <ele>30.82</ele>
        <time>2018-05-31T09:56:47Z</time>
      </trkpt>
      <trkpt lat="47.80349" lon="-3.42687">
        <ele>30.99</ele>
        <time>2018-05-31T09:56:51Z</time>
      </trkpt>
      <trkpt lat="47.80349" lon="-3.42693">
        <ele>31.08</ele>
        <time>2018-05-31T09:56:53Z</time>
      </trkpt>
      <trkpt lat="47.80351" lon="-3.42709">
        <ele>31.71</ele>
        <time>2018-05-31T09:56:59Z</time>
      </trkpt>
      <trkpt lat="47.80351" lon="-3.42721">
        <ele>32.07</ele>
        <time>2018-05-31T09:57:05Z</time>
      </trkpt>
      <trkpt lat="47.80354" lon="-3.42726">
        <ele>32.14</ele>
        <time>2018-05-31T09:57:07Z</time>
      </trkpt>
      <trkpt lat="47.80373" lon="-3.42726">
        <ele>32.07</ele>
        <time>2018-05-31T09:57:19Z</time>
      </trkpt>
      <trkpt lat="47.80377" lon="-3.42725">
        <ele>31.75</ele>
        <time>2018-05-31T09:57:22Z</time>
      </trkpt>
      <trkpt lat="47.80397" lon="-3.42722">
        <ele>30.05</ele>
        <time>2018-05-31T09:57:35Z</time>
      </trkpt>
      <trkpt lat="47.80399" lon="-3.42721">
        <ele>29.69</ele>
        <time>2018-05-31T09:57:37Z</time>
      </trkpt>
      <trkpt lat="47.80406" lon="-3.42718">
        <ele>28.35</ele>
        <time>2018-05-31T09:57:43Z</time>
      </trkpt>
      <trkpt lat="47.80422" lon="-3.42716">
        <ele>27.65</ele>
        <time>2018-05-31T09:57:51Z</time>
      </trkpt>
      <trkpt lat="47.80437" lon="-3.42716">
        <ele>26.43</ele>
        <time>2018-05-31T09:57:59Z</time>
      </trkpt>
      <trkpt lat="47.80463" lon="-3.42721">
        <ele>24.18</ele>
        <time>2018-05-31T09:58:14Z</time>
      </trkpt>
      <trkpt lat="47.80471" lon="-3.4272">
        <ele>23.81</ele>
        <time>2018-05-31T09:58:18Z</time>
      </trkpt>
      <trkpt lat="47.80502" lon="-3.42719">
        <ele>22.98</ele>
        <time>2018-05-31T09:58:32Z</time>
      </trkpt>
      <trkpt lat="47.80516" lon="-3.42694">
        <ele>22.3</ele>
        <time>2018-05-31T09:58:45Z</time>
      </trkpt>
      <trkpt lat="47.80521" lon="-3.42664">
        <ele>21.19</ele>
        <time>2018-05-31T09:58:58Z</time>
      </trkpt>
      <trkpt lat="47.80536" lon="-3.42628">
        <ele>20.52</ele>
        <time>2018-05-31T09:59:14Z</time>
      </trkpt>
      <trkpt lat="47.8055" lon="-3.42584">
        <ele>21.12</ele>
        <time>2018-05-31T09:59:34Z</time>
      </trkpt>
      <trkpt lat="47.80554" lon="-3.4254">
        <ele>21.01</ele>
        <time>2018-05-31T09:59:51Z</time>
      </trkpt>
      <trkpt lat="47.80559" lon="-3.42507">
        <ele>20.23</ele>
        <time>2018-05-31T10:00:05Z</time>
      </trkpt>
      <trkpt lat="47.80566" lon="-3.42499">
        <ele>19.42</ele>
        <time>2018-05-31T10:00:11Z</time>
      </trkpt>
      <trkpt lat="47.80573" lon="-3.42482">
        <ele>16.39</ele>
        <time>2018-05-31T10:00:25Z</time>
      </trkpt>
      <trkpt lat="47.80584" lon="-3.42475">
        <ele>13.55</ele>
        <time>2018-05-31T10:00:34Z</time>
      </trkpt>
      <trkpt lat="47.80594" lon="-3.42479">
        <ele>12.91</ele>
        <time>2018-05-31T10:00:43Z</time>
      </trkpt>
      <trkpt lat="47.80596" lon="-3.42482">
        <ele>12.95</ele>
        <time>2018-05-31T10:00:44Z</time>
      </trkpt>
      <trkpt lat="47.80601" lon="-3.42488">
        <ele>13.08</ele>
        <time>2018-05-31T10:00:46Z</time>
      </trkpt>
      <trkpt lat="47.80605" lon="-3.425">
        <ele>13.45</ele>
        <time>2018-05-31T10:00:49Z</time>
      </trkpt>
      <trkpt lat="47.80611" lon="-3.42534">
        <ele>16.65</ele>
        <time>2018-05-31T10:00:59Z</time>
      </trkpt>
      <trkpt lat="47.80613" lon="-3.42558">
        <ele>19.17</ele>
        <time>2018-05-31T10:01:10Z</time>
      </trkpt>
      <trkpt lat="47.80613" lon="-3.42558">
        <ele>19.28</ele>
        <time>2018-05-31T10:01:11Z</time>
      </trkpt>
      <trkpt lat="47.80624" lon="-3.42544">
        <ele>18.79</ele>
        <time>2018-05-31T10:01:30Z</time>
      </trkpt>
      <trkpt lat="47.80635" lon="-3.42552">
        <ele>16.21</ele>
        <time>2018-05-31T10:01:43Z</time>
      </trkpt>
      <trkpt lat="47.80637" lon="-3.42581">
        <ele>14.47</ele>
        <time>2018-05-31T10:02:03Z</time>
      </trkpt>
      <trkpt lat="47.80635" lon="-3.42593">
        <ele>14.56</ele>
        <time>2018-05-31T10:02:09Z</time>
      </trkpt>
      <trkpt lat="47.80633" lon="-3.42627">
        <ele>14.91</ele>
        <time>2018-05-31T10:02:22Z</time>
      </trkpt>
      <trkpt lat="47.80637" lon="-3.42651">
        <ele>15.36</ele>
        <time>2018-05-31T10:02:34Z</time>
      </trkpt>
      <trkpt lat="47.80633" lon="-3.42684">
        <ele>16.06</ele>
        <time>2018-05-31T10:02:47Z</time>
      </trkpt>
      <trkpt lat="47.80618" lon="-3.42713">
        <ele>17.35</ele>
        <time>2018-05-31T10:03:00Z</time>
      </trkpt>
      <trkpt lat="47.80612" lon="-3.42722">
        <ele>18.12</ele>
        <time>2018-05-31T10:03:11Z</time>
      </trkpt>
      <trkpt lat="47.80603" lon="-3.42739">
        <ele>18.25</ele>
        <time>2018-05-31T10:03:29Z</time>
      </trkpt>
      <trkpt lat="47.80593" lon="-3.42743">
        <ele>18.72</ele>
        <time>2018-05-31T10:03:52Z</time>
      </trkpt>
      <trkpt lat="47.80587" lon="-3.42745">
        <ele>20.09</ele>
        <time>2018-05-31T10:04:11Z</time>
      </trkpt>
      <trkpt lat="47.80582" lon="-3.42744">
        <ele>21</ele>
        <time>2018-05-31T10:04:27Z</time>
      </trkpt>
      <trkpt lat="47.80578" lon="-3.4275">
        <ele>21.23</ele>
        <time>2018-05-31T10:04:44Z</time>
      </trkpt>
      <trkpt lat="47.80576" lon="-3.42753">
        <ele>21.26</ele>
        <time>2018-05-31T10:04:48Z</time>
      </trkpt>
      <trkpt lat="47.80571" lon="-3.42762">
        <ele>21.1</ele>
        <time>2018-05-31T10:05:07Z</time>
      </trkpt>
      <trkpt lat="47.80571" lon="-3.42762">
        <ele>20.38</ele>
        <time>2018-05-31T10:05:26Z</time>
      </trkpt>
      <trkpt lat="47.80576" lon="-3.42769">
        <ele>19.27</ele>
        <time>2018-05-31T10:05:44Z</time>
      </trkpt>
      <trkpt lat="47.80578" lon="-3.42768">
        <ele>16.95</ele>
        <time>2018-05-31T10:05:59Z</time>
      </trkpt>
      <trkpt lat="47.80577" lon="-3.42772">
        <ele>16.66</ele>
        <time>2018-05-31T10:06:16Z</time>
      </trkpt>
      <trkpt lat="47.80575" lon="-3.42781">
        <ele>17.07</ele>
        <time>2018-05-31T10:06:37Z</time>
      </trkpt>
      <trkpt lat="47.80574" lon="-3.42786">
        <ele>17.09</ele>
        <time>2018-05-31T10:07:07Z</time>
      </trkpt>
      <trkpt lat="47.80572" lon="-3.42788">
        <ele>17.33</ele>
        <time>2018-05-31T10:07:38Z</time>
      </trkpt>
      <trkpt lat="47.80571" lon="-3.42789">
        <ele>17.21</ele>
        <time>2018-05-31T10:08:02Z</time>
      </trkpt>
      <trkpt lat="47.80562" lon="-3.42806">
        <ele>17.3</ele>
        <time>2018-05-31T10:08:20Z</time>
      </trkpt>
      <trkpt lat="47.80561" lon="-3.4281">
        <ele>17.34</ele>
        <time>2018-05-31T10:08:22Z</time>
      </trkpt>
      <trkpt lat="47.8056" lon="-3.42817">
        <ele>17.31</ele>
        <time>2018-05-31T10:08:26Z</time>
      </trkpt>
      <trkpt lat="47.8056" lon="-3.42835">
        <ele>17.27</ele>
        <time>2018-05-31T10:08:39Z</time>
      </trkpt>
      <trkpt lat="47.80562" lon="-3.42851">
        <ele>17.22</ele>
        <time>2018-05-31T10:08:47Z</time>
      </trkpt>
      <trkpt lat="47.8057" lon="-3.42881">
        <ele>16.94</ele>
        <time>2018-05-31T10:09:00Z</time>
      </trkpt>
      <trkpt lat="47.80572" lon="-3.42891">
        <ele>16.83</ele>
        <time>2018-05-31T10:09:05Z</time>
      </trkpt>
      <trkpt lat="47.80572" lon="-3.42913">
        <ele>16.7</ele>
        <time>2018-05-31T10:09:13Z</time>
      </trkpt>
      <trkpt lat="47.80566" lon="-3.42943">
        <ele>16.6</ele>
        <time>2018-05-31T10:09:27Z</time>
      </trkpt>
      <trkpt lat="47.80559" lon="-3.42977">
        <ele>17.04</ele>
        <time>2018-05-31T10:09:41Z</time>
      </trkpt>
      <trkpt lat="47.80546" lon="-3.42997">
        <ele>17.77</ele>
        <time>2018-05-31T10:09:54Z</time>
      </trkpt>
      <trkpt lat="47.8053" lon="-3.43012">
        <ele>17.89</ele>
        <time>2018-05-31T10:10:08Z</time>
      </trkpt>
      <trkpt lat="47.80524" lon="-3.43019">
        <ele>17.37</ele>
        <time>2018-05-31T10:10:16Z</time>
      </trkpt>
      <trkpt lat="47.80525" lon="-3.43034">
        <ele>17.46</ele>
        <time>2018-05-31T10:10:38Z</time>
      </trkpt>
      <trkpt lat="47.80525" lon="-3.43037">
        <ele>17.41</ele>
        <time>2018-05-31T10:10:40Z</time>
      </trkpt>
      <trkpt lat="47.80524" lon="-3.4305">
        <ele>16.65</ele>
        <time>2018-05-31T10:10:54Z</time>
      </trkpt>
      <trkpt lat="47.80502" lon="-3.43053">
        <ele>16.63</ele>
        <time>2018-05-31T10:11:08Z</time>
      </trkpt>
      <trkpt lat="47.80477" lon="-3.4305">
        <ele>16.76</ele>
        <time>2018-05-31T10:11:24Z</time>
      </trkpt>
      <trkpt lat="47.80458" lon="-3.43044">
        <ele>16.59</ele>
        <time>2018-05-31T10:11:37Z</time>
      </trkpt>
      <trkpt lat="47.80454" lon="-3.43043">
        <ele>16.6</ele>
        <time>2018-05-31T10:11:41Z</time>
      </trkpt>
      <trkpt lat="47.80448" lon="-3.4305">
        <ele>16.67</ele>
        <time>2018-05-31T10:11:48Z</time>
      </trkpt>
      <trkpt lat="47.80441" lon="-3.43051">
        <ele>16.82</ele>
        <time>2018-05-31T10:11:54Z</time>
      </trkpt>
      <trkpt lat="47.80427" lon="-3.43051">
        <ele>17.09</ele>
        <time>2018-05-31T10:12:01Z</time>
      </trkpt>
      <trkpt lat="47.80415" lon="-3.43059">
        <ele>17.14</ele>
        <time>2018-05-31T10:12:06Z</time>
      </trkpt>
      <trkpt lat="47.80408" lon="-3.43065">
        <ele>17.19</ele>
        <time>2018-05-31T10:12:08Z</time>
      </trkpt>
      <trkpt lat="47.80376" lon="-3.43118">
        <ele>17.19</ele>
        <time>2018-05-31T10:12:17Z</time>
      </trkpt>
      <trkpt lat="47.80361" lon="-3.43154">
        <ele>17.54</ele>
        <time>2018-05-31T10:12:26Z</time>
      </trkpt>
      <trkpt lat="47.80355" lon="-3.43177">
        <ele>17.7</ele>
        <time>2018-05-31T10:12:30Z</time>
      </trkpt>
      <trkpt lat="47.80333" lon="-3.43226">
        <ele>17.87</ele>
        <time>2018-05-31T10:12:39Z</time>
      </trkpt>
      <trkpt lat="47.80316" lon="-3.43257">
        <ele>17.75</ele>
        <time>2018-05-31T10:12:45Z</time>
      </trkpt>
      <trkpt lat="47.80283" lon="-3.43299">
        <ele>18.35</ele>
        <time>2018-05-31T10:12:57Z</time>
      </trkpt>
      <trkpt lat="47.80273" lon="-3.4332">
        <ele>18.58</ele>
        <time>2018-05-31T10:13:07Z</time>
      </trkpt>
      <trkpt lat="47.80274" lon="-3.43333">
        <ele>18.68</ele>
        <time>2018-05-31T10:13:11Z</time>
      </trkpt>
      <trkpt lat="47.80292" lon="-3.43362">
        <ele>19.93</ele>
        <time>2018-05-31T10:13:26Z</time>
      </trkpt>
      <trkpt lat="47.80303" lon="-3.43382">
        <ele>20.57</ele>
        <time>2018-05-31T10:13:37Z</time>
      </trkpt>
      <trkpt lat="47.80298" lon="-3.43414">
        <ele>22.06</ele>
        <time>2018-05-31T10:13:52Z</time>
      </trkpt>
      <trkpt lat="47.80296" lon="-3.43425">
        <ele>22.7</ele>
        <time>2018-05-31T10:13:58Z</time>
      </trkpt>
      <trkpt lat="47.80293" lon="-3.43435">
        <ele>23.22</ele>
        <time>2018-05-31T10:14:03Z</time>
      </trkpt>
      <trkpt lat="47.80286" lon="-3.43465">
        <ele>24.53</ele>
        <time>2018-05-31T10:14:17Z</time>
      </trkpt>
      <trkpt lat="47.80287" lon="-3.43491">
        <ele>25.47</ele>
        <time>2018-05-31T10:14:33Z</time>
      </trkpt>
      <trkpt lat="47.8029" lon="-3.43495">
        <ele>25.57</ele>
        <time>2018-05-31T10:14:37Z</time>
      </trkpt>
      <trkpt lat="47.80305" lon="-3.43504">
        <ele>25.87</ele>
        <time>2018-05-31T10:14:47Z</time>
      </trkpt>
      <trkpt lat="47.80306" lon="-3.43506">
        <ele>25.89</ele>
        <time>2018-05-31T10:14:50Z</time>
      </trkpt>
      <trkpt lat="47.80307" lon="-3.43512">
        <ele>26.01</ele>
        <time>2018-05-31T10:14:54Z</time>
      </trkpt>
      <trkpt lat="47.80309" lon="-3.43526">
        <ele>26.26</ele>
        <time>2018-05-31T10:15:03Z</time>
      </trkpt>
      <trkpt lat="47.80315" lon="-3.43529">
        <ele>26.21</ele>
        <time>2018-05-31T10:15:06Z</time>
      </trkpt>
      <trkpt lat="47.80319" lon="-3.43536">
        <ele>26.32</ele>
        <time>2018-05-31T10:15:11Z</time>
      </trkpt>
      <trkpt lat="47.80337" lon="-3.43538">
        <ele>26.48</ele>
        <time>2018-05-31T10:15:25Z</time>
      </trkpt>
      <trkpt lat="47.80341" lon="-3.43539">
        <ele>26.45</ele>
        <time>2018-05-31T10:15:28Z</time>
      </trkpt>
      <trkpt lat="47.8036" lon="-3.43542">
        <ele>26.38</ele>
        <time>2018-05-31T10:15:39Z</time>
      </trkpt>
      <trkpt lat="47.80366" lon="-3.43548">
        <ele>26.27</ele>
        <time>2018-05-31T10:15:43Z</time>
      </trkpt>
      <trkpt lat="47.80369" lon="-3.43556">
        <ele>26.14</ele>
        <time>2018-05-31T10:15:49Z</time>
      </trkpt>
      <trkpt lat="47.80372" lon="-3.43582">
        <ele>26.54</ele>
        <time>2018-05-31T10:16:02Z</time>
      </trkpt>
      <trkpt lat="47.80375" lon="-3.43593">
        <ele>26.75</ele>
        <time>2018-05-31T10:16:09Z</time>
      </trkpt>
      <trkpt lat="47.80377" lon="-3.43597">
        <ele>26.8</ele>
        <time>2018-05-31T10:16:11Z</time>
      </trkpt>
      <trkpt lat="47.80381" lon="-3.43606">
        <ele>26.96</ele>
        <time>2018-05-31T10:16:15Z</time>
      </trkpt>
      <trkpt lat="47.80382" lon="-3.43603">
        <ele>27.16</ele>
        <time>2018-05-31T10:16:20Z</time>
      </trkpt>
      <trkpt lat="47.80412" lon="-3.43606">
        <ele>26.56</ele>
        <time>2018-05-31T10:16:37Z</time>
      </trkpt>
      <trkpt lat="47.80435" lon="-3.43616">
        <ele>25.63</ele>
        <time>2018-05-31T10:16:53Z</time>
      </trkpt>
      <trkpt lat="47.80454" lon="-3.43624">
        <ele>25.19</ele>
        <time>2018-05-31T10:17:08Z</time>
      </trkpt>
      <trkpt lat="47.80472" lon="-3.43631">
        <ele>24.53</ele>
        <time>2018-05-31T10:17:24Z</time>
      </trkpt>
      <trkpt lat="47.80473" lon="-3.43631">
        <ele>24.47</ele>
        <time>2018-05-31T10:17:25Z</time>
      </trkpt>
      <trkpt lat="47.80492" lon="-3.43636">
        <ele>23.5</ele>
        <time>2018-05-31T10:17:38Z</time>
      </trkpt>
      <trkpt lat="47.80518" lon="-3.43647">
        <ele>23</ele>
        <time>2018-05-31T10:17:53Z</time>
      </trkpt>
      <trkpt lat="47.80521" lon="-3.43657">
        <ele>22.99</ele>
        <time>2018-05-31T10:17:58Z</time>
      </trkpt>
      <trkpt lat="47.80542" lon="-3.4369">
        <ele>7.7</ele>
        <time>2018-05-31T11:10:45Z</time>
      </trkpt>
      <trkpt lat="47.80548" lon="-3.43673">
        <ele>7.48</ele>
        <time>2018-05-31T11:11:04Z</time>
      </trkpt>
      <trkpt lat="47.80548" lon="-3.43672">
        <ele>7.48</ele>
        <time>2018-05-31T11:11:05Z</time>
      </trkpt>
      <trkpt lat="47.80547" lon="-3.43666">
        <ele>7.47</ele>
        <time>2018-05-31T11:11:12Z</time>
      </trkpt>
      <trkpt lat="47.80548" lon="-3.43661">
        <ele>8.08</ele>
        <time>2018-05-31T11:11:38Z</time>
      </trkpt>
      <trkpt lat="47.8055" lon="-3.43667">
        <ele>7.87</ele>
        <time>2018-05-31T11:11:51Z</time>
      </trkpt>
      <trkpt lat="47.80554" lon="-3.43664">
        <ele>8.27</ele>
        <time>2018-05-31T11:12:17Z</time>
      </trkpt>
      <trkpt lat="47.8055" lon="-3.43661">
        <ele>7.94</ele>
        <time>2018-05-31T11:12:44Z</time>
      </trkpt>
      <trkpt lat="47.80549" lon="-3.43666">
        <ele>8.15</ele>
        <time>2018-05-31T11:13:15Z</time>
      </trkpt>
      <trkpt lat="47.80548" lon="-3.43663">
        <ele>8.13</ele>
        <time>2018-05-31T11:13:40Z</time>
      </trkpt>
      <trkpt lat="47.80558" lon="-3.43648">
        <ele>8</ele>
        <time>2018-05-31T11:14:02Z</time>
      </trkpt>
      <trkpt lat="47.80573" lon="-3.43619">
        <ele>8.37</ele>
        <time>2018-05-31T11:14:25Z</time>
      </trkpt>
      <trkpt lat="47.8059" lon="-3.43588">
        <ele>7.87</ele>
        <time>2018-05-31T11:14:44Z</time>
      </trkpt>
      <trkpt lat="47.80605" lon="-3.43559">
        <ele>6.96</ele>
        <time>2018-05-31T11:15:04Z</time>
      </trkpt>
      <trkpt lat="47.80623" lon="-3.43542">
        <ele>6.27</ele>
        <time>2018-05-31T11:15:23Z</time>
      </trkpt>
      <trkpt lat="47.80648" lon="-3.4352">
        <ele>5.27</ele>
        <time>2018-05-31T11:15:43Z</time>
      </trkpt>
      <trkpt lat="47.80669" lon="-3.43497">
        <ele>4.85</ele>
        <time>2018-05-31T11:16:01Z</time>
      </trkpt>
      <trkpt lat="47.80686" lon="-3.43479">
        <ele>4.73</ele>
        <time>2018-05-31T11:16:18Z</time>
      </trkpt>
      <trkpt lat="47.80705" lon="-3.43458">
        <ele>4.36</ele>
        <time>2018-05-31T11:16:41Z</time>
      </trkpt>
      <trkpt lat="47.80707" lon="-3.43458">
        <ele>4.32</ele>
        <time>2018-05-31T11:16:43Z</time>
      </trkpt>
      <trkpt lat="47.80712" lon="-3.43455">
        <ele>4.25</ele>
        <time>2018-05-31T11:16:45Z</time>
      </trkpt>
      <trkpt lat="47.8072" lon="-3.43448">
        <ele>4.05</ele>
        <time>2018-05-31T11:16:49Z</time>
      </trkpt>
      <trkpt lat="47.80737" lon="-3.43435">
        <ele>4.31</ele>
        <time>2018-05-31T11:16:59Z</time>
      </trkpt>
      <trkpt lat="47.80754" lon="-3.43414">
        <ele>4.02</ele>
        <time>2018-05-31T11:21:00Z</time>
      </trkpt>
      <trkpt lat="47.80767" lon="-3.43401">
        <ele>4.68</ele>
        <time>2018-05-31T11:21:13Z</time>
      </trkpt>
      <trkpt lat="47.80775" lon="-3.43385">
        <ele>5.37</ele>
        <time>2018-05-31T11:21:24Z</time>
      </trkpt>
      <trkpt lat="47.80781" lon="-3.43368">
        <ele>6.49</ele>
        <time>2018-05-31T11:21:36Z</time>
      </trkpt>
      <trkpt lat="47.80794" lon="-3.43337">
        <ele>7.33</ele>
        <time>2018-05-31T11:21:52Z</time>
      </trkpt>
      <trkpt lat="47.80803" lon="-3.43303">
        <ele>7.84</ele>
        <time>2018-05-31T11:22:05Z</time>
      </trkpt>
      <trkpt lat="47.80812" lon="-3.43275">
        <ele>8.72</ele>
        <time>2018-05-31T11:22:19Z</time>
      </trkpt>
      <trkpt lat="47.80813" lon="-3.43271">
        <ele>8.82</ele>
        <time>2018-05-31T11:22:21Z</time>
      </trkpt>
      <trkpt lat="47.80822" lon="-3.4325">
        <ele>9.39</ele>
        <time>2018-05-31T11:22:32Z</time>
      </trkpt>
      <trkpt lat="47.80836" lon="-3.43225">
        <ele>9.51</ele>
        <time>2018-05-31T11:22:45Z</time>
      </trkpt>
      <trkpt lat="47.80854" lon="-3.43199">
        <ele>9.12</ele>
        <time>2018-05-31T11:22:59Z</time>
      </trkpt>
      <trkpt lat="47.80879" lon="-3.43177">
        <ele>7.76</ele>
        <time>2018-05-31T11:23:15Z</time>
      </trkpt>
      <trkpt lat="47.80895" lon="-3.43167">
        <ele>6.48</ele>
        <time>2018-05-31T11:23:28Z</time>
      </trkpt>
      <trkpt lat="47.80914" lon="-3.43154">
        <ele>5.17</ele>
        <time>2018-05-31T11:23:44Z</time>
      </trkpt>
      <trkpt lat="47.8093" lon="-3.43142">
        <ele>4.73</ele>
        <time>2018-05-31T11:23:56Z</time>
      </trkpt>
      <trkpt lat="47.80948" lon="-3.43123">
        <ele>4.35</ele>
        <time>2018-05-31T11:24:11Z</time>
      </trkpt>
      <trkpt lat="47.80961" lon="-3.43102">
        <ele>4.08</ele>
        <time>2018-05-31T11:24:23Z</time>
      </trkpt>
      <trkpt lat="47.80968" lon="-3.43077">
        <ele>4.25</ele>
        <time>2018-05-31T11:24:37Z</time>
      </trkpt>
      <trkpt lat="47.8097" lon="-3.43072">
        <ele>4.24</ele>
        <time>2018-05-31T11:24:39Z</time>
      </trkpt>
      <trkpt lat="47.80976" lon="-3.43045">
        <ele>4.3</ele>
        <time>2018-05-31T11:24:49Z</time>
      </trkpt>
      <trkpt lat="47.80975" lon="-3.43036">
        <ele>4.39</ele>
        <time>2018-05-31T11:24:53Z</time>
      </trkpt>
      <trkpt lat="47.80979" lon="-3.43026">
        <ele>4.37</ele>
        <time>2018-05-31T11:24:58Z</time>
      </trkpt>
      <trkpt lat="47.80983" lon="-3.43">
        <ele>4.34</ele>
        <time>2018-05-31T11:25:10Z</time>
      </trkpt>
      <trkpt lat="47.80989" lon="-3.42956">
        <ele>4.01</ele>
        <time>2018-05-31T11:25:26Z</time>
      </trkpt>
      <trkpt lat="47.80988" lon="-3.42929">
        <ele>3.59</ele>
        <time>2018-05-31T11:25:38Z</time>
      </trkpt>
      <trkpt lat="47.80992" lon="-3.42891">
        <ele>2.36</ele>
        <time>2018-05-31T11:25:53Z</time>
      </trkpt>
      <trkpt lat="47.81003" lon="-3.42851">
        <ele>0.59</ele>
        <time>2018-05-31T11:26:10Z</time>
      </trkpt>
      <trkpt lat="47.81012" lon="-3.42817">
        <ele>-0.15</ele>
        <time>2018-05-31T11:26:24Z</time>
      </trkpt>
      <trkpt lat="47.81014" lon="-3.42806">
        <ele>-0.21</ele>
        <time>2018-05-31T11:26:29Z</time>
      </trkpt>
      <trkpt lat="47.81018" lon="-3.42798">
        <ele>-0.21</ele>
        <time>2018-05-31T11:26:33Z</time>
      </trkpt>
      <trkpt lat="47.81029" lon="-3.42766">
        <ele>-0.48</ele>
        <time>2018-05-31T11:26:49Z</time>
      </trkpt>
      <trkpt lat="47.8103" lon="-3.42765">
        <ele>-0.52</ele>
        <time>2018-05-31T11:26:50Z</time>
      </trkpt>
      <trkpt lat="47.8103" lon="-3.42755">
        <ele>-0.68</ele>
        <time>2018-05-31T11:26:56Z</time>
      </trkpt>
      <trkpt lat="47.81019" lon="-3.42746">
        <ele>-1.49</ele>
        <time>2018-05-31T11:27:10Z</time>
      </trkpt>
      <trkpt lat="47.81006" lon="-3.42737">
        <ele>-2.14</ele>
        <time>2018-05-31T11:27:23Z</time>
      </trkpt>
      <trkpt lat="47.80983" lon="-3.42714">
        <ele>-2.25</ele>
        <time>2018-05-31T11:27:43Z</time>
      </trkpt>
      <trkpt lat="47.80962" lon="-3.42695">
        <ele>-2.38</ele>
        <time>2018-05-31T11:28:00Z</time>
      </trkpt>
      <trkpt lat="47.80939" lon="-3.42669">
        <ele>-2.02</ele>
        <time>2018-05-31T11:28:17Z</time>
      </trkpt>
      <trkpt lat="47.809" lon="-3.42633">
        <ele>-2.59</ele>
        <time>2018-05-31T11:28:42Z</time>
      </trkpt>
      <trkpt lat="47.80887" lon="-3.4261">
        <ele>-3.66</ele>
        <time>2018-05-31T11:28:55Z</time>
      </trkpt>
      <trkpt lat="47.8088" lon="-3.42594">
        <ele>-3.97</ele>
        <time>2018-05-31T11:29:03Z</time>
      </trkpt>
      <trkpt lat="47.80861" lon="-3.42557">
        <ele>-3.49</ele>
        <time>2018-05-31T11:29:21Z</time>
      </trkpt>
      <trkpt lat="47.80848" lon="-3.42511">
        <ele>-5.09</ele>
        <time>2018-05-31T11:29:42Z</time>
      </trkpt>
      <trkpt lat="47.80847" lon="-3.42499">
        <ele>-4.51</ele>
        <time>2018-05-31T11:29:50Z</time>
      </trkpt>
      <trkpt lat="47.80842" lon="-3.42474">
        <ele>-5.64</ele>
        <time>2018-05-31T11:30:11Z</time>
      </trkpt>
      <trkpt lat="47.80844" lon="-3.42432">
        <ele>-7.24</ele>
        <time>2018-05-31T11:30:34Z</time>
      </trkpt>
      <trkpt lat="47.80847" lon="-3.42423">
        <ele>-7.58</ele>
        <time>2018-05-31T11:30:39Z</time>
      </trkpt>
      <trkpt lat="47.80853" lon="-3.42384">
        <ele>-7.51</ele>
        <time>2018-05-31T11:30:55Z</time>
      </trkpt>
      <trkpt lat="47.80861" lon="-3.42353">
        <ele>-8.69</ele>
        <time>2018-05-31T11:31:12Z</time>
      </trkpt>
      <trkpt lat="47.80861" lon="-3.42341">
        <ele>-8.92</ele>
        <time>2018-05-31T11:31:16Z</time>
      </trkpt>
      <trkpt lat="47.80867" lon="-3.42292">
        <ele>-9.52</ele>
        <time>2018-05-31T11:31:36Z</time>
      </trkpt>
      <trkpt lat="47.80872" lon="-3.42255">
        <ele>-10.16</ele>
        <time>2018-05-31T11:31:50Z</time>
      </trkpt>
      <trkpt lat="47.80874" lon="-3.42248">
        <ele>-10.27</ele>
        <time>2018-05-31T11:31:54Z</time>
      </trkpt>
      <trkpt lat="47.8088" lon="-3.42235">
        <ele>-10.42</ele>
        <time>2018-05-31T11:31:59Z</time>
      </trkpt>
      <trkpt lat="47.80885" lon="-3.4223">
        <ele>-10.47</ele>
        <time>2018-05-31T11:32:04Z</time>
      </trkpt>
      <trkpt lat="47.80889" lon="-3.42222">
        <ele>-10.38</ele>
        <time>2018-05-31T11:32:09Z</time>
      </trkpt>
      <trkpt lat="47.80892" lon="-3.42218">
        <ele>-10.41</ele>
        <time>2018-05-31T11:32:11Z</time>
      </trkpt>
      <trkpt lat="47.80903" lon="-3.42192">
        <ele>-10.86</ele>
        <time>2018-05-31T11:32:24Z</time>
      </trkpt>
      <trkpt lat="47.80931" lon="-3.42156">
        <ele>-10.88</ele>
        <time>2018-05-31T11:32:44Z</time>
      </trkpt>
      <trkpt lat="47.80937" lon="-3.4215">
        <ele>-11.01</ele>
        <time>2018-05-31T11:32:48Z</time>
      </trkpt>
      <trkpt lat="47.80958" lon="-3.42146">
        <ele>-11.06</ele>
        <time>2018-05-31T11:33:04Z</time>
      </trkpt>
      <trkpt lat="47.80963" lon="-3.42139">
        <ele>-9.74</ele>
        <time>2018-05-31T11:33:16Z</time>
      </trkpt>
      <trkpt lat="47.80965" lon="-3.42132">
        <ele>-10.21</ele>
        <time>2018-05-31T11:33:19Z</time>
      </trkpt>
      <trkpt lat="47.8097" lon="-3.42125">
        <ele>-10.56</ele>
        <time>2018-05-31T11:33:24Z</time>
      </trkpt>
      <trkpt lat="47.80978" lon="-3.42118">
        <ele>-10.55</ele>
        <time>2018-05-31T11:33:30Z</time>
      </trkpt>
      <trkpt lat="47.80984" lon="-3.42107">
        <ele>-10.35</ele>
        <time>2018-05-31T11:33:37Z</time>
      </trkpt>
      <trkpt lat="47.80992" lon="-3.42089">
        <ele>-10.31</ele>
        <time>2018-05-31T11:33:48Z</time>
      </trkpt>
      <trkpt lat="47.80996" lon="-3.42078">
        <ele>-10.6</ele>
        <time>2018-05-31T11:33:54Z</time>
      </trkpt>
      <trkpt lat="47.81001" lon="-3.42062">
        <ele>-10.8</ele>
        <time>2018-05-31T11:34:03Z</time>
      </trkpt>
      <trkpt lat="47.81009" lon="-3.42038">
        <ele>-10.82</ele>
        <time>2018-05-31T11:34:14Z</time>
      </trkpt>
      <trkpt lat="47.8101" lon="-3.42035">
        <ele>-10.82</ele>
        <time>2018-05-31T11:34:15Z</time>
      </trkpt>
      <trkpt lat="47.81012" lon="-3.42024">
        <ele>-10.95</ele>
        <time>2018-05-31T11:34:19Z</time>
      </trkpt>
      <trkpt lat="47.81013" lon="-3.42013">
        <ele>-11.01</ele>
        <time>2018-05-31T11:34:23Z</time>
      </trkpt>
      <trkpt lat="47.81016" lon="-3.42">
        <ele>-10.8</ele>
        <time>2018-05-31T11:34:28Z</time>
      </trkpt>
      <trkpt lat="47.81017" lon="-3.41991">
        <ele>-10.73</ele>
        <time>2018-05-31T11:34:34Z</time>
      </trkpt>
      <trkpt lat="47.8102" lon="-3.41987">
        <ele>-10.89</ele>
        <time>2018-05-31T11:34:37Z</time>
      </trkpt>
      <trkpt lat="47.81024" lon="-3.41976">
        <ele>-11.14</ele>
        <time>2018-05-31T11:34:45Z</time>
      </trkpt>
      <trkpt lat="47.81027" lon="-3.4196">
        <ele>-11.17</ele>
        <time>2018-05-31T11:34:52Z</time>
      </trkpt>
      <trkpt lat="47.81027" lon="-3.41955">
        <ele>-11.21</ele>
        <time>2018-05-31T11:34:54Z</time>
      </trkpt>
      <trkpt lat="47.81029" lon="-3.41952">
        <ele>-11.18</ele>
        <time>2018-05-31T11:34:56Z</time>
      </trkpt>
      <trkpt lat="47.81036" lon="-3.41941">
        <ele>-11.03</ele>
        <time>2018-05-31T11:35:02Z</time>
      </trkpt>
      <trkpt lat="47.81038" lon="-3.41936">
        <ele>-11.17</ele>
        <time>2018-05-31T11:35:06Z</time>
      </trkpt>
      <trkpt lat="47.81046" lon="-3.41915">
        <ele>-12.58</ele>
        <time>2018-05-31T11:35:16Z</time>
      </trkpt>
      <trkpt lat="47.81051" lon="-3.41907">
        <ele>-14.12</ele>
        <time>2018-05-31T11:35:23Z</time>
      </trkpt>
      <trkpt lat="47.81065" lon="-3.41858">
        <ele>-16.22</ele>
        <time>2018-05-31T11:35:40Z</time>
      </trkpt>
      <trkpt lat="47.81075" lon="-3.41849">
        <ele>-17.42</ele>
        <time>2018-05-31T11:36:00Z</time>
      </trkpt>
      <trkpt lat="47.81073" lon="-3.41838">
        <ele>-17.7</ele>
        <time>2018-05-31T11:36:23Z</time>
      </trkpt>
      <trkpt lat="47.8109" lon="-3.41835">
        <ele>-16.84</ele>
        <time>2018-05-31T11:36:34Z</time>
      </trkpt>
      <trkpt lat="47.81128" lon="-3.41819">
        <ele>-17.03</ele>
        <time>2018-05-31T11:36:54Z</time>
      </trkpt>
      <trkpt lat="47.81146" lon="-3.41818">
        <ele>-17.31</ele>
        <time>2018-05-31T11:37:06Z</time>
      </trkpt>
      <trkpt lat="47.81166" lon="-3.41814">
        <ele>-17.32</ele>
        <time>2018-05-31T11:37:18Z</time>
      </trkpt>
      <trkpt lat="47.81168" lon="-3.41813">
        <ele>-17.39</ele>
        <time>2018-05-31T11:37:20Z</time>
      </trkpt>
      <trkpt lat="47.81188" lon="-3.41814">
        <ele>-17.2</ele>
        <time>2018-05-31T11:37:32Z</time>
      </trkpt>
      <trkpt lat="47.81203" lon="-3.41822">
        <ele>-16.6</ele>
        <time>2018-05-31T11:37:43Z</time>
      </trkpt>
      <trkpt lat="47.81208" lon="-3.41826">
        <ele>-16.69</ele>
        <time>2018-05-31T11:37:47Z</time>
      </trkpt>
      <trkpt lat="47.81211" lon="-3.41827">
        <ele>-16.97</ele>
        <time>2018-05-31T11:37:49Z</time>
      </trkpt>
      <trkpt lat="47.81218" lon="-3.41835">
        <ele>-17.85</ele>
        <time>2018-05-31T11:37:56Z</time>
      </trkpt>
      <trkpt lat="47.81229" lon="-3.41854">
        <ele>-19.76</ele>
        <time>2018-05-31T11:38:08Z</time>
      </trkpt>
      <trkpt lat="47.81241" lon="-3.41865">
        <ele>-20.98</ele>
        <time>2018-05-31T11:38:21Z</time>
      </trkpt>
      <trkpt lat="47.81251" lon="-3.41873">
        <ele>-21.34</ele>
        <time>2018-05-31T11:38:32Z</time>
      </trkpt>
      <trkpt lat="47.81264" lon="-3.41887">
        <ele>-21.53</ele>
        <time>2018-05-31T11:38:45Z</time>
      </trkpt>
      <trkpt lat="47.81289" lon="-3.41908">
        <ele>-21.57</ele>
        <time>2018-05-31T11:39:04Z</time>
      </trkpt>
      <trkpt lat="47.81307" lon="-3.41932">
        <ele>-21.74</ele>
        <time>2018-05-31T11:39:21Z</time>
      </trkpt>
      <trkpt lat="47.81341" lon="-3.41962">
        <ele>-21.53</ele>
        <time>2018-05-31T11:39:43Z</time>
      </trkpt>
      <trkpt lat="47.81361" lon="-3.41978">
        <ele>-21.43</ele>
        <time>2018-05-31T11:39:52Z</time>
      </trkpt>
      <trkpt lat="47.81376" lon="-3.41995">
        <ele>-21.4</ele>
        <time>2018-05-31T11:40:01Z</time>
      </trkpt>
      <trkpt lat="47.81384" lon="-3.41999">
        <ele>-21.28</ele>
        <time>2018-05-31T11:40:07Z</time>
      </trkpt>
      <trkpt lat="47.81395" lon="-3.42012">
        <ele>-20.96</ele>
        <time>2018-05-31T11:40:15Z</time>
      </trkpt>
      <trkpt lat="47.81399" lon="-3.42017">
        <ele>-20.89</ele>
        <time>2018-05-31T11:40:18Z</time>
      </trkpt>
      <trkpt lat="47.81408" lon="-3.42034">
        <ele>-20.49</ele>
        <time>2018-05-31T11:40:26Z</time>
      </trkpt>
      <trkpt lat="47.8141" lon="-3.42043">
        <ele>-20.33</ele>
        <time>2018-05-31T11:40:30Z</time>
      </trkpt>
      <trkpt lat="47.81417" lon="-3.42061">
        <ele>-19.65</ele>
        <time>2018-05-31T11:40:40Z</time>
      </trkpt>
      <trkpt lat="47.81423" lon="-3.4209">
        <ele>-18.7</ele>
        <time>2018-05-31T11:40:52Z</time>
      </trkpt>
      <trkpt lat="47.81428" lon="-3.42102">
        <ele>-18.11</ele>
        <time>2018-05-31T11:40:57Z</time>
      </trkpt>
      <trkpt lat="47.81441" lon="-3.42117">
        <ele>-15.97</ele>
        <time>2018-05-31T11:41:08Z</time>
      </trkpt>
      <trkpt lat="47.81467" lon="-3.42112">
        <ele>-16.97</ele>
        <time>2018-05-31T11:41:21Z</time>
      </trkpt>
      <trkpt lat="47.8149" lon="-3.42122">
        <ele>-18.25</ele>
        <time>2018-05-31T11:41:35Z</time>
      </trkpt>
      <trkpt lat="47.81492" lon="-3.42123">
        <ele>-18.28</ele>
        <time>2018-05-31T11:41:36Z</time>
      </trkpt>
      <trkpt lat="47.81493" lon="-3.42124">
        <ele>-18.31</ele>
        <time>2018-05-31T11:41:37Z</time>
      </trkpt>
      <trkpt lat="47.81494" lon="-3.42125">
        <ele>-18.33</ele>
        <time>2018-05-31T11:41:38Z</time>
      </trkpt>
      <trkpt lat="47.81495" lon="-3.42127">
        <ele>-18.34</ele>
        <time>2018-05-31T11:41:39Z</time>
      </trkpt>
      <trkpt lat="47.81497" lon="-3.42128">
        <ele>-18.35</ele>
        <time>2018-05-31T11:41:40Z</time>
      </trkpt>
      <trkpt lat="47.81498" lon="-3.42129">
        <ele>-18.35</ele>
        <time>2018-05-31T11:41:41Z</time>
      </trkpt>
      <trkpt lat="47.815" lon="-3.4213">
        <ele>-18.34</ele>
        <time>2018-05-31T11:41:42Z</time>
      </trkpt>
      <trkpt lat="47.81507" lon="-3.42143">
        <ele>-17.76</ele>
        <time>2018-05-31T11:41:52Z</time>
      </trkpt>
      <trkpt lat="47.81526" lon="-3.42168">
        <ele>-17.35</ele>
        <time>2018-05-31T11:42:08Z</time>
      </trkpt>
      <trkpt lat="47.81526" lon="-3.4217">
        <ele>-17.4</ele>
        <time>2018-05-31T11:42:09Z</time>
      </trkpt>
      <trkpt lat="47.81533" lon="-3.42189">
        <ele>-17.36</ele>
        <time>2018-05-31T11:42:20Z</time>
      </trkpt>
      <trkpt lat="47.81547" lon="-3.4222">
        <ele>-16.95</ele>
        <time>2018-05-31T11:42:34Z</time>
      </trkpt>
      <trkpt lat="47.8155" lon="-3.42223">
        <ele>-16.88</ele>
        <time>2018-05-31T11:42:36Z</time>
      </trkpt>
      <trkpt lat="47.81559" lon="-3.42243">
        <ele>-16.65</ele>
        <time>2018-05-31T11:42:47Z</time>
      </trkpt>
      <trkpt lat="47.81559" lon="-3.42245">
        <ele>-16.67</ele>
        <time>2018-05-31T11:42:48Z</time>
      </trkpt>
      <trkpt lat="47.81563" lon="-3.42255">
        <ele>-16.8</ele>
        <time>2018-05-31T11:42:53Z</time>
      </trkpt>
      <trkpt lat="47.81569" lon="-3.42273">
        <ele>-16.67</ele>
        <time>2018-05-31T11:43:03Z</time>
      </trkpt>
      <trkpt lat="47.81573" lon="-3.42278">
        <ele>-16.62</ele>
        <time>2018-05-31T11:43:06Z</time>
      </trkpt>
      <trkpt lat="47.81584" lon="-3.42303">
        <ele>-17.23</ele>
        <time>2018-05-31T11:43:19Z</time>
      </trkpt>
      <trkpt lat="47.81599" lon="-3.42329">
        <ele>-17.79</ele>
        <time>2018-05-31T11:43:31Z</time>
      </trkpt>
      <trkpt lat="47.81604" lon="-3.42344">
        <ele>-17.82</ele>
        <time>2018-05-31T11:43:39Z</time>
      </trkpt>
      <trkpt lat="47.81605" lon="-3.42348">
        <ele>-17.84</ele>
        <time>2018-05-31T11:43:41Z</time>
      </trkpt>
      <trkpt lat="47.81613" lon="-3.42372">
        <ele>-17.84</ele>
        <time>2018-05-31T11:43:52Z</time>
      </trkpt>
      <trkpt lat="47.8162" lon="-3.42403">
        <ele>-17.43</ele>
        <time>2018-05-31T11:44:06Z</time>
      </trkpt>
      <trkpt lat="47.8163" lon="-3.42428">
        <ele>-17.97</ele>
        <time>2018-05-31T11:44:19Z</time>
      </trkpt>
      <trkpt lat="47.81646" lon="-3.42463">
        <ele>-18.48</ele>
        <time>2018-05-31T11:44:39Z</time>
      </trkpt>
      <trkpt lat="47.81656" lon="-3.42484">
        <ele>-18.54</ele>
        <time>2018-05-31T11:44:50Z</time>
      </trkpt>
      <trkpt lat="47.81662" lon="-3.42497">
        <ele>-18.26</ele>
        <time>2018-05-31T11:44:56Z</time>
      </trkpt>
      <trkpt lat="47.81664" lon="-3.42503">
        <ele>-18.12</ele>
        <time>2018-05-31T11:44:59Z</time>
      </trkpt>
      <trkpt lat="47.81664" lon="-3.42507">
        <ele>-18.03</ele>
        <time>2018-05-31T11:45:01Z</time>
      </trkpt>
      <trkpt lat="47.81664" lon="-3.42512">
        <ele>-17.85</ele>
        <time>2018-05-31T11:45:04Z</time>
      </trkpt>
      <trkpt lat="47.81667" lon="-3.42519">
        <ele>-17.79</ele>
        <time>2018-05-31T11:45:08Z</time>
      </trkpt>
      <trkpt lat="47.81675" lon="-3.42531">
        <ele>-18.74</ele>
        <time>2018-05-31T11:45:18Z</time>
      </trkpt>
      <trkpt lat="47.81677" lon="-3.42534">
        <ele>-18.94</ele>
        <time>2018-05-31T11:45:21Z</time>
      </trkpt>
      <trkpt lat="47.81678" lon="-3.4254">
        <ele>-19.18</ele>
        <time>2018-05-31T11:45:41Z</time>
      </trkpt>
      <trkpt lat="47.81687" lon="-3.42545">
        <ele>-18.81</ele>
        <time>2018-05-31T11:46:05Z</time>
      </trkpt>
      <trkpt lat="47.81686" lon="-3.42544">
        <ele>-18.82</ele>
        <time>2018-05-31T11:46:08Z</time>
      </trkpt>
      <trkpt lat="47.81682" lon="-3.42542">
        <ele>-18.8</ele>
        <time>2018-05-31T11:46:33Z</time>
      </trkpt>
      <trkpt lat="47.81686" lon="-3.42541">
        <ele>-19.15</ele>
        <time>2018-05-31T11:47:01Z</time>
      </trkpt>
      <trkpt lat="47.81696" lon="-3.42549">
        <ele>-20.02</ele>
        <time>2018-05-31T11:47:19Z</time>
      </trkpt>
      <trkpt lat="47.81697" lon="-3.4255">
        <ele>-19.82</ele>
        <time>2018-05-31T11:47:35Z</time>
      </trkpt>
      <trkpt lat="47.81696" lon="-3.4255">
        <ele>-19.81</ele>
        <time>2018-05-31T11:47:36Z</time>
      </trkpt>
      <trkpt lat="47.81695" lon="-3.42557">
        <ele>-19.43</ele>
        <time>2018-05-31T11:47:56Z</time>
      </trkpt>
      <trkpt lat="47.81705" lon="-3.42569">
        <ele>-19.15</ele>
        <time>2018-05-31T11:48:14Z</time>
      </trkpt>
      <trkpt lat="47.81708" lon="-3.42572">
        <ele>-19.15</ele>
        <time>2018-05-31T11:48:17Z</time>
      </trkpt>
      <trkpt lat="47.81714" lon="-3.42576">
        <ele>-19.28</ele>
        <time>2018-05-31T11:48:24Z</time>
      </trkpt>
      <trkpt lat="47.81716" lon="-3.42581">
        <ele>-19.28</ele>
        <time>2018-05-31T11:48:32Z</time>
      </trkpt>
      <trkpt lat="47.81719" lon="-3.42583">
        <ele>-19.26</ele>
        <time>2018-05-31T11:48:35Z</time>
      </trkpt>
      <trkpt lat="47.8172" lon="-3.42584">
        <ele>-19.29</ele>
        <time>2018-05-31T11:48:37Z</time>
      </trkpt>
      <trkpt lat="47.81724" lon="-3.42587">
        <ele>-19.25</ele>
        <time>2018-05-31T11:48:45Z</time>
      </trkpt>
      <trkpt lat="47.81727" lon="-3.42595">
        <ele>-19.31</ele>
        <time>2018-05-31T11:49:15Z</time>
      </trkpt>
      <trkpt lat="47.81728" lon="-3.426">
        <ele>-19.17</ele>
        <time>2018-05-31T11:49:27Z</time>
      </trkpt>
      <trkpt lat="47.8173" lon="-3.426">
        <ele>-19.15</ele>
        <time>2018-05-31T11:49:29Z</time>
      </trkpt>
      <trkpt lat="47.81731" lon="-3.42599">
        <ele>-19.13</ele>
        <time>2018-05-31T11:49:59Z</time>
      </trkpt>
      <trkpt lat="47.81731" lon="-3.426">
        <ele>-19.09</ele>
        <time>2018-05-31T11:50:04Z</time>
      </trkpt>
      <trkpt lat="47.81734" lon="-3.42607">
        <ele>-19.29</ele>
        <time>2018-05-31T11:50:31Z</time>
      </trkpt>
      <trkpt lat="47.81738" lon="-3.42625">
        <ele>-19.48</ele>
        <time>2018-05-31T11:50:43Z</time>
      </trkpt>
      <trkpt lat="47.81748" lon="-3.42667">
        <ele>-19.41</ele>
        <time>2018-05-31T11:51:02Z</time>
      </trkpt>
      <trkpt lat="47.81749" lon="-3.42677">
        <ele>-19.43</ele>
        <time>2018-05-31T11:51:06Z</time>
      </trkpt>
      <trkpt lat="47.81754" lon="-3.42693">
        <ele>-19.41</ele>
        <time>2018-05-31T11:51:13Z</time>
      </trkpt>
      <trkpt lat="47.81755" lon="-3.42696">
        <ele>-19.35</ele>
        <time>2018-05-31T11:51:16Z</time>
      </trkpt>
      <trkpt lat="47.81754" lon="-3.42722">
        <ele>-19.05</ele>
        <time>2018-05-31T11:51:28Z</time>
      </trkpt>
      <trkpt lat="47.81751" lon="-3.42731">
        <ele>-19.09</ele>
        <time>2018-05-31T11:51:32Z</time>
      </trkpt>
      <trkpt lat="47.8175" lon="-3.42742">
        <ele>-19.04</ele>
        <time>2018-05-31T11:51:37Z</time>
      </trkpt>
      <trkpt lat="47.81755" lon="-3.42755">
        <ele>-19.3</ele>
        <time>2018-05-31T11:51:51Z</time>
      </trkpt>
      <trkpt lat="47.8175" lon="-3.42783">
        <ele>-20.02</ele>
        <time>2018-05-31T11:52:09Z</time>
      </trkpt>
      <trkpt lat="47.81746" lon="-3.42795">
        <ele>-18.9</ele>
        <time>2018-05-31T11:52:24Z</time>
      </trkpt>
      <trkpt lat="47.81742" lon="-3.42795">
        <ele>-18.14</ele>
        <time>2018-05-31T11:52:42Z</time>
      </trkpt>
      <trkpt lat="47.81741" lon="-3.42794">
        <ele>-18.26</ele>
        <time>2018-05-31T11:53:06Z</time>
      </trkpt>
      <trkpt lat="47.81733" lon="-3.42795">
        <ele>-15.4</ele>
        <time>2018-05-31T11:53:24Z</time>
      </trkpt>
      <trkpt lat="47.81729" lon="-3.42799">
        <ele>-12.24</ele>
        <time>2018-05-31T11:53:36Z</time>
      </trkpt>
      <trkpt lat="47.81729" lon="-3.428">
        <ele>-12.04</ele>
        <time>2018-05-31T11:53:37Z</time>
      </trkpt>
      <trkpt lat="47.81725" lon="-3.42808">
        <ele>-10.63</ele>
        <time>2018-05-31T11:53:46Z</time>
      </trkpt>
      <trkpt lat="47.81715" lon="-3.42821">
        <ele>-9.66</ele>
        <time>2018-05-31T11:54:15Z</time>
      </trkpt>
      <trkpt lat="47.81707" lon="-3.42843">
        <ele>-9.22</ele>
        <time>2018-05-31T11:54:35Z</time>
      </trkpt>
      <trkpt lat="47.81704" lon="-3.42847">
        <ele>-9.3</ele>
        <time>2018-05-31T11:54:41Z</time>
      </trkpt>
      <trkpt lat="47.81691" lon="-3.42873">
        <ele>-11.29</ele>
        <time>2018-05-31T11:55:00Z</time>
      </trkpt>
      <trkpt lat="47.81686" lon="-3.42884">
        <ele>-12.44</ele>
        <time>2018-05-31T11:55:11Z</time>
      </trkpt>
      <trkpt lat="47.81678" lon="-3.42899">
        <ele>-12.45</ele>
        <time>2018-05-31T11:55:24Z</time>
      </trkpt>
      <trkpt lat="47.81675" lon="-3.42899">
        <ele>-12.34</ele>
        <time>2018-05-31T11:55:27Z</time>
      </trkpt>
      <trkpt lat="47.81673" lon="-3.42904">
        <ele>-11.94</ele>
        <time>2018-05-31T11:55:31Z</time>
      </trkpt>
      <trkpt lat="47.81667" lon="-3.42918">
        <ele>-12.92</ele>
        <time>2018-05-31T11:55:43Z</time>
      </trkpt>
      <trkpt lat="47.81662" lon="-3.42951">
        <ele>-13.93</ele>
        <time>2018-05-31T11:55:58Z</time>
      </trkpt>
      <trkpt lat="47.81662" lon="-3.42953">
        <ele>-13.89</ele>
        <time>2018-05-31T11:55:59Z</time>
      </trkpt>
      <trkpt lat="47.81662" lon="-3.42988">
        <ele>-13.02</ele>
        <time>2018-05-31T11:56:16Z</time>
      </trkpt>
      <trkpt lat="47.81659" lon="-3.43005">
        <ele>-14.29</ele>
        <time>2018-05-31T11:56:23Z</time>
      </trkpt>
      <trkpt lat="47.81658" lon="-3.43032">
        <ele>-16.21</ele>
        <time>2018-05-31T11:56:36Z</time>
      </trkpt>
      <trkpt lat="47.81658" lon="-3.43059">
        <ele>-18.43</ele>
        <time>2018-05-31T11:56:53Z</time>
      </trkpt>
      <trkpt lat="47.81659" lon="-3.43062">
        <ele>-18.56</ele>
        <time>2018-05-31T11:56:55Z</time>
      </trkpt>
      <trkpt lat="47.81661" lon="-3.43075">
        <ele>-18.84</ele>
        <time>2018-05-31T11:56:59Z</time>
      </trkpt>
      <trkpt lat="47.81664" lon="-3.43087">
        <ele>-19.19</ele>
        <time>2018-05-31T11:57:05Z</time>
      </trkpt>
      <trkpt lat="47.81668" lon="-3.43091">
        <ele>-19.34</ele>
        <time>2018-05-31T11:57:08Z</time>
      </trkpt>
      <trkpt lat="47.81671" lon="-3.43097">
        <ele>-19.4</ele>
        <time>2018-05-31T11:57:12Z</time>
      </trkpt>
      <trkpt lat="47.81672" lon="-3.43101">
        <ele>-19.35</ele>
        <time>2018-05-31T11:57:15Z</time>
      </trkpt>
      <trkpt lat="47.81672" lon="-3.43113">
        <ele>-19.5</ele>
        <time>2018-05-31T11:57:26Z</time>
      </trkpt>
      <trkpt lat="47.81665" lon="-3.43113">
        <ele>-19.55</ele>
        <time>2018-05-31T11:57:34Z</time>
      </trkpt>
      <trkpt lat="47.81665" lon="-3.4312">
        <ele>-20.09</ele>
        <time>2018-05-31T11:57:48Z</time>
      </trkpt>
      <trkpt lat="47.81666" lon="-3.43121">
        <ele>-19.81</ele>
        <time>2018-05-31T11:57:56Z</time>
      </trkpt>
      <trkpt lat="47.81664" lon="-3.4312">
        <ele>-19.51</ele>
        <time>2018-05-31T11:58:03Z</time>
      </trkpt>
      <trkpt lat="47.81668" lon="-3.43119">
        <ele>-19.2</ele>
        <time>2018-05-31T11:58:11Z</time>
      </trkpt>
      <trkpt lat="47.81677" lon="-3.43119">
        <ele>-18.85</ele>
        <time>2018-05-31T11:58:18Z</time>
      </trkpt>
      <trkpt lat="47.8169" lon="-3.43121">
        <ele>-18.97</ele>
        <time>2018-05-31T11:58:28Z</time>
      </trkpt>
      <trkpt lat="47.81706" lon="-3.43117">
        <ele>-19.4</ele>
        <time>2018-05-31T11:58:38Z</time>
      </trkpt>
      <trkpt lat="47.81715" lon="-3.43116">
        <ele>-19.46</ele>
        <time>2018-05-31T11:58:46Z</time>
      </trkpt>
      <trkpt lat="47.81723" lon="-3.43119">
        <ele>-19.51</ele>
        <time>2018-05-31T11:58:56Z</time>
      </trkpt>
      <trkpt lat="47.81729" lon="-3.43124">
        <ele>-19.79</ele>
        <time>2018-05-31T11:59:01Z</time>
      </trkpt>
      <trkpt lat="47.81751" lon="-3.4313">
        <ele>-19.5</ele>
        <time>2018-05-31T11:59:15Z</time>
      </trkpt>
      <trkpt lat="47.81771" lon="-3.43125">
        <ele>-19.23</ele>
        <time>2018-05-31T11:59:26Z</time>
      </trkpt>
      <trkpt lat="47.81796" lon="-3.43105">
        <ele>-19.1</ele>
        <time>2018-05-31T11:59:43Z</time>
      </trkpt>
      <trkpt lat="47.81814" lon="-3.43096">
        <ele>-19.28</ele>
        <time>2018-05-31T11:59:55Z</time>
      </trkpt>
      <trkpt lat="47.81824" lon="-3.43093">
        <ele>-19.37</ele>
        <time>2018-05-31T12:00:02Z</time>
      </trkpt>
      <trkpt lat="47.81843" lon="-3.43086">
        <ele>-19.36</ele>
        <time>2018-05-31T12:00:15Z</time>
      </trkpt>
      <trkpt lat="47.81857" lon="-3.43082">
        <ele>-19.32</ele>
        <time>2018-05-31T12:00:27Z</time>
      </trkpt>
      <trkpt lat="47.81872" lon="-3.43085">
        <ele>-19.41</ele>
        <time>2018-05-31T12:00:36Z</time>
      </trkpt>
      <trkpt lat="47.81884" lon="-3.43089">
        <ele>-19.54</ele>
        <time>2018-05-31T12:00:41Z</time>
      </trkpt>
      <trkpt lat="47.81917" lon="-3.43101">
        <ele>-19.41</ele>
        <time>2018-05-31T12:01:04Z</time>
      </trkpt>
      <trkpt lat="47.81923" lon="-3.43108">
        <ele>-19.37</ele>
        <time>2018-05-31T12:01:11Z</time>
      </trkpt>
      <trkpt lat="47.8194" lon="-3.43125">
        <ele>-19.02</ele>
        <time>2018-05-31T12:01:25Z</time>
      </trkpt>
      <trkpt lat="47.81972" lon="-3.4315">
        <ele>-18.77</ele>
        <time>2018-05-31T12:01:44Z</time>
      </trkpt>
      <trkpt lat="47.81978" lon="-3.43158">
        <ele>-18.68</ele>
        <time>2018-05-31T12:01:49Z</time>
      </trkpt>
      <trkpt lat="47.81989" lon="-3.4317">
        <ele>-18.87</ele>
        <time>2018-05-31T12:01:59Z</time>
      </trkpt>
      <trkpt lat="47.82034" lon="-3.43164">
        <ele>-18.91</ele>
        <time>2018-05-31T12:02:20Z</time>
      </trkpt>
      <trkpt lat="47.82039" lon="-3.43161">
        <ele>-18.76</ele>
        <time>2018-05-31T12:02:23Z</time>
      </trkpt>
      <trkpt lat="47.82053" lon="-3.43156">
        <ele>-18.8</ele>
        <time>2018-05-31T12:02:30Z</time>
      </trkpt>
      <trkpt lat="47.82062" lon="-3.43161">
        <ele>-18.82</ele>
        <time>2018-05-31T12:02:35Z</time>
      </trkpt>
      <trkpt lat="47.82071" lon="-3.43167">
        <ele>-18.91</ele>
        <time>2018-05-31T12:02:42Z</time>
      </trkpt>
      <trkpt lat="47.82077" lon="-3.43177">
        <ele>-18.74</ele>
        <time>2018-05-31T12:02:48Z</time>
      </trkpt>
      <trkpt lat="47.82078" lon="-3.43179">
        <ele>-18.69</ele>
        <time>2018-05-31T12:02:49Z</time>
      </trkpt>
      <trkpt lat="47.82079" lon="-3.43181">
        <ele>-18.66</ele>
        <time>2018-05-31T12:02:50Z</time>
      </trkpt>
      <trkpt lat="47.82091" lon="-3.43216">
        <ele>-18.56</ele>
        <time>2018-05-31T12:03:08Z</time>
      </trkpt>
      <trkpt lat="47.82101" lon="-3.43227">
        <ele>-18.38</ele>
        <time>2018-05-31T12:03:13Z</time>
      </trkpt>
      <trkpt lat="47.82113" lon="-3.43242">
        <ele>-18.41</ele>
        <time>2018-05-31T12:03:23Z</time>
      </trkpt>
      <trkpt lat="47.82115" lon="-3.43245">
        <ele>-18.39</ele>
        <time>2018-05-31T12:03:24Z</time>
      </trkpt>
      <trkpt lat="47.8212" lon="-3.43255">
        <ele>-18</ele>
        <time>2018-05-31T12:03:30Z</time>
      </trkpt>
      <trkpt lat="47.82122" lon="-3.43256">
        <ele>-17.94</ele>
        <time>2018-05-31T12:03:31Z</time>
      </trkpt>
      <trkpt lat="47.82126" lon="-3.43257">
        <ele>-17.88</ele>
        <time>2018-05-31T12:03:32Z</time>
      </trkpt>
      <trkpt lat="47.8213" lon="-3.43258">
        <ele>-17.84</ele>
        <time>2018-05-31T12:03:33Z</time>
      </trkpt>
      <trkpt lat="47.82132" lon="-3.43258">
        <ele>-17.8</ele>
        <time>2018-05-31T12:03:34Z</time>
      </trkpt>
      <trkpt lat="47.82137" lon="-3.4326">
        <ele>-17.66</ele>
        <time>2018-05-31T12:03:38Z</time>
      </trkpt>
      <trkpt lat="47.82138" lon="-3.4326">
        <ele>-17.63</ele>
        <time>2018-05-31T12:03:39Z</time>
      </trkpt>
      <trkpt lat="47.82139" lon="-3.4326">
        <ele>-17.61</ele>
        <time>2018-05-31T12:03:40Z</time>
      </trkpt>
      <trkpt lat="47.82151" lon="-3.43249">
        <ele>-17.31</ele>
        <time>2018-05-31T12:03:53Z</time>
      </trkpt>
      <trkpt lat="47.82156" lon="-3.43241">
        <ele>-17.25</ele>
        <time>2018-05-31T12:03:58Z</time>
      </trkpt>
      <trkpt lat="47.82157" lon="-3.43239">
        <ele>-17.25</ele>
        <time>2018-05-31T12:03:59Z</time>
      </trkpt>
      <trkpt lat="47.82158" lon="-3.43237">
        <ele>-17.27</ele>
        <time>2018-05-31T12:04:00Z</time>
      </trkpt>
      <trkpt lat="47.82159" lon="-3.43235">
        <ele>-17.3</ele>
        <time>2018-05-31T12:04:01Z</time>
      </trkpt>
      <trkpt lat="47.82161" lon="-3.43233">
        <ele>-17.33</ele>
        <time>2018-05-31T12:04:02Z</time>
      </trkpt>
      <trkpt lat="47.82162" lon="-3.43231">
        <ele>-17.37</ele>
        <time>2018-05-31T12:04:03Z</time>
      </trkpt>
      <trkpt lat="47.82162" lon="-3.43229">
        <ele>-17.4</ele>
        <time>2018-05-31T12:04:04Z</time>
      </trkpt>
      <trkpt lat="47.82178" lon="-3.43209">
        <ele>-17.56</ele>
        <time>2018-05-31T12:04:15Z</time>
      </trkpt>
      <trkpt lat="47.82181" lon="-3.43204">
        <ele>-17.69</ele>
        <time>2018-05-31T12:04:18Z</time>
      </trkpt>
      <trkpt lat="47.82182" lon="-3.43203">
        <ele>-17.76</ele>
        <time>2018-05-31T12:04:19Z</time>
      </trkpt>
      <trkpt lat="47.82194" lon="-3.4319">
        <ele>-18.14</ele>
        <time>2018-05-31T12:04:27Z</time>
      </trkpt>
      <trkpt lat="47.82195" lon="-3.43188">
        <ele>-18.18</ele>
        <time>2018-05-31T12:04:28Z</time>
      </trkpt>
      <trkpt lat="47.82197" lon="-3.43186">
        <ele>-18.23</ele>
        <time>2018-05-31T12:04:29Z</time>
      </trkpt>
      <trkpt lat="47.82205" lon="-3.43163">
        <ele>-18.54</ele>
        <time>2018-05-31T12:04:41Z</time>
      </trkpt>
      <trkpt lat="47.82199" lon="-3.43147">
        <ele>-19.32</ele>
        <time>2018-05-31T12:04:57Z</time>
      </trkpt>
      <trkpt lat="47.82202" lon="-3.43144">
        <ele>-19.34</ele>
        <time>2018-05-31T12:05:04Z</time>
      </trkpt>
      <trkpt lat="47.82189" lon="-3.43114">
        <ele>-19.54</ele>
        <time>2018-05-31T12:05:21Z</time>
      </trkpt>
      <trkpt lat="47.82177" lon="-3.43112">
        <ele>-19.3</ele>
        <time>2018-05-31T12:05:31Z</time>
      </trkpt>
      <trkpt lat="47.82161" lon="-3.43118">
        <ele>-19.07</ele>
        <time>2018-05-31T12:05:43Z</time>
      </trkpt>
      <trkpt lat="47.82159" lon="-3.43117">
        <ele>-19.07</ele>
        <time>2018-05-31T12:05:44Z</time>
      </trkpt>
      <trkpt lat="47.82157" lon="-3.43117">
        <ele>-19.09</ele>
        <time>2018-05-31T12:05:45Z</time>
      </trkpt>
      <trkpt lat="47.82154" lon="-3.43117">
        <ele>-19.1</ele>
        <time>2018-05-31T12:05:46Z</time>
      </trkpt>
      <trkpt lat="47.82152" lon="-3.43118">
        <ele>-19.12</ele>
        <time>2018-05-31T12:05:47Z</time>
      </trkpt>
      <trkpt lat="47.82152" lon="-3.43118">
        <ele>-19.18</ele>
        <time>2018-05-31T12:05:48Z</time>
      </trkpt>
      <trkpt lat="47.8214" lon="-3.4312">
        <ele>-19.41</ele>
        <time>2018-05-31T12:05:59Z</time>
      </trkpt>
      <trkpt lat="47.82138" lon="-3.43119">
        <ele>-19.34</ele>
        <time>2018-05-31T12:06:01Z</time>
      </trkpt>
      <trkpt lat="47.82134" lon="-3.43116">
        <ele>-19.31</ele>
        <time>2018-05-31T12:06:07Z</time>
      </trkpt>
      <trkpt lat="47.82133" lon="-3.43115">
        <ele>-19.31</ele>
        <time>2018-05-31T12:06:08Z</time>
      </trkpt>
      <trkpt lat="47.82131" lon="-3.43116">
        <ele>-19.32</ele>
        <time>2018-05-31T12:06:09Z</time>
      </trkpt>
      <trkpt lat="47.8213" lon="-3.43115">
        <ele>-19.33</ele>
        <time>2018-05-31T12:06:10Z</time>
      </trkpt>
      <trkpt lat="47.8212" lon="-3.43111">
        <ele>-19.37</ele>
        <time>2018-05-31T12:06:20Z</time>
      </trkpt>
      <trkpt lat="47.82112" lon="-3.43105">
        <ele>-19.19</ele>
        <time>2018-05-31T12:06:30Z</time>
      </trkpt>
      <trkpt lat="47.82104" lon="-3.43104">
        <ele>-19.23</ele>
        <time>2018-05-31T12:06:32Z</time>
      </trkpt>
      <trkpt lat="47.82099" lon="-3.43103">
        <ele>-19.34</ele>
        <time>2018-05-31T12:06:35Z</time>
      </trkpt>
      <trkpt lat="47.82096" lon="-3.43102">
        <ele>-19.37</ele>
        <time>2018-05-31T12:06:36Z</time>
      </trkpt>
      <trkpt lat="47.82091" lon="-3.43099">
        <ele>-19.45</ele>
        <time>2018-05-31T12:06:39Z</time>
      </trkpt>
      <trkpt lat="47.82086" lon="-3.43099">
        <ele>-19.45</ele>
        <time>2018-05-31T12:06:44Z</time>
      </trkpt>
      <trkpt lat="47.82085" lon="-3.43098">
        <ele>-19.4</ele>
        <time>2018-05-31T12:06:45Z</time>
      </trkpt>
      <trkpt lat="47.82078" lon="-3.43091">
        <ele>-18.45</ele>
        <time>2018-05-31T12:06:55Z</time>
      </trkpt>
      <trkpt lat="47.82072" lon="-3.43082">
        <ele>-18.14</ele>
        <time>2018-05-31T12:07:05Z</time>
      </trkpt>
      <trkpt lat="47.82064" lon="-3.43076">
        <ele>-18.03</ele>
        <time>2018-05-31T12:07:12Z</time>
      </trkpt>
      <trkpt lat="47.82063" lon="-3.43075">
        <ele>-18.03</ele>
        <time>2018-05-31T12:07:13Z</time>
      </trkpt>
      <trkpt lat="47.82062" lon="-3.43074">
        <ele>-18.01</ele>
        <time>2018-05-31T12:07:14Z</time>
      </trkpt>
      <trkpt lat="47.82059" lon="-3.43072">
        <ele>-17.8</ele>
        <time>2018-05-31T12:07:18Z</time>
      </trkpt>
      <trkpt lat="47.82036" lon="-3.43045">
        <ele>-16.45</ele>
        <time>2018-05-31T12:07:36Z</time>
      </trkpt>
      <trkpt lat="47.82017" lon="-3.43022">
        <ele>-15.64</ele>
        <time>2018-05-31T12:07:50Z</time>
      </trkpt>
      <trkpt lat="47.82004" lon="-3.43009">
        <ele>-14.76</ele>
        <time>2018-05-31T12:08:01Z</time>
      </trkpt>
      <trkpt lat="47.82001" lon="-3.43006">
        <ele>-14.63</ele>
        <time>2018-05-31T12:08:04Z</time>
      </trkpt>
      <trkpt lat="47.81996" lon="-3.43001">
        <ele>-14.47</ele>
        <time>2018-05-31T12:08:08Z</time>
      </trkpt>
      <trkpt lat="47.81993" lon="-3.42998">
        <ele>-14.14</ele>
        <time>2018-05-31T12:08:11Z</time>
      </trkpt>
      <trkpt lat="47.81968" lon="-3.42997">
        <ele>-14.14</ele>
        <time>2018-05-31T12:08:32Z</time>
      </trkpt>
      <trkpt lat="47.81964" lon="-3.42998">
        <ele>-14.32</ele>
        <time>2018-05-31T12:08:37Z</time>
      </trkpt>
      <trkpt lat="47.81942" lon="-3.43003">
        <ele>-14.62</ele>
        <time>2018-05-31T12:08:49Z</time>
      </trkpt>
      <trkpt lat="47.81938" lon="-3.43004">
        <ele>-14.47</ele>
        <time>2018-05-31T12:08:52Z</time>
      </trkpt>
      <trkpt lat="47.81915" lon="-3.43007">
        <ele>-14.4</ele>
        <time>2018-05-31T12:09:07Z</time>
      </trkpt>
      <trkpt lat="47.81894" lon="-3.43012">
        <ele>-14.36</ele>
        <time>2018-05-31T12:09:23Z</time>
      </trkpt>
      <trkpt lat="47.81886" lon="-3.43016">
        <ele>-14.25</ele>
        <time>2018-05-31T12:09:28Z</time>
      </trkpt>
      <trkpt lat="47.81882" lon="-3.43018">
        <ele>-14.09</ele>
        <time>2018-05-31T12:09:33Z</time>
      </trkpt>
      <trkpt lat="47.81866" lon="-3.43026">
        <ele>-15.42</ele>
        <time>2018-05-31T12:09:46Z</time>
      </trkpt>
      <trkpt lat="47.81851" lon="-3.43028">
        <ele>-17.03</ele>
        <time>2018-05-31T12:09:57Z</time>
      </trkpt>
      <trkpt lat="47.81838" lon="-3.43025">
        <ele>-19.35</ele>
        <time>2018-05-31T12:10:12Z</time>
      </trkpt>
      <trkpt lat="47.81831" lon="-3.43015">
        <ele>-19.67</ele>
        <time>2018-05-31T12:10:19Z</time>
      </trkpt>
      <trkpt lat="47.81831" lon="-3.43012">
        <ele>-19.75</ele>
        <time>2018-05-31T12:10:21Z</time>
      </trkpt>
      <trkpt lat="47.81831" lon="-3.42999">
        <ele>-20.04</ele>
        <time>2018-05-31T12:10:27Z</time>
      </trkpt>
      <trkpt lat="47.81821" lon="-3.42966">
        <ele>-20.05</ele>
        <time>2018-05-31T12:10:43Z</time>
      </trkpt>
      <trkpt lat="47.81815" lon="-3.42946">
        <ele>-20.12</ele>
        <time>2018-05-31T12:10:50Z</time>
      </trkpt>
      <trkpt lat="47.81815" lon="-3.42941">
        <ele>-20.08</ele>
        <time>2018-05-31T12:10:52Z</time>
      </trkpt>
      <trkpt lat="47.81816" lon="-3.42936">
        <ele>-20</ele>
        <time>2018-05-31T12:10:55Z</time>
      </trkpt>
      <trkpt lat="47.81816" lon="-3.42931">
        <ele>-19.92</ele>
        <time>2018-05-31T12:10:57Z</time>
      </trkpt>
      <trkpt lat="47.81815" lon="-3.42921">
        <ele>-19.71</ele>
        <time>2018-05-31T12:11:04Z</time>
      </trkpt>
      <trkpt lat="47.81814" lon="-3.42911">
        <ele>-19.49</ele>
        <time>2018-05-31T12:11:09Z</time>
      </trkpt>
      <trkpt lat="47.81813" lon="-3.42903">
        <ele>-19.39</ele>
        <time>2018-05-31T12:11:13Z</time>
      </trkpt>
      <trkpt lat="47.81815" lon="-3.42898">
        <ele>-19.35</ele>
        <time>2018-05-31T12:11:16Z</time>
      </trkpt>
      <trkpt lat="47.8182" lon="-3.42894">
        <ele>-19.28</ele>
        <time>2018-05-31T12:11:19Z</time>
      </trkpt>
      <trkpt lat="47.81823" lon="-3.42889">
        <ele>-18.88</ele>
        <time>2018-05-31T12:11:23Z</time>
      </trkpt>
      <trkpt lat="47.81828" lon="-3.42879">
        <ele>-16.95</ele>
        <time>2018-05-31T12:11:31Z</time>
      </trkpt>
      <trkpt lat="47.8183" lon="-3.42872">
        <ele>-15.89</ele>
        <time>2018-05-31T12:11:34Z</time>
      </trkpt>
      <trkpt lat="47.81836" lon="-3.42842">
        <ele>-14.63</ele>
        <time>2018-05-31T12:11:46Z</time>
      </trkpt>
      <trkpt lat="47.81837" lon="-3.42837">
        <ele>-14.63</ele>
        <time>2018-05-31T12:11:48Z</time>
      </trkpt>
      <trkpt lat="47.81842" lon="-3.42819">
        <ele>-14.63</ele>
        <time>2018-05-31T12:11:57Z</time>
      </trkpt>
      <trkpt lat="47.81843" lon="-3.42808">
        <ele>-14.85</ele>
        <time>2018-05-31T12:12:02Z</time>
      </trkpt>
      <trkpt lat="47.81848" lon="-3.42776">
        <ele>-14.68</ele>
        <time>2018-05-31T12:12:14Z</time>
      </trkpt>
      <trkpt lat="47.8185" lon="-3.42771">
        <ele>-14.56</ele>
        <time>2018-05-31T12:12:17Z</time>
      </trkpt>
      <trkpt lat="47.81854" lon="-3.4276">
        <ele>-14.82</ele>
        <time>2018-05-31T12:12:24Z</time>
      </trkpt>
      <trkpt lat="47.81857" lon="-3.42751">
        <ele>-14.74</ele>
        <time>2018-05-31T12:12:28Z</time>
      </trkpt>
      <trkpt lat="47.81865" lon="-3.42737">
        <ele>-14.66</ele>
        <time>2018-05-31T12:12:33Z</time>
      </trkpt>
      <trkpt lat="47.81872" lon="-3.42727">
        <ele>-14.71</ele>
        <time>2018-05-31T12:12:38Z</time>
      </trkpt>
      <trkpt lat="47.8188" lon="-3.42712">
        <ele>-14.73</ele>
        <time>2018-05-31T12:12:45Z</time>
      </trkpt>
      <trkpt lat="47.81884" lon="-3.42689">
        <ele>-15.38</ele>
        <time>2018-05-31T12:12:57Z</time>
      </trkpt>
      <trkpt lat="47.8188" lon="-3.42666">
        <ele>-15.28</ele>
        <time>2018-05-31T12:13:08Z</time>
      </trkpt>
      <trkpt lat="47.81883" lon="-3.42652">
        <ele>-15.42</ele>
        <time>2018-05-31T12:13:17Z</time>
      </trkpt>
      <trkpt lat="47.81887" lon="-3.42642">
        <ele>-15.6</ele>
        <time>2018-05-31T12:13:28Z</time>
      </trkpt>
      <trkpt lat="47.81884" lon="-3.42632">
        <ele>-15.77</ele>
        <time>2018-05-31T12:13:34Z</time>
      </trkpt>
      <trkpt lat="47.81883" lon="-3.42627">
        <ele>-16.01</ele>
        <time>2018-05-31T12:13:37Z</time>
      </trkpt>
      <trkpt lat="47.81883" lon="-3.42622">
        <ele>-16.14</ele>
        <time>2018-05-31T12:13:40Z</time>
      </trkpt>
      <trkpt lat="47.8188" lon="-3.42612">
        <ele>-16.13</ele>
        <time>2018-05-31T12:13:45Z</time>
      </trkpt>
      <trkpt lat="47.81876" lon="-3.42602">
        <ele>-15.83</ele>
        <time>2018-05-31T12:13:51Z</time>
      </trkpt>
      <trkpt lat="47.81876" lon="-3.42592">
        <ele>-15.74</ele>
        <time>2018-05-31T12:13:56Z</time>
      </trkpt>
      <trkpt lat="47.81873" lon="-3.42584">
        <ele>-15.61</ele>
        <time>2018-05-31T12:14:00Z</time>
      </trkpt>
      <trkpt lat="47.81873" lon="-3.42573">
        <ele>-15.73</ele>
        <time>2018-05-31T12:14:07Z</time>
      </trkpt>
      <trkpt lat="47.81872" lon="-3.42554">
        <ele>-15.95</ele>
        <time>2018-05-31T12:14:19Z</time>
      </trkpt>
      <trkpt lat="47.8187" lon="-3.42549">
        <ele>-15.87</ele>
        <time>2018-05-31T12:14:23Z</time>
      </trkpt>
      <trkpt lat="47.81869" lon="-3.42536">
        <ele>-15.14</ele>
        <time>2018-05-31T12:14:30Z</time>
      </trkpt>
      <trkpt lat="47.81868" lon="-3.42529">
        <ele>-14.86</ele>
        <time>2018-05-31T12:14:33Z</time>
      </trkpt>
      <trkpt lat="47.81868" lon="-3.42524">
        <ele>-14.68</ele>
        <time>2018-05-31T12:14:36Z</time>
      </trkpt>
      <trkpt lat="47.81868" lon="-3.42519">
        <ele>-14.55</ele>
        <time>2018-05-31T12:14:38Z</time>
      </trkpt>
      <trkpt lat="47.81863" lon="-3.42502">
        <ele>-14.21</ele>
        <time>2018-05-31T12:14:47Z</time>
      </trkpt>
      <trkpt lat="47.81862" lon="-3.42498">
        <ele>-14.64</ele>
        <time>2018-05-31T12:14:54Z</time>
      </trkpt>
      <trkpt lat="47.81853" lon="-3.42485">
        <ele>-16.49</ele>
        <time>2018-05-31T12:15:07Z</time>
      </trkpt>
      <trkpt lat="47.81855" lon="-3.42483">
        <ele>-16.73</ele>
        <time>2018-05-31T12:15:13Z</time>
      </trkpt>
      <trkpt lat="47.8185" lon="-3.42478">
        <ele>-16.73</ele>
        <time>2018-05-31T12:15:20Z</time>
      </trkpt>
      <trkpt lat="47.81846" lon="-3.42471">
        <ele>-16.59</ele>
        <time>2018-05-31T12:15:26Z</time>
      </trkpt>
      <trkpt lat="47.8184" lon="-3.42466">
        <ele>-14.91</ele>
        <time>2018-05-31T12:15:43Z</time>
      </trkpt>
      <trkpt lat="47.81839" lon="-3.42459">
        <ele>-13.84</ele>
        <time>2018-05-31T12:15:54Z</time>
      </trkpt>
      <trkpt lat="47.81838" lon="-3.4245">
        <ele>-14.19</ele>
        <time>2018-05-31T12:16:03Z</time>
      </trkpt>
      <trkpt lat="47.81835" lon="-3.4244">
        <ele>-14.46</ele>
        <time>2018-05-31T12:16:13Z</time>
      </trkpt>
      <trkpt lat="47.81836" lon="-3.42431">
        <ele>-14.55</ele>
        <time>2018-05-31T12:16:18Z</time>
      </trkpt>
      <trkpt lat="47.81828" lon="-3.42414">
        <ele>-14.72</ele>
        <time>2018-05-31T12:16:28Z</time>
      </trkpt>
      <trkpt lat="47.81828" lon="-3.42413">
        <ele>-14.7</ele>
        <time>2018-05-31T12:16:29Z</time>
      </trkpt>
      <trkpt lat="47.81826" lon="-3.42396">
        <ele>-14.34</ele>
        <time>2018-05-31T12:16:41Z</time>
      </trkpt>
      <trkpt lat="47.81814" lon="-3.42381">
        <ele>-14.5</ele>
        <time>2018-05-31T12:16:52Z</time>
      </trkpt>
      <trkpt lat="47.81778" lon="-3.42353">
        <ele>-15.04</ele>
        <time>2018-05-31T12:17:03Z</time>
      </trkpt>
      <trkpt lat="47.81768" lon="-3.42342">
        <ele>-14.92</ele>
        <time>2018-05-31T12:17:06Z</time>
      </trkpt>
      <trkpt lat="47.81745" lon="-3.42327">
        <ele>-14.85</ele>
        <time>2018-05-31T12:17:10Z</time>
      </trkpt>
      <trkpt lat="47.81728" lon="-3.42313">
        <ele>-14.83</ele>
        <time>2018-05-31T12:17:15Z</time>
      </trkpt>
      <trkpt lat="47.81704" lon="-3.42285">
        <ele>-14.71</ele>
        <time>2018-05-31T12:17:26Z</time>
      </trkpt>
      <trkpt lat="47.81698" lon="-3.42266">
        <ele>-14.8</ele>
        <time>2018-05-31T12:17:34Z</time>
      </trkpt>
      <trkpt lat="47.81691" lon="-3.42246">
        <ele>-14.62</ele>
        <time>2018-05-31T12:17:44Z</time>
      </trkpt>
      <trkpt lat="47.81691" lon="-3.4224">
        <ele>-14.54</ele>
        <time>2018-05-31T12:17:47Z</time>
      </trkpt>
      <trkpt lat="47.81691" lon="-3.42228">
        <ele>-14.63</ele>
        <time>2018-05-31T12:17:53Z</time>
      </trkpt>
      <trkpt lat="47.8169" lon="-3.42222">
        <ele>-14.7</ele>
        <time>2018-05-31T12:17:55Z</time>
      </trkpt>
      <trkpt lat="47.81688" lon="-3.42213">
        <ele>-14.81</ele>
        <time>2018-05-31T12:18:00Z</time>
      </trkpt>
      <trkpt lat="47.81688" lon="-3.42209">
        <ele>-14.7</ele>
        <time>2018-05-31T12:18:02Z</time>
      </trkpt>
      <trkpt lat="47.81692" lon="-3.42197">
        <ele>-14.06</ele>
        <time>2018-05-31T12:18:18Z</time>
      </trkpt>
      <trkpt lat="47.81695" lon="-3.42196">
        <ele>-14.08</ele>
        <time>2018-05-31T12:18:25Z</time>
      </trkpt>
      <trkpt lat="47.81696" lon="-3.42197">
        <ele>-14.05</ele>
        <time>2018-05-31T12:18:46Z</time>
      </trkpt>
      <trkpt lat="47.81689" lon="-3.42192">
        <ele>-14.16</ele>
        <time>2018-05-31T12:19:02Z</time>
      </trkpt>
      <trkpt lat="47.81685" lon="-3.42189">
        <ele>-14.47</ele>
        <time>2018-05-31T12:19:15Z</time>
      </trkpt>
      <trkpt lat="47.81679" lon="-3.42184">
        <ele>-14.41</ele>
        <time>2018-05-31T12:19:27Z</time>
      </trkpt>
      <trkpt lat="47.81674" lon="-3.42182">
        <ele>-14.2</ele>
        <time>2018-05-31T12:19:43Z</time>
      </trkpt>
      <trkpt lat="47.81671" lon="-3.42178">
        <ele>-14.18</ele>
        <time>2018-05-31T12:19:50Z</time>
      </trkpt>
      <trkpt lat="47.81667" lon="-3.42173">
        <ele>-14.46</ele>
        <time>2018-05-31T12:19:58Z</time>
      </trkpt>
      <trkpt lat="47.8166" lon="-3.42159">
        <ele>-15.04</ele>
        <time>2018-05-31T12:20:05Z</time>
      </trkpt>
      <trkpt lat="47.8166" lon="-3.42154">
        <ele>-15.05</ele>
        <time>2018-05-31T12:20:08Z</time>
      </trkpt>
      <trkpt lat="47.81656" lon="-3.42143">
        <ele>-14.97</ele>
        <time>2018-05-31T12:20:16Z</time>
      </trkpt>
      <trkpt lat="47.8165" lon="-3.42139">
        <ele>-15.05</ele>
        <time>2018-05-31T12:20:19Z</time>
      </trkpt>
      <trkpt lat="47.81644" lon="-3.42127">
        <ele>-15.59</ele>
        <time>2018-05-31T12:20:31Z</time>
      </trkpt>
      <trkpt lat="47.81638" lon="-3.42121">
        <ele>-15.81</ele>
        <time>2018-05-31T12:20:37Z</time>
      </trkpt>
      <trkpt lat="47.81629" lon="-3.42113">
        <ele>-15.58</ele>
        <time>2018-05-31T12:20:47Z</time>
      </trkpt>
      <trkpt lat="47.81625" lon="-3.42111">
        <ele>-15.7</ele>
        <time>2018-05-31T12:20:50Z</time>
      </trkpt>
      <trkpt lat="47.81617" lon="-3.42102">
        <ele>-15.58</ele>
        <time>2018-05-31T12:20:58Z</time>
      </trkpt>
      <trkpt lat="47.81614" lon="-3.42099">
        <ele>-15.5</ele>
        <time>2018-05-31T12:21:01Z</time>
      </trkpt>
      <trkpt lat="47.81608" lon="-3.42091">
        <ele>-15.7</ele>
        <time>2018-05-31T12:21:07Z</time>
      </trkpt>
      <trkpt lat="47.81602" lon="-3.42086">
        <ele>-15.95</ele>
        <time>2018-05-31T12:21:10Z</time>
      </trkpt>
      <trkpt lat="47.81598" lon="-3.42079">
        <ele>-16.17</ele>
        <time>2018-05-31T12:21:14Z</time>
      </trkpt>
      <trkpt lat="47.81585" lon="-3.42067">
        <ele>-15.78</ele>
        <time>2018-05-31T12:21:25Z</time>
      </trkpt>
      <trkpt lat="47.81575" lon="-3.4206">
        <ele>-16.17</ele>
        <time>2018-05-31T12:21:32Z</time>
      </trkpt>
      <trkpt lat="47.81565" lon="-3.42049">
        <ele>-16.06</ele>
        <time>2018-05-31T12:21:41Z</time>
      </trkpt>
      <trkpt lat="47.81565" lon="-3.42049">
        <ele>-16.06</ele>
        <time>2018-05-31T12:21:42Z</time>
      </trkpt>
      <trkpt lat="47.81559" lon="-3.42044">
        <ele>-16.08</ele>
        <time>2018-05-31T12:21:46Z</time>
      </trkpt>
      <trkpt lat="47.81554" lon="-3.42035">
        <ele>-16.04</ele>
        <time>2018-05-31T12:21:52Z</time>
      </trkpt>
      <trkpt lat="47.81546" lon="-3.42028">
        <ele>-16.13</ele>
        <time>2018-05-31T12:21:58Z</time>
      </trkpt>
      <trkpt lat="47.81535" lon="-3.42015">
        <ele>-18.13</ele>
        <time>2018-05-31T12:22:09Z</time>
      </trkpt>
      <trkpt lat="47.81527" lon="-3.42009">
        <ele>-18.83</ele>
        <time>2018-05-31T12:22:13Z</time>
      </trkpt>
      <trkpt lat="47.81523" lon="-3.42006">
        <ele>-19.15</ele>
        <time>2018-05-31T12:22:16Z</time>
      </trkpt>
      <trkpt lat="47.81512" lon="-3.41999">
        <ele>-20.43</ele>
        <time>2018-05-31T12:22:24Z</time>
      </trkpt>
      <trkpt lat="47.81505" lon="-3.41994">
        <ele>-21.79</ele>
        <time>2018-05-31T12:22:34Z</time>
      </trkpt>
      <trkpt lat="47.81499" lon="-3.41991">
        <ele>-21.96</ele>
        <time>2018-05-31T12:22:41Z</time>
      </trkpt>
      <trkpt lat="47.81496" lon="-3.41989">
        <ele>-21.88</ele>
        <time>2018-05-31T12:22:44Z</time>
      </trkpt>
      <trkpt lat="47.81485" lon="-3.41982">
        <ele>-19.98</ele>
        <time>2018-05-31T12:22:51Z</time>
      </trkpt>
      <trkpt lat="47.81476" lon="-3.41981">
        <ele>-19.49</ele>
        <time>2018-05-31T12:23:06Z</time>
      </trkpt>
      <trkpt lat="47.81462" lon="-3.41984">
        <ele>-21.82</ele>
        <time>2018-05-31T12:23:16Z</time>
      </trkpt>
      <trkpt lat="47.81466" lon="-3.41984">
        <ele>-22.36</ele>
        <time>2018-05-31T12:23:26Z</time>
      </trkpt>
      <trkpt lat="47.81458" lon="-3.41977">
        <ele>-22.58</ele>
        <time>2018-05-31T12:23:35Z</time>
      </trkpt>
      <trkpt lat="47.81447" lon="-3.41965">
        <ele>-22.64</ele>
        <time>2018-05-31T12:23:47Z</time>
      </trkpt>
      <trkpt lat="47.81444" lon="-3.41963">
        <ele>-22.64</ele>
        <time>2018-05-31T12:23:49Z</time>
      </trkpt>
      <trkpt lat="47.81419" lon="-3.41943">
        <ele>-22.79</ele>
        <time>2018-05-31T12:24:04Z</time>
      </trkpt>
      <trkpt lat="47.81417" lon="-3.41941">
        <ele>-22.78</ele>
        <time>2018-05-31T12:24:06Z</time>
      </trkpt>
      <trkpt lat="47.81399" lon="-3.41924">
        <ele>-22.4</ele>
        <time>2018-05-31T12:24:17Z</time>
      </trkpt>
      <trkpt lat="47.81386" lon="-3.41913">
        <ele>-22.19</ele>
        <time>2018-05-31T12:24:23Z</time>
      </trkpt>
      <trkpt lat="47.81381" lon="-3.4191">
        <ele>-22.27</ele>
        <time>2018-05-31T12:24:27Z</time>
      </trkpt>
      <trkpt lat="47.81379" lon="-3.41908">
        <ele>-22.24</ele>
        <time>2018-05-31T12:24:29Z</time>
      </trkpt>
      <trkpt lat="47.81366" lon="-3.41893">
        <ele>-22.16</ele>
        <time>2018-05-31T12:24:38Z</time>
      </trkpt>
      <trkpt lat="47.81363" lon="-3.4189">
        <ele>-22.17</ele>
        <time>2018-05-31T12:24:40Z</time>
      </trkpt>
      <trkpt lat="47.8136" lon="-3.41888">
        <ele>-22.25</ele>
        <time>2018-05-31T12:24:45Z</time>
      </trkpt>
      <trkpt lat="47.81346" lon="-3.41879">
        <ele>-22.62</ele>
        <time>2018-05-31T12:24:55Z</time>
      </trkpt>
      <trkpt lat="47.81342" lon="-3.41876">
        <ele>-22.69</ele>
        <time>2018-05-31T12:24:58Z</time>
      </trkpt>
      <trkpt lat="47.81336" lon="-3.41873">
        <ele>-22.76</ele>
        <time>2018-05-31T12:25:01Z</time>
      </trkpt>
      <trkpt lat="47.81328" lon="-3.41868">
        <ele>-22.96</ele>
        <time>2018-05-31T12:25:05Z</time>
      </trkpt>
      <trkpt lat="47.81323" lon="-3.41863">
        <ele>-23.03</ele>
        <time>2018-05-31T12:25:10Z</time>
      </trkpt>
      <trkpt lat="47.81321" lon="-3.41861">
        <ele>-22.97</ele>
        <time>2018-05-31T12:25:12Z</time>
      </trkpt>
      <trkpt lat="47.81317" lon="-3.41857">
        <ele>-22.92</ele>
        <time>2018-05-31T12:25:15Z</time>
      </trkpt>
      <trkpt lat="47.81298" lon="-3.41841">
        <ele>-23.04</ele>
        <time>2018-05-31T12:25:25Z</time>
      </trkpt>
      <trkpt lat="47.81293" lon="-3.41829">
        <ele>-22.87</ele>
        <time>2018-05-31T12:25:31Z</time>
      </trkpt>
      <trkpt lat="47.81295" lon="-3.41824">
        <ele>-22.66</ele>
        <time>2018-05-31T12:25:34Z</time>
      </trkpt>
      <trkpt lat="47.81294" lon="-3.41816">
        <ele>-22.48</ele>
        <time>2018-05-31T12:25:38Z</time>
      </trkpt>
      <trkpt lat="47.81298" lon="-3.41797">
        <ele>-22.02</ele>
        <time>2018-05-31T12:25:49Z</time>
      </trkpt>
      <trkpt lat="47.81301" lon="-3.41787">
        <ele>-21.73</ele>
        <time>2018-05-31T12:25:55Z</time>
      </trkpt>
      <trkpt lat="47.813" lon="-3.41762">
        <ele>-21.92</ele>
        <time>2018-05-31T12:26:09Z</time>
      </trkpt>
      <trkpt lat="47.81304" lon="-3.41739">
        <ele>-22.59</ele>
        <time>2018-05-31T12:26:21Z</time>
      </trkpt>
      <trkpt lat="47.81304" lon="-3.4173">
        <ele>-22.74</ele>
        <time>2018-05-31T12:26:24Z</time>
      </trkpt>
      <trkpt lat="47.81304" lon="-3.41725">
        <ele>-22.8</ele>
        <time>2018-05-31T12:26:26Z</time>
      </trkpt>
      <trkpt lat="47.81307" lon="-3.41713">
        <ele>-22.92</ele>
        <time>2018-05-31T12:26:33Z</time>
      </trkpt>
      <trkpt lat="47.81313" lon="-3.41694">
        <ele>-23.15</ele>
        <time>2018-05-31T12:26:40Z</time>
      </trkpt>
      <trkpt lat="47.8132" lon="-3.41675">
        <ele>-23.54</ele>
        <time>2018-05-31T12:26:47Z</time>
      </trkpt>
      <trkpt lat="47.81323" lon="-3.41668">
        <ele>-23.72</ele>
        <time>2018-05-31T12:26:50Z</time>
      </trkpt>
      <trkpt lat="47.81324" lon="-3.4166">
        <ele>-24.01</ele>
        <time>2018-05-31T12:26:53Z</time>
      </trkpt>
      <trkpt lat="47.8133" lon="-3.41638">
        <ele>-24.18</ele>
        <time>2018-05-31T12:27:00Z</time>
      </trkpt>
      <trkpt lat="47.81335" lon="-3.41609">
        <ele>-24.02</ele>
        <time>2018-05-31T12:27:12Z</time>
      </trkpt>
      <trkpt lat="47.81334" lon="-3.41607">
        <ele>-24.01</ele>
        <time>2018-05-31T12:27:13Z</time>
      </trkpt>
      <trkpt lat="47.81336" lon="-3.41607">
        <ele>-24.03</ele>
        <time>2018-05-31T12:27:15Z</time>
      </trkpt>
      <trkpt lat="47.81337" lon="-3.41601">
        <ele>-24.04</ele>
        <time>2018-05-31T12:27:18Z</time>
      </trkpt>
      <trkpt lat="47.81337" lon="-3.41598">
        <ele>-24.03</ele>
        <time>2018-05-31T12:27:20Z</time>
      </trkpt>
      <trkpt lat="47.81338" lon="-3.41591">
        <ele>-23.94</ele>
        <time>2018-05-31T12:27:24Z</time>
      </trkpt>
      <trkpt lat="47.81335" lon="-3.41586">
        <ele>-23.84</ele>
        <time>2018-05-31T12:27:27Z</time>
      </trkpt>
      <trkpt lat="47.81338" lon="-3.41579">
        <ele>-23.99</ele>
        <time>2018-05-31T12:27:33Z</time>
      </trkpt>
      <trkpt lat="47.81333" lon="-3.4157">
        <ele>-24.03</ele>
        <time>2018-05-31T12:27:42Z</time>
      </trkpt>
      <trkpt lat="47.8133" lon="-3.41566">
        <ele>-23.99</ele>
        <time>2018-05-31T12:27:44Z</time>
      </trkpt>
      <trkpt lat="47.81324" lon="-3.41557">
        <ele>-24.13</ele>
        <time>2018-05-31T12:27:49Z</time>
      </trkpt>
      <trkpt lat="47.81317" lon="-3.41547">
        <ele>-24.32</ele>
        <time>2018-05-31T12:27:56Z</time>
      </trkpt>
      <trkpt lat="47.81312" lon="-3.41539">
        <ele>-24.35</ele>
        <time>2018-05-31T12:28:00Z</time>
      </trkpt>
      <trkpt lat="47.81307" lon="-3.41534">
        <ele>-24.25</ele>
        <time>2018-05-31T12:28:04Z</time>
      </trkpt>
      <trkpt lat="47.81307" lon="-3.41525">
        <ele>-23.83</ele>
        <time>2018-05-31T12:28:09Z</time>
      </trkpt>
      <trkpt lat="47.81308" lon="-3.41516">
        <ele>-23.42</ele>
        <time>2018-05-31T12:28:13Z</time>
      </trkpt>
      <trkpt lat="47.81305" lon="-3.41505">
        <ele>-22.85</ele>
        <time>2018-05-31T12:28:17Z</time>
      </trkpt>
      <trkpt lat="47.81304" lon="-3.41497">
        <ele>-22.2</ele>
        <time>2018-05-31T12:28:21Z</time>
      </trkpt>
      <trkpt lat="47.81318" lon="-3.41483">
        <ele>-19.77</ele>
        <time>2018-05-31T12:28:33Z</time>
      </trkpt>
      <trkpt lat="47.81314" lon="-3.41475">
        <ele>-17.55</ele>
        <time>2018-05-31T12:28:44Z</time>
      </trkpt>
      <trkpt lat="47.81313" lon="-3.41467">
        <ele>-17.1</ele>
        <time>2018-05-31T12:28:47Z</time>
      </trkpt>
      <trkpt lat="47.81305" lon="-3.4146">
        <ele>-15.5</ele>
        <time>2018-05-31T12:28:53Z</time>
      </trkpt>
      <trkpt lat="47.81299" lon="-3.41454">
        <ele>-15.08</ele>
        <time>2018-05-31T12:29:02Z</time>
      </trkpt>
      <trkpt lat="47.81288" lon="-3.4145">
        <ele>-16.49</ele>
        <time>2018-05-31T12:29:12Z</time>
      </trkpt>
      <trkpt lat="47.81285" lon="-3.41452">
        <ele>-17.21</ele>
        <time>2018-05-31T12:29:15Z</time>
      </trkpt>
      <trkpt lat="47.81278" lon="-3.4145">
        <ele>-18.61</ele>
        <time>2018-05-31T12:29:21Z</time>
      </trkpt>
      <trkpt lat="47.81274" lon="-3.41453">
        <ele>-19.27</ele>
        <time>2018-05-31T12:29:24Z</time>
      </trkpt>
      <trkpt lat="47.81272" lon="-3.41456">
        <ele>-19.8</ele>
        <time>2018-05-31T12:29:27Z</time>
      </trkpt>
      <trkpt lat="47.81268" lon="-3.41458">
        <ele>-20.7</ele>
        <time>2018-05-31T12:29:31Z</time>
      </trkpt>
      <trkpt lat="47.81265" lon="-3.41461">
        <ele>-21.17</ele>
        <time>2018-05-31T12:29:34Z</time>
      </trkpt>
      <trkpt lat="47.81259" lon="-3.41459">
        <ele>-22.49</ele>
        <time>2018-05-31T12:29:41Z</time>
      </trkpt>
      <trkpt lat="47.81248" lon="-3.4146">
        <ele>-23.58</ele>
        <time>2018-05-31T12:29:48Z</time>
      </trkpt>
      <trkpt lat="47.81229" lon="-3.41463">
        <ele>-23.96</ele>
        <time>2018-05-31T12:30:01Z</time>
      </trkpt>
      <trkpt lat="47.81222" lon="-3.41461">
        <ele>-24.3</ele>
        <time>2018-05-31T12:30:08Z</time>
      </trkpt>
      <trkpt lat="47.8121" lon="-3.41455">
        <ele>-23.19</ele>
        <time>2018-05-31T12:30:18Z</time>
      </trkpt>
      <trkpt lat="47.81205" lon="-3.41453">
        <ele>-22.7</ele>
        <time>2018-05-31T12:30:22Z</time>
      </trkpt>
      <trkpt lat="47.81195" lon="-3.41447">
        <ele>-23.06</ele>
        <time>2018-05-31T12:30:34Z</time>
      </trkpt>
      <trkpt lat="47.81189" lon="-3.41446">
        <ele>-22.78</ele>
        <time>2018-05-31T12:30:40Z</time>
      </trkpt>
      <trkpt lat="47.81181" lon="-3.41438">
        <ele>-22.99</ele>
        <time>2018-05-31T12:30:49Z</time>
      </trkpt>
      <trkpt lat="47.8118" lon="-3.41436">
        <ele>-22.69</ele>
        <time>2018-05-31T12:30:51Z</time>
      </trkpt>
      <trkpt lat="47.81174" lon="-3.41432">
        <ele>-21.71</ele>
        <time>2018-05-31T12:30:56Z</time>
      </trkpt>
      <trkpt lat="47.81171" lon="-3.41429">
        <ele>-21.59</ele>
        <time>2018-05-31T12:30:58Z</time>
      </trkpt>
      <trkpt lat="47.81167" lon="-3.41427">
        <ele>-21.56</ele>
        <time>2018-05-31T12:31:00Z</time>
      </trkpt>
      <trkpt lat="47.81156" lon="-3.4142">
        <ele>-21.66</ele>
        <time>2018-05-31T12:31:04Z</time>
      </trkpt>
      <trkpt lat="47.81147" lon="-3.41413">
        <ele>-22.16</ele>
        <time>2018-05-31T12:31:10Z</time>
      </trkpt>
      <trkpt lat="47.81136" lon="-3.41401">
        <ele>-22.93</ele>
        <time>2018-05-31T12:31:18Z</time>
      </trkpt>
      <trkpt lat="47.81128" lon="-3.41385">
        <ele>-23.58</ele>
        <time>2018-05-31T12:31:25Z</time>
      </trkpt>
      <trkpt lat="47.81123" lon="-3.41372">
        <ele>-23.95</ele>
        <time>2018-05-31T12:31:30Z</time>
      </trkpt>
      <trkpt lat="47.81121" lon="-3.41367">
        <ele>-24.11</ele>
        <time>2018-05-31T12:31:32Z</time>
      </trkpt>
      <trkpt lat="47.81118" lon="-3.41358">
        <ele>-24.07</ele>
        <time>2018-05-31T12:31:36Z</time>
      </trkpt>
      <trkpt lat="47.81118" lon="-3.41355">
        <ele>-23.95</ele>
        <time>2018-05-31T12:31:38Z</time>
      </trkpt>
      <trkpt lat="47.81119" lon="-3.41346">
        <ele>-23.59</ele>
        <time>2018-05-31T12:31:42Z</time>
      </trkpt>
      <trkpt lat="47.81119" lon="-3.4134">
        <ele>-23.29</ele>
        <time>2018-05-31T12:31:45Z</time>
      </trkpt>
      <trkpt lat="47.81123" lon="-3.41328">
        <ele>-22.29</ele>
        <time>2018-05-31T12:31:55Z</time>
      </trkpt>
      <trkpt lat="47.81125" lon="-3.41325">
        <ele>-21.86</ele>
        <time>2018-05-31T12:31:58Z</time>
      </trkpt>
      <trkpt lat="47.81127" lon="-3.41323">
        <ele>-21.58</ele>
        <time>2018-05-31T12:32:00Z</time>
      </trkpt>
      <trkpt lat="47.8113" lon="-3.41321">
        <ele>-21.19</ele>
        <time>2018-05-31T12:32:02Z</time>
      </trkpt>
      <trkpt lat="47.81137" lon="-3.41315">
        <ele>-20.47</ele>
        <time>2018-05-31T12:32:08Z</time>
      </trkpt>
      <trkpt lat="47.81138" lon="-3.41313">
        <ele>-20.22</ele>
        <time>2018-05-31T12:32:10Z</time>
      </trkpt>
      <trkpt lat="47.81141" lon="-3.41304">
        <ele>-19.62</ele>
        <time>2018-05-31T12:32:14Z</time>
      </trkpt>
      <trkpt lat="47.81143" lon="-3.41281">
        <ele>-19.05</ele>
        <time>2018-05-31T12:32:23Z</time>
      </trkpt>
      <trkpt lat="47.81143" lon="-3.41258">
        <ele>-18.44</ele>
        <time>2018-05-31T12:32:34Z</time>
      </trkpt>
      <trkpt lat="47.81134" lon="-3.4123">
        <ele>-17.52</ele>
        <time>2018-05-31T12:32:46Z</time>
      </trkpt>
      <trkpt lat="47.81129" lon="-3.41201">
        <ele>-16.18</ele>
        <time>2018-05-31T12:32:59Z</time>
      </trkpt>
      <trkpt lat="47.8112" lon="-3.41169">
        <ele>-14.74</ele>
        <time>2018-05-31T12:33:13Z</time>
      </trkpt>
      <trkpt lat="47.81117" lon="-3.41134">
        <ele>-13.13</ele>
        <time>2018-05-31T12:33:32Z</time>
      </trkpt>
      <trkpt lat="47.81114" lon="-3.41124">
        <ele>-12.96</ele>
        <time>2018-05-31T12:33:38Z</time>
      </trkpt>
      <trkpt lat="47.81118" lon="-3.41074">
        <ele>-12.57</ele>
        <time>2018-05-31T12:33:57Z</time>
      </trkpt>
      <trkpt lat="47.81129" lon="-3.41032">
        <ele>-12.75</ele>
        <time>2018-05-31T12:34:13Z</time>
      </trkpt>
      <trkpt lat="47.81129" lon="-3.41015">
        <ele>-12.68</ele>
        <time>2018-05-31T12:34:20Z</time>
      </trkpt>
      <trkpt lat="47.81132" lon="-3.40997">
        <ele>-12.67</ele>
        <time>2018-05-31T12:34:30Z</time>
      </trkpt>
      <trkpt lat="47.8113" lon="-3.4097">
        <ele>-12.67</ele>
        <time>2018-05-31T12:34:44Z</time>
      </trkpt>
      <trkpt lat="47.81134" lon="-3.40962">
        <ele>-12.91</ele>
        <time>2018-05-31T12:34:53Z</time>
      </trkpt>
      <trkpt lat="47.81137" lon="-3.40961">
        <ele>-12.82</ele>
        <time>2018-05-31T12:34:57Z</time>
      </trkpt>
      <trkpt lat="47.81132" lon="-3.40955">
        <ele>-12.78</ele>
        <time>2018-05-31T12:35:00Z</time>
      </trkpt>
      <trkpt lat="47.81133" lon="-3.40933">
        <ele>-12.11</ele>
        <time>2018-05-31T12:35:14Z</time>
      </trkpt>
      <trkpt lat="47.81135" lon="-3.40931">
        <ele>-11.94</ele>
        <time>2018-05-31T12:35:16Z</time>
      </trkpt>
      <trkpt lat="47.81185" lon="-3.40895">
        <ele>-10.2</ele>
        <time>2018-05-31T12:35:51Z</time>
      </trkpt>
      <trkpt lat="47.81197" lon="-3.40881">
        <ele>-9.58</ele>
        <time>2018-05-31T12:36:01Z</time>
      </trkpt>
      <trkpt lat="47.8124" lon="-3.40826">
        <ele>-7.99</ele>
        <time>2018-05-31T12:36:37Z</time>
      </trkpt>
      <trkpt lat="47.81243" lon="-3.40821">
        <ele>-7.8</ele>
        <time>2018-05-31T12:36:40Z</time>
      </trkpt>
      <trkpt lat="47.81246" lon="-3.40813">
        <ele>-7.6</ele>
        <time>2018-05-31T12:36:44Z</time>
      </trkpt>
      <trkpt lat="47.81247" lon="-3.40808">
        <ele>-7.5</ele>
        <time>2018-05-31T12:36:47Z</time>
      </trkpt>
      <trkpt lat="47.81256" lon="-3.40793">
        <ele>-6.72</ele>
        <time>2018-05-31T12:36:57Z</time>
      </trkpt>
      <trkpt lat="47.81268" lon="-3.40785">
        <ele>-6.66</ele>
        <time>2018-05-31T12:37:05Z</time>
      </trkpt>
      <trkpt lat="47.81278" lon="-3.40779">
        <ele>-6.41</ele>
        <time>2018-05-31T12:37:22Z</time>
      </trkpt>
      <trkpt lat="47.81286" lon="-3.4078">
        <ele>-6.2</ele>
        <time>2018-05-31T12:37:33Z</time>
      </trkpt>
      <trkpt lat="47.81291" lon="-3.40779">
        <ele>-5.98</ele>
        <time>2018-05-31T12:37:44Z</time>
      </trkpt>
      <trkpt lat="47.81307" lon="-3.40775">
        <ele>-6.08</ele>
        <time>2018-05-31T12:37:55Z</time>
      </trkpt>
      <trkpt lat="47.8131" lon="-3.40776">
        <ele>-6.13</ele>
        <time>2018-05-31T12:37:57Z</time>
      </trkpt>
      <trkpt lat="47.81328" lon="-3.40777">
        <ele>-6.13</ele>
        <time>2018-05-31T12:38:08Z</time>
      </trkpt>
      <trkpt lat="47.81363" lon="-3.40774">
        <ele>-5.1</ele>
        <time>2018-05-31T12:38:31Z</time>
      </trkpt>
      <trkpt lat="47.81371" lon="-3.40768">
        <ele>-4.51</ele>
        <time>2018-05-31T12:38:35Z</time>
      </trkpt>
      <trkpt lat="47.81384" lon="-3.40768">
        <ele>-3.66</ele>
        <time>2018-05-31T12:38:44Z</time>
      </trkpt>
      <trkpt lat="47.81394" lon="-3.4077">
        <ele>-3.34</ele>
        <time>2018-05-31T12:38:50Z</time>
      </trkpt>
      <trkpt lat="47.81406" lon="-3.40768">
        <ele>-3.29</ele>
        <time>2018-05-31T12:38:57Z</time>
      </trkpt>
      <trkpt lat="47.81409" lon="-3.40767">
        <ele>-3.3</ele>
        <time>2018-05-31T12:39:00Z</time>
      </trkpt>
      <trkpt lat="47.81414" lon="-3.40768">
        <ele>-3.31</ele>
        <time>2018-05-31T12:39:02Z</time>
      </trkpt>
      <trkpt lat="47.81416" lon="-3.40766">
        <ele>-3.3</ele>
        <time>2018-05-31T12:39:04Z</time>
      </trkpt>
      <trkpt lat="47.81421" lon="-3.40766">
        <ele>-3.2</ele>
        <time>2018-05-31T12:39:06Z</time>
      </trkpt>
      <trkpt lat="47.81434" lon="-3.40763">
        <ele>-2.78</ele>
        <time>2018-05-31T12:39:15Z</time>
      </trkpt>
      <trkpt lat="47.81437" lon="-3.40761">
        <ele>-2.77</ele>
        <time>2018-05-31T12:39:18Z</time>
      </trkpt>
      <trkpt lat="47.81452" lon="-3.40756">
        <ele>-2.59</ele>
        <time>2018-05-31T12:39:27Z</time>
      </trkpt>
      <trkpt lat="47.81458" lon="-3.4075">
        <ele>-2.34</ele>
        <time>2018-05-31T12:39:34Z</time>
      </trkpt>
      <trkpt lat="47.81468" lon="-3.40747">
        <ele>-1.99</ele>
        <time>2018-05-31T12:39:40Z</time>
      </trkpt>
      <trkpt lat="47.81472" lon="-3.40745">
        <ele>-1.94</ele>
        <time>2018-05-31T12:39:43Z</time>
      </trkpt>
      <trkpt lat="47.81496" lon="-3.40739">
        <ele>-1.25</ele>
        <time>2018-05-31T12:40:00Z</time>
      </trkpt>
      <trkpt lat="47.81509" lon="-3.40727">
        <ele>-0.67</ele>
        <time>2018-05-31T12:40:11Z</time>
      </trkpt>
      <trkpt lat="47.81534" lon="-3.40719">
        <ele>-0.16</ele>
        <time>2018-05-31T12:40:25Z</time>
      </trkpt>
      <trkpt lat="47.81536" lon="-3.40718">
        <ele>-0.13</ele>
        <time>2018-05-31T12:40:26Z</time>
      </trkpt>
      <trkpt lat="47.81556" lon="-3.40714">
        <ele>0.29</ele>
        <time>2018-05-31T12:40:35Z</time>
      </trkpt>
      <trkpt lat="47.81567" lon="-3.40712">
        <ele>0.7</ele>
        <time>2018-05-31T12:40:42Z</time>
      </trkpt>
      <trkpt lat="47.81574" lon="-3.40711">
        <ele>0.76</ele>
        <time>2018-05-31T12:40:45Z</time>
      </trkpt>
      <trkpt lat="47.81586" lon="-3.40706">
        <ele>0.63</ele>
        <time>2018-05-31T12:40:53Z</time>
      </trkpt>
      <trkpt lat="47.81589" lon="-3.40706">
        <ele>0.67</ele>
        <time>2018-05-31T12:40:55Z</time>
      </trkpt>
      <trkpt lat="47.81599" lon="-3.40696">
        <ele>0.93</ele>
        <time>2018-05-31T12:41:02Z</time>
      </trkpt>
      <trkpt lat="47.81607" lon="-3.40694">
        <ele>0.98</ele>
        <time>2018-05-31T12:41:06Z</time>
      </trkpt>
      <trkpt lat="47.81612" lon="-3.40693">
        <ele>0.95</ele>
        <time>2018-05-31T12:41:10Z</time>
      </trkpt>
      <trkpt lat="47.81619" lon="-3.40692">
        <ele>0.94</ele>
        <time>2018-05-31T12:41:13Z</time>
      </trkpt>
      <trkpt lat="47.81628" lon="-3.40693">
        <ele>0.91</ele>
        <time>2018-05-31T12:41:18Z</time>
      </trkpt>
      <trkpt lat="47.81636" lon="-3.40691">
        <ele>0.95</ele>
        <time>2018-05-31T12:41:23Z</time>
      </trkpt>
      <trkpt lat="47.81651" lon="-3.40683">
        <ele>0.44</ele>
        <time>2018-05-31T12:41:34Z</time>
      </trkpt>
      <trkpt lat="47.81653" lon="-3.40679">
        <ele>0.36</ele>
        <time>2018-05-31T12:41:38Z</time>
      </trkpt>
      <trkpt lat="47.81658" lon="-3.40679">
        <ele>0.31</ele>
        <time>2018-05-31T12:41:40Z</time>
      </trkpt>
      <trkpt lat="47.81672" lon="-3.40679">
        <ele>0.02</ele>
        <time>2018-05-31T12:41:46Z</time>
      </trkpt>
      <trkpt lat="47.81683" lon="-3.40679">
        <ele>-0.07</ele>
        <time>2018-05-31T12:41:50Z</time>
      </trkpt>
      <trkpt lat="47.81687" lon="-3.40676">
        <ele>-0.2</ele>
        <time>2018-05-31T12:41:54Z</time>
      </trkpt>
      <trkpt lat="47.81704" lon="-3.40668">
        <ele>-0.84</ele>
        <time>2018-05-31T12:42:08Z</time>
      </trkpt>
      <trkpt lat="47.81736" lon="-3.40668">
        <ele>-1.75</ele>
        <time>2018-05-31T12:42:26Z</time>
      </trkpt>
      <trkpt lat="47.81761" lon="-3.40673">
        <ele>-2.43</ele>
        <time>2018-05-31T12:42:39Z</time>
      </trkpt>
      <trkpt lat="47.81779" lon="-3.40673">
        <ele>-2.81</ele>
        <time>2018-05-31T12:42:47Z</time>
      </trkpt>
      <trkpt lat="47.81791" lon="-3.40671">
        <ele>-3.27</ele>
        <time>2018-05-31T12:42:55Z</time>
      </trkpt>
      <trkpt lat="47.81816" lon="-3.40671">
        <ele>-5.04</ele>
        <time>2018-05-31T12:43:14Z</time>
      </trkpt>
      <trkpt lat="47.81827" lon="-3.40678">
        <ele>-6.41</ele>
        <time>2018-05-31T12:43:28Z</time>
      </trkpt>
      <trkpt lat="47.81897" lon="-3.40715">
        <ele>-5.87</ele>
        <time>2018-05-31T12:43:57Z</time>
      </trkpt>
      <trkpt lat="47.81904" lon="-3.40716">
        <ele>-5.72</ele>
        <time>2018-05-31T12:44:04Z</time>
      </trkpt>
      <trkpt lat="47.81909" lon="-3.40718">
        <ele>-5.68</ele>
        <time>2018-05-31T12:44:07Z</time>
      </trkpt>
      <trkpt lat="47.81911" lon="-3.40719">
        <ele>-5.67</ele>
        <time>2018-05-31T12:44:08Z</time>
      </trkpt>
      <trkpt lat="47.81914" lon="-3.4072">
        <ele>-5.7</ele>
        <time>2018-05-31T12:44:10Z</time>
      </trkpt>
      <trkpt lat="47.81915" lon="-3.4072">
        <ele>-5.73</ele>
        <time>2018-05-31T12:44:11Z</time>
      </trkpt>
      <trkpt lat="47.81917" lon="-3.4072">
        <ele>-5.82</ele>
        <time>2018-05-31T12:44:13Z</time>
      </trkpt>
      <trkpt lat="47.81919" lon="-3.40721">
        <ele>-5.85</ele>
        <time>2018-05-31T12:44:14Z</time>
      </trkpt>
      <trkpt lat="47.81921" lon="-3.40721">
        <ele>-5.89</ele>
        <time>2018-05-31T12:44:15Z</time>
      </trkpt>
      <trkpt lat="47.81923" lon="-3.40722">
        <ele>-5.96</ele>
        <time>2018-05-31T12:44:16Z</time>
      </trkpt>
      <trkpt lat="47.81925" lon="-3.40722">
        <ele>-6.03</ele>
        <time>2018-05-31T12:44:17Z</time>
      </trkpt>
      <trkpt lat="47.81932" lon="-3.40721">
        <ele>-6.31</ele>
        <time>2018-05-31T12:44:21Z</time>
      </trkpt>
      <trkpt lat="47.81935" lon="-3.40723">
        <ele>-6.4</ele>
        <time>2018-05-31T12:44:23Z</time>
      </trkpt>
      <trkpt lat="47.81937" lon="-3.40724">
        <ele>-6.45</ele>
        <time>2018-05-31T12:44:24Z</time>
      </trkpt>
      <trkpt lat="47.81952" lon="-3.40722">
        <ele>-7.05</ele>
        <time>2018-05-31T12:44:36Z</time>
      </trkpt>
      <trkpt lat="47.81953" lon="-3.40722">
        <ele>-7.05</ele>
        <time>2018-05-31T12:44:38Z</time>
      </trkpt>
      <trkpt lat="47.81958" lon="-3.40723">
        <ele>-7.01</ele>
        <time>2018-05-31T12:44:41Z</time>
      </trkpt>
      <trkpt lat="47.81969" lon="-3.40722">
        <ele>-7.88</ele>
        <time>2018-05-31T12:44:48Z</time>
      </trkpt>
      <trkpt lat="47.8197" lon="-3.40723">
        <ele>-8.01</ele>
        <time>2018-05-31T12:44:49Z</time>
      </trkpt>
      <trkpt lat="47.81972" lon="-3.40723">
        <ele>-8.08</ele>
        <time>2018-05-31T12:44:50Z</time>
      </trkpt>
      <trkpt lat="47.81974" lon="-3.40724">
        <ele>-8.15</ele>
        <time>2018-05-31T12:44:51Z</time>
      </trkpt>
      <trkpt lat="47.81975" lon="-3.40724">
        <ele>-8.25</ele>
        <time>2018-05-31T12:44:52Z</time>
      </trkpt>
      <trkpt lat="47.81978" lon="-3.40727">
        <ele>-8.29</ele>
        <time>2018-05-31T12:44:55Z</time>
      </trkpt>
      <trkpt lat="47.81982" lon="-3.40724">
        <ele>-8.31</ele>
        <time>2018-05-31T12:44:56Z</time>
      </trkpt>
      <trkpt lat="47.81986" lon="-3.40725">
        <ele>-8.48</ele>
        <time>2018-05-31T12:44:59Z</time>
      </trkpt>
      <trkpt lat="47.8199" lon="-3.40729">
        <ele>-8.64</ele>
        <time>2018-05-31T12:45:02Z</time>
      </trkpt>
      <trkpt lat="47.81991" lon="-3.40729">
        <ele>-8.68</ele>
        <time>2018-05-31T12:45:03Z</time>
      </trkpt>
      <trkpt lat="47.81992" lon="-3.4073">
        <ele>-8.72</ele>
        <time>2018-05-31T12:45:04Z</time>
      </trkpt>
      <trkpt lat="47.82008" lon="-3.40743">
        <ele>-9.34</ele>
        <time>2018-05-31T12:45:14Z</time>
      </trkpt>
      <trkpt lat="47.8201" lon="-3.40745">
        <ele>-9.41</ele>
        <time>2018-05-31T12:45:15Z</time>
      </trkpt>
      <trkpt lat="47.82011" lon="-3.40747">
        <ele>-9.53</ele>
        <time>2018-05-31T12:45:16Z</time>
      </trkpt>
      <trkpt lat="47.82014" lon="-3.40748">
        <ele>-9.62</ele>
        <time>2018-05-31T12:45:18Z</time>
      </trkpt>
      <trkpt lat="47.82017" lon="-3.40751">
        <ele>-9.75</ele>
        <time>2018-05-31T12:45:20Z</time>
      </trkpt>
      <trkpt lat="47.82018" lon="-3.40752">
        <ele>-9.84</ele>
        <time>2018-05-31T12:45:21Z</time>
      </trkpt>
      <trkpt lat="47.8202" lon="-3.40753">
        <ele>-9.91</ele>
        <time>2018-05-31T12:45:22Z</time>
      </trkpt>
      <trkpt lat="47.82021" lon="-3.40753">
        <ele>-10.05</ele>
        <time>2018-05-31T12:45:24Z</time>
      </trkpt>
      <trkpt lat="47.82023" lon="-3.40753">
        <ele>-10.12</ele>
        <time>2018-05-31T12:45:25Z</time>
      </trkpt>
      <trkpt lat="47.82025" lon="-3.40754">
        <ele>-10.16</ele>
        <time>2018-05-31T12:45:26Z</time>
      </trkpt>
      <trkpt lat="47.82026" lon="-3.40753">
        <ele>-10.18</ele>
        <time>2018-05-31T12:45:27Z</time>
      </trkpt>
      <trkpt lat="47.82033" lon="-3.40756">
        <ele>-10.41</ele>
        <time>2018-05-31T12:45:32Z</time>
      </trkpt>
      <trkpt lat="47.82037" lon="-3.40759">
        <ele>-10.46</ele>
        <time>2018-05-31T12:45:34Z</time>
      </trkpt>
      <trkpt lat="47.82039" lon="-3.40762">
        <ele>-10.51</ele>
        <time>2018-05-31T12:45:35Z</time>
      </trkpt>
      <trkpt lat="47.82041" lon="-3.40764">
        <ele>-10.55</ele>
        <time>2018-05-31T12:45:36Z</time>
      </trkpt>
      <trkpt lat="47.82043" lon="-3.40766">
        <ele>-10.59</ele>
        <time>2018-05-31T12:45:37Z</time>
      </trkpt>
      <trkpt lat="47.82045" lon="-3.40767">
        <ele>-10.65</ele>
        <time>2018-05-31T12:45:38Z</time>
      </trkpt>
      <trkpt lat="47.82053" lon="-3.40774">
        <ele>-10.92</ele>
        <time>2018-05-31T12:45:43Z</time>
      </trkpt>
      <trkpt lat="47.82058" lon="-3.40778">
        <ele>-11.08</ele>
        <time>2018-05-31T12:45:46Z</time>
      </trkpt>
      <trkpt lat="47.8206" lon="-3.40779">
        <ele>-11.12</ele>
        <time>2018-05-31T12:45:47Z</time>
      </trkpt>
      <trkpt lat="47.82061" lon="-3.4078">
        <ele>-11.15</ele>
        <time>2018-05-31T12:45:48Z</time>
      </trkpt>
      <trkpt lat="47.82063" lon="-3.40781">
        <ele>-11.19</ele>
        <time>2018-05-31T12:45:49Z</time>
      </trkpt>
      <trkpt lat="47.82064" lon="-3.40782">
        <ele>-11.23</ele>
        <time>2018-05-31T12:45:50Z</time>
      </trkpt>
      <trkpt lat="47.82067" lon="-3.40784">
        <ele>-11.35</ele>
        <time>2018-05-31T12:45:52Z</time>
      </trkpt>
      <trkpt lat="47.82069" lon="-3.40785">
        <ele>-11.4</ele>
        <time>2018-05-31T12:45:53Z</time>
      </trkpt>
      <trkpt lat="47.82081" lon="-3.40798">
        <ele>-11.69</ele>
        <time>2018-05-31T12:46:00Z</time>
      </trkpt>
      <trkpt lat="47.82084" lon="-3.40798">
        <ele>-11.77</ele>
        <time>2018-05-31T12:46:03Z</time>
      </trkpt>
      <trkpt lat="47.82086" lon="-3.40799">
        <ele>-11.99</ele>
        <time>2018-05-31T12:46:07Z</time>
      </trkpt>
      <trkpt lat="47.82108" lon="-3.40813">
        <ele>-12.31</ele>
        <time>2018-05-31T12:46:20Z</time>
      </trkpt>
      <trkpt lat="47.8211" lon="-3.40815">
        <ele>-12.33</ele>
        <time>2018-05-31T12:46:21Z</time>
      </trkpt>
      <trkpt lat="47.82117" lon="-3.4082">
        <ele>-12.71</ele>
        <time>2018-05-31T12:46:25Z</time>
      </trkpt>
      <trkpt lat="47.82122" lon="-3.40822">
        <ele>-13.57</ele>
        <time>2018-05-31T12:46:36Z</time>
      </trkpt>
      <trkpt lat="47.82138" lon="-3.4084">
        <ele>-14.03</ele>
        <time>2018-05-31T12:46:48Z</time>
      </trkpt>
      <trkpt lat="47.82142" lon="-3.40844">
        <ele>-14.05</ele>
        <time>2018-05-31T12:46:50Z</time>
      </trkpt>
      <trkpt lat="47.82141" lon="-3.40845">
        <ele>-14.06</ele>
        <time>2018-05-31T12:46:51Z</time>
      </trkpt>
      <trkpt lat="47.82145" lon="-3.40853">
        <ele>-14.08</ele>
        <time>2018-05-31T12:46:54Z</time>
      </trkpt>
      <trkpt lat="47.82157" lon="-3.40865">
        <ele>-14.29</ele>
        <time>2018-05-31T12:47:05Z</time>
      </trkpt>
      <trkpt lat="47.82163" lon="-3.40871">
        <ele>-14.36</ele>
        <time>2018-05-31T12:47:10Z</time>
      </trkpt>
      <trkpt lat="47.82166" lon="-3.40873">
        <ele>-14.38</ele>
        <time>2018-05-31T12:47:12Z</time>
      </trkpt>
      <trkpt lat="47.82184" lon="-3.4089">
        <ele>-14.56</ele>
        <time>2018-05-31T12:47:22Z</time>
      </trkpt>
      <trkpt lat="47.82194" lon="-3.40897">
        <ele>-14.62</ele>
        <time>2018-05-31T12:47:30Z</time>
      </trkpt>
      <trkpt lat="47.82207" lon="-3.40911">
        <ele>-14.61</ele>
        <time>2018-05-31T12:47:42Z</time>
      </trkpt>
      <trkpt lat="47.82216" lon="-3.40919">
        <ele>-14.6</ele>
        <time>2018-05-31T12:47:47Z</time>
      </trkpt>
      <trkpt lat="47.82217" lon="-3.40921">
        <ele>-14.59</ele>
        <time>2018-05-31T12:47:48Z</time>
      </trkpt>
      <trkpt lat="47.82238" lon="-3.40944">
        <ele>-14.77</ele>
        <time>2018-05-31T12:47:58Z</time>
      </trkpt>
      <trkpt lat="47.82241" lon="-3.40946">
        <ele>-14.77</ele>
        <time>2018-05-31T12:47:59Z</time>
      </trkpt>
      <trkpt lat="47.82256" lon="-3.40964">
        <ele>-14.73</ele>
        <time>2018-05-31T12:48:10Z</time>
      </trkpt>
      <trkpt lat="47.82258" lon="-3.40965">
        <ele>-14.75</ele>
        <time>2018-05-31T12:48:11Z</time>
      </trkpt>
      <trkpt lat="47.8226" lon="-3.40967">
        <ele>-14.77</ele>
        <time>2018-05-31T12:48:12Z</time>
      </trkpt>
      <trkpt lat="47.82262" lon="-3.4097">
        <ele>-14.81</ele>
        <time>2018-05-31T12:48:15Z</time>
      </trkpt>
      <trkpt lat="47.82265" lon="-3.40973">
        <ele>-14.87</ele>
        <time>2018-05-31T12:48:18Z</time>
      </trkpt>
      <trkpt lat="47.82268" lon="-3.40977">
        <ele>-14.99</ele>
        <time>2018-05-31T12:48:23Z</time>
      </trkpt>
      <trkpt lat="47.82285" lon="-3.41">
        <ele>-15.41</ele>
        <time>2018-05-31T12:48:37Z</time>
      </trkpt>
      <trkpt lat="47.82302" lon="-3.4102">
        <ele>-15.48</ele>
        <time>2018-05-31T12:48:50Z</time>
      </trkpt>
      <trkpt lat="47.82332" lon="-3.41039">
        <ele>-15.2</ele>
        <time>2018-05-31T12:49:09Z</time>
      </trkpt>
      <trkpt lat="47.82335" lon="-3.41039">
        <ele>-15.19</ele>
        <time>2018-05-31T12:49:10Z</time>
      </trkpt>
      <trkpt lat="47.82337" lon="-3.41039">
        <ele>-15.16</ele>
        <time>2018-05-31T12:49:11Z</time>
      </trkpt>
      <trkpt lat="47.82338" lon="-3.4104">
        <ele>-15.16</ele>
        <time>2018-05-31T12:49:12Z</time>
      </trkpt>
      <trkpt lat="47.82371" lon="-3.41053">
        <ele>-14.65</ele>
        <time>2018-05-31T12:49:31Z</time>
      </trkpt>
      <trkpt lat="47.8238" lon="-3.41052">
        <ele>-14.79</ele>
        <time>2018-05-31T12:49:37Z</time>
      </trkpt>
      <trkpt lat="47.824" lon="-3.41047">
        <ele>-14.43</ele>
        <time>2018-05-31T12:49:48Z</time>
      </trkpt>
      <trkpt lat="47.82426" lon="-3.41039">
        <ele>-14.37</ele>
        <time>2018-05-31T12:50:04Z</time>
      </trkpt>
      <trkpt lat="47.82429" lon="-3.41038">
        <ele>-14.49</ele>
        <time>2018-05-31T12:50:06Z</time>
      </trkpt>
      <trkpt lat="47.82509" lon="-3.4099">
        <ele>-15.82</ele>
        <time>2018-05-31T12:51:04Z</time>
      </trkpt>
      <trkpt lat="47.82532" lon="-3.40977">
        <ele>-15.56</ele>
        <time>2018-05-31T12:51:22Z</time>
      </trkpt>
      <trkpt lat="47.82553" lon="-3.40969">
        <ele>-14.88</ele>
        <time>2018-05-31T12:51:36Z</time>
      </trkpt>
      <trkpt lat="47.82618" lon="-3.40952">
        <ele>-13.07</ele>
        <time>2018-05-31T12:52:09Z</time>
      </trkpt>
      <trkpt lat="47.8262" lon="-3.40949">
        <ele>-12.93</ele>
        <time>2018-05-31T12:52:11Z</time>
      </trkpt>
      <trkpt lat="47.82624" lon="-3.40947">
        <ele>-12.77</ele>
        <time>2018-05-31T12:52:14Z</time>
      </trkpt>
      <trkpt lat="47.82637" lon="-3.40944">
        <ele>-12.19</ele>
        <time>2018-05-31T12:52:22Z</time>
      </trkpt>
      <trkpt lat="47.82653" lon="-3.40937">
        <ele>-11.95</ele>
        <time>2018-05-31T12:52:30Z</time>
      </trkpt>
      <trkpt lat="47.82671" lon="-3.40927">
        <ele>-11.29</ele>
        <time>2018-05-31T12:52:40Z</time>
      </trkpt>
      <trkpt lat="47.82675" lon="-3.40926">
        <ele>-11.15</ele>
        <time>2018-05-31T12:52:43Z</time>
      </trkpt>
      <trkpt lat="47.82679" lon="-3.40924">
        <ele>-11.09</ele>
        <time>2018-05-31T12:52:46Z</time>
      </trkpt>
      <trkpt lat="47.82695" lon="-3.40915">
        <ele>-10.76</ele>
        <time>2018-05-31T12:52:57Z</time>
      </trkpt>
      <trkpt lat="47.82701" lon="-3.40911">
        <ele>-10.56</ele>
        <time>2018-05-31T12:53:02Z</time>
      </trkpt>
      <trkpt lat="47.82705" lon="-3.4091">
        <ele>-10.29</ele>
        <time>2018-05-31T12:53:05Z</time>
      </trkpt>
      <trkpt lat="47.82711" lon="-3.40905">
        <ele>-10.14</ele>
        <time>2018-05-31T12:53:10Z</time>
      </trkpt>
      <trkpt lat="47.82717" lon="-3.40901">
        <ele>-9.98</ele>
        <time>2018-05-31T12:53:14Z</time>
      </trkpt>
      <trkpt lat="47.82721" lon="-3.409">
        <ele>-9.83</ele>
        <time>2018-05-31T12:53:17Z</time>
      </trkpt>
      <trkpt lat="47.82727" lon="-3.40897">
        <ele>-9.58</ele>
        <time>2018-05-31T12:53:21Z</time>
      </trkpt>
      <trkpt lat="47.82731" lon="-3.40894">
        <ele>-9.46</ele>
        <time>2018-05-31T12:53:24Z</time>
      </trkpt>
      <trkpt lat="47.8274" lon="-3.4089">
        <ele>-9.36</ele>
        <time>2018-05-31T12:53:30Z</time>
      </trkpt>
      <trkpt lat="47.82743" lon="-3.40891">
        <ele>-9.19</ele>
        <time>2018-05-31T12:53:33Z</time>
      </trkpt>
      <trkpt lat="47.82753" lon="-3.40886">
        <ele>-8.87</ele>
        <time>2018-05-31T12:53:40Z</time>
      </trkpt>
      <trkpt lat="47.82758" lon="-3.40882">
        <ele>-8.77</ele>
        <time>2018-05-31T12:53:43Z</time>
      </trkpt>
      <trkpt lat="47.82761" lon="-3.40881">
        <ele>-8.7</ele>
        <time>2018-05-31T12:53:45Z</time>
      </trkpt>
      <trkpt lat="47.82766" lon="-3.40878">
        <ele>-8.59</ele>
        <time>2018-05-31T12:53:48Z</time>
      </trkpt>
      <trkpt lat="47.82771" lon="-3.40874">
        <ele>-8.44</ele>
        <time>2018-05-31T12:53:51Z</time>
      </trkpt>
      <trkpt lat="47.82779" lon="-3.40868">
        <ele>-8.22</ele>
        <time>2018-05-31T12:53:56Z</time>
      </trkpt>
      <trkpt lat="47.82786" lon="-3.40864">
        <ele>-8.13</ele>
        <time>2018-05-31T12:54:00Z</time>
      </trkpt>
      <trkpt lat="47.82797" lon="-3.40855">
        <ele>-7.95</ele>
        <time>2018-05-31T12:54:13Z</time>
      </trkpt>
      <trkpt lat="47.82797" lon="-3.40851">
        <ele>-7.84</ele>
        <time>2018-05-31T12:54:19Z</time>
      </trkpt>
      <trkpt lat="47.82801" lon="-3.40845">
        <ele>-7.86</ele>
        <time>2018-05-31T12:54:33Z</time>
      </trkpt>
      <trkpt lat="47.82804" lon="-3.40843">
        <ele>-7.89</ele>
        <time>2018-05-31T12:54:35Z</time>
      </trkpt>
      <trkpt lat="47.82819" lon="-3.40832">
        <ele>-7.74</ele>
        <time>2018-05-31T12:54:48Z</time>
      </trkpt>
      <trkpt lat="47.82826" lon="-3.40825">
        <ele>-7.67</ele>
        <time>2018-05-31T12:54:55Z</time>
      </trkpt>
      <trkpt lat="47.8283" lon="-3.4082">
        <ele>-7.54</ele>
        <time>2018-05-31T12:54:59Z</time>
      </trkpt>
      <trkpt lat="47.82838" lon="-3.4081">
        <ele>-7.59</ele>
        <time>2018-05-31T12:55:05Z</time>
      </trkpt>
      <trkpt lat="47.82841" lon="-3.40804">
        <ele>-7.72</ele>
        <time>2018-05-31T12:55:09Z</time>
      </trkpt>
      <trkpt lat="47.82849" lon="-3.40793">
        <ele>-7.75</ele>
        <time>2018-05-31T12:55:17Z</time>
      </trkpt>
      <trkpt lat="47.82853" lon="-3.40789">
        <ele>-7.73</ele>
        <time>2018-05-31T12:55:20Z</time>
      </trkpt>
      <trkpt lat="47.82862" lon="-3.40781">
        <ele>-7.58</ele>
        <time>2018-05-31T12:55:27Z</time>
      </trkpt>
      <trkpt lat="47.82867" lon="-3.40776">
        <ele>-7.55</ele>
        <time>2018-05-31T12:55:31Z</time>
      </trkpt>
      <trkpt lat="47.82875" lon="-3.40765">
        <ele>-7.59</ele>
        <time>2018-05-31T12:55:38Z</time>
      </trkpt>
      <trkpt lat="47.82891" lon="-3.40739">
        <ele>-7.7</ele>
        <time>2018-05-31T12:55:52Z</time>
      </trkpt>
      <trkpt lat="47.82901" lon="-3.40717">
        <ele>-7.59</ele>
        <time>2018-05-31T12:56:03Z</time>
      </trkpt>
      <trkpt lat="47.82907" lon="-3.4071">
        <ele>-7.5</ele>
        <time>2018-05-31T12:56:08Z</time>
      </trkpt>
      <trkpt lat="47.82909" lon="-3.40708">
        <ele>-7.48</ele>
        <time>2018-05-31T12:56:10Z</time>
      </trkpt>
      <trkpt lat="47.82924" lon="-3.40681">
        <ele>-6.96</ele>
        <time>2018-05-31T12:56:25Z</time>
      </trkpt>
      <trkpt lat="47.82945" lon="-3.4065">
        <ele>-6.71</ele>
        <time>2018-05-31T12:56:42Z</time>
      </trkpt>
      <trkpt lat="47.82961" lon="-3.40627">
        <ele>-6.45</ele>
        <time>2018-05-31T12:56:55Z</time>
      </trkpt>
      <trkpt lat="47.82977" lon="-3.40601">
        <ele>-5.93</ele>
        <time>2018-05-31T12:57:09Z</time>
      </trkpt>
      <trkpt lat="47.82996" lon="-3.40574">
        <ele>-5.54</ele>
        <time>2018-05-31T12:57:24Z</time>
      </trkpt>
      <trkpt lat="47.8301" lon="-3.40557">
        <ele>-4.83</ele>
        <time>2018-05-31T12:57:36Z</time>
      </trkpt>
      <trkpt lat="47.83013" lon="-3.40552">
        <ele>-4.57</ele>
        <time>2018-05-31T12:57:40Z</time>
      </trkpt>
      <trkpt lat="47.83018" lon="-3.40544">
        <ele>-4.35</ele>
        <time>2018-05-31T12:57:45Z</time>
      </trkpt>
      <trkpt lat="47.83019" lon="-3.40542">
        <ele>-4.26</ele>
        <time>2018-05-31T12:57:47Z</time>
      </trkpt>
      <trkpt lat="47.83025" lon="-3.40534">
        <ele>-3.97</ele>
        <time>2018-05-31T12:57:53Z</time>
      </trkpt>
      <trkpt lat="47.83039" lon="-3.40513">
        <ele>-2.98</ele>
        <time>2018-05-31T12:58:07Z</time>
      </trkpt>
      <trkpt lat="47.83044" lon="-3.40507">
        <ele>-2.78</ele>
        <time>2018-05-31T12:58:11Z</time>
      </trkpt>
      <trkpt lat="47.83058" lon="-3.40483">
        <ele>-2.08</ele>
        <time>2018-05-31T12:58:26Z</time>
      </trkpt>
      <trkpt lat="47.83059" lon="-3.40482">
        <ele>-2.03</ele>
        <time>2018-05-31T12:58:27Z</time>
      </trkpt>
      <trkpt lat="47.83062" lon="-3.40474">
        <ele>-1.85</ele>
        <time>2018-05-31T12:58:31Z</time>
      </trkpt>
      <trkpt lat="47.83065" lon="-3.4047">
        <ele>-1.67</ele>
        <time>2018-05-31T12:58:34Z</time>
      </trkpt>
      <trkpt lat="47.83069" lon="-3.40464">
        <ele>-1.53</ele>
        <time>2018-05-31T12:58:38Z</time>
      </trkpt>
      <trkpt lat="47.83077" lon="-3.40449">
        <ele>-1.14</ele>
        <time>2018-05-31T12:58:46Z</time>
      </trkpt>
      <trkpt lat="47.83096" lon="-3.4043">
        <ele>-0.63</ele>
        <time>2018-05-31T12:59:00Z</time>
      </trkpt>
      <trkpt lat="47.8312" lon="-3.40409">
        <ele>0.35</ele>
        <time>2018-05-31T12:59:15Z</time>
      </trkpt>
      <trkpt lat="47.83134" lon="-3.40394">
        <ele>0.9</ele>
        <time>2018-05-31T12:59:25Z</time>
      </trkpt>
      <trkpt lat="47.83149" lon="-3.40364">
        <ele>1.64</ele>
        <time>2018-05-31T12:59:43Z</time>
      </trkpt>
      <trkpt lat="47.83154" lon="-3.40348">
        <ele>1.96</ele>
        <time>2018-05-31T12:59:52Z</time>
      </trkpt>
      <trkpt lat="47.83156" lon="-3.40343">
        <ele>2.08</ele>
        <time>2018-05-31T12:59:55Z</time>
      </trkpt>
      <trkpt lat="47.8316" lon="-3.40306">
        <ele>2.93</ele>
        <time>2018-05-31T13:00:14Z</time>
      </trkpt>
      <trkpt lat="47.83163" lon="-3.40275">
        <ele>3.64</ele>
        <time>2018-05-31T13:00:28Z</time>
      </trkpt>
      <trkpt lat="47.83167" lon="-3.4024">
        <ele>4.37</ele>
        <time>2018-05-31T13:00:44Z</time>
      </trkpt>
      <trkpt lat="47.83169" lon="-3.40207">
        <ele>5.23</ele>
        <time>2018-05-31T13:00:59Z</time>
      </trkpt>
      <trkpt lat="47.83174" lon="-3.40167">
        <ele>5.9</ele>
        <time>2018-05-31T13:01:16Z</time>
      </trkpt>
      <trkpt lat="47.83177" lon="-3.40144">
        <ele>6.6</ele>
        <time>2018-05-31T13:01:27Z</time>
      </trkpt>
      <trkpt lat="47.8318" lon="-3.40138">
        <ele>6.84</ele>
        <time>2018-05-31T13:01:31Z</time>
      </trkpt>
      <trkpt lat="47.83179" lon="-3.40127">
        <ele>6.93</ele>
        <time>2018-05-31T13:01:36Z</time>
      </trkpt>
      <trkpt lat="47.8318" lon="-3.40123">
        <ele>6.91</ele>
        <time>2018-05-31T13:01:38Z</time>
      </trkpt>
      <trkpt lat="47.83173" lon="-3.401">
        <ele>6.76</ele>
        <time>2018-05-31T13:01:51Z</time>
      </trkpt>
      <trkpt lat="47.83169" lon="-3.40084">
        <ele>6.67</ele>
        <time>2018-05-31T13:01:59Z</time>
      </trkpt>
      <trkpt lat="47.83173" lon="-3.40079">
        <ele>6.48</ele>
        <time>2018-05-31T13:02:04Z</time>
      </trkpt>
      <trkpt lat="47.83179" lon="-3.40073">
        <ele>6.69</ele>
        <time>2018-05-31T13:02:10Z</time>
      </trkpt>
      <trkpt lat="47.83185" lon="-3.40066">
        <ele>7.23</ele>
        <time>2018-05-31T13:02:17Z</time>
      </trkpt>
      <trkpt lat="47.83197" lon="-3.40043">
        <ele>8.46</ele>
        <time>2018-05-31T13:02:33Z</time>
      </trkpt>
      <trkpt lat="47.83201" lon="-3.40036">
        <ele>8.68</ele>
        <time>2018-05-31T13:02:38Z</time>
      </trkpt>
      <trkpt lat="47.83201" lon="-3.39998">
        <ele>9.17</ele>
        <time>2018-05-31T13:02:54Z</time>
      </trkpt>
      <trkpt lat="47.832" lon="-3.39991">
        <ele>9.16</ele>
        <time>2018-05-31T13:02:58Z</time>
      </trkpt>
      <trkpt lat="47.83202" lon="-3.39963">
        <ele>8.86</ele>
        <time>2018-05-31T13:03:11Z</time>
      </trkpt>
      <trkpt lat="47.83206" lon="-3.39938">
        <ele>8.88</ele>
        <time>2018-05-31T13:03:23Z</time>
      </trkpt>
      <trkpt lat="47.8321" lon="-3.39926">
        <ele>8.98</ele>
        <time>2018-05-31T13:03:29Z</time>
      </trkpt>
      <trkpt lat="47.83212" lon="-3.39911">
        <ele>8.62</ele>
        <time>2018-05-31T13:03:35Z</time>
      </trkpt>
      <trkpt lat="47.8322" lon="-3.39881">
        <ele>8.3</ele>
        <time>2018-05-31T13:03:47Z</time>
      </trkpt>
      <trkpt lat="47.83221" lon="-3.39879">
        <ele>8.27</ele>
        <time>2018-05-31T13:03:48Z</time>
      </trkpt>
      <trkpt lat="47.83226" lon="-3.39864">
        <ele>8.05</ele>
        <time>2018-05-31T13:03:54Z</time>
      </trkpt>
      <trkpt lat="47.83229" lon="-3.3985">
        <ele>7.81</ele>
        <time>2018-05-31T13:04:01Z</time>
      </trkpt>
      <trkpt lat="47.83237" lon="-3.39817">
        <ele>6.81</ele>
        <time>2018-05-31T13:04:17Z</time>
      </trkpt>
      <trkpt lat="47.83244" lon="-3.39796">
        <ele>6.06</ele>
        <time>2018-05-31T13:04:25Z</time>
      </trkpt>
      <trkpt lat="47.83254" lon="-3.39775">
        <ele>4.54</ele>
        <time>2018-05-31T13:04:37Z</time>
      </trkpt>
      <trkpt lat="47.83255" lon="-3.39774">
        <ele>4.23</ele>
        <time>2018-05-31T13:04:39Z</time>
      </trkpt>
      <trkpt lat="47.83262" lon="-3.39764">
        <ele>3.58</ele>
        <time>2018-05-31T13:04:44Z</time>
      </trkpt>
      <trkpt lat="47.83268" lon="-3.39753">
        <ele>2.24</ele>
        <time>2018-05-31T13:04:50Z</time>
      </trkpt>
      <trkpt lat="47.83278" lon="-3.39732">
        <ele>1</ele>
        <time>2018-05-31T13:05:00Z</time>
      </trkpt>
      <trkpt lat="47.83281" lon="-3.39721">
        <ele>0.43</ele>
        <time>2018-05-31T13:05:05Z</time>
      </trkpt>
      <trkpt lat="47.83283" lon="-3.39718">
        <ele>0.17</ele>
        <time>2018-05-31T13:05:07Z</time>
      </trkpt>
      <trkpt lat="47.83285" lon="-3.39706">
        <ele>-0.36</ele>
        <time>2018-05-31T13:05:12Z</time>
      </trkpt>
      <trkpt lat="47.8329" lon="-3.39689">
        <ele>-1.35</ele>
        <time>2018-05-31T13:05:19Z</time>
      </trkpt>
      <trkpt lat="47.83294" lon="-3.39672">
        <ele>-2.34</ele>
        <time>2018-05-31T13:05:27Z</time>
      </trkpt>
      <trkpt lat="47.83305" lon="-3.39655">
        <ele>-3.62</ele>
        <time>2018-05-31T13:05:37Z</time>
      </trkpt>
      <trkpt lat="47.83311" lon="-3.39642">
        <ele>-4.54</ele>
        <time>2018-05-31T13:05:46Z</time>
      </trkpt>
      <trkpt lat="47.83326" lon="-3.39605">
        <ele>-7.66</ele>
        <time>2018-05-31T13:06:07Z</time>
      </trkpt>
      <trkpt lat="47.83338" lon="-3.39579">
        <ele>-10.1</ele>
        <time>2018-05-31T13:06:21Z</time>
      </trkpt>
      <trkpt lat="47.83352" lon="-3.39536">
        <ele>-12.91</ele>
        <time>2018-05-31T13:06:39Z</time>
      </trkpt>
      <trkpt lat="47.83353" lon="-3.39534">
        <ele>-13.02</ele>
        <time>2018-05-31T13:06:40Z</time>
      </trkpt>
      <trkpt lat="47.83358" lon="-3.39523">
        <ele>-13.51</ele>
        <time>2018-05-31T13:06:45Z</time>
      </trkpt>
      <trkpt lat="47.83359" lon="-3.39499">
        <ele>-14.19</ele>
        <time>2018-05-31T13:06:55Z</time>
      </trkpt>
      <trkpt lat="47.83356" lon="-3.39484">
        <ele>-14.45</ele>
        <time>2018-05-31T13:07:01Z</time>
      </trkpt>
      <trkpt lat="47.83356" lon="-3.39456">
        <ele>-14.8</ele>
        <time>2018-05-31T13:07:10Z</time>
      </trkpt>
      <trkpt lat="47.8336" lon="-3.39441">
        <ele>-15.12</ele>
        <time>2018-05-31T13:07:15Z</time>
      </trkpt>
      <trkpt lat="47.83366" lon="-3.39429">
        <ele>-16.22</ele>
        <time>2018-05-31T13:07:21Z</time>
      </trkpt>
      <trkpt lat="47.83383" lon="-3.39406">
        <ele>-19.5</ele>
        <time>2018-05-31T13:07:35Z</time>
      </trkpt>
      <trkpt lat="47.83396" lon="-3.39414">
        <ele>-21.88</ele>
        <time>2018-05-31T13:07:49Z</time>
      </trkpt>
      <trkpt lat="47.83408" lon="-3.39425">
        <ele>-25.06</ele>
        <time>2018-05-31T13:08:01Z</time>
      </trkpt>
      <trkpt lat="47.83417" lon="-3.39425">
        <ele>-28.23</ele>
        <time>2018-05-31T13:08:09Z</time>
      </trkpt>
      <trkpt lat="47.83439" lon="-3.39431">
        <ele>-31.64</ele>
        <time>2018-05-31T13:08:22Z</time>
      </trkpt>
      <trkpt lat="47.83456" lon="-3.39443">
        <ele>-32.62</ele>
        <time>2018-05-31T13:08:36Z</time>
      </trkpt>
      <trkpt lat="47.83462" lon="-3.39449">
        <ele>-32.66</ele>
        <time>2018-05-31T13:08:41Z</time>
      </trkpt>
      <trkpt lat="47.83475" lon="-3.39463">
        <ele>-32.48</ele>
        <time>2018-05-31T13:08:51Z</time>
      </trkpt>
      <trkpt lat="47.83479" lon="-3.3947">
        <ele>-32.35</ele>
        <time>2018-05-31T13:08:54Z</time>
      </trkpt>
      <trkpt lat="47.83499" lon="-3.39481">
        <ele>-31.81</ele>
        <time>2018-05-31T13:09:06Z</time>
      </trkpt>
      <trkpt lat="47.83508" lon="-3.39476">
        <ele>-31.85</ele>
        <time>2018-05-31T13:09:12Z</time>
      </trkpt>
      <trkpt lat="47.83511" lon="-3.39475">
        <ele>-31.85</ele>
        <time>2018-05-31T13:09:14Z</time>
      </trkpt>
      <trkpt lat="47.83521" lon="-3.39478">
        <ele>-31.69</ele>
        <time>2018-05-31T13:09:22Z</time>
      </trkpt>
      <trkpt lat="47.83526" lon="-3.39466">
        <ele>-31.6</ele>
        <time>2018-05-31T13:09:30Z</time>
      </trkpt>
      <trkpt lat="47.83538" lon="-3.39441">
        <ele>-32.25</ele>
        <time>2018-05-31T13:09:43Z</time>
      </trkpt>
      <trkpt lat="47.83541" lon="-3.39434">
        <ele>-32.35</ele>
        <time>2018-05-31T13:09:46Z</time>
      </trkpt>
      <trkpt lat="47.83544" lon="-3.39401">
        <ele>-32.36</ele>
        <time>2018-05-31T13:10:00Z</time>
      </trkpt>
      <trkpt lat="47.83555" lon="-3.39361">
        <ele>-32.55</ele>
        <time>2018-05-31T13:10:17Z</time>
      </trkpt>
      <trkpt lat="47.83554" lon="-3.39335">
        <ele>-31.95</ele>
        <time>2018-05-31T13:10:30Z</time>
      </trkpt>
      <trkpt lat="47.83551" lon="-3.39328">
        <ele>-31.12</ele>
        <time>2018-05-31T13:10:38Z</time>
      </trkpt>
      <trkpt lat="47.83549" lon="-3.39325">
        <ele>-31.24</ele>
        <time>2018-05-31T13:10:40Z</time>
      </trkpt>
      <trkpt lat="47.83543" lon="-3.39319">
        <ele>-31.46</ele>
        <time>2018-05-31T13:10:45Z</time>
      </trkpt>
      <trkpt lat="47.83538" lon="-3.39314">
        <ele>-31.3</ele>
        <time>2018-05-31T13:10:50Z</time>
      </trkpt>
      <trkpt lat="47.8352" lon="-3.39285">
        <ele>-31.01</ele>
        <time>2018-05-31T13:11:09Z</time>
      </trkpt>
      <trkpt lat="47.83504" lon="-3.39256">
        <ele>-30.1</ele>
        <time>2018-05-31T13:11:28Z</time>
      </trkpt>
      <trkpt lat="47.83492" lon="-3.39227">
        <ele>-30.54</ele>
        <time>2018-05-31T13:11:45Z</time>
      </trkpt>
      <trkpt lat="47.83484" lon="-3.39195">
        <ele>-31.21</ele>
        <time>2018-05-31T13:12:03Z</time>
      </trkpt>
      <trkpt lat="47.83473" lon="-3.39155">
        <ele>-31.25</ele>
        <time>2018-05-31T13:12:24Z</time>
      </trkpt>
      <trkpt lat="47.83454" lon="-3.3913">
        <ele>-32.81</ele>
        <time>2018-05-31T13:12:44Z</time>
      </trkpt>
      <trkpt lat="47.83438" lon="-3.39121">
        <ele>-33.42</ele>
        <time>2018-05-31T13:13:00Z</time>
      </trkpt>
      <trkpt lat="47.83439" lon="-3.39119">
        <ele>-33.34</ele>
        <time>2018-05-31T13:13:23Z</time>
      </trkpt>
      <trkpt lat="47.8344" lon="-3.39121">
        <ele>-33.19</ele>
        <time>2018-05-31T13:13:46Z</time>
      </trkpt>
      <trkpt lat="47.83434" lon="-3.3911">
        <ele>-33.34</ele>
        <time>2018-05-31T13:14:02Z</time>
      </trkpt>
      <trkpt lat="47.83433" lon="-3.3911">
        <ele>-32.6</ele>
        <time>2018-05-31T13:14:25Z</time>
      </trkpt>
      <trkpt lat="47.83433" lon="-3.39111">
        <ele>-32.62</ele>
        <time>2018-05-31T13:14:26Z</time>
      </trkpt>
    </trkseg>
  </trk>
  <trk>
    <name><![CDATA[St Coal (Guilligomarc'h - Quimperlé - Locunolé 35 km]]></name>
    <trkseg>
      <trkpt lat="47.93812" lon="-3.45048">
        <ele>112.22</ele>
        <time>2018-05-30T08:05:01Z</time>
      </trkpt>
      <trkpt lat="47.93813" lon="-3.45048">
        <ele>112.31</ele>
        <time>2018-05-30T08:06:16Z</time>
      </trkpt>
      <trkpt lat="47.93814" lon="-3.45041">
        <ele>112.54</ele>
        <time>2018-05-30T08:06:45Z</time>
      </trkpt>
      <trkpt lat="47.93814" lon="-3.45033">
        <ele>113.02</ele>
        <time>2018-05-30T08:07:04Z</time>
      </trkpt>
      <trkpt lat="47.93814" lon="-3.45029">
        <ele>113.15</ele>
        <time>2018-05-30T08:07:25Z</time>
      </trkpt>
      <trkpt lat="47.93814" lon="-3.45032">
        <ele>112.89</ele>
        <time>2018-05-30T08:07:49Z</time>
      </trkpt>
      <trkpt lat="47.93815" lon="-3.45031">
        <ele>112.86</ele>
        <time>2018-05-30T08:08:13Z</time>
      </trkpt>
      <trkpt lat="47.93807" lon="-3.45029">
        <ele>112.76</ele>
        <time>2018-05-30T08:08:31Z</time>
      </trkpt>
      <trkpt lat="47.93798" lon="-3.45028">
        <ele>113.16</ele>
        <time>2018-05-30T08:08:41Z</time>
      </trkpt>
      <trkpt lat="47.93787" lon="-3.45027">
        <ele>113.52</ele>
        <time>2018-05-30T08:08:59Z</time>
      </trkpt>
      <trkpt lat="47.93787" lon="-3.45027">
        <ele>113.49</ele>
        <time>2018-05-30T08:09:28Z</time>
      </trkpt>
      <trkpt lat="47.93787" lon="-3.45027">
        <ele>113.25</ele>
        <time>2018-05-30T08:09:55Z</time>
      </trkpt>
      <trkpt lat="47.93787" lon="-3.45028">
        <ele>113.42</ele>
        <time>2018-05-30T08:10:22Z</time>
      </trkpt>
      <trkpt lat="47.93786" lon="-3.45029">
        <ele>113.47</ele>
        <time>2018-05-30T08:10:47Z</time>
      </trkpt>
      <trkpt lat="47.93786" lon="-3.45029">
        <ele>113.47</ele>
        <time>2018-05-30T08:11:16Z</time>
      </trkpt>
      <trkpt lat="47.93786" lon="-3.45029">
        <ele>113.19</ele>
        <time>2018-05-30T08:11:46Z</time>
      </trkpt>
      <trkpt lat="47.93786" lon="-3.45028">
        <ele>113.1</ele>
        <time>2018-05-30T08:12:22Z</time>
      </trkpt>
      <trkpt lat="47.93783" lon="-3.45026">
        <ele>113.05</ele>
        <time>2018-05-30T08:12:34Z</time>
      </trkpt>
      <trkpt lat="47.93779" lon="-3.45023">
        <ele>112.92</ele>
        <time>2018-05-30T08:12:38Z</time>
      </trkpt>
      <trkpt lat="47.93756" lon="-3.45011">
        <ele>112.43</ele>
        <time>2018-05-30T08:12:55Z</time>
      </trkpt>
      <trkpt lat="47.93729" lon="-3.45001">
        <ele>112.51</ele>
        <time>2018-05-30T08:13:13Z</time>
      </trkpt>
      <trkpt lat="47.93711" lon="-3.44991">
        <ele>111.71</ele>
        <time>2018-05-30T08:13:29Z</time>
      </trkpt>
      <trkpt lat="47.93692" lon="-3.44981">
        <ele>110.63</ele>
        <time>2018-05-30T08:13:47Z</time>
      </trkpt>
      <trkpt lat="47.93664" lon="-3.44961">
        <ele>110</ele>
        <time>2018-05-30T08:14:06Z</time>
      </trkpt>
      <trkpt lat="47.9364" lon="-3.44941">
        <ele>110.11</ele>
        <time>2018-05-30T08:14:24Z</time>
      </trkpt>
      <trkpt lat="47.93622" lon="-3.44928">
        <ele>110.89</ele>
        <time>2018-05-30T08:14:38Z</time>
      </trkpt>
      <trkpt lat="47.93601" lon="-3.44911">
        <ele>111.74</ele>
        <time>2018-05-30T08:14:54Z</time>
      </trkpt>
      <trkpt lat="47.93582" lon="-3.449">
        <ele>112.65</ele>
        <time>2018-05-30T08:15:09Z</time>
      </trkpt>
      <trkpt lat="47.93559" lon="-3.44881">
        <ele>113.4</ele>
        <time>2018-05-30T08:15:24Z</time>
      </trkpt>
      <trkpt lat="47.93535" lon="-3.44857">
        <ele>114.05</ele>
        <time>2018-05-30T08:15:42Z</time>
      </trkpt>
      <trkpt lat="47.9352" lon="-3.4484">
        <ele>114.21</ele>
        <time>2018-05-30T08:15:55Z</time>
      </trkpt>
      <trkpt lat="47.93513" lon="-3.44832">
        <ele>114.45</ele>
        <time>2018-05-30T08:16:01Z</time>
      </trkpt>
      <trkpt lat="47.93491" lon="-3.4481">
        <ele>114.32</ele>
        <time>2018-05-30T08:16:19Z</time>
      </trkpt>
      <trkpt lat="47.93469" lon="-3.44785">
        <ele>113.61</ele>
        <time>2018-05-30T08:16:37Z</time>
      </trkpt>
      <trkpt lat="47.93454" lon="-3.44777">
        <ele>113.06</ele>
        <time>2018-05-30T08:16:52Z</time>
      </trkpt>
      <trkpt lat="47.93448" lon="-3.44784">
        <ele>111.91</ele>
        <time>2018-05-30T08:17:00Z</time>
      </trkpt>
      <trkpt lat="47.93439" lon="-3.44794">
        <ele>110.69</ele>
        <time>2018-05-30T08:17:14Z</time>
      </trkpt>
      <trkpt lat="47.93421" lon="-3.44813">
        <ele>109.73</ele>
        <time>2018-05-30T08:17:36Z</time>
      </trkpt>
      <trkpt lat="47.93399" lon="-3.44839">
        <ele>107.99</ele>
        <time>2018-05-30T08:17:58Z</time>
      </trkpt>
      <trkpt lat="47.93375" lon="-3.44863">
        <ele>106.96</ele>
        <time>2018-05-30T08:18:19Z</time>
      </trkpt>
      <trkpt lat="47.93372" lon="-3.44866">
        <ele>106.84</ele>
        <time>2018-05-30T08:18:23Z</time>
      </trkpt>
      <trkpt lat="47.93365" lon="-3.44872">
        <ele>106.64</ele>
        <time>2018-05-30T08:18:27Z</time>
      </trkpt>
      <trkpt lat="47.93343" lon="-3.44889">
        <ele>106.14</ele>
        <time>2018-05-30T08:18:45Z</time>
      </trkpt>
      <trkpt lat="47.93328" lon="-3.44892">
        <ele>105.87</ele>
        <time>2018-05-30T08:19:06Z</time>
      </trkpt>
      <trkpt lat="47.93327" lon="-3.44893">
        <ele>106.08</ele>
        <time>2018-05-30T08:19:07Z</time>
      </trkpt>
      <trkpt lat="47.93317" lon="-3.44893">
        <ele>106.04</ele>
        <time>2018-05-30T08:19:35Z</time>
      </trkpt>
      <trkpt lat="47.93315" lon="-3.44895">
        <ele>106.07</ele>
        <time>2018-05-30T08:20:06Z</time>
      </trkpt>
      <trkpt lat="47.93311" lon="-3.449">
        <ele>105.8</ele>
        <time>2018-05-30T08:20:29Z</time>
      </trkpt>
      <trkpt lat="47.93304" lon="-3.44922">
        <ele>103.74</ele>
        <time>2018-05-30T08:20:50Z</time>
      </trkpt>
      <trkpt lat="47.93295" lon="-3.44948">
        <ele>101.83</ele>
        <time>2018-05-30T08:21:07Z</time>
      </trkpt>
      <trkpt lat="47.93283" lon="-3.44995">
        <ele>100.31</ele>
        <time>2018-05-30T08:21:29Z</time>
      </trkpt>
      <trkpt lat="47.93273" lon="-3.45032">
        <ele>99.43</ele>
        <time>2018-05-30T08:21:51Z</time>
      </trkpt>
      <trkpt lat="47.93263" lon="-3.45056">
        <ele>98.9</ele>
        <time>2018-05-30T08:22:09Z</time>
      </trkpt>
      <trkpt lat="47.93263" lon="-3.45057">
        <ele>98.95</ele>
        <time>2018-05-30T08:22:10Z</time>
      </trkpt>
      <trkpt lat="47.93257" lon="-3.45079">
        <ele>98.98</ele>
        <time>2018-05-30T08:22:31Z</time>
      </trkpt>
      <trkpt lat="47.93254" lon="-3.45101">
        <ele>98.06</ele>
        <time>2018-05-30T08:22:53Z</time>
      </trkpt>
      <trkpt lat="47.93251" lon="-3.45119">
        <ele>98.8</ele>
        <time>2018-05-30T08:23:11Z</time>
      </trkpt>
      <trkpt lat="47.93254" lon="-3.45136">
        <ele>97.63</ele>
        <time>2018-05-30T08:23:21Z</time>
      </trkpt>
      <trkpt lat="47.93252" lon="-3.4515">
        <ele>97.38</ele>
        <time>2018-05-30T08:23:27Z</time>
      </trkpt>
      <trkpt lat="47.93247" lon="-3.45168">
        <ele>95.91</ele>
        <time>2018-05-30T08:23:41Z</time>
      </trkpt>
      <trkpt lat="47.93228" lon="-3.45186">
        <ele>92.9</ele>
        <time>2018-05-30T08:24:02Z</time>
      </trkpt>
      <trkpt lat="47.93212" lon="-3.45201">
        <ele>89.75</ele>
        <time>2018-05-30T08:24:17Z</time>
      </trkpt>
      <trkpt lat="47.9319" lon="-3.45217">
        <ele>86.66</ele>
        <time>2018-05-30T08:24:32Z</time>
      </trkpt>
      <trkpt lat="47.93162" lon="-3.45241">
        <ele>86.36</ele>
        <time>2018-05-30T08:24:53Z</time>
      </trkpt>
      <trkpt lat="47.9315" lon="-3.45268">
        <ele>84.83</ele>
        <time>2018-05-30T08:25:09Z</time>
      </trkpt>
      <trkpt lat="47.93139" lon="-3.45308">
        <ele>81.81</ele>
        <time>2018-05-30T08:25:26Z</time>
      </trkpt>
      <trkpt lat="47.93137" lon="-3.45317">
        <ele>81.27</ele>
        <time>2018-05-30T08:25:30Z</time>
      </trkpt>
      <trkpt lat="47.93127" lon="-3.45342">
        <ele>80.58</ele>
        <time>2018-05-30T08:25:41Z</time>
      </trkpt>
      <trkpt lat="47.93109" lon="-3.45382">
        <ele>79.43</ele>
        <time>2018-05-30T08:25:58Z</time>
      </trkpt>
      <trkpt lat="47.93086" lon="-3.45404">
        <ele>77.47</ele>
        <time>2018-05-30T08:26:11Z</time>
      </trkpt>
      <trkpt lat="47.93073" lon="-3.45427">
        <ele>75.55</ele>
        <time>2018-05-30T08:26:25Z</time>
      </trkpt>
      <trkpt lat="47.93063" lon="-3.45447">
        <ele>74.05</ele>
        <time>2018-05-30T08:26:37Z</time>
      </trkpt>
      <trkpt lat="47.93045" lon="-3.45494">
        <ele>72.32</ele>
        <time>2018-05-30T08:26:57Z</time>
      </trkpt>
      <trkpt lat="47.93017" lon="-3.45512">
        <ele>72.19</ele>
        <time>2018-05-30T08:27:12Z</time>
      </trkpt>
      <trkpt lat="47.92995" lon="-3.45528">
        <ele>71.25</ele>
        <time>2018-05-30T08:27:28Z</time>
      </trkpt>
      <trkpt lat="47.92983" lon="-3.4553">
        <ele>69.14</ele>
        <time>2018-05-30T08:27:40Z</time>
      </trkpt>
      <trkpt lat="47.92981" lon="-3.4553">
        <ele>69.03</ele>
        <time>2018-05-30T08:27:41Z</time>
      </trkpt>
      <trkpt lat="47.92969" lon="-3.45532">
        <ele>68.52</ele>
        <time>2018-05-30T08:27:51Z</time>
      </trkpt>
      <trkpt lat="47.92958" lon="-3.45535">
        <ele>68.35</ele>
        <time>2018-05-30T08:27:56Z</time>
      </trkpt>
      <trkpt lat="47.92945" lon="-3.4554">
        <ele>68.18</ele>
        <time>2018-05-30T08:28:07Z</time>
      </trkpt>
      <trkpt lat="47.92938" lon="-3.45552">
        <ele>67.83</ele>
        <time>2018-05-30T08:28:13Z</time>
      </trkpt>
      <trkpt lat="47.92933" lon="-3.45558">
        <ele>67.57</ele>
        <time>2018-05-30T08:28:17Z</time>
      </trkpt>
      <trkpt lat="47.92917" lon="-3.45596">
        <ele>65.87</ele>
        <time>2018-05-30T08:28:36Z</time>
      </trkpt>
      <trkpt lat="47.9291" lon="-3.45617">
        <ele>64.94</ele>
        <time>2018-05-30T08:28:47Z</time>
      </trkpt>
      <trkpt lat="47.92907" lon="-3.45619">
        <ele>64.7</ele>
        <time>2018-05-30T08:28:49Z</time>
      </trkpt>
      <trkpt lat="47.92904" lon="-3.45633">
        <ele>64.08</ele>
        <time>2018-05-30T08:28:57Z</time>
      </trkpt>
      <trkpt lat="47.92904" lon="-3.45647">
        <ele>63.15</ele>
        <time>2018-05-30T08:29:08Z</time>
      </trkpt>
      <trkpt lat="47.92905" lon="-3.45649">
        <ele>63.04</ele>
        <time>2018-05-30T08:29:10Z</time>
      </trkpt>
      <trkpt lat="47.92906" lon="-3.45654">
        <ele>62.74</ele>
        <time>2018-05-30T08:29:13Z</time>
      </trkpt>
      <trkpt lat="47.92902" lon="-3.45693">
        <ele>61.8</ele>
        <time>2018-05-30T08:29:28Z</time>
      </trkpt>
      <trkpt lat="47.92894" lon="-3.45729">
        <ele>60.7</ele>
        <time>2018-05-30T08:29:42Z</time>
      </trkpt>
      <trkpt lat="47.92882" lon="-3.45762">
        <ele>59.61</ele>
        <time>2018-05-30T08:29:58Z</time>
      </trkpt>
      <trkpt lat="47.9287" lon="-3.45789">
        <ele>59.17</ele>
        <time>2018-05-30T08:30:11Z</time>
      </trkpt>
      <trkpt lat="47.92867" lon="-3.45807">
        <ele>59.06</ele>
        <time>2018-05-30T08:30:18Z</time>
      </trkpt>
      <trkpt lat="47.9286" lon="-3.45828">
        <ele>58.37</ele>
        <time>2018-05-30T08:30:33Z</time>
      </trkpt>
      <trkpt lat="47.92859" lon="-3.45829">
        <ele>58.31</ele>
        <time>2018-05-30T08:30:34Z</time>
      </trkpt>
      <trkpt lat="47.92858" lon="-3.45837">
        <ele>58.28</ele>
        <time>2018-05-30T08:30:37Z</time>
      </trkpt>
      <trkpt lat="47.92857" lon="-3.4584">
        <ele>58.29</ele>
        <time>2018-05-30T08:30:38Z</time>
      </trkpt>
      <trkpt lat="47.92856" lon="-3.45842">
        <ele>58.3</ele>
        <time>2018-05-30T08:30:39Z</time>
      </trkpt>
      <trkpt lat="47.92857" lon="-3.45864">
        <ele>58.14</ele>
        <time>2018-05-30T08:30:54Z</time>
      </trkpt>
      <trkpt lat="47.92845" lon="-3.45893">
        <ele>57.91</ele>
        <time>2018-05-30T08:31:12Z</time>
      </trkpt>
      <trkpt lat="47.92837" lon="-3.45894">
        <ele>57.79</ele>
        <time>2018-05-30T08:31:19Z</time>
      </trkpt>
      <trkpt lat="47.92825" lon="-3.45898">
        <ele>57.88</ele>
        <time>2018-05-30T08:31:26Z</time>
      </trkpt>
      <trkpt lat="47.92823" lon="-3.45898">
        <ele>57.9</ele>
        <time>2018-05-30T08:31:27Z</time>
      </trkpt>
      <trkpt lat="47.92797" lon="-3.45911">
        <ele>57.83</ele>
        <time>2018-05-30T08:31:41Z</time>
      </trkpt>
      <trkpt lat="47.92773" lon="-3.45913">
        <ele>56.74</ele>
        <time>2018-05-30T08:31:56Z</time>
      </trkpt>
      <trkpt lat="47.92764" lon="-3.45913">
        <ele>55.95</ele>
        <time>2018-05-30T08:32:01Z</time>
      </trkpt>
      <trkpt lat="47.92763" lon="-3.45913">
        <ele>55.76</ele>
        <time>2018-05-30T08:32:02Z</time>
      </trkpt>
      <trkpt lat="47.92761" lon="-3.45913">
        <ele>55.58</ele>
        <time>2018-05-30T08:32:03Z</time>
      </trkpt>
      <trkpt lat="47.9276" lon="-3.45913">
        <ele>55.37</ele>
        <time>2018-05-30T08:32:04Z</time>
      </trkpt>
      <trkpt lat="47.92758" lon="-3.45913">
        <ele>55.14</ele>
        <time>2018-05-30T08:32:05Z</time>
      </trkpt>
      <trkpt lat="47.92756" lon="-3.45913">
        <ele>54.92</ele>
        <time>2018-05-30T08:32:06Z</time>
      </trkpt>
      <trkpt lat="47.92755" lon="-3.45913">
        <ele>54.73</ele>
        <time>2018-05-30T08:32:07Z</time>
      </trkpt>
      <trkpt lat="47.92753" lon="-3.45913">
        <ele>54.51</ele>
        <time>2018-05-30T08:32:08Z</time>
      </trkpt>
      <trkpt lat="47.92752" lon="-3.45914">
        <ele>54.28</ele>
        <time>2018-05-30T08:32:09Z</time>
      </trkpt>
      <trkpt lat="47.9275" lon="-3.45914">
        <ele>54.05</ele>
        <time>2018-05-30T08:32:10Z</time>
      </trkpt>
      <trkpt lat="47.92748" lon="-3.45915">
        <ele>53.84</ele>
        <time>2018-05-30T08:32:11Z</time>
      </trkpt>
      <trkpt lat="47.92747" lon="-3.45915">
        <ele>53.63</ele>
        <time>2018-05-30T08:32:12Z</time>
      </trkpt>
      <trkpt lat="47.92745" lon="-3.45915">
        <ele>53.39</ele>
        <time>2018-05-30T08:32:13Z</time>
      </trkpt>
      <trkpt lat="47.92743" lon="-3.45916">
        <ele>53.13</ele>
        <time>2018-05-30T08:32:14Z</time>
      </trkpt>
      <trkpt lat="47.92733" lon="-3.45923">
        <ele>50.05</ele>
        <time>2018-05-30T08:32:27Z</time>
      </trkpt>
      <trkpt lat="47.92728" lon="-3.45924">
        <ele>49.43</ele>
        <time>2018-05-30T08:32:31Z</time>
      </trkpt>
      <trkpt lat="47.92716" lon="-3.45918">
        <ele>48.77</ele>
        <time>2018-05-30T08:32:40Z</time>
      </trkpt>
      <trkpt lat="47.92703" lon="-3.45916">
        <ele>48.5</ele>
        <time>2018-05-30T08:32:49Z</time>
      </trkpt>
      <trkpt lat="47.92671" lon="-3.45915">
        <ele>48.74</ele>
        <time>2018-05-30T08:33:08Z</time>
      </trkpt>
      <trkpt lat="47.92643" lon="-3.45904">
        <ele>48.83</ele>
        <time>2018-05-30T08:33:23Z</time>
      </trkpt>
      <trkpt lat="47.92641" lon="-3.45902">
        <ele>48.82</ele>
        <time>2018-05-30T08:33:24Z</time>
      </trkpt>
      <trkpt lat="47.92638" lon="-3.45899">
        <ele>48.81</ele>
        <time>2018-05-30T08:33:25Z</time>
      </trkpt>
      <trkpt lat="47.9262" lon="-3.45894">
        <ele>48.9</ele>
        <time>2018-05-30T08:33:37Z</time>
      </trkpt>
      <trkpt lat="47.92598" lon="-3.45889">
        <ele>48.7</ele>
        <time>2018-05-30T08:33:53Z</time>
      </trkpt>
      <trkpt lat="47.92591" lon="-3.45889">
        <ele>48.67</ele>
        <time>2018-05-30T08:33:58Z</time>
      </trkpt>
      <trkpt lat="47.9259" lon="-3.45889">
        <ele>48.64</ele>
        <time>2018-05-30T08:33:59Z</time>
      </trkpt>
      <trkpt lat="47.92588" lon="-3.45889">
        <ele>48.61</ele>
        <time>2018-05-30T08:34:00Z</time>
      </trkpt>
      <trkpt lat="47.92585" lon="-3.4589">
        <ele>48.57</ele>
        <time>2018-05-30T08:34:01Z</time>
      </trkpt>
      <trkpt lat="47.92583" lon="-3.4589">
        <ele>48.53</ele>
        <time>2018-05-30T08:34:02Z</time>
      </trkpt>
      <trkpt lat="47.92564" lon="-3.45883">
        <ele>47.79</ele>
        <time>2018-05-30T08:34:15Z</time>
      </trkpt>
      <trkpt lat="47.92527" lon="-3.45857">
        <ele>47.22</ele>
        <time>2018-05-30T08:34:31Z</time>
      </trkpt>
      <trkpt lat="47.92505" lon="-3.45851">
        <ele>46.87</ele>
        <time>2018-05-30T08:34:46Z</time>
      </trkpt>
      <trkpt lat="47.92502" lon="-3.4585">
        <ele>46.7</ele>
        <time>2018-05-30T08:34:49Z</time>
      </trkpt>
      <trkpt lat="47.92498" lon="-3.45851">
        <ele>46.55</ele>
        <time>2018-05-30T08:34:52Z</time>
      </trkpt>
      <trkpt lat="47.92495" lon="-3.45849">
        <ele>46.51</ele>
        <time>2018-05-30T08:34:53Z</time>
      </trkpt>
      <trkpt lat="47.92494" lon="-3.45848">
        <ele>46.47</ele>
        <time>2018-05-30T08:34:54Z</time>
      </trkpt>
      <trkpt lat="47.92468" lon="-3.45837">
        <ele>46.49</ele>
        <time>2018-05-30T08:35:11Z</time>
      </trkpt>
      <trkpt lat="47.9244" lon="-3.45831">
        <ele>45.99</ele>
        <time>2018-05-30T08:35:27Z</time>
      </trkpt>
      <trkpt lat="47.92423" lon="-3.45833">
        <ele>44.68</ele>
        <time>2018-05-30T08:35:41Z</time>
      </trkpt>
      <trkpt lat="47.924" lon="-3.45833">
        <ele>42.25</ele>
        <time>2018-05-30T08:36:00Z</time>
      </trkpt>
      <trkpt lat="47.92383" lon="-3.45836">
        <ele>41.56</ele>
        <time>2018-05-30T08:36:24Z</time>
      </trkpt>
      <trkpt lat="47.92372" lon="-3.45823">
        <ele>41.89</ele>
        <time>2018-05-30T08:36:39Z</time>
      </trkpt>
      <trkpt lat="47.92359" lon="-3.45818">
        <ele>42.17</ele>
        <time>2018-05-30T08:36:57Z</time>
      </trkpt>
      <trkpt lat="47.9235" lon="-3.45815">
        <ele>42.62</ele>
        <time>2018-05-30T08:37:05Z</time>
      </trkpt>
      <trkpt lat="47.92334" lon="-3.45817">
        <ele>42.97</ele>
        <time>2018-05-30T08:37:19Z</time>
      </trkpt>
      <trkpt lat="47.9232" lon="-3.45823">
        <ele>42.75</ele>
        <time>2018-05-30T08:37:41Z</time>
      </trkpt>
      <trkpt lat="47.92313" lon="-3.45822">
        <ele>41.83</ele>
        <time>2018-05-30T08:37:53Z</time>
      </trkpt>
      <trkpt lat="47.92311" lon="-3.45818">
        <ele>41.45</ele>
        <time>2018-05-30T08:38:17Z</time>
      </trkpt>
      <trkpt lat="47.9231" lon="-3.45816">
        <ele>41.29</ele>
        <time>2018-05-30T08:38:38Z</time>
      </trkpt>
      <trkpt lat="47.9231" lon="-3.45821">
        <ele>41.73</ele>
        <time>2018-05-30T08:38:56Z</time>
      </trkpt>
      <trkpt lat="47.92307" lon="-3.45815">
        <ele>41.19</ele>
        <time>2018-05-30T08:39:15Z</time>
      </trkpt>
      <trkpt lat="47.92302" lon="-3.458">
        <ele>40.65</ele>
        <time>2018-05-30T08:39:36Z</time>
      </trkpt>
      <trkpt lat="47.92299" lon="-3.45792">
        <ele>41.36</ele>
        <time>2018-05-30T08:39:54Z</time>
      </trkpt>
      <trkpt lat="47.92302" lon="-3.45789">
        <ele>42.24</ele>
        <time>2018-05-30T08:40:14Z</time>
      </trkpt>
      <trkpt lat="47.92303" lon="-3.45788">
        <ele>42.42</ele>
        <time>2018-05-30T08:40:21Z</time>
      </trkpt>
      <trkpt lat="47.92301" lon="-3.45774">
        <ele>42.33</ele>
        <time>2018-05-30T08:40:37Z</time>
      </trkpt>
      <trkpt lat="47.92297" lon="-3.45759">
        <ele>42.28</ele>
        <time>2018-05-30T08:40:44Z</time>
      </trkpt>
      <trkpt lat="47.92295" lon="-3.45741">
        <ele>42.4</ele>
        <time>2018-05-30T08:40:51Z</time>
      </trkpt>
      <trkpt lat="47.92294" lon="-3.45735">
        <ele>42.32</ele>
        <time>2018-05-30T08:40:54Z</time>
      </trkpt>
      <trkpt lat="47.92291" lon="-3.4571">
        <ele>41.96</ele>
        <time>2018-05-30T08:41:06Z</time>
      </trkpt>
      <trkpt lat="47.92285" lon="-3.45685">
        <ele>41.92</ele>
        <time>2018-05-30T08:41:17Z</time>
      </trkpt>
      <trkpt lat="47.92278" lon="-3.45661">
        <ele>41.68</ele>
        <time>2018-05-30T08:41:26Z</time>
      </trkpt>
      <trkpt lat="47.92271" lon="-3.45641">
        <ele>41.6</ele>
        <time>2018-05-30T08:41:36Z</time>
      </trkpt>
      <trkpt lat="47.92259" lon="-3.45614">
        <ele>41.68</ele>
        <time>2018-05-30T08:41:49Z</time>
      </trkpt>
      <trkpt lat="47.92248" lon="-3.45591">
        <ele>41.73</ele>
        <time>2018-05-30T08:42:02Z</time>
      </trkpt>
      <trkpt lat="47.92243" lon="-3.45588">
        <ele>41.91</ele>
        <time>2018-05-30T08:42:07Z</time>
      </trkpt>
      <trkpt lat="47.92241" lon="-3.45588">
        <ele>41.96</ele>
        <time>2018-05-30T08:42:09Z</time>
      </trkpt>
      <trkpt lat="47.92233" lon="-3.45582">
        <ele>42.19</ele>
        <time>2018-05-30T08:42:16Z</time>
      </trkpt>
      <trkpt lat="47.92227" lon="-3.45568">
        <ele>42.52</ele>
        <time>2018-05-30T08:42:30Z</time>
      </trkpt>
      <trkpt lat="47.92224" lon="-3.45562">
        <ele>42.68</ele>
        <time>2018-05-30T08:42:38Z</time>
      </trkpt>
      <trkpt lat="47.92223" lon="-3.45558">
        <ele>43</ele>
        <time>2018-05-30T08:42:42Z</time>
      </trkpt>
      <trkpt lat="47.92219" lon="-3.45545">
        <ele>43.41</ele>
        <time>2018-05-30T08:42:54Z</time>
      </trkpt>
      <trkpt lat="47.92205" lon="-3.45529">
        <ele>44.27</ele>
        <time>2018-05-30T08:43:12Z</time>
      </trkpt>
      <trkpt lat="47.92202" lon="-3.45528">
        <ele>44.49</ele>
        <time>2018-05-30T08:43:18Z</time>
      </trkpt>
      <trkpt lat="47.92178" lon="-3.45513">
        <ele>45.14</ele>
        <time>2018-05-30T08:43:34Z</time>
      </trkpt>
      <trkpt lat="47.92157" lon="-3.45495">
        <ele>45.98</ele>
        <time>2018-05-30T08:43:49Z</time>
      </trkpt>
      <trkpt lat="47.92131" lon="-3.45494">
        <ele>47.36</ele>
        <time>2018-05-30T08:44:08Z</time>
      </trkpt>
      <trkpt lat="47.92114" lon="-3.45516">
        <ele>48.44</ele>
        <time>2018-05-30T08:44:24Z</time>
      </trkpt>
      <trkpt lat="47.92106" lon="-3.45524">
        <ele>49.25</ele>
        <time>2018-05-30T08:44:31Z</time>
      </trkpt>
      <trkpt lat="47.92098" lon="-3.45542">
        <ele>51.3</ele>
        <time>2018-05-30T08:44:45Z</time>
      </trkpt>
      <trkpt lat="47.92086" lon="-3.4557">
        <ele>53.93</ele>
        <time>2018-05-30T08:45:04Z</time>
      </trkpt>
      <trkpt lat="47.92079" lon="-3.45586">
        <ele>56.4</ele>
        <time>2018-05-30T08:45:17Z</time>
      </trkpt>
      <trkpt lat="47.92074" lon="-3.45584">
        <ele>57.15</ele>
        <time>2018-05-30T08:45:21Z</time>
      </trkpt>
      <trkpt lat="47.92074" lon="-3.45589">
        <ele>57.71</ele>
        <time>2018-05-30T08:45:24Z</time>
      </trkpt>
      <trkpt lat="47.92077" lon="-3.45606">
        <ele>59.37</ele>
        <time>2018-05-30T08:45:33Z</time>
      </trkpt>
      <trkpt lat="47.92077" lon="-3.45609">
        <ele>59.6</ele>
        <time>2018-05-30T08:45:35Z</time>
      </trkpt>
      <trkpt lat="47.92076" lon="-3.45613">
        <ele>60.34</ele>
        <time>2018-05-30T08:45:39Z</time>
      </trkpt>
      <trkpt lat="47.92078" lon="-3.45641">
        <ele>63.04</ele>
        <time>2018-05-30T08:45:54Z</time>
      </trkpt>
      <trkpt lat="47.92079" lon="-3.45646">
        <ele>63.52</ele>
        <time>2018-05-30T08:45:56Z</time>
      </trkpt>
      <trkpt lat="47.92079" lon="-3.45654">
        <ele>64.11</ele>
        <time>2018-05-30T08:46:01Z</time>
      </trkpt>
      <trkpt lat="47.92078" lon="-3.4566">
        <ele>64.63</ele>
        <time>2018-05-30T08:46:06Z</time>
      </trkpt>
      <trkpt lat="47.92076" lon="-3.4568">
        <ele>65.96</ele>
        <time>2018-05-30T08:46:18Z</time>
      </trkpt>
      <trkpt lat="47.92062" lon="-3.45704">
        <ele>67.7</ele>
        <time>2018-05-30T08:46:32Z</time>
      </trkpt>
      <trkpt lat="47.92062" lon="-3.45707">
        <ele>67.83</ele>
        <time>2018-05-30T08:46:33Z</time>
      </trkpt>
      <trkpt lat="47.92049" lon="-3.45725">
        <ele>69.28</ele>
        <time>2018-05-30T08:46:47Z</time>
      </trkpt>
      <trkpt lat="47.92031" lon="-3.45745">
        <ele>69.85</ele>
        <time>2018-05-30T08:46:59Z</time>
      </trkpt>
      <trkpt lat="47.92008" lon="-3.4578">
        <ele>70.72</ele>
        <time>2018-05-30T08:47:19Z</time>
      </trkpt>
      <trkpt lat="47.92" lon="-3.45804">
        <ele>71.35</ele>
        <time>2018-05-30T08:47:33Z</time>
      </trkpt>
      <trkpt lat="47.91997" lon="-3.45813">
        <ele>71.68</ele>
        <time>2018-05-30T08:47:38Z</time>
      </trkpt>
      <trkpt lat="47.91994" lon="-3.45842">
        <ele>72.63</ele>
        <time>2018-05-30T08:47:51Z</time>
      </trkpt>
      <trkpt lat="47.91988" lon="-3.45867">
        <ele>74.08</ele>
        <time>2018-05-30T08:48:03Z</time>
      </trkpt>
      <trkpt lat="47.9198" lon="-3.45874">
        <ele>74.51</ele>
        <time>2018-05-30T08:48:11Z</time>
      </trkpt>
      <trkpt lat="47.91973" lon="-3.4589">
        <ele>75.52</ele>
        <time>2018-05-30T08:48:20Z</time>
      </trkpt>
      <trkpt lat="47.9197" lon="-3.45903">
        <ele>76.53</ele>
        <time>2018-05-30T08:48:27Z</time>
      </trkpt>
      <trkpt lat="47.91965" lon="-3.45936">
        <ele>78.64</ele>
        <time>2018-05-30T08:48:44Z</time>
      </trkpt>
      <trkpt lat="47.91959" lon="-3.4596">
        <ele>81.03</ele>
        <time>2018-05-30T08:48:55Z</time>
      </trkpt>
      <trkpt lat="47.91955" lon="-3.45978">
        <ele>82.97</ele>
        <time>2018-05-30T08:49:03Z</time>
      </trkpt>
      <trkpt lat="47.91953" lon="-3.45984">
        <ele>83.58</ele>
        <time>2018-05-30T08:49:07Z</time>
      </trkpt>
      <trkpt lat="47.9195" lon="-3.45988">
        <ele>84.13</ele>
        <time>2018-05-30T08:49:11Z</time>
      </trkpt>
      <trkpt lat="47.91947" lon="-3.45996">
        <ele>85.06</ele>
        <time>2018-05-30T08:49:16Z</time>
      </trkpt>
      <trkpt lat="47.91943" lon="-3.46008">
        <ele>86.1</ele>
        <time>2018-05-30T08:49:22Z</time>
      </trkpt>
      <trkpt lat="47.91914" lon="-3.46029">
        <ele>89.33</ele>
        <time>2018-05-30T08:49:42Z</time>
      </trkpt>
      <trkpt lat="47.91895" lon="-3.46067">
        <ele>92.61</ele>
        <time>2018-05-30T08:50:01Z</time>
      </trkpt>
      <trkpt lat="47.91884" lon="-3.46104">
        <ele>95.3</ele>
        <time>2018-05-30T08:50:20Z</time>
      </trkpt>
      <trkpt lat="47.91882" lon="-3.46156">
        <ele>96.63</ele>
        <time>2018-05-30T08:50:43Z</time>
      </trkpt>
      <trkpt lat="47.91881" lon="-3.46206">
        <ele>97.79</ele>
        <time>2018-05-30T08:51:04Z</time>
      </trkpt>
      <trkpt lat="47.91881" lon="-3.46212">
        <ele>97.95</ele>
        <time>2018-05-30T08:51:07Z</time>
      </trkpt>
      <trkpt lat="47.91879" lon="-3.46255">
        <ele>99.64</ele>
        <time>2018-05-30T08:51:28Z</time>
      </trkpt>
      <trkpt lat="47.91876" lon="-3.46282">
        <ele>100.43</ele>
        <time>2018-05-30T08:51:41Z</time>
      </trkpt>
      <trkpt lat="47.91861" lon="-3.46332">
        <ele>99.51</ele>
        <time>2018-05-30T08:51:53Z</time>
      </trkpt>
      <trkpt lat="47.9186" lon="-3.46335">
        <ele>99.47</ele>
        <time>2018-05-30T08:51:54Z</time>
      </trkpt>
      <trkpt lat="47.91859" lon="-3.46351">
        <ele>99.47</ele>
        <time>2018-05-30T08:51:58Z</time>
      </trkpt>
      <trkpt lat="47.9183" lon="-3.46415">
        <ele>98.48</ele>
        <time>2018-05-30T08:52:12Z</time>
      </trkpt>
      <trkpt lat="47.91823" lon="-3.46424">
        <ele>98.1</ele>
        <time>2018-05-30T08:52:14Z</time>
      </trkpt>
      <trkpt lat="47.91792" lon="-3.4645">
        <ele>97.26</ele>
        <time>2018-05-30T08:52:23Z</time>
      </trkpt>
      <trkpt lat="47.91783" lon="-3.46469">
        <ele>97.14</ele>
        <time>2018-05-30T08:52:27Z</time>
      </trkpt>
      <trkpt lat="47.91754" lon="-3.46504">
        <ele>97.07</ele>
        <time>2018-05-30T08:52:36Z</time>
      </trkpt>
      <trkpt lat="47.91737" lon="-3.46524">
        <ele>97.56</ele>
        <time>2018-05-30T08:52:42Z</time>
      </trkpt>
      <trkpt lat="47.91698" lon="-3.46572">
        <ele>99.12</ele>
        <time>2018-05-30T08:52:54Z</time>
      </trkpt>
      <trkpt lat="47.91669" lon="-3.46607">
        <ele>100.32</ele>
        <time>2018-05-30T08:53:04Z</time>
      </trkpt>
      <trkpt lat="47.91665" lon="-3.46614">
        <ele>100.81</ele>
        <time>2018-05-30T08:53:07Z</time>
      </trkpt>
      <trkpt lat="47.91663" lon="-3.46615">
        <ele>100.9</ele>
        <time>2018-05-30T08:53:08Z</time>
      </trkpt>
      <trkpt lat="47.91648" lon="-3.46625">
        <ele>101.05</ele>
        <time>2018-05-30T08:53:15Z</time>
      </trkpt>
      <trkpt lat="47.91633" lon="-3.46627">
        <ele>99.72</ele>
        <time>2018-05-30T08:53:25Z</time>
      </trkpt>
      <trkpt lat="47.91611" lon="-3.46636">
        <ele>96.32</ele>
        <time>2018-05-30T08:53:37Z</time>
      </trkpt>
      <trkpt lat="47.91591" lon="-3.46634">
        <ele>93.2</ele>
        <time>2018-05-30T08:53:49Z</time>
      </trkpt>
      <trkpt lat="47.91584" lon="-3.46606">
        <ele>90.1</ele>
        <time>2018-05-30T08:54:02Z</time>
      </trkpt>
      <trkpt lat="47.91582" lon="-3.46594">
        <ele>88.8</ele>
        <time>2018-05-30T08:54:08Z</time>
      </trkpt>
      <trkpt lat="47.91577" lon="-3.46559">
        <ele>85.73</ele>
        <time>2018-05-30T08:54:24Z</time>
      </trkpt>
      <trkpt lat="47.91576" lon="-3.46523">
        <ele>83.17</ele>
        <time>2018-05-30T08:54:40Z</time>
      </trkpt>
      <trkpt lat="47.91576" lon="-3.46507">
        <ele>80.13</ele>
        <time>2018-05-30T08:54:51Z</time>
      </trkpt>
      <trkpt lat="47.91574" lon="-3.46489">
        <ele>79.52</ele>
        <time>2018-05-30T08:55:00Z</time>
      </trkpt>
      <trkpt lat="47.91577" lon="-3.46477">
        <ele>80.07</ele>
        <time>2018-05-30T08:55:06Z</time>
      </trkpt>
      <trkpt lat="47.91584" lon="-3.46455">
        <ele>79.19</ele>
        <time>2018-05-30T08:55:18Z</time>
      </trkpt>
      <trkpt lat="47.91589" lon="-3.46419">
        <ele>76.13</ele>
        <time>2018-05-30T08:55:34Z</time>
      </trkpt>
      <trkpt lat="47.91592" lon="-3.4639">
        <ele>72.99</ele>
        <time>2018-05-30T08:55:49Z</time>
      </trkpt>
      <trkpt lat="47.9159" lon="-3.46369">
        <ele>69.87</ele>
        <time>2018-05-30T08:55:59Z</time>
      </trkpt>
      <trkpt lat="47.91593" lon="-3.46338">
        <ele>66.86</ele>
        <time>2018-05-30T08:56:08Z</time>
      </trkpt>
      <trkpt lat="47.91591" lon="-3.46302">
        <ele>63.63</ele>
        <time>2018-05-30T08:56:21Z</time>
      </trkpt>
      <trkpt lat="47.91592" lon="-3.46281">
        <ele>60.36</ele>
        <time>2018-05-30T08:56:33Z</time>
      </trkpt>
      <trkpt lat="47.91588" lon="-3.46266">
        <ele>57.2</ele>
        <time>2018-05-30T08:56:44Z</time>
      </trkpt>
      <trkpt lat="47.91586" lon="-3.4626">
        <ele>55.82</ele>
        <time>2018-05-30T08:56:49Z</time>
      </trkpt>
      <trkpt lat="47.91581" lon="-3.46253">
        <ele>54.15</ele>
        <time>2018-05-30T08:56:54Z</time>
      </trkpt>
      <trkpt lat="47.91571" lon="-3.46244">
        <ele>51.11</ele>
        <time>2018-05-30T08:57:09Z</time>
      </trkpt>
      <trkpt lat="47.91554" lon="-3.46225">
        <ele>47.84</ele>
        <time>2018-05-30T08:57:27Z</time>
      </trkpt>
      <trkpt lat="47.91544" lon="-3.4621">
        <ele>46.38</ele>
        <time>2018-05-30T08:57:35Z</time>
      </trkpt>
      <trkpt lat="47.91537" lon="-3.46202">
        <ele>45.96</ele>
        <time>2018-05-30T08:57:39Z</time>
      </trkpt>
      <trkpt lat="47.91511" lon="-3.46164">
        <ele>44.4</ele>
        <time>2018-05-30T08:57:59Z</time>
      </trkpt>
      <trkpt lat="47.91497" lon="-3.46148">
        <ele>43.53</ele>
        <time>2018-05-30T08:58:11Z</time>
      </trkpt>
      <trkpt lat="47.91477" lon="-3.46142">
        <ele>42.83</ele>
        <time>2018-05-30T08:58:21Z</time>
      </trkpt>
      <trkpt lat="47.91453" lon="-3.46129">
        <ele>42.38</ele>
        <time>2018-05-30T08:58:36Z</time>
      </trkpt>
      <trkpt lat="47.9143" lon="-3.46126">
        <ele>42.29</ele>
        <time>2018-05-30T08:58:51Z</time>
      </trkpt>
      <trkpt lat="47.91426" lon="-3.46127">
        <ele>42.55</ele>
        <time>2018-05-30T08:58:55Z</time>
      </trkpt>
      <trkpt lat="47.9142" lon="-3.46128">
        <ele>44.21</ele>
        <time>2018-05-30T08:59:06Z</time>
      </trkpt>
      <trkpt lat="47.91418" lon="-3.46126">
        <ele>44.59</ele>
        <time>2018-05-30T08:59:13Z</time>
      </trkpt>
      <trkpt lat="47.91399" lon="-3.46124">
        <ele>45.57</ele>
        <time>2018-05-30T08:59:30Z</time>
      </trkpt>
      <trkpt lat="47.91393" lon="-3.46123">
        <ele>46.04</ele>
        <time>2018-05-30T08:59:34Z</time>
      </trkpt>
      <trkpt lat="47.91356" lon="-3.46114">
        <ele>44.83</ele>
        <time>2018-05-30T08:59:55Z</time>
      </trkpt>
      <trkpt lat="47.91329" lon="-3.46109">
        <ele>42.88</ele>
        <time>2018-05-30T09:00:15Z</time>
      </trkpt>
      <trkpt lat="47.91327" lon="-3.46109">
        <ele>42.73</ele>
        <time>2018-05-30T09:00:16Z</time>
      </trkpt>
      <trkpt lat="47.91317" lon="-3.4611">
        <ele>42.14</ele>
        <time>2018-05-30T09:00:21Z</time>
      </trkpt>
      <trkpt lat="47.9129" lon="-3.4609">
        <ele>42.61</ele>
        <time>2018-05-30T09:00:43Z</time>
      </trkpt>
      <trkpt lat="47.91268" lon="-3.46079">
        <ele>42.65</ele>
        <time>2018-05-30T09:00:58Z</time>
      </trkpt>
      <trkpt lat="47.91266" lon="-3.46077">
        <ele>42.68</ele>
        <time>2018-05-30T09:01:00Z</time>
      </trkpt>
      <trkpt lat="47.91261" lon="-3.46074">
        <ele>42.66</ele>
        <time>2018-05-30T09:01:03Z</time>
      </trkpt>
      <trkpt lat="47.91251" lon="-3.46072">
        <ele>42.42</ele>
        <time>2018-05-30T09:01:11Z</time>
      </trkpt>
      <trkpt lat="47.91237" lon="-3.46073">
        <ele>41.47</ele>
        <time>2018-05-30T09:01:23Z</time>
      </trkpt>
      <trkpt lat="47.91213" lon="-3.4607">
        <ele>39.8</ele>
        <time>2018-05-30T09:01:42Z</time>
      </trkpt>
      <trkpt lat="47.91183" lon="-3.46071">
        <ele>39.8</ele>
        <time>2018-05-30T09:02:01Z</time>
      </trkpt>
      <trkpt lat="47.91164" lon="-3.46064">
        <ele>40.43</ele>
        <time>2018-05-30T09:02:16Z</time>
      </trkpt>
      <trkpt lat="47.9113" lon="-3.4607">
        <ele>40.61</ele>
        <time>2018-05-30T09:02:39Z</time>
      </trkpt>
      <trkpt lat="47.91103" lon="-3.46069">
        <ele>41.54</ele>
        <time>2018-05-30T09:02:59Z</time>
      </trkpt>
      <trkpt lat="47.91097" lon="-3.46071">
        <ele>41.88</ele>
        <time>2018-05-30T09:03:05Z</time>
      </trkpt>
      <trkpt lat="47.91059" lon="-3.46073">
        <ele>41.53</ele>
        <time>2018-05-30T09:03:26Z</time>
      </trkpt>
      <trkpt lat="47.91037" lon="-3.46072">
        <ele>40.52</ele>
        <time>2018-05-30T09:03:43Z</time>
      </trkpt>
      <trkpt lat="47.91034" lon="-3.46072">
        <ele>40.38</ele>
        <time>2018-05-30T09:03:44Z</time>
      </trkpt>
      <trkpt lat="47.91026" lon="-3.46073">
        <ele>40</ele>
        <time>2018-05-30T09:03:48Z</time>
      </trkpt>
      <trkpt lat="47.91023" lon="-3.46072">
        <ele>39.77</ele>
        <time>2018-05-30T09:03:50Z</time>
      </trkpt>
      <trkpt lat="47.91007" lon="-3.46067">
        <ele>38.63</ele>
        <time>2018-05-30T09:04:02Z</time>
      </trkpt>
      <trkpt lat="47.9099" lon="-3.46064">
        <ele>38.11</ele>
        <time>2018-05-30T09:04:12Z</time>
      </trkpt>
      <trkpt lat="47.90964" lon="-3.46058">
        <ele>37.61</ele>
        <time>2018-05-30T09:04:33Z</time>
      </trkpt>
      <trkpt lat="47.90959" lon="-3.4606">
        <ele>37.53</ele>
        <time>2018-05-30T09:04:37Z</time>
      </trkpt>
      <trkpt lat="47.90926" lon="-3.46066">
        <ele>38.32</ele>
        <time>2018-05-30T09:04:57Z</time>
      </trkpt>
      <trkpt lat="47.90882" lon="-3.46067">
        <ele>37.72</ele>
        <time>2018-05-30T09:05:14Z</time>
      </trkpt>
      <trkpt lat="47.90873" lon="-3.46064">
        <ele>37.47</ele>
        <time>2018-05-30T09:05:18Z</time>
      </trkpt>
      <trkpt lat="47.90864" lon="-3.46061">
        <ele>37.39</ele>
        <time>2018-05-30T09:05:23Z</time>
      </trkpt>
      <trkpt lat="47.90851" lon="-3.46065">
        <ele>37.43</ele>
        <time>2018-05-30T09:05:30Z</time>
      </trkpt>
      <trkpt lat="47.90849" lon="-3.46066">
        <ele>37.5</ele>
        <time>2018-05-30T09:05:31Z</time>
      </trkpt>
      <trkpt lat="47.90847" lon="-3.46066">
        <ele>37.51</ele>
        <time>2018-05-30T09:05:32Z</time>
      </trkpt>
      <trkpt lat="47.90845" lon="-3.46068">
        <ele>37.5</ele>
        <time>2018-05-30T09:05:34Z</time>
      </trkpt>
      <trkpt lat="47.90843" lon="-3.4607">
        <ele>37.52</ele>
        <time>2018-05-30T09:05:35Z</time>
      </trkpt>
      <trkpt lat="47.90842" lon="-3.46072">
        <ele>37.53</ele>
        <time>2018-05-30T09:05:36Z</time>
      </trkpt>
      <trkpt lat="47.90839" lon="-3.46075">
        <ele>37.55</ele>
        <time>2018-05-30T09:05:37Z</time>
      </trkpt>
      <trkpt lat="47.90837" lon="-3.46077">
        <ele>37.58</ele>
        <time>2018-05-30T09:05:38Z</time>
      </trkpt>
      <trkpt lat="47.90834" lon="-3.46079">
        <ele>37.64</ele>
        <time>2018-05-30T09:05:39Z</time>
      </trkpt>
      <trkpt lat="47.9082" lon="-3.46072">
        <ele>37.73</ele>
        <time>2018-05-30T09:05:40Z</time>
      </trkpt>
      <trkpt lat="47.90814" lon="-3.46071">
        <ele>37.86</ele>
        <time>2018-05-30T09:05:41Z</time>
      </trkpt>
      <trkpt lat="47.9081" lon="-3.46073">
        <ele>38.02</ele>
        <time>2018-05-30T09:05:42Z</time>
      </trkpt>
      <trkpt lat="47.90765" lon="-3.46104">
        <ele>39.69</ele>
        <time>2018-05-30T09:05:51Z</time>
      </trkpt>
      <trkpt lat="47.90757" lon="-3.46106">
        <ele>39.87</ele>
        <time>2018-05-30T09:05:52Z</time>
      </trkpt>
      <trkpt lat="47.90749" lon="-3.46111">
        <ele>40.11</ele>
        <time>2018-05-30T09:05:53Z</time>
      </trkpt>
      <trkpt lat="47.9074" lon="-3.46123">
        <ele>40.7</ele>
        <time>2018-05-30T09:05:55Z</time>
      </trkpt>
      <trkpt lat="47.90735" lon="-3.46129">
        <ele>41.07</ele>
        <time>2018-05-30T09:05:56Z</time>
      </trkpt>
      <trkpt lat="47.90718" lon="-3.46149">
        <ele>42.54</ele>
        <time>2018-05-30T09:05:59Z</time>
      </trkpt>
      <trkpt lat="47.90713" lon="-3.46155">
        <ele>42.54</ele>
        <time>2018-05-30T09:06:00Z</time>
      </trkpt>
      <trkpt lat="47.90708" lon="-3.46161">
        <ele>43.23</ele>
        <time>2018-05-30T09:06:01Z</time>
      </trkpt>
      <trkpt lat="47.90686" lon="-3.46184">
        <ele>46.67</ele>
        <time>2018-05-30T09:06:07Z</time>
      </trkpt>
      <trkpt lat="47.9066" lon="-3.46207">
        <ele>49.97</ele>
        <time>2018-05-30T09:06:14Z</time>
      </trkpt>
      <trkpt lat="47.90631" lon="-3.46226">
        <ele>53.11</ele>
        <time>2018-05-30T09:06:23Z</time>
      </trkpt>
      <trkpt lat="47.90629" lon="-3.46229">
        <ele>53.39</ele>
        <time>2018-05-30T09:06:24Z</time>
      </trkpt>
      <trkpt lat="47.90625" lon="-3.46238">
        <ele>54.37</ele>
        <time>2018-05-30T09:06:28Z</time>
      </trkpt>
      <trkpt lat="47.90625" lon="-3.46243">
        <ele>54.92</ele>
        <time>2018-05-30T09:06:31Z</time>
      </trkpt>
      <trkpt lat="47.90627" lon="-3.46249">
        <ele>55.63</ele>
        <time>2018-05-30T09:06:35Z</time>
      </trkpt>
      <trkpt lat="47.90631" lon="-3.46251">
        <ele>56.49</ele>
        <time>2018-05-30T09:06:40Z</time>
      </trkpt>
      <trkpt lat="47.90633" lon="-3.46255">
        <ele>56.8</ele>
        <time>2018-05-30T09:06:42Z</time>
      </trkpt>
      <trkpt lat="47.90634" lon="-3.46258">
        <ele>56.95</ele>
        <time>2018-05-30T09:06:43Z</time>
      </trkpt>
      <trkpt lat="47.90634" lon="-3.46262">
        <ele>57.1</ele>
        <time>2018-05-30T09:06:44Z</time>
      </trkpt>
      <trkpt lat="47.90634" lon="-3.46266">
        <ele>57.24</ele>
        <time>2018-05-30T09:06:45Z</time>
      </trkpt>
      <trkpt lat="47.90634" lon="-3.46271">
        <ele>57.35</ele>
        <time>2018-05-30T09:06:46Z</time>
      </trkpt>
      <trkpt lat="47.90634" lon="-3.46276">
        <ele>57.43</ele>
        <time>2018-05-30T09:06:47Z</time>
      </trkpt>
      <trkpt lat="47.90635" lon="-3.46281">
        <ele>57.5</ele>
        <time>2018-05-30T09:06:48Z</time>
      </trkpt>
      <trkpt lat="47.90634" lon="-3.46331">
        <ele>57.63</ele>
        <time>2018-05-30T09:06:58Z</time>
      </trkpt>
      <trkpt lat="47.90638" lon="-3.46365">
        <ele>57.25</ele>
        <time>2018-05-30T09:07:10Z</time>
      </trkpt>
      <trkpt lat="47.90634" lon="-3.46394">
        <ele>55.46</ele>
        <time>2018-05-30T09:07:24Z</time>
      </trkpt>
      <trkpt lat="47.90634" lon="-3.46427">
        <ele>52.6</ele>
        <time>2018-05-30T09:07:38Z</time>
      </trkpt>
      <trkpt lat="47.90642" lon="-3.46447">
        <ele>51.02</ele>
        <time>2018-05-30T09:07:47Z</time>
      </trkpt>
      <trkpt lat="47.90643" lon="-3.46457">
        <ele>50.43</ele>
        <time>2018-05-30T09:07:53Z</time>
      </trkpt>
      <trkpt lat="47.90643" lon="-3.46461">
        <ele>50.33</ele>
        <time>2018-05-30T09:07:54Z</time>
      </trkpt>
      <trkpt lat="47.90643" lon="-3.46464">
        <ele>50.24</ele>
        <time>2018-05-30T09:07:55Z</time>
      </trkpt>
      <trkpt lat="47.90644" lon="-3.46472">
        <ele>49.98</ele>
        <time>2018-05-30T09:07:58Z</time>
      </trkpt>
      <trkpt lat="47.90652" lon="-3.46489">
        <ele>48.21</ele>
        <time>2018-05-30T09:08:07Z</time>
      </trkpt>
      <trkpt lat="47.90654" lon="-3.4649">
        <ele>47.93</ele>
        <time>2018-05-30T09:08:08Z</time>
      </trkpt>
      <trkpt lat="47.9066" lon="-3.46497">
        <ele>44.67</ele>
        <time>2018-05-30T09:08:18Z</time>
      </trkpt>
      <trkpt lat="47.90664" lon="-3.46502">
        <ele>41.41</ele>
        <time>2018-05-30T09:08:27Z</time>
      </trkpt>
      <trkpt lat="47.9068" lon="-3.46517">
        <ele>39.37</ele>
        <time>2018-05-30T09:08:47Z</time>
      </trkpt>
      <trkpt lat="47.90686" lon="-3.4652">
        <ele>39.4</ele>
        <time>2018-05-30T09:08:52Z</time>
      </trkpt>
      <trkpt lat="47.90689" lon="-3.46522">
        <ele>39.36</ele>
        <time>2018-05-30T09:08:53Z</time>
      </trkpt>
      <trkpt lat="47.9069" lon="-3.46522">
        <ele>39.26</ele>
        <time>2018-05-30T09:08:54Z</time>
      </trkpt>
      <trkpt lat="47.90692" lon="-3.46523">
        <ele>39.22</ele>
        <time>2018-05-30T09:08:55Z</time>
      </trkpt>
      <trkpt lat="47.90723" lon="-3.46547">
        <ele>38.74</ele>
        <time>2018-05-30T09:09:18Z</time>
      </trkpt>
      <trkpt lat="47.90733" lon="-3.46556">
        <ele>38.77</ele>
        <time>2018-05-30T09:09:26Z</time>
      </trkpt>
      <trkpt lat="47.90759" lon="-3.46574">
        <ele>38.5</ele>
        <time>2018-05-30T09:09:44Z</time>
      </trkpt>
      <trkpt lat="47.90761" lon="-3.46571">
        <ele>38.59</ele>
        <time>2018-05-30T09:09:47Z</time>
      </trkpt>
      <trkpt lat="47.90771" lon="-3.46577">
        <ele>38.66</ele>
        <time>2018-05-30T09:09:59Z</time>
      </trkpt>
      <trkpt lat="47.90786" lon="-3.46591">
        <ele>38.61</ele>
        <time>2018-05-30T09:10:13Z</time>
      </trkpt>
      <trkpt lat="47.90796" lon="-3.46612">
        <ele>38.37</ele>
        <time>2018-05-30T09:10:23Z</time>
      </trkpt>
      <trkpt lat="47.90811" lon="-3.46641">
        <ele>38.75</ele>
        <time>2018-05-30T09:10:39Z</time>
      </trkpt>
      <trkpt lat="47.90817" lon="-3.46649">
        <ele>39.6</ele>
        <time>2018-05-30T09:10:47Z</time>
      </trkpt>
      <trkpt lat="47.90823" lon="-3.46656">
        <ele>40</ele>
        <time>2018-05-30T09:10:52Z</time>
      </trkpt>
      <trkpt lat="47.90829" lon="-3.4667">
        <ele>40.65</ele>
        <time>2018-05-30T09:11:04Z</time>
      </trkpt>
      <trkpt lat="47.90842" lon="-3.46702">
        <ele>41.48</ele>
        <time>2018-05-30T09:11:20Z</time>
      </trkpt>
      <trkpt lat="47.90845" lon="-3.46708">
        <ele>41.52</ele>
        <time>2018-05-30T09:11:22Z</time>
      </trkpt>
      <trkpt lat="47.9085" lon="-3.46731">
        <ele>40.92</ele>
        <time>2018-05-30T09:11:31Z</time>
      </trkpt>
      <trkpt lat="47.9085" lon="-3.46745">
        <ele>40.27</ele>
        <time>2018-05-30T09:11:42Z</time>
      </trkpt>
      <trkpt lat="47.90849" lon="-3.46747">
        <ele>40.11</ele>
        <time>2018-05-30T09:11:52Z</time>
      </trkpt>
      <trkpt lat="47.90846" lon="-3.46749">
        <ele>40.02</ele>
        <time>2018-05-30T09:11:58Z</time>
      </trkpt>
      <trkpt lat="47.90836" lon="-3.46759">
        <ele>39.41</ele>
        <time>2018-05-30T09:12:14Z</time>
      </trkpt>
      <trkpt lat="47.90837" lon="-3.46808">
        <ele>38.79</ele>
        <time>2018-05-30T09:12:35Z</time>
      </trkpt>
      <trkpt lat="47.90836" lon="-3.46816">
        <ele>38.7</ele>
        <time>2018-05-30T09:12:38Z</time>
      </trkpt>
      <trkpt lat="47.90835" lon="-3.4686">
        <ele>38.4</ele>
        <time>2018-05-30T09:12:58Z</time>
      </trkpt>
      <trkpt lat="47.90827" lon="-3.46894">
        <ele>38.89</ele>
        <time>2018-05-30T09:13:14Z</time>
      </trkpt>
      <trkpt lat="47.90817" lon="-3.46941">
        <ele>39.87</ele>
        <time>2018-05-30T09:13:32Z</time>
      </trkpt>
      <trkpt lat="47.90812" lon="-3.46951">
        <ele>39.87</ele>
        <time>2018-05-30T09:13:35Z</time>
      </trkpt>
      <trkpt lat="47.90804" lon="-3.46973">
        <ele>39.48</ele>
        <time>2018-05-30T09:13:46Z</time>
      </trkpt>
      <trkpt lat="47.908" lon="-3.46978">
        <ele>39.82</ele>
        <time>2018-05-30T09:13:49Z</time>
      </trkpt>
      <trkpt lat="47.90791" lon="-3.46991">
        <ele>40.08</ele>
        <time>2018-05-30T09:13:59Z</time>
      </trkpt>
      <trkpt lat="47.90789" lon="-3.46994">
        <ele>39.78</ele>
        <time>2018-05-30T09:14:01Z</time>
      </trkpt>
      <trkpt lat="47.90784" lon="-3.46999">
        <ele>38.94</ele>
        <time>2018-05-30T09:14:06Z</time>
      </trkpt>
      <trkpt lat="47.90777" lon="-3.47004">
        <ele>38.18</ele>
        <time>2018-05-30T09:14:11Z</time>
      </trkpt>
      <trkpt lat="47.90771" lon="-3.47009">
        <ele>37.74</ele>
        <time>2018-05-30T09:14:15Z</time>
      </trkpt>
      <trkpt lat="47.90768" lon="-3.47013">
        <ele>37.65</ele>
        <time>2018-05-30T09:14:18Z</time>
      </trkpt>
      <trkpt lat="47.90756" lon="-3.47027">
        <ele>37.99</ele>
        <time>2018-05-30T09:14:30Z</time>
      </trkpt>
      <trkpt lat="47.90745" lon="-3.47035">
        <ele>38.38</ele>
        <time>2018-05-30T09:14:34Z</time>
      </trkpt>
      <trkpt lat="47.90733" lon="-3.47042">
        <ele>39.09</ele>
        <time>2018-05-30T09:14:39Z</time>
      </trkpt>
      <trkpt lat="47.90724" lon="-3.47045">
        <ele>39.17</ele>
        <time>2018-05-30T09:14:42Z</time>
      </trkpt>
      <trkpt lat="47.90714" lon="-3.47052">
        <ele>39.18</ele>
        <time>2018-05-30T09:14:46Z</time>
      </trkpt>
      <trkpt lat="47.90686" lon="-3.47049">
        <ele>38.57</ele>
        <time>2018-05-30T09:15:02Z</time>
      </trkpt>
      <trkpt lat="47.90681" lon="-3.47042">
        <ele>37.43</ele>
        <time>2018-05-30T09:15:09Z</time>
      </trkpt>
      <trkpt lat="47.90664" lon="-3.4702">
        <ele>36.97</ele>
        <time>2018-05-30T09:15:25Z</time>
      </trkpt>
      <trkpt lat="47.90648" lon="-3.47001">
        <ele>36.3</ele>
        <time>2018-05-30T09:15:38Z</time>
      </trkpt>
      <trkpt lat="47.90644" lon="-3.46996">
        <ele>36.06</ele>
        <time>2018-05-30T09:15:42Z</time>
      </trkpt>
      <trkpt lat="47.90628" lon="-3.46971">
        <ele>36.02</ele>
        <time>2018-05-30T09:15:59Z</time>
      </trkpt>
      <trkpt lat="47.90626" lon="-3.46967">
        <ele>35.97</ele>
        <time>2018-05-30T09:16:01Z</time>
      </trkpt>
      <trkpt lat="47.90601" lon="-3.46936">
        <ele>35.95</ele>
        <time>2018-05-30T09:16:22Z</time>
      </trkpt>
      <trkpt lat="47.90594" lon="-3.4695">
        <ele>37.48</ele>
        <time>2018-05-30T09:16:33Z</time>
      </trkpt>
      <trkpt lat="47.90585" lon="-3.46969">
        <ele>41.3</ele>
        <time>2018-05-30T09:16:43Z</time>
      </trkpt>
      <trkpt lat="47.90579" lon="-3.46982">
        <ele>44.37</ele>
        <time>2018-05-30T09:16:53Z</time>
      </trkpt>
      <trkpt lat="47.90577" lon="-3.47">
        <ele>47.48</ele>
        <time>2018-05-30T09:17:06Z</time>
      </trkpt>
      <trkpt lat="47.90577" lon="-3.47005">
        <ele>48.53</ele>
        <time>2018-05-30T09:17:09Z</time>
      </trkpt>
      <trkpt lat="47.90571" lon="-3.47048">
        <ele>50.93</ele>
        <time>2018-05-30T09:17:28Z</time>
      </trkpt>
      <trkpt lat="47.90562" lon="-3.47097">
        <ele>51.74</ele>
        <time>2018-05-30T09:17:51Z</time>
      </trkpt>
      <trkpt lat="47.90557" lon="-3.47123">
        <ele>51.72</ele>
        <time>2018-05-30T09:18:03Z</time>
      </trkpt>
      <trkpt lat="47.90545" lon="-3.47162">
        <ele>52.1</ele>
        <time>2018-05-30T09:18:21Z</time>
      </trkpt>
      <trkpt lat="47.90531" lon="-3.47202">
        <ele>52.74</ele>
        <time>2018-05-30T09:18:39Z</time>
      </trkpt>
      <trkpt lat="47.90518" lon="-3.47214">
        <ele>50.97</ele>
        <time>2018-05-30T09:18:56Z</time>
      </trkpt>
      <trkpt lat="47.90509" lon="-3.47214">
        <ele>50.1</ele>
        <time>2018-05-30T09:19:01Z</time>
      </trkpt>
      <trkpt lat="47.9049" lon="-3.47207">
        <ele>47.94</ele>
        <time>2018-05-30T09:19:13Z</time>
      </trkpt>
      <trkpt lat="47.90489" lon="-3.47207">
        <ele>47.81</ele>
        <time>2018-05-30T09:19:14Z</time>
      </trkpt>
      <trkpt lat="47.90476" lon="-3.472">
        <ele>46.97</ele>
        <time>2018-05-30T09:19:23Z</time>
      </trkpt>
      <trkpt lat="47.90459" lon="-3.4719">
        <ele>45.76</ele>
        <time>2018-05-30T09:19:34Z</time>
      </trkpt>
      <trkpt lat="47.90442" lon="-3.47183">
        <ele>44.03</ele>
        <time>2018-05-30T09:19:47Z</time>
      </trkpt>
      <trkpt lat="47.90437" lon="-3.47173">
        <ele>43.39</ele>
        <time>2018-05-30T09:20:07Z</time>
      </trkpt>
      <trkpt lat="47.90432" lon="-3.47162">
        <ele>43.02</ele>
        <time>2018-05-30T09:20:33Z</time>
      </trkpt>
      <trkpt lat="47.90432" lon="-3.47153">
        <ele>42.92</ele>
        <time>2018-05-30T09:20:52Z</time>
      </trkpt>
      <trkpt lat="47.90432" lon="-3.47149">
        <ele>42.44</ele>
        <time>2018-05-30T09:21:22Z</time>
      </trkpt>
      <trkpt lat="47.90433" lon="-3.4714">
        <ele>42.49</ele>
        <time>2018-05-30T09:21:37Z</time>
      </trkpt>
      <trkpt lat="47.90433" lon="-3.4713">
        <ele>42.36</ele>
        <time>2018-05-30T09:21:42Z</time>
      </trkpt>
      <trkpt lat="47.90432" lon="-3.47101">
        <ele>42.03</ele>
        <time>2018-05-30T09:21:57Z</time>
      </trkpt>
      <trkpt lat="47.90432" lon="-3.47091">
        <ele>41.93</ele>
        <time>2018-05-30T09:22:01Z</time>
      </trkpt>
      <trkpt lat="47.90431" lon="-3.47063">
        <ele>40.7</ele>
        <time>2018-05-30T09:22:17Z</time>
      </trkpt>
      <trkpt lat="47.90431" lon="-3.47061">
        <ele>40.59</ele>
        <time>2018-05-30T09:22:18Z</time>
      </trkpt>
      <trkpt lat="47.90431" lon="-3.47052">
        <ele>40.11</ele>
        <time>2018-05-30T09:22:24Z</time>
      </trkpt>
      <trkpt lat="47.9043" lon="-3.47025">
        <ele>39.27</ele>
        <time>2018-05-30T09:22:38Z</time>
      </trkpt>
      <trkpt lat="47.90429" lon="-3.47">
        <ele>38.44</ele>
        <time>2018-05-30T09:22:50Z</time>
      </trkpt>
      <trkpt lat="47.90429" lon="-3.46973">
        <ele>37.56</ele>
        <time>2018-05-30T09:23:04Z</time>
      </trkpt>
      <trkpt lat="47.90429" lon="-3.46971">
        <ele>37.56</ele>
        <time>2018-05-30T09:23:05Z</time>
      </trkpt>
      <trkpt lat="47.90432" lon="-3.46938">
        <ele>37.22</ele>
        <time>2018-05-30T09:23:22Z</time>
      </trkpt>
      <trkpt lat="47.90431" lon="-3.46899">
        <ele>37.32</ele>
        <time>2018-05-30T09:23:38Z</time>
      </trkpt>
      <trkpt lat="47.90432" lon="-3.46895">
        <ele>37.3</ele>
        <time>2018-05-30T09:23:40Z</time>
      </trkpt>
      <trkpt lat="47.90433" lon="-3.4689">
        <ele>37.27</ele>
        <time>2018-05-30T09:23:42Z</time>
      </trkpt>
      <trkpt lat="47.90429" lon="-3.46868">
        <ele>37.43</ele>
        <time>2018-05-30T09:23:54Z</time>
      </trkpt>
      <trkpt lat="47.90428" lon="-3.46868">
        <ele>37.43</ele>
        <time>2018-05-30T09:23:55Z</time>
      </trkpt>
      <trkpt lat="47.90416" lon="-3.46866">
        <ele>34.96</ele>
        <time>2018-05-30T09:24:14Z</time>
      </trkpt>
      <trkpt lat="47.90408" lon="-3.46864">
        <ele>35.14</ele>
        <time>2018-05-30T09:24:36Z</time>
      </trkpt>
      <trkpt lat="47.90413" lon="-3.46872">
        <ele>35.22</ele>
        <time>2018-05-30T09:25:07Z</time>
      </trkpt>
      <trkpt lat="47.90406" lon="-3.46868">
        <ele>35.08</ele>
        <time>2018-05-30T09:25:40Z</time>
      </trkpt>
      <trkpt lat="47.90407" lon="-3.4687">
        <ele>35.09</ele>
        <time>2018-05-30T09:26:06Z</time>
      </trkpt>
      <trkpt lat="47.90398" lon="-3.46872">
        <ele>35.12</ele>
        <time>2018-05-30T09:26:18Z</time>
      </trkpt>
      <trkpt lat="47.90386" lon="-3.46877">
        <ele>34.85</ele>
        <time>2018-05-30T09:26:28Z</time>
      </trkpt>
      <trkpt lat="47.90371" lon="-3.46883">
        <ele>34.89</ele>
        <time>2018-05-30T09:26:41Z</time>
      </trkpt>
      <trkpt lat="47.90367" lon="-3.46884">
        <ele>34.94</ele>
        <time>2018-05-30T09:26:43Z</time>
      </trkpt>
      <trkpt lat="47.90333" lon="-3.46895">
        <ele>35.46</ele>
        <time>2018-05-30T09:27:07Z</time>
      </trkpt>
      <trkpt lat="47.90305" lon="-3.46909">
        <ele>36.39</ele>
        <time>2018-05-30T09:27:27Z</time>
      </trkpt>
      <trkpt lat="47.90283" lon="-3.46934">
        <ele>35.59</ele>
        <time>2018-05-30T09:27:46Z</time>
      </trkpt>
      <trkpt lat="47.9027" lon="-3.46961">
        <ele>35.81</ele>
        <time>2018-05-30T09:28:05Z</time>
      </trkpt>
      <trkpt lat="47.90262" lon="-3.46973">
        <ele>36.34</ele>
        <time>2018-05-30T09:28:20Z</time>
      </trkpt>
      <trkpt lat="47.90247" lon="-3.46979">
        <ele>37.7</ele>
        <time>2018-05-30T09:28:40Z</time>
      </trkpt>
      <trkpt lat="47.90219" lon="-3.46976">
        <ele>39.44</ele>
        <time>2018-05-30T09:28:56Z</time>
      </trkpt>
      <trkpt lat="47.90208" lon="-3.46977">
        <ele>40.42</ele>
        <time>2018-05-30T09:29:01Z</time>
      </trkpt>
      <trkpt lat="47.90195" lon="-3.46975">
        <ele>41.56</ele>
        <time>2018-05-30T09:29:09Z</time>
      </trkpt>
      <trkpt lat="47.9018" lon="-3.46966">
        <ele>42.26</ele>
        <time>2018-05-30T09:29:17Z</time>
      </trkpt>
      <trkpt lat="47.90155" lon="-3.46949">
        <ele>43.48</ele>
        <time>2018-05-30T09:29:26Z</time>
      </trkpt>
      <trkpt lat="47.90122" lon="-3.46941">
        <ele>46.09</ele>
        <time>2018-05-30T09:29:34Z</time>
      </trkpt>
      <trkpt lat="47.90119" lon="-3.46939">
        <ele>46.09</ele>
        <time>2018-05-30T09:29:35Z</time>
      </trkpt>
      <trkpt lat="47.901" lon="-3.46937">
        <ele>49.14</ele>
        <time>2018-05-30T09:29:41Z</time>
      </trkpt>
      <trkpt lat="47.90079" lon="-3.46942">
        <ele>50.95</ele>
        <time>2018-05-30T09:29:46Z</time>
      </trkpt>
      <trkpt lat="47.90074" lon="-3.46943">
        <ele>51.3</ele>
        <time>2018-05-30T09:29:47Z</time>
      </trkpt>
      <trkpt lat="47.90067" lon="-3.46943">
        <ele>51.68</ele>
        <time>2018-05-30T09:29:48Z</time>
      </trkpt>
      <trkpt lat="47.9006" lon="-3.46944">
        <ele>52.03</ele>
        <time>2018-05-30T09:29:49Z</time>
      </trkpt>
      <trkpt lat="47.90054" lon="-3.46946">
        <ele>52.31</ele>
        <time>2018-05-30T09:29:50Z</time>
      </trkpt>
      <trkpt lat="47.9005" lon="-3.46945">
        <ele>52.56</ele>
        <time>2018-05-30T09:29:51Z</time>
      </trkpt>
      <trkpt lat="47.90045" lon="-3.46946">
        <ele>52.77</ele>
        <time>2018-05-30T09:29:52Z</time>
      </trkpt>
      <trkpt lat="47.9004" lon="-3.46946">
        <ele>52.96</ele>
        <time>2018-05-30T09:29:53Z</time>
      </trkpt>
      <trkpt lat="47.90035" lon="-3.46948">
        <ele>53.15</ele>
        <time>2018-05-30T09:29:54Z</time>
      </trkpt>
      <trkpt lat="47.9003" lon="-3.46951">
        <ele>53.33</ele>
        <time>2018-05-30T09:29:55Z</time>
      </trkpt>
      <trkpt lat="47.90021" lon="-3.46957">
        <ele>53.67</ele>
        <time>2018-05-30T09:29:57Z</time>
      </trkpt>
      <trkpt lat="47.90016" lon="-3.46959">
        <ele>53.82</ele>
        <time>2018-05-30T09:29:58Z</time>
      </trkpt>
      <trkpt lat="47.89996" lon="-3.46972">
        <ele>55.82</ele>
        <time>2018-05-30T09:30:04Z</time>
      </trkpt>
      <trkpt lat="47.89989" lon="-3.46987">
        <ele>57.88</ele>
        <time>2018-05-30T09:30:08Z</time>
      </trkpt>
      <trkpt lat="47.89976" lon="-3.47011">
        <ele>58.83</ele>
        <time>2018-05-30T09:30:13Z</time>
      </trkpt>
      <trkpt lat="47.89967" lon="-3.47035">
        <ele>59.42</ele>
        <time>2018-05-30T09:30:17Z</time>
      </trkpt>
      <trkpt lat="47.89959" lon="-3.47069">
        <ele>60.08</ele>
        <time>2018-05-30T09:30:21Z</time>
      </trkpt>
      <trkpt lat="47.89958" lon="-3.47078">
        <ele>60.2</ele>
        <time>2018-05-30T09:30:22Z</time>
      </trkpt>
      <trkpt lat="47.89957" lon="-3.47095">
        <ele>60.39</ele>
        <time>2018-05-30T09:30:24Z</time>
      </trkpt>
      <trkpt lat="47.89955" lon="-3.47171">
        <ele>62.6</ele>
        <time>2018-05-30T09:30:33Z</time>
      </trkpt>
      <trkpt lat="47.89955" lon="-3.47178">
        <ele>62.9</ele>
        <time>2018-05-30T09:30:34Z</time>
      </trkpt>
      <trkpt lat="47.89954" lon="-3.47183">
        <ele>63.22</ele>
        <time>2018-05-30T09:30:35Z</time>
      </trkpt>
      <trkpt lat="47.89954" lon="-3.47188">
        <ele>63.55</ele>
        <time>2018-05-30T09:30:36Z</time>
      </trkpt>
      <trkpt lat="47.89954" lon="-3.47193">
        <ele>63.92</ele>
        <time>2018-05-30T09:30:37Z</time>
      </trkpt>
      <trkpt lat="47.89958" lon="-3.47234">
        <ele>67.14</ele>
        <time>2018-05-30T09:30:48Z</time>
      </trkpt>
      <trkpt lat="47.89961" lon="-3.47264">
        <ele>68.8</ele>
        <time>2018-05-30T09:31:00Z</time>
      </trkpt>
      <trkpt lat="47.89965" lon="-3.47299">
        <ele>70.22</ele>
        <time>2018-05-30T09:31:14Z</time>
      </trkpt>
      <trkpt lat="47.89965" lon="-3.47301">
        <ele>70.26</ele>
        <time>2018-05-30T09:31:15Z</time>
      </trkpt>
      <trkpt lat="47.89966" lon="-3.47303">
        <ele>70.29</ele>
        <time>2018-05-30T09:31:16Z</time>
      </trkpt>
      <trkpt lat="47.89966" lon="-3.47305">
        <ele>70.31</ele>
        <time>2018-05-30T09:31:17Z</time>
      </trkpt>
      <trkpt lat="47.89965" lon="-3.47309">
        <ele>70.36</ele>
        <time>2018-05-30T09:31:19Z</time>
      </trkpt>
      <trkpt lat="47.89964" lon="-3.47312">
        <ele>70.54</ele>
        <time>2018-05-30T09:31:20Z</time>
      </trkpt>
      <trkpt lat="47.89965" lon="-3.47314">
        <ele>70.54</ele>
        <time>2018-05-30T09:31:21Z</time>
      </trkpt>
      <trkpt lat="47.89965" lon="-3.47316">
        <ele>70.75</ele>
        <time>2018-05-30T09:31:22Z</time>
      </trkpt>
      <trkpt lat="47.89965" lon="-3.47318">
        <ele>70.87</ele>
        <time>2018-05-30T09:31:23Z</time>
      </trkpt>
      <trkpt lat="47.89965" lon="-3.4732">
        <ele>70.96</ele>
        <time>2018-05-30T09:31:24Z</time>
      </trkpt>
      <trkpt lat="47.89964" lon="-3.47322">
        <ele>71.06</ele>
        <time>2018-05-30T09:31:25Z</time>
      </trkpt>
      <trkpt lat="47.89963" lon="-3.47325">
        <ele>71.15</ele>
        <time>2018-05-30T09:31:26Z</time>
      </trkpt>
      <trkpt lat="47.89963" lon="-3.47328">
        <ele>71.23</ele>
        <time>2018-05-30T09:31:27Z</time>
      </trkpt>
      <trkpt lat="47.89962" lon="-3.47331">
        <ele>71.29</ele>
        <time>2018-05-30T09:31:28Z</time>
      </trkpt>
      <trkpt lat="47.89961" lon="-3.47333">
        <ele>71.36</ele>
        <time>2018-05-30T09:31:29Z</time>
      </trkpt>
      <trkpt lat="47.89961" lon="-3.47336">
        <ele>71.4</ele>
        <time>2018-05-30T09:31:30Z</time>
      </trkpt>
      <trkpt lat="47.89961" lon="-3.47338">
        <ele>71.46</ele>
        <time>2018-05-30T09:31:31Z</time>
      </trkpt>
      <trkpt lat="47.89961" lon="-3.47341">
        <ele>71.51</ele>
        <time>2018-05-30T09:31:32Z</time>
      </trkpt>
      <trkpt lat="47.89952" lon="-3.47388">
        <ele>72.07</ele>
        <time>2018-05-30T09:31:45Z</time>
      </trkpt>
      <trkpt lat="47.89938" lon="-3.47449">
        <ele>72.83</ele>
        <time>2018-05-30T09:32:00Z</time>
      </trkpt>
      <trkpt lat="47.89927" lon="-3.47513">
        <ele>72.85</ele>
        <time>2018-05-30T09:32:15Z</time>
      </trkpt>
      <trkpt lat="47.89912" lon="-3.47572">
        <ele>71.82</ele>
        <time>2018-05-30T09:32:27Z</time>
      </trkpt>
      <trkpt lat="47.89901" lon="-3.47628">
        <ele>69.47</ele>
        <time>2018-05-30T09:32:42Z</time>
      </trkpt>
      <trkpt lat="47.899" lon="-3.47664">
        <ele>67.55</ele>
        <time>2018-05-30T09:32:57Z</time>
      </trkpt>
      <trkpt lat="47.89894" lon="-3.47703">
        <ele>64.95</ele>
        <time>2018-05-30T09:33:13Z</time>
      </trkpt>
      <trkpt lat="47.89893" lon="-3.47751">
        <ele>62.17</ele>
        <time>2018-05-30T09:33:33Z</time>
      </trkpt>
      <trkpt lat="47.89891" lon="-3.47794">
        <ele>60.43</ele>
        <time>2018-05-30T09:33:51Z</time>
      </trkpt>
      <trkpt lat="47.89889" lon="-3.47826">
        <ele>59.38</ele>
        <time>2018-05-30T09:34:06Z</time>
      </trkpt>
      <trkpt lat="47.8989" lon="-3.47865">
        <ele>58.21</ele>
        <time>2018-05-30T09:34:21Z</time>
      </trkpt>
      <trkpt lat="47.89892" lon="-3.4789">
        <ele>56.64</ele>
        <time>2018-05-30T09:34:35Z</time>
      </trkpt>
      <trkpt lat="47.89894" lon="-3.47915">
        <ele>55.23</ele>
        <time>2018-05-30T09:34:49Z</time>
      </trkpt>
      <trkpt lat="47.89897" lon="-3.47952">
        <ele>53.73</ele>
        <time>2018-05-30T09:35:03Z</time>
      </trkpt>
      <trkpt lat="47.89897" lon="-3.47956">
        <ele>53.5</ele>
        <time>2018-05-30T09:35:05Z</time>
      </trkpt>
      <trkpt lat="47.89896" lon="-3.47958">
        <ele>53.3</ele>
        <time>2018-05-30T09:35:06Z</time>
      </trkpt>
      <trkpt lat="47.89896" lon="-3.47961">
        <ele>52.8</ele>
        <time>2018-05-30T09:35:07Z</time>
      </trkpt>
      <trkpt lat="47.89895" lon="-3.47965">
        <ele>52.6</ele>
        <time>2018-05-30T09:35:08Z</time>
      </trkpt>
      <trkpt lat="47.89895" lon="-3.47969">
        <ele>52.44</ele>
        <time>2018-05-30T09:35:09Z</time>
      </trkpt>
      <trkpt lat="47.89894" lon="-3.47973">
        <ele>52.27</ele>
        <time>2018-05-30T09:35:10Z</time>
      </trkpt>
      <trkpt lat="47.89894" lon="-3.47976">
        <ele>52.07</ele>
        <time>2018-05-30T09:35:11Z</time>
      </trkpt>
      <trkpt lat="47.89893" lon="-3.47979">
        <ele>51.87</ele>
        <time>2018-05-30T09:35:12Z</time>
      </trkpt>
      <trkpt lat="47.89893" lon="-3.47982">
        <ele>51.71</ele>
        <time>2018-05-30T09:35:13Z</time>
      </trkpt>
      <trkpt lat="47.89893" lon="-3.47986">
        <ele>51.54</ele>
        <time>2018-05-30T09:35:14Z</time>
      </trkpt>
      <trkpt lat="47.89893" lon="-3.47989">
        <ele>51.37</ele>
        <time>2018-05-30T09:35:15Z</time>
      </trkpt>
      <trkpt lat="47.89893" lon="-3.47992">
        <ele>51.21</ele>
        <time>2018-05-30T09:35:16Z</time>
      </trkpt>
      <trkpt lat="47.89893" lon="-3.47994">
        <ele>51.04</ele>
        <time>2018-05-30T09:35:17Z</time>
      </trkpt>
      <trkpt lat="47.89894" lon="-3.47996">
        <ele>50.84</ele>
        <time>2018-05-30T09:35:18Z</time>
      </trkpt>
      <trkpt lat="47.89894" lon="-3.47998">
        <ele>50.6</ele>
        <time>2018-05-30T09:35:19Z</time>
      </trkpt>
      <trkpt lat="47.89894" lon="-3.48">
        <ele>50.37</ele>
        <time>2018-05-30T09:35:20Z</time>
      </trkpt>
      <trkpt lat="47.89894" lon="-3.48002">
        <ele>50.15</ele>
        <time>2018-05-30T09:35:21Z</time>
      </trkpt>
      <trkpt lat="47.89895" lon="-3.48007">
        <ele>49.36</ele>
        <time>2018-05-30T09:35:24Z</time>
      </trkpt>
      <trkpt lat="47.89896" lon="-3.48012">
        <ele>48.93</ele>
        <time>2018-05-30T09:35:26Z</time>
      </trkpt>
      <trkpt lat="47.89905" lon="-3.48023">
        <ele>46.91</ele>
        <time>2018-05-30T09:35:39Z</time>
      </trkpt>
      <trkpt lat="47.89907" lon="-3.48025">
        <ele>46.26</ele>
        <time>2018-05-30T09:35:59Z</time>
      </trkpt>
      <trkpt lat="47.89908" lon="-3.48027">
        <ele>46</ele>
        <time>2018-05-30T09:36:19Z</time>
      </trkpt>
      <trkpt lat="47.89901" lon="-3.48028">
        <ele>46.77</ele>
        <time>2018-05-30T09:36:43Z</time>
      </trkpt>
      <trkpt lat="47.89901" lon="-3.48034">
        <ele>46.94</ele>
        <time>2018-05-30T09:37:03Z</time>
      </trkpt>
      <trkpt lat="47.89899" lon="-3.48043">
        <ele>46.91</ele>
        <time>2018-05-30T09:37:14Z</time>
      </trkpt>
      <trkpt lat="47.89898" lon="-3.48043">
        <ele>46.78</ele>
        <time>2018-05-30T09:37:20Z</time>
      </trkpt>
      <trkpt lat="47.89898" lon="-3.48041">
        <ele>46.74</ele>
        <time>2018-05-30T09:37:24Z</time>
      </trkpt>
      <trkpt lat="47.89899" lon="-3.48037">
        <ele>46.7</ele>
        <time>2018-05-30T09:37:50Z</time>
      </trkpt>
      <trkpt lat="47.89905" lon="-3.4803">
        <ele>46.73</ele>
        <time>2018-05-30T09:38:16Z</time>
      </trkpt>
      <trkpt lat="47.899" lon="-3.48038">
        <ele>46.63</ele>
        <time>2018-05-30T09:38:39Z</time>
      </trkpt>
      <trkpt lat="47.89897" lon="-3.48035">
        <ele>46.66</ele>
        <time>2018-05-30T09:39:07Z</time>
      </trkpt>
      <trkpt lat="47.89893" lon="-3.48037">
        <ele>47.12</ele>
        <time>2018-05-30T09:39:31Z</time>
      </trkpt>
      <trkpt lat="47.89878" lon="-3.48041">
        <ele>48.82</ele>
        <time>2018-05-30T09:39:52Z</time>
      </trkpt>
      <trkpt lat="47.89862" lon="-3.48052">
        <ele>51.85</ele>
        <time>2018-05-30T09:40:08Z</time>
      </trkpt>
      <trkpt lat="47.89852" lon="-3.48065">
        <ele>54.9</ele>
        <time>2018-05-30T09:40:25Z</time>
      </trkpt>
      <trkpt lat="47.8985" lon="-3.48069">
        <ele>55.39</ele>
        <time>2018-05-30T09:40:30Z</time>
      </trkpt>
      <trkpt lat="47.89859" lon="-3.48081">
        <ele>55.82</ele>
        <time>2018-05-30T09:40:56Z</time>
      </trkpt>
      <trkpt lat="47.89872" lon="-3.48085">
        <ele>57.26</ele>
        <time>2018-05-30T09:41:13Z</time>
      </trkpt>
      <trkpt lat="47.89884" lon="-3.48087">
        <ele>57.75</ele>
        <time>2018-05-30T09:41:23Z</time>
      </trkpt>
      <trkpt lat="47.899" lon="-3.4809">
        <ele>57.95</ele>
        <time>2018-05-30T09:41:33Z</time>
      </trkpt>
      <trkpt lat="47.89909" lon="-3.48092">
        <ele>58.26</ele>
        <time>2018-05-30T09:41:37Z</time>
      </trkpt>
      <trkpt lat="47.89911" lon="-3.48094">
        <ele>58.38</ele>
        <time>2018-05-30T09:41:38Z</time>
      </trkpt>
      <trkpt lat="47.89913" lon="-3.48098">
        <ele>58.52</ele>
        <time>2018-05-30T09:41:39Z</time>
      </trkpt>
      <trkpt lat="47.89918" lon="-3.48127">
        <ele>59.78</ele>
        <time>2018-05-30T09:41:44Z</time>
      </trkpt>
      <trkpt lat="47.89915" lon="-3.48139">
        <ele>60.74</ele>
        <time>2018-05-30T09:41:47Z</time>
      </trkpt>
      <trkpt lat="47.89914" lon="-3.48141">
        <ele>61.08</ele>
        <time>2018-05-30T09:41:48Z</time>
      </trkpt>
      <trkpt lat="47.89913" lon="-3.48143">
        <ele>61.48</ele>
        <time>2018-05-30T09:41:49Z</time>
      </trkpt>
      <trkpt lat="47.89911" lon="-3.48145">
        <ele>61.98</ele>
        <time>2018-05-30T09:41:50Z</time>
      </trkpt>
      <trkpt lat="47.8991" lon="-3.48147">
        <ele>62.52</ele>
        <time>2018-05-30T09:41:51Z</time>
      </trkpt>
      <trkpt lat="47.8991" lon="-3.4815">
        <ele>63.05</ele>
        <time>2018-05-30T09:41:52Z</time>
      </trkpt>
      <trkpt lat="47.89918" lon="-3.48174">
        <ele>66.6</ele>
        <time>2018-05-30T09:42:01Z</time>
      </trkpt>
      <trkpt lat="47.89922" lon="-3.48181">
        <ele>66.75</ele>
        <time>2018-05-30T09:42:03Z</time>
      </trkpt>
      <trkpt lat="47.89937" lon="-3.48234">
        <ele>67.47</ele>
        <time>2018-05-30T09:42:13Z</time>
      </trkpt>
      <trkpt lat="47.89938" lon="-3.48244">
        <ele>68.03</ele>
        <time>2018-05-30T09:42:15Z</time>
      </trkpt>
      <trkpt lat="47.89951" lon="-3.48284">
        <ele>69.84</ele>
        <time>2018-05-30T09:42:25Z</time>
      </trkpt>
      <trkpt lat="47.8995" lon="-3.48338">
        <ele>69.2</ele>
        <time>2018-05-30T09:42:36Z</time>
      </trkpt>
      <trkpt lat="47.89944" lon="-3.48357">
        <ele>68.27</ele>
        <time>2018-05-30T09:42:40Z</time>
      </trkpt>
      <trkpt lat="47.89931" lon="-3.48421">
        <ele>66.63</ele>
        <time>2018-05-30T09:42:48Z</time>
      </trkpt>
      <trkpt lat="47.89921" lon="-3.48461">
        <ele>68.06</ele>
        <time>2018-05-30T09:42:53Z</time>
      </trkpt>
      <trkpt lat="47.89913" lon="-3.485">
        <ele>72.11</ele>
        <time>2018-05-30T09:42:59Z</time>
      </trkpt>
      <trkpt lat="47.89912" lon="-3.48533">
        <ele>74.37</ele>
        <time>2018-05-30T09:43:06Z</time>
      </trkpt>
      <trkpt lat="47.89906" lon="-3.48542">
        <ele>74.9</ele>
        <time>2018-05-30T09:43:09Z</time>
      </trkpt>
      <trkpt lat="47.89905" lon="-3.48583">
        <ele>75.79</ele>
        <time>2018-05-30T09:43:20Z</time>
      </trkpt>
      <trkpt lat="47.89905" lon="-3.48586">
        <ele>75.89</ele>
        <time>2018-05-30T09:43:21Z</time>
      </trkpt>
      <trkpt lat="47.89902" lon="-3.48605">
        <ele>76.44</ele>
        <time>2018-05-30T09:43:27Z</time>
      </trkpt>
      <trkpt lat="47.89897" lon="-3.48609">
        <ele>76.98</ele>
        <time>2018-05-30T09:43:30Z</time>
      </trkpt>
      <trkpt lat="47.89891" lon="-3.48618">
        <ele>78.37</ele>
        <time>2018-05-30T09:43:35Z</time>
      </trkpt>
      <trkpt lat="47.89886" lon="-3.48632">
        <ele>80.01</ele>
        <time>2018-05-30T09:43:40Z</time>
      </trkpt>
      <trkpt lat="47.89875" lon="-3.48639">
        <ele>81.23</ele>
        <time>2018-05-30T09:43:48Z</time>
      </trkpt>
      <trkpt lat="47.8987" lon="-3.4865">
        <ele>81.43</ele>
        <time>2018-05-30T09:43:53Z</time>
      </trkpt>
      <trkpt lat="47.89863" lon="-3.4866">
        <ele>81.2</ele>
        <time>2018-05-30T09:43:58Z</time>
      </trkpt>
      <trkpt lat="47.89841" lon="-3.48694">
        <ele>80.02</ele>
        <time>2018-05-30T09:44:11Z</time>
      </trkpt>
      <trkpt lat="47.89838" lon="-3.48698">
        <ele>79.2</ele>
        <time>2018-05-30T09:44:15Z</time>
      </trkpt>
      <trkpt lat="47.89835" lon="-3.48703">
        <ele>78.68</ele>
        <time>2018-05-30T09:44:22Z</time>
      </trkpt>
      <trkpt lat="47.89824" lon="-3.48718">
        <ele>77.02</ele>
        <time>2018-05-30T09:44:39Z</time>
      </trkpt>
      <trkpt lat="47.89814" lon="-3.48727">
        <ele>77.04</ele>
        <time>2018-05-30T09:44:57Z</time>
      </trkpt>
      <trkpt lat="47.8981" lon="-3.48725">
        <ele>76.92</ele>
        <time>2018-05-30T09:45:06Z</time>
      </trkpt>
      <trkpt lat="47.89804" lon="-3.48721">
        <ele>77.15</ele>
        <time>2018-05-30T09:45:10Z</time>
      </trkpt>
      <trkpt lat="47.89784" lon="-3.48704">
        <ele>77.88</ele>
        <time>2018-05-30T09:45:24Z</time>
      </trkpt>
      <trkpt lat="47.89758" lon="-3.48683">
        <ele>77.48</ele>
        <time>2018-05-30T09:45:39Z</time>
      </trkpt>
      <trkpt lat="47.89729" lon="-3.48653">
        <ele>78.14</ele>
        <time>2018-05-30T09:45:56Z</time>
      </trkpt>
      <trkpt lat="47.89702" lon="-3.48623">
        <ele>78.97</ele>
        <time>2018-05-30T09:46:14Z</time>
      </trkpt>
      <trkpt lat="47.897" lon="-3.48585">
        <ele>79.76</ele>
        <time>2018-05-30T09:46:31Z</time>
      </trkpt>
      <trkpt lat="47.89694" lon="-3.48541">
        <ele>79.66</ele>
        <time>2018-05-30T09:46:47Z</time>
      </trkpt>
      <trkpt lat="47.89673" lon="-3.48526">
        <ele>79.44</ele>
        <time>2018-05-30T09:46:53Z</time>
      </trkpt>
      <trkpt lat="47.8961" lon="-3.48486">
        <ele>80.71</ele>
        <time>2018-05-30T09:47:06Z</time>
      </trkpt>
      <trkpt lat="47.89564" lon="-3.48458">
        <ele>82.28</ele>
        <time>2018-05-30T09:47:14Z</time>
      </trkpt>
      <trkpt lat="47.89559" lon="-3.48455">
        <ele>82.39</ele>
        <time>2018-05-30T09:47:15Z</time>
      </trkpt>
      <trkpt lat="47.89523" lon="-3.48434">
        <ele>83.33</ele>
        <time>2018-05-30T09:47:22Z</time>
      </trkpt>
      <trkpt lat="47.89518" lon="-3.4843">
        <ele>83.37</ele>
        <time>2018-05-30T09:47:23Z</time>
      </trkpt>
      <trkpt lat="47.89499" lon="-3.48395">
        <ele>86.01</ele>
        <time>2018-05-30T09:47:32Z</time>
      </trkpt>
      <trkpt lat="47.89505" lon="-3.48364">
        <ele>89.04</ele>
        <time>2018-05-30T09:47:43Z</time>
      </trkpt>
      <trkpt lat="47.89514" lon="-3.4834">
        <ele>89.55</ele>
        <time>2018-05-30T09:47:57Z</time>
      </trkpt>
      <trkpt lat="47.89515" lon="-3.48338">
        <ele>89.83</ele>
        <time>2018-05-30T09:48:20Z</time>
      </trkpt>
      <trkpt lat="47.89513" lon="-3.48339">
        <ele>89.41</ele>
        <time>2018-05-30T09:48:48Z</time>
      </trkpt>
      <trkpt lat="47.89516" lon="-3.4834">
        <ele>88.83</ele>
        <time>2018-05-30T09:49:15Z</time>
      </trkpt>
      <trkpt lat="47.89517" lon="-3.4834">
        <ele>88.84</ele>
        <time>2018-05-30T09:49:40Z</time>
      </trkpt>
      <trkpt lat="47.89518" lon="-3.4834">
        <ele>88.81</ele>
        <time>2018-05-30T09:50:05Z</time>
      </trkpt>
      <trkpt lat="47.89518" lon="-3.4834">
        <ele>89.08</ele>
        <time>2018-05-30T09:50:32Z</time>
      </trkpt>
      <trkpt lat="47.89518" lon="-3.48338">
        <ele>89.02</ele>
        <time>2018-05-30T09:51:01Z</time>
      </trkpt>
      <trkpt lat="47.89516" lon="-3.48339">
        <ele>89.12</ele>
        <time>2018-05-30T09:51:26Z</time>
      </trkpt>
      <trkpt lat="47.89517" lon="-3.48333">
        <ele>89.06</ele>
        <time>2018-05-30T09:51:44Z</time>
      </trkpt>
      <trkpt lat="47.89517" lon="-3.48331">
        <ele>89.06</ele>
        <time>2018-05-30T09:51:45Z</time>
      </trkpt>
      <trkpt lat="47.89517" lon="-3.48329">
        <ele>89.06</ele>
        <time>2018-05-30T09:51:46Z</time>
      </trkpt>
      <trkpt lat="47.89522" lon="-3.48318">
        <ele>88.99</ele>
        <time>2018-05-30T09:52:02Z</time>
      </trkpt>
      <trkpt lat="47.89519" lon="-3.48315">
        <ele>89.36</ele>
        <time>2018-05-30T09:52:23Z</time>
      </trkpt>
      <trkpt lat="47.89519" lon="-3.48316">
        <ele>89.3</ele>
        <time>2018-05-30T09:52:45Z</time>
      </trkpt>
      <trkpt lat="47.89518" lon="-3.4831">
        <ele>89.39</ele>
        <time>2018-05-30T09:52:49Z</time>
      </trkpt>
      <trkpt lat="47.89517" lon="-3.48308">
        <ele>89.41</ele>
        <time>2018-05-30T09:52:50Z</time>
      </trkpt>
      <trkpt lat="47.89516" lon="-3.48306">
        <ele>89.43</ele>
        <time>2018-05-30T09:52:51Z</time>
      </trkpt>
      <trkpt lat="47.89515" lon="-3.48304">
        <ele>89.44</ele>
        <time>2018-05-30T09:52:52Z</time>
      </trkpt>
      <trkpt lat="47.89514" lon="-3.48303">
        <ele>89.45</ele>
        <time>2018-05-30T09:52:53Z</time>
      </trkpt>
      <trkpt lat="47.89513" lon="-3.48302">
        <ele>89.46</ele>
        <time>2018-05-30T09:52:54Z</time>
      </trkpt>
      <trkpt lat="47.89494" lon="-3.48292">
        <ele>89.57</ele>
        <time>2018-05-30T09:53:07Z</time>
      </trkpt>
      <trkpt lat="47.8947" lon="-3.48287">
        <ele>90.32</ele>
        <time>2018-05-30T09:53:21Z</time>
      </trkpt>
      <trkpt lat="47.89445" lon="-3.48282">
        <ele>91.27</ele>
        <time>2018-05-30T09:53:36Z</time>
      </trkpt>
      <trkpt lat="47.89418" lon="-3.48272">
        <ele>91.57</ele>
        <time>2018-05-30T09:53:52Z</time>
      </trkpt>
      <trkpt lat="47.89398" lon="-3.48263">
        <ele>92.11</ele>
        <time>2018-05-30T09:54:05Z</time>
      </trkpt>
      <trkpt lat="47.89366" lon="-3.48239">
        <ele>92.28</ele>
        <time>2018-05-30T09:54:25Z</time>
      </trkpt>
      <trkpt lat="47.89328" lon="-3.48209">
        <ele>92.95</ele>
        <time>2018-05-30T09:54:50Z</time>
      </trkpt>
      <trkpt lat="47.89293" lon="-3.48183">
        <ele>92.98</ele>
        <time>2018-05-30T09:55:15Z</time>
      </trkpt>
      <trkpt lat="47.89264" lon="-3.4816">
        <ele>93.38</ele>
        <time>2018-05-30T09:55:34Z</time>
      </trkpt>
      <trkpt lat="47.89235" lon="-3.48133">
        <ele>93.68</ele>
        <time>2018-05-30T09:55:56Z</time>
      </trkpt>
      <trkpt lat="47.89202" lon="-3.48108">
        <ele>93.68</ele>
        <time>2018-05-30T09:56:18Z</time>
      </trkpt>
      <trkpt lat="47.89178" lon="-3.48091">
        <ele>94.1</ele>
        <time>2018-05-30T09:56:36Z</time>
      </trkpt>
      <trkpt lat="47.89149" lon="-3.48078">
        <ele>94.87</ele>
        <time>2018-05-30T09:56:54Z</time>
      </trkpt>
      <trkpt lat="47.89131" lon="-3.48068">
        <ele>94.64</ele>
        <time>2018-05-30T09:57:05Z</time>
      </trkpt>
      <trkpt lat="47.89129" lon="-3.48068">
        <ele>94.64</ele>
        <time>2018-05-30T09:57:07Z</time>
      </trkpt>
      <trkpt lat="47.89127" lon="-3.48067">
        <ele>94.64</ele>
        <time>2018-05-30T09:57:08Z</time>
      </trkpt>
      <trkpt lat="47.89126" lon="-3.48067">
        <ele>94.65</ele>
        <time>2018-05-30T09:57:09Z</time>
      </trkpt>
      <trkpt lat="47.89125" lon="-3.48067">
        <ele>94.66</ele>
        <time>2018-05-30T09:57:10Z</time>
      </trkpt>
      <trkpt lat="47.89124" lon="-3.48067">
        <ele>94.67</ele>
        <time>2018-05-30T09:57:11Z</time>
      </trkpt>
      <trkpt lat="47.89123" lon="-3.48068">
        <ele>94.71</ele>
        <time>2018-05-30T09:57:12Z</time>
      </trkpt>
      <trkpt lat="47.89106" lon="-3.48087">
        <ele>95.63</ele>
        <time>2018-05-30T09:57:26Z</time>
      </trkpt>
      <trkpt lat="47.89092" lon="-3.4812">
        <ele>97.06</ele>
        <time>2018-05-30T09:57:39Z</time>
      </trkpt>
      <trkpt lat="47.89082" lon="-3.48144">
        <ele>97.68</ele>
        <time>2018-05-30T09:57:51Z</time>
      </trkpt>
      <trkpt lat="47.89063" lon="-3.48174">
        <ele>98.39</ele>
        <time>2018-05-30T09:58:07Z</time>
      </trkpt>
      <trkpt lat="47.89045" lon="-3.48211">
        <ele>98.09</ele>
        <time>2018-05-30T09:58:24Z</time>
      </trkpt>
      <trkpt lat="47.89033" lon="-3.48244">
        <ele>97.83</ele>
        <time>2018-05-30T09:58:39Z</time>
      </trkpt>
      <trkpt lat="47.89021" lon="-3.48275">
        <ele>97.3</ele>
        <time>2018-05-30T09:58:53Z</time>
      </trkpt>
      <trkpt lat="47.89021" lon="-3.48277">
        <ele>97.29</ele>
        <time>2018-05-30T09:58:54Z</time>
      </trkpt>
      <trkpt lat="47.89019" lon="-3.48281">
        <ele>97.27</ele>
        <time>2018-05-30T09:58:57Z</time>
      </trkpt>
      <trkpt lat="47.89018" lon="-3.48283">
        <ele>97.28</ele>
        <time>2018-05-30T09:58:58Z</time>
      </trkpt>
      <trkpt lat="47.89017" lon="-3.48285">
        <ele>97.27</ele>
        <time>2018-05-30T09:58:59Z</time>
      </trkpt>
      <trkpt lat="47.89016" lon="-3.48287">
        <ele>97.27</ele>
        <time>2018-05-30T09:59:00Z</time>
      </trkpt>
      <trkpt lat="47.89015" lon="-3.48288">
        <ele>97.27</ele>
        <time>2018-05-30T09:59:01Z</time>
      </trkpt>
      <trkpt lat="47.89014" lon="-3.4829">
        <ele>97.28</ele>
        <time>2018-05-30T09:59:02Z</time>
      </trkpt>
      <trkpt lat="47.89006" lon="-3.48305">
        <ele>97.19</ele>
        <time>2018-05-30T09:59:10Z</time>
      </trkpt>
      <trkpt lat="47.89005" lon="-3.48307">
        <ele>97.18</ele>
        <time>2018-05-30T09:59:11Z</time>
      </trkpt>
      <trkpt lat="47.89004" lon="-3.48309">
        <ele>97.19</ele>
        <time>2018-05-30T09:59:12Z</time>
      </trkpt>
      <trkpt lat="47.88995" lon="-3.48338">
        <ele>97.36</ele>
        <time>2018-05-30T09:59:25Z</time>
      </trkpt>
      <trkpt lat="47.8899" lon="-3.48358">
        <ele>97.76</ele>
        <time>2018-05-30T09:59:35Z</time>
      </trkpt>
      <trkpt lat="47.8899" lon="-3.4836">
        <ele>97.82</ele>
        <time>2018-05-30T09:59:36Z</time>
      </trkpt>
      <trkpt lat="47.88989" lon="-3.48362">
        <ele>97.87</ele>
        <time>2018-05-30T09:59:37Z</time>
      </trkpt>
      <trkpt lat="47.88989" lon="-3.48364">
        <ele>97.91</ele>
        <time>2018-05-30T09:59:38Z</time>
      </trkpt>
      <trkpt lat="47.88989" lon="-3.48366">
        <ele>97.93</ele>
        <time>2018-05-30T09:59:39Z</time>
      </trkpt>
      <trkpt lat="47.88988" lon="-3.48368">
        <ele>97.94</ele>
        <time>2018-05-30T09:59:40Z</time>
      </trkpt>
      <trkpt lat="47.88986" lon="-3.48378">
        <ele>97.94</ele>
        <time>2018-05-30T09:59:45Z</time>
      </trkpt>
      <trkpt lat="47.88986" lon="-3.48381">
        <ele>97.93</ele>
        <time>2018-05-30T09:59:46Z</time>
      </trkpt>
      <trkpt lat="47.88978" lon="-3.48427">
        <ele>98.06</ele>
        <time>2018-05-30T10:00:03Z</time>
      </trkpt>
      <trkpt lat="47.88971" lon="-3.48475">
        <ele>98.18</ele>
        <time>2018-05-30T10:00:21Z</time>
      </trkpt>
      <trkpt lat="47.88964" lon="-3.48522">
        <ele>98</ele>
        <time>2018-05-30T10:00:41Z</time>
      </trkpt>
      <trkpt lat="47.88958" lon="-3.48578">
        <ele>97.18</ele>
        <time>2018-05-30T10:01:02Z</time>
      </trkpt>
      <trkpt lat="47.88957" lon="-3.48625">
        <ele>96.94</ele>
        <time>2018-05-30T10:01:20Z</time>
      </trkpt>
      <trkpt lat="47.88957" lon="-3.48653">
        <ele>96.63</ele>
        <time>2018-05-30T10:01:32Z</time>
      </trkpt>
      <trkpt lat="47.88957" lon="-3.48656">
        <ele>96.66</ele>
        <time>2018-05-30T10:01:33Z</time>
      </trkpt>
      <trkpt lat="47.88956" lon="-3.48682">
        <ele>96.42</ele>
        <time>2018-05-30T10:01:43Z</time>
      </trkpt>
      <trkpt lat="47.88956" lon="-3.48685">
        <ele>96.37</ele>
        <time>2018-05-30T10:01:44Z</time>
      </trkpt>
      <trkpt lat="47.88955" lon="-3.48742">
        <ele>95.71</ele>
        <time>2018-05-30T10:02:06Z</time>
      </trkpt>
      <trkpt lat="47.88954" lon="-3.48777">
        <ele>95.01</ele>
        <time>2018-05-30T10:02:20Z</time>
      </trkpt>
      <trkpt lat="47.88955" lon="-3.48813">
        <ele>94.31</ele>
        <time>2018-05-30T10:02:35Z</time>
      </trkpt>
      <trkpt lat="47.88958" lon="-3.48853">
        <ele>93.01</ele>
        <time>2018-05-30T10:02:51Z</time>
      </trkpt>
      <trkpt lat="47.88966" lon="-3.48904">
        <ele>91.53</ele>
        <time>2018-05-30T10:03:11Z</time>
      </trkpt>
      <trkpt lat="47.88969" lon="-3.48946">
        <ele>89.62</ele>
        <time>2018-05-30T10:03:30Z</time>
      </trkpt>
      <trkpt lat="47.8897" lon="-3.48955">
        <ele>89.09</ele>
        <time>2018-05-30T10:03:35Z</time>
      </trkpt>
      <trkpt lat="47.8897" lon="-3.48957">
        <ele>88.94</ele>
        <time>2018-05-30T10:03:36Z</time>
      </trkpt>
      <trkpt lat="47.88974" lon="-3.48974">
        <ele>87.97</ele>
        <time>2018-05-30T10:03:46Z</time>
      </trkpt>
      <trkpt lat="47.88974" lon="-3.48977">
        <ele>87.79</ele>
        <time>2018-05-30T10:03:48Z</time>
      </trkpt>
      <trkpt lat="47.88973" lon="-3.48992">
        <ele>86.93</ele>
        <time>2018-05-30T10:04:01Z</time>
      </trkpt>
      <trkpt lat="47.88973" lon="-3.48995">
        <ele>86.88</ele>
        <time>2018-05-30T10:04:02Z</time>
      </trkpt>
      <trkpt lat="47.88973" lon="-3.48997">
        <ele>86.82</ele>
        <time>2018-05-30T10:04:03Z</time>
      </trkpt>
      <trkpt lat="47.88974" lon="-3.49">
        <ele>86.73</ele>
        <time>2018-05-30T10:04:04Z</time>
      </trkpt>
      <trkpt lat="47.88973" lon="-3.49003">
        <ele>86.67</ele>
        <time>2018-05-30T10:04:05Z</time>
      </trkpt>
      <trkpt lat="47.88974" lon="-3.4903">
        <ele>85.23</ele>
        <time>2018-05-30T10:04:16Z</time>
      </trkpt>
      <trkpt lat="47.88974" lon="-3.49032">
        <ele>85.09</ele>
        <time>2018-05-30T10:04:17Z</time>
      </trkpt>
      <trkpt lat="47.88976" lon="-3.49063">
        <ele>84.23</ele>
        <time>2018-05-30T10:04:30Z</time>
      </trkpt>
      <trkpt lat="47.88977" lon="-3.49093">
        <ele>83.52</ele>
        <time>2018-05-30T10:04:42Z</time>
      </trkpt>
      <trkpt lat="47.88977" lon="-3.49095">
        <ele>83.47</ele>
        <time>2018-05-30T10:04:43Z</time>
      </trkpt>
      <trkpt lat="47.88977" lon="-3.49098">
        <ele>83.41</ele>
        <time>2018-05-30T10:04:44Z</time>
      </trkpt>
      <trkpt lat="47.88977" lon="-3.491">
        <ele>83.37</ele>
        <time>2018-05-30T10:04:45Z</time>
      </trkpt>
      <trkpt lat="47.88977" lon="-3.49103">
        <ele>83.35</ele>
        <time>2018-05-30T10:04:46Z</time>
      </trkpt>
      <trkpt lat="47.88977" lon="-3.49105">
        <ele>83.31</ele>
        <time>2018-05-30T10:04:47Z</time>
      </trkpt>
      <trkpt lat="47.88977" lon="-3.49107">
        <ele>83.3</ele>
        <time>2018-05-30T10:04:48Z</time>
      </trkpt>
      <trkpt lat="47.88973" lon="-3.4914">
        <ele>82.88</ele>
        <time>2018-05-30T10:05:01Z</time>
      </trkpt>
      <trkpt lat="47.88972" lon="-3.49141">
        <ele>82.87</ele>
        <time>2018-05-30T10:05:02Z</time>
      </trkpt>
      <trkpt lat="47.88964" lon="-3.4914">
        <ele>82.7</ele>
        <time>2018-05-30T10:05:10Z</time>
      </trkpt>
      <trkpt lat="47.88961" lon="-3.4914">
        <ele>82.52</ele>
        <time>2018-05-30T10:05:14Z</time>
      </trkpt>
      <trkpt lat="47.88959" lon="-3.49141">
        <ele>82.47</ele>
        <time>2018-05-30T10:05:15Z</time>
      </trkpt>
      <trkpt lat="47.88958" lon="-3.49141">
        <ele>82.41</ele>
        <time>2018-05-30T10:05:16Z</time>
      </trkpt>
      <trkpt lat="47.88957" lon="-3.49141">
        <ele>82.35</ele>
        <time>2018-05-30T10:05:17Z</time>
      </trkpt>
      <trkpt lat="47.88942" lon="-3.4914">
        <ele>81.12</ele>
        <time>2018-05-30T10:05:30Z</time>
      </trkpt>
      <trkpt lat="47.88939" lon="-3.4914">
        <ele>80.76</ele>
        <time>2018-05-30T10:05:32Z</time>
      </trkpt>
      <trkpt lat="47.88922" lon="-3.49135">
        <ele>77.33</ele>
        <time>2018-05-30T10:05:45Z</time>
      </trkpt>
      <trkpt lat="47.88909" lon="-3.49127">
        <ele>75.02</ele>
        <time>2018-05-30T10:05:54Z</time>
      </trkpt>
      <trkpt lat="47.88892" lon="-3.49116">
        <ele>71.67</ele>
        <time>2018-05-30T10:06:06Z</time>
      </trkpt>
      <trkpt lat="47.88885" lon="-3.4912">
        <ele>68.47</ele>
        <time>2018-05-30T10:06:15Z</time>
      </trkpt>
      <trkpt lat="47.88877" lon="-3.49131">
        <ele>65.52</ele>
        <time>2018-05-30T10:06:30Z</time>
      </trkpt>
      <trkpt lat="47.8887" lon="-3.49141">
        <ele>64.37</ele>
        <time>2018-05-30T10:06:40Z</time>
      </trkpt>
      <trkpt lat="47.88863" lon="-3.49162">
        <ele>61.26</ele>
        <time>2018-05-30T10:06:55Z</time>
      </trkpt>
      <trkpt lat="47.88858" lon="-3.49193">
        <ele>58.52</ele>
        <time>2018-05-30T10:07:16Z</time>
      </trkpt>
      <trkpt lat="47.88852" lon="-3.49198">
        <ele>57.74</ele>
        <time>2018-05-30T10:07:21Z</time>
      </trkpt>
      <trkpt lat="47.88849" lon="-3.49204">
        <ele>57.56</ele>
        <time>2018-05-30T10:07:24Z</time>
      </trkpt>
      <trkpt lat="47.8883" lon="-3.49224">
        <ele>57.11</ele>
        <time>2018-05-30T10:07:46Z</time>
      </trkpt>
      <trkpt lat="47.88816" lon="-3.4925">
        <ele>58.35</ele>
        <time>2018-05-30T10:08:06Z</time>
      </trkpt>
      <trkpt lat="47.88812" lon="-3.49254">
        <ele>58.57</ele>
        <time>2018-05-30T10:08:09Z</time>
      </trkpt>
      <trkpt lat="47.88806" lon="-3.49264">
        <ele>59.31</ele>
        <time>2018-05-30T10:08:13Z</time>
      </trkpt>
      <trkpt lat="47.88772" lon="-3.49295">
        <ele>62.34</ele>
        <time>2018-05-30T10:08:28Z</time>
      </trkpt>
      <trkpt lat="47.88758" lon="-3.49308">
        <ele>64.55</ele>
        <time>2018-05-30T10:08:35Z</time>
      </trkpt>
      <trkpt lat="47.88742" lon="-3.49315">
        <ele>67.28</ele>
        <time>2018-05-30T10:08:42Z</time>
      </trkpt>
      <trkpt lat="47.88732" lon="-3.49317">
        <ele>68.85</ele>
        <time>2018-05-30T10:08:47Z</time>
      </trkpt>
      <trkpt lat="47.88723" lon="-3.49316">
        <ele>70.26</ele>
        <time>2018-05-30T10:08:52Z</time>
      </trkpt>
      <trkpt lat="47.88703" lon="-3.49321">
        <ele>71.65</ele>
        <time>2018-05-30T10:08:59Z</time>
      </trkpt>
      <trkpt lat="47.88686" lon="-3.49324">
        <ele>71.41</ele>
        <time>2018-05-30T10:09:06Z</time>
      </trkpt>
      <trkpt lat="47.88658" lon="-3.49329">
        <ele>70.2</ele>
        <time>2018-05-30T10:09:16Z</time>
      </trkpt>
      <trkpt lat="47.88648" lon="-3.49335">
        <ele>69.13</ele>
        <time>2018-05-30T10:09:20Z</time>
      </trkpt>
      <trkpt lat="47.88627" lon="-3.49345">
        <ele>66.45</ele>
        <time>2018-05-30T10:09:32Z</time>
      </trkpt>
      <trkpt lat="47.88615" lon="-3.49347">
        <ele>65.63</ele>
        <time>2018-05-30T10:09:36Z</time>
      </trkpt>
      <trkpt lat="47.88601" lon="-3.4934">
        <ele>64.36</ele>
        <time>2018-05-30T10:09:45Z</time>
      </trkpt>
      <trkpt lat="47.88554" lon="-3.49341">
        <ele>63.87</ele>
        <time>2018-05-30T10:09:59Z</time>
      </trkpt>
      <trkpt lat="47.8855" lon="-3.49344">
        <ele>63.8</ele>
        <time>2018-05-30T10:10:03Z</time>
      </trkpt>
      <trkpt lat="47.88545" lon="-3.49346">
        <ele>63.69</ele>
        <time>2018-05-30T10:10:08Z</time>
      </trkpt>
      <trkpt lat="47.8853" lon="-3.49344">
        <ele>63.62</ele>
        <time>2018-05-30T10:10:12Z</time>
      </trkpt>
      <trkpt lat="47.88516" lon="-3.49367">
        <ele>63.89</ele>
        <time>2018-05-30T10:10:21Z</time>
      </trkpt>
      <trkpt lat="47.8851" lon="-3.49381">
        <ele>64.91</ele>
        <time>2018-05-30T10:10:26Z</time>
      </trkpt>
      <trkpt lat="47.88481" lon="-3.49413">
        <ele>67.45</ele>
        <time>2018-05-30T10:10:35Z</time>
      </trkpt>
      <trkpt lat="47.88453" lon="-3.49444">
        <ele>70.75</ele>
        <time>2018-05-30T10:10:43Z</time>
      </trkpt>
      <trkpt lat="47.88434" lon="-3.49466">
        <ele>73.87</ele>
        <time>2018-05-30T10:10:48Z</time>
      </trkpt>
      <trkpt lat="47.88393" lon="-3.49522">
        <ele>76.56</ele>
        <time>2018-05-30T10:10:55Z</time>
      </trkpt>
      <trkpt lat="47.88388" lon="-3.49531">
        <ele>76.91</ele>
        <time>2018-05-30T10:10:56Z</time>
      </trkpt>
      <trkpt lat="47.88365" lon="-3.49578">
        <ele>79.46</ele>
        <time>2018-05-30T10:11:02Z</time>
      </trkpt>
      <trkpt lat="47.88339" lon="-3.4963">
        <ele>82.81</ele>
        <time>2018-05-30T10:11:09Z</time>
      </trkpt>
      <trkpt lat="47.88281" lon="-3.49736">
        <ele>85.64</ele>
        <time>2018-05-30T10:11:24Z</time>
      </trkpt>
      <trkpt lat="47.88266" lon="-3.49762">
        <ele>85.69</ele>
        <time>2018-05-30T10:11:28Z</time>
      </trkpt>
      <trkpt lat="47.88262" lon="-3.49769">
        <ele>85.7</ele>
        <time>2018-05-30T10:11:29Z</time>
      </trkpt>
      <trkpt lat="47.88208" lon="-3.49852">
        <ele>87.13</ele>
        <time>2018-05-30T10:11:43Z</time>
      </trkpt>
      <trkpt lat="47.88197" lon="-3.49896">
        <ele>88.26</ele>
        <time>2018-05-30T10:11:54Z</time>
      </trkpt>
      <trkpt lat="47.88195" lon="-3.49933">
        <ele>88.82</ele>
        <time>2018-05-30T10:12:08Z</time>
      </trkpt>
      <trkpt lat="47.88194" lon="-3.49941">
        <ele>88.84</ele>
        <time>2018-05-30T10:12:11Z</time>
      </trkpt>
      <trkpt lat="47.88194" lon="-3.49943">
        <ele>88.89</ele>
        <time>2018-05-30T10:12:12Z</time>
      </trkpt>
      <trkpt lat="47.88193" lon="-3.49945">
        <ele>88.94</ele>
        <time>2018-05-30T10:12:13Z</time>
      </trkpt>
      <trkpt lat="47.88193" lon="-3.49948">
        <ele>88.96</ele>
        <time>2018-05-30T10:12:14Z</time>
      </trkpt>
      <trkpt lat="47.88193" lon="-3.49951">
        <ele>88.99</ele>
        <time>2018-05-30T10:12:15Z</time>
      </trkpt>
      <trkpt lat="47.88192" lon="-3.49954">
        <ele>89.02</ele>
        <time>2018-05-30T10:12:16Z</time>
      </trkpt>
      <trkpt lat="47.88192" lon="-3.49957">
        <ele>89.03</ele>
        <time>2018-05-30T10:12:17Z</time>
      </trkpt>
      <trkpt lat="47.88192" lon="-3.4996">
        <ele>89.02</ele>
        <time>2018-05-30T10:12:18Z</time>
      </trkpt>
      <trkpt lat="47.8819" lon="-3.50013">
        <ele>88.72</ele>
        <time>2018-05-30T10:12:36Z</time>
      </trkpt>
      <trkpt lat="47.8819" lon="-3.50015">
        <ele>88.7</ele>
        <time>2018-05-30T10:12:37Z</time>
      </trkpt>
      <trkpt lat="47.88191" lon="-3.50016">
        <ele>88.69</ele>
        <time>2018-05-30T10:12:38Z</time>
      </trkpt>
      <trkpt lat="47.88193" lon="-3.50016">
        <ele>88.68</ele>
        <time>2018-05-30T10:12:39Z</time>
      </trkpt>
      <trkpt lat="47.88194" lon="-3.50016">
        <ele>88.65</ele>
        <time>2018-05-30T10:12:40Z</time>
      </trkpt>
      <trkpt lat="47.88196" lon="-3.50018">
        <ele>88.59</ele>
        <time>2018-05-30T10:12:41Z</time>
      </trkpt>
      <trkpt lat="47.88198" lon="-3.50018">
        <ele>88.53</ele>
        <time>2018-05-30T10:12:42Z</time>
      </trkpt>
      <trkpt lat="47.8823" lon="-3.50018">
        <ele>87.27</ele>
        <time>2018-05-30T10:12:59Z</time>
      </trkpt>
      <trkpt lat="47.88267" lon="-3.50025">
        <ele>87.47</ele>
        <time>2018-05-30T10:13:13Z</time>
      </trkpt>
      <trkpt lat="47.88284" lon="-3.50054">
        <ele>87.99</ele>
        <time>2018-05-30T10:13:26Z</time>
      </trkpt>
      <trkpt lat="47.88273" lon="-3.50096">
        <ele>87</ele>
        <time>2018-05-30T10:13:35Z</time>
      </trkpt>
      <trkpt lat="47.88265" lon="-3.50122">
        <ele>84.92</ele>
        <time>2018-05-30T10:13:45Z</time>
      </trkpt>
      <trkpt lat="47.88264" lon="-3.50126">
        <ele>84.18</ele>
        <time>2018-05-30T10:13:48Z</time>
      </trkpt>
      <trkpt lat="47.88254" lon="-3.50142">
        <ele>80.84</ele>
        <time>2018-05-30T10:14:01Z</time>
      </trkpt>
      <trkpt lat="47.88251" lon="-3.50146">
        <ele>79.19</ele>
        <time>2018-05-30T10:14:05Z</time>
      </trkpt>
      <trkpt lat="47.88238" lon="-3.50164">
        <ele>77.12</ele>
        <time>2018-05-30T10:14:14Z</time>
      </trkpt>
      <trkpt lat="47.8824" lon="-3.5018">
        <ele>76.39</ele>
        <time>2018-05-30T10:14:20Z</time>
      </trkpt>
      <trkpt lat="47.88242" lon="-3.50186">
        <ele>76.11</ele>
        <time>2018-05-30T10:14:23Z</time>
      </trkpt>
      <trkpt lat="47.88244" lon="-3.50205">
        <ele>75.91</ele>
        <time>2018-05-30T10:14:29Z</time>
      </trkpt>
      <trkpt lat="47.8825" lon="-3.5024">
        <ele>76.56</ele>
        <time>2018-05-30T10:14:40Z</time>
      </trkpt>
      <trkpt lat="47.8825" lon="-3.50243">
        <ele>76.54</ele>
        <time>2018-05-30T10:14:41Z</time>
      </trkpt>
      <trkpt lat="47.88248" lon="-3.50256">
        <ele>76.53</ele>
        <time>2018-05-30T10:14:45Z</time>
      </trkpt>
      <trkpt lat="47.88242" lon="-3.50277">
        <ele>76.68</ele>
        <time>2018-05-30T10:14:52Z</time>
      </trkpt>
      <trkpt lat="47.88238" lon="-3.50297">
        <ele>76.71</ele>
        <time>2018-05-30T10:14:59Z</time>
      </trkpt>
      <trkpt lat="47.88237" lon="-3.50307">
        <ele>76.36</ele>
        <time>2018-05-30T10:15:07Z</time>
      </trkpt>
      <trkpt lat="47.88237" lon="-3.50311">
        <ele>76.27</ele>
        <time>2018-05-30T10:15:10Z</time>
      </trkpt>
      <trkpt lat="47.88235" lon="-3.50337">
        <ele>76.02</ele>
        <time>2018-05-30T10:15:25Z</time>
      </trkpt>
      <trkpt lat="47.88235" lon="-3.5034">
        <ele>76.11</ele>
        <time>2018-05-30T10:15:29Z</time>
      </trkpt>
      <trkpt lat="47.88234" lon="-3.50354">
        <ele>76.31</ele>
        <time>2018-05-30T10:15:42Z</time>
      </trkpt>
      <trkpt lat="47.88235" lon="-3.50388">
        <ele>74.73</ele>
        <time>2018-05-30T10:16:02Z</time>
      </trkpt>
      <trkpt lat="47.88241" lon="-3.50425">
        <ele>72.93</ele>
        <time>2018-05-30T10:16:19Z</time>
      </trkpt>
      <trkpt lat="47.88242" lon="-3.50466">
        <ele>72.35</ele>
        <time>2018-05-30T10:16:41Z</time>
      </trkpt>
      <trkpt lat="47.88243" lon="-3.50481">
        <ele>72.42</ele>
        <time>2018-05-30T10:16:48Z</time>
      </trkpt>
      <trkpt lat="47.88244" lon="-3.50486">
        <ele>72.57</ele>
        <time>2018-05-30T10:16:50Z</time>
      </trkpt>
      <trkpt lat="47.88255" lon="-3.50509">
        <ele>73.12</ele>
        <time>2018-05-30T10:16:56Z</time>
      </trkpt>
      <trkpt lat="47.88255" lon="-3.50522">
        <ele>73.89</ele>
        <time>2018-05-30T10:17:02Z</time>
      </trkpt>
      <trkpt lat="47.8825" lon="-3.50529">
        <ele>75.03</ele>
        <time>2018-05-30T10:17:06Z</time>
      </trkpt>
      <trkpt lat="47.88234" lon="-3.50549">
        <ele>78.55</ele>
        <time>2018-05-30T10:17:14Z</time>
      </trkpt>
      <trkpt lat="47.88213" lon="-3.50563">
        <ele>81.7</ele>
        <time>2018-05-30T10:17:21Z</time>
      </trkpt>
      <trkpt lat="47.88197" lon="-3.50585">
        <ele>85.24</ele>
        <time>2018-05-30T10:17:28Z</time>
      </trkpt>
      <trkpt lat="47.88188" lon="-3.50594">
        <ele>87.55</ele>
        <time>2018-05-30T10:17:32Z</time>
      </trkpt>
      <trkpt lat="47.88174" lon="-3.50603">
        <ele>90.8</ele>
        <time>2018-05-30T10:17:39Z</time>
      </trkpt>
      <trkpt lat="47.88169" lon="-3.50602">
        <ele>91.03</ele>
        <time>2018-05-30T10:17:40Z</time>
      </trkpt>
      <trkpt lat="47.88165" lon="-3.50604">
        <ele>91.21</ele>
        <time>2018-05-30T10:17:41Z</time>
      </trkpt>
      <trkpt lat="47.88163" lon="-3.50605">
        <ele>91.37</ele>
        <time>2018-05-30T10:17:42Z</time>
      </trkpt>
      <trkpt lat="47.88159" lon="-3.50607">
        <ele>91.51</ele>
        <time>2018-05-30T10:17:43Z</time>
      </trkpt>
      <trkpt lat="47.88155" lon="-3.50608">
        <ele>91.74</ele>
        <time>2018-05-30T10:17:45Z</time>
      </trkpt>
      <trkpt lat="47.88153" lon="-3.50608">
        <ele>91.87</ele>
        <time>2018-05-30T10:17:46Z</time>
      </trkpt>
      <trkpt lat="47.8813" lon="-3.50636">
        <ele>93.09</ele>
        <time>2018-05-30T10:18:00Z</time>
      </trkpt>
      <trkpt lat="47.88126" lon="-3.50638">
        <ele>93.08</ele>
        <time>2018-05-30T10:18:02Z</time>
      </trkpt>
      <trkpt lat="47.88122" lon="-3.50646">
        <ele>93.01</ele>
        <time>2018-05-30T10:18:05Z</time>
      </trkpt>
      <trkpt lat="47.88121" lon="-3.50648">
        <ele>93.02</ele>
        <time>2018-05-30T10:18:06Z</time>
      </trkpt>
      <trkpt lat="47.88119" lon="-3.50648">
        <ele>93.01</ele>
        <time>2018-05-30T10:18:07Z</time>
      </trkpt>
      <trkpt lat="47.88117" lon="-3.50648">
        <ele>93</ele>
        <time>2018-05-30T10:18:08Z</time>
      </trkpt>
      <trkpt lat="47.88116" lon="-3.50649">
        <ele>93.01</ele>
        <time>2018-05-30T10:18:09Z</time>
      </trkpt>
      <trkpt lat="47.88097" lon="-3.50659">
        <ele>93.14</ele>
        <time>2018-05-30T10:18:18Z</time>
      </trkpt>
      <trkpt lat="47.88094" lon="-3.50659">
        <ele>93.14</ele>
        <time>2018-05-30T10:18:19Z</time>
      </trkpt>
      <trkpt lat="47.88086" lon="-3.5066">
        <ele>92.88</ele>
        <time>2018-05-30T10:18:24Z</time>
      </trkpt>
      <trkpt lat="47.88085" lon="-3.5066">
        <ele>92.84</ele>
        <time>2018-05-30T10:18:25Z</time>
      </trkpt>
      <trkpt lat="47.88083" lon="-3.5066">
        <ele>92.8</ele>
        <time>2018-05-30T10:18:26Z</time>
      </trkpt>
      <trkpt lat="47.88082" lon="-3.5066">
        <ele>92.77</ele>
        <time>2018-05-30T10:18:27Z</time>
      </trkpt>
      <trkpt lat="47.88081" lon="-3.50659">
        <ele>92.74</ele>
        <time>2018-05-30T10:18:28Z</time>
      </trkpt>
      <trkpt lat="47.88079" lon="-3.50659">
        <ele>92.7</ele>
        <time>2018-05-30T10:18:29Z</time>
      </trkpt>
      <trkpt lat="47.88078" lon="-3.50659">
        <ele>92.67</ele>
        <time>2018-05-30T10:18:30Z</time>
      </trkpt>
      <trkpt lat="47.88074" lon="-3.50659">
        <ele>92.62</ele>
        <time>2018-05-30T10:18:31Z</time>
      </trkpt>
      <trkpt lat="47.88052" lon="-3.50658">
        <ele>92.28</ele>
        <time>2018-05-30T10:18:38Z</time>
      </trkpt>
      <trkpt lat="47.8805" lon="-3.50658">
        <ele>92.15</ele>
        <time>2018-05-30T10:18:39Z</time>
      </trkpt>
      <trkpt lat="47.88048" lon="-3.50657">
        <ele>92.04</ele>
        <time>2018-05-30T10:18:40Z</time>
      </trkpt>
      <trkpt lat="47.88046" lon="-3.50655">
        <ele>91.96</ele>
        <time>2018-05-30T10:18:41Z</time>
      </trkpt>
      <trkpt lat="47.88043" lon="-3.50653">
        <ele>91.88</ele>
        <time>2018-05-30T10:18:42Z</time>
      </trkpt>
      <trkpt lat="47.88041" lon="-3.50652">
        <ele>91.85</ele>
        <time>2018-05-30T10:18:43Z</time>
      </trkpt>
      <trkpt lat="47.8802" lon="-3.50638">
        <ele>91.23</ele>
        <time>2018-05-30T10:18:58Z</time>
      </trkpt>
      <trkpt lat="47.88014" lon="-3.50625">
        <ele>90.38</ele>
        <time>2018-05-30T10:19:06Z</time>
      </trkpt>
      <trkpt lat="47.88013" lon="-3.50623">
        <ele>90.29</ele>
        <time>2018-05-30T10:19:07Z</time>
      </trkpt>
      <trkpt lat="47.88012" lon="-3.50621">
        <ele>90.2</ele>
        <time>2018-05-30T10:19:08Z</time>
      </trkpt>
      <trkpt lat="47.88011" lon="-3.50619">
        <ele>90.12</ele>
        <time>2018-05-30T10:19:09Z</time>
      </trkpt>
      <trkpt lat="47.8801" lon="-3.50616">
        <ele>90.05</ele>
        <time>2018-05-30T10:19:10Z</time>
      </trkpt>
      <trkpt lat="47.88008" lon="-3.50614">
        <ele>89.97</ele>
        <time>2018-05-30T10:19:11Z</time>
      </trkpt>
      <trkpt lat="47.8799" lon="-3.50586">
        <ele>88.66</ele>
        <time>2018-05-30T10:19:26Z</time>
      </trkpt>
      <trkpt lat="47.87981" lon="-3.50573">
        <ele>88.07</ele>
        <time>2018-05-30T10:19:34Z</time>
      </trkpt>
      <trkpt lat="47.87979" lon="-3.50571">
        <ele>87.99</ele>
        <time>2018-05-30T10:19:35Z</time>
      </trkpt>
      <trkpt lat="47.87978" lon="-3.5057">
        <ele>87.92</ele>
        <time>2018-05-30T10:19:36Z</time>
      </trkpt>
      <trkpt lat="47.87977" lon="-3.50569">
        <ele>87.85</ele>
        <time>2018-05-30T10:19:37Z</time>
      </trkpt>
      <trkpt lat="47.87963" lon="-3.50568">
        <ele>86.28</ele>
        <time>2018-05-30T10:19:47Z</time>
      </trkpt>
      <trkpt lat="47.87952" lon="-3.50582">
        <ele>83.18</ele>
        <time>2018-05-30T10:20:00Z</time>
      </trkpt>
      <trkpt lat="47.87947" lon="-3.50595">
        <ele>81.46</ele>
        <time>2018-05-30T10:20:05Z</time>
      </trkpt>
      <trkpt lat="47.87937" lon="-3.50624">
        <ele>77.89</ele>
        <time>2018-05-30T10:20:16Z</time>
      </trkpt>
      <trkpt lat="47.8793" lon="-3.50656">
        <ele>75.28</ele>
        <time>2018-05-30T10:20:28Z</time>
      </trkpt>
      <trkpt lat="47.87922" lon="-3.50688">
        <ele>74.25</ele>
        <time>2018-05-30T10:20:40Z</time>
      </trkpt>
      <trkpt lat="47.87921" lon="-3.50703">
        <ele>73.86</ele>
        <time>2018-05-30T10:20:46Z</time>
      </trkpt>
      <trkpt lat="47.87922" lon="-3.50718">
        <ele>73.38</ele>
        <time>2018-05-30T10:20:52Z</time>
      </trkpt>
      <trkpt lat="47.87914" lon="-3.50752">
        <ele>72.51</ele>
        <time>2018-05-30T10:21:07Z</time>
      </trkpt>
      <trkpt lat="47.8791" lon="-3.50756">
        <ele>72.27</ele>
        <time>2018-05-30T10:21:12Z</time>
      </trkpt>
      <trkpt lat="47.87906" lon="-3.50792">
        <ele>70.78</ele>
        <time>2018-05-30T10:21:27Z</time>
      </trkpt>
      <trkpt lat="47.87896" lon="-3.50828">
        <ele>70.3</ele>
        <time>2018-05-30T10:21:40Z</time>
      </trkpt>
      <trkpt lat="47.87886" lon="-3.50868">
        <ele>69.26</ele>
        <time>2018-05-30T10:21:54Z</time>
      </trkpt>
      <trkpt lat="47.87878" lon="-3.50895">
        <ele>68.44</ele>
        <time>2018-05-30T10:22:05Z</time>
      </trkpt>
      <trkpt lat="47.87878" lon="-3.50897">
        <ele>68.37</ele>
        <time>2018-05-30T10:22:06Z</time>
      </trkpt>
      <trkpt lat="47.87878" lon="-3.50899">
        <ele>68.31</ele>
        <time>2018-05-30T10:22:07Z</time>
      </trkpt>
      <trkpt lat="47.87877" lon="-3.50901">
        <ele>68.27</ele>
        <time>2018-05-30T10:22:08Z</time>
      </trkpt>
      <trkpt lat="47.87877" lon="-3.50903">
        <ele>68.23</ele>
        <time>2018-05-30T10:22:09Z</time>
      </trkpt>
      <trkpt lat="47.87876" lon="-3.50906">
        <ele>68.18</ele>
        <time>2018-05-30T10:22:10Z</time>
      </trkpt>
      <trkpt lat="47.87876" lon="-3.50908">
        <ele>68.17</ele>
        <time>2018-05-30T10:22:11Z</time>
      </trkpt>
      <trkpt lat="47.87875" lon="-3.5091">
        <ele>68.14</ele>
        <time>2018-05-30T10:22:12Z</time>
      </trkpt>
      <trkpt lat="47.87874" lon="-3.50914">
        <ele>68.12</ele>
        <time>2018-05-30T10:22:13Z</time>
      </trkpt>
      <trkpt lat="47.8787" lon="-3.50928">
        <ele>68.05</ele>
        <time>2018-05-30T10:22:19Z</time>
      </trkpt>
      <trkpt lat="47.87868" lon="-3.50934">
        <ele>67.99</ele>
        <time>2018-05-30T10:22:22Z</time>
      </trkpt>
      <trkpt lat="47.87867" lon="-3.50937">
        <ele>67.99</ele>
        <time>2018-05-30T10:22:23Z</time>
      </trkpt>
      <trkpt lat="47.87866" lon="-3.50939">
        <ele>67.98</ele>
        <time>2018-05-30T10:22:24Z</time>
      </trkpt>
      <trkpt lat="47.87865" lon="-3.50942">
        <ele>68</ele>
        <time>2018-05-30T10:22:25Z</time>
      </trkpt>
      <trkpt lat="47.87864" lon="-3.50946">
        <ele>68.01</ele>
        <time>2018-05-30T10:22:26Z</time>
      </trkpt>
      <trkpt lat="47.87863" lon="-3.5095">
        <ele>68</ele>
        <time>2018-05-30T10:22:27Z</time>
      </trkpt>
      <trkpt lat="47.87854" lon="-3.50968">
        <ele>67.48</ele>
        <time>2018-05-30T10:22:36Z</time>
      </trkpt>
      <trkpt lat="47.87854" lon="-3.50971">
        <ele>67.43</ele>
        <time>2018-05-30T10:22:37Z</time>
      </trkpt>
      <trkpt lat="47.87853" lon="-3.50973">
        <ele>67.37</ele>
        <time>2018-05-30T10:22:38Z</time>
      </trkpt>
      <trkpt lat="47.87852" lon="-3.50976">
        <ele>67.33</ele>
        <time>2018-05-30T10:22:39Z</time>
      </trkpt>
      <trkpt lat="47.87851" lon="-3.50979">
        <ele>67.31</ele>
        <time>2018-05-30T10:22:40Z</time>
      </trkpt>
      <trkpt lat="47.87851" lon="-3.50982">
        <ele>67.3</ele>
        <time>2018-05-30T10:22:41Z</time>
      </trkpt>
      <trkpt lat="47.87845" lon="-3.51005">
        <ele>67.02</ele>
        <time>2018-05-30T10:22:49Z</time>
      </trkpt>
      <trkpt lat="47.87845" lon="-3.51008">
        <ele>66.99</ele>
        <time>2018-05-30T10:22:50Z</time>
      </trkpt>
      <trkpt lat="47.87844" lon="-3.51011">
        <ele>66.97</ele>
        <time>2018-05-30T10:22:51Z</time>
      </trkpt>
      <trkpt lat="47.87844" lon="-3.51013">
        <ele>66.96</ele>
        <time>2018-05-30T10:22:52Z</time>
      </trkpt>
      <trkpt lat="47.87843" lon="-3.51017">
        <ele>66.95</ele>
        <time>2018-05-30T10:22:53Z</time>
      </trkpt>
      <trkpt lat="47.87833" lon="-3.51044">
        <ele>66.8</ele>
        <time>2018-05-30T10:23:06Z</time>
      </trkpt>
      <trkpt lat="47.87821" lon="-3.5107">
        <ele>66.38</ele>
        <time>2018-05-30T10:23:19Z</time>
      </trkpt>
      <trkpt lat="47.87807" lon="-3.51104">
        <ele>66.03</ele>
        <time>2018-05-30T10:23:33Z</time>
      </trkpt>
      <trkpt lat="47.87793" lon="-3.51138">
        <ele>66.01</ele>
        <time>2018-05-30T10:23:48Z</time>
      </trkpt>
      <trkpt lat="47.87783" lon="-3.51173">
        <ele>66.55</ele>
        <time>2018-05-30T10:24:03Z</time>
      </trkpt>
      <trkpt lat="47.87771" lon="-3.51211">
        <ele>67.54</ele>
        <time>2018-05-30T10:24:20Z</time>
      </trkpt>
      <trkpt lat="47.87764" lon="-3.5123">
        <ele>67.89</ele>
        <time>2018-05-30T10:24:29Z</time>
      </trkpt>
      <trkpt lat="47.87763" lon="-3.51232">
        <ele>67.93</ele>
        <time>2018-05-30T10:24:30Z</time>
      </trkpt>
      <trkpt lat="47.87752" lon="-3.51264">
        <ele>68.55</ele>
        <time>2018-05-30T10:24:41Z</time>
      </trkpt>
      <trkpt lat="47.87735" lon="-3.51319">
        <ele>70.08</ele>
        <time>2018-05-30T10:24:53Z</time>
      </trkpt>
      <trkpt lat="47.87723" lon="-3.51383">
        <ele>71.9</ele>
        <time>2018-05-30T10:25:05Z</time>
      </trkpt>
      <trkpt lat="47.87711" lon="-3.51448">
        <ele>72.89</ele>
        <time>2018-05-30T10:25:18Z</time>
      </trkpt>
      <trkpt lat="47.87701" lon="-3.51503">
        <ele>73.6</ele>
        <time>2018-05-30T10:25:29Z</time>
      </trkpt>
      <trkpt lat="47.8769" lon="-3.51566">
        <ele>74.94</ele>
        <time>2018-05-30T10:25:42Z</time>
      </trkpt>
      <trkpt lat="47.87682" lon="-3.51613">
        <ele>75.25</ele>
        <time>2018-05-30T10:25:52Z</time>
      </trkpt>
      <trkpt lat="47.87673" lon="-3.51658">
        <ele>75.53</ele>
        <time>2018-05-30T10:26:03Z</time>
      </trkpt>
      <trkpt lat="47.87662" lon="-3.51723">
        <ele>75.97</ele>
        <time>2018-05-30T10:26:18Z</time>
      </trkpt>
      <trkpt lat="47.87658" lon="-3.51761">
        <ele>76.16</ele>
        <time>2018-05-30T10:26:31Z</time>
      </trkpt>
      <trkpt lat="47.87652" lon="-3.51807">
        <ele>76.49</ele>
        <time>2018-05-30T10:26:49Z</time>
      </trkpt>
      <trkpt lat="47.87644" lon="-3.51845">
        <ele>76.79</ele>
        <time>2018-05-30T10:27:07Z</time>
      </trkpt>
      <trkpt lat="47.87634" lon="-3.51891">
        <ele>76.57</ele>
        <time>2018-05-30T10:27:26Z</time>
      </trkpt>
      <trkpt lat="47.87634" lon="-3.51893">
        <ele>76.59</ele>
        <time>2018-05-30T10:27:27Z</time>
      </trkpt>
      <trkpt lat="47.87621" lon="-3.51935">
        <ele>77.02</ele>
        <time>2018-05-30T10:27:45Z</time>
      </trkpt>
      <trkpt lat="47.8761" lon="-3.51969">
        <ele>77.32</ele>
        <time>2018-05-30T10:28:00Z</time>
      </trkpt>
      <trkpt lat="47.87604" lon="-3.51981">
        <ele>77.29</ele>
        <time>2018-05-30T10:28:06Z</time>
      </trkpt>
      <trkpt lat="47.87602" lon="-3.51982">
        <ele>77.27</ele>
        <time>2018-05-30T10:28:07Z</time>
      </trkpt>
      <trkpt lat="47.87601" lon="-3.51984">
        <ele>77.23</ele>
        <time>2018-05-30T10:28:08Z</time>
      </trkpt>
      <trkpt lat="47.876" lon="-3.51985">
        <ele>77.19</ele>
        <time>2018-05-30T10:28:09Z</time>
      </trkpt>
      <trkpt lat="47.876" lon="-3.51987">
        <ele>77.19</ele>
        <time>2018-05-30T10:28:10Z</time>
      </trkpt>
      <trkpt lat="47.87599" lon="-3.51989">
        <ele>77.23</ele>
        <time>2018-05-30T10:28:11Z</time>
      </trkpt>
      <trkpt lat="47.87587" lon="-3.52028">
        <ele>77.65</ele>
        <time>2018-05-30T10:28:28Z</time>
      </trkpt>
      <trkpt lat="47.87572" lon="-3.5206">
        <ele>78.1</ele>
        <time>2018-05-30T10:28:44Z</time>
      </trkpt>
      <trkpt lat="47.87559" lon="-3.52091">
        <ele>78.67</ele>
        <time>2018-05-30T10:28:59Z</time>
      </trkpt>
      <trkpt lat="47.87537" lon="-3.52137">
        <ele>78.9</ele>
        <time>2018-05-30T10:29:21Z</time>
      </trkpt>
      <trkpt lat="47.8752" lon="-3.52178">
        <ele>79.43</ele>
        <time>2018-05-30T10:29:40Z</time>
      </trkpt>
      <trkpt lat="47.87503" lon="-3.52214">
        <ele>79.82</ele>
        <time>2018-05-30T10:29:58Z</time>
      </trkpt>
      <trkpt lat="47.87495" lon="-3.52251">
        <ele>80.22</ele>
        <time>2018-05-30T10:30:15Z</time>
      </trkpt>
      <trkpt lat="47.87498" lon="-3.52265">
        <ele>80.16</ele>
        <time>2018-05-30T10:30:22Z</time>
      </trkpt>
      <trkpt lat="47.87499" lon="-3.52266">
        <ele>80.15</ele>
        <time>2018-05-30T10:30:23Z</time>
      </trkpt>
      <trkpt lat="47.87523" lon="-3.52292">
        <ele>79.14</ele>
        <time>2018-05-30T10:30:41Z</time>
      </trkpt>
      <trkpt lat="47.8755" lon="-3.52321">
        <ele>77.43</ele>
        <time>2018-05-30T10:31:00Z</time>
      </trkpt>
      <trkpt lat="47.87571" lon="-3.52343">
        <ele>75.69</ele>
        <time>2018-05-30T10:31:15Z</time>
      </trkpt>
      <trkpt lat="47.8758" lon="-3.52355">
        <ele>74.86</ele>
        <time>2018-05-30T10:31:22Z</time>
      </trkpt>
      <trkpt lat="47.87581" lon="-3.52356">
        <ele>74.76</ele>
        <time>2018-05-30T10:31:23Z</time>
      </trkpt>
      <trkpt lat="47.87583" lon="-3.52357">
        <ele>74.67</ele>
        <time>2018-05-30T10:31:24Z</time>
      </trkpt>
      <trkpt lat="47.87611" lon="-3.52387">
        <ele>73.36</ele>
        <time>2018-05-30T10:31:42Z</time>
      </trkpt>
      <trkpt lat="47.87634" lon="-3.52412">
        <ele>71.86</ele>
        <time>2018-05-30T10:31:58Z</time>
      </trkpt>
      <trkpt lat="47.8767" lon="-3.52453">
        <ele>70.37</ele>
        <time>2018-05-30T10:32:24Z</time>
      </trkpt>
      <trkpt lat="47.87698" lon="-3.52482">
        <ele>68.7</ele>
        <time>2018-05-30T10:32:44Z</time>
      </trkpt>
      <trkpt lat="47.8772" lon="-3.52509">
        <ele>67.98</ele>
        <time>2018-05-30T10:33:02Z</time>
      </trkpt>
      <trkpt lat="47.87724" lon="-3.52542">
        <ele>66.73</ele>
        <time>2018-05-30T10:33:19Z</time>
      </trkpt>
      <trkpt lat="47.87723" lon="-3.5254">
        <ele>66.62</ele>
        <time>2018-05-30T10:33:57Z</time>
      </trkpt>
      <trkpt lat="47.87723" lon="-3.52541">
        <ele>66.91</ele>
        <time>2018-05-30T10:34:21Z</time>
      </trkpt>
      <trkpt lat="47.87722" lon="-3.52541">
        <ele>66.44</ele>
        <time>2018-05-30T10:34:41Z</time>
      </trkpt>
      <trkpt lat="47.87722" lon="-3.52545">
        <ele>66.35</ele>
        <time>2018-05-30T10:34:50Z</time>
      </trkpt>
      <trkpt lat="47.87722" lon="-3.52547">
        <ele>66.36</ele>
        <time>2018-05-30T10:34:51Z</time>
      </trkpt>
      <trkpt lat="47.87721" lon="-3.52549">
        <ele>66.37</ele>
        <time>2018-05-30T10:34:52Z</time>
      </trkpt>
      <trkpt lat="47.87721" lon="-3.52551">
        <ele>66.4</ele>
        <time>2018-05-30T10:34:53Z</time>
      </trkpt>
      <trkpt lat="47.87721" lon="-3.52553">
        <ele>66.39</ele>
        <time>2018-05-30T10:34:54Z</time>
      </trkpt>
      <trkpt lat="47.8772" lon="-3.52569">
        <ele>65.24</ele>
        <time>2018-05-30T10:35:09Z</time>
      </trkpt>
      <trkpt lat="47.87717" lon="-3.52579">
        <ele>64.62</ele>
        <time>2018-05-30T10:35:23Z</time>
      </trkpt>
      <trkpt lat="47.87717" lon="-3.5258">
        <ele>64.61</ele>
        <time>2018-05-30T10:35:24Z</time>
      </trkpt>
      <trkpt lat="47.87716" lon="-3.52581">
        <ele>64.58</ele>
        <time>2018-05-30T10:35:25Z</time>
      </trkpt>
      <trkpt lat="47.87715" lon="-3.52583">
        <ele>64.54</ele>
        <time>2018-05-30T10:35:26Z</time>
      </trkpt>
      <trkpt lat="47.87714" lon="-3.52584">
        <ele>64.5</ele>
        <time>2018-05-30T10:35:27Z</time>
      </trkpt>
      <trkpt lat="47.87713" lon="-3.52586">
        <ele>64.43</ele>
        <time>2018-05-30T10:35:28Z</time>
      </trkpt>
      <trkpt lat="47.87712" lon="-3.52587">
        <ele>64.38</ele>
        <time>2018-05-30T10:35:29Z</time>
      </trkpt>
      <trkpt lat="47.87711" lon="-3.5259">
        <ele>64.26</ele>
        <time>2018-05-30T10:35:30Z</time>
      </trkpt>
      <trkpt lat="47.87711" lon="-3.52591">
        <ele>64.08</ele>
        <time>2018-05-30T10:35:31Z</time>
      </trkpt>
      <trkpt lat="47.8771" lon="-3.52593">
        <ele>63.71</ele>
        <time>2018-05-30T10:35:32Z</time>
      </trkpt>
      <trkpt lat="47.87709" lon="-3.52594">
        <ele>63.57</ele>
        <time>2018-05-30T10:35:33Z</time>
      </trkpt>
      <trkpt lat="47.87708" lon="-3.52597">
        <ele>63.45</ele>
        <time>2018-05-30T10:35:34Z</time>
      </trkpt>
      <trkpt lat="47.8769" lon="-3.52638">
        <ele>62.71</ele>
        <time>2018-05-30T10:35:52Z</time>
      </trkpt>
      <trkpt lat="47.87676" lon="-3.52667">
        <ele>62.43</ele>
        <time>2018-05-30T10:36:06Z</time>
      </trkpt>
      <trkpt lat="47.87661" lon="-3.527">
        <ele>61.29</ele>
        <time>2018-05-30T10:36:21Z</time>
      </trkpt>
      <trkpt lat="47.87654" lon="-3.52723">
        <ele>60.98</ele>
        <time>2018-05-30T10:36:35Z</time>
      </trkpt>
      <trkpt lat="47.87642" lon="-3.52752">
        <ele>60.81</ele>
        <time>2018-05-30T10:36:48Z</time>
      </trkpt>
      <trkpt lat="47.87633" lon="-3.5277">
        <ele>60.93</ele>
        <time>2018-05-30T10:36:51Z</time>
      </trkpt>
      <trkpt lat="47.87608" lon="-3.52876">
        <ele>61.7</ele>
        <time>2018-05-30T10:37:03Z</time>
      </trkpt>
      <trkpt lat="47.8759" lon="-3.5295">
        <ele>63.22</ele>
        <time>2018-05-30T10:37:11Z</time>
      </trkpt>
      <trkpt lat="47.87579" lon="-3.52977">
        <ele>64.55</ele>
        <time>2018-05-30T10:37:15Z</time>
      </trkpt>
      <trkpt lat="47.87559" lon="-3.53014">
        <ele>67.71</ele>
        <time>2018-05-30T10:37:22Z</time>
      </trkpt>
      <trkpt lat="47.87547" lon="-3.53034">
        <ele>70.89</ele>
        <time>2018-05-30T10:37:28Z</time>
      </trkpt>
      <trkpt lat="47.87529" lon="-3.53077">
        <ele>74.06</ele>
        <time>2018-05-30T10:37:37Z</time>
      </trkpt>
      <trkpt lat="47.87502" lon="-3.53129">
        <ele>76.24</ele>
        <time>2018-05-30T10:37:48Z</time>
      </trkpt>
      <trkpt lat="47.87462" lon="-3.53194">
        <ele>77.72</ele>
        <time>2018-05-30T10:37:58Z</time>
      </trkpt>
      <trkpt lat="47.87442" lon="-3.53254">
        <ele>77.76</ele>
        <time>2018-05-30T10:38:09Z</time>
      </trkpt>
      <trkpt lat="47.87425" lon="-3.53295">
        <ele>76.95</ele>
        <time>2018-05-30T10:38:21Z</time>
      </trkpt>
      <trkpt lat="47.87425" lon="-3.53297">
        <ele>76.79</ele>
        <time>2018-05-30T10:38:30Z</time>
      </trkpt>
      <trkpt lat="47.87427" lon="-3.53296">
        <ele>76.78</ele>
        <time>2018-05-30T10:38:32Z</time>
      </trkpt>
      <trkpt lat="47.87428" lon="-3.53296">
        <ele>76.78</ele>
        <time>2018-05-30T10:38:33Z</time>
      </trkpt>
      <trkpt lat="47.87429" lon="-3.53296">
        <ele>76.78</ele>
        <time>2018-05-30T10:38:34Z</time>
      </trkpt>
      <trkpt lat="47.87447" lon="-3.53317">
        <ele>76.17</ele>
        <time>2018-05-30T10:38:50Z</time>
      </trkpt>
      <trkpt lat="47.87467" lon="-3.53352">
        <ele>74.86</ele>
        <time>2018-05-30T10:39:07Z</time>
      </trkpt>
      <trkpt lat="47.87474" lon="-3.53371">
        <ele>74.16</ele>
        <time>2018-05-30T10:39:16Z</time>
      </trkpt>
      <trkpt lat="47.87474" lon="-3.53373">
        <ele>74.11</ele>
        <time>2018-05-30T10:39:17Z</time>
      </trkpt>
      <trkpt lat="47.87474" lon="-3.53375">
        <ele>74.1</ele>
        <time>2018-05-30T10:39:18Z</time>
      </trkpt>
      <trkpt lat="47.87475" lon="-3.53377">
        <ele>74.09</ele>
        <time>2018-05-30T10:39:19Z</time>
      </trkpt>
      <trkpt lat="47.87476" lon="-3.5338">
        <ele>74.08</ele>
        <time>2018-05-30T10:39:20Z</time>
      </trkpt>
      <trkpt lat="47.8749" lon="-3.53416">
        <ele>72.63</ele>
        <time>2018-05-30T10:39:36Z</time>
      </trkpt>
      <trkpt lat="47.87502" lon="-3.53453">
        <ele>70.55</ele>
        <time>2018-05-30T10:39:53Z</time>
      </trkpt>
      <trkpt lat="47.87503" lon="-3.53481">
        <ele>68.57</ele>
        <time>2018-05-30T10:40:07Z</time>
      </trkpt>
      <trkpt lat="47.87501" lon="-3.53515">
        <ele>68.02</ele>
        <time>2018-05-30T10:40:19Z</time>
      </trkpt>
      <trkpt lat="47.87497" lon="-3.53558">
        <ele>68.04</ele>
        <time>2018-05-30T10:40:33Z</time>
      </trkpt>
      <trkpt lat="47.87493" lon="-3.53596">
        <ele>67.73</ele>
        <time>2018-05-30T10:40:48Z</time>
      </trkpt>
      <trkpt lat="47.87491" lon="-3.53635">
        <ele>67.24</ele>
        <time>2018-05-30T10:41:03Z</time>
      </trkpt>
      <trkpt lat="47.87491" lon="-3.53637">
        <ele>67.19</ele>
        <time>2018-05-30T10:41:04Z</time>
      </trkpt>
      <trkpt lat="47.8749" lon="-3.53639">
        <ele>67.14</ele>
        <time>2018-05-30T10:41:05Z</time>
      </trkpt>
      <trkpt lat="47.8749" lon="-3.53641">
        <ele>67.08</ele>
        <time>2018-05-30T10:41:06Z</time>
      </trkpt>
      <trkpt lat="47.8749" lon="-3.53643">
        <ele>67.02</ele>
        <time>2018-05-30T10:41:07Z</time>
      </trkpt>
      <trkpt lat="47.8749" lon="-3.53646">
        <ele>66.94</ele>
        <time>2018-05-30T10:41:08Z</time>
      </trkpt>
      <trkpt lat="47.8749" lon="-3.53648">
        <ele>66.85</ele>
        <time>2018-05-30T10:41:09Z</time>
      </trkpt>
      <trkpt lat="47.8749" lon="-3.5365">
        <ele>66.75</ele>
        <time>2018-05-30T10:41:10Z</time>
      </trkpt>
      <trkpt lat="47.87489" lon="-3.53652">
        <ele>66.67</ele>
        <time>2018-05-30T10:41:11Z</time>
      </trkpt>
      <trkpt lat="47.87489" lon="-3.53654">
        <ele>66.61</ele>
        <time>2018-05-30T10:41:12Z</time>
      </trkpt>
      <trkpt lat="47.87488" lon="-3.53659">
        <ele>66.5</ele>
        <time>2018-05-30T10:41:14Z</time>
      </trkpt>
      <trkpt lat="47.87488" lon="-3.53662">
        <ele>66.46</ele>
        <time>2018-05-30T10:41:15Z</time>
      </trkpt>
      <trkpt lat="47.87487" lon="-3.53665">
        <ele>66.42</ele>
        <time>2018-05-30T10:41:16Z</time>
      </trkpt>
      <trkpt lat="47.87487" lon="-3.53667">
        <ele>66.38</ele>
        <time>2018-05-30T10:41:17Z</time>
      </trkpt>
      <trkpt lat="47.87486" lon="-3.53669">
        <ele>66.35</ele>
        <time>2018-05-30T10:41:18Z</time>
      </trkpt>
      <trkpt lat="47.87482" lon="-3.53712">
        <ele>66.21</ele>
        <time>2018-05-30T10:41:33Z</time>
      </trkpt>
      <trkpt lat="47.87481" lon="-3.53755">
        <ele>65.85</ele>
        <time>2018-05-30T10:41:49Z</time>
      </trkpt>
      <trkpt lat="47.87493" lon="-3.53799">
        <ele>64.54</ele>
        <time>2018-05-30T10:42:07Z</time>
      </trkpt>
      <trkpt lat="47.87507" lon="-3.53827">
        <ele>62.41</ele>
        <time>2018-05-30T10:42:20Z</time>
      </trkpt>
      <trkpt lat="47.87508" lon="-3.53828">
        <ele>62.17</ele>
        <time>2018-05-30T10:42:21Z</time>
      </trkpt>
      <trkpt lat="47.87512" lon="-3.53834">
        <ele>61.22</ele>
        <time>2018-05-30T10:42:25Z</time>
      </trkpt>
      <trkpt lat="47.87512" lon="-3.53837">
        <ele>61.01</ele>
        <time>2018-05-30T10:42:26Z</time>
      </trkpt>
      <trkpt lat="47.87513" lon="-3.53839">
        <ele>60.79</ele>
        <time>2018-05-30T10:42:27Z</time>
      </trkpt>
      <trkpt lat="47.8752" lon="-3.53878">
        <ele>58.38</ele>
        <time>2018-05-30T10:42:43Z</time>
      </trkpt>
      <trkpt lat="47.8752" lon="-3.53881">
        <ele>58.36</ele>
        <time>2018-05-30T10:42:44Z</time>
      </trkpt>
      <trkpt lat="47.8752" lon="-3.53884">
        <ele>58.34</ele>
        <time>2018-05-30T10:42:45Z</time>
      </trkpt>
      <trkpt lat="47.8752" lon="-3.53886">
        <ele>58.27</ele>
        <time>2018-05-30T10:42:46Z</time>
      </trkpt>
      <trkpt lat="47.8752" lon="-3.53889">
        <ele>58.18</ele>
        <time>2018-05-30T10:42:47Z</time>
      </trkpt>
      <trkpt lat="47.87507" lon="-3.53932">
        <ele>57.66</ele>
        <time>2018-05-30T10:43:03Z</time>
      </trkpt>
      <trkpt lat="47.8749" lon="-3.53959">
        <ele>57.43</ele>
        <time>2018-05-30T10:43:17Z</time>
      </trkpt>
      <trkpt lat="47.87473" lon="-3.5399">
        <ele>57.01</ele>
        <time>2018-05-30T10:43:32Z</time>
      </trkpt>
      <trkpt lat="47.87459" lon="-3.54028">
        <ele>56.64</ele>
        <time>2018-05-30T10:43:49Z</time>
      </trkpt>
      <trkpt lat="47.87447" lon="-3.54071">
        <ele>55.92</ele>
        <time>2018-05-30T10:44:07Z</time>
      </trkpt>
      <trkpt lat="47.8744" lon="-3.54097">
        <ele>55.68</ele>
        <time>2018-05-30T10:44:19Z</time>
      </trkpt>
      <trkpt lat="47.87422" lon="-3.54121">
        <ele>54.07</ele>
        <time>2018-05-30T10:44:33Z</time>
      </trkpt>
      <trkpt lat="47.87408" lon="-3.54144">
        <ele>53.06</ele>
        <time>2018-05-30T10:44:46Z</time>
      </trkpt>
      <trkpt lat="47.87401" lon="-3.54156">
        <ele>51.69</ele>
        <time>2018-05-30T10:45:00Z</time>
      </trkpt>
      <trkpt lat="47.874" lon="-3.5416">
        <ele>51.27</ele>
        <time>2018-05-30T10:45:02Z</time>
      </trkpt>
      <trkpt lat="47.87394" lon="-3.54203">
        <ele>48.16</ele>
        <time>2018-05-30T10:45:18Z</time>
      </trkpt>
      <trkpt lat="47.87391" lon="-3.5423">
        <ele>45.09</ele>
        <time>2018-05-30T10:45:30Z</time>
      </trkpt>
      <trkpt lat="47.8739" lon="-3.54232">
        <ele>44.88</ele>
        <time>2018-05-30T10:45:31Z</time>
      </trkpt>
      <trkpt lat="47.87389" lon="-3.54235">
        <ele>44.68</ele>
        <time>2018-05-30T10:45:32Z</time>
      </trkpt>
      <trkpt lat="47.87389" lon="-3.54237">
        <ele>44.49</ele>
        <time>2018-05-30T10:45:33Z</time>
      </trkpt>
      <trkpt lat="47.87388" lon="-3.54239">
        <ele>44.31</ele>
        <time>2018-05-30T10:45:34Z</time>
      </trkpt>
      <trkpt lat="47.87388" lon="-3.54241">
        <ele>44.16</ele>
        <time>2018-05-30T10:45:35Z</time>
      </trkpt>
      <trkpt lat="47.87383" lon="-3.54252">
        <ele>42.1</ele>
        <time>2018-05-30T10:45:51Z</time>
      </trkpt>
      <trkpt lat="47.8738" lon="-3.54255">
        <ele>41.18</ele>
        <time>2018-05-30T10:46:08Z</time>
      </trkpt>
      <trkpt lat="47.87376" lon="-3.54255">
        <ele>39.8</ele>
        <time>2018-05-30T10:46:29Z</time>
      </trkpt>
      <trkpt lat="47.87371" lon="-3.54262">
        <ele>38.97</ele>
        <time>2018-05-30T10:46:50Z</time>
      </trkpt>
      <trkpt lat="47.87364" lon="-3.54265">
        <ele>37.81</ele>
        <time>2018-05-30T10:46:59Z</time>
      </trkpt>
      <trkpt lat="47.87354" lon="-3.54264">
        <ele>36</ele>
        <time>2018-05-30T10:47:12Z</time>
      </trkpt>
      <trkpt lat="47.87353" lon="-3.54266">
        <ele>35.57</ele>
        <time>2018-05-30T10:47:32Z</time>
      </trkpt>
      <trkpt lat="47.87348" lon="-3.54266">
        <ele>35.29</ele>
        <time>2018-05-30T10:47:40Z</time>
      </trkpt>
      <trkpt lat="47.87337" lon="-3.5427">
        <ele>34.19</ele>
        <time>2018-05-30T10:47:48Z</time>
      </trkpt>
      <trkpt lat="47.87325" lon="-3.54269">
        <ele>30.86</ele>
        <time>2018-05-30T10:48:02Z</time>
      </trkpt>
      <trkpt lat="47.87322" lon="-3.54268">
        <ele>30.13</ele>
        <time>2018-05-30T10:48:16Z</time>
      </trkpt>
      <trkpt lat="47.87318" lon="-3.54268">
        <ele>30.03</ele>
        <time>2018-05-30T10:48:19Z</time>
      </trkpt>
      <trkpt lat="47.87316" lon="-3.5427">
        <ele>29.87</ele>
        <time>2018-05-30T10:48:21Z</time>
      </trkpt>
      <trkpt lat="47.87308" lon="-3.5427">
        <ele>27.7</ele>
        <time>2018-05-30T10:48:29Z</time>
      </trkpt>
      <trkpt lat="47.87302" lon="-3.54292">
        <ele>24.23</ele>
        <time>2018-05-30T10:48:41Z</time>
      </trkpt>
      <trkpt lat="47.87298" lon="-3.54302">
        <ele>22.46</ele>
        <time>2018-05-30T10:48:47Z</time>
      </trkpt>
      <trkpt lat="47.87292" lon="-3.54318">
        <ele>19.49</ele>
        <time>2018-05-30T10:49:00Z</time>
      </trkpt>
      <trkpt lat="47.8729" lon="-3.54318">
        <ele>19.17</ele>
        <time>2018-05-30T10:49:05Z</time>
      </trkpt>
      <trkpt lat="47.87289" lon="-3.54328">
        <ele>19.32</ele>
        <time>2018-05-30T10:49:24Z</time>
      </trkpt>
      <trkpt lat="47.87291" lon="-3.5433">
        <ele>19.28</ele>
        <time>2018-05-30T10:49:43Z</time>
      </trkpt>
      <trkpt lat="47.87292" lon="-3.54329">
        <ele>18.87</ele>
        <time>2018-05-30T10:49:57Z</time>
      </trkpt>
      <trkpt lat="47.87293" lon="-3.54332">
        <ele>18.41</ele>
        <time>2018-05-30T10:50:12Z</time>
      </trkpt>
      <trkpt lat="47.87286" lon="-3.54327">
        <ele>18.61</ele>
        <time>2018-05-30T10:50:35Z</time>
      </trkpt>
      <trkpt lat="47.87282" lon="-3.54331">
        <ele>18.93</ele>
        <time>2018-05-30T10:50:49Z</time>
      </trkpt>
      <trkpt lat="47.87281" lon="-3.54337">
        <ele>18.95</ele>
        <time>2018-05-30T10:50:53Z</time>
      </trkpt>
      <trkpt lat="47.87277" lon="-3.54365">
        <ele>19.93</ele>
        <time>2018-05-30T10:51:09Z</time>
      </trkpt>
      <trkpt lat="47.87275" lon="-3.54375">
        <ele>19.33</ele>
        <time>2018-05-30T10:51:14Z</time>
      </trkpt>
      <trkpt lat="47.87272" lon="-3.54382">
        <ele>18.59</ele>
        <time>2018-05-30T10:51:22Z</time>
      </trkpt>
      <trkpt lat="47.87272" lon="-3.54391">
        <ele>18.54</ele>
        <time>2018-05-30T10:51:27Z</time>
      </trkpt>
      <trkpt lat="47.87271" lon="-3.54398">
        <ele>18.54</ele>
        <time>2018-05-30T10:51:31Z</time>
      </trkpt>
      <trkpt lat="47.87271" lon="-3.54403">
        <ele>18.71</ele>
        <time>2018-05-30T10:51:34Z</time>
      </trkpt>
      <trkpt lat="47.87267" lon="-3.54418">
        <ele>19.16</ele>
        <time>2018-05-30T10:51:42Z</time>
      </trkpt>
      <trkpt lat="47.87266" lon="-3.54426">
        <ele>19.35</ele>
        <time>2018-05-30T10:51:47Z</time>
      </trkpt>
      <trkpt lat="47.87263" lon="-3.54444">
        <ele>19.69</ele>
        <time>2018-05-30T10:51:58Z</time>
      </trkpt>
      <trkpt lat="47.87261" lon="-3.54465">
        <ele>19.88</ele>
        <time>2018-05-30T10:52:11Z</time>
      </trkpt>
      <trkpt lat="47.87261" lon="-3.54468">
        <ele>19.99</ele>
        <time>2018-05-30T10:52:16Z</time>
      </trkpt>
      <trkpt lat="47.87261" lon="-3.54481">
        <ele>20.05</ele>
        <time>2018-05-30T10:52:24Z</time>
      </trkpt>
      <trkpt lat="47.87273" lon="-3.5449">
        <ele>19.96</ele>
        <time>2018-05-30T10:52:37Z</time>
      </trkpt>
      <trkpt lat="47.87279" lon="-3.54498">
        <ele>20.1</ele>
        <time>2018-05-30T10:52:46Z</time>
      </trkpt>
      <trkpt lat="47.87286" lon="-3.54502">
        <ele>20.16</ele>
        <time>2018-05-30T10:52:52Z</time>
      </trkpt>
      <trkpt lat="47.87298" lon="-3.54521">
        <ele>20.29</ele>
        <time>2018-05-30T10:53:04Z</time>
      </trkpt>
      <trkpt lat="47.87307" lon="-3.5453">
        <ele>20.2</ele>
        <time>2018-05-30T10:53:11Z</time>
      </trkpt>
      <trkpt lat="47.87316" lon="-3.54534">
        <ele>20.45</ele>
        <time>2018-05-30T10:53:18Z</time>
      </trkpt>
      <trkpt lat="47.87335" lon="-3.54543">
        <ele>20.52</ele>
        <time>2018-05-30T10:53:33Z</time>
      </trkpt>
      <trkpt lat="47.87354" lon="-3.54546">
        <ele>20.65</ele>
        <time>2018-05-30T10:53:45Z</time>
      </trkpt>
      <trkpt lat="47.87371" lon="-3.54552">
        <ele>20.83</ele>
        <time>2018-05-30T10:53:57Z</time>
      </trkpt>
      <trkpt lat="47.87385" lon="-3.5456">
        <ele>20.82</ele>
        <time>2018-05-30T10:54:08Z</time>
      </trkpt>
      <trkpt lat="47.87405" lon="-3.54561">
        <ele>20.49</ele>
        <time>2018-05-30T10:54:21Z</time>
      </trkpt>
      <trkpt lat="47.87411" lon="-3.54562">
        <ele>20.34</ele>
        <time>2018-05-30T10:54:26Z</time>
      </trkpt>
      <trkpt lat="47.87415" lon="-3.54564">
        <ele>20.21</ele>
        <time>2018-05-30T10:54:29Z</time>
      </trkpt>
      <trkpt lat="47.87433" lon="-3.54563">
        <ele>19.93</ele>
        <time>2018-05-30T10:54:43Z</time>
      </trkpt>
      <trkpt lat="47.87438" lon="-3.54563">
        <ele>19.91</ele>
        <time>2018-05-30T10:54:46Z</time>
      </trkpt>
      <trkpt lat="47.87464" lon="-3.54556">
        <ele>19.55</ele>
        <time>2018-05-30T10:55:01Z</time>
      </trkpt>
      <trkpt lat="47.87482" lon="-3.54549">
        <ele>19.69</ele>
        <time>2018-05-30T10:55:12Z</time>
      </trkpt>
      <trkpt lat="47.875" lon="-3.54535">
        <ele>19.67</ele>
        <time>2018-05-30T10:55:26Z</time>
      </trkpt>
      <trkpt lat="47.8752" lon="-3.54512">
        <ele>19.31</ele>
        <time>2018-05-30T10:55:42Z</time>
      </trkpt>
      <trkpt lat="47.87521" lon="-3.54511">
        <ele>19.24</ele>
        <time>2018-05-30T10:55:43Z</time>
      </trkpt>
      <trkpt lat="47.87537" lon="-3.54498">
        <ele>19</ele>
        <time>2018-05-30T10:55:54Z</time>
      </trkpt>
      <trkpt lat="47.87554" lon="-3.54484">
        <ele>18.94</ele>
        <time>2018-05-30T10:56:08Z</time>
      </trkpt>
      <trkpt lat="47.87559" lon="-3.54483">
        <ele>19.01</ele>
        <time>2018-05-30T10:56:12Z</time>
      </trkpt>
      <trkpt lat="47.87562" lon="-3.54481">
        <ele>19.1</ele>
        <time>2018-05-30T10:56:14Z</time>
      </trkpt>
      <trkpt lat="47.87572" lon="-3.54476">
        <ele>19.33</ele>
        <time>2018-05-30T10:56:20Z</time>
      </trkpt>
      <trkpt lat="47.87582" lon="-3.54464">
        <ele>19.58</ele>
        <time>2018-05-30T10:56:29Z</time>
      </trkpt>
      <trkpt lat="47.87603" lon="-3.5445">
        <ele>19.83</ele>
        <time>2018-05-30T10:56:44Z</time>
      </trkpt>
      <trkpt lat="47.87623" lon="-3.54438">
        <ele>19.98</ele>
        <time>2018-05-30T10:56:58Z</time>
      </trkpt>
      <trkpt lat="47.87639" lon="-3.54426">
        <ele>20.49</ele>
        <time>2018-05-30T10:57:12Z</time>
      </trkpt>
      <trkpt lat="47.87651" lon="-3.54419">
        <ele>21.14</ele>
        <time>2018-05-30T10:57:25Z</time>
      </trkpt>
      <trkpt lat="47.87658" lon="-3.54415">
        <ele>21.36</ele>
        <time>2018-05-30T10:57:30Z</time>
      </trkpt>
      <trkpt lat="47.87666" lon="-3.54399">
        <ele>22.03</ele>
        <time>2018-05-30T10:57:45Z</time>
      </trkpt>
      <trkpt lat="47.87667" lon="-3.54395">
        <ele>22.2</ele>
        <time>2018-05-30T10:58:01Z</time>
      </trkpt>
      <trkpt lat="47.87668" lon="-3.54391">
        <ele>22.77</ele>
        <time>2018-05-30T10:58:13Z</time>
      </trkpt>
      <trkpt lat="47.87671" lon="-3.54386">
        <ele>22.94</ele>
        <time>2018-05-30T10:58:29Z</time>
      </trkpt>
      <trkpt lat="47.87675" lon="-3.54385">
        <ele>23.04</ele>
        <time>2018-05-30T10:58:43Z</time>
      </trkpt>
      <trkpt lat="47.87686" lon="-3.54377">
        <ele>24.17</ele>
        <time>2018-05-30T10:58:58Z</time>
      </trkpt>
      <trkpt lat="47.8769" lon="-3.54371">
        <ele>24.38</ele>
        <time>2018-05-30T10:59:02Z</time>
      </trkpt>
      <trkpt lat="47.87713" lon="-3.54349">
        <ele>26.6</ele>
        <time>2018-05-30T10:59:18Z</time>
      </trkpt>
      <trkpt lat="47.87721" lon="-3.54333">
        <ele>27.72</ele>
        <time>2018-05-30T10:59:25Z</time>
      </trkpt>
      <trkpt lat="47.87722" lon="-3.54331">
        <ele>27.94</ele>
        <time>2018-05-30T10:59:26Z</time>
      </trkpt>
      <trkpt lat="47.87728" lon="-3.54318">
        <ele>29.16</ele>
        <time>2018-05-30T10:59:32Z</time>
      </trkpt>
      <trkpt lat="47.87728" lon="-3.54316">
        <ele>29.27</ele>
        <time>2018-05-30T10:59:33Z</time>
      </trkpt>
      <trkpt lat="47.87729" lon="-3.54314">
        <ele>29.37</ele>
        <time>2018-05-30T10:59:34Z</time>
      </trkpt>
      <trkpt lat="47.8773" lon="-3.54312">
        <ele>29.49</ele>
        <time>2018-05-30T10:59:35Z</time>
      </trkpt>
      <trkpt lat="47.87731" lon="-3.5431">
        <ele>29.63</ele>
        <time>2018-05-30T10:59:36Z</time>
      </trkpt>
      <trkpt lat="47.87732" lon="-3.54308">
        <ele>29.77</ele>
        <time>2018-05-30T10:59:37Z</time>
      </trkpt>
      <trkpt lat="47.87733" lon="-3.54305">
        <ele>29.9</ele>
        <time>2018-05-30T10:59:38Z</time>
      </trkpt>
      <trkpt lat="47.87733" lon="-3.54303">
        <ele>30.01</ele>
        <time>2018-05-30T10:59:39Z</time>
      </trkpt>
      <trkpt lat="47.87734" lon="-3.54301">
        <ele>30.13</ele>
        <time>2018-05-30T10:59:40Z</time>
      </trkpt>
      <trkpt lat="47.87735" lon="-3.54299">
        <ele>30.24</ele>
        <time>2018-05-30T10:59:41Z</time>
      </trkpt>
      <trkpt lat="47.87737" lon="-3.5429">
        <ele>30.69</ele>
        <time>2018-05-30T10:59:45Z</time>
      </trkpt>
      <trkpt lat="47.87738" lon="-3.54288">
        <ele>30.8</ele>
        <time>2018-05-30T10:59:46Z</time>
      </trkpt>
      <trkpt lat="47.87742" lon="-3.54278">
        <ele>31.61</ele>
        <time>2018-05-30T10:59:52Z</time>
      </trkpt>
      <trkpt lat="47.87743" lon="-3.54276">
        <ele>31.75</ele>
        <time>2018-05-30T10:59:53Z</time>
      </trkpt>
      <trkpt lat="47.87743" lon="-3.54274">
        <ele>31.87</ele>
        <time>2018-05-30T10:59:54Z</time>
      </trkpt>
      <trkpt lat="47.87743" lon="-3.54271">
        <ele>31.99</ele>
        <time>2018-05-30T10:59:55Z</time>
      </trkpt>
      <trkpt lat="47.87744" lon="-3.5427">
        <ele>32.11</ele>
        <time>2018-05-30T10:59:56Z</time>
      </trkpt>
      <trkpt lat="47.87745" lon="-3.54268">
        <ele>32.37</ele>
        <time>2018-05-30T10:59:57Z</time>
      </trkpt>
      <trkpt lat="47.87746" lon="-3.54266">
        <ele>32.37</ele>
        <time>2018-05-30T10:59:58Z</time>
      </trkpt>
      <trkpt lat="47.8775" lon="-3.54251">
        <ele>33.28</ele>
        <time>2018-05-30T11:00:05Z</time>
      </trkpt>
      <trkpt lat="47.8775" lon="-3.54249">
        <ele>33.41</ele>
        <time>2018-05-30T11:00:06Z</time>
      </trkpt>
      <trkpt lat="47.8775" lon="-3.54247">
        <ele>33.54</ele>
        <time>2018-05-30T11:00:07Z</time>
      </trkpt>
      <trkpt lat="47.87749" lon="-3.54244">
        <ele>33.65</ele>
        <time>2018-05-30T11:00:08Z</time>
      </trkpt>
      <trkpt lat="47.87749" lon="-3.54242">
        <ele>33.75</ele>
        <time>2018-05-30T11:00:09Z</time>
      </trkpt>
      <trkpt lat="47.87748" lon="-3.5424">
        <ele>33.84</ele>
        <time>2018-05-30T11:00:10Z</time>
      </trkpt>
      <trkpt lat="47.87757" lon="-3.54204">
        <ele>35.73</ele>
        <time>2018-05-30T11:00:25Z</time>
      </trkpt>
      <trkpt lat="47.87754" lon="-3.54165">
        <ele>38.6</ele>
        <time>2018-05-30T11:00:41Z</time>
      </trkpt>
      <trkpt lat="47.87752" lon="-3.5413">
        <ele>41.43</ele>
        <time>2018-05-30T11:00:56Z</time>
      </trkpt>
      <trkpt lat="47.87754" lon="-3.5409">
        <ele>44.14</ele>
        <time>2018-05-30T11:01:12Z</time>
      </trkpt>
      <trkpt lat="47.87765" lon="-3.5406">
        <ele>46.88</ele>
        <time>2018-05-30T11:01:26Z</time>
      </trkpt>
      <trkpt lat="47.87771" lon="-3.54035">
        <ele>48.77</ele>
        <time>2018-05-30T11:01:38Z</time>
      </trkpt>
      <trkpt lat="47.8778" lon="-3.54007">
        <ele>51.28</ele>
        <time>2018-05-30T11:01:52Z</time>
      </trkpt>
      <trkpt lat="47.87785" lon="-3.53997">
        <ele>52.13</ele>
        <time>2018-05-30T11:01:57Z</time>
      </trkpt>
      <trkpt lat="47.87786" lon="-3.53994">
        <ele>52.33</ele>
        <time>2018-05-30T11:01:58Z</time>
      </trkpt>
      <trkpt lat="47.87787" lon="-3.53992">
        <ele>52.53</ele>
        <time>2018-05-30T11:01:59Z</time>
      </trkpt>
      <trkpt lat="47.87788" lon="-3.5399">
        <ele>52.71</ele>
        <time>2018-05-30T11:02:00Z</time>
      </trkpt>
      <trkpt lat="47.87789" lon="-3.53988">
        <ele>52.9</ele>
        <time>2018-05-30T11:02:01Z</time>
      </trkpt>
      <trkpt lat="47.8779" lon="-3.53986">
        <ele>53.07</ele>
        <time>2018-05-30T11:02:02Z</time>
      </trkpt>
      <trkpt lat="47.8779" lon="-3.53984">
        <ele>53.22</ele>
        <time>2018-05-30T11:02:03Z</time>
      </trkpt>
      <trkpt lat="47.87791" lon="-3.53982">
        <ele>53.37</ele>
        <time>2018-05-30T11:02:04Z</time>
      </trkpt>
      <trkpt lat="47.87795" lon="-3.53958">
        <ele>55.71</ele>
        <time>2018-05-30T11:02:14Z</time>
      </trkpt>
      <trkpt lat="47.87796" lon="-3.53956">
        <ele>55.93</ele>
        <time>2018-05-30T11:02:15Z</time>
      </trkpt>
      <trkpt lat="47.87797" lon="-3.53954">
        <ele>56.11</ele>
        <time>2018-05-30T11:02:16Z</time>
      </trkpt>
      <trkpt lat="47.87798" lon="-3.53952">
        <ele>56.26</ele>
        <time>2018-05-30T11:02:17Z</time>
      </trkpt>
      <trkpt lat="47.87798" lon="-3.5395">
        <ele>56.38</ele>
        <time>2018-05-30T11:02:18Z</time>
      </trkpt>
      <trkpt lat="47.87799" lon="-3.53948">
        <ele>56.5</ele>
        <time>2018-05-30T11:02:19Z</time>
      </trkpt>
      <trkpt lat="47.87799" lon="-3.53945">
        <ele>56.62</ele>
        <time>2018-05-30T11:02:20Z</time>
      </trkpt>
      <trkpt lat="47.878" lon="-3.53943">
        <ele>56.77</ele>
        <time>2018-05-30T11:02:21Z</time>
      </trkpt>
      <trkpt lat="47.87811" lon="-3.53912">
        <ele>59.13</ele>
        <time>2018-05-30T11:02:36Z</time>
      </trkpt>
      <trkpt lat="47.87819" lon="-3.53883">
        <ele>60.95</ele>
        <time>2018-05-30T11:02:50Z</time>
      </trkpt>
      <trkpt lat="47.87834" lon="-3.53851">
        <ele>62.4</ele>
        <time>2018-05-30T11:03:06Z</time>
      </trkpt>
      <trkpt lat="47.87853" lon="-3.53816">
        <ele>64.05</ele>
        <time>2018-05-30T11:03:24Z</time>
      </trkpt>
      <trkpt lat="47.87871" lon="-3.53791">
        <ele>64.69</ele>
        <time>2018-05-30T11:03:39Z</time>
      </trkpt>
      <trkpt lat="47.8789" lon="-3.53764">
        <ele>64.67</ele>
        <time>2018-05-30T11:03:54Z</time>
      </trkpt>
      <trkpt lat="47.87909" lon="-3.53736">
        <ele>64.49</ele>
        <time>2018-05-30T11:04:09Z</time>
      </trkpt>
      <trkpt lat="47.87925" lon="-3.53708">
        <ele>64.43</ele>
        <time>2018-05-30T11:04:24Z</time>
      </trkpt>
      <trkpt lat="47.87941" lon="-3.53681">
        <ele>64.87</ele>
        <time>2018-05-30T11:04:39Z</time>
      </trkpt>
      <trkpt lat="47.87956" lon="-3.53656">
        <ele>64.98</ele>
        <time>2018-05-30T11:04:53Z</time>
      </trkpt>
      <trkpt lat="47.8796" lon="-3.53651">
        <ele>65.08</ele>
        <time>2018-05-30T11:04:56Z</time>
      </trkpt>
      <trkpt lat="47.87961" lon="-3.53649">
        <ele>65.08</ele>
        <time>2018-05-30T11:04:57Z</time>
      </trkpt>
      <trkpt lat="47.87985" lon="-3.5362">
        <ele>65.74</ele>
        <time>2018-05-30T11:05:16Z</time>
      </trkpt>
      <trkpt lat="47.88001" lon="-3.53596">
        <ele>66.3</ele>
        <time>2018-05-30T11:05:30Z</time>
      </trkpt>
      <trkpt lat="47.88024" lon="-3.53565">
        <ele>67.47</ele>
        <time>2018-05-30T11:05:49Z</time>
      </trkpt>
      <trkpt lat="47.88046" lon="-3.53535">
        <ele>68.4</ele>
        <time>2018-05-30T11:06:08Z</time>
      </trkpt>
      <trkpt lat="47.88066" lon="-3.53508">
        <ele>69.57</ele>
        <time>2018-05-30T11:06:24Z</time>
      </trkpt>
      <trkpt lat="47.88085" lon="-3.53481">
        <ele>70.13</ele>
        <time>2018-05-30T11:06:40Z</time>
      </trkpt>
      <trkpt lat="47.88104" lon="-3.53455">
        <ele>70.11</ele>
        <time>2018-05-30T11:06:56Z</time>
      </trkpt>
      <trkpt lat="47.88125" lon="-3.53423">
        <ele>69.87</ele>
        <time>2018-05-30T11:07:13Z</time>
      </trkpt>
      <trkpt lat="47.8815" lon="-3.53388">
        <ele>69.49</ele>
        <time>2018-05-30T11:07:32Z</time>
      </trkpt>
      <trkpt lat="47.88167" lon="-3.53359">
        <ele>68.93</ele>
        <time>2018-05-30T11:07:48Z</time>
      </trkpt>
      <trkpt lat="47.88187" lon="-3.5333">
        <ele>68.92</ele>
        <time>2018-05-30T11:08:04Z</time>
      </trkpt>
      <trkpt lat="47.8821" lon="-3.53297">
        <ele>69.35</ele>
        <time>2018-05-30T11:08:23Z</time>
      </trkpt>
      <trkpt lat="47.8823" lon="-3.53269">
        <ele>69.14</ele>
        <time>2018-05-30T11:08:41Z</time>
      </trkpt>
      <trkpt lat="47.88255" lon="-3.5325">
        <ele>68.82</ele>
        <time>2018-05-30T11:08:58Z</time>
      </trkpt>
      <trkpt lat="47.88278" lon="-3.53238">
        <ele>69.19</ele>
        <time>2018-05-30T11:09:14Z</time>
      </trkpt>
      <trkpt lat="47.88298" lon="-3.5323">
        <ele>69.71</ele>
        <time>2018-05-30T11:09:28Z</time>
      </trkpt>
      <trkpt lat="47.88313" lon="-3.53225">
        <ele>70.23</ele>
        <time>2018-05-30T11:09:38Z</time>
      </trkpt>
      <trkpt lat="47.88315" lon="-3.53225">
        <ele>70.27</ele>
        <time>2018-05-30T11:09:39Z</time>
      </trkpt>
      <trkpt lat="47.88317" lon="-3.53224">
        <ele>70.31</ele>
        <time>2018-05-30T11:09:40Z</time>
      </trkpt>
      <trkpt lat="47.88318" lon="-3.53223">
        <ele>70.36</ele>
        <time>2018-05-30T11:09:41Z</time>
      </trkpt>
      <trkpt lat="47.8832" lon="-3.53223">
        <ele>70.4</ele>
        <time>2018-05-30T11:09:42Z</time>
      </trkpt>
      <trkpt lat="47.88322" lon="-3.53222">
        <ele>70.44</ele>
        <time>2018-05-30T11:09:43Z</time>
      </trkpt>
      <trkpt lat="47.88323" lon="-3.53221">
        <ele>70.47</ele>
        <time>2018-05-30T11:09:44Z</time>
      </trkpt>
      <trkpt lat="47.88354" lon="-3.5321">
        <ele>71.78</ele>
        <time>2018-05-30T11:10:03Z</time>
      </trkpt>
      <trkpt lat="47.88372" lon="-3.53201">
        <ele>73.48</ele>
        <time>2018-05-30T11:10:17Z</time>
      </trkpt>
      <trkpt lat="47.88378" lon="-3.53185">
        <ele>75.14</ele>
        <time>2018-05-30T11:10:28Z</time>
      </trkpt>
      <trkpt lat="47.88378" lon="-3.53183">
        <ele>75.29</ele>
        <time>2018-05-30T11:10:29Z</time>
      </trkpt>
      <trkpt lat="47.88372" lon="-3.53154">
        <ele>77.54</ele>
        <time>2018-05-30T11:10:45Z</time>
      </trkpt>
      <trkpt lat="47.8836" lon="-3.53132">
        <ele>78.95</ele>
        <time>2018-05-30T11:10:58Z</time>
      </trkpt>
      <trkpt lat="47.88351" lon="-3.53101">
        <ele>79.8</ele>
        <time>2018-05-30T11:11:15Z</time>
      </trkpt>
      <trkpt lat="47.88348" lon="-3.53071">
        <ele>79.86</ele>
        <time>2018-05-30T11:11:26Z</time>
      </trkpt>
      <trkpt lat="47.88346" lon="-3.53069">
        <ele>79.88</ele>
        <time>2018-05-30T11:11:28Z</time>
      </trkpt>
      <trkpt lat="47.88345" lon="-3.53055">
        <ele>56.72</ele>
        <time>2018-05-30T12:20:40Z</time>
      </trkpt>
      <trkpt lat="47.88345" lon="-3.5305">
        <ele>56.71</ele>
        <time>2018-05-30T12:21:02Z</time>
      </trkpt>
      <trkpt lat="47.88344" lon="-3.5304">
        <ele>56.56</ele>
        <time>2018-05-30T12:21:17Z</time>
      </trkpt>
      <trkpt lat="47.88343" lon="-3.53036">
        <ele>56.51</ele>
        <time>2018-05-30T12:21:20Z</time>
      </trkpt>
      <trkpt lat="47.88341" lon="-3.53014">
        <ele>56</ele>
        <time>2018-05-30T12:21:37Z</time>
      </trkpt>
      <trkpt lat="47.88342" lon="-3.53007">
        <ele>55.84</ele>
        <time>2018-05-30T12:21:42Z</time>
      </trkpt>
      <trkpt lat="47.88342" lon="-3.52969">
        <ele>54.81</ele>
        <time>2018-05-30T12:21:59Z</time>
      </trkpt>
      <trkpt lat="47.88336" lon="-3.52949">
        <ele>54.04</ele>
        <time>2018-05-30T12:22:12Z</time>
      </trkpt>
      <trkpt lat="47.88332" lon="-3.52947">
        <ele>53.76</ele>
        <time>2018-05-30T12:22:15Z</time>
      </trkpt>
      <trkpt lat="47.8832" lon="-3.52948">
        <ele>52.84</ele>
        <time>2018-05-30T12:22:24Z</time>
      </trkpt>
      <trkpt lat="47.88306" lon="-3.52946">
        <ele>51.12</ele>
        <time>2018-05-30T12:22:38Z</time>
      </trkpt>
      <trkpt lat="47.88299" lon="-3.52939">
        <ele>49.95</ele>
        <time>2018-05-30T12:22:47Z</time>
      </trkpt>
      <trkpt lat="47.88294" lon="-3.52935">
        <ele>49.42</ele>
        <time>2018-05-30T12:22:52Z</time>
      </trkpt>
      <trkpt lat="47.8829" lon="-3.52932">
        <ele>49.04</ele>
        <time>2018-05-30T12:22:55Z</time>
      </trkpt>
      <trkpt lat="47.88275" lon="-3.52905">
        <ele>46.84</ele>
        <time>2018-05-30T12:23:08Z</time>
      </trkpt>
      <trkpt lat="47.88255" lon="-3.52882">
        <ele>44.58</ele>
        <time>2018-05-30T12:23:24Z</time>
      </trkpt>
      <trkpt lat="47.88239" lon="-3.5287">
        <ele>42.93</ele>
        <time>2018-05-30T12:23:37Z</time>
      </trkpt>
      <trkpt lat="47.88221" lon="-3.52852">
        <ele>41.37</ele>
        <time>2018-05-30T12:23:51Z</time>
      </trkpt>
      <trkpt lat="47.88213" lon="-3.52847">
        <ele>40.84</ele>
        <time>2018-05-30T12:23:57Z</time>
      </trkpt>
      <trkpt lat="47.88203" lon="-3.52841">
        <ele>39.91</ele>
        <time>2018-05-30T12:24:05Z</time>
      </trkpt>
      <trkpt lat="47.88185" lon="-3.52837">
        <ele>37.51</ele>
        <time>2018-05-30T12:24:19Z</time>
      </trkpt>
      <trkpt lat="47.88159" lon="-3.5283">
        <ele>35.08</ele>
        <time>2018-05-30T12:24:35Z</time>
      </trkpt>
      <trkpt lat="47.88157" lon="-3.5283">
        <ele>34.69</ele>
        <time>2018-05-30T12:24:37Z</time>
      </trkpt>
      <trkpt lat="47.88145" lon="-3.52819">
        <ele>31.49</ele>
        <time>2018-05-30T12:24:51Z</time>
      </trkpt>
      <trkpt lat="47.88145" lon="-3.52817">
        <ele>31.18</ele>
        <time>2018-05-30T12:24:53Z</time>
      </trkpt>
      <trkpt lat="47.88156" lon="-3.52777">
        <ele>29.25</ele>
        <time>2018-05-30T12:25:12Z</time>
      </trkpt>
      <trkpt lat="47.88166" lon="-3.52754">
        <ele>28.57</ele>
        <time>2018-05-30T12:25:25Z</time>
      </trkpt>
      <trkpt lat="47.8817" lon="-3.52748">
        <ele>28.46</ele>
        <time>2018-05-30T12:25:28Z</time>
      </trkpt>
      <trkpt lat="47.88174" lon="-3.52729">
        <ele>28.35</ele>
        <time>2018-05-30T12:25:37Z</time>
      </trkpt>
      <trkpt lat="47.88177" lon="-3.52695">
        <ele>27.31</ele>
        <time>2018-05-30T12:25:51Z</time>
      </trkpt>
      <trkpt lat="47.88185" lon="-3.52678">
        <ele>25.79</ele>
        <time>2018-05-30T12:25:59Z</time>
      </trkpt>
      <trkpt lat="47.88186" lon="-3.52676">
        <ele>25.55</ele>
        <time>2018-05-30T12:26:00Z</time>
      </trkpt>
      <trkpt lat="47.88186" lon="-3.52672">
        <ele>24.82</ele>
        <time>2018-05-30T12:26:02Z</time>
      </trkpt>
      <trkpt lat="47.88186" lon="-3.52661">
        <ele>23.83</ele>
        <time>2018-05-30T12:26:06Z</time>
      </trkpt>
      <trkpt lat="47.88184" lon="-3.52631">
        <ele>20.52</ele>
        <time>2018-05-30T12:26:21Z</time>
      </trkpt>
      <trkpt lat="47.88183" lon="-3.52627">
        <ele>20.11</ele>
        <time>2018-05-30T12:26:23Z</time>
      </trkpt>
      <trkpt lat="47.88172" lon="-3.52598">
        <ele>17.8</ele>
        <time>2018-05-30T12:26:30Z</time>
      </trkpt>
      <trkpt lat="47.88163" lon="-3.52571">
        <ele>14.42</ele>
        <time>2018-05-30T12:26:43Z</time>
      </trkpt>
      <trkpt lat="47.88156" lon="-3.52534">
        <ele>11.36</ele>
        <time>2018-05-30T12:26:57Z</time>
      </trkpt>
      <trkpt lat="47.88157" lon="-3.52524">
        <ele>10.34</ele>
        <time>2018-05-30T12:27:03Z</time>
      </trkpt>
      <trkpt lat="47.88163" lon="-3.52509">
        <ele>9.13</ele>
        <time>2018-05-30T12:27:11Z</time>
      </trkpt>
      <trkpt lat="47.88166" lon="-3.52498">
        <ele>8.11</ele>
        <time>2018-05-30T12:27:16Z</time>
      </trkpt>
      <trkpt lat="47.88175" lon="-3.52455">
        <ele>6</ele>
        <time>2018-05-30T12:27:30Z</time>
      </trkpt>
      <trkpt lat="47.88178" lon="-3.52447">
        <ele>5.44</ele>
        <time>2018-05-30T12:27:34Z</time>
      </trkpt>
      <trkpt lat="47.88181" lon="-3.52438">
        <ele>4.03</ele>
        <time>2018-05-30T12:27:40Z</time>
      </trkpt>
      <trkpt lat="47.88186" lon="-3.52424">
        <ele>1.94</ele>
        <time>2018-05-30T12:27:48Z</time>
      </trkpt>
      <trkpt lat="47.88197" lon="-3.52401">
        <ele>-0.3</ele>
        <time>2018-05-30T12:27:56Z</time>
      </trkpt>
      <trkpt lat="47.88203" lon="-3.52387">
        <ele>-1.83</ele>
        <time>2018-05-30T12:28:01Z</time>
      </trkpt>
      <trkpt lat="47.8822" lon="-3.52366">
        <ele>-3.6</ele>
        <time>2018-05-30T12:28:13Z</time>
      </trkpt>
      <trkpt lat="47.88225" lon="-3.5236">
        <ele>-3.79</ele>
        <time>2018-05-30T12:28:17Z</time>
      </trkpt>
      <trkpt lat="47.88248" lon="-3.52345">
        <ele>-3.84</ele>
        <time>2018-05-30T12:28:32Z</time>
      </trkpt>
      <trkpt lat="47.8825" lon="-3.52345">
        <ele>-3.83</ele>
        <time>2018-05-30T12:28:33Z</time>
      </trkpt>
      <trkpt lat="47.8827" lon="-3.5234">
        <ele>-3.24</ele>
        <time>2018-05-30T12:28:48Z</time>
      </trkpt>
      <trkpt lat="47.88278" lon="-3.52335">
        <ele>-3.31</ele>
        <time>2018-05-30T12:28:53Z</time>
      </trkpt>
      <trkpt lat="47.88298" lon="-3.52323">
        <ele>-3.38</ele>
        <time>2018-05-30T12:29:07Z</time>
      </trkpt>
      <trkpt lat="47.88311" lon="-3.52299">
        <ele>-3.19</ele>
        <time>2018-05-30T12:29:19Z</time>
      </trkpt>
      <trkpt lat="47.88313" lon="-3.52299">
        <ele>-3.11</ele>
        <time>2018-05-30T12:29:21Z</time>
      </trkpt>
      <trkpt lat="47.88323" lon="-3.5229">
        <ele>-2.91</ele>
        <time>2018-05-30T12:29:26Z</time>
      </trkpt>
      <trkpt lat="47.88353" lon="-3.52278">
        <ele>-2.82</ele>
        <time>2018-05-30T12:29:42Z</time>
      </trkpt>
      <trkpt lat="47.88374" lon="-3.52273">
        <ele>-2.88</ele>
        <time>2018-05-30T12:29:54Z</time>
      </trkpt>
      <trkpt lat="47.88392" lon="-3.52277">
        <ele>-3.34</ele>
        <time>2018-05-30T12:30:04Z</time>
      </trkpt>
      <trkpt lat="47.88402" lon="-3.52279">
        <ele>-3.6</ele>
        <time>2018-05-30T12:30:17Z</time>
      </trkpt>
      <trkpt lat="47.88403" lon="-3.52281">
        <ele>-3.37</ele>
        <time>2018-05-30T12:30:24Z</time>
      </trkpt>
      <trkpt lat="47.88412" lon="-3.52288">
        <ele>-3.55</ele>
        <time>2018-05-30T12:30:44Z</time>
      </trkpt>
      <trkpt lat="47.88417" lon="-3.523">
        <ele>-2.82</ele>
        <time>2018-05-30T12:31:04Z</time>
      </trkpt>
      <trkpt lat="47.88418" lon="-3.52302">
        <ele>-1.39</ele>
        <time>2018-05-30T12:31:32Z</time>
      </trkpt>
      <trkpt lat="47.88415" lon="-3.52299">
        <ele>-1.27</ele>
        <time>2018-05-30T12:31:42Z</time>
      </trkpt>
      <trkpt lat="47.8841" lon="-3.52311">
        <ele>-1.18</ele>
        <time>2018-05-30T12:32:16Z</time>
      </trkpt>
      <trkpt lat="47.88411" lon="-3.52316">
        <ele>-1.23</ele>
        <time>2018-05-30T12:32:20Z</time>
      </trkpt>
      <trkpt lat="47.88411" lon="-3.52319">
        <ele>-1.2</ele>
        <time>2018-05-30T12:32:22Z</time>
      </trkpt>
      <trkpt lat="47.88421" lon="-3.52326">
        <ele>0.81</ele>
        <time>2018-05-30T12:32:40Z</time>
      </trkpt>
      <trkpt lat="47.88423" lon="-3.52326">
        <ele>1.05</ele>
        <time>2018-05-30T12:32:42Z</time>
      </trkpt>
      <trkpt lat="47.88429" lon="-3.52332">
        <ele>1.86</ele>
        <time>2018-05-30T12:32:56Z</time>
      </trkpt>
      <trkpt lat="47.88436" lon="-3.52341">
        <ele>3.51</ele>
        <time>2018-05-30T12:33:14Z</time>
      </trkpt>
      <trkpt lat="47.8844" lon="-3.52357">
        <ele>6.7</ele>
        <time>2018-05-30T12:33:30Z</time>
      </trkpt>
      <trkpt lat="47.88444" lon="-3.52366">
        <ele>9.82</ele>
        <time>2018-05-30T12:33:42Z</time>
      </trkpt>
      <trkpt lat="47.88448" lon="-3.52367">
        <ele>11.85</ele>
        <time>2018-05-30T12:33:47Z</time>
      </trkpt>
      <trkpt lat="47.88459" lon="-3.52362">
        <ele>15.52</ele>
        <time>2018-05-30T12:33:58Z</time>
      </trkpt>
      <trkpt lat="47.88465" lon="-3.52356">
        <ele>16.73</ele>
        <time>2018-05-30T12:34:14Z</time>
      </trkpt>
      <trkpt lat="47.88468" lon="-3.52357">
        <ele>16.58</ele>
        <time>2018-05-30T12:34:18Z</time>
      </trkpt>
      <trkpt lat="47.88472" lon="-3.52357">
        <ele>15.89</ele>
        <time>2018-05-30T12:34:26Z</time>
      </trkpt>
      <trkpt lat="47.88474" lon="-3.52357">
        <ele>15.91</ele>
        <time>2018-05-30T12:34:30Z</time>
      </trkpt>
      <trkpt lat="47.88481" lon="-3.5236">
        <ele>15.6</ele>
        <time>2018-05-30T12:34:51Z</time>
      </trkpt>
      <trkpt lat="47.88489" lon="-3.52368">
        <ele>14.64</ele>
        <time>2018-05-30T12:35:18Z</time>
      </trkpt>
      <trkpt lat="47.88496" lon="-3.52372">
        <ele>17.21</ele>
        <time>2018-05-30T12:35:38Z</time>
      </trkpt>
      <trkpt lat="47.88502" lon="-3.52372">
        <ele>17.07</ele>
        <time>2018-05-30T12:35:40Z</time>
      </trkpt>
      <trkpt lat="47.88516" lon="-3.52366">
        <ele>14.71</ele>
        <time>2018-05-30T12:36:08Z</time>
      </trkpt>
      <trkpt lat="47.88521" lon="-3.52357">
        <ele>11.67</ele>
        <time>2018-05-30T12:36:18Z</time>
      </trkpt>
      <trkpt lat="47.8853" lon="-3.52348">
        <ele>8.48</ele>
        <time>2018-05-30T12:36:29Z</time>
      </trkpt>
      <trkpt lat="47.88536" lon="-3.5233">
        <ele>5.32</ele>
        <time>2018-05-30T12:36:41Z</time>
      </trkpt>
      <trkpt lat="47.88544" lon="-3.52314">
        <ele>3.03</ele>
        <time>2018-05-30T12:36:51Z</time>
      </trkpt>
      <trkpt lat="47.88548" lon="-3.52289">
        <ele>-0.3</ele>
        <time>2018-05-30T12:37:06Z</time>
      </trkpt>
      <trkpt lat="47.88558" lon="-3.5225">
        <ele>-0.82</ele>
        <time>2018-05-30T12:37:24Z</time>
      </trkpt>
      <trkpt lat="47.88558" lon="-3.52239">
        <ele>-1.27</ele>
        <time>2018-05-30T12:37:30Z</time>
      </trkpt>
      <trkpt lat="47.88562" lon="-3.52229">
        <ele>-1.23</ele>
        <time>2018-05-30T12:37:37Z</time>
      </trkpt>
      <trkpt lat="47.8856" lon="-3.5221">
        <ele>-1.37</ele>
        <time>2018-05-30T12:37:57Z</time>
      </trkpt>
      <trkpt lat="47.88559" lon="-3.52204">
        <ele>-1.73</ele>
        <time>2018-05-30T12:38:03Z</time>
      </trkpt>
      <trkpt lat="47.88555" lon="-3.52196">
        <ele>-2.19</ele>
        <time>2018-05-30T12:38:08Z</time>
      </trkpt>
      <trkpt lat="47.88557" lon="-3.52183">
        <ele>-1.07</ele>
        <time>2018-05-30T12:38:24Z</time>
      </trkpt>
      <trkpt lat="47.88562" lon="-3.52167">
        <ele>-0.06</ele>
        <time>2018-05-30T12:38:44Z</time>
      </trkpt>
      <trkpt lat="47.88557" lon="-3.52152">
        <ele>0.33</ele>
        <time>2018-05-30T12:38:57Z</time>
      </trkpt>
      <trkpt lat="47.88549" lon="-3.52128">
        <ele>0.59</ele>
        <time>2018-05-30T12:39:13Z</time>
      </trkpt>
      <trkpt lat="47.8854" lon="-3.52103">
        <ele>1.85</ele>
        <time>2018-05-30T12:39:25Z</time>
      </trkpt>
      <trkpt lat="47.88524" lon="-3.5206">
        <ele>2.87</ele>
        <time>2018-05-30T12:39:44Z</time>
      </trkpt>
      <trkpt lat="47.88507" lon="-3.52049">
        <ele>1.89</ele>
        <time>2018-05-30T12:39:57Z</time>
      </trkpt>
      <trkpt lat="47.88494" lon="-3.52042">
        <ele>0.66</ele>
        <time>2018-05-30T12:40:07Z</time>
      </trkpt>
      <trkpt lat="47.88486" lon="-3.5203">
        <ele>0.48</ele>
        <time>2018-05-30T12:40:14Z</time>
      </trkpt>
      <trkpt lat="47.88483" lon="-3.52027">
        <ele>0.47</ele>
        <time>2018-05-30T12:40:16Z</time>
      </trkpt>
      <trkpt lat="47.88456" lon="-3.52001">
        <ele>-1.31</ele>
        <time>2018-05-30T12:40:34Z</time>
      </trkpt>
      <trkpt lat="47.88448" lon="-3.5199">
        <ele>-1.24</ele>
        <time>2018-05-30T12:40:40Z</time>
      </trkpt>
      <trkpt lat="47.88446" lon="-3.51987">
        <ele>-1.29</ele>
        <time>2018-05-30T12:40:42Z</time>
      </trkpt>
      <trkpt lat="47.88435" lon="-3.51969">
        <ele>-1.32</ele>
        <time>2018-05-30T12:40:53Z</time>
      </trkpt>
      <trkpt lat="47.88426" lon="-3.51953">
        <ele>-1.49</ele>
        <time>2018-05-30T12:41:01Z</time>
      </trkpt>
      <trkpt lat="47.88413" lon="-3.51909">
        <ele>-1.36</ele>
        <time>2018-05-30T12:41:23Z</time>
      </trkpt>
      <trkpt lat="47.88394" lon="-3.51868">
        <ele>-0.97</ele>
        <time>2018-05-30T12:41:40Z</time>
      </trkpt>
      <trkpt lat="47.8839" lon="-3.51862">
        <ele>-0.83</ele>
        <time>2018-05-30T12:41:43Z</time>
      </trkpt>
      <trkpt lat="47.88388" lon="-3.51857">
        <ele>-0.76</ele>
        <time>2018-05-30T12:41:46Z</time>
      </trkpt>
      <trkpt lat="47.88377" lon="-3.51837">
        <ele>-0.64</ele>
        <time>2018-05-30T12:41:59Z</time>
      </trkpt>
      <trkpt lat="47.88364" lon="-3.518">
        <ele>-0.13</ele>
        <time>2018-05-30T12:42:19Z</time>
      </trkpt>
      <trkpt lat="47.88349" lon="-3.51754">
        <ele>-0.99</ele>
        <time>2018-05-30T12:42:38Z</time>
      </trkpt>
      <trkpt lat="47.88348" lon="-3.5174">
        <ele>-1.38</ele>
        <time>2018-05-30T12:42:44Z</time>
      </trkpt>
      <trkpt lat="47.88344" lon="-3.51707">
        <ele>-1.29</ele>
        <time>2018-05-30T12:42:58Z</time>
      </trkpt>
      <trkpt lat="47.88341" lon="-3.51691">
        <ele>-1.28</ele>
        <time>2018-05-30T12:43:04Z</time>
      </trkpt>
      <trkpt lat="47.88343" lon="-3.51678">
        <ele>-1.36</ele>
        <time>2018-05-30T12:43:11Z</time>
      </trkpt>
      <trkpt lat="47.88345" lon="-3.51672">
        <ele>-1.28</ele>
        <time>2018-05-30T12:43:14Z</time>
      </trkpt>
      <trkpt lat="47.88348" lon="-3.51667">
        <ele>-0.89</ele>
        <time>2018-05-30T12:43:18Z</time>
      </trkpt>
      <trkpt lat="47.8835" lon="-3.51653">
        <ele>-0.56</ele>
        <time>2018-05-30T12:43:22Z</time>
      </trkpt>
      <trkpt lat="47.88354" lon="-3.51634">
        <ele>0.31</ele>
        <time>2018-05-30T12:43:29Z</time>
      </trkpt>
      <trkpt lat="47.88353" lon="-3.51613">
        <ele>0.88</ele>
        <time>2018-05-30T12:43:35Z</time>
      </trkpt>
      <trkpt lat="47.88351" lon="-3.51587">
        <ele>-0.6</ele>
        <time>2018-05-30T12:43:46Z</time>
      </trkpt>
      <trkpt lat="47.88352" lon="-3.51579">
        <ele>-0.99</ele>
        <time>2018-05-30T12:43:50Z</time>
      </trkpt>
      <trkpt lat="47.88353" lon="-3.51569">
        <ele>-1.11</ele>
        <time>2018-05-30T12:43:54Z</time>
      </trkpt>
      <trkpt lat="47.88359" lon="-3.51545">
        <ele>-1.33</ele>
        <time>2018-05-30T12:44:06Z</time>
      </trkpt>
      <trkpt lat="47.88363" lon="-3.51513">
        <ele>-1.39</ele>
        <time>2018-05-30T12:44:21Z</time>
      </trkpt>
      <trkpt lat="47.88366" lon="-3.51496">
        <ele>-1.49</ele>
        <time>2018-05-30T12:44:27Z</time>
      </trkpt>
      <trkpt lat="47.88372" lon="-3.51477">
        <ele>-1.37</ele>
        <time>2018-05-30T12:44:37Z</time>
      </trkpt>
      <trkpt lat="47.88376" lon="-3.51467">
        <ele>-1.36</ele>
        <time>2018-05-30T12:44:41Z</time>
      </trkpt>
      <trkpt lat="47.8838" lon="-3.51449">
        <ele>-1.17</ele>
        <time>2018-05-30T12:44:49Z</time>
      </trkpt>
      <trkpt lat="47.88383" lon="-3.51441">
        <ele>-1.21</ele>
        <time>2018-05-30T12:44:53Z</time>
      </trkpt>
      <trkpt lat="47.88385" lon="-3.51431">
        <ele>-1.19</ele>
        <time>2018-05-30T12:44:57Z</time>
      </trkpt>
      <trkpt lat="47.88387" lon="-3.51426">
        <ele>-1.2</ele>
        <time>2018-05-30T12:45:00Z</time>
      </trkpt>
      <trkpt lat="47.88388" lon="-3.51416">
        <ele>-1.27</ele>
        <time>2018-05-30T12:45:03Z</time>
      </trkpt>
      <trkpt lat="47.88391" lon="-3.51399">
        <ele>-1.29</ele>
        <time>2018-05-30T12:45:07Z</time>
      </trkpt>
      <trkpt lat="47.88394" lon="-3.51359">
        <ele>-1.44</ele>
        <time>2018-05-30T12:45:19Z</time>
      </trkpt>
      <trkpt lat="47.88399" lon="-3.51339">
        <ele>-1.99</ele>
        <time>2018-05-30T12:45:33Z</time>
      </trkpt>
      <trkpt lat="47.88406" lon="-3.51304">
        <ele>-2.34</ele>
        <time>2018-05-30T12:45:54Z</time>
      </trkpt>
      <trkpt lat="47.88426" lon="-3.51287">
        <ele>-1.34</ele>
        <time>2018-05-30T12:46:12Z</time>
      </trkpt>
      <trkpt lat="47.88432" lon="-3.5127">
        <ele>-0.31</ele>
        <time>2018-05-30T12:46:23Z</time>
      </trkpt>
      <trkpt lat="47.88433" lon="-3.51269">
        <ele>-0.27</ele>
        <time>2018-05-30T12:46:24Z</time>
      </trkpt>
      <trkpt lat="47.88436" lon="-3.51261">
        <ele>-0.38</ele>
        <time>2018-05-30T12:46:28Z</time>
      </trkpt>
      <trkpt lat="47.88445" lon="-3.51232">
        <ele>-0.11</ele>
        <time>2018-05-30T12:46:42Z</time>
      </trkpt>
      <trkpt lat="47.88465" lon="-3.51192">
        <ele>0.51</ele>
        <time>2018-05-30T12:47:02Z</time>
      </trkpt>
      <trkpt lat="47.8847" lon="-3.5118">
        <ele>0.02</ele>
        <time>2018-05-30T12:47:08Z</time>
      </trkpt>
      <trkpt lat="47.88477" lon="-3.5116">
        <ele>-0.76</ele>
        <time>2018-05-30T12:47:20Z</time>
      </trkpt>
      <trkpt lat="47.88478" lon="-3.51159">
        <ele>-0.78</ele>
        <time>2018-05-30T12:47:21Z</time>
      </trkpt>
      <trkpt lat="47.88484" lon="-3.51149">
        <ele>-0.89</ele>
        <time>2018-05-30T12:47:27Z</time>
      </trkpt>
      <trkpt lat="47.88486" lon="-3.51142">
        <ele>-0.96</ele>
        <time>2018-05-30T12:47:31Z</time>
      </trkpt>
      <trkpt lat="47.88501" lon="-3.51092">
        <ele>-1.76</ele>
        <time>2018-05-30T12:47:54Z</time>
      </trkpt>
      <trkpt lat="47.88503" lon="-3.51087">
        <ele>-1.81</ele>
        <time>2018-05-30T12:47:55Z</time>
      </trkpt>
      <trkpt lat="47.88502" lon="-3.51068">
        <ele>-2.09</ele>
        <time>2018-05-30T12:48:02Z</time>
      </trkpt>
      <trkpt lat="47.885" lon="-3.51056">
        <ele>-2.17</ele>
        <time>2018-05-30T12:48:07Z</time>
      </trkpt>
      <trkpt lat="47.88504" lon="-3.51025">
        <ele>-1.33</ele>
        <time>2018-05-30T12:48:25Z</time>
      </trkpt>
      <trkpt lat="47.88514" lon="-3.50996">
        <ele>-0.72</ele>
        <time>2018-05-30T12:48:41Z</time>
      </trkpt>
      <trkpt lat="47.88512" lon="-3.50986">
        <ele>-0.62</ele>
        <time>2018-05-30T12:48:46Z</time>
      </trkpt>
      <trkpt lat="47.88512" lon="-3.50981">
        <ele>-0.78</ele>
        <time>2018-05-30T12:48:49Z</time>
      </trkpt>
      <trkpt lat="47.8851" lon="-3.50949">
        <ele>-1.42</ele>
        <time>2018-05-30T12:49:05Z</time>
      </trkpt>
      <trkpt lat="47.88508" lon="-3.50947">
        <ele>-1.38</ele>
        <time>2018-05-30T12:49:06Z</time>
      </trkpt>
      <trkpt lat="47.88505" lon="-3.50935">
        <ele>-1.32</ele>
        <time>2018-05-30T12:49:11Z</time>
      </trkpt>
      <trkpt lat="47.88499" lon="-3.50898">
        <ele>-1.35</ele>
        <time>2018-05-30T12:49:28Z</time>
      </trkpt>
      <trkpt lat="47.88488" lon="-3.5085">
        <ele>0.05</ele>
        <time>2018-05-30T12:49:48Z</time>
      </trkpt>
      <trkpt lat="47.88485" lon="-3.50844">
        <ele>0.98</ele>
        <time>2018-05-30T12:49:52Z</time>
      </trkpt>
      <trkpt lat="47.88481" lon="-3.50836">
        <ele>1.39</ele>
        <time>2018-05-30T12:49:59Z</time>
      </trkpt>
      <trkpt lat="47.88473" lon="-3.50801">
        <ele>1.19</ele>
        <time>2018-05-30T12:50:15Z</time>
      </trkpt>
      <trkpt lat="47.88468" lon="-3.50775">
        <ele>2.08</ele>
        <time>2018-05-30T12:50:30Z</time>
      </trkpt>
      <trkpt lat="47.88462" lon="-3.50753">
        <ele>3.44</ele>
        <time>2018-05-30T12:50:40Z</time>
      </trkpt>
      <trkpt lat="47.88458" lon="-3.50726">
        <ele>4.08</ele>
        <time>2018-05-30T12:50:52Z</time>
      </trkpt>
      <trkpt lat="47.8845" lon="-3.50687">
        <ele>4.02</ele>
        <time>2018-05-30T12:51:10Z</time>
      </trkpt>
      <trkpt lat="47.88449" lon="-3.5068">
        <ele>4.04</ele>
        <time>2018-05-30T12:51:13Z</time>
      </trkpt>
      <trkpt lat="47.88442" lon="-3.50658">
        <ele>3.53</ele>
        <time>2018-05-30T12:51:25Z</time>
      </trkpt>
      <trkpt lat="47.88438" lon="-3.50647">
        <ele>4.4</ele>
        <time>2018-05-30T12:51:37Z</time>
      </trkpt>
      <trkpt lat="47.88439" lon="-3.50643">
        <ele>4.63</ele>
        <time>2018-05-30T12:51:41Z</time>
      </trkpt>
      <trkpt lat="47.88442" lon="-3.50618">
        <ele>7.66</ele>
        <time>2018-05-30T12:51:57Z</time>
      </trkpt>
      <trkpt lat="47.88437" lon="-3.50614">
        <ele>6.52</ele>
        <time>2018-05-30T12:52:05Z</time>
      </trkpt>
      <trkpt lat="47.88436" lon="-3.50592">
        <ele>4.98</ele>
        <time>2018-05-30T12:52:30Z</time>
      </trkpt>
      <trkpt lat="47.88435" lon="-3.50589">
        <ele>5.15</ele>
        <time>2018-05-30T12:52:56Z</time>
      </trkpt>
      <trkpt lat="47.88436" lon="-3.5058">
        <ele>5.26</ele>
        <time>2018-05-30T12:53:23Z</time>
      </trkpt>
      <trkpt lat="47.88433" lon="-3.50576">
        <ele>5.83</ele>
        <time>2018-05-30T12:53:48Z</time>
      </trkpt>
      <trkpt lat="47.88433" lon="-3.50572">
        <ele>6.48</ele>
        <time>2018-05-30T12:54:09Z</time>
      </trkpt>
      <trkpt lat="47.8843" lon="-3.50572">
        <ele>6.46</ele>
        <time>2018-05-30T12:54:35Z</time>
      </trkpt>
      <trkpt lat="47.88431" lon="-3.50576">
        <ele>6.41</ele>
        <time>2018-05-30T12:54:58Z</time>
      </trkpt>
      <trkpt lat="47.88431" lon="-3.50573">
        <ele>6.57</ele>
        <time>2018-05-30T12:55:13Z</time>
      </trkpt>
      <trkpt lat="47.88429" lon="-3.50561">
        <ele>7.12</ele>
        <time>2018-05-30T12:55:37Z</time>
      </trkpt>
      <trkpt lat="47.88424" lon="-3.50548">
        <ele>7.99</ele>
        <time>2018-05-30T12:55:51Z</time>
      </trkpt>
      <trkpt lat="47.88415" lon="-3.50538">
        <ele>5.96</ele>
        <time>2018-05-30T12:56:03Z</time>
      </trkpt>
      <trkpt lat="47.88403" lon="-3.50522">
        <ele>2.72</ele>
        <time>2018-05-30T12:56:14Z</time>
      </trkpt>
      <trkpt lat="47.88402" lon="-3.50512">
        <ele>1.39</ele>
        <time>2018-05-30T12:56:21Z</time>
      </trkpt>
      <trkpt lat="47.88401" lon="-3.50507">
        <ele>1.34</ele>
        <time>2018-05-30T12:56:27Z</time>
      </trkpt>
      <trkpt lat="47.88399" lon="-3.50503">
        <ele>1.51</ele>
        <time>2018-05-30T12:56:31Z</time>
      </trkpt>
      <trkpt lat="47.88397" lon="-3.50468">
        <ele>1.67</ele>
        <time>2018-05-30T12:56:51Z</time>
      </trkpt>
      <trkpt lat="47.88394" lon="-3.5045">
        <ele>2.18</ele>
        <time>2018-05-30T12:56:56Z</time>
      </trkpt>
      <trkpt lat="47.88397" lon="-3.50412">
        <ele>2.07</ele>
        <time>2018-05-30T12:57:12Z</time>
      </trkpt>
      <trkpt lat="47.88406" lon="-3.50385">
        <ele>2.29</ele>
        <time>2018-05-30T12:57:26Z</time>
      </trkpt>
      <trkpt lat="47.8841" lon="-3.5036">
        <ele>2.09</ele>
        <time>2018-05-30T12:57:39Z</time>
      </trkpt>
      <trkpt lat="47.88414" lon="-3.50347">
        <ele>2.33</ele>
        <time>2018-05-30T12:57:45Z</time>
      </trkpt>
      <trkpt lat="47.88433" lon="-3.50311">
        <ele>2.19</ele>
        <time>2018-05-30T12:58:06Z</time>
      </trkpt>
      <trkpt lat="47.88455" lon="-3.50282">
        <ele>2.39</ele>
        <time>2018-05-30T12:58:27Z</time>
      </trkpt>
      <trkpt lat="47.88477" lon="-3.50266">
        <ele>5.55</ele>
        <time>2018-05-30T12:58:44Z</time>
      </trkpt>
      <trkpt lat="47.88493" lon="-3.50252">
        <ele>8.62</ele>
        <time>2018-05-30T12:59:00Z</time>
      </trkpt>
      <trkpt lat="47.8851" lon="-3.50239">
        <ele>11.91</ele>
        <time>2018-05-30T12:59:13Z</time>
      </trkpt>
      <trkpt lat="47.88525" lon="-3.50229">
        <ele>15.15</ele>
        <time>2018-05-30T12:59:26Z</time>
      </trkpt>
      <trkpt lat="47.88543" lon="-3.50217">
        <ele>18.15</ele>
        <time>2018-05-30T12:59:38Z</time>
      </trkpt>
      <trkpt lat="47.88564" lon="-3.50206">
        <ele>21.24</ele>
        <time>2018-05-30T12:59:54Z</time>
      </trkpt>
      <trkpt lat="47.88591" lon="-3.50194">
        <ele>24.36</ele>
        <time>2018-05-30T13:00:13Z</time>
      </trkpt>
      <trkpt lat="47.88596" lon="-3.5019">
        <ele>25.23</ele>
        <time>2018-05-30T13:00:17Z</time>
      </trkpt>
      <trkpt lat="47.88601" lon="-3.50187">
        <ele>26.29</ele>
        <time>2018-05-30T13:00:21Z</time>
      </trkpt>
      <trkpt lat="47.88621" lon="-3.50176">
        <ele>29.59</ele>
        <time>2018-05-30T13:00:35Z</time>
      </trkpt>
      <trkpt lat="47.88635" lon="-3.50168">
        <ele>32.62</ele>
        <time>2018-05-30T13:00:48Z</time>
      </trkpt>
      <trkpt lat="47.88663" lon="-3.5015">
        <ele>35.64</ele>
        <time>2018-05-30T13:01:07Z</time>
      </trkpt>
      <trkpt lat="47.88688" lon="-3.50144">
        <ele>38.64</ele>
        <time>2018-05-30T13:01:25Z</time>
      </trkpt>
      <trkpt lat="47.887" lon="-3.50139">
        <ele>39.67</ele>
        <time>2018-05-30T13:01:36Z</time>
      </trkpt>
      <trkpt lat="47.8873" lon="-3.50131">
        <ele>41.85</ele>
        <time>2018-05-30T13:01:54Z</time>
      </trkpt>
      <trkpt lat="47.88762" lon="-3.50152">
        <ele>44.49</ele>
        <time>2018-05-30T13:02:13Z</time>
      </trkpt>
      <trkpt lat="47.88777" lon="-3.50163">
        <ele>45.18</ele>
        <time>2018-05-30T13:02:20Z</time>
      </trkpt>
      <trkpt lat="47.88786" lon="-3.50168">
        <ele>45.3</ele>
        <time>2018-05-30T13:02:25Z</time>
      </trkpt>
      <trkpt lat="47.8879" lon="-3.50169">
        <ele>45.3</ele>
        <time>2018-05-30T13:02:28Z</time>
      </trkpt>
      <trkpt lat="47.88809" lon="-3.50188">
        <ele>44.69</ele>
        <time>2018-05-30T13:02:46Z</time>
      </trkpt>
      <trkpt lat="47.88812" lon="-3.502">
        <ele>43.17</ele>
        <time>2018-05-30T13:02:53Z</time>
      </trkpt>
      <trkpt lat="47.88815" lon="-3.50221">
        <ele>41.31</ele>
        <time>2018-05-30T13:03:04Z</time>
      </trkpt>
      <trkpt lat="47.8882" lon="-3.50236">
        <ele>40.45</ele>
        <time>2018-05-30T13:03:10Z</time>
      </trkpt>
      <trkpt lat="47.88826" lon="-3.50246">
        <ele>39.69</ele>
        <time>2018-05-30T13:03:14Z</time>
      </trkpt>
      <trkpt lat="47.88832" lon="-3.50256">
        <ele>38.51</ele>
        <time>2018-05-30T13:03:20Z</time>
      </trkpt>
      <trkpt lat="47.88842" lon="-3.50274">
        <ele>35.28</ele>
        <time>2018-05-30T13:03:31Z</time>
      </trkpt>
      <trkpt lat="47.88848" lon="-3.50291">
        <ele>33.97</ele>
        <time>2018-05-30T13:03:40Z</time>
      </trkpt>
      <trkpt lat="47.88851" lon="-3.50301">
        <ele>33.87</ele>
        <time>2018-05-30T13:03:44Z</time>
      </trkpt>
      <trkpt lat="47.88852" lon="-3.50307">
        <ele>34.06</ele>
        <time>2018-05-30T13:03:47Z</time>
      </trkpt>
      <trkpt lat="47.88854" lon="-3.50314">
        <ele>34.56</ele>
        <time>2018-05-30T13:03:52Z</time>
      </trkpt>
      <trkpt lat="47.88853" lon="-3.50348">
        <ele>34.8</ele>
        <time>2018-05-30T13:04:06Z</time>
      </trkpt>
      <trkpt lat="47.88852" lon="-3.50351">
        <ele>34.97</ele>
        <time>2018-05-30T13:04:07Z</time>
      </trkpt>
      <trkpt lat="47.88849" lon="-3.50363">
        <ele>35.75</ele>
        <time>2018-05-30T13:04:10Z</time>
      </trkpt>
      <trkpt lat="47.88843" lon="-3.50385">
        <ele>38.01</ele>
        <time>2018-05-30T13:04:16Z</time>
      </trkpt>
      <trkpt lat="47.88833" lon="-3.50395">
        <ele>41.75</ele>
        <time>2018-05-30T13:04:27Z</time>
      </trkpt>
      <trkpt lat="47.88818" lon="-3.50391">
        <ele>44.86</ele>
        <time>2018-05-30T13:04:38Z</time>
      </trkpt>
      <trkpt lat="47.88814" lon="-3.50396">
        <ele>45.31</ele>
        <time>2018-05-30T13:04:41Z</time>
      </trkpt>
      <trkpt lat="47.88787" lon="-3.50413">
        <ele>47.63</ele>
        <time>2018-05-30T13:05:01Z</time>
      </trkpt>
      <trkpt lat="47.8878" lon="-3.50419">
        <ele>48.23</ele>
        <time>2018-05-30T13:05:08Z</time>
      </trkpt>
      <trkpt lat="47.88781" lon="-3.50437">
        <ele>48.58</ele>
        <time>2018-05-30T13:05:18Z</time>
      </trkpt>
      <trkpt lat="47.88785" lon="-3.50456">
        <ele>48.82</ele>
        <time>2018-05-30T13:05:29Z</time>
      </trkpt>
      <trkpt lat="47.88791" lon="-3.50482">
        <ele>48.41</ele>
        <time>2018-05-30T13:05:42Z</time>
      </trkpt>
      <trkpt lat="47.88793" lon="-3.50485">
        <ele>48.34</ele>
        <time>2018-05-30T13:05:44Z</time>
      </trkpt>
      <trkpt lat="47.88795" lon="-3.50502">
        <ele>47.2</ele>
        <time>2018-05-30T13:05:56Z</time>
      </trkpt>
      <trkpt lat="47.88803" lon="-3.50558">
        <ele>44.76</ele>
        <time>2018-05-30T13:06:15Z</time>
      </trkpt>
      <trkpt lat="47.88806" lon="-3.5058">
        <ele>44.29</ele>
        <time>2018-05-30T13:06:22Z</time>
      </trkpt>
      <trkpt lat="47.88811" lon="-3.50605">
        <ele>43.87</ele>
        <time>2018-05-30T13:06:32Z</time>
      </trkpt>
      <trkpt lat="47.88815" lon="-3.50614">
        <ele>43.7</ele>
        <time>2018-05-30T13:06:37Z</time>
      </trkpt>
      <trkpt lat="47.88828" lon="-3.50633">
        <ele>43.8</ele>
        <time>2018-05-30T13:06:48Z</time>
      </trkpt>
      <trkpt lat="47.88835" lon="-3.50639">
        <ele>43.87</ele>
        <time>2018-05-30T13:06:52Z</time>
      </trkpt>
      <trkpt lat="47.88849" lon="-3.50642">
        <ele>43.78</ele>
        <time>2018-05-30T13:07:01Z</time>
      </trkpt>
      <trkpt lat="47.88872" lon="-3.50644">
        <ele>44.15</ele>
        <time>2018-05-30T13:07:14Z</time>
      </trkpt>
      <trkpt lat="47.88889" lon="-3.50642">
        <ele>45.35</ele>
        <time>2018-05-30T13:07:25Z</time>
      </trkpt>
      <trkpt lat="47.88891" lon="-3.50642">
        <ele>45.46</ele>
        <time>2018-05-30T13:07:26Z</time>
      </trkpt>
      <trkpt lat="47.88893" lon="-3.50642">
        <ele>45.57</ele>
        <time>2018-05-30T13:07:27Z</time>
      </trkpt>
      <trkpt lat="47.88894" lon="-3.50642">
        <ele>45.66</ele>
        <time>2018-05-30T13:07:28Z</time>
      </trkpt>
      <trkpt lat="47.88896" lon="-3.50642">
        <ele>45.73</ele>
        <time>2018-05-30T13:07:29Z</time>
      </trkpt>
      <trkpt lat="47.88898" lon="-3.50641">
        <ele>45.8</ele>
        <time>2018-05-30T13:07:30Z</time>
      </trkpt>
      <trkpt lat="47.88899" lon="-3.50641">
        <ele>45.87</ele>
        <time>2018-05-30T13:07:31Z</time>
      </trkpt>
      <trkpt lat="47.889" lon="-3.5064">
        <ele>45.99</ele>
        <time>2018-05-30T13:07:32Z</time>
      </trkpt>
      <trkpt lat="47.88902" lon="-3.5064">
        <ele>46.06</ele>
        <time>2018-05-30T13:07:33Z</time>
      </trkpt>
      <trkpt lat="47.88923" lon="-3.50637">
        <ele>47.48</ele>
        <time>2018-05-30T13:07:46Z</time>
      </trkpt>
      <trkpt lat="47.88925" lon="-3.50637">
        <ele>47.58</ele>
        <time>2018-05-30T13:07:47Z</time>
      </trkpt>
      <trkpt lat="47.88927" lon="-3.50637">
        <ele>47.67</ele>
        <time>2018-05-30T13:07:48Z</time>
      </trkpt>
      <trkpt lat="47.88928" lon="-3.50638">
        <ele>47.73</ele>
        <time>2018-05-30T13:07:49Z</time>
      </trkpt>
      <trkpt lat="47.8893" lon="-3.50638">
        <ele>47.79</ele>
        <time>2018-05-30T13:07:50Z</time>
      </trkpt>
      <trkpt lat="47.88955" lon="-3.50636">
        <ele>48.89</ele>
        <time>2018-05-30T13:08:05Z</time>
      </trkpt>
      <trkpt lat="47.88962" lon="-3.50634">
        <ele>49.35</ele>
        <time>2018-05-30T13:08:09Z</time>
      </trkpt>
      <trkpt lat="47.88964" lon="-3.50635">
        <ele>49.48</ele>
        <time>2018-05-30T13:08:10Z</time>
      </trkpt>
      <trkpt lat="47.88991" lon="-3.50634">
        <ele>51.13</ele>
        <time>2018-05-30T13:08:25Z</time>
      </trkpt>
      <trkpt lat="47.89013" lon="-3.5064">
        <ele>52.39</ele>
        <time>2018-05-30T13:08:38Z</time>
      </trkpt>
      <trkpt lat="47.89039" lon="-3.50649">
        <ele>53.35</ele>
        <time>2018-05-30T13:08:52Z</time>
      </trkpt>
      <trkpt lat="47.8904" lon="-3.5065">
        <ele>53.42</ele>
        <time>2018-05-30T13:08:53Z</time>
      </trkpt>
      <trkpt lat="47.89045" lon="-3.50652">
        <ele>53.66</ele>
        <time>2018-05-30T13:08:57Z</time>
      </trkpt>
      <trkpt lat="47.89049" lon="-3.50657">
        <ele>54.13</ele>
        <time>2018-05-30T13:09:03Z</time>
      </trkpt>
      <trkpt lat="47.89052" lon="-3.50652">
        <ele>53.87</ele>
        <time>2018-05-30T13:09:21Z</time>
      </trkpt>
      <trkpt lat="47.89058" lon="-3.50648">
        <ele>53.7</ele>
        <time>2018-05-30T13:09:47Z</time>
      </trkpt>
      <trkpt lat="47.89064" lon="-3.50653">
        <ele>54.29</ele>
        <time>2018-05-30T13:10:08Z</time>
      </trkpt>
      <trkpt lat="47.89067" lon="-3.50653">
        <ele>53.95</ele>
        <time>2018-05-30T13:10:36Z</time>
      </trkpt>
      <trkpt lat="47.89072" lon="-3.50657">
        <ele>54.33</ele>
        <time>2018-05-30T13:10:57Z</time>
      </trkpt>
      <trkpt lat="47.89087" lon="-3.50665">
        <ele>54.64</ele>
        <time>2018-05-30T13:11:17Z</time>
      </trkpt>
      <trkpt lat="47.89097" lon="-3.50669">
        <ele>55.02</ele>
        <time>2018-05-30T13:11:25Z</time>
      </trkpt>
      <trkpt lat="47.89098" lon="-3.50672">
        <ele>55.09</ele>
        <time>2018-05-30T13:11:27Z</time>
      </trkpt>
      <trkpt lat="47.891" lon="-3.50673">
        <ele>55.12</ele>
        <time>2018-05-30T13:11:28Z</time>
      </trkpt>
      <trkpt lat="47.89108" lon="-3.5068">
        <ele>55.49</ele>
        <time>2018-05-30T13:11:36Z</time>
      </trkpt>
      <trkpt lat="47.89109" lon="-3.5068">
        <ele>55.57</ele>
        <time>2018-05-30T13:11:37Z</time>
      </trkpt>
      <trkpt lat="47.89121" lon="-3.50681">
        <ele>56.5</ele>
        <time>2018-05-30T13:11:45Z</time>
      </trkpt>
      <trkpt lat="47.89145" lon="-3.50694">
        <ele>57.88</ele>
        <time>2018-05-30T13:12:01Z</time>
      </trkpt>
      <trkpt lat="47.89168" lon="-3.50709">
        <ele>58.36</ele>
        <time>2018-05-30T13:12:19Z</time>
      </trkpt>
      <trkpt lat="47.89177" lon="-3.50718">
        <ele>57.25</ele>
        <time>2018-05-30T13:12:27Z</time>
      </trkpt>
      <trkpt lat="47.89179" lon="-3.50718">
        <ele>57.14</ele>
        <time>2018-05-30T13:12:28Z</time>
      </trkpt>
      <trkpt lat="47.89182" lon="-3.50721">
        <ele>57.05</ele>
        <time>2018-05-30T13:12:29Z</time>
      </trkpt>
      <trkpt lat="47.89185" lon="-3.50722">
        <ele>56.99</ele>
        <time>2018-05-30T13:12:30Z</time>
      </trkpt>
      <trkpt lat="47.89188" lon="-3.50725">
        <ele>56.93</ele>
        <time>2018-05-30T13:12:31Z</time>
      </trkpt>
      <trkpt lat="47.8919" lon="-3.50726">
        <ele>56.87</ele>
        <time>2018-05-30T13:12:32Z</time>
      </trkpt>
      <trkpt lat="47.89192" lon="-3.50728">
        <ele>56.82</ele>
        <time>2018-05-30T13:12:33Z</time>
      </trkpt>
      <trkpt lat="47.89194" lon="-3.5073">
        <ele>56.78</ele>
        <time>2018-05-30T13:12:34Z</time>
      </trkpt>
      <trkpt lat="47.89198" lon="-3.50731">
        <ele>56.72</ele>
        <time>2018-05-30T13:12:36Z</time>
      </trkpt>
      <trkpt lat="47.892" lon="-3.50732">
        <ele>56.7</ele>
        <time>2018-05-30T13:12:37Z</time>
      </trkpt>
      <trkpt lat="47.89201" lon="-3.50733">
        <ele>56.72</ele>
        <time>2018-05-30T13:12:38Z</time>
      </trkpt>
      <trkpt lat="47.89203" lon="-3.50737">
        <ele>56.77</ele>
        <time>2018-05-30T13:12:39Z</time>
      </trkpt>
      <trkpt lat="47.89209" lon="-3.50739">
        <ele>56.85</ele>
        <time>2018-05-30T13:12:43Z</time>
      </trkpt>
      <trkpt lat="47.8921" lon="-3.5074">
        <ele>56.84</ele>
        <time>2018-05-30T13:12:44Z</time>
      </trkpt>
      <trkpt lat="47.8922" lon="-3.50737">
        <ele>57.19</ele>
        <time>2018-05-30T13:12:53Z</time>
      </trkpt>
      <trkpt lat="47.89246" lon="-3.50748">
        <ele>58.25</ele>
        <time>2018-05-30T13:13:07Z</time>
      </trkpt>
      <trkpt lat="47.89268" lon="-3.50756">
        <ele>58.84</ele>
        <time>2018-05-30T13:13:17Z</time>
      </trkpt>
      <trkpt lat="47.89297" lon="-3.50767">
        <ele>59.49</ele>
        <time>2018-05-30T13:13:35Z</time>
      </trkpt>
      <trkpt lat="47.8932" lon="-3.50776">
        <ele>59.72</ele>
        <time>2018-05-30T13:13:50Z</time>
      </trkpt>
      <trkpt lat="47.8932" lon="-3.50775">
        <ele>59.74</ele>
        <time>2018-05-30T13:13:51Z</time>
      </trkpt>
      <trkpt lat="47.89331" lon="-3.50768">
        <ele>61.21</ele>
        <time>2018-05-30T13:14:02Z</time>
      </trkpt>
      <trkpt lat="47.89355" lon="-3.5077">
        <ele>62.01</ele>
        <time>2018-05-30T13:14:15Z</time>
      </trkpt>
      <trkpt lat="47.89374" lon="-3.50778">
        <ele>62.45</ele>
        <time>2018-05-30T13:14:29Z</time>
      </trkpt>
      <trkpt lat="47.89382" lon="-3.5078">
        <ele>62.56</ele>
        <time>2018-05-30T13:14:33Z</time>
      </trkpt>
      <trkpt lat="47.89395" lon="-3.50787">
        <ele>63.36</ele>
        <time>2018-05-30T13:14:44Z</time>
      </trkpt>
      <trkpt lat="47.89417" lon="-3.50795">
        <ele>64.57</ele>
        <time>2018-05-30T13:14:57Z</time>
      </trkpt>
      <trkpt lat="47.89438" lon="-3.50805">
        <ele>65.53</ele>
        <time>2018-05-30T13:15:11Z</time>
      </trkpt>
      <trkpt lat="47.89456" lon="-3.50812">
        <ele>66.34</ele>
        <time>2018-05-30T13:15:25Z</time>
      </trkpt>
      <trkpt lat="47.89458" lon="-3.50813">
        <ele>66.39</ele>
        <time>2018-05-30T13:15:26Z</time>
      </trkpt>
      <trkpt lat="47.8947" lon="-3.50819">
        <ele>66.95</ele>
        <time>2018-05-30T13:15:34Z</time>
      </trkpt>
      <trkpt lat="47.89487" lon="-3.50824">
        <ele>67.32</ele>
        <time>2018-05-30T13:15:41Z</time>
      </trkpt>
      <trkpt lat="47.89495" lon="-3.50826">
        <ele>67.98</ele>
        <time>2018-05-30T13:15:46Z</time>
      </trkpt>
      <trkpt lat="47.89504" lon="-3.50802">
        <ele>69.14</ele>
        <time>2018-05-30T13:15:59Z</time>
      </trkpt>
      <trkpt lat="47.89504" lon="-3.50791">
        <ele>69.45</ele>
        <time>2018-05-30T13:16:04Z</time>
      </trkpt>
      <trkpt lat="47.89508" lon="-3.50779">
        <ele>70.17</ele>
        <time>2018-05-30T13:16:12Z</time>
      </trkpt>
      <trkpt lat="47.89504" lon="-3.50758">
        <ele>71.29</ele>
        <time>2018-05-30T13:16:27Z</time>
      </trkpt>
      <trkpt lat="47.89503" lon="-3.50751">
        <ele>71.73</ele>
        <time>2018-05-30T13:16:30Z</time>
      </trkpt>
      <trkpt lat="47.89501" lon="-3.50738">
        <ele>72.01</ele>
        <time>2018-05-30T13:16:34Z</time>
      </trkpt>
      <trkpt lat="47.89499" lon="-3.50728">
        <ele>72.28</ele>
        <time>2018-05-30T13:16:39Z</time>
      </trkpt>
      <trkpt lat="47.89497" lon="-3.50711">
        <ele>72.77</ele>
        <time>2018-05-30T13:16:46Z</time>
      </trkpt>
      <trkpt lat="47.89499" lon="-3.50706">
        <ele>73</ele>
        <time>2018-05-30T13:16:49Z</time>
      </trkpt>
      <trkpt lat="47.89506" lon="-3.50696">
        <ele>73.28</ele>
        <time>2018-05-30T13:16:55Z</time>
      </trkpt>
      <trkpt lat="47.89527" lon="-3.50685">
        <ele>74.28</ele>
        <time>2018-05-30T13:17:10Z</time>
      </trkpt>
      <trkpt lat="47.89549" lon="-3.50684">
        <ele>74.77</ele>
        <time>2018-05-30T13:17:23Z</time>
      </trkpt>
      <trkpt lat="47.89563" lon="-3.50691">
        <ele>74.81</ele>
        <time>2018-05-30T13:17:32Z</time>
      </trkpt>
      <trkpt lat="47.89569" lon="-3.50698">
        <ele>74.99</ele>
        <time>2018-05-30T13:17:36Z</time>
      </trkpt>
      <trkpt lat="47.89588" lon="-3.50714">
        <ele>75.28</ele>
        <time>2018-05-30T13:17:49Z</time>
      </trkpt>
      <trkpt lat="47.89609" lon="-3.50734">
        <ele>75.69</ele>
        <time>2018-05-30T13:18:03Z</time>
      </trkpt>
      <trkpt lat="47.89631" lon="-3.50748">
        <ele>75.5</ele>
        <time>2018-05-30T13:18:17Z</time>
      </trkpt>
      <trkpt lat="47.8965" lon="-3.50779">
        <ele>75.61</ele>
        <time>2018-05-30T13:18:36Z</time>
      </trkpt>
      <trkpt lat="47.89641" lon="-3.50803">
        <ele>74.73</ele>
        <time>2018-05-30T13:18:47Z</time>
      </trkpt>
      <trkpt lat="47.8963" lon="-3.50847">
        <ele>74.99</ele>
        <time>2018-05-30T13:19:05Z</time>
      </trkpt>
      <trkpt lat="47.8963" lon="-3.50899">
        <ele>75.75</ele>
        <time>2018-05-30T13:19:27Z</time>
      </trkpt>
      <trkpt lat="47.8963" lon="-3.5094">
        <ele>76.65</ele>
        <time>2018-05-30T13:19:43Z</time>
      </trkpt>
      <trkpt lat="47.8963" lon="-3.50986">
        <ele>77.94</ele>
        <time>2018-05-30T13:20:02Z</time>
      </trkpt>
      <trkpt lat="47.89626" lon="-3.51023">
        <ele>79.29</ele>
        <time>2018-05-30T13:20:17Z</time>
      </trkpt>
      <trkpt lat="47.89618" lon="-3.51056">
        <ele>80.03</ele>
        <time>2018-05-30T13:20:31Z</time>
      </trkpt>
      <trkpt lat="47.89601" lon="-3.51089">
        <ele>80.51</ele>
        <time>2018-05-30T13:20:47Z</time>
      </trkpt>
      <trkpt lat="47.89585" lon="-3.51124">
        <ele>81.03</ele>
        <time>2018-05-30T13:21:02Z</time>
      </trkpt>
      <trkpt lat="47.89567" lon="-3.51166">
        <ele>81.62</ele>
        <time>2018-05-30T13:21:23Z</time>
      </trkpt>
      <trkpt lat="47.89562" lon="-3.51214">
        <ele>81.19</ele>
        <time>2018-05-30T13:21:43Z</time>
      </trkpt>
      <trkpt lat="47.89567" lon="-3.51263">
        <ele>81.26</ele>
        <time>2018-05-30T13:22:02Z</time>
      </trkpt>
      <trkpt lat="47.89577" lon="-3.51318">
        <ele>80.71</ele>
        <time>2018-05-30T13:22:24Z</time>
      </trkpt>
      <trkpt lat="47.89586" lon="-3.51374">
        <ele>79.8</ele>
        <time>2018-05-30T13:22:46Z</time>
      </trkpt>
      <trkpt lat="47.89597" lon="-3.51423">
        <ele>79.22</ele>
        <time>2018-05-30T13:23:06Z</time>
      </trkpt>
      <trkpt lat="47.89607" lon="-3.5147">
        <ele>79.16</ele>
        <time>2018-05-30T13:23:26Z</time>
      </trkpt>
      <trkpt lat="47.89619" lon="-3.5151">
        <ele>79.26</ele>
        <time>2018-05-30T13:23:43Z</time>
      </trkpt>
      <trkpt lat="47.89641" lon="-3.51514">
        <ele>79.01</ele>
        <time>2018-05-30T13:23:58Z</time>
      </trkpt>
      <trkpt lat="47.89673" lon="-3.51507">
        <ele>78.52</ele>
        <time>2018-05-30T13:24:17Z</time>
      </trkpt>
      <trkpt lat="47.897" lon="-3.51502">
        <ele>78.15</ele>
        <time>2018-05-30T13:24:32Z</time>
      </trkpt>
      <trkpt lat="47.89719" lon="-3.51498">
        <ele>77.91</ele>
        <time>2018-05-30T13:24:49Z</time>
      </trkpt>
      <trkpt lat="47.89722" lon="-3.51498">
        <ele>77.71</ele>
        <time>2018-05-30T13:24:54Z</time>
      </trkpt>
      <trkpt lat="47.89724" lon="-3.51498">
        <ele>77.68</ele>
        <time>2018-05-30T13:24:55Z</time>
      </trkpt>
      <trkpt lat="47.89725" lon="-3.51498">
        <ele>77.64</ele>
        <time>2018-05-30T13:24:56Z</time>
      </trkpt>
      <trkpt lat="47.89727" lon="-3.51497">
        <ele>77.6</ele>
        <time>2018-05-30T13:24:57Z</time>
      </trkpt>
      <trkpt lat="47.89728" lon="-3.51497">
        <ele>77.55</ele>
        <time>2018-05-30T13:24:58Z</time>
      </trkpt>
      <trkpt lat="47.8975" lon="-3.51488">
        <ele>76.96</ele>
        <time>2018-05-30T13:25:16Z</time>
      </trkpt>
      <trkpt lat="47.89769" lon="-3.51477">
        <ele>76.22</ele>
        <time>2018-05-30T13:25:29Z</time>
      </trkpt>
      <trkpt lat="47.89788" lon="-3.51465">
        <ele>74.89</ele>
        <time>2018-05-30T13:25:42Z</time>
      </trkpt>
      <trkpt lat="47.89789" lon="-3.51464">
        <ele>74.86</ele>
        <time>2018-05-30T13:25:43Z</time>
      </trkpt>
      <trkpt lat="47.8979" lon="-3.51463">
        <ele>74.82</ele>
        <time>2018-05-30T13:25:44Z</time>
      </trkpt>
      <trkpt lat="47.89791" lon="-3.51463">
        <ele>74.72</ele>
        <time>2018-05-30T13:25:45Z</time>
      </trkpt>
      <trkpt lat="47.89793" lon="-3.51462">
        <ele>74.64</ele>
        <time>2018-05-30T13:25:46Z</time>
      </trkpt>
      <trkpt lat="47.89794" lon="-3.51461">
        <ele>74.58</ele>
        <time>2018-05-30T13:25:47Z</time>
      </trkpt>
      <trkpt lat="47.89817" lon="-3.51456">
        <ele>73.87</ele>
        <time>2018-05-30T13:26:03Z</time>
      </trkpt>
      <trkpt lat="47.8984" lon="-3.51461">
        <ele>73.09</ele>
        <time>2018-05-30T13:26:16Z</time>
      </trkpt>
      <trkpt lat="47.89864" lon="-3.51478">
        <ele>71.37</ele>
        <time>2018-05-30T13:26:33Z</time>
      </trkpt>
      <trkpt lat="47.89882" lon="-3.5148">
        <ele>68.76</ele>
        <time>2018-05-30T13:26:47Z</time>
      </trkpt>
      <trkpt lat="47.89902" lon="-3.51483">
        <ele>65.76</ele>
        <time>2018-05-30T13:27:01Z</time>
      </trkpt>
      <trkpt lat="47.89927" lon="-3.51492">
        <ele>63.75</ele>
        <time>2018-05-30T13:27:15Z</time>
      </trkpt>
      <trkpt lat="47.89952" lon="-3.51501">
        <ele>61.35</ele>
        <time>2018-05-30T13:27:35Z</time>
      </trkpt>
      <trkpt lat="47.8996" lon="-3.51497">
        <ele>60.1</ele>
        <time>2018-05-30T13:27:41Z</time>
      </trkpt>
      <trkpt lat="47.89989" lon="-3.51473">
        <ele>59.1</ele>
        <time>2018-05-30T13:27:57Z</time>
      </trkpt>
      <trkpt lat="47.89995" lon="-3.51464">
        <ele>58.85</ele>
        <time>2018-05-30T13:28:03Z</time>
      </trkpt>
      <trkpt lat="47.90005" lon="-3.51455">
        <ele>58.83</ele>
        <time>2018-05-30T13:28:08Z</time>
      </trkpt>
      <trkpt lat="47.9001" lon="-3.51447">
        <ele>58.65</ele>
        <time>2018-05-30T13:28:12Z</time>
      </trkpt>
      <trkpt lat="47.90014" lon="-3.51437">
        <ele>58.29</ele>
        <time>2018-05-30T13:28:17Z</time>
      </trkpt>
      <trkpt lat="47.90021" lon="-3.51424">
        <ele>57.82</ele>
        <time>2018-05-30T13:28:24Z</time>
      </trkpt>
      <trkpt lat="47.90032" lon="-3.51416">
        <ele>57.3</ele>
        <time>2018-05-30T13:28:31Z</time>
      </trkpt>
      <trkpt lat="47.90037" lon="-3.51405">
        <ele>56.76</ele>
        <time>2018-05-30T13:28:36Z</time>
      </trkpt>
      <trkpt lat="47.90044" lon="-3.51394">
        <ele>56.19</ele>
        <time>2018-05-30T13:28:42Z</time>
      </trkpt>
      <trkpt lat="47.9005" lon="-3.5138">
        <ele>55.76</ele>
        <time>2018-05-30T13:28:49Z</time>
      </trkpt>
      <trkpt lat="47.90058" lon="-3.51359">
        <ele>54.95</ele>
        <time>2018-05-30T13:29:03Z</time>
      </trkpt>
      <trkpt lat="47.90052" lon="-3.51313">
        <ele>54.75</ele>
        <time>2018-05-30T13:29:20Z</time>
      </trkpt>
      <trkpt lat="47.90052" lon="-3.51301">
        <ele>54.58</ele>
        <time>2018-05-30T13:29:25Z</time>
      </trkpt>
      <trkpt lat="47.90051" lon="-3.51284">
        <ele>54.59</ele>
        <time>2018-05-30T13:29:31Z</time>
      </trkpt>
      <trkpt lat="47.90049" lon="-3.51264">
        <ele>54.64</ele>
        <time>2018-05-30T13:29:39Z</time>
      </trkpt>
      <trkpt lat="47.90047" lon="-3.51239">
        <ele>55.07</ele>
        <time>2018-05-30T13:29:49Z</time>
      </trkpt>
      <trkpt lat="47.90045" lon="-3.51228">
        <ele>55.33</ele>
        <time>2018-05-30T13:29:55Z</time>
      </trkpt>
      <trkpt lat="47.90042" lon="-3.51219">
        <ele>55.71</ele>
        <time>2018-05-30T13:29:59Z</time>
      </trkpt>
      <trkpt lat="47.90042" lon="-3.51203">
        <ele>56.24</ele>
        <time>2018-05-30T13:30:07Z</time>
      </trkpt>
      <trkpt lat="47.90049" lon="-3.51185">
        <ele>58.22</ele>
        <time>2018-05-30T13:30:23Z</time>
      </trkpt>
      <trkpt lat="47.90053" lon="-3.51166">
        <ele>59.91</ele>
        <time>2018-05-30T13:30:35Z</time>
      </trkpt>
      <trkpt lat="47.90057" lon="-3.51112">
        <ele>61.96</ele>
        <time>2018-05-30T13:30:57Z</time>
      </trkpt>
      <trkpt lat="47.90055" lon="-3.51091">
        <ele>61.9</ele>
        <time>2018-05-30T13:31:02Z</time>
      </trkpt>
      <trkpt lat="47.90055" lon="-3.51047">
        <ele>61.7</ele>
        <time>2018-05-30T13:31:14Z</time>
      </trkpt>
      <trkpt lat="47.90058" lon="-3.51006">
        <ele>61.02</ele>
        <time>2018-05-30T13:31:28Z</time>
      </trkpt>
      <trkpt lat="47.90067" lon="-3.50974">
        <ele>59.42</ele>
        <time>2018-05-30T13:31:44Z</time>
      </trkpt>
      <trkpt lat="47.90072" lon="-3.50949">
        <ele>58.54</ele>
        <time>2018-05-30T13:31:54Z</time>
      </trkpt>
      <trkpt lat="47.90075" lon="-3.50941">
        <ele>58.27</ele>
        <time>2018-05-30T13:31:58Z</time>
      </trkpt>
      <trkpt lat="47.90083" lon="-3.50913">
        <ele>57.62</ele>
        <time>2018-05-30T13:32:12Z</time>
      </trkpt>
      <trkpt lat="47.90086" lon="-3.50895">
        <ele>57.37</ele>
        <time>2018-05-30T13:32:20Z</time>
      </trkpt>
      <trkpt lat="47.90087" lon="-3.5089">
        <ele>57.32</ele>
        <time>2018-05-30T13:32:22Z</time>
      </trkpt>
      <trkpt lat="47.90091" lon="-3.50873">
        <ele>57.05</ele>
        <time>2018-05-30T13:32:30Z</time>
      </trkpt>
      <trkpt lat="47.90097" lon="-3.50833">
        <ele>56.86</ele>
        <time>2018-05-30T13:32:45Z</time>
      </trkpt>
      <trkpt lat="47.90098" lon="-3.50829">
        <ele>56.87</ele>
        <time>2018-05-30T13:32:47Z</time>
      </trkpt>
      <trkpt lat="47.90103" lon="-3.50802">
        <ele>57.02</ele>
        <time>2018-05-30T13:33:00Z</time>
      </trkpt>
      <trkpt lat="47.90104" lon="-3.50773">
        <ele>58.05</ele>
        <time>2018-05-30T13:33:14Z</time>
      </trkpt>
      <trkpt lat="47.90104" lon="-3.50767">
        <ele>58.53</ele>
        <time>2018-05-30T13:33:17Z</time>
      </trkpt>
      <trkpt lat="47.90106" lon="-3.50735">
        <ele>58.98</ele>
        <time>2018-05-30T13:33:26Z</time>
      </trkpt>
      <trkpt lat="47.90105" lon="-3.50686">
        <ele>60.41</ele>
        <time>2018-05-30T13:33:43Z</time>
      </trkpt>
      <trkpt lat="47.90104" lon="-3.50656">
        <ele>60.46</ele>
        <time>2018-05-30T13:33:55Z</time>
      </trkpt>
      <trkpt lat="47.90102" lon="-3.5065">
        <ele>60.75</ele>
        <time>2018-05-30T13:33:59Z</time>
      </trkpt>
      <trkpt lat="47.90097" lon="-3.50616">
        <ele>60.57</ele>
        <time>2018-05-30T13:34:12Z</time>
      </trkpt>
      <trkpt lat="47.90096" lon="-3.50576">
        <ele>60.53</ele>
        <time>2018-05-30T13:34:27Z</time>
      </trkpt>
      <trkpt lat="47.90095" lon="-3.50542">
        <ele>60.11</ele>
        <time>2018-05-30T13:34:41Z</time>
      </trkpt>
      <trkpt lat="47.90096" lon="-3.50525">
        <ele>59.91</ele>
        <time>2018-05-30T13:34:55Z</time>
      </trkpt>
      <trkpt lat="47.90095" lon="-3.50494">
        <ele>57.71</ele>
        <time>2018-05-30T13:35:16Z</time>
      </trkpt>
      <trkpt lat="47.90088" lon="-3.5047">
        <ele>55.52</ele>
        <time>2018-05-30T13:35:32Z</time>
      </trkpt>
      <trkpt lat="47.90078" lon="-3.50455">
        <ele>53.62</ele>
        <time>2018-05-30T13:35:42Z</time>
      </trkpt>
      <trkpt lat="47.90066" lon="-3.50439">
        <ele>50.29</ele>
        <time>2018-05-30T13:35:58Z</time>
      </trkpt>
      <trkpt lat="47.90058" lon="-3.50416">
        <ele>47.12</ele>
        <time>2018-05-30T13:36:12Z</time>
      </trkpt>
      <trkpt lat="47.90053" lon="-3.50397">
        <ele>44.8</ele>
        <time>2018-05-30T13:36:23Z</time>
      </trkpt>
      <trkpt lat="47.90047" lon="-3.50346">
        <ele>42</ele>
        <time>2018-05-30T13:36:42Z</time>
      </trkpt>
      <trkpt lat="47.90051" lon="-3.50318">
        <ele>40.9</ele>
        <time>2018-05-30T13:36:53Z</time>
      </trkpt>
      <trkpt lat="47.90052" lon="-3.50303">
        <ele>40.67</ele>
        <time>2018-05-30T13:36:57Z</time>
      </trkpt>
      <trkpt lat="47.90055" lon="-3.50293">
        <ele>40.51</ele>
        <time>2018-05-30T13:37:00Z</time>
      </trkpt>
      <trkpt lat="47.90056" lon="-3.50276">
        <ele>39.98</ele>
        <time>2018-05-30T13:37:11Z</time>
      </trkpt>
      <trkpt lat="47.90051" lon="-3.50262">
        <ele>40.18</ele>
        <time>2018-05-30T13:37:30Z</time>
      </trkpt>
      <trkpt lat="47.90036" lon="-3.50249">
        <ele>43.29</ele>
        <time>2018-05-30T13:37:49Z</time>
      </trkpt>
      <trkpt lat="47.90022" lon="-3.50223">
        <ele>44.05</ele>
        <time>2018-05-30T13:38:04Z</time>
      </trkpt>
      <trkpt lat="47.9" lon="-3.50204">
        <ele>43.2</ele>
        <time>2018-05-30T13:38:17Z</time>
      </trkpt>
      <trkpt lat="47.89991" lon="-3.50189">
        <ele>42.24</ele>
        <time>2018-05-30T13:38:25Z</time>
      </trkpt>
      <trkpt lat="47.89979" lon="-3.50168">
        <ele>42.47</ele>
        <time>2018-05-30T13:38:39Z</time>
      </trkpt>
      <trkpt lat="47.89965" lon="-3.50154">
        <ele>42.67</ele>
        <time>2018-05-30T13:38:52Z</time>
      </trkpt>
      <trkpt lat="47.89948" lon="-3.50131">
        <ele>43.15</ele>
        <time>2018-05-30T13:39:02Z</time>
      </trkpt>
      <trkpt lat="47.89944" lon="-3.50122">
        <ele>43.01</ele>
        <time>2018-05-30T13:39:12Z</time>
      </trkpt>
      <trkpt lat="47.89942" lon="-3.5012">
        <ele>42.96</ele>
        <time>2018-05-30T13:39:14Z</time>
      </trkpt>
      <trkpt lat="47.89927" lon="-3.50113">
        <ele>44.27</ele>
        <time>2018-05-30T13:39:30Z</time>
      </trkpt>
      <trkpt lat="47.89912" lon="-3.50102">
        <ele>45.31</ele>
        <time>2018-05-30T13:39:41Z</time>
      </trkpt>
      <trkpt lat="47.89891" lon="-3.50072">
        <ele>46.33</ele>
        <time>2018-05-30T13:40:01Z</time>
      </trkpt>
      <trkpt lat="47.89891" lon="-3.50069">
        <ele>46.36</ele>
        <time>2018-05-30T13:40:02Z</time>
      </trkpt>
      <trkpt lat="47.89898" lon="-3.50067">
        <ele>47.3</ele>
        <time>2018-05-30T13:40:14Z</time>
      </trkpt>
      <trkpt lat="47.89917" lon="-3.50063">
        <ele>47.56</ele>
        <time>2018-05-30T13:40:35Z</time>
      </trkpt>
      <trkpt lat="47.89947" lon="-3.50064">
        <ele>47.77</ele>
        <time>2018-05-30T13:40:51Z</time>
      </trkpt>
      <trkpt lat="47.89958" lon="-3.50059">
        <ele>48.62</ele>
        <time>2018-05-30T13:41:04Z</time>
      </trkpt>
      <trkpt lat="47.89966" lon="-3.50053">
        <ele>49.64</ele>
        <time>2018-05-30T13:41:10Z</time>
      </trkpt>
      <trkpt lat="47.89982" lon="-3.50048">
        <ele>50.9</ele>
        <time>2018-05-30T13:41:18Z</time>
      </trkpt>
      <trkpt lat="47.90007" lon="-3.50043">
        <ele>53.67</ele>
        <time>2018-05-30T13:41:34Z</time>
      </trkpt>
      <trkpt lat="47.90013" lon="-3.5004">
        <ele>54.4</ele>
        <time>2018-05-30T13:41:37Z</time>
      </trkpt>
      <trkpt lat="47.90024" lon="-3.50031">
        <ele>55.09</ele>
        <time>2018-05-30T13:41:42Z</time>
      </trkpt>
      <trkpt lat="47.90054" lon="-3.5">
        <ele>57.21</ele>
        <time>2018-05-30T13:42:00Z</time>
      </trkpt>
      <trkpt lat="47.90065" lon="-3.49995">
        <ele>57.22</ele>
        <time>2018-05-30T13:42:05Z</time>
      </trkpt>
      <trkpt lat="47.90092" lon="-3.49981">
        <ele>57.3</ele>
        <time>2018-05-30T13:42:19Z</time>
      </trkpt>
      <trkpt lat="47.90105" lon="-3.49967">
        <ele>56.43</ele>
        <time>2018-05-30T13:42:31Z</time>
      </trkpt>
      <trkpt lat="47.90107" lon="-3.49958">
        <ele>55.98</ele>
        <time>2018-05-30T13:42:36Z</time>
      </trkpt>
      <trkpt lat="47.90111" lon="-3.49941">
        <ele>55.33</ele>
        <time>2018-05-30T13:42:45Z</time>
      </trkpt>
      <trkpt lat="47.90114" lon="-3.49933">
        <ele>54.84</ele>
        <time>2018-05-30T13:42:50Z</time>
      </trkpt>
      <trkpt lat="47.90118" lon="-3.49928">
        <ele>54.5</ele>
        <time>2018-05-30T13:42:54Z</time>
      </trkpt>
      <trkpt lat="47.90125" lon="-3.49921">
        <ele>53.85</ele>
        <time>2018-05-30T13:43:01Z</time>
      </trkpt>
      <trkpt lat="47.90131" lon="-3.49918">
        <ele>53.35</ele>
        <time>2018-05-30T13:43:05Z</time>
      </trkpt>
      <trkpt lat="47.90141" lon="-3.49918">
        <ele>52.85</ele>
        <time>2018-05-30T13:43:10Z</time>
      </trkpt>
      <trkpt lat="47.90167" lon="-3.49928">
        <ele>52.51</ele>
        <time>2018-05-30T13:43:23Z</time>
      </trkpt>
      <trkpt lat="47.9017" lon="-3.49929">
        <ele>52.51</ele>
        <time>2018-05-30T13:43:25Z</time>
      </trkpt>
      <trkpt lat="47.90185" lon="-3.4994">
        <ele>52.21</ele>
        <time>2018-05-30T13:43:37Z</time>
      </trkpt>
      <trkpt lat="47.90191" lon="-3.49946">
        <ele>52.36</ele>
        <time>2018-05-30T13:43:42Z</time>
      </trkpt>
      <trkpt lat="47.90211" lon="-3.49963">
        <ele>53.05</ele>
        <time>2018-05-30T13:43:57Z</time>
      </trkpt>
      <trkpt lat="47.90218" lon="-3.49968">
        <ele>53.27</ele>
        <time>2018-05-30T13:44:02Z</time>
      </trkpt>
      <trkpt lat="47.90222" lon="-3.49973">
        <ele>53.44</ele>
        <time>2018-05-30T13:44:05Z</time>
      </trkpt>
      <trkpt lat="47.90227" lon="-3.4998">
        <ele>53.72</ele>
        <time>2018-05-30T13:44:09Z</time>
      </trkpt>
      <trkpt lat="47.90234" lon="-3.49989">
        <ele>53.97</ele>
        <time>2018-05-30T13:44:15Z</time>
      </trkpt>
      <trkpt lat="47.90237" lon="-3.49993">
        <ele>54.19</ele>
        <time>2018-05-30T13:44:21Z</time>
      </trkpt>
      <trkpt lat="47.9024" lon="-3.49989">
        <ele>54.05</ele>
        <time>2018-05-30T13:44:27Z</time>
      </trkpt>
      <trkpt lat="47.9024" lon="-3.49985">
        <ele>53.88</ele>
        <time>2018-05-30T13:44:29Z</time>
      </trkpt>
      <trkpt lat="47.9025" lon="-3.49951">
        <ele>51.8</ele>
        <time>2018-05-30T13:44:49Z</time>
      </trkpt>
      <trkpt lat="47.9025" lon="-3.49948">
        <ele>51.68</ele>
        <time>2018-05-30T13:44:50Z</time>
      </trkpt>
      <trkpt lat="47.90249" lon="-3.49933">
        <ele>51.2</ele>
        <time>2018-05-30T13:44:54Z</time>
      </trkpt>
      <trkpt lat="47.90246" lon="-3.49882">
        <ele>49.55</ele>
        <time>2018-05-30T13:45:14Z</time>
      </trkpt>
      <trkpt lat="47.90247" lon="-3.49875">
        <ele>49.36</ele>
        <time>2018-05-30T13:45:17Z</time>
      </trkpt>
      <trkpt lat="47.90244" lon="-3.49824">
        <ele>47.61</ele>
        <time>2018-05-30T13:45:40Z</time>
      </trkpt>
      <trkpt lat="47.90241" lon="-3.49801">
        <ele>46.18</ele>
        <time>2018-05-30T13:45:52Z</time>
      </trkpt>
      <trkpt lat="47.9024" lon="-3.49793">
        <ele>45.76</ele>
        <time>2018-05-30T13:45:55Z</time>
      </trkpt>
      <trkpt lat="47.90236" lon="-3.49767">
        <ele>43.97</ele>
        <time>2018-05-30T13:46:05Z</time>
      </trkpt>
      <trkpt lat="47.90234" lon="-3.49748">
        <ele>43.49</ele>
        <time>2018-05-30T13:46:09Z</time>
      </trkpt>
      <trkpt lat="47.90234" lon="-3.49743">
        <ele>43.2</ele>
        <time>2018-05-30T13:46:11Z</time>
      </trkpt>
      <trkpt lat="47.90241" lon="-3.49732">
        <ele>42.03</ele>
        <time>2018-05-30T13:46:18Z</time>
      </trkpt>
      <trkpt lat="47.9025" lon="-3.49724">
        <ele>40.67</ele>
        <time>2018-05-30T13:46:27Z</time>
      </trkpt>
      <trkpt lat="47.90274" lon="-3.49733">
        <ele>38.86</ele>
        <time>2018-05-30T13:46:45Z</time>
      </trkpt>
      <trkpt lat="47.90286" lon="-3.49763">
        <ele>37.62</ele>
        <time>2018-05-30T13:47:03Z</time>
      </trkpt>
      <trkpt lat="47.9029" lon="-3.49808">
        <ele>36.56</ele>
        <time>2018-05-30T13:47:24Z</time>
      </trkpt>
      <trkpt lat="47.9029" lon="-3.4986">
        <ele>34.53</ele>
        <time>2018-05-30T13:47:45Z</time>
      </trkpt>
      <trkpt lat="47.90292" lon="-3.49875">
        <ele>34.36</ele>
        <time>2018-05-30T13:47:52Z</time>
      </trkpt>
      <trkpt lat="47.90294" lon="-3.49883">
        <ele>34.29</ele>
        <time>2018-05-30T13:47:55Z</time>
      </trkpt>
      <trkpt lat="47.90298" lon="-3.49915">
        <ele>34.37</ele>
        <time>2018-05-30T13:48:04Z</time>
      </trkpt>
      <trkpt lat="47.90302" lon="-3.49934">
        <ele>34.56</ele>
        <time>2018-05-30T13:48:11Z</time>
      </trkpt>
      <trkpt lat="47.90314" lon="-3.49953">
        <ele>33.65</ele>
        <time>2018-05-30T13:48:23Z</time>
      </trkpt>
      <trkpt lat="47.90315" lon="-3.49954">
        <ele>33.47</ele>
        <time>2018-05-30T13:48:24Z</time>
      </trkpt>
      <trkpt lat="47.9033" lon="-3.49974">
        <ele>30.05</ele>
        <time>2018-05-30T13:48:38Z</time>
      </trkpt>
      <trkpt lat="47.90339" lon="-3.49974">
        <ele>27.76</ele>
        <time>2018-05-30T13:48:47Z</time>
      </trkpt>
      <trkpt lat="47.90345" lon="-3.49951">
        <ele>25.11</ele>
        <time>2018-05-30T13:48:57Z</time>
      </trkpt>
      <trkpt lat="47.90362" lon="-3.49947">
        <ele>22.19</ele>
        <time>2018-05-30T13:49:10Z</time>
      </trkpt>
      <trkpt lat="47.90369" lon="-3.49949">
        <ele>21.27</ele>
        <time>2018-05-30T13:49:13Z</time>
      </trkpt>
      <trkpt lat="47.90392" lon="-3.49951">
        <ele>19.74</ele>
        <time>2018-05-30T13:49:23Z</time>
      </trkpt>
      <trkpt lat="47.90397" lon="-3.49946">
        <ele>20.6</ele>
        <time>2018-05-30T13:49:27Z</time>
      </trkpt>
      <trkpt lat="47.90401" lon="-3.49937">
        <ele>20.91</ele>
        <time>2018-05-30T13:49:32Z</time>
      </trkpt>
      <trkpt lat="47.90413" lon="-3.49917">
        <ele>18.54</ele>
        <time>2018-05-30T13:49:45Z</time>
      </trkpt>
      <trkpt lat="47.90416" lon="-3.4991">
        <ele>18.12</ele>
        <time>2018-05-30T13:49:49Z</time>
      </trkpt>
      <trkpt lat="47.9042" lon="-3.49902">
        <ele>17.96</ele>
        <time>2018-05-30T13:49:56Z</time>
      </trkpt>
      <trkpt lat="47.9043" lon="-3.4987">
        <ele>15.7</ele>
        <time>2018-05-30T13:50:11Z</time>
      </trkpt>
      <trkpt lat="47.90435" lon="-3.49857">
        <ele>14.92</ele>
        <time>2018-05-30T13:50:18Z</time>
      </trkpt>
      <trkpt lat="47.90446" lon="-3.49821">
        <ele>13.18</ele>
        <time>2018-05-30T13:50:36Z</time>
      </trkpt>
      <trkpt lat="47.90453" lon="-3.49805">
        <ele>12.93</ele>
        <time>2018-05-30T13:50:45Z</time>
      </trkpt>
      <trkpt lat="47.90485" lon="-3.49785">
        <ele>13.15</ele>
        <time>2018-05-30T13:51:06Z</time>
      </trkpt>
      <trkpt lat="47.90504" lon="-3.49782">
        <ele>13.02</ele>
        <time>2018-05-30T13:51:19Z</time>
      </trkpt>
      <trkpt lat="47.90511" lon="-3.49781">
        <ele>12.93</ele>
        <time>2018-05-30T13:51:23Z</time>
      </trkpt>
      <trkpt lat="47.90529" lon="-3.49789">
        <ele>13</ele>
        <time>2018-05-30T13:51:36Z</time>
      </trkpt>
      <trkpt lat="47.90546" lon="-3.49798">
        <ele>12.65</ele>
        <time>2018-05-30T13:51:46Z</time>
      </trkpt>
      <trkpt lat="47.90561" lon="-3.49815">
        <ele>13.42</ele>
        <time>2018-05-30T13:51:57Z</time>
      </trkpt>
      <trkpt lat="47.90583" lon="-3.49841">
        <ele>14.35</ele>
        <time>2018-05-30T13:52:13Z</time>
      </trkpt>
      <trkpt lat="47.90586" lon="-3.49846">
        <ele>14.5</ele>
        <time>2018-05-30T13:52:15Z</time>
      </trkpt>
      <trkpt lat="47.90596" lon="-3.49865">
        <ele>15.04</ele>
        <time>2018-05-30T13:52:23Z</time>
      </trkpt>
      <trkpt lat="47.90599" lon="-3.49869">
        <ele>15.18</ele>
        <time>2018-05-30T13:52:25Z</time>
      </trkpt>
      <trkpt lat="47.90603" lon="-3.49881">
        <ele>15.73</ele>
        <time>2018-05-30T13:52:32Z</time>
      </trkpt>
      <trkpt lat="47.90604" lon="-3.4989">
        <ele>15.73</ele>
        <time>2018-05-30T13:52:36Z</time>
      </trkpt>
      <trkpt lat="47.90608" lon="-3.49902">
        <ele>15.64</ele>
        <time>2018-05-30T13:52:42Z</time>
      </trkpt>
      <trkpt lat="47.90617" lon="-3.49934">
        <ele>16.13</ele>
        <time>2018-05-30T13:53:00Z</time>
      </trkpt>
      <trkpt lat="47.90631" lon="-3.49967">
        <ele>16.44</ele>
        <time>2018-05-30T13:53:18Z</time>
      </trkpt>
      <trkpt lat="47.90631" lon="-3.49969">
        <ele>16.43</ele>
        <time>2018-05-30T13:53:19Z</time>
      </trkpt>
      <trkpt lat="47.9064" lon="-3.50005">
        <ele>17.03</ele>
        <time>2018-05-30T13:53:40Z</time>
      </trkpt>
      <trkpt lat="47.90645" lon="-3.50026">
        <ele>17.09</ele>
        <time>2018-05-30T13:53:50Z</time>
      </trkpt>
      <trkpt lat="47.90649" lon="-3.50037">
        <ele>17.1</ele>
        <time>2018-05-30T13:53:54Z</time>
      </trkpt>
      <trkpt lat="47.90653" lon="-3.50055">
        <ele>17.72</ele>
        <time>2018-05-30T13:54:01Z</time>
      </trkpt>
      <trkpt lat="47.90674" lon="-3.50089">
        <ele>18.38</ele>
        <time>2018-05-30T13:54:17Z</time>
      </trkpt>
      <trkpt lat="47.90678" lon="-3.50096">
        <ele>18.33</ele>
        <time>2018-05-30T13:54:20Z</time>
      </trkpt>
      <trkpt lat="47.90687" lon="-3.50107">
        <ele>18.49</ele>
        <time>2018-05-30T13:54:28Z</time>
      </trkpt>
      <trkpt lat="47.90693" lon="-3.50116">
        <ele>18.73</ele>
        <time>2018-05-30T13:54:33Z</time>
      </trkpt>
      <trkpt lat="47.90703" lon="-3.50127">
        <ele>19.05</ele>
        <time>2018-05-30T13:54:40Z</time>
      </trkpt>
      <trkpt lat="47.90705" lon="-3.50129">
        <ele>19.11</ele>
        <time>2018-05-30T13:54:42Z</time>
      </trkpt>
      <trkpt lat="47.90716" lon="-3.50144">
        <ele>19.36</ele>
        <time>2018-05-30T13:54:50Z</time>
      </trkpt>
      <trkpt lat="47.90727" lon="-3.50161">
        <ele>19.66</ele>
        <time>2018-05-30T13:54:59Z</time>
      </trkpt>
      <trkpt lat="47.90738" lon="-3.50181">
        <ele>21.82</ele>
        <time>2018-05-30T13:55:11Z</time>
      </trkpt>
      <trkpt lat="47.90742" lon="-3.5019">
        <ele>22.8</ele>
        <time>2018-05-30T13:55:16Z</time>
      </trkpt>
      <trkpt lat="47.90745" lon="-3.50201">
        <ele>23.33</ele>
        <time>2018-05-30T13:55:21Z</time>
      </trkpt>
      <trkpt lat="47.90746" lon="-3.50207">
        <ele>23.44</ele>
        <time>2018-05-30T13:55:24Z</time>
      </trkpt>
      <trkpt lat="47.90756" lon="-3.5023">
        <ele>23.66</ele>
        <time>2018-05-30T13:55:36Z</time>
      </trkpt>
      <trkpt lat="47.90763" lon="-3.5024">
        <ele>23.46</ele>
        <time>2018-05-30T13:55:41Z</time>
      </trkpt>
      <trkpt lat="47.90778" lon="-3.50242">
        <ele>23.04</ele>
        <time>2018-05-30T13:55:49Z</time>
      </trkpt>
      <trkpt lat="47.9079" lon="-3.50233">
        <ele>22.72</ele>
        <time>2018-05-30T13:55:59Z</time>
      </trkpt>
      <trkpt lat="47.90795" lon="-3.50234">
        <ele>22.82</ele>
        <time>2018-05-30T13:56:02Z</time>
      </trkpt>
      <trkpt lat="47.90809" lon="-3.50237">
        <ele>22.56</ele>
        <time>2018-05-30T13:56:13Z</time>
      </trkpt>
      <trkpt lat="47.90825" lon="-3.50245">
        <ele>23.91</ele>
        <time>2018-05-30T13:56:27Z</time>
      </trkpt>
      <trkpt lat="47.90829" lon="-3.50248">
        <ele>24.13</ele>
        <time>2018-05-30T13:56:29Z</time>
      </trkpt>
      <trkpt lat="47.90836" lon="-3.50259">
        <ele>25.63</ele>
        <time>2018-05-30T13:56:34Z</time>
      </trkpt>
      <trkpt lat="47.90841" lon="-3.50268">
        <ele>27.49</ele>
        <time>2018-05-30T13:56:39Z</time>
      </trkpt>
      <trkpt lat="47.90851" lon="-3.50278">
        <ele>29.42</ele>
        <time>2018-05-30T13:56:45Z</time>
      </trkpt>
      <trkpt lat="47.90853" lon="-3.50285">
        <ele>30.31</ele>
        <time>2018-05-30T13:56:49Z</time>
      </trkpt>
      <trkpt lat="47.90856" lon="-3.50294">
        <ele>31.48</ele>
        <time>2018-05-30T13:56:55Z</time>
      </trkpt>
      <trkpt lat="47.90862" lon="-3.50317">
        <ele>33.15</ele>
        <time>2018-05-30T13:57:07Z</time>
      </trkpt>
      <trkpt lat="47.90872" lon="-3.5034">
        <ele>31.68</ele>
        <time>2018-05-30T13:57:22Z</time>
      </trkpt>
      <trkpt lat="47.90886" lon="-3.50369">
        <ele>29.81</ele>
        <time>2018-05-30T13:57:41Z</time>
      </trkpt>
      <trkpt lat="47.90906" lon="-3.50406">
        <ele>27.41</ele>
        <time>2018-05-30T13:58:01Z</time>
      </trkpt>
      <trkpt lat="47.90934" lon="-3.50438">
        <ele>26.27</ele>
        <time>2018-05-30T13:58:21Z</time>
      </trkpt>
      <trkpt lat="47.90944" lon="-3.50454">
        <ele>26.27</ele>
        <time>2018-05-30T13:58:30Z</time>
      </trkpt>
      <trkpt lat="47.90946" lon="-3.5046">
        <ele>26.35</ele>
        <time>2018-05-30T13:58:34Z</time>
      </trkpt>
      <trkpt lat="47.9095" lon="-3.50468">
        <ele>26.78</ele>
        <time>2018-05-30T13:58:39Z</time>
      </trkpt>
      <trkpt lat="47.90959" lon="-3.50487">
        <ele>27.16</ele>
        <time>2018-05-30T13:58:47Z</time>
      </trkpt>
      <trkpt lat="47.9096" lon="-3.50489">
        <ele>27.18</ele>
        <time>2018-05-30T13:58:49Z</time>
      </trkpt>
      <trkpt lat="47.90961" lon="-3.50493">
        <ele>27.21</ele>
        <time>2018-05-30T13:58:51Z</time>
      </trkpt>
      <trkpt lat="47.90964" lon="-3.50512">
        <ele>28.19</ele>
        <time>2018-05-30T13:59:01Z</time>
      </trkpt>
      <trkpt lat="47.90966" lon="-3.50522">
        <ele>28.3</ele>
        <time>2018-05-30T13:59:05Z</time>
      </trkpt>
      <trkpt lat="47.9099" lon="-3.50563">
        <ele>29.52</ele>
        <time>2018-05-30T13:59:26Z</time>
      </trkpt>
      <trkpt lat="47.90995" lon="-3.5061">
        <ele>30.2</ele>
        <time>2018-05-30T13:59:46Z</time>
      </trkpt>
      <trkpt lat="47.91001" lon="-3.50609">
        <ele>30.09</ele>
        <time>2018-05-30T13:59:55Z</time>
      </trkpt>
      <trkpt lat="47.9101" lon="-3.50601">
        <ele>29.89</ele>
        <time>2018-05-30T13:59:59Z</time>
      </trkpt>
      <trkpt lat="47.9104" lon="-3.50578">
        <ele>29.39</ele>
        <time>2018-05-30T14:00:09Z</time>
      </trkpt>
      <trkpt lat="47.91048" lon="-3.50568">
        <ele>29.39</ele>
        <time>2018-05-30T14:00:13Z</time>
      </trkpt>
      <trkpt lat="47.9105" lon="-3.50555">
        <ele>29.45</ele>
        <time>2018-05-30T14:00:19Z</time>
      </trkpt>
      <trkpt lat="47.91048" lon="-3.50508">
        <ele>30.6</ele>
        <time>2018-05-30T14:00:36Z</time>
      </trkpt>
      <trkpt lat="47.91043" lon="-3.50473">
        <ele>31.87</ele>
        <time>2018-05-30T14:00:51Z</time>
      </trkpt>
      <trkpt lat="47.91041" lon="-3.50453">
        <ele>32.62</ele>
        <time>2018-05-30T14:00:59Z</time>
      </trkpt>
      <trkpt lat="47.91039" lon="-3.50443">
        <ele>33.17</ele>
        <time>2018-05-30T14:01:03Z</time>
      </trkpt>
      <trkpt lat="47.91035" lon="-3.50415">
        <ele>34.83</ele>
        <time>2018-05-30T14:01:15Z</time>
      </trkpt>
      <trkpt lat="47.91033" lon="-3.50404">
        <ele>35.63</ele>
        <time>2018-05-30T14:01:21Z</time>
      </trkpt>
      <trkpt lat="47.91028" lon="-3.50373">
        <ele>38.05</ele>
        <time>2018-05-30T14:01:36Z</time>
      </trkpt>
      <trkpt lat="47.91027" lon="-3.50369">
        <ele>38.31</ele>
        <time>2018-05-30T14:01:38Z</time>
      </trkpt>
      <trkpt lat="47.91022" lon="-3.50335">
        <ele>41.23</ele>
        <time>2018-05-30T14:01:53Z</time>
      </trkpt>
      <trkpt lat="47.91019" lon="-3.50327">
        <ele>41.7</ele>
        <time>2018-05-30T14:01:56Z</time>
      </trkpt>
      <trkpt lat="47.91016" lon="-3.50315">
        <ele>42.89</ele>
        <time>2018-05-30T14:02:02Z</time>
      </trkpt>
      <trkpt lat="47.91017" lon="-3.50306">
        <ele>43.86</ele>
        <time>2018-05-30T14:02:06Z</time>
      </trkpt>
      <trkpt lat="47.91016" lon="-3.50293">
        <ele>44.76</ele>
        <time>2018-05-30T14:02:11Z</time>
      </trkpt>
      <trkpt lat="47.91017" lon="-3.50262">
        <ele>47</ele>
        <time>2018-05-30T14:02:24Z</time>
      </trkpt>
      <trkpt lat="47.91019" lon="-3.50224">
        <ele>48.79</ele>
        <time>2018-05-30T14:02:39Z</time>
      </trkpt>
      <trkpt lat="47.91026" lon="-3.50191">
        <ele>50.18</ele>
        <time>2018-05-30T14:02:52Z</time>
      </trkpt>
      <trkpt lat="47.91029" lon="-3.50173">
        <ele>50.71</ele>
        <time>2018-05-30T14:02:57Z</time>
      </trkpt>
      <trkpt lat="47.9103" lon="-3.50171">
        <ele>50.87</ele>
        <time>2018-05-30T14:02:58Z</time>
      </trkpt>
      <trkpt lat="47.91031" lon="-3.50163">
        <ele>51.4</ele>
        <time>2018-05-30T14:03:01Z</time>
      </trkpt>
      <trkpt lat="47.91031" lon="-3.5016">
        <ele>51.57</ele>
        <time>2018-05-30T14:03:02Z</time>
      </trkpt>
      <trkpt lat="47.91032" lon="-3.50158">
        <ele>51.72</ele>
        <time>2018-05-30T14:03:03Z</time>
      </trkpt>
      <trkpt lat="47.91032" lon="-3.50155">
        <ele>51.85</ele>
        <time>2018-05-30T14:03:04Z</time>
      </trkpt>
      <trkpt lat="47.91033" lon="-3.50152">
        <ele>51.99</ele>
        <time>2018-05-30T14:03:05Z</time>
      </trkpt>
      <trkpt lat="47.91034" lon="-3.5015">
        <ele>52.26</ele>
        <time>2018-05-30T14:03:06Z</time>
      </trkpt>
      <trkpt lat="47.91034" lon="-3.50147">
        <ele>52.38</ele>
        <time>2018-05-30T14:03:07Z</time>
      </trkpt>
      <trkpt lat="47.91041" lon="-3.50118">
        <ele>54.16</ele>
        <time>2018-05-30T14:03:20Z</time>
      </trkpt>
      <trkpt lat="47.91043" lon="-3.50114">
        <ele>54.55</ele>
        <time>2018-05-30T14:03:23Z</time>
      </trkpt>
      <trkpt lat="47.91043" lon="-3.50112">
        <ele>54.7</ele>
        <time>2018-05-30T14:03:24Z</time>
      </trkpt>
      <trkpt lat="47.91044" lon="-3.5011">
        <ele>54.86</ele>
        <time>2018-05-30T14:03:25Z</time>
      </trkpt>
      <trkpt lat="47.91044" lon="-3.50107">
        <ele>55.02</ele>
        <time>2018-05-30T14:03:26Z</time>
      </trkpt>
      <trkpt lat="47.91045" lon="-3.50101">
        <ele>55.4</ele>
        <time>2018-05-30T14:03:29Z</time>
      </trkpt>
      <trkpt lat="47.91045" lon="-3.50099">
        <ele>55.51</ele>
        <time>2018-05-30T14:03:30Z</time>
      </trkpt>
      <trkpt lat="47.91045" lon="-3.50097">
        <ele>55.75</ele>
        <time>2018-05-30T14:03:31Z</time>
      </trkpt>
      <trkpt lat="47.91049" lon="-3.50081">
        <ele>56.61</ele>
        <time>2018-05-30T14:03:39Z</time>
      </trkpt>
      <trkpt lat="47.91054" lon="-3.50055">
        <ele>58.06</ele>
        <time>2018-05-30T14:03:51Z</time>
      </trkpt>
      <trkpt lat="47.91059" lon="-3.50037">
        <ele>59.26</ele>
        <time>2018-05-30T14:04:00Z</time>
      </trkpt>
      <trkpt lat="47.91061" lon="-3.5003">
        <ele>59.45</ele>
        <time>2018-05-30T14:04:03Z</time>
      </trkpt>
      <trkpt lat="47.91061" lon="-3.50027">
        <ele>59.53</ele>
        <time>2018-05-30T14:04:04Z</time>
      </trkpt>
      <trkpt lat="47.91062" lon="-3.50026">
        <ele>59.63</ele>
        <time>2018-05-30T14:04:05Z</time>
      </trkpt>
      <trkpt lat="47.91063" lon="-3.50024">
        <ele>59.79</ele>
        <time>2018-05-30T14:04:06Z</time>
      </trkpt>
      <trkpt lat="47.91064" lon="-3.50022">
        <ele>59.89</ele>
        <time>2018-05-30T14:04:07Z</time>
      </trkpt>
      <trkpt lat="47.91064" lon="-3.5002">
        <ele>60.03</ele>
        <time>2018-05-30T14:04:08Z</time>
      </trkpt>
      <trkpt lat="47.91064" lon="-3.50015">
        <ele>60.3</ele>
        <time>2018-05-30T14:04:10Z</time>
      </trkpt>
      <trkpt lat="47.91065" lon="-3.50012">
        <ele>60.39</ele>
        <time>2018-05-30T14:04:11Z</time>
      </trkpt>
      <trkpt lat="47.91066" lon="-3.5001">
        <ele>60.47</ele>
        <time>2018-05-30T14:04:12Z</time>
      </trkpt>
      <trkpt lat="47.91067" lon="-3.50008">
        <ele>60.54</ele>
        <time>2018-05-30T14:04:13Z</time>
      </trkpt>
      <trkpt lat="47.91068" lon="-3.50005">
        <ele>60.63</ele>
        <time>2018-05-30T14:04:14Z</time>
      </trkpt>
      <trkpt lat="47.91074" lon="-3.49991">
        <ele>61.32</ele>
        <time>2018-05-30T14:04:20Z</time>
      </trkpt>
      <trkpt lat="47.91075" lon="-3.49989">
        <ele>61.4</ele>
        <time>2018-05-30T14:04:21Z</time>
      </trkpt>
      <trkpt lat="47.91076" lon="-3.49987">
        <ele>61.48</ele>
        <time>2018-05-30T14:04:22Z</time>
      </trkpt>
      <trkpt lat="47.91077" lon="-3.49985">
        <ele>61.56</ele>
        <time>2018-05-30T14:04:23Z</time>
      </trkpt>
      <trkpt lat="47.91077" lon="-3.49983">
        <ele>61.63</ele>
        <time>2018-05-30T14:04:24Z</time>
      </trkpt>
      <trkpt lat="47.91078" lon="-3.49981">
        <ele>61.7</ele>
        <time>2018-05-30T14:04:25Z</time>
      </trkpt>
      <trkpt lat="47.91078" lon="-3.49979">
        <ele>61.75</ele>
        <time>2018-05-30T14:04:26Z</time>
      </trkpt>
      <trkpt lat="47.91078" lon="-3.49976">
        <ele>61.81</ele>
        <time>2018-05-30T14:04:27Z</time>
      </trkpt>
      <trkpt lat="47.91078" lon="-3.49973">
        <ele>61.9</ele>
        <time>2018-05-30T14:04:28Z</time>
      </trkpt>
      <trkpt lat="47.91078" lon="-3.4997">
        <ele>62.02</ele>
        <time>2018-05-30T14:04:29Z</time>
      </trkpt>
      <trkpt lat="47.91078" lon="-3.49968">
        <ele>62.12</ele>
        <time>2018-05-30T14:04:30Z</time>
      </trkpt>
      <trkpt lat="47.91082" lon="-3.49946">
        <ele>62.8</ele>
        <time>2018-05-30T14:04:39Z</time>
      </trkpt>
      <trkpt lat="47.91082" lon="-3.49944">
        <ele>62.89</ele>
        <time>2018-05-30T14:04:40Z</time>
      </trkpt>
      <trkpt lat="47.91083" lon="-3.49942">
        <ele>62.99</ele>
        <time>2018-05-30T14:04:41Z</time>
      </trkpt>
      <trkpt lat="47.91084" lon="-3.4994">
        <ele>63.08</ele>
        <time>2018-05-30T14:04:42Z</time>
      </trkpt>
      <trkpt lat="47.91085" lon="-3.49938">
        <ele>63.29</ele>
        <time>2018-05-30T14:04:43Z</time>
      </trkpt>
      <trkpt lat="47.91086" lon="-3.49936">
        <ele>63.43</ele>
        <time>2018-05-30T14:04:44Z</time>
      </trkpt>
      <trkpt lat="47.91086" lon="-3.49933">
        <ele>63.43</ele>
        <time>2018-05-30T14:04:45Z</time>
      </trkpt>
      <trkpt lat="47.91087" lon="-3.49931">
        <ele>63.7</ele>
        <time>2018-05-30T14:04:46Z</time>
      </trkpt>
      <trkpt lat="47.91088" lon="-3.49923">
        <ele>64.12</ele>
        <time>2018-05-30T14:04:50Z</time>
      </trkpt>
      <trkpt lat="47.91088" lon="-3.49921">
        <ele>64.24</ele>
        <time>2018-05-30T14:04:51Z</time>
      </trkpt>
      <trkpt lat="47.91088" lon="-3.49919">
        <ele>64.35</ele>
        <time>2018-05-30T14:04:52Z</time>
      </trkpt>
      <trkpt lat="47.91099" lon="-3.49877">
        <ele>65.84</ele>
        <time>2018-05-30T14:05:08Z</time>
      </trkpt>
      <trkpt lat="47.91107" lon="-3.4984">
        <ele>67.47</ele>
        <time>2018-05-30T14:05:23Z</time>
      </trkpt>
      <trkpt lat="47.9111" lon="-3.49832">
        <ele>67.83</ele>
        <time>2018-05-30T14:05:27Z</time>
      </trkpt>
      <trkpt lat="47.91115" lon="-3.49813">
        <ele>68.8</ele>
        <time>2018-05-30T14:05:36Z</time>
      </trkpt>
      <trkpt lat="47.91116" lon="-3.4981">
        <ele>69</ele>
        <time>2018-05-30T14:05:37Z</time>
      </trkpt>
      <trkpt lat="47.91116" lon="-3.49806">
        <ele>69.1</ele>
        <time>2018-05-30T14:05:38Z</time>
      </trkpt>
      <trkpt lat="47.91116" lon="-3.49803">
        <ele>69.22</ele>
        <time>2018-05-30T14:05:39Z</time>
      </trkpt>
      <trkpt lat="47.91116" lon="-3.49801">
        <ele>69.35</ele>
        <time>2018-05-30T14:05:40Z</time>
      </trkpt>
      <trkpt lat="47.91119" lon="-3.4978">
        <ele>70.81</ele>
        <time>2018-05-30T14:05:51Z</time>
      </trkpt>
      <trkpt lat="47.91119" lon="-3.49778">
        <ele>70.91</ele>
        <time>2018-05-30T14:05:52Z</time>
      </trkpt>
      <trkpt lat="47.9112" lon="-3.49776">
        <ele>70.99</ele>
        <time>2018-05-30T14:05:53Z</time>
      </trkpt>
      <trkpt lat="47.91121" lon="-3.49775">
        <ele>71.07</ele>
        <time>2018-05-30T14:05:54Z</time>
      </trkpt>
      <trkpt lat="47.91122" lon="-3.49773">
        <ele>71.14</ele>
        <time>2018-05-30T14:05:55Z</time>
      </trkpt>
      <trkpt lat="47.9113" lon="-3.49764">
        <ele>71.97</ele>
        <time>2018-05-30T14:06:03Z</time>
      </trkpt>
      <trkpt lat="47.91136" lon="-3.49763">
        <ele>72.69</ele>
        <time>2018-05-30T14:06:08Z</time>
      </trkpt>
      <trkpt lat="47.91137" lon="-3.49764">
        <ele>72.86</ele>
        <time>2018-05-30T14:06:09Z</time>
      </trkpt>
      <trkpt lat="47.91139" lon="-3.49764">
        <ele>73.04</ele>
        <time>2018-05-30T14:06:10Z</time>
      </trkpt>
      <trkpt lat="47.9114" lon="-3.49764">
        <ele>73.19</ele>
        <time>2018-05-30T14:06:11Z</time>
      </trkpt>
      <trkpt lat="47.91141" lon="-3.49765">
        <ele>73.34</ele>
        <time>2018-05-30T14:06:12Z</time>
      </trkpt>
      <trkpt lat="47.9116" lon="-3.49773">
        <ele>75.22</ele>
        <time>2018-05-30T14:06:26Z</time>
      </trkpt>
      <trkpt lat="47.91187" lon="-3.49782">
        <ele>76.18</ele>
        <time>2018-05-30T14:06:42Z</time>
      </trkpt>
      <trkpt lat="47.91208" lon="-3.4979">
        <ele>75.71</ele>
        <time>2018-05-30T14:06:55Z</time>
      </trkpt>
      <trkpt lat="47.91229" lon="-3.49801">
        <ele>75.13</ele>
        <time>2018-05-30T14:07:09Z</time>
      </trkpt>
      <trkpt lat="47.91261" lon="-3.49813">
        <ele>73.64</ele>
        <time>2018-05-30T14:07:28Z</time>
      </trkpt>
      <trkpt lat="47.91287" lon="-3.49825">
        <ele>72.51</ele>
        <time>2018-05-30T14:07:44Z</time>
      </trkpt>
      <trkpt lat="47.91294" lon="-3.49821">
        <ele>72.09</ele>
        <time>2018-05-30T14:07:50Z</time>
      </trkpt>
      <trkpt lat="47.91295" lon="-3.49818">
        <ele>72.03</ele>
        <time>2018-05-30T14:07:51Z</time>
      </trkpt>
      <trkpt lat="47.91295" lon="-3.49816">
        <ele>71.94</ele>
        <time>2018-05-30T14:07:52Z</time>
      </trkpt>
      <trkpt lat="47.91295" lon="-3.49814">
        <ele>71.85</ele>
        <time>2018-05-30T14:07:53Z</time>
      </trkpt>
      <trkpt lat="47.91295" lon="-3.49811">
        <ele>71.78</ele>
        <time>2018-05-30T14:07:54Z</time>
      </trkpt>
      <trkpt lat="47.91295" lon="-3.49777">
        <ele>72.07</ele>
        <time>2018-05-30T14:08:08Z</time>
      </trkpt>
      <trkpt lat="47.91296" lon="-3.4974">
        <ele>71.78</ele>
        <time>2018-05-30T14:08:24Z</time>
      </trkpt>
      <trkpt lat="47.91302" lon="-3.49709">
        <ele>70.83</ele>
        <time>2018-05-30T14:08:38Z</time>
      </trkpt>
      <trkpt lat="47.91302" lon="-3.49699">
        <ele>70.55</ele>
        <time>2018-05-30T14:08:43Z</time>
      </trkpt>
      <trkpt lat="47.91303" lon="-3.49696">
        <ele>70.51</ele>
        <time>2018-05-30T14:08:44Z</time>
      </trkpt>
      <trkpt lat="47.91302" lon="-3.49694">
        <ele>70.47</ele>
        <time>2018-05-30T14:08:45Z</time>
      </trkpt>
      <trkpt lat="47.91303" lon="-3.4969">
        <ele>70.4</ele>
        <time>2018-05-30T14:08:47Z</time>
      </trkpt>
      <trkpt lat="47.91304" lon="-3.49688">
        <ele>70.37</ele>
        <time>2018-05-30T14:08:48Z</time>
      </trkpt>
      <trkpt lat="47.91304" lon="-3.49686">
        <ele>70.31</ele>
        <time>2018-05-30T14:08:49Z</time>
      </trkpt>
      <trkpt lat="47.91305" lon="-3.4966">
        <ele>69.5</ele>
        <time>2018-05-30T14:09:01Z</time>
      </trkpt>
      <trkpt lat="47.91304" lon="-3.49655">
        <ele>69.39</ele>
        <time>2018-05-30T14:09:03Z</time>
      </trkpt>
      <trkpt lat="47.91304" lon="-3.49653">
        <ele>69.3</ele>
        <time>2018-05-30T14:09:04Z</time>
      </trkpt>
      <trkpt lat="47.91305" lon="-3.49626">
        <ele>68.11</ele>
        <time>2018-05-30T14:09:16Z</time>
      </trkpt>
      <trkpt lat="47.91306" lon="-3.49614">
        <ele>67.85</ele>
        <time>2018-05-30T14:09:22Z</time>
      </trkpt>
      <trkpt lat="47.91306" lon="-3.49611">
        <ele>67.82</ele>
        <time>2018-05-30T14:09:23Z</time>
      </trkpt>
      <trkpt lat="47.91306" lon="-3.49609">
        <ele>67.76</ele>
        <time>2018-05-30T14:09:24Z</time>
      </trkpt>
      <trkpt lat="47.91307" lon="-3.49575">
        <ele>67.15</ele>
        <time>2018-05-30T14:09:37Z</time>
      </trkpt>
      <trkpt lat="47.91306" lon="-3.49554">
        <ele>66.6</ele>
        <time>2018-05-30T14:09:45Z</time>
      </trkpt>
      <trkpt lat="47.91306" lon="-3.49551">
        <ele>66.49</ele>
        <time>2018-05-30T14:09:46Z</time>
      </trkpt>
      <trkpt lat="47.91306" lon="-3.49549">
        <ele>66.42</ele>
        <time>2018-05-30T14:09:47Z</time>
      </trkpt>
      <trkpt lat="47.91306" lon="-3.49547">
        <ele>66.34</ele>
        <time>2018-05-30T14:09:48Z</time>
      </trkpt>
      <trkpt lat="47.91307" lon="-3.49522">
        <ele>65.64</ele>
        <time>2018-05-30T14:09:59Z</time>
      </trkpt>
      <trkpt lat="47.91307" lon="-3.49478">
        <ele>64.49</ele>
        <time>2018-05-30T14:10:17Z</time>
      </trkpt>
      <trkpt lat="47.91307" lon="-3.49476">
        <ele>64.41</ele>
        <time>2018-05-30T14:10:18Z</time>
      </trkpt>
      <trkpt lat="47.91303" lon="-3.49437">
        <ele>63.82</ele>
        <time>2018-05-30T14:10:31Z</time>
      </trkpt>
      <trkpt lat="47.91299" lon="-3.49403">
        <ele>62.9</ele>
        <time>2018-05-30T14:10:44Z</time>
      </trkpt>
      <trkpt lat="47.91295" lon="-3.49384">
        <ele>62.36</ele>
        <time>2018-05-30T14:10:53Z</time>
      </trkpt>
      <trkpt lat="47.91296" lon="-3.49382">
        <ele>62.31</ele>
        <time>2018-05-30T14:10:54Z</time>
      </trkpt>
      <trkpt lat="47.91296" lon="-3.49379">
        <ele>62.26</ele>
        <time>2018-05-30T14:10:55Z</time>
      </trkpt>
      <trkpt lat="47.91296" lon="-3.49377">
        <ele>62.21</ele>
        <time>2018-05-30T14:10:56Z</time>
      </trkpt>
      <trkpt lat="47.91296" lon="-3.49375">
        <ele>62.16</ele>
        <time>2018-05-30T14:10:57Z</time>
      </trkpt>
      <trkpt lat="47.91295" lon="-3.49372">
        <ele>62.1</ele>
        <time>2018-05-30T14:10:58Z</time>
      </trkpt>
      <trkpt lat="47.91296" lon="-3.49337">
        <ele>61.56</ele>
        <time>2018-05-30T14:11:11Z</time>
      </trkpt>
      <trkpt lat="47.91295" lon="-3.49332">
        <ele>61.39</ele>
        <time>2018-05-30T14:11:13Z</time>
      </trkpt>
      <trkpt lat="47.91295" lon="-3.4933">
        <ele>61.33</ele>
        <time>2018-05-30T14:11:14Z</time>
      </trkpt>
      <trkpt lat="47.91295" lon="-3.49295">
        <ele>60.41</ele>
        <time>2018-05-30T14:11:28Z</time>
      </trkpt>
      <trkpt lat="47.91294" lon="-3.49292">
        <ele>60.32</ele>
        <time>2018-05-30T14:11:29Z</time>
      </trkpt>
      <trkpt lat="47.91294" lon="-3.49269">
        <ele>59.2</ele>
        <time>2018-05-30T14:11:43Z</time>
      </trkpt>
      <trkpt lat="47.91299" lon="-3.49224">
        <ele>58.41</ele>
        <time>2018-05-30T14:12:04Z</time>
      </trkpt>
      <trkpt lat="47.91303" lon="-3.49202">
        <ele>58.53</ele>
        <time>2018-05-30T14:12:13Z</time>
      </trkpt>
      <trkpt lat="47.91303" lon="-3.492">
        <ele>58.54</ele>
        <time>2018-05-30T14:12:14Z</time>
      </trkpt>
      <trkpt lat="47.91313" lon="-3.4918">
        <ele>58.77</ele>
        <time>2018-05-30T14:12:28Z</time>
      </trkpt>
      <trkpt lat="47.91315" lon="-3.49179">
        <ele>58.8</ele>
        <time>2018-05-30T14:12:29Z</time>
      </trkpt>
      <trkpt lat="47.91349" lon="-3.49156">
        <ele>61.45</ele>
        <time>2018-05-30T14:12:48Z</time>
      </trkpt>
      <trkpt lat="47.91372" lon="-3.49128">
        <ele>64.51</ele>
        <time>2018-05-30T14:12:58Z</time>
      </trkpt>
      <trkpt lat="47.91384" lon="-3.49077">
        <ele>66.74</ele>
        <time>2018-05-30T14:13:11Z</time>
      </trkpt>
      <trkpt lat="47.91408" lon="-3.48973">
        <ele>69.84</ele>
        <time>2018-05-30T14:13:27Z</time>
      </trkpt>
      <trkpt lat="47.91426" lon="-3.48898">
        <ele>72.36</ele>
        <time>2018-05-30T14:13:41Z</time>
      </trkpt>
      <trkpt lat="47.91443" lon="-3.48812">
        <ele>72.5</ele>
        <time>2018-05-30T14:13:55Z</time>
      </trkpt>
      <trkpt lat="47.9146" lon="-3.48744">
        <ele>72.64</ele>
        <time>2018-05-30T14:14:09Z</time>
      </trkpt>
      <trkpt lat="47.91477" lon="-3.48734">
        <ele>72.89</ele>
        <time>2018-05-30T14:14:19Z</time>
      </trkpt>
      <trkpt lat="47.91492" lon="-3.48749">
        <ele>72.74</ele>
        <time>2018-05-30T14:14:32Z</time>
      </trkpt>
      <trkpt lat="47.91512" lon="-3.48766">
        <ele>72.19</ele>
        <time>2018-05-30T14:14:46Z</time>
      </trkpt>
      <trkpt lat="47.91512" lon="-3.48768">
        <ele>72.13</ele>
        <time>2018-05-30T14:14:47Z</time>
      </trkpt>
      <trkpt lat="47.91513" lon="-3.48769">
        <ele>72.08</ele>
        <time>2018-05-30T14:14:48Z</time>
      </trkpt>
      <trkpt lat="47.91514" lon="-3.48771">
        <ele>72.03</ele>
        <time>2018-05-30T14:14:49Z</time>
      </trkpt>
      <trkpt lat="47.91531" lon="-3.48792">
        <ele>71.02</ele>
        <time>2018-05-30T14:15:04Z</time>
      </trkpt>
      <trkpt lat="47.91555" lon="-3.48818">
        <ele>69.97</ele>
        <time>2018-05-30T14:15:21Z</time>
      </trkpt>
      <trkpt lat="47.91573" lon="-3.4884">
        <ele>69.29</ele>
        <time>2018-05-30T14:15:35Z</time>
      </trkpt>
      <trkpt lat="47.91594" lon="-3.48855">
        <ele>68.25</ele>
        <time>2018-05-30T14:15:50Z</time>
      </trkpt>
      <trkpt lat="47.91624" lon="-3.48869">
        <ele>67.75</ele>
        <time>2018-05-30T14:16:07Z</time>
      </trkpt>
      <trkpt lat="47.91656" lon="-3.48872">
        <ele>67.16</ele>
        <time>2018-05-30T14:16:25Z</time>
      </trkpt>
      <trkpt lat="47.91686" lon="-3.48869">
        <ele>67.42</ele>
        <time>2018-05-30T14:16:42Z</time>
      </trkpt>
      <trkpt lat="47.91712" lon="-3.48867">
        <ele>67.61</ele>
        <time>2018-05-30T14:16:58Z</time>
      </trkpt>
      <trkpt lat="47.91733" lon="-3.48864">
        <ele>68.11</ele>
        <time>2018-05-30T14:17:14Z</time>
      </trkpt>
      <trkpt lat="47.91754" lon="-3.48864">
        <ele>68.35</ele>
        <time>2018-05-30T14:17:27Z</time>
      </trkpt>
      <trkpt lat="47.91771" lon="-3.48867">
        <ele>68.63</ele>
        <time>2018-05-30T14:17:41Z</time>
      </trkpt>
      <trkpt lat="47.91786" lon="-3.48871">
        <ele>69.12</ele>
        <time>2018-05-30T14:17:52Z</time>
      </trkpt>
      <trkpt lat="47.91817" lon="-3.48878">
        <ele>70.28</ele>
        <time>2018-05-30T14:18:08Z</time>
      </trkpt>
      <trkpt lat="47.91848" lon="-3.48859">
        <ele>71.21</ele>
        <time>2018-05-30T14:18:27Z</time>
      </trkpt>
      <trkpt lat="47.91876" lon="-3.48851">
        <ele>71.6</ele>
        <time>2018-05-30T14:18:44Z</time>
      </trkpt>
      <trkpt lat="47.91907" lon="-3.48837">
        <ele>71.4</ele>
        <time>2018-05-30T14:19:03Z</time>
      </trkpt>
      <trkpt lat="47.91935" lon="-3.48831">
        <ele>71.37</ele>
        <time>2018-05-30T14:19:21Z</time>
      </trkpt>
      <trkpt lat="47.91958" lon="-3.48831">
        <ele>72.25</ele>
        <time>2018-05-30T14:19:36Z</time>
      </trkpt>
      <trkpt lat="47.91959" lon="-3.48831">
        <ele>72.29</ele>
        <time>2018-05-30T14:19:37Z</time>
      </trkpt>
      <trkpt lat="47.91961" lon="-3.48831">
        <ele>72.32</ele>
        <time>2018-05-30T14:19:38Z</time>
      </trkpt>
      <trkpt lat="47.91992" lon="-3.48829">
        <ele>72.86</ele>
        <time>2018-05-30T14:19:57Z</time>
      </trkpt>
      <trkpt lat="47.92014" lon="-3.48828">
        <ele>73.7</ele>
        <time>2018-05-30T14:20:12Z</time>
      </trkpt>
      <trkpt lat="47.92044" lon="-3.48827">
        <ele>74.91</ele>
        <time>2018-05-30T14:20:31Z</time>
      </trkpt>
      <trkpt lat="47.92071" lon="-3.48832">
        <ele>76.23</ele>
        <time>2018-05-30T14:20:49Z</time>
      </trkpt>
      <trkpt lat="47.92106" lon="-3.48841">
        <ele>78.48</ele>
        <time>2018-05-30T14:21:10Z</time>
      </trkpt>
      <trkpt lat="47.92143" lon="-3.48851">
        <ele>80.14</ele>
        <time>2018-05-30T14:21:34Z</time>
      </trkpt>
      <trkpt lat="47.92171" lon="-3.48861">
        <ele>81.22</ele>
        <time>2018-05-30T14:21:53Z</time>
      </trkpt>
      <trkpt lat="47.92197" lon="-3.48871">
        <ele>81.64</ele>
        <time>2018-05-30T14:22:11Z</time>
      </trkpt>
      <trkpt lat="47.9222" lon="-3.48885">
        <ele>81.71</ele>
        <time>2018-05-30T14:22:28Z</time>
      </trkpt>
      <trkpt lat="47.92243" lon="-3.48899">
        <ele>80.85</ele>
        <time>2018-05-30T14:22:45Z</time>
      </trkpt>
      <trkpt lat="47.92273" lon="-3.48911">
        <ele>78.75</ele>
        <time>2018-05-30T14:23:04Z</time>
      </trkpt>
      <trkpt lat="47.92301" lon="-3.48918">
        <ele>76.3</ele>
        <time>2018-05-30T14:23:21Z</time>
      </trkpt>
      <trkpt lat="47.92327" lon="-3.48929">
        <ele>73.88</ele>
        <time>2018-05-30T14:23:37Z</time>
      </trkpt>
      <trkpt lat="47.92354" lon="-3.48936">
        <ele>70.86</ele>
        <time>2018-05-30T14:23:54Z</time>
      </trkpt>
      <trkpt lat="47.92375" lon="-3.48939">
        <ele>68.16</ele>
        <time>2018-05-30T14:24:06Z</time>
      </trkpt>
      <trkpt lat="47.92376" lon="-3.48939">
        <ele>67.64</ele>
        <time>2018-05-30T14:24:07Z</time>
      </trkpt>
      <trkpt lat="47.92377" lon="-3.48939">
        <ele>67.4</ele>
        <time>2018-05-30T14:24:08Z</time>
      </trkpt>
      <trkpt lat="47.92379" lon="-3.48939">
        <ele>67.16</ele>
        <time>2018-05-30T14:24:09Z</time>
      </trkpt>
      <trkpt lat="47.9238" lon="-3.48939">
        <ele>66.91</ele>
        <time>2018-05-30T14:24:10Z</time>
      </trkpt>
      <trkpt lat="47.92381" lon="-3.48939">
        <ele>66.67</ele>
        <time>2018-05-30T14:24:11Z</time>
      </trkpt>
      <trkpt lat="47.92402" lon="-3.48937">
        <ele>63.47</ele>
        <time>2018-05-30T14:24:25Z</time>
      </trkpt>
      <trkpt lat="47.92421" lon="-3.48936">
        <ele>60.44</ele>
        <time>2018-05-30T14:24:37Z</time>
      </trkpt>
      <trkpt lat="47.92447" lon="-3.48927">
        <ele>57.82</ele>
        <time>2018-05-30T14:24:51Z</time>
      </trkpt>
      <trkpt lat="47.9247" lon="-3.48917">
        <ele>55.15</ele>
        <time>2018-05-30T14:25:06Z</time>
      </trkpt>
      <trkpt lat="47.92488" lon="-3.48902">
        <ele>54.65</ele>
        <time>2018-05-30T14:25:21Z</time>
      </trkpt>
      <trkpt lat="47.92505" lon="-3.48884">
        <ele>55.02</ele>
        <time>2018-05-30T14:25:35Z</time>
      </trkpt>
      <trkpt lat="47.92517" lon="-3.48855">
        <ele>55.86</ele>
        <time>2018-05-30T14:25:49Z</time>
      </trkpt>
      <trkpt lat="47.92527" lon="-3.48828">
        <ele>55.79</ele>
        <time>2018-05-30T14:26:02Z</time>
      </trkpt>
      <trkpt lat="47.92527" lon="-3.48826">
        <ele>55.79</ele>
        <time>2018-05-30T14:26:03Z</time>
      </trkpt>
      <trkpt lat="47.92528" lon="-3.48823">
        <ele>55.78</ele>
        <time>2018-05-30T14:26:04Z</time>
      </trkpt>
      <trkpt lat="47.92528" lon="-3.48821">
        <ele>55.76</ele>
        <time>2018-05-30T14:26:05Z</time>
      </trkpt>
      <trkpt lat="47.92529" lon="-3.48819">
        <ele>55.76</ele>
        <time>2018-05-30T14:26:06Z</time>
      </trkpt>
      <trkpt lat="47.92534" lon="-3.48803">
        <ele>55.4</ele>
        <time>2018-05-30T14:26:16Z</time>
      </trkpt>
      <trkpt lat="47.9255" lon="-3.48787">
        <ele>55.57</ele>
        <time>2018-05-30T14:26:29Z</time>
      </trkpt>
      <trkpt lat="47.9257" lon="-3.48778">
        <ele>56.42</ele>
        <time>2018-05-30T14:26:42Z</time>
      </trkpt>
      <trkpt lat="47.92578" lon="-3.48774">
        <ele>56.85</ele>
        <time>2018-05-30T14:26:50Z</time>
      </trkpt>
      <trkpt lat="47.9258" lon="-3.48773">
        <ele>56.91</ele>
        <time>2018-05-30T14:26:51Z</time>
      </trkpt>
      <trkpt lat="47.92582" lon="-3.48773">
        <ele>57.04</ele>
        <time>2018-05-30T14:26:53Z</time>
      </trkpt>
      <trkpt lat="47.92605" lon="-3.4877">
        <ele>58.05</ele>
        <time>2018-05-30T14:27:09Z</time>
      </trkpt>
      <trkpt lat="47.92632" lon="-3.48766">
        <ele>58.67</ele>
        <time>2018-05-30T14:27:26Z</time>
      </trkpt>
      <trkpt lat="47.92644" lon="-3.48762">
        <ele>59.19</ele>
        <time>2018-05-30T14:27:38Z</time>
      </trkpt>
      <trkpt lat="47.9265" lon="-3.48757">
        <ele>58.81</ele>
        <time>2018-05-30T14:27:54Z</time>
      </trkpt>
      <trkpt lat="47.92654" lon="-3.48756">
        <ele>59.03</ele>
        <time>2018-05-30T14:28:10Z</time>
      </trkpt>
      <trkpt lat="47.92654" lon="-3.48748">
        <ele>59.14</ele>
        <time>2018-05-30T14:28:26Z</time>
      </trkpt>
      <trkpt lat="47.92654" lon="-3.48749">
        <ele>59.14</ele>
        <time>2018-05-30T14:28:31Z</time>
      </trkpt>
      <trkpt lat="47.92651" lon="-3.48754">
        <ele>58.83</ele>
        <time>2018-05-30T14:28:42Z</time>
      </trkpt>
      <trkpt lat="47.92654" lon="-3.48757">
        <ele>59.03</ele>
        <time>2018-05-30T14:28:59Z</time>
      </trkpt>
      <trkpt lat="47.92653" lon="-3.48755">
        <ele>59.27</ele>
        <time>2018-05-30T14:29:14Z</time>
      </trkpt>
      <trkpt lat="47.92654" lon="-3.48748">
        <ele>59.17</ele>
        <time>2018-05-30T14:29:26Z</time>
      </trkpt>
      <trkpt lat="47.92654" lon="-3.48739">
        <ele>59.69</ele>
        <time>2018-05-30T14:29:36Z</time>
      </trkpt>
      <trkpt lat="47.92654" lon="-3.4873">
        <ele>59.88</ele>
        <time>2018-05-30T14:29:41Z</time>
      </trkpt>
      <trkpt lat="47.92652" lon="-3.48702">
        <ele>60.74</ele>
        <time>2018-05-30T14:29:57Z</time>
      </trkpt>
      <trkpt lat="47.92644" lon="-3.48667">
        <ele>61.04</ele>
        <time>2018-05-30T14:30:13Z</time>
      </trkpt>
      <trkpt lat="47.92639" lon="-3.48633">
        <ele>61.13</ele>
        <time>2018-05-30T14:30:28Z</time>
      </trkpt>
      <trkpt lat="47.92636" lon="-3.48607">
        <ele>60.87</ele>
        <time>2018-05-30T14:30:41Z</time>
      </trkpt>
      <trkpt lat="47.92635" lon="-3.48603">
        <ele>60.82</ele>
        <time>2018-05-30T14:30:43Z</time>
      </trkpt>
      <trkpt lat="47.92632" lon="-3.48593">
        <ele>60.72</ele>
        <time>2018-05-30T14:30:47Z</time>
      </trkpt>
      <trkpt lat="47.92628" lon="-3.48568">
        <ele>60.26</ele>
        <time>2018-05-30T14:30:57Z</time>
      </trkpt>
      <trkpt lat="47.92615" lon="-3.48536">
        <ele>58.94</ele>
        <time>2018-05-30T14:31:12Z</time>
      </trkpt>
      <trkpt lat="47.92606" lon="-3.48507">
        <ele>56.76</ele>
        <time>2018-05-30T14:31:26Z</time>
      </trkpt>
      <trkpt lat="47.92603" lon="-3.48495">
        <ele>55.6</ele>
        <time>2018-05-30T14:31:31Z</time>
      </trkpt>
      <trkpt lat="47.92603" lon="-3.48474">
        <ele>53.28</ele>
        <time>2018-05-30T14:31:41Z</time>
      </trkpt>
      <trkpt lat="47.92606" lon="-3.48458">
        <ele>51.81</ele>
        <time>2018-05-30T14:31:50Z</time>
      </trkpt>
      <trkpt lat="47.926" lon="-3.48433">
        <ele>51.44</ele>
        <time>2018-05-30T14:32:05Z</time>
      </trkpt>
      <trkpt lat="47.92597" lon="-3.48417">
        <ele>51.79</ele>
        <time>2018-05-30T14:32:16Z</time>
      </trkpt>
      <trkpt lat="47.92595" lon="-3.48402">
        <ele>52.3</ele>
        <time>2018-05-30T14:32:22Z</time>
      </trkpt>
      <trkpt lat="47.92593" lon="-3.48391">
        <ele>52.83</ele>
        <time>2018-05-30T14:32:27Z</time>
      </trkpt>
      <trkpt lat="47.92587" lon="-3.48373">
        <ele>53.55</ele>
        <time>2018-05-30T14:32:33Z</time>
      </trkpt>
      <trkpt lat="47.92585" lon="-3.48356">
        <ele>54.01</ele>
        <time>2018-05-30T14:32:37Z</time>
      </trkpt>
      <trkpt lat="47.92584" lon="-3.48353">
        <ele>54.12</ele>
        <time>2018-05-30T14:32:38Z</time>
      </trkpt>
      <trkpt lat="47.92582" lon="-3.48317">
        <ele>55.87</ele>
        <time>2018-05-30T14:32:48Z</time>
      </trkpt>
      <trkpt lat="47.92582" lon="-3.48314">
        <ele>56.02</ele>
        <time>2018-05-30T14:32:49Z</time>
      </trkpt>
      <trkpt lat="47.92578" lon="-3.48277">
        <ele>57.71</ele>
        <time>2018-05-30T14:33:01Z</time>
      </trkpt>
      <trkpt lat="47.92577" lon="-3.48259">
        <ele>58.66</ele>
        <time>2018-05-30T14:33:09Z</time>
      </trkpt>
      <trkpt lat="47.92577" lon="-3.48257">
        <ele>58.83</ele>
        <time>2018-05-30T14:33:10Z</time>
      </trkpt>
      <trkpt lat="47.92574" lon="-3.48213">
        <ele>59.84</ele>
        <time>2018-05-30T14:33:24Z</time>
      </trkpt>
      <trkpt lat="47.92575" lon="-3.48186">
        <ele>60.43</ele>
        <time>2018-05-30T14:33:37Z</time>
      </trkpt>
      <trkpt lat="47.92576" lon="-3.48183">
        <ele>60.45</ele>
        <time>2018-05-30T14:33:38Z</time>
      </trkpt>
      <trkpt lat="47.92579" lon="-3.48139">
        <ele>60.3</ele>
        <time>2018-05-30T14:33:55Z</time>
      </trkpt>
      <trkpt lat="47.92584" lon="-3.48102">
        <ele>60.38</ele>
        <time>2018-05-30T14:34:10Z</time>
      </trkpt>
      <trkpt lat="47.92586" lon="-3.48096">
        <ele>60.3</ele>
        <time>2018-05-30T14:34:13Z</time>
      </trkpt>
      <trkpt lat="47.926" lon="-3.48083">
        <ele>59.94</ele>
        <time>2018-05-30T14:34:26Z</time>
      </trkpt>
      <trkpt lat="47.92601" lon="-3.48082">
        <ele>59.89</ele>
        <time>2018-05-30T14:34:27Z</time>
      </trkpt>
      <trkpt lat="47.92603" lon="-3.48082">
        <ele>59.83</ele>
        <time>2018-05-30T14:34:28Z</time>
      </trkpt>
      <trkpt lat="47.92624" lon="-3.48093">
        <ele>58.97</ele>
        <time>2018-05-30T14:34:42Z</time>
      </trkpt>
      <trkpt lat="47.92645" lon="-3.48114">
        <ele>58.18</ele>
        <time>2018-05-30T14:34:58Z</time>
      </trkpt>
      <trkpt lat="47.92646" lon="-3.48115">
        <ele>58.12</ele>
        <time>2018-05-30T14:34:59Z</time>
      </trkpt>
      <trkpt lat="47.92647" lon="-3.48116">
        <ele>58.05</ele>
        <time>2018-05-30T14:35:00Z</time>
      </trkpt>
      <trkpt lat="47.92648" lon="-3.48116">
        <ele>57.99</ele>
        <time>2018-05-30T14:35:01Z</time>
      </trkpt>
      <trkpt lat="47.9265" lon="-3.48117">
        <ele>57.93</ele>
        <time>2018-05-30T14:35:02Z</time>
      </trkpt>
      <trkpt lat="47.92674" lon="-3.4813">
        <ele>57.13</ele>
        <time>2018-05-30T14:35:18Z</time>
      </trkpt>
      <trkpt lat="47.92694" lon="-3.48136">
        <ele>56.95</ele>
        <time>2018-05-30T14:35:30Z</time>
      </trkpt>
      <trkpt lat="47.92716" lon="-3.48141">
        <ele>56.98</ele>
        <time>2018-05-30T14:35:45Z</time>
      </trkpt>
      <trkpt lat="47.92732" lon="-3.48147">
        <ele>57.16</ele>
        <time>2018-05-30T14:35:59Z</time>
      </trkpt>
      <trkpt lat="47.92733" lon="-3.48148">
        <ele>57.21</ele>
        <time>2018-05-30T14:36:00Z</time>
      </trkpt>
      <trkpt lat="47.92734" lon="-3.48148">
        <ele>57.26</ele>
        <time>2018-05-30T14:36:01Z</time>
      </trkpt>
      <trkpt lat="47.92737" lon="-3.48149">
        <ele>57.39</ele>
        <time>2018-05-30T14:36:03Z</time>
      </trkpt>
      <trkpt lat="47.92738" lon="-3.48148">
        <ele>57.43</ele>
        <time>2018-05-30T14:36:04Z</time>
      </trkpt>
      <trkpt lat="47.92762" lon="-3.48158">
        <ele>58.13</ele>
        <time>2018-05-30T14:36:19Z</time>
      </trkpt>
      <trkpt lat="47.92777" lon="-3.48164">
        <ele>58.5</ele>
        <time>2018-05-30T14:36:28Z</time>
      </trkpt>
      <trkpt lat="47.92778" lon="-3.48165">
        <ele>58.56</ele>
        <time>2018-05-30T14:36:29Z</time>
      </trkpt>
      <trkpt lat="47.9278" lon="-3.48165">
        <ele>58.66</ele>
        <time>2018-05-30T14:36:30Z</time>
      </trkpt>
      <trkpt lat="47.92781" lon="-3.48167">
        <ele>58.73</ele>
        <time>2018-05-30T14:36:31Z</time>
      </trkpt>
      <trkpt lat="47.92783" lon="-3.48167">
        <ele>58.82</ele>
        <time>2018-05-30T14:36:32Z</time>
      </trkpt>
      <trkpt lat="47.92784" lon="-3.48168">
        <ele>58.89</ele>
        <time>2018-05-30T14:36:33Z</time>
      </trkpt>
      <trkpt lat="47.92786" lon="-3.48169">
        <ele>58.95</ele>
        <time>2018-05-30T14:36:34Z</time>
      </trkpt>
      <trkpt lat="47.92788" lon="-3.4817">
        <ele>58.97</ele>
        <time>2018-05-30T14:36:35Z</time>
      </trkpt>
      <trkpt lat="47.92811" lon="-3.48179">
        <ele>59.19</ele>
        <time>2018-05-30T14:36:50Z</time>
      </trkpt>
      <trkpt lat="47.92834" lon="-3.48186">
        <ele>59.39</ele>
        <time>2018-05-30T14:37:04Z</time>
      </trkpt>
      <trkpt lat="47.92856" lon="-3.48193">
        <ele>59.93</ele>
        <time>2018-05-30T14:37:18Z</time>
      </trkpt>
      <trkpt lat="47.9287" lon="-3.48198">
        <ele>60.38</ele>
        <time>2018-05-30T14:37:28Z</time>
      </trkpt>
      <trkpt lat="47.92871" lon="-3.48198">
        <ele>60.44</ele>
        <time>2018-05-30T14:37:29Z</time>
      </trkpt>
      <trkpt lat="47.92873" lon="-3.48199">
        <ele>60.5</ele>
        <time>2018-05-30T14:37:30Z</time>
      </trkpt>
      <trkpt lat="47.92874" lon="-3.48199">
        <ele>60.54</ele>
        <time>2018-05-30T14:37:31Z</time>
      </trkpt>
      <trkpt lat="47.92875" lon="-3.482">
        <ele>60.57</ele>
        <time>2018-05-30T14:37:32Z</time>
      </trkpt>
      <trkpt lat="47.92877" lon="-3.482">
        <ele>60.59</ele>
        <time>2018-05-30T14:37:33Z</time>
      </trkpt>
      <trkpt lat="47.92878" lon="-3.482">
        <ele>60.6</ele>
        <time>2018-05-30T14:37:34Z</time>
      </trkpt>
      <trkpt lat="47.92879" lon="-3.48201">
        <ele>60.63</ele>
        <time>2018-05-30T14:37:35Z</time>
      </trkpt>
      <trkpt lat="47.92899" lon="-3.48207">
        <ele>60.84</ele>
        <time>2018-05-30T14:37:47Z</time>
      </trkpt>
      <trkpt lat="47.92923" lon="-3.48215">
        <ele>61.14</ele>
        <time>2018-05-30T14:38:02Z</time>
      </trkpt>
      <trkpt lat="47.92936" lon="-3.4822">
        <ele>60.86</ele>
        <time>2018-05-30T14:38:12Z</time>
      </trkpt>
      <trkpt lat="47.92938" lon="-3.4822">
        <ele>60.87</ele>
        <time>2018-05-30T14:38:13Z</time>
      </trkpt>
      <trkpt lat="47.92957" lon="-3.48222">
        <ele>61.06</ele>
        <time>2018-05-30T14:38:26Z</time>
      </trkpt>
      <trkpt lat="47.92958" lon="-3.48224">
        <ele>61.05</ele>
        <time>2018-05-30T14:38:27Z</time>
      </trkpt>
      <trkpt lat="47.92959" lon="-3.48226">
        <ele>61.03</ele>
        <time>2018-05-30T14:38:28Z</time>
      </trkpt>
      <trkpt lat="47.9296" lon="-3.48228">
        <ele>60.99</ele>
        <time>2018-05-30T14:38:29Z</time>
      </trkpt>
      <trkpt lat="47.92966" lon="-3.48239">
        <ele>60.92</ele>
        <time>2018-05-30T14:38:45Z</time>
      </trkpt>
      <trkpt lat="47.92967" lon="-3.48243">
        <ele>60.75</ele>
        <time>2018-05-30T14:38:48Z</time>
      </trkpt>
      <trkpt lat="47.92967" lon="-3.48249">
        <ele>60.5</ele>
        <time>2018-05-30T14:38:53Z</time>
      </trkpt>
      <trkpt lat="47.92967" lon="-3.48251">
        <ele>60.36</ele>
        <time>2018-05-30T14:38:54Z</time>
      </trkpt>
      <trkpt lat="47.92967" lon="-3.48253">
        <ele>60.29</ele>
        <time>2018-05-30T14:38:55Z</time>
      </trkpt>
      <trkpt lat="47.92967" lon="-3.48255">
        <ele>60.22</ele>
        <time>2018-05-30T14:38:56Z</time>
      </trkpt>
      <trkpt lat="47.92967" lon="-3.48264">
        <ele>60.18</ele>
        <time>2018-05-30T14:39:01Z</time>
      </trkpt>
      <trkpt lat="47.92968" lon="-3.48266">
        <ele>60.18</ele>
        <time>2018-05-30T14:39:02Z</time>
      </trkpt>
      <trkpt lat="47.92969" lon="-3.48267">
        <ele>60.18</ele>
        <time>2018-05-30T14:39:03Z</time>
      </trkpt>
      <trkpt lat="47.9297" lon="-3.48268">
        <ele>60.19</ele>
        <time>2018-05-30T14:39:04Z</time>
      </trkpt>
      <trkpt lat="47.92983" lon="-3.48275">
        <ele>60.7</ele>
        <time>2018-05-30T14:39:17Z</time>
      </trkpt>
      <trkpt lat="47.92985" lon="-3.48277">
        <ele>60.74</ele>
        <time>2018-05-30T14:39:18Z</time>
      </trkpt>
      <trkpt lat="47.9299" lon="-3.48278">
        <ele>61.07</ele>
        <time>2018-05-30T14:39:22Z</time>
      </trkpt>
      <trkpt lat="47.92992" lon="-3.48278">
        <ele>61.14</ele>
        <time>2018-05-30T14:39:23Z</time>
      </trkpt>
      <trkpt lat="47.93005" lon="-3.4828">
        <ele>61.7</ele>
        <time>2018-05-30T14:39:34Z</time>
      </trkpt>
      <trkpt lat="47.93006" lon="-3.48281">
        <ele>61.78</ele>
        <time>2018-05-30T14:39:35Z</time>
      </trkpt>
      <trkpt lat="47.93008" lon="-3.48281">
        <ele>61.86</ele>
        <time>2018-05-30T14:39:36Z</time>
      </trkpt>
      <trkpt lat="47.93033" lon="-3.48285">
        <ele>63.55</ele>
        <time>2018-05-30T14:39:52Z</time>
      </trkpt>
      <trkpt lat="47.9306" lon="-3.48291">
        <ele>66.72</ele>
        <time>2018-05-30T14:40:07Z</time>
      </trkpt>
      <trkpt lat="47.93081" lon="-3.48298">
        <ele>69.8</ele>
        <time>2018-05-30T14:40:19Z</time>
      </trkpt>
      <trkpt lat="47.93106" lon="-3.48304">
        <ele>72.94</ele>
        <time>2018-05-30T14:40:36Z</time>
      </trkpt>
      <trkpt lat="47.93134" lon="-3.48308">
        <ele>75.82</ele>
        <time>2018-05-30T14:40:54Z</time>
      </trkpt>
      <trkpt lat="47.9316" lon="-3.48306">
        <ele>78.29</ele>
        <time>2018-05-30T14:41:11Z</time>
      </trkpt>
      <trkpt lat="47.93182" lon="-3.48298">
        <ele>80.98</ele>
        <time>2018-05-30T14:41:27Z</time>
      </trkpt>
      <trkpt lat="47.93184" lon="-3.48297">
        <ele>81.37</ele>
        <time>2018-05-30T14:41:29Z</time>
      </trkpt>
      <trkpt lat="47.93186" lon="-3.48297">
        <ele>81.54</ele>
        <time>2018-05-30T14:41:30Z</time>
      </trkpt>
      <trkpt lat="47.93188" lon="-3.48297">
        <ele>81.69</ele>
        <time>2018-05-30T14:41:31Z</time>
      </trkpt>
      <trkpt lat="47.93189" lon="-3.48296">
        <ele>81.8</ele>
        <time>2018-05-30T14:41:32Z</time>
      </trkpt>
      <trkpt lat="47.93193" lon="-3.48295">
        <ele>82.17</ele>
        <time>2018-05-30T14:41:35Z</time>
      </trkpt>
      <trkpt lat="47.93194" lon="-3.48294">
        <ele>82.31</ele>
        <time>2018-05-30T14:41:36Z</time>
      </trkpt>
      <trkpt lat="47.932" lon="-3.48293">
        <ele>82.77</ele>
        <time>2018-05-30T14:41:40Z</time>
      </trkpt>
      <trkpt lat="47.93201" lon="-3.48293">
        <ele>82.89</ele>
        <time>2018-05-30T14:41:41Z</time>
      </trkpt>
      <trkpt lat="47.93202" lon="-3.48292">
        <ele>82.98</ele>
        <time>2018-05-30T14:41:42Z</time>
      </trkpt>
      <trkpt lat="47.93203" lon="-3.48292">
        <ele>83.08</ele>
        <time>2018-05-30T14:41:43Z</time>
      </trkpt>
      <trkpt lat="47.93205" lon="-3.48291">
        <ele>83.18</ele>
        <time>2018-05-30T14:41:44Z</time>
      </trkpt>
      <trkpt lat="47.93206" lon="-3.4829">
        <ele>83.29</ele>
        <time>2018-05-30T14:41:45Z</time>
      </trkpt>
      <trkpt lat="47.93208" lon="-3.48289">
        <ele>83.4</ele>
        <time>2018-05-30T14:41:46Z</time>
      </trkpt>
      <trkpt lat="47.93209" lon="-3.48289">
        <ele>83.5</ele>
        <time>2018-05-30T14:41:47Z</time>
      </trkpt>
      <trkpt lat="47.9321" lon="-3.48287">
        <ele>83.6</ele>
        <time>2018-05-30T14:41:48Z</time>
      </trkpt>
      <trkpt lat="47.93212" lon="-3.48286">
        <ele>83.76</ele>
        <time>2018-05-30T14:41:49Z</time>
      </trkpt>
      <trkpt lat="47.93213" lon="-3.48286">
        <ele>83.82</ele>
        <time>2018-05-30T14:41:50Z</time>
      </trkpt>
      <trkpt lat="47.93215" lon="-3.48286">
        <ele>83.88</ele>
        <time>2018-05-30T14:41:51Z</time>
      </trkpt>
      <trkpt lat="47.9324" lon="-3.48273">
        <ele>84.68</ele>
        <time>2018-05-30T14:42:09Z</time>
      </trkpt>
      <trkpt lat="47.93255" lon="-3.48257">
        <ele>84.53</ele>
        <time>2018-05-30T14:42:21Z</time>
      </trkpt>
      <trkpt lat="47.93256" lon="-3.48255">
        <ele>84.55</ele>
        <time>2018-05-30T14:42:22Z</time>
      </trkpt>
      <trkpt lat="47.93272" lon="-3.48239">
        <ele>84.19</ele>
        <time>2018-05-30T14:42:35Z</time>
      </trkpt>
      <trkpt lat="47.93288" lon="-3.48229">
        <ele>83.93</ele>
        <time>2018-05-30T14:42:47Z</time>
      </trkpt>
      <trkpt lat="47.93305" lon="-3.48213">
        <ele>83.67</ele>
        <time>2018-05-30T14:43:00Z</time>
      </trkpt>
      <trkpt lat="47.93324" lon="-3.48184">
        <ele>83.5</ele>
        <time>2018-05-30T14:43:16Z</time>
      </trkpt>
      <trkpt lat="47.93329" lon="-3.4818">
        <ele>83.62</ele>
        <time>2018-05-30T14:43:20Z</time>
      </trkpt>
      <trkpt lat="47.9333" lon="-3.48178">
        <ele>83.64</ele>
        <time>2018-05-30T14:43:21Z</time>
      </trkpt>
      <trkpt lat="47.93331" lon="-3.48177">
        <ele>83.65</ele>
        <time>2018-05-30T14:43:22Z</time>
      </trkpt>
      <trkpt lat="47.93332" lon="-3.48176">
        <ele>83.69</ele>
        <time>2018-05-30T14:43:23Z</time>
      </trkpt>
      <trkpt lat="47.93334" lon="-3.48175">
        <ele>83.7</ele>
        <time>2018-05-30T14:43:24Z</time>
      </trkpt>
      <trkpt lat="47.93335" lon="-3.48174">
        <ele>83.67</ele>
        <time>2018-05-30T14:43:25Z</time>
      </trkpt>
      <trkpt lat="47.93336" lon="-3.48173">
        <ele>83.68</ele>
        <time>2018-05-30T14:43:26Z</time>
      </trkpt>
      <trkpt lat="47.93354" lon="-3.48153">
        <ele>83.79</ele>
        <time>2018-05-30T14:43:43Z</time>
      </trkpt>
      <trkpt lat="47.93358" lon="-3.48149">
        <ele>83.69</ele>
        <time>2018-05-30T14:43:51Z</time>
      </trkpt>
      <trkpt lat="47.93359" lon="-3.48146">
        <ele>83.65</ele>
        <time>2018-05-30T14:43:53Z</time>
      </trkpt>
      <trkpt lat="47.9336" lon="-3.48145">
        <ele>83.67</ele>
        <time>2018-05-30T14:43:54Z</time>
      </trkpt>
      <trkpt lat="47.93364" lon="-3.48142">
        <ele>83.79</ele>
        <time>2018-05-30T14:43:57Z</time>
      </trkpt>
      <trkpt lat="47.93365" lon="-3.4814">
        <ele>83.84</ele>
        <time>2018-05-30T14:43:58Z</time>
      </trkpt>
      <trkpt lat="47.93381" lon="-3.48109">
        <ele>84.49</ele>
        <time>2018-05-30T14:44:14Z</time>
      </trkpt>
      <trkpt lat="47.93388" lon="-3.48098">
        <ele>84.83</ele>
        <time>2018-05-30T14:44:20Z</time>
      </trkpt>
      <trkpt lat="47.93389" lon="-3.48096">
        <ele>84.88</ele>
        <time>2018-05-30T14:44:21Z</time>
      </trkpt>
      <trkpt lat="47.93391" lon="-3.48094">
        <ele>84.89</ele>
        <time>2018-05-30T14:44:22Z</time>
      </trkpt>
      <trkpt lat="47.93403" lon="-3.48066">
        <ele>85.11</ele>
        <time>2018-05-30T14:44:37Z</time>
      </trkpt>
      <trkpt lat="47.93404" lon="-3.48055">
        <ele>85.4</ele>
        <time>2018-05-30T14:44:42Z</time>
      </trkpt>
      <trkpt lat="47.93404" lon="-3.48053">
        <ele>85.41</ele>
        <time>2018-05-30T14:44:43Z</time>
      </trkpt>
      <trkpt lat="47.93404" lon="-3.48051">
        <ele>85.4</ele>
        <time>2018-05-30T14:44:44Z</time>
      </trkpt>
      <trkpt lat="47.93404" lon="-3.48048">
        <ele>85.36</ele>
        <time>2018-05-30T14:44:45Z</time>
      </trkpt>
      <trkpt lat="47.93404" lon="-3.48046">
        <ele>85.31</ele>
        <time>2018-05-30T14:44:46Z</time>
      </trkpt>
      <trkpt lat="47.934" lon="-3.48012">
        <ele>84.74</ele>
        <time>2018-05-30T14:45:01Z</time>
      </trkpt>
      <trkpt lat="47.93394" lon="-3.47973">
        <ele>83.54</ele>
        <time>2018-05-30T14:45:18Z</time>
      </trkpt>
      <trkpt lat="47.93401" lon="-3.47952">
        <ele>82.61</ele>
        <time>2018-05-30T14:45:30Z</time>
      </trkpt>
      <trkpt lat="47.9342" lon="-3.47946">
        <ele>82.66</ele>
        <time>2018-05-30T14:45:42Z</time>
      </trkpt>
      <trkpt lat="47.93445" lon="-3.47939">
        <ele>83.11</ele>
        <time>2018-05-30T14:45:58Z</time>
      </trkpt>
      <trkpt lat="47.93475" lon="-3.47929">
        <ele>83.41</ele>
        <time>2018-05-30T14:46:16Z</time>
      </trkpt>
      <trkpt lat="47.935" lon="-3.47914">
        <ele>82.92</ele>
        <time>2018-05-30T14:46:33Z</time>
      </trkpt>
      <trkpt lat="47.93532" lon="-3.47901">
        <ele>82.46</ele>
        <time>2018-05-30T14:46:51Z</time>
      </trkpt>
      <trkpt lat="47.93553" lon="-3.47887">
        <ele>82.22</ele>
        <time>2018-05-30T14:47:05Z</time>
      </trkpt>
      <trkpt lat="47.93575" lon="-3.47878">
        <ele>82.94</ele>
        <time>2018-05-30T14:47:19Z</time>
      </trkpt>
      <trkpt lat="47.93596" lon="-3.47869">
        <ele>85.01</ele>
        <time>2018-05-30T14:47:32Z</time>
      </trkpt>
      <trkpt lat="47.93617" lon="-3.47866">
        <ele>86.69</ele>
        <time>2018-05-30T14:47:46Z</time>
      </trkpt>
      <trkpt lat="47.93632" lon="-3.47862">
        <ele>87.74</ele>
        <time>2018-05-30T14:47:58Z</time>
      </trkpt>
      <trkpt lat="47.93638" lon="-3.4786">
        <ele>88.28</ele>
        <time>2018-05-30T14:48:05Z</time>
      </trkpt>
      <trkpt lat="47.93639" lon="-3.4786">
        <ele>88.32</ele>
        <time>2018-05-30T14:48:06Z</time>
      </trkpt>
      <trkpt lat="47.93641" lon="-3.4786">
        <ele>88.36</ele>
        <time>2018-05-30T14:48:07Z</time>
      </trkpt>
      <trkpt lat="47.93642" lon="-3.4786">
        <ele>88.38</ele>
        <time>2018-05-30T14:48:08Z</time>
      </trkpt>
      <trkpt lat="47.93644" lon="-3.47859">
        <ele>88.42</ele>
        <time>2018-05-30T14:48:09Z</time>
      </trkpt>
      <trkpt lat="47.93646" lon="-3.47854">
        <ele>89.19</ele>
        <time>2018-05-30T14:54:46Z</time>
      </trkpt>
      <trkpt lat="47.93645" lon="-3.47853">
        <ele>89.1</ele>
        <time>2018-05-30T14:54:47Z</time>
      </trkpt>
      <trkpt lat="47.93636" lon="-3.4784">
        <ele>88.81</ele>
        <time>2018-05-30T14:54:57Z</time>
      </trkpt>
      <trkpt lat="47.93629" lon="-3.47828">
        <ele>88.7</ele>
        <time>2018-05-30T14:55:06Z</time>
      </trkpt>
      <trkpt lat="47.93628" lon="-3.47827">
        <ele>88.62</ele>
        <time>2018-05-30T14:55:07Z</time>
      </trkpt>
      <trkpt lat="47.93626" lon="-3.47824">
        <ele>88.5</ele>
        <time>2018-05-30T14:55:09Z</time>
      </trkpt>
      <trkpt lat="47.93625" lon="-3.47822">
        <ele>88.43</ele>
        <time>2018-05-30T14:55:10Z</time>
      </trkpt>
      <trkpt lat="47.93624" lon="-3.4782">
        <ele>88.35</ele>
        <time>2018-05-30T14:55:11Z</time>
      </trkpt>
      <trkpt lat="47.93624" lon="-3.47819">
        <ele>88.25</ele>
        <time>2018-05-30T14:55:12Z</time>
      </trkpt>
      <trkpt lat="47.93623" lon="-3.47818">
        <ele>88.17</ele>
        <time>2018-05-30T14:55:13Z</time>
      </trkpt>
      <trkpt lat="47.93622" lon="-3.47817">
        <ele>88.1</ele>
        <time>2018-05-30T14:55:14Z</time>
      </trkpt>
      <trkpt lat="47.93621" lon="-3.47816">
        <ele>88.03</ele>
        <time>2018-05-30T14:55:15Z</time>
      </trkpt>
      <trkpt lat="47.93617" lon="-3.47814">
        <ele>87.75</ele>
        <time>2018-05-30T14:55:19Z</time>
      </trkpt>
      <trkpt lat="47.93616" lon="-3.47813">
        <ele>87.65</ele>
        <time>2018-05-30T14:55:20Z</time>
      </trkpt>
      <trkpt lat="47.93614" lon="-3.47813">
        <ele>87.54</ele>
        <time>2018-05-30T14:55:21Z</time>
      </trkpt>
      <trkpt lat="47.93599" lon="-3.47804">
        <ele>86.11</ele>
        <time>2018-05-30T14:55:34Z</time>
      </trkpt>
      <trkpt lat="47.93592" lon="-3.47786">
        <ele>85.09</ele>
        <time>2018-05-30T14:55:44Z</time>
      </trkpt>
      <trkpt lat="47.93592" lon="-3.47784">
        <ele>85.01</ele>
        <time>2018-05-30T14:55:45Z</time>
      </trkpt>
      <trkpt lat="47.9359" lon="-3.47758">
        <ele>84.79</ele>
        <time>2018-05-30T14:55:57Z</time>
      </trkpt>
      <trkpt lat="47.9359" lon="-3.47756">
        <ele>84.83</ele>
        <time>2018-05-30T14:55:58Z</time>
      </trkpt>
      <trkpt lat="47.93589" lon="-3.47754">
        <ele>84.86</ele>
        <time>2018-05-30T14:55:59Z</time>
      </trkpt>
      <trkpt lat="47.93589" lon="-3.47752">
        <ele>84.85</ele>
        <time>2018-05-30T14:56:00Z</time>
      </trkpt>
      <trkpt lat="47.93589" lon="-3.47749">
        <ele>84.79</ele>
        <time>2018-05-30T14:56:01Z</time>
      </trkpt>
      <trkpt lat="47.93589" lon="-3.47747">
        <ele>84.79</ele>
        <time>2018-05-30T14:56:02Z</time>
      </trkpt>
      <trkpt lat="47.93589" lon="-3.47745">
        <ele>84.74</ele>
        <time>2018-05-30T14:56:03Z</time>
      </trkpt>
      <trkpt lat="47.93588" lon="-3.47743">
        <ele>84.73</ele>
        <time>2018-05-30T14:56:04Z</time>
      </trkpt>
      <trkpt lat="47.93588" lon="-3.47742">
        <ele>84.78</ele>
        <time>2018-05-30T14:56:05Z</time>
      </trkpt>
      <trkpt lat="47.93588" lon="-3.4774">
        <ele>84.76</ele>
        <time>2018-05-30T14:56:06Z</time>
      </trkpt>
      <trkpt lat="47.93588" lon="-3.47738">
        <ele>84.79</ele>
        <time>2018-05-30T14:56:07Z</time>
      </trkpt>
      <trkpt lat="47.93588" lon="-3.47736">
        <ele>84.85</ele>
        <time>2018-05-30T14:56:08Z</time>
      </trkpt>
      <trkpt lat="47.93589" lon="-3.47703">
        <ele>85.25</ele>
        <time>2018-05-30T14:56:24Z</time>
      </trkpt>
      <trkpt lat="47.93592" lon="-3.47683">
        <ele>85.56</ele>
        <time>2018-05-30T14:56:32Z</time>
      </trkpt>
      <trkpt lat="47.93593" lon="-3.47681">
        <ele>85.69</ele>
        <time>2018-05-30T14:56:33Z</time>
      </trkpt>
      <trkpt lat="47.93593" lon="-3.47678">
        <ele>85.8</ele>
        <time>2018-05-30T14:56:34Z</time>
      </trkpt>
      <trkpt lat="47.93594" lon="-3.47676">
        <ele>85.88</ele>
        <time>2018-05-30T14:56:35Z</time>
      </trkpt>
      <trkpt lat="47.93595" lon="-3.47674">
        <ele>85.96</ele>
        <time>2018-05-30T14:56:36Z</time>
      </trkpt>
      <trkpt lat="47.93598" lon="-3.47665">
        <ele>86.18</ele>
        <time>2018-05-30T14:56:41Z</time>
      </trkpt>
      <trkpt lat="47.93611" lon="-3.47635">
        <ele>87.74</ele>
        <time>2018-05-30T14:56:57Z</time>
      </trkpt>
      <trkpt lat="47.93618" lon="-3.47613">
        <ele>88.97</ele>
        <time>2018-05-30T14:57:10Z</time>
      </trkpt>
      <trkpt lat="47.93624" lon="-3.47574">
        <ele>89.54</ele>
        <time>2018-05-30T14:57:27Z</time>
      </trkpt>
      <trkpt lat="47.93627" lon="-3.47539">
        <ele>89.8</ele>
        <time>2018-05-30T14:57:43Z</time>
      </trkpt>
      <trkpt lat="47.93627" lon="-3.47537">
        <ele>89.87</ele>
        <time>2018-05-30T14:57:44Z</time>
      </trkpt>
      <trkpt lat="47.93628" lon="-3.47535">
        <ele>89.98</ele>
        <time>2018-05-30T14:57:45Z</time>
      </trkpt>
      <trkpt lat="47.93628" lon="-3.47533">
        <ele>90.07</ele>
        <time>2018-05-30T14:57:46Z</time>
      </trkpt>
      <trkpt lat="47.93632" lon="-3.47506">
        <ele>90.63</ele>
        <time>2018-05-30T14:57:58Z</time>
      </trkpt>
      <trkpt lat="47.93633" lon="-3.47504">
        <ele>90.68</ele>
        <time>2018-05-30T14:57:59Z</time>
      </trkpt>
      <trkpt lat="47.93633" lon="-3.47502">
        <ele>90.81</ele>
        <time>2018-05-30T14:58:00Z</time>
      </trkpt>
      <trkpt lat="47.93637" lon="-3.47493">
        <ele>91.06</ele>
        <time>2018-05-30T14:58:05Z</time>
      </trkpt>
      <trkpt lat="47.93648" lon="-3.4746">
        <ele>91.7</ele>
        <time>2018-05-30T14:58:20Z</time>
      </trkpt>
      <trkpt lat="47.93658" lon="-3.47429">
        <ele>92.51</ele>
        <time>2018-05-30T14:58:36Z</time>
      </trkpt>
      <trkpt lat="47.93661" lon="-3.47427">
        <ele>92.63</ele>
        <time>2018-05-30T14:58:46Z</time>
      </trkpt>
      <trkpt lat="47.93662" lon="-3.47426">
        <ele>92.66</ele>
        <time>2018-05-30T14:58:47Z</time>
      </trkpt>
      <trkpt lat="47.93663" lon="-3.47425">
        <ele>92.7</ele>
        <time>2018-05-30T14:58:48Z</time>
      </trkpt>
      <trkpt lat="47.93664" lon="-3.47424">
        <ele>92.75</ele>
        <time>2018-05-30T14:58:49Z</time>
      </trkpt>
      <trkpt lat="47.93665" lon="-3.47423">
        <ele>92.78</ele>
        <time>2018-05-30T14:58:50Z</time>
      </trkpt>
      <trkpt lat="47.93683" lon="-3.47389">
        <ele>92.69</ele>
        <time>2018-05-30T14:59:09Z</time>
      </trkpt>
      <trkpt lat="47.93694" lon="-3.47375">
        <ele>92.72</ele>
        <time>2018-05-30T14:59:18Z</time>
      </trkpt>
      <trkpt lat="47.93696" lon="-3.47369">
        <ele>92.73</ele>
        <time>2018-05-30T14:59:21Z</time>
      </trkpt>
      <trkpt lat="47.93711" lon="-3.47341">
        <ele>92.02</ele>
        <time>2018-05-30T14:59:37Z</time>
      </trkpt>
      <trkpt lat="47.93729" lon="-3.47316">
        <ele>90.27</ele>
        <time>2018-05-30T14:59:53Z</time>
      </trkpt>
      <trkpt lat="47.93745" lon="-3.47293">
        <ele>88.94</ele>
        <time>2018-05-30T15:00:07Z</time>
      </trkpt>
      <trkpt lat="47.93759" lon="-3.47268">
        <ele>87.42</ele>
        <time>2018-05-30T15:00:22Z</time>
      </trkpt>
      <trkpt lat="47.9378" lon="-3.47236">
        <ele>85.25</ele>
        <time>2018-05-30T15:00:38Z</time>
      </trkpt>
      <trkpt lat="47.93802" lon="-3.47205">
        <ele>82.65</ele>
        <time>2018-05-30T15:00:55Z</time>
      </trkpt>
      <trkpt lat="47.9382" lon="-3.47186">
        <ele>80.59</ele>
        <time>2018-05-30T15:01:09Z</time>
      </trkpt>
      <trkpt lat="47.93829" lon="-3.47177">
        <ele>79.19</ele>
        <time>2018-05-30T15:01:17Z</time>
      </trkpt>
      <trkpt lat="47.9383" lon="-3.47176">
        <ele>78.83</ele>
        <time>2018-05-30T15:01:18Z</time>
      </trkpt>
      <trkpt lat="47.93831" lon="-3.47176">
        <ele>78.66</ele>
        <time>2018-05-30T15:01:19Z</time>
      </trkpt>
      <trkpt lat="47.93833" lon="-3.47175">
        <ele>78.51</ele>
        <time>2018-05-30T15:01:20Z</time>
      </trkpt>
      <trkpt lat="47.93834" lon="-3.47174">
        <ele>78.36</ele>
        <time>2018-05-30T15:01:21Z</time>
      </trkpt>
      <trkpt lat="47.93835" lon="-3.47173">
        <ele>78.18</ele>
        <time>2018-05-30T15:01:22Z</time>
      </trkpt>
      <trkpt lat="47.93837" lon="-3.47172">
        <ele>77.99</ele>
        <time>2018-05-30T15:01:23Z</time>
      </trkpt>
      <trkpt lat="47.93838" lon="-3.47172">
        <ele>77.82</ele>
        <time>2018-05-30T15:01:24Z</time>
      </trkpt>
      <trkpt lat="47.93855" lon="-3.47169">
        <ele>75.67</ele>
        <time>2018-05-30T15:01:39Z</time>
      </trkpt>
      <trkpt lat="47.93872" lon="-3.47159">
        <ele>72.91</ele>
        <time>2018-05-30T15:01:55Z</time>
      </trkpt>
      <trkpt lat="47.93888" lon="-3.4715">
        <ele>70.64</ele>
        <time>2018-05-30T15:02:07Z</time>
      </trkpt>
      <trkpt lat="47.9389" lon="-3.4715">
        <ele>70.48</ele>
        <time>2018-05-30T15:02:08Z</time>
      </trkpt>
      <trkpt lat="47.93908" lon="-3.47143">
        <ele>68.54</ele>
        <time>2018-05-30T15:02:17Z</time>
      </trkpt>
      <trkpt lat="47.93927" lon="-3.47125">
        <ele>65.38</ele>
        <time>2018-05-30T15:02:31Z</time>
      </trkpt>
      <trkpt lat="47.93939" lon="-3.4711">
        <ele>63.14</ele>
        <time>2018-05-30T15:02:43Z</time>
      </trkpt>
      <trkpt lat="47.93942" lon="-3.47106">
        <ele>62.65</ele>
        <time>2018-05-30T15:02:45Z</time>
      </trkpt>
      <trkpt lat="47.93944" lon="-3.47105">
        <ele>62.45</ele>
        <time>2018-05-30T15:02:46Z</time>
      </trkpt>
      <trkpt lat="47.93949" lon="-3.47097">
        <ele>61.64</ele>
        <time>2018-05-30T15:02:51Z</time>
      </trkpt>
      <trkpt lat="47.9395" lon="-3.47095">
        <ele>61.48</ele>
        <time>2018-05-30T15:02:52Z</time>
      </trkpt>
      <trkpt lat="47.93952" lon="-3.47094">
        <ele>61.32</ele>
        <time>2018-05-30T15:02:53Z</time>
      </trkpt>
      <trkpt lat="47.9396" lon="-3.47079">
        <ele>60.25</ele>
        <time>2018-05-30T15:03:00Z</time>
      </trkpt>
      <trkpt lat="47.93962" lon="-3.47078">
        <ele>60.06</ele>
        <time>2018-05-30T15:03:01Z</time>
      </trkpt>
      <trkpt lat="47.93963" lon="-3.47077">
        <ele>59.85</ele>
        <time>2018-05-30T15:03:02Z</time>
      </trkpt>
      <trkpt lat="47.93964" lon="-3.47075">
        <ele>59.66</ele>
        <time>2018-05-30T15:03:03Z</time>
      </trkpt>
      <trkpt lat="47.93965" lon="-3.47073">
        <ele>59.51</ele>
        <time>2018-05-30T15:03:04Z</time>
      </trkpt>
      <trkpt lat="47.93966" lon="-3.47071">
        <ele>59.36</ele>
        <time>2018-05-30T15:03:05Z</time>
      </trkpt>
      <trkpt lat="47.93967" lon="-3.47069">
        <ele>59.2</ele>
        <time>2018-05-30T15:03:06Z</time>
      </trkpt>
      <trkpt lat="47.93967" lon="-3.47067">
        <ele>59.03</ele>
        <time>2018-05-30T15:03:07Z</time>
      </trkpt>
      <trkpt lat="47.93968" lon="-3.47065">
        <ele>58.87</ele>
        <time>2018-05-30T15:03:08Z</time>
      </trkpt>
      <trkpt lat="47.9398" lon="-3.4704">
        <ele>57.09</ele>
        <time>2018-05-30T15:03:19Z</time>
      </trkpt>
      <trkpt lat="47.94002" lon="-3.47023">
        <ele>54.79</ele>
        <time>2018-05-30T15:03:32Z</time>
      </trkpt>
      <trkpt lat="47.94009" lon="-3.47019">
        <ele>53.98</ele>
        <time>2018-05-30T15:03:37Z</time>
      </trkpt>
      <trkpt lat="47.94011" lon="-3.47018">
        <ele>53.8</ele>
        <time>2018-05-30T15:03:38Z</time>
      </trkpt>
      <trkpt lat="47.94012" lon="-3.47018">
        <ele>53.61</ele>
        <time>2018-05-30T15:03:39Z</time>
      </trkpt>
      <trkpt lat="47.94013" lon="-3.47019">
        <ele>53.44</ele>
        <time>2018-05-30T15:03:40Z</time>
      </trkpt>
      <trkpt lat="47.94019" lon="-3.4702">
        <ele>52.95</ele>
        <time>2018-05-30T15:03:43Z</time>
      </trkpt>
      <trkpt lat="47.94021" lon="-3.47019">
        <ele>52.77</ele>
        <time>2018-05-30T15:03:44Z</time>
      </trkpt>
      <trkpt lat="47.94023" lon="-3.47018">
        <ele>52.34</ele>
        <time>2018-05-30T15:03:45Z</time>
      </trkpt>
      <trkpt lat="47.94025" lon="-3.47017">
        <ele>52.1</ele>
        <time>2018-05-30T15:03:46Z</time>
      </trkpt>
      <trkpt lat="47.94028" lon="-3.47016">
        <ele>51.86</ele>
        <time>2018-05-30T15:03:47Z</time>
      </trkpt>
      <trkpt lat="47.94029" lon="-3.47015">
        <ele>51.61</ele>
        <time>2018-05-30T15:03:48Z</time>
      </trkpt>
      <trkpt lat="47.9403" lon="-3.47012">
        <ele>51.32</ele>
        <time>2018-05-30T15:03:49Z</time>
      </trkpt>
      <trkpt lat="47.94032" lon="-3.47013">
        <ele>51.05</ele>
        <time>2018-05-30T15:03:50Z</time>
      </trkpt>
      <trkpt lat="47.94034" lon="-3.47013">
        <ele>50.81</ele>
        <time>2018-05-30T15:03:51Z</time>
      </trkpt>
      <trkpt lat="47.94037" lon="-3.47005">
        <ele>49.83</ele>
        <time>2018-05-30T15:03:56Z</time>
      </trkpt>
      <trkpt lat="47.94041" lon="-3.46993">
        <ele>48.5</ele>
        <time>2018-05-30T15:04:04Z</time>
      </trkpt>
      <trkpt lat="47.94041" lon="-3.46991">
        <ele>48.33</ele>
        <time>2018-05-30T15:04:05Z</time>
      </trkpt>
      <trkpt lat="47.94041" lon="-3.46971">
        <ele>45.98</ele>
        <time>2018-05-30T15:04:18Z</time>
      </trkpt>
      <trkpt lat="47.9404" lon="-3.46943">
        <ele>43.57</ele>
        <time>2018-05-30T15:04:33Z</time>
      </trkpt>
      <trkpt lat="47.94035" lon="-3.46895">
        <ele>41.12</ele>
        <time>2018-05-30T15:04:50Z</time>
      </trkpt>
      <trkpt lat="47.94036" lon="-3.46837">
        <ele>38.02</ele>
        <time>2018-05-30T15:05:08Z</time>
      </trkpt>
      <trkpt lat="47.9404" lon="-3.46798">
        <ele>35.5</ele>
        <time>2018-05-30T15:05:22Z</time>
      </trkpt>
      <trkpt lat="47.94049" lon="-3.46756">
        <ele>32.79</ele>
        <time>2018-05-30T15:05:38Z</time>
      </trkpt>
      <trkpt lat="47.94053" lon="-3.46727">
        <ele>30.74</ele>
        <time>2018-05-30T15:05:50Z</time>
      </trkpt>
      <trkpt lat="47.94052" lon="-3.46698">
        <ele>28.49</ele>
        <time>2018-05-30T15:06:02Z</time>
      </trkpt>
      <trkpt lat="47.94045" lon="-3.46672">
        <ele>26.61</ele>
        <time>2018-05-30T15:06:14Z</time>
      </trkpt>
      <trkpt lat="47.94046" lon="-3.46669">
        <ele>26.44</ele>
        <time>2018-05-30T15:06:15Z</time>
      </trkpt>
      <trkpt lat="47.94046" lon="-3.46666">
        <ele>26.26</ele>
        <time>2018-05-30T15:06:16Z</time>
      </trkpt>
      <trkpt lat="47.94045" lon="-3.46638">
        <ele>25.26</ele>
        <time>2018-05-30T15:06:24Z</time>
      </trkpt>
      <trkpt lat="47.94046" lon="-3.46637">
        <ele>25.09</ele>
        <time>2018-05-30T15:06:25Z</time>
      </trkpt>
      <trkpt lat="47.94065" lon="-3.4661">
        <ele>23.37</ele>
        <time>2018-05-30T15:06:39Z</time>
      </trkpt>
      <trkpt lat="47.94075" lon="-3.46597">
        <ele>22.94</ele>
        <time>2018-05-30T15:06:46Z</time>
      </trkpt>
      <trkpt lat="47.94075" lon="-3.46594">
        <ele>22.87</ele>
        <time>2018-05-30T15:06:47Z</time>
      </trkpt>
      <trkpt lat="47.94076" lon="-3.46592">
        <ele>22.81</ele>
        <time>2018-05-30T15:06:48Z</time>
      </trkpt>
      <trkpt lat="47.9408" lon="-3.4658">
        <ele>22.49</ele>
        <time>2018-05-30T15:06:53Z</time>
      </trkpt>
      <trkpt lat="47.9408" lon="-3.46578">
        <ele>22.44</ele>
        <time>2018-05-30T15:06:54Z</time>
      </trkpt>
      <trkpt lat="47.94081" lon="-3.46575">
        <ele>22.4</ele>
        <time>2018-05-30T15:06:55Z</time>
      </trkpt>
      <trkpt lat="47.94082" lon="-3.46573">
        <ele>22.36</ele>
        <time>2018-05-30T15:06:56Z</time>
      </trkpt>
      <trkpt lat="47.94082" lon="-3.4657">
        <ele>22.3</ele>
        <time>2018-05-30T15:06:57Z</time>
      </trkpt>
      <trkpt lat="47.94082" lon="-3.46566">
        <ele>22.28</ele>
        <time>2018-05-30T15:06:58Z</time>
      </trkpt>
      <trkpt lat="47.94083" lon="-3.4656">
        <ele>22.24</ele>
        <time>2018-05-30T15:06:59Z</time>
      </trkpt>
      <trkpt lat="47.94083" lon="-3.46554">
        <ele>22.2</ele>
        <time>2018-05-30T15:07:00Z</time>
      </trkpt>
      <trkpt lat="47.94083" lon="-3.46547">
        <ele>22.19</ele>
        <time>2018-05-30T15:07:01Z</time>
      </trkpt>
      <trkpt lat="47.94078" lon="-3.46509">
        <ele>22.68</ele>
        <time>2018-05-30T15:07:10Z</time>
      </trkpt>
      <trkpt lat="47.94067" lon="-3.46471">
        <ele>23.69</ele>
        <time>2018-05-30T15:07:20Z</time>
      </trkpt>
      <trkpt lat="47.94066" lon="-3.46466">
        <ele>24.1</ele>
        <time>2018-05-30T15:07:22Z</time>
      </trkpt>
      <trkpt lat="47.94066" lon="-3.46464">
        <ele>24.28</ele>
        <time>2018-05-30T15:07:23Z</time>
      </trkpt>
      <trkpt lat="47.94066" lon="-3.46458">
        <ele>24.8</ele>
        <time>2018-05-30T15:07:26Z</time>
      </trkpt>
      <trkpt lat="47.94067" lon="-3.46456">
        <ele>25.07</ele>
        <time>2018-05-30T15:07:27Z</time>
      </trkpt>
      <trkpt lat="47.94067" lon="-3.46452">
        <ele>25.28</ele>
        <time>2018-05-30T15:07:29Z</time>
      </trkpt>
      <trkpt lat="47.94066" lon="-3.46451">
        <ele>25.37</ele>
        <time>2018-05-30T15:07:30Z</time>
      </trkpt>
      <trkpt lat="47.94066" lon="-3.46449">
        <ele>25.49</ele>
        <time>2018-05-30T15:07:31Z</time>
      </trkpt>
      <trkpt lat="47.94065" lon="-3.46442">
        <ele>25.98</ele>
        <time>2018-05-30T15:07:35Z</time>
      </trkpt>
      <trkpt lat="47.94065" lon="-3.46439">
        <ele>26.12</ele>
        <time>2018-05-30T15:07:36Z</time>
      </trkpt>
      <trkpt lat="47.94063" lon="-3.4643">
        <ele>26.48</ele>
        <time>2018-05-30T15:07:39Z</time>
      </trkpt>
      <trkpt lat="47.94063" lon="-3.46426">
        <ele>26.6</ele>
        <time>2018-05-30T15:07:40Z</time>
      </trkpt>
      <trkpt lat="47.94064" lon="-3.46422">
        <ele>26.72</ele>
        <time>2018-05-30T15:07:41Z</time>
      </trkpt>
      <trkpt lat="47.94064" lon="-3.46418">
        <ele>26.86</ele>
        <time>2018-05-30T15:07:42Z</time>
      </trkpt>
      <trkpt lat="47.94063" lon="-3.46415">
        <ele>26.99</ele>
        <time>2018-05-30T15:07:43Z</time>
      </trkpt>
      <trkpt lat="47.94063" lon="-3.46411">
        <ele>27.11</ele>
        <time>2018-05-30T15:07:44Z</time>
      </trkpt>
      <trkpt lat="47.94062" lon="-3.46408">
        <ele>27.23</ele>
        <time>2018-05-30T15:07:45Z</time>
      </trkpt>
      <trkpt lat="47.94062" lon="-3.46404">
        <ele>27.34</ele>
        <time>2018-05-30T15:07:46Z</time>
      </trkpt>
      <trkpt lat="47.94062" lon="-3.46401">
        <ele>27.45</ele>
        <time>2018-05-30T15:07:47Z</time>
      </trkpt>
      <trkpt lat="47.94062" lon="-3.46398">
        <ele>27.53</ele>
        <time>2018-05-30T15:07:48Z</time>
      </trkpt>
      <trkpt lat="47.94063" lon="-3.46394">
        <ele>27.62</ele>
        <time>2018-05-30T15:07:49Z</time>
      </trkpt>
      <trkpt lat="47.94064" lon="-3.46354">
        <ele>29.59</ele>
        <time>2018-05-30T15:08:01Z</time>
      </trkpt>
      <trkpt lat="47.94066" lon="-3.46345">
        <ele>30.24</ele>
        <time>2018-05-30T15:08:05Z</time>
      </trkpt>
      <trkpt lat="47.94066" lon="-3.46342">
        <ele>30.39</ele>
        <time>2018-05-30T15:08:06Z</time>
      </trkpt>
      <trkpt lat="47.94065" lon="-3.46339">
        <ele>30.54</ele>
        <time>2018-05-30T15:08:07Z</time>
      </trkpt>
      <trkpt lat="47.94065" lon="-3.46337">
        <ele>30.68</ele>
        <time>2018-05-30T15:08:08Z</time>
      </trkpt>
      <trkpt lat="47.94065" lon="-3.46334">
        <ele>30.8</ele>
        <time>2018-05-30T15:08:09Z</time>
      </trkpt>
      <trkpt lat="47.94066" lon="-3.46332">
        <ele>30.94</ele>
        <time>2018-05-30T15:08:10Z</time>
      </trkpt>
      <trkpt lat="47.94066" lon="-3.4633">
        <ele>31.07</ele>
        <time>2018-05-30T15:08:11Z</time>
      </trkpt>
      <trkpt lat="47.94065" lon="-3.46327">
        <ele>31.18</ele>
        <time>2018-05-30T15:08:12Z</time>
      </trkpt>
      <trkpt lat="47.94065" lon="-3.46325">
        <ele>31.27</ele>
        <time>2018-05-30T15:08:13Z</time>
      </trkpt>
      <trkpt lat="47.94064" lon="-3.46322">
        <ele>31.43</ele>
        <time>2018-05-30T15:08:15Z</time>
      </trkpt>
      <trkpt lat="47.94063" lon="-3.4632">
        <ele>31.5</ele>
        <time>2018-05-30T15:08:16Z</time>
      </trkpt>
      <trkpt lat="47.94062" lon="-3.46317">
        <ele>31.61</ele>
        <time>2018-05-30T15:08:17Z</time>
      </trkpt>
      <trkpt lat="47.94059" lon="-3.46294">
        <ele>33</ele>
        <time>2018-05-30T15:08:26Z</time>
      </trkpt>
      <trkpt lat="47.94058" lon="-3.46292">
        <ele>33.13</ele>
        <time>2018-05-30T15:08:27Z</time>
      </trkpt>
      <trkpt lat="47.94058" lon="-3.4629">
        <ele>33.27</ele>
        <time>2018-05-30T15:08:28Z</time>
      </trkpt>
      <trkpt lat="47.94057" lon="-3.46287">
        <ele>33.4</ele>
        <time>2018-05-30T15:08:29Z</time>
      </trkpt>
      <trkpt lat="47.94057" lon="-3.46285">
        <ele>33.51</ele>
        <time>2018-05-30T15:08:30Z</time>
      </trkpt>
      <trkpt lat="47.94058" lon="-3.46283">
        <ele>33.62</ele>
        <time>2018-05-30T15:08:31Z</time>
      </trkpt>
      <trkpt lat="47.94059" lon="-3.4628">
        <ele>33.73</ele>
        <time>2018-05-30T15:08:32Z</time>
      </trkpt>
      <trkpt lat="47.94059" lon="-3.46278">
        <ele>33.86</ele>
        <time>2018-05-30T15:08:33Z</time>
      </trkpt>
      <trkpt lat="47.94058" lon="-3.46276">
        <ele>34</ele>
        <time>2018-05-30T15:08:34Z</time>
      </trkpt>
      <trkpt lat="47.94058" lon="-3.46273">
        <ele>34.13</ele>
        <time>2018-05-30T15:08:35Z</time>
      </trkpt>
      <trkpt lat="47.94057" lon="-3.46271">
        <ele>34.24</ele>
        <time>2018-05-30T15:08:36Z</time>
      </trkpt>
      <trkpt lat="47.94056" lon="-3.46268">
        <ele>34.43</ele>
        <time>2018-05-30T15:08:38Z</time>
      </trkpt>
      <trkpt lat="47.94056" lon="-3.46266">
        <ele>34.49</ele>
        <time>2018-05-30T15:08:39Z</time>
      </trkpt>
      <trkpt lat="47.94053" lon="-3.46247">
        <ele>35.13</ele>
        <time>2018-05-30T15:08:50Z</time>
      </trkpt>
      <trkpt lat="47.94052" lon="-3.46245">
        <ele>35.2</ele>
        <time>2018-05-30T15:08:51Z</time>
      </trkpt>
      <trkpt lat="47.94053" lon="-3.46241">
        <ele>35.28</ele>
        <time>2018-05-30T15:08:53Z</time>
      </trkpt>
      <trkpt lat="47.94053" lon="-3.46217">
        <ele>35.54</ele>
        <time>2018-05-30T15:09:04Z</time>
      </trkpt>
      <trkpt lat="47.94053" lon="-3.46205">
        <ele>35.7</ele>
        <time>2018-05-30T15:09:08Z</time>
      </trkpt>
      <trkpt lat="47.94053" lon="-3.46202">
        <ele>35.73</ele>
        <time>2018-05-30T15:09:09Z</time>
      </trkpt>
      <trkpt lat="47.94052" lon="-3.462">
        <ele>35.75</ele>
        <time>2018-05-30T15:09:10Z</time>
      </trkpt>
      <trkpt lat="47.94052" lon="-3.46197">
        <ele>35.78</ele>
        <time>2018-05-30T15:09:11Z</time>
      </trkpt>
      <trkpt lat="47.94052" lon="-3.46194">
        <ele>35.79</ele>
        <time>2018-05-30T15:09:12Z</time>
      </trkpt>
      <trkpt lat="47.94052" lon="-3.4619">
        <ele>35.79</ele>
        <time>2018-05-30T15:09:13Z</time>
      </trkpt>
      <trkpt lat="47.9405" lon="-3.46164">
        <ele>36.07</ele>
        <time>2018-05-30T15:09:24Z</time>
      </trkpt>
      <trkpt lat="47.94046" lon="-3.46145">
        <ele>36.77</ele>
        <time>2018-05-30T15:09:33Z</time>
      </trkpt>
      <trkpt lat="47.94045" lon="-3.46143">
        <ele>36.91</ele>
        <time>2018-05-30T15:09:34Z</time>
      </trkpt>
      <trkpt lat="47.94045" lon="-3.4614">
        <ele>37.05</ele>
        <time>2018-05-30T15:09:35Z</time>
      </trkpt>
      <trkpt lat="47.94045" lon="-3.46138">
        <ele>37.17</ele>
        <time>2018-05-30T15:09:36Z</time>
      </trkpt>
      <trkpt lat="47.94045" lon="-3.46136">
        <ele>37.27</ele>
        <time>2018-05-30T15:09:37Z</time>
      </trkpt>
      <trkpt lat="47.94045" lon="-3.46134">
        <ele>37.35</ele>
        <time>2018-05-30T15:09:38Z</time>
      </trkpt>
      <trkpt lat="47.94045" lon="-3.46131">
        <ele>37.43</ele>
        <time>2018-05-30T15:09:39Z</time>
      </trkpt>
      <trkpt lat="47.94044" lon="-3.46129">
        <ele>37.52</ele>
        <time>2018-05-30T15:09:40Z</time>
      </trkpt>
      <trkpt lat="47.94043" lon="-3.46126">
        <ele>37.61</ele>
        <time>2018-05-30T15:09:41Z</time>
      </trkpt>
      <trkpt lat="47.94043" lon="-3.46124">
        <ele>37.68</ele>
        <time>2018-05-30T15:09:42Z</time>
      </trkpt>
      <trkpt lat="47.94043" lon="-3.46117">
        <ele>37.86</ele>
        <time>2018-05-30T15:09:45Z</time>
      </trkpt>
      <trkpt lat="47.94042" lon="-3.46114">
        <ele>37.96</ele>
        <time>2018-05-30T15:09:46Z</time>
      </trkpt>
      <trkpt lat="47.94042" lon="-3.46111">
        <ele>38.1</ele>
        <time>2018-05-30T15:09:47Z</time>
      </trkpt>
      <trkpt lat="47.94042" lon="-3.46108">
        <ele>38.23</ele>
        <time>2018-05-30T15:09:48Z</time>
      </trkpt>
      <trkpt lat="47.94042" lon="-3.461">
        <ele>38.65</ele>
        <time>2018-05-30T15:09:52Z</time>
      </trkpt>
      <trkpt lat="47.94041" lon="-3.46087">
        <ele>39.04</ele>
        <time>2018-05-30T15:09:58Z</time>
      </trkpt>
      <trkpt lat="47.9404" lon="-3.46081">
        <ele>39.64</ele>
        <time>2018-05-30T15:10:11Z</time>
      </trkpt>
      <trkpt lat="47.94039" lon="-3.4608">
        <ele>39.64</ele>
        <time>2018-05-30T15:10:13Z</time>
      </trkpt>
      <trkpt lat="47.94042" lon="-3.46074">
        <ele>39.54</ele>
        <time>2018-05-30T15:10:28Z</time>
      </trkpt>
      <trkpt lat="47.94043" lon="-3.46072">
        <ele>39.54</ele>
        <time>2018-05-30T15:10:29Z</time>
      </trkpt>
      <trkpt lat="47.94043" lon="-3.46069">
        <ele>39.55</ele>
        <time>2018-05-30T15:10:30Z</time>
      </trkpt>
      <trkpt lat="47.94043" lon="-3.46067">
        <ele>39.57</ele>
        <time>2018-05-30T15:10:31Z</time>
      </trkpt>
      <trkpt lat="47.94044" lon="-3.46065">
        <ele>39.59</ele>
        <time>2018-05-30T15:10:32Z</time>
      </trkpt>
      <trkpt lat="47.94045" lon="-3.46063">
        <ele>39.68</ele>
        <time>2018-05-30T15:10:34Z</time>
      </trkpt>
      <trkpt lat="47.94045" lon="-3.46061">
        <ele>39.72</ele>
        <time>2018-05-30T15:10:35Z</time>
      </trkpt>
      <trkpt lat="47.94045" lon="-3.4606">
        <ele>39.75</ele>
        <time>2018-05-30T15:10:36Z</time>
      </trkpt>
      <trkpt lat="47.94045" lon="-3.46058">
        <ele>39.78</ele>
        <time>2018-05-30T15:10:37Z</time>
      </trkpt>
      <trkpt lat="47.94045" lon="-3.46055">
        <ele>39.81</ele>
        <time>2018-05-30T15:10:38Z</time>
      </trkpt>
      <trkpt lat="47.94043" lon="-3.46028">
        <ele>40.33</ele>
        <time>2018-05-30T15:10:50Z</time>
      </trkpt>
      <trkpt lat="47.94042" lon="-3.45998">
        <ele>40.29</ele>
        <time>2018-05-30T15:11:03Z</time>
      </trkpt>
      <trkpt lat="47.94042" lon="-3.45995">
        <ele>40.3</ele>
        <time>2018-05-30T15:11:05Z</time>
      </trkpt>
      <trkpt lat="47.94042" lon="-3.45992">
        <ele>40.33</ele>
        <time>2018-05-30T15:11:06Z</time>
      </trkpt>
      <trkpt lat="47.94042" lon="-3.45977">
        <ele>40.46</ele>
        <time>2018-05-30T15:11:13Z</time>
      </trkpt>
      <trkpt lat="47.94042" lon="-3.45971">
        <ele>40.46</ele>
        <time>2018-05-30T15:11:15Z</time>
      </trkpt>
      <trkpt lat="47.94042" lon="-3.45962">
        <ele>40.58</ele>
        <time>2018-05-30T15:11:19Z</time>
      </trkpt>
      <trkpt lat="47.94042" lon="-3.45959">
        <ele>40.61</ele>
        <time>2018-05-30T15:11:20Z</time>
      </trkpt>
      <trkpt lat="47.94042" lon="-3.45957">
        <ele>40.63</ele>
        <time>2018-05-30T15:11:21Z</time>
      </trkpt>
      <trkpt lat="47.94042" lon="-3.45949">
        <ele>40.64</ele>
        <time>2018-05-30T15:11:24Z</time>
      </trkpt>
      <trkpt lat="47.94042" lon="-3.45946">
        <ele>40.64</ele>
        <time>2018-05-30T15:11:25Z</time>
      </trkpt>
      <trkpt lat="47.94042" lon="-3.45944">
        <ele>40.63</ele>
        <time>2018-05-30T15:11:26Z</time>
      </trkpt>
      <trkpt lat="47.94043" lon="-3.45941">
        <ele>40.61</ele>
        <time>2018-05-30T15:11:27Z</time>
      </trkpt>
      <trkpt lat="47.94043" lon="-3.45938">
        <ele>40.6</ele>
        <time>2018-05-30T15:11:28Z</time>
      </trkpt>
      <trkpt lat="47.94043" lon="-3.45936">
        <ele>40.59</ele>
        <time>2018-05-30T15:11:29Z</time>
      </trkpt>
      <trkpt lat="47.94042" lon="-3.45933">
        <ele>40.59</ele>
        <time>2018-05-30T15:11:30Z</time>
      </trkpt>
      <trkpt lat="47.94042" lon="-3.4593">
        <ele>40.57</ele>
        <time>2018-05-30T15:11:31Z</time>
      </trkpt>
      <trkpt lat="47.9404" lon="-3.45901">
        <ele>41.06</ele>
        <time>2018-05-30T15:11:44Z</time>
      </trkpt>
      <trkpt lat="47.9404" lon="-3.45893">
        <ele>41.05</ele>
        <time>2018-05-30T15:11:47Z</time>
      </trkpt>
      <trkpt lat="47.9404" lon="-3.45891">
        <ele>41.04</ele>
        <time>2018-05-30T15:11:48Z</time>
      </trkpt>
      <trkpt lat="47.9404" lon="-3.45889">
        <ele>41.01</ele>
        <time>2018-05-30T15:11:49Z</time>
      </trkpt>
      <trkpt lat="47.9404" lon="-3.45886">
        <ele>40.99</ele>
        <time>2018-05-30T15:11:50Z</time>
      </trkpt>
      <trkpt lat="47.94041" lon="-3.45883">
        <ele>41</ele>
        <time>2018-05-30T15:11:51Z</time>
      </trkpt>
      <trkpt lat="47.94041" lon="-3.4588">
        <ele>41.03</ele>
        <time>2018-05-30T15:11:52Z</time>
      </trkpt>
      <trkpt lat="47.94041" lon="-3.45877">
        <ele>41.07</ele>
        <time>2018-05-30T15:11:53Z</time>
      </trkpt>
      <trkpt lat="47.94042" lon="-3.45875">
        <ele>41.11</ele>
        <time>2018-05-30T15:11:54Z</time>
      </trkpt>
      <trkpt lat="47.94042" lon="-3.45872">
        <ele>41.13</ele>
        <time>2018-05-30T15:11:55Z</time>
      </trkpt>
      <trkpt lat="47.94043" lon="-3.4587">
        <ele>41.16</ele>
        <time>2018-05-30T15:11:56Z</time>
      </trkpt>
      <trkpt lat="47.94044" lon="-3.45866">
        <ele>41.18</ele>
        <time>2018-05-30T15:11:58Z</time>
      </trkpt>
      <trkpt lat="47.94045" lon="-3.45864">
        <ele>41.18</ele>
        <time>2018-05-30T15:11:59Z</time>
      </trkpt>
      <trkpt lat="47.94046" lon="-3.45862">
        <ele>41.18</ele>
        <time>2018-05-30T15:12:00Z</time>
      </trkpt>
      <trkpt lat="47.94046" lon="-3.45861">
        <ele>41.12</ele>
        <time>2018-05-30T15:12:01Z</time>
      </trkpt>
      <trkpt lat="47.94047" lon="-3.45858">
        <ele>41.08</ele>
        <time>2018-05-30T15:12:02Z</time>
      </trkpt>
      <trkpt lat="47.94048" lon="-3.45852">
        <ele>40.97</ele>
        <time>2018-05-30T15:12:05Z</time>
      </trkpt>
      <trkpt lat="47.94048" lon="-3.4585">
        <ele>40.96</ele>
        <time>2018-05-30T15:12:06Z</time>
      </trkpt>
      <trkpt lat="47.94048" lon="-3.45848">
        <ele>40.96</ele>
        <time>2018-05-30T15:12:07Z</time>
      </trkpt>
      <trkpt lat="47.94049" lon="-3.45846">
        <ele>40.98</ele>
        <time>2018-05-30T15:12:08Z</time>
      </trkpt>
      <trkpt lat="47.94049" lon="-3.45843">
        <ele>41.02</ele>
        <time>2018-05-30T15:12:09Z</time>
      </trkpt>
      <trkpt lat="47.94049" lon="-3.4584">
        <ele>41.08</ele>
        <time>2018-05-30T15:12:10Z</time>
      </trkpt>
      <trkpt lat="47.94049" lon="-3.45837">
        <ele>41.12</ele>
        <time>2018-05-30T15:12:11Z</time>
      </trkpt>
      <trkpt lat="47.9405" lon="-3.45835">
        <ele>41.16</ele>
        <time>2018-05-30T15:12:12Z</time>
      </trkpt>
      <trkpt lat="47.9405" lon="-3.45833">
        <ele>41.2</ele>
        <time>2018-05-30T15:12:13Z</time>
      </trkpt>
      <trkpt lat="47.9405" lon="-3.4583">
        <ele>41.24</ele>
        <time>2018-05-30T15:12:14Z</time>
      </trkpt>
      <trkpt lat="47.9405" lon="-3.45827">
        <ele>41.27</ele>
        <time>2018-05-30T15:12:15Z</time>
      </trkpt>
      <trkpt lat="47.9405" lon="-3.45823">
        <ele>41.3</ele>
        <time>2018-05-30T15:12:16Z</time>
      </trkpt>
      <trkpt lat="47.9405" lon="-3.4582">
        <ele>41.33</ele>
        <time>2018-05-30T15:12:17Z</time>
      </trkpt>
      <trkpt lat="47.9405" lon="-3.45818">
        <ele>41.36</ele>
        <time>2018-05-30T15:12:18Z</time>
      </trkpt>
      <trkpt lat="47.94048" lon="-3.45798">
        <ele>41.79</ele>
        <time>2018-05-30T15:12:25Z</time>
      </trkpt>
      <trkpt lat="47.94048" lon="-3.45796">
        <ele>41.96</ele>
        <time>2018-05-30T15:12:26Z</time>
      </trkpt>
      <trkpt lat="47.94049" lon="-3.45793">
        <ele>42.06</ele>
        <time>2018-05-30T15:12:27Z</time>
      </trkpt>
      <trkpt lat="47.94049" lon="-3.4579">
        <ele>42.16</ele>
        <time>2018-05-30T15:12:28Z</time>
      </trkpt>
      <trkpt lat="47.94049" lon="-3.45788">
        <ele>42.28</ele>
        <time>2018-05-30T15:12:29Z</time>
      </trkpt>
      <trkpt lat="47.9405" lon="-3.45786">
        <ele>42.43</ele>
        <time>2018-05-30T15:12:30Z</time>
      </trkpt>
      <trkpt lat="47.9405" lon="-3.45784">
        <ele>42.59</ele>
        <time>2018-05-30T15:12:31Z</time>
      </trkpt>
      <trkpt lat="47.9405" lon="-3.45782">
        <ele>42.75</ele>
        <time>2018-05-30T15:12:32Z</time>
      </trkpt>
      <trkpt lat="47.9405" lon="-3.45779">
        <ele>42.92</ele>
        <time>2018-05-30T15:12:33Z</time>
      </trkpt>
      <trkpt lat="47.9405" lon="-3.45777">
        <ele>43.07</ele>
        <time>2018-05-30T15:12:34Z</time>
      </trkpt>
      <trkpt lat="47.94051" lon="-3.45775">
        <ele>43.22</ele>
        <time>2018-05-30T15:12:35Z</time>
      </trkpt>
      <trkpt lat="47.94051" lon="-3.45772">
        <ele>43.37</ele>
        <time>2018-05-30T15:12:36Z</time>
      </trkpt>
      <trkpt lat="47.94052" lon="-3.4577">
        <ele>43.5</ele>
        <time>2018-05-30T15:12:37Z</time>
      </trkpt>
      <trkpt lat="47.94053" lon="-3.45754">
        <ele>44.38</ele>
        <time>2018-05-30T15:12:42Z</time>
      </trkpt>
      <trkpt lat="47.94053" lon="-3.45752">
        <ele>44.59</ele>
        <time>2018-05-30T15:12:43Z</time>
      </trkpt>
      <trkpt lat="47.94053" lon="-3.45749">
        <ele>44.78</ele>
        <time>2018-05-30T15:12:44Z</time>
      </trkpt>
      <trkpt lat="47.94053" lon="-3.45746">
        <ele>44.99</ele>
        <time>2018-05-30T15:12:45Z</time>
      </trkpt>
      <trkpt lat="47.94053" lon="-3.45743">
        <ele>45.21</ele>
        <time>2018-05-30T15:12:46Z</time>
      </trkpt>
      <trkpt lat="47.94053" lon="-3.4574">
        <ele>45.44</ele>
        <time>2018-05-30T15:12:47Z</time>
      </trkpt>
      <trkpt lat="47.94053" lon="-3.45737">
        <ele>45.86</ele>
        <time>2018-05-30T15:12:48Z</time>
      </trkpt>
      <trkpt lat="47.94052" lon="-3.45734">
        <ele>45.86</ele>
        <time>2018-05-30T15:12:49Z</time>
      </trkpt>
      <trkpt lat="47.94052" lon="-3.45731">
        <ele>46.33</ele>
        <time>2018-05-30T15:12:50Z</time>
      </trkpt>
      <trkpt lat="47.94051" lon="-3.45729">
        <ele>46.59</ele>
        <time>2018-05-30T15:12:51Z</time>
      </trkpt>
      <trkpt lat="47.94045" lon="-3.45701">
        <ele>48.93</ele>
        <time>2018-05-30T15:13:00Z</time>
      </trkpt>
      <trkpt lat="47.94043" lon="-3.45691">
        <ele>49.97</ele>
        <time>2018-05-30T15:13:05Z</time>
      </trkpt>
      <trkpt lat="47.94042" lon="-3.45689">
        <ele>50.16</ele>
        <time>2018-05-30T15:13:06Z</time>
      </trkpt>
      <trkpt lat="47.94042" lon="-3.45687">
        <ele>50.34</ele>
        <time>2018-05-30T15:13:07Z</time>
      </trkpt>
      <trkpt lat="47.94042" lon="-3.45685">
        <ele>50.51</ele>
        <time>2018-05-30T15:13:08Z</time>
      </trkpt>
      <trkpt lat="47.94042" lon="-3.45682">
        <ele>50.7</ele>
        <time>2018-05-30T15:13:09Z</time>
      </trkpt>
      <trkpt lat="47.94042" lon="-3.45679">
        <ele>50.96</ele>
        <time>2018-05-30T15:13:10Z</time>
      </trkpt>
      <trkpt lat="47.94042" lon="-3.45677">
        <ele>51.23</ele>
        <time>2018-05-30T15:13:11Z</time>
      </trkpt>
      <trkpt lat="47.94042" lon="-3.45673">
        <ele>51.45</ele>
        <time>2018-05-30T15:13:12Z</time>
      </trkpt>
      <trkpt lat="47.94041" lon="-3.45671">
        <ele>51.9</ele>
        <time>2018-05-30T15:13:13Z</time>
      </trkpt>
      <trkpt lat="47.9404" lon="-3.45668">
        <ele>51.9</ele>
        <time>2018-05-30T15:13:14Z</time>
      </trkpt>
      <trkpt lat="47.9404" lon="-3.45665">
        <ele>52.31</ele>
        <time>2018-05-30T15:13:15Z</time>
      </trkpt>
      <trkpt lat="47.9404" lon="-3.45662">
        <ele>52.52</ele>
        <time>2018-05-30T15:13:16Z</time>
      </trkpt>
      <trkpt lat="47.94039" lon="-3.4566">
        <ele>52.74</ele>
        <time>2018-05-30T15:13:17Z</time>
      </trkpt>
      <trkpt lat="47.94029" lon="-3.45625">
        <ele>55.9</ele>
        <time>2018-05-30T15:13:33Z</time>
      </trkpt>
      <trkpt lat="47.94018" lon="-3.45606">
        <ele>58.95</ele>
        <time>2018-05-30T15:13:46Z</time>
      </trkpt>
      <trkpt lat="47.94005" lon="-3.45591">
        <ele>61.51</ele>
        <time>2018-05-30T15:14:00Z</time>
      </trkpt>
      <trkpt lat="47.93986" lon="-3.45566">
        <ele>63.28</ele>
        <time>2018-05-30T15:14:08Z</time>
      </trkpt>
      <trkpt lat="47.9396" lon="-3.45533">
        <ele>66.52</ele>
        <time>2018-05-30T15:14:16Z</time>
      </trkpt>
      <trkpt lat="47.9394" lon="-3.4551">
        <ele>69.6</ele>
        <time>2018-05-30T15:14:24Z</time>
      </trkpt>
      <trkpt lat="47.93925" lon="-3.45492">
        <ele>72.8</ele>
        <time>2018-05-30T15:14:33Z</time>
      </trkpt>
      <trkpt lat="47.93914" lon="-3.45454">
        <ele>74.38</ele>
        <time>2018-05-30T15:14:49Z</time>
      </trkpt>
      <trkpt lat="47.93913" lon="-3.45424">
        <ele>74.53</ele>
        <time>2018-05-30T15:15:02Z</time>
      </trkpt>
      <trkpt lat="47.93913" lon="-3.45422">
        <ele>74.52</ele>
        <time>2018-05-30T15:15:03Z</time>
      </trkpt>
      <trkpt lat="47.93913" lon="-3.4542">
        <ele>74.52</ele>
        <time>2018-05-30T15:15:04Z</time>
      </trkpt>
      <trkpt lat="47.93913" lon="-3.45417">
        <ele>74.52</ele>
        <time>2018-05-30T15:15:05Z</time>
      </trkpt>
      <trkpt lat="47.93913" lon="-3.45415">
        <ele>74.51</ele>
        <time>2018-05-30T15:15:06Z</time>
      </trkpt>
      <trkpt lat="47.93913" lon="-3.45413">
        <ele>74.49</ele>
        <time>2018-05-30T15:15:07Z</time>
      </trkpt>
      <trkpt lat="47.93913" lon="-3.45409">
        <ele>74.5</ele>
        <time>2018-05-30T15:15:09Z</time>
      </trkpt>
      <trkpt lat="47.93915" lon="-3.45373">
        <ele>73.79</ele>
        <time>2018-05-30T15:15:25Z</time>
      </trkpt>
      <trkpt lat="47.93918" lon="-3.45333">
        <ele>73.07</ele>
        <time>2018-05-30T15:15:42Z</time>
      </trkpt>
      <trkpt lat="47.9392" lon="-3.45295">
        <ele>72.69</ele>
        <time>2018-05-30T15:15:57Z</time>
      </trkpt>
      <trkpt lat="47.93924" lon="-3.45265">
        <ele>72.63</ele>
        <time>2018-05-30T15:16:10Z</time>
      </trkpt>
      <trkpt lat="47.93924" lon="-3.45252">
        <ele>72.71</ele>
        <time>2018-05-30T15:16:16Z</time>
      </trkpt>
      <trkpt lat="47.93925" lon="-3.4525">
        <ele>72.74</ele>
        <time>2018-05-30T15:16:17Z</time>
      </trkpt>
      <trkpt lat="47.93925" lon="-3.45248">
        <ele>72.77</ele>
        <time>2018-05-30T15:16:18Z</time>
      </trkpt>
      <trkpt lat="47.93926" lon="-3.45246">
        <ele>72.78</ele>
        <time>2018-05-30T15:16:19Z</time>
      </trkpt>
      <trkpt lat="47.93926" lon="-3.45244">
        <ele>72.78</ele>
        <time>2018-05-30T15:16:20Z</time>
      </trkpt>
      <trkpt lat="47.93927" lon="-3.45237">
        <ele>72.77</ele>
        <time>2018-05-30T15:16:24Z</time>
      </trkpt>
      <trkpt lat="47.9393" lon="-3.452">
        <ele>72.95</ele>
        <time>2018-05-30T15:16:40Z</time>
      </trkpt>
      <trkpt lat="47.93932" lon="-3.45184">
        <ele>73.01</ele>
        <time>2018-05-30T15:16:47Z</time>
      </trkpt>
      <trkpt lat="47.93932" lon="-3.45182">
        <ele>73.06</ele>
        <time>2018-05-30T15:16:48Z</time>
      </trkpt>
      <trkpt lat="47.93937" lon="-3.45146">
        <ele>73.32</ele>
        <time>2018-05-30T15:17:02Z</time>
      </trkpt>
      <trkpt lat="47.9394" lon="-3.45122">
        <ele>73.47</ele>
        <time>2018-05-30T15:17:12Z</time>
      </trkpt>
      <trkpt lat="47.9394" lon="-3.4512">
        <ele>73.47</ele>
        <time>2018-05-30T15:17:13Z</time>
      </trkpt>
      <trkpt lat="47.9394" lon="-3.45118">
        <ele>73.47</ele>
        <time>2018-05-30T15:17:14Z</time>
      </trkpt>
      <trkpt lat="47.93943" lon="-3.4509">
        <ele>73.89</ele>
        <time>2018-05-30T15:17:28Z</time>
      </trkpt>
      <trkpt lat="47.93947" lon="-3.45068">
        <ele>74.48</ele>
        <time>2018-05-30T15:17:39Z</time>
      </trkpt>
      <trkpt lat="47.93947" lon="-3.45065">
        <ele>74.49</ele>
        <time>2018-05-30T15:17:40Z</time>
      </trkpt>
      <trkpt lat="47.93948" lon="-3.45063">
        <ele>74.48</ele>
        <time>2018-05-30T15:17:41Z</time>
      </trkpt>
      <trkpt lat="47.93948" lon="-3.4506">
        <ele>74.47</ele>
        <time>2018-05-30T15:17:42Z</time>
      </trkpt>
      <trkpt lat="47.93948" lon="-3.45057">
        <ele>74.48</ele>
        <time>2018-05-30T15:17:43Z</time>
      </trkpt>
      <trkpt lat="47.93949" lon="-3.45053">
        <ele>74.51</ele>
        <time>2018-05-30T15:17:44Z</time>
      </trkpt>
      <trkpt lat="47.93949" lon="-3.45051">
        <ele>74.55</ele>
        <time>2018-05-30T15:17:45Z</time>
      </trkpt>
      <trkpt lat="47.93958" lon="-3.45002">
        <ele>75.24</ele>
        <time>2018-05-30T15:17:59Z</time>
      </trkpt>
      <trkpt lat="47.93965" lon="-3.4495">
        <ele>77.48</ele>
        <time>2018-05-30T15:18:11Z</time>
      </trkpt>
      <trkpt lat="47.93966" lon="-3.44912">
        <ele>79.88</ele>
        <time>2018-05-30T15:18:24Z</time>
      </trkpt>
      <trkpt lat="47.93963" lon="-3.44895">
        <ele>80.82</ele>
        <time>2018-05-30T15:18:32Z</time>
      </trkpt>
      <trkpt lat="47.93961" lon="-3.44894">
        <ele>80.88</ele>
        <time>2018-05-30T15:18:33Z</time>
      </trkpt>
      <trkpt lat="47.9396" lon="-3.44894">
        <ele>80.88</ele>
        <time>2018-05-30T15:18:34Z</time>
      </trkpt>
      <trkpt lat="47.9395" lon="-3.44892">
        <ele>80.79</ele>
        <time>2018-05-30T15:18:50Z</time>
      </trkpt>
      <trkpt lat="47.93947" lon="-3.44891">
        <ele>80.78</ele>
        <time>2018-05-30T15:18:53Z</time>
      </trkpt>
      <trkpt lat="47.93922" lon="-3.44887">
        <ele>79.67</ele>
        <time>2018-05-30T15:19:10Z</time>
      </trkpt>
      <trkpt lat="47.93912" lon="-3.44887">
        <ele>78.39</ele>
        <time>2018-05-30T15:19:22Z</time>
      </trkpt>
      <trkpt lat="47.93897" lon="-3.44891">
        <ele>76.97</ele>
        <time>2018-05-30T15:19:35Z</time>
      </trkpt>
      <trkpt lat="47.93896" lon="-3.44892">
        <ele>76.93</ele>
        <time>2018-05-30T15:19:36Z</time>
      </trkpt>
      <trkpt lat="47.93891" lon="-3.44895">
        <ele>76.69</ele>
        <time>2018-05-30T15:19:40Z</time>
      </trkpt>
      <trkpt lat="47.93881" lon="-3.44907">
        <ele>76.54</ele>
        <time>2018-05-30T15:19:53Z</time>
      </trkpt>
      <trkpt lat="47.9387" lon="-3.4493">
        <ele>77.09</ele>
        <time>2018-05-30T15:20:08Z</time>
      </trkpt>
      <trkpt lat="47.93867" lon="-3.44938">
        <ele>77.42</ele>
        <time>2018-05-30T15:20:13Z</time>
      </trkpt>
      <trkpt lat="47.93867" lon="-3.4494">
        <ele>77.48</ele>
        <time>2018-05-30T15:20:14Z</time>
      </trkpt>
      <trkpt lat="47.93866" lon="-3.44947">
        <ele>77.69</ele>
        <time>2018-05-30T15:20:18Z</time>
      </trkpt>
      <trkpt lat="47.93866" lon="-3.44949">
        <ele>77.74</ele>
        <time>2018-05-30T15:20:19Z</time>
      </trkpt>
      <trkpt lat="47.93865" lon="-3.44951">
        <ele>77.79</ele>
        <time>2018-05-30T15:20:20Z</time>
      </trkpt>
      <trkpt lat="47.93863" lon="-3.44956">
        <ele>78.01</ele>
        <time>2018-05-30T15:20:24Z</time>
      </trkpt>
      <trkpt lat="47.93862" lon="-3.44958">
        <ele>78.08</ele>
        <time>2018-05-30T15:20:25Z</time>
      </trkpt>
      <trkpt lat="47.93862" lon="-3.4496">
        <ele>78.16</ele>
        <time>2018-05-30T15:20:26Z</time>
      </trkpt>
      <trkpt lat="47.93861" lon="-3.44963">
        <ele>78.24</ele>
        <time>2018-05-30T15:20:27Z</time>
      </trkpt>
      <trkpt lat="47.9386" lon="-3.44965">
        <ele>78.33</ele>
        <time>2018-05-30T15:20:28Z</time>
      </trkpt>
      <trkpt lat="47.9386" lon="-3.44968">
        <ele>78.43</ele>
        <time>2018-05-30T15:20:29Z</time>
      </trkpt>
      <trkpt lat="47.9386" lon="-3.44971">
        <ele>78.52</ele>
        <time>2018-05-30T15:20:30Z</time>
      </trkpt>
      <trkpt lat="47.93859" lon="-3.44973">
        <ele>78.62</ele>
        <time>2018-05-30T15:20:31Z</time>
      </trkpt>
      <trkpt lat="47.93858" lon="-3.44975">
        <ele>78.71</ele>
        <time>2018-05-30T15:20:32Z</time>
      </trkpt>
      <trkpt lat="47.93857" lon="-3.44977">
        <ele>78.8</ele>
        <time>2018-05-30T15:20:33Z</time>
      </trkpt>
      <trkpt lat="47.93856" lon="-3.44983">
        <ele>79.52</ele>
        <time>2018-05-30T15:20:38Z</time>
      </trkpt>
      <trkpt lat="47.93855" lon="-3.44985">
        <ele>79.65</ele>
        <time>2018-05-30T15:20:39Z</time>
      </trkpt>
      <trkpt lat="47.93854" lon="-3.44987">
        <ele>79.76</ele>
        <time>2018-05-30T15:20:40Z</time>
      </trkpt>
      <trkpt lat="47.93853" lon="-3.44989">
        <ele>79.87</ele>
        <time>2018-05-30T15:20:41Z</time>
      </trkpt>
      <trkpt lat="47.93852" lon="-3.4499">
        <ele>79.95</ele>
        <time>2018-05-30T15:20:42Z</time>
      </trkpt>
      <trkpt lat="47.93852" lon="-3.44992">
        <ele>80.02</ele>
        <time>2018-05-30T15:20:43Z</time>
      </trkpt>
      <trkpt lat="47.93852" lon="-3.44994">
        <ele>80.11</ele>
        <time>2018-05-30T15:20:44Z</time>
      </trkpt>
      <trkpt lat="47.93841" lon="-3.45006">
        <ele>80.83</ele>
        <time>2018-05-30T15:20:55Z</time>
      </trkpt>
      <trkpt lat="47.93835" lon="-3.45014">
        <ele>81.12</ele>
        <time>2018-05-30T15:21:02Z</time>
      </trkpt>
      <trkpt lat="47.93818" lon="-3.45037">
        <ele>82.45</ele>
        <time>2018-05-30T15:21:21Z</time>
      </trkpt>
      <trkpt lat="47.93815" lon="-3.45046">
        <ele>82.68</ele>
        <time>2018-05-30T15:21:41Z</time>
      </trkpt>
    </trkseg>
  </trk>
</gpx>